<?xml version="1.0" encoding="UTF-8" standalone="no" ?>
<gpx xmlns="http://www.topografix.com/GPX/1/1" xmlns:xsi="http://www.w3.org/2001/XMLSchema-instance" xsi:schemaLocation="http://www.topografix.com/GPX/1/1 http://www.topografix.com/GPX/1/1/gpx.xsd" version="1.1" creator="VisuGPX - https://www.visugpx.com">
  <metadata>
    <name>GR52</name>
  </metadata>
  <trk>
    <name><![CDATA[20171017105021-22F3R]]></name>
    <trkseg>
      <trkpt lat="44.06812" lon="7.20134">
        <ele>1295.6</ele>
        <time>2017-08-25T06:14:26Z</time>
      </trkpt>
      <trkpt lat="44.06813" lon="7.20133">
        <ele>1295.6</ele>
        <time>2017-08-25T06:14:28Z</time>
      </trkpt>
      <trkpt lat="44.06815" lon="7.20133">
        <ele>1295.9</ele>
        <time>2017-08-25T06:14:30Z</time>
      </trkpt>
      <trkpt lat="44.06817" lon="7.20133">
        <ele>1296.2</ele>
        <time>2017-08-25T06:14:32Z</time>
      </trkpt>
      <trkpt lat="44.0682" lon="7.20133">
        <ele>1296.7</ele>
        <time>2017-08-25T06:14:35Z</time>
      </trkpt>
      <trkpt lat="44.06823" lon="7.20134">
        <ele>1297.2</ele>
        <time>2017-08-25T06:14:38Z</time>
      </trkpt>
      <trkpt lat="44.06824" lon="7.20134">
        <ele>1297.3</ele>
        <time>2017-08-25T06:14:40Z</time>
      </trkpt>
      <trkpt lat="44.06827" lon="7.20135">
        <ele>1297.8</ele>
        <time>2017-08-25T06:14:43Z</time>
      </trkpt>
      <trkpt lat="44.06829" lon="7.20135">
        <ele>1298.1</ele>
        <time>2017-08-25T06:14:46Z</time>
      </trkpt>
      <trkpt lat="44.06832" lon="7.20137">
        <ele>1298.7</ele>
        <time>2017-08-25T06:14:50Z</time>
      </trkpt>
      <trkpt lat="44.06834" lon="7.20138">
        <ele>1299</ele>
        <time>2017-08-25T06:14:54Z</time>
      </trkpt>
      <trkpt lat="44.06838" lon="7.20138">
        <ele>1299.6</ele>
        <time>2017-08-25T06:14:58Z</time>
      </trkpt>
      <trkpt lat="44.0684" lon="7.20138">
        <ele>1299.9</ele>
        <time>2017-08-25T06:15:00Z</time>
      </trkpt>
      <trkpt lat="44.06844" lon="7.20141">
        <ele>1300.8</ele>
        <time>2017-08-25T06:15:05Z</time>
      </trkpt>
      <trkpt lat="44.06849" lon="7.2014">
        <ele>1301.4</ele>
        <time>2017-08-25T06:15:11Z</time>
      </trkpt>
      <trkpt lat="44.06855" lon="7.2014">
        <ele>1302.2</ele>
        <time>2017-08-25T06:15:17Z</time>
      </trkpt>
      <trkpt lat="44.0686" lon="7.20139">
        <ele>1302.9</ele>
        <time>2017-08-25T06:15:22Z</time>
      </trkpt>
      <trkpt lat="44.06863" lon="7.2014">
        <ele>1303.3</ele>
        <time>2017-08-25T06:15:26Z</time>
      </trkpt>
      <trkpt lat="44.06873" lon="7.20144">
        <ele>1304.8</ele>
        <time>2017-08-25T06:15:36Z</time>
      </trkpt>
      <trkpt lat="44.06884" lon="7.2015">
        <ele>1306.7</ele>
        <time>2017-08-25T06:15:48Z</time>
      </trkpt>
      <trkpt lat="44.06895" lon="7.20155">
        <ele>1308.6</ele>
        <time>2017-08-25T06:16:01Z</time>
      </trkpt>
      <trkpt lat="44.06895" lon="7.20155">
        <ele>1308.6</ele>
        <time>2017-08-25T06:16:02Z</time>
      </trkpt>
      <trkpt lat="44.06908" lon="7.20157">
        <ele>1310.5</ele>
        <time>2017-08-25T06:16:17Z</time>
      </trkpt>
      <trkpt lat="44.06926" lon="7.20164">
        <ele>1313</ele>
        <time>2017-08-25T06:16:33Z</time>
      </trkpt>
      <trkpt lat="44.06938" lon="7.20168">
        <ele>1314.5</ele>
        <time>2017-08-25T06:16:47Z</time>
      </trkpt>
      <trkpt lat="44.06952" lon="7.20173">
        <ele>1317.4</ele>
        <time>2017-08-25T06:17:03Z</time>
      </trkpt>
      <trkpt lat="44.06966" lon="7.20178">
        <ele>1320.7</ele>
        <time>2017-08-25T06:17:17Z</time>
      </trkpt>
      <trkpt lat="44.06967" lon="7.20178">
        <ele>1320.8</ele>
        <time>2017-08-25T06:17:18Z</time>
      </trkpt>
      <trkpt lat="44.0698" lon="7.20184">
        <ele>1323.6</ele>
        <time>2017-08-25T06:17:31Z</time>
      </trkpt>
      <trkpt lat="44.06991" lon="7.2019">
        <ele>1325.6</ele>
        <time>2017-08-25T06:17:45Z</time>
      </trkpt>
      <trkpt lat="44.07007" lon="7.20194">
        <ele>1328</ele>
        <time>2017-08-25T06:18:01Z</time>
      </trkpt>
      <trkpt lat="44.07022" lon="7.20198">
        <ele>1330.5</ele>
        <time>2017-08-25T06:18:17Z</time>
      </trkpt>
      <trkpt lat="44.07042" lon="7.20201">
        <ele>1333.9</ele>
        <time>2017-08-25T06:18:34Z</time>
      </trkpt>
      <trkpt lat="44.07056" lon="7.20203">
        <ele>1336.3</ele>
        <time>2017-08-25T06:18:50Z</time>
      </trkpt>
      <trkpt lat="44.07071" lon="7.20206">
        <ele>1339.4</ele>
        <time>2017-08-25T06:19:06Z</time>
      </trkpt>
      <trkpt lat="44.07087" lon="7.20205">
        <ele>1342</ele>
        <time>2017-08-25T06:19:23Z</time>
      </trkpt>
      <trkpt lat="44.07104" lon="7.20198">
        <ele>1343.5</ele>
        <time>2017-08-25T06:19:39Z</time>
      </trkpt>
      <trkpt lat="44.07115" lon="7.20193">
        <ele>1344.6</ele>
        <time>2017-08-25T06:19:54Z</time>
      </trkpt>
      <trkpt lat="44.07127" lon="7.20191">
        <ele>1346.5</ele>
        <time>2017-08-25T06:20:10Z</time>
      </trkpt>
      <trkpt lat="44.07141" lon="7.2019">
        <ele>1348.8</ele>
        <time>2017-08-25T06:20:27Z</time>
      </trkpt>
      <trkpt lat="44.07156" lon="7.20187">
        <ele>1351.9</ele>
        <time>2017-08-25T06:20:44Z</time>
      </trkpt>
      <trkpt lat="44.07169" lon="7.20181">
        <ele>1354.4</ele>
        <time>2017-08-25T06:21:01Z</time>
      </trkpt>
      <trkpt lat="44.07179" lon="7.20188">
        <ele>1356.1</ele>
        <time>2017-08-25T06:21:17Z</time>
      </trkpt>
      <trkpt lat="44.07193" lon="7.20194">
        <ele>1358.7</ele>
        <time>2017-08-25T06:21:34Z</time>
      </trkpt>
      <trkpt lat="44.07202" lon="7.20191">
        <ele>1360</ele>
        <time>2017-08-25T06:21:50Z</time>
      </trkpt>
      <trkpt lat="44.07212" lon="7.2019">
        <ele>1361.5</ele>
        <time>2017-08-25T06:22:07Z</time>
      </trkpt>
      <trkpt lat="44.07224" lon="7.20192">
        <ele>1363.3</ele>
        <time>2017-08-25T06:22:22Z</time>
      </trkpt>
      <trkpt lat="44.07237" lon="7.20187">
        <ele>1365.4</ele>
        <time>2017-08-25T06:22:39Z</time>
      </trkpt>
      <trkpt lat="44.07248" lon="7.20196">
        <ele>1367.2</ele>
        <time>2017-08-25T06:22:55Z</time>
      </trkpt>
      <trkpt lat="44.07264" lon="7.20201">
        <ele>1371.2</ele>
        <time>2017-08-25T06:23:16Z</time>
      </trkpt>
      <trkpt lat="44.0727" lon="7.20175">
        <ele>1373.5</ele>
        <time>2017-08-25T06:23:34Z</time>
      </trkpt>
      <trkpt lat="44.07265" lon="7.20155">
        <ele>1374.6</ele>
        <time>2017-08-25T06:23:54Z</time>
      </trkpt>
      <trkpt lat="44.07257" lon="7.20141">
        <ele>1373.8</ele>
        <time>2017-08-25T06:24:09Z</time>
      </trkpt>
      <trkpt lat="44.07265" lon="7.20147">
        <ele>1375.4</ele>
        <time>2017-08-25T06:24:23Z</time>
      </trkpt>
      <trkpt lat="44.07269" lon="7.2015">
        <ele>1376.3</ele>
        <time>2017-08-25T06:24:28Z</time>
      </trkpt>
      <trkpt lat="44.07279" lon="7.20174">
        <ele>1376</ele>
        <time>2017-08-25T06:24:45Z</time>
      </trkpt>
      <trkpt lat="44.0728" lon="7.20175">
        <ele>1376.1</ele>
        <time>2017-08-25T06:24:46Z</time>
      </trkpt>
      <trkpt lat="44.07292" lon="7.20186">
        <ele>1376.9</ele>
        <time>2017-08-25T06:25:01Z</time>
      </trkpt>
      <trkpt lat="44.07299" lon="7.20188">
        <ele>1378.1</ele>
        <time>2017-08-25T06:25:12Z</time>
      </trkpt>
      <trkpt lat="44.07305" lon="7.20196">
        <ele>1378.1</ele>
        <time>2017-08-25T06:25:20Z</time>
      </trkpt>
      <trkpt lat="44.07313" lon="7.20201">
        <ele>1380</ele>
        <time>2017-08-25T06:25:35Z</time>
      </trkpt>
      <trkpt lat="44.07325" lon="7.20206">
        <ele>1382.5</ele>
        <time>2017-08-25T06:25:49Z</time>
      </trkpt>
      <trkpt lat="44.07331" lon="7.202">
        <ele>1383</ele>
        <time>2017-08-25T06:26:01Z</time>
      </trkpt>
      <trkpt lat="44.07337" lon="7.20199">
        <ele>1384.1</ele>
        <time>2017-08-25T06:26:15Z</time>
      </trkpt>
      <trkpt lat="44.07349" lon="7.20198">
        <ele>1386.5</ele>
        <time>2017-08-25T06:26:31Z</time>
      </trkpt>
      <trkpt lat="44.07364" lon="7.20199">
        <ele>1389.7</ele>
        <time>2017-08-25T06:26:48Z</time>
      </trkpt>
      <trkpt lat="44.07375" lon="7.20204">
        <ele>1392.2</ele>
        <time>2017-08-25T06:27:05Z</time>
      </trkpt>
      <trkpt lat="44.07389" lon="7.20206">
        <ele>1395.2</ele>
        <time>2017-08-25T06:27:23Z</time>
      </trkpt>
      <trkpt lat="44.07403" lon="7.20206">
        <ele>1398.1</ele>
        <time>2017-08-25T06:27:42Z</time>
      </trkpt>
      <trkpt lat="44.07413" lon="7.20207">
        <ele>1400</ele>
        <time>2017-08-25T06:27:56Z</time>
      </trkpt>
      <trkpt lat="44.07423" lon="7.20206">
        <ele>1402.2</ele>
        <time>2017-08-25T06:28:11Z</time>
      </trkpt>
      <trkpt lat="44.07433" lon="7.20209">
        <ele>1403.6</ele>
        <time>2017-08-25T06:28:27Z</time>
      </trkpt>
      <trkpt lat="44.07442" lon="7.20206">
        <ele>1406.2</ele>
        <time>2017-08-25T06:28:44Z</time>
      </trkpt>
      <trkpt lat="44.07451" lon="7.20209">
        <ele>1407.1</ele>
        <time>2017-08-25T06:29:02Z</time>
      </trkpt>
      <trkpt lat="44.0746" lon="7.20207">
        <ele>1409.4</ele>
        <time>2017-08-25T06:29:17Z</time>
      </trkpt>
      <trkpt lat="44.07469" lon="7.20207">
        <ele>1411.2</ele>
        <time>2017-08-25T06:29:34Z</time>
      </trkpt>
      <trkpt lat="44.07479" lon="7.20202">
        <ele>1414.1</ele>
        <time>2017-08-25T06:29:50Z</time>
      </trkpt>
      <trkpt lat="44.07489" lon="7.20202">
        <ele>1415.6</ele>
        <time>2017-08-25T06:30:09Z</time>
      </trkpt>
      <trkpt lat="44.07499" lon="7.20197">
        <ele>1417.6</ele>
        <time>2017-08-25T06:30:26Z</time>
      </trkpt>
      <trkpt lat="44.07506" lon="7.20193">
        <ele>1419.6</ele>
        <time>2017-08-25T06:30:41Z</time>
      </trkpt>
      <trkpt lat="44.07512" lon="7.20189">
        <ele>1422.4</ele>
        <time>2017-08-25T06:30:56Z</time>
      </trkpt>
      <trkpt lat="44.07521" lon="7.20188">
        <ele>1424.4</ele>
        <time>2017-08-25T06:31:13Z</time>
      </trkpt>
      <trkpt lat="44.0753" lon="7.20189">
        <ele>1425.4</ele>
        <time>2017-08-25T06:31:28Z</time>
      </trkpt>
      <trkpt lat="44.07538" lon="7.20191">
        <ele>1426</ele>
        <time>2017-08-25T06:31:43Z</time>
      </trkpt>
      <trkpt lat="44.07547" lon="7.20202">
        <ele>1425.4</ele>
        <time>2017-08-25T06:32:00Z</time>
      </trkpt>
      <trkpt lat="44.07559" lon="7.20206">
        <ele>1427.5</ele>
        <time>2017-08-25T06:32:14Z</time>
      </trkpt>
      <trkpt lat="44.07561" lon="7.20206">
        <ele>1427.9</ele>
        <time>2017-08-25T06:32:17Z</time>
      </trkpt>
      <trkpt lat="44.07571" lon="7.20207">
        <ele>1430</ele>
        <time>2017-08-25T06:32:29Z</time>
      </trkpt>
      <trkpt lat="44.0758" lon="7.20213">
        <ele>1431.3</ele>
        <time>2017-08-25T06:32:43Z</time>
      </trkpt>
      <trkpt lat="44.07591" lon="7.20216">
        <ele>1433.2</ele>
        <time>2017-08-25T06:32:57Z</time>
      </trkpt>
      <trkpt lat="44.07605" lon="7.20218">
        <ele>1435.6</ele>
        <time>2017-08-25T06:33:12Z</time>
      </trkpt>
      <trkpt lat="44.07613" lon="7.20221">
        <ele>1436.6</ele>
        <time>2017-08-25T06:33:25Z</time>
      </trkpt>
      <trkpt lat="44.07624" lon="7.20224">
        <ele>1438.7</ele>
        <time>2017-08-25T06:33:41Z</time>
      </trkpt>
      <trkpt lat="44.07637" lon="7.20231">
        <ele>1442</ele>
        <time>2017-08-25T06:33:58Z</time>
      </trkpt>
      <trkpt lat="44.07649" lon="7.20228">
        <ele>1443.6</ele>
        <time>2017-08-25T06:34:12Z</time>
      </trkpt>
      <trkpt lat="44.07659" lon="7.20229">
        <ele>1445.4</ele>
        <time>2017-08-25T06:34:27Z</time>
      </trkpt>
      <trkpt lat="44.07666" lon="7.2023">
        <ele>1446.7</ele>
        <time>2017-08-25T06:34:41Z</time>
      </trkpt>
      <trkpt lat="44.07678" lon="7.20229">
        <ele>1449.4</ele>
        <time>2017-08-25T06:34:55Z</time>
      </trkpt>
      <trkpt lat="44.07694" lon="7.20233">
        <ele>1453.8</ele>
        <time>2017-08-25T06:35:12Z</time>
      </trkpt>
      <trkpt lat="44.07706" lon="7.20234">
        <ele>1457</ele>
        <time>2017-08-25T06:35:27Z</time>
      </trkpt>
      <trkpt lat="44.07709" lon="7.20232">
        <ele>1457.4</ele>
        <time>2017-08-25T06:35:31Z</time>
      </trkpt>
      <trkpt lat="44.07722" lon="7.20226">
        <ele>1459.6</ele>
        <time>2017-08-25T06:35:48Z</time>
      </trkpt>
      <trkpt lat="44.07722" lon="7.20226">
        <ele>1459.6</ele>
        <time>2017-08-25T06:35:50Z</time>
      </trkpt>
      <trkpt lat="44.07728" lon="7.20227">
        <ele>1461.8</ele>
        <time>2017-08-25T06:35:58Z</time>
      </trkpt>
      <trkpt lat="44.07734" lon="7.20223">
        <ele>1463.3</ele>
        <time>2017-08-25T06:36:11Z</time>
      </trkpt>
      <trkpt lat="44.07741" lon="7.20237">
        <ele>1467.3</ele>
        <time>2017-08-25T06:36:28Z</time>
      </trkpt>
      <trkpt lat="44.07741" lon="7.20238">
        <ele>1467.4</ele>
        <time>2017-08-25T06:36:43Z</time>
      </trkpt>
      <trkpt lat="44.07741" lon="7.20238">
        <ele>1467.4</ele>
        <time>2017-08-25T06:37:01Z</time>
      </trkpt>
      <trkpt lat="44.07746" lon="7.20245">
        <ele>1469.6</ele>
        <time>2017-08-25T06:37:15Z</time>
      </trkpt>
      <trkpt lat="44.07751" lon="7.2025">
        <ele>1471.3</ele>
        <time>2017-08-25T06:37:30Z</time>
      </trkpt>
      <trkpt lat="44.07759" lon="7.20254">
        <ele>1474.1</ele>
        <time>2017-08-25T06:37:42Z</time>
      </trkpt>
      <trkpt lat="44.07759" lon="7.20254">
        <ele>1474.1</ele>
        <time>2017-08-25T06:37:57Z</time>
      </trkpt>
      <trkpt lat="44.07781" lon="7.20246">
        <ele>1481.1</ele>
        <time>2017-08-25T06:38:12Z</time>
      </trkpt>
      <trkpt lat="44.0779" lon="7.20245">
        <ele>1485.6</ele>
        <time>2017-08-25T06:38:29Z</time>
      </trkpt>
      <trkpt lat="44.07804" lon="7.20257">
        <ele>1489.1</ele>
        <time>2017-08-25T06:38:45Z</time>
      </trkpt>
      <trkpt lat="44.07807" lon="7.20259">
        <ele>1489.7</ele>
        <time>2017-08-25T06:39:00Z</time>
      </trkpt>
      <trkpt lat="44.07817" lon="7.20264">
        <ele>1492.2</ele>
        <time>2017-08-25T06:39:16Z</time>
      </trkpt>
      <trkpt lat="44.07833" lon="7.20274">
        <ele>1495.2</ele>
        <time>2017-08-25T06:39:33Z</time>
      </trkpt>
      <trkpt lat="44.07849" lon="7.20277">
        <ele>1499.9</ele>
        <time>2017-08-25T06:39:51Z</time>
      </trkpt>
      <trkpt lat="44.07861" lon="7.20266">
        <ele>1508.2</ele>
        <time>2017-08-25T06:40:08Z</time>
      </trkpt>
      <trkpt lat="44.07865" lon="7.20264">
        <ele>1510.3</ele>
        <time>2017-08-25T06:40:24Z</time>
      </trkpt>
      <trkpt lat="44.0787" lon="7.20265">
        <ele>1511.7</ele>
        <time>2017-08-25T06:40:39Z</time>
      </trkpt>
      <trkpt lat="44.07876" lon="7.20269">
        <ele>1512.5</ele>
        <time>2017-08-25T06:40:54Z</time>
      </trkpt>
      <trkpt lat="44.07885" lon="7.20269">
        <ele>1515.8</ele>
        <time>2017-08-25T06:41:09Z</time>
      </trkpt>
      <trkpt lat="44.079" lon="7.20273">
        <ele>1520.4</ele>
        <time>2017-08-25T06:41:26Z</time>
      </trkpt>
      <trkpt lat="44.07912" lon="7.20275">
        <ele>1524.6</ele>
        <time>2017-08-25T06:41:41Z</time>
      </trkpt>
      <trkpt lat="44.07924" lon="7.20275">
        <ele>1528.5</ele>
        <time>2017-08-25T06:41:58Z</time>
      </trkpt>
      <trkpt lat="44.07934" lon="7.20283">
        <ele>1529.9</ele>
        <time>2017-08-25T06:42:16Z</time>
      </trkpt>
      <trkpt lat="44.07945" lon="7.20284">
        <ele>1533</ele>
        <time>2017-08-25T06:42:32Z</time>
      </trkpt>
      <trkpt lat="44.07954" lon="7.20288">
        <ele>1534.5</ele>
        <time>2017-08-25T06:42:48Z</time>
      </trkpt>
      <trkpt lat="44.07962" lon="7.20294">
        <ele>1535.6</ele>
        <time>2017-08-25T06:43:02Z</time>
      </trkpt>
      <trkpt lat="44.0797" lon="7.203">
        <ele>1537</ele>
        <time>2017-08-25T06:43:18Z</time>
      </trkpt>
      <trkpt lat="44.07978" lon="7.20306">
        <ele>1538.8</ele>
        <time>2017-08-25T06:43:35Z</time>
      </trkpt>
      <trkpt lat="44.07987" lon="7.20314">
        <ele>1541.2</ele>
        <time>2017-08-25T06:43:53Z</time>
      </trkpt>
      <trkpt lat="44.07997" lon="7.20303">
        <ele>1545.1</ele>
        <time>2017-08-25T06:44:07Z</time>
      </trkpt>
      <trkpt lat="44.08004" lon="7.203">
        <ele>1547.5</ele>
        <time>2017-08-25T06:44:22Z</time>
      </trkpt>
      <trkpt lat="44.08017" lon="7.20285">
        <ele>1551.8</ele>
        <time>2017-08-25T06:44:39Z</time>
      </trkpt>
      <trkpt lat="44.08019" lon="7.20281">
        <ele>1552.4</ele>
        <time>2017-08-25T06:44:52Z</time>
      </trkpt>
      <trkpt lat="44.08024" lon="7.20276">
        <ele>1553.9</ele>
        <time>2017-08-25T06:45:21Z</time>
      </trkpt>
      <trkpt lat="44.08026" lon="7.20272">
        <ele>1554.5</ele>
        <time>2017-08-25T06:45:26Z</time>
      </trkpt>
      <trkpt lat="44.08033" lon="7.20259">
        <ele>1556.4</ele>
        <time>2017-08-25T06:45:40Z</time>
      </trkpt>
      <trkpt lat="44.08039" lon="7.20246">
        <ele>1557.8</ele>
        <time>2017-08-25T06:45:55Z</time>
      </trkpt>
      <trkpt lat="44.08047" lon="7.20234">
        <ele>1559.8</ele>
        <time>2017-08-25T06:46:10Z</time>
      </trkpt>
      <trkpt lat="44.08053" lon="7.20216">
        <ele>1561.6</ele>
        <time>2017-08-25T06:46:22Z</time>
      </trkpt>
      <trkpt lat="44.08061" lon="7.20204">
        <ele>1563.9</ele>
        <time>2017-08-25T06:46:38Z</time>
      </trkpt>
      <trkpt lat="44.08061" lon="7.20185">
        <ele>1564.4</ele>
        <time>2017-08-25T06:46:51Z</time>
      </trkpt>
      <trkpt lat="44.08068" lon="7.20169">
        <ele>1566.2</ele>
        <time>2017-08-25T06:47:06Z</time>
      </trkpt>
      <trkpt lat="44.08078" lon="7.20159">
        <ele>1567.2</ele>
        <time>2017-08-25T06:47:24Z</time>
      </trkpt>
      <trkpt lat="44.08085" lon="7.20152">
        <ele>1567.7</ele>
        <time>2017-08-25T06:47:37Z</time>
      </trkpt>
      <trkpt lat="44.08088" lon="7.20158">
        <ele>1569</ele>
        <time>2017-08-25T06:47:53Z</time>
      </trkpt>
      <trkpt lat="44.08096" lon="7.20162">
        <ele>1570.9</ele>
        <time>2017-08-25T06:48:09Z</time>
      </trkpt>
      <trkpt lat="44.08109" lon="7.20166">
        <ele>1573.6</ele>
        <time>2017-08-25T06:48:28Z</time>
      </trkpt>
      <trkpt lat="44.08122" lon="7.2017">
        <ele>1576.4</ele>
        <time>2017-08-25T06:48:46Z</time>
      </trkpt>
      <trkpt lat="44.0813" lon="7.20174">
        <ele>1578.2</ele>
        <time>2017-08-25T06:49:04Z</time>
      </trkpt>
      <trkpt lat="44.0813" lon="7.20174">
        <ele>1578.2</ele>
        <time>2017-08-25T06:49:22Z</time>
      </trkpt>
      <trkpt lat="44.08156" lon="7.2017">
        <ele>1583.2</ele>
        <time>2017-08-25T06:49:42Z</time>
      </trkpt>
      <trkpt lat="44.08166" lon="7.20172">
        <ele>1585.1</ele>
        <time>2017-08-25T06:49:58Z</time>
      </trkpt>
      <trkpt lat="44.08181" lon="7.20171">
        <ele>1588.3</ele>
        <time>2017-08-25T06:50:15Z</time>
      </trkpt>
      <trkpt lat="44.08195" lon="7.20158">
        <ele>1591.1</ele>
        <time>2017-08-25T06:50:30Z</time>
      </trkpt>
      <trkpt lat="44.08206" lon="7.20155">
        <ele>1593.9</ele>
        <time>2017-08-25T06:50:48Z</time>
      </trkpt>
      <trkpt lat="44.08215" lon="7.20143">
        <ele>1596.2</ele>
        <time>2017-08-25T06:51:05Z</time>
      </trkpt>
      <trkpt lat="44.08226" lon="7.20121">
        <ele>1598.3</ele>
        <time>2017-08-25T06:51:23Z</time>
      </trkpt>
      <trkpt lat="44.0823" lon="7.20114">
        <ele>1599.1</ele>
        <time>2017-08-25T06:51:45Z</time>
      </trkpt>
      <trkpt lat="44.08232" lon="7.20103">
        <ele>1599.8</ele>
        <time>2017-08-25T06:52:00Z</time>
      </trkpt>
      <trkpt lat="44.08236" lon="7.20079">
        <ele>1601.5</ele>
        <time>2017-08-25T06:52:17Z</time>
      </trkpt>
      <trkpt lat="44.08243" lon="7.20059">
        <ele>1603.2</ele>
        <time>2017-08-25T06:52:33Z</time>
      </trkpt>
      <trkpt lat="44.08255" lon="7.2005">
        <ele>1606.3</ele>
        <time>2017-08-25T06:52:49Z</time>
      </trkpt>
      <trkpt lat="44.08261" lon="7.20047">
        <ele>1607.9</ele>
        <time>2017-08-25T06:53:06Z</time>
      </trkpt>
      <trkpt lat="44.08276" lon="7.20044">
        <ele>1611.9</ele>
        <time>2017-08-25T06:53:25Z</time>
      </trkpt>
      <trkpt lat="44.08288" lon="7.20038">
        <ele>1615.6</ele>
        <time>2017-08-25T06:53:43Z</time>
      </trkpt>
      <trkpt lat="44.08301" lon="7.20027">
        <ele>1619.7</ele>
        <time>2017-08-25T06:53:59Z</time>
      </trkpt>
      <trkpt lat="44.08306" lon="7.20017">
        <ele>1621.1</ele>
        <time>2017-08-25T06:54:14Z</time>
      </trkpt>
      <trkpt lat="44.08312" lon="7.20015">
        <ele>1622.6</ele>
        <time>2017-08-25T06:54:34Z</time>
      </trkpt>
      <trkpt lat="44.08326" lon="7.20019">
        <ele>1626.2</ele>
        <time>2017-08-25T06:54:52Z</time>
      </trkpt>
      <trkpt lat="44.08339" lon="7.20026">
        <ele>1629.6</ele>
        <time>2017-08-25T06:55:10Z</time>
      </trkpt>
      <trkpt lat="44.0835" lon="7.20024">
        <ele>1632.8</ele>
        <time>2017-08-25T06:55:26Z</time>
      </trkpt>
      <trkpt lat="44.0836" lon="7.20021">
        <ele>1635.7</ele>
        <time>2017-08-25T06:55:41Z</time>
      </trkpt>
      <trkpt lat="44.08372" lon="7.20008">
        <ele>1638.7</ele>
        <time>2017-08-25T06:55:59Z</time>
      </trkpt>
      <trkpt lat="44.08382" lon="7.19991">
        <ele>1641.3</ele>
        <time>2017-08-25T06:56:17Z</time>
      </trkpt>
      <trkpt lat="44.08388" lon="7.19976">
        <ele>1642.8</ele>
        <time>2017-08-25T06:56:33Z</time>
      </trkpt>
      <trkpt lat="44.08393" lon="7.19965">
        <ele>1644.2</ele>
        <time>2017-08-25T06:56:49Z</time>
      </trkpt>
      <trkpt lat="44.08399" lon="7.19956">
        <ele>1646.1</ele>
        <time>2017-08-25T06:57:01Z</time>
      </trkpt>
      <trkpt lat="44.08407" lon="7.19949">
        <ele>1648.8</ele>
        <time>2017-08-25T06:57:15Z</time>
      </trkpt>
      <trkpt lat="44.08418" lon="7.19945">
        <ele>1652.4</ele>
        <time>2017-08-25T06:57:31Z</time>
      </trkpt>
      <trkpt lat="44.0842" lon="7.19933">
        <ele>1653.1</ele>
        <time>2017-08-25T06:57:47Z</time>
      </trkpt>
      <trkpt lat="44.08425" lon="7.19922">
        <ele>1654.9</ele>
        <time>2017-08-25T06:58:02Z</time>
      </trkpt>
      <trkpt lat="44.08427" lon="7.19902">
        <ele>1656.1</ele>
        <time>2017-08-25T06:58:19Z</time>
      </trkpt>
      <trkpt lat="44.08426" lon="7.19893">
        <ele>1655.9</ele>
        <time>2017-08-25T06:58:35Z</time>
      </trkpt>
      <trkpt lat="44.08435" lon="7.19882">
        <ele>1658.9</ele>
        <time>2017-08-25T06:58:51Z</time>
      </trkpt>
      <trkpt lat="44.08443" lon="7.19867">
        <ele>1661.5</ele>
        <time>2017-08-25T06:59:06Z</time>
      </trkpt>
      <trkpt lat="44.0845" lon="7.19861">
        <ele>1664</ele>
        <time>2017-08-25T06:59:23Z</time>
      </trkpt>
      <trkpt lat="44.08451" lon="7.19864">
        <ele>1664.4</ele>
        <time>2017-08-25T06:59:39Z</time>
      </trkpt>
      <trkpt lat="44.08457" lon="7.1986">
        <ele>1666.5</ele>
        <time>2017-08-25T06:59:56Z</time>
      </trkpt>
      <trkpt lat="44.08473" lon="7.19852">
        <ele>1671.6</ele>
        <time>2017-08-25T07:00:13Z</time>
      </trkpt>
      <trkpt lat="44.08481" lon="7.19848">
        <ele>1674</ele>
        <time>2017-08-25T07:00:28Z</time>
      </trkpt>
      <trkpt lat="44.0849" lon="7.19832">
        <ele>1676.3</ele>
        <time>2017-08-25T07:00:44Z</time>
      </trkpt>
      <trkpt lat="44.08495" lon="7.19826">
        <ele>1677.5</ele>
        <time>2017-08-25T07:00:52Z</time>
      </trkpt>
      <trkpt lat="44.08496" lon="7.19823">
        <ele>1677.6</ele>
        <time>2017-08-25T07:00:56Z</time>
      </trkpt>
      <trkpt lat="44.08499" lon="7.19812">
        <ele>1677.4</ele>
        <time>2017-08-25T07:01:11Z</time>
      </trkpt>
      <trkpt lat="44.08505" lon="7.1981">
        <ele>1679.1</ele>
        <time>2017-08-25T07:01:28Z</time>
      </trkpt>
      <trkpt lat="44.08514" lon="7.19799">
        <ele>1681.1</ele>
        <time>2017-08-25T07:01:46Z</time>
      </trkpt>
      <trkpt lat="44.0852" lon="7.19797">
        <ele>1682.7</ele>
        <time>2017-08-25T07:02:01Z</time>
      </trkpt>
      <trkpt lat="44.08526" lon="7.19795">
        <ele>1684.3</ele>
        <time>2017-08-25T07:02:17Z</time>
      </trkpt>
      <trkpt lat="44.08535" lon="7.19804">
        <ele>1688.4</ele>
        <time>2017-08-25T07:02:35Z</time>
      </trkpt>
      <trkpt lat="44.08544" lon="7.19808">
        <ele>1692.1</ele>
        <time>2017-08-25T07:02:51Z</time>
      </trkpt>
      <trkpt lat="44.08556" lon="7.19815">
        <ele>1696.8</ele>
        <time>2017-08-25T07:03:09Z</time>
      </trkpt>
      <trkpt lat="44.08562" lon="7.19822">
        <ele>1699.4</ele>
        <time>2017-08-25T07:03:28Z</time>
      </trkpt>
      <trkpt lat="44.08562" lon="7.19822">
        <ele>1699.4</ele>
        <time>2017-08-25T07:03:48Z</time>
      </trkpt>
      <trkpt lat="44.0857" lon="7.19813">
        <ele>1701.6</ele>
        <time>2017-08-25T07:04:09Z</time>
      </trkpt>
      <trkpt lat="44.08578" lon="7.19812">
        <ele>1704.4</ele>
        <time>2017-08-25T07:04:27Z</time>
      </trkpt>
      <trkpt lat="44.08585" lon="7.19815">
        <ele>1706.9</ele>
        <time>2017-08-25T07:04:44Z</time>
      </trkpt>
      <trkpt lat="44.08595" lon="7.19812">
        <ele>1710.1</ele>
        <time>2017-08-25T07:05:00Z</time>
      </trkpt>
      <trkpt lat="44.08602" lon="7.19817">
        <ele>1712.7</ele>
        <time>2017-08-25T07:05:14Z</time>
      </trkpt>
      <trkpt lat="44.0861" lon="7.19823">
        <ele>1715.9</ele>
        <time>2017-08-25T07:05:30Z</time>
      </trkpt>
      <trkpt lat="44.0862" lon="7.1983">
        <ele>1719.4</ele>
        <time>2017-08-25T07:05:48Z</time>
      </trkpt>
      <trkpt lat="44.08627" lon="7.19834">
        <ele>1721.6</ele>
        <time>2017-08-25T07:06:01Z</time>
      </trkpt>
      <trkpt lat="44.08635" lon="7.19835">
        <ele>1724</ele>
        <time>2017-08-25T07:06:16Z</time>
      </trkpt>
      <trkpt lat="44.08644" lon="7.19836">
        <ele>1726.7</ele>
        <time>2017-08-25T07:06:32Z</time>
      </trkpt>
      <trkpt lat="44.08652" lon="7.19833">
        <ele>1728.8</ele>
        <time>2017-08-25T07:06:47Z</time>
      </trkpt>
      <trkpt lat="44.08662" lon="7.19825">
        <ele>1731.9</ele>
        <time>2017-08-25T07:07:04Z</time>
      </trkpt>
      <trkpt lat="44.08667" lon="7.19818">
        <ele>1733.7</ele>
        <time>2017-08-25T07:07:21Z</time>
      </trkpt>
      <trkpt lat="44.08674" lon="7.19821">
        <ele>1735.7</ele>
        <time>2017-08-25T07:07:36Z</time>
      </trkpt>
      <trkpt lat="44.08681" lon="7.19828">
        <ele>1737.7</ele>
        <time>2017-08-25T07:07:50Z</time>
      </trkpt>
      <trkpt lat="44.08686" lon="7.1984">
        <ele>1739.7</ele>
        <time>2017-08-25T07:08:04Z</time>
      </trkpt>
      <trkpt lat="44.08689" lon="7.19856">
        <ele>1741.9</ele>
        <time>2017-08-25T07:08:21Z</time>
      </trkpt>
      <trkpt lat="44.087" lon="7.19854">
        <ele>1745.3</ele>
        <time>2017-08-25T07:08:37Z</time>
      </trkpt>
      <trkpt lat="44.08706" lon="7.19841">
        <ele>1746.6</ele>
        <time>2017-08-25T07:08:52Z</time>
      </trkpt>
      <trkpt lat="44.08711" lon="7.19825">
        <ele>1748</ele>
        <time>2017-08-25T07:09:10Z</time>
      </trkpt>
      <trkpt lat="44.08719" lon="7.19815">
        <ele>1750.8</ele>
        <time>2017-08-25T07:09:26Z</time>
      </trkpt>
      <trkpt lat="44.08723" lon="7.19808">
        <ele>1752.3</ele>
        <time>2017-08-25T07:09:40Z</time>
      </trkpt>
      <trkpt lat="44.08723" lon="7.19808">
        <ele>1752.3</ele>
        <time>2017-08-25T07:09:59Z</time>
      </trkpt>
      <trkpt lat="44.08737" lon="7.19788">
        <ele>1756.2</ele>
        <time>2017-08-25T07:10:16Z</time>
      </trkpt>
      <trkpt lat="44.08749" lon="7.19786">
        <ele>1760</ele>
        <time>2017-08-25T07:10:33Z</time>
      </trkpt>
      <trkpt lat="44.08759" lon="7.1979">
        <ele>1763.4</ele>
        <time>2017-08-25T07:10:49Z</time>
      </trkpt>
      <trkpt lat="44.08766" lon="7.198">
        <ele>1766</ele>
        <time>2017-08-25T07:11:06Z</time>
      </trkpt>
      <trkpt lat="44.08776" lon="7.19804">
        <ele>1769.4</ele>
        <time>2017-08-25T07:11:22Z</time>
      </trkpt>
      <trkpt lat="44.08778" lon="7.19798">
        <ele>1769.8</ele>
        <time>2017-08-25T07:11:38Z</time>
      </trkpt>
      <trkpt lat="44.08789" lon="7.1978">
        <ele>1772.7</ele>
        <time>2017-08-25T07:11:54Z</time>
      </trkpt>
      <trkpt lat="44.08799" lon="7.19768">
        <ele>1774.5</ele>
        <time>2017-08-25T07:12:09Z</time>
      </trkpt>
      <trkpt lat="44.08807" lon="7.19758">
        <ele>1775.7</ele>
        <time>2017-08-25T07:12:25Z</time>
      </trkpt>
      <trkpt lat="44.08814" lon="7.19766">
        <ele>1779.2</ele>
        <time>2017-08-25T07:12:40Z</time>
      </trkpt>
      <trkpt lat="44.08815" lon="7.1977">
        <ele>1780</ele>
        <time>2017-08-25T07:12:43Z</time>
      </trkpt>
      <trkpt lat="44.08822" lon="7.19789">
        <ele>1784</ele>
        <time>2017-08-25T07:13:01Z</time>
      </trkpt>
      <trkpt lat="44.08828" lon="7.19801">
        <ele>1786.8</ele>
        <time>2017-08-25T07:13:17Z</time>
      </trkpt>
      <trkpt lat="44.08831" lon="7.19801">
        <ele>1787.8</ele>
        <time>2017-08-25T07:13:35Z</time>
      </trkpt>
      <trkpt lat="44.0884" lon="7.19792">
        <ele>1790.7</ele>
        <time>2017-08-25T07:13:52Z</time>
      </trkpt>
      <trkpt lat="44.08854" lon="7.19776">
        <ele>1795</ele>
        <time>2017-08-25T07:14:11Z</time>
      </trkpt>
      <trkpt lat="44.08858" lon="7.19772">
        <ele>1796.1</ele>
        <time>2017-08-25T07:14:26Z</time>
      </trkpt>
      <trkpt lat="44.08858" lon="7.19772">
        <ele>1796.1</ele>
        <time>2017-08-25T07:14:43Z</time>
      </trkpt>
      <trkpt lat="44.08859" lon="7.19773">
        <ele>1796.6</ele>
        <time>2017-08-25T07:14:57Z</time>
      </trkpt>
      <trkpt lat="44.08859" lon="7.19773">
        <ele>1796.6</ele>
        <time>2017-08-25T07:15:14Z</time>
      </trkpt>
      <trkpt lat="44.08859" lon="7.19773">
        <ele>1796.6</ele>
        <time>2017-08-25T07:15:33Z</time>
      </trkpt>
      <trkpt lat="44.08861" lon="7.19773">
        <ele>1797.4</ele>
        <time>2017-08-25T07:15:51Z</time>
      </trkpt>
      <trkpt lat="44.08861" lon="7.19773">
        <ele>1797.4</ele>
        <time>2017-08-25T07:16:07Z</time>
      </trkpt>
      <trkpt lat="44.08872" lon="7.19772">
        <ele>1801.3</ele>
        <time>2017-08-25T07:16:22Z</time>
      </trkpt>
      <trkpt lat="44.08909" lon="7.19767">
        <ele>1814.1</ele>
        <time>2017-08-25T07:16:40Z</time>
      </trkpt>
      <trkpt lat="44.08926" lon="7.19757">
        <ele>1819.1</ele>
        <time>2017-08-25T07:16:55Z</time>
      </trkpt>
      <trkpt lat="44.08933" lon="7.19748">
        <ele>1820.7</ele>
        <time>2017-08-25T07:17:10Z</time>
      </trkpt>
      <trkpt lat="44.08938" lon="7.19738">
        <ele>1821.4</ele>
        <time>2017-08-25T07:17:14Z</time>
      </trkpt>
      <trkpt lat="44.08947" lon="7.19712">
        <ele>1822.6</ele>
        <time>2017-08-25T07:17:31Z</time>
      </trkpt>
      <trkpt lat="44.08947" lon="7.19712">
        <ele>1822.6</ele>
        <time>2017-08-25T07:17:55Z</time>
      </trkpt>
      <trkpt lat="44.08948" lon="7.19706">
        <ele>1822.7</ele>
        <time>2017-08-25T07:18:21Z</time>
      </trkpt>
      <trkpt lat="44.08948" lon="7.19706">
        <ele>1822.7</ele>
        <time>2017-08-25T07:18:36Z</time>
      </trkpt>
      <trkpt lat="44.08949" lon="7.197">
        <ele>1822.9</ele>
        <time>2017-08-25T07:19:12Z</time>
      </trkpt>
      <trkpt lat="44.0895" lon="7.19696">
        <ele>1823.1</ele>
        <time>2017-08-25T07:19:43Z</time>
      </trkpt>
      <trkpt lat="44.08951" lon="7.19693">
        <ele>1823.4</ele>
        <time>2017-08-25T07:20:11Z</time>
      </trkpt>
      <trkpt lat="44.08951" lon="7.1969">
        <ele>1823.4</ele>
        <time>2017-08-25T07:20:44Z</time>
      </trkpt>
      <trkpt lat="44.08951" lon="7.1969">
        <ele>1823.4</ele>
        <time>2017-08-25T07:21:20Z</time>
      </trkpt>
      <trkpt lat="44.08951" lon="7.19689">
        <ele>1823.5</ele>
        <time>2017-08-25T07:21:54Z</time>
      </trkpt>
      <trkpt lat="44.08951" lon="7.19689">
        <ele>1823.5</ele>
        <time>2017-08-25T07:22:26Z</time>
      </trkpt>
      <trkpt lat="44.0895" lon="7.19688">
        <ele>1823.1</ele>
        <time>2017-08-25T07:22:38Z</time>
      </trkpt>
      <trkpt lat="44.0895" lon="7.19687">
        <ele>1823.2</ele>
        <time>2017-08-25T07:22:50Z</time>
      </trkpt>
      <trkpt lat="44.08948" lon="7.19673">
        <ele>1822.9</ele>
        <time>2017-08-25T07:23:03Z</time>
      </trkpt>
      <trkpt lat="44.08948" lon="7.19669">
        <ele>1823</ele>
        <time>2017-08-25T07:23:07Z</time>
      </trkpt>
      <trkpt lat="44.08949" lon="7.19664">
        <ele>1823.5</ele>
        <time>2017-08-25T07:23:11Z</time>
      </trkpt>
      <trkpt lat="44.08955" lon="7.19646">
        <ele>1826</ele>
        <time>2017-08-25T07:23:26Z</time>
      </trkpt>
      <trkpt lat="44.08956" lon="7.19645">
        <ele>1826.2</ele>
        <time>2017-08-25T07:23:27Z</time>
      </trkpt>
      <trkpt lat="44.0896" lon="7.19629">
        <ele>1827.5</ele>
        <time>2017-08-25T07:23:41Z</time>
      </trkpt>
      <trkpt lat="44.08969" lon="7.19616">
        <ele>1829.4</ele>
        <time>2017-08-25T07:23:56Z</time>
      </trkpt>
      <trkpt lat="44.08979" lon="7.19605">
        <ele>1831.8</ele>
        <time>2017-08-25T07:24:13Z</time>
      </trkpt>
      <trkpt lat="44.08988" lon="7.19589">
        <ele>1834.1</ele>
        <time>2017-08-25T07:24:29Z</time>
      </trkpt>
      <trkpt lat="44.08997" lon="7.19572">
        <ele>1836</ele>
        <time>2017-08-25T07:24:46Z</time>
      </trkpt>
      <trkpt lat="44.09002" lon="7.19554">
        <ele>1837.3</ele>
        <time>2017-08-25T07:25:02Z</time>
      </trkpt>
      <trkpt lat="44.0901" lon="7.19539">
        <ele>1839.3</ele>
        <time>2017-08-25T07:25:17Z</time>
      </trkpt>
      <trkpt lat="44.09021" lon="7.19526">
        <ele>1841.4</ele>
        <time>2017-08-25T07:25:33Z</time>
      </trkpt>
      <trkpt lat="44.0903" lon="7.19514">
        <ele>1843.4</ele>
        <time>2017-08-25T07:25:49Z</time>
      </trkpt>
      <trkpt lat="44.09038" lon="7.195">
        <ele>1846.2</ele>
        <time>2017-08-25T07:26:04Z</time>
      </trkpt>
      <trkpt lat="44.09042" lon="7.19485">
        <ele>1847.9</ele>
        <time>2017-08-25T07:26:17Z</time>
      </trkpt>
      <trkpt lat="44.09044" lon="7.19464">
        <ele>1849.2</ele>
        <time>2017-08-25T07:26:32Z</time>
      </trkpt>
      <trkpt lat="44.09046" lon="7.19438">
        <ele>1850.6</ele>
        <time>2017-08-25T07:26:53Z</time>
      </trkpt>
      <trkpt lat="44.09047" lon="7.19416">
        <ele>1851.8</ele>
        <time>2017-08-25T07:27:09Z</time>
      </trkpt>
      <trkpt lat="44.0905" lon="7.19396">
        <ele>1853.7</ele>
        <time>2017-08-25T07:27:26Z</time>
      </trkpt>
      <trkpt lat="44.09058" lon="7.19375">
        <ele>1856.4</ele>
        <time>2017-08-25T07:27:44Z</time>
      </trkpt>
      <trkpt lat="44.09058" lon="7.19357">
        <ele>1858.2</ele>
        <time>2017-08-25T07:27:58Z</time>
      </trkpt>
      <trkpt lat="44.09052" lon="7.19343">
        <ele>1861.1</ele>
        <time>2017-08-25T07:28:12Z</time>
      </trkpt>
      <trkpt lat="44.09047" lon="7.19334">
        <ele>1863.5</ele>
        <time>2017-08-25T07:28:27Z</time>
      </trkpt>
      <trkpt lat="44.09041" lon="7.19325">
        <ele>1866.9</ele>
        <time>2017-08-25T07:28:41Z</time>
      </trkpt>
      <trkpt lat="44.09033" lon="7.1932">
        <ele>1869.3</ele>
        <time>2017-08-25T07:28:57Z</time>
      </trkpt>
      <trkpt lat="44.09032" lon="7.19316">
        <ele>1870.8</ele>
        <time>2017-08-25T07:29:12Z</time>
      </trkpt>
      <trkpt lat="44.09038" lon="7.19313">
        <ele>1871.3</ele>
        <time>2017-08-25T07:29:25Z</time>
      </trkpt>
      <trkpt lat="44.09044" lon="7.19309">
        <ele>1872.1</ele>
        <time>2017-08-25T07:29:40Z</time>
      </trkpt>
      <trkpt lat="44.09055" lon="7.19303">
        <ele>1872.9</ele>
        <time>2017-08-25T07:29:57Z</time>
      </trkpt>
      <trkpt lat="44.09067" lon="7.1929">
        <ele>1876.6</ele>
        <time>2017-08-25T07:30:15Z</time>
      </trkpt>
      <trkpt lat="44.09076" lon="7.19279">
        <ele>1879.9</ele>
        <time>2017-08-25T07:30:33Z</time>
      </trkpt>
      <trkpt lat="44.09086" lon="7.19273">
        <ele>1881.5</ele>
        <time>2017-08-25T07:30:50Z</time>
      </trkpt>
      <trkpt lat="44.09094" lon="7.19269">
        <ele>1882.7</ele>
        <time>2017-08-25T07:30:58Z</time>
      </trkpt>
      <trkpt lat="44.09104" lon="7.1926">
        <ele>1885.3</ele>
        <time>2017-08-25T07:31:14Z</time>
      </trkpt>
      <trkpt lat="44.09113" lon="7.19253">
        <ele>1887.3</ele>
        <time>2017-08-25T07:31:30Z</time>
      </trkpt>
      <trkpt lat="44.09123" lon="7.19247">
        <ele>1889.8</ele>
        <time>2017-08-25T07:31:47Z</time>
      </trkpt>
      <trkpt lat="44.0913" lon="7.19244">
        <ele>1891.1</ele>
        <time>2017-08-25T07:32:04Z</time>
      </trkpt>
      <trkpt lat="44.0914" lon="7.19236">
        <ele>1893.5</ele>
        <time>2017-08-25T07:32:20Z</time>
      </trkpt>
      <trkpt lat="44.09154" lon="7.19229">
        <ele>1895.2</ele>
        <time>2017-08-25T07:32:34Z</time>
      </trkpt>
      <trkpt lat="44.09155" lon="7.19215">
        <ele>1899.7</ele>
        <time>2017-08-25T07:32:49Z</time>
      </trkpt>
      <trkpt lat="44.09161" lon="7.19209">
        <ele>1901.9</ele>
        <time>2017-08-25T07:33:02Z</time>
      </trkpt>
      <trkpt lat="44.09169" lon="7.19203">
        <ele>1904</ele>
        <time>2017-08-25T07:33:17Z</time>
      </trkpt>
      <trkpt lat="44.09176" lon="7.19194">
        <ele>1907.5</ele>
        <time>2017-08-25T07:33:32Z</time>
      </trkpt>
      <trkpt lat="44.09181" lon="7.19191">
        <ele>1908.9</ele>
        <time>2017-08-25T07:33:47Z</time>
      </trkpt>
      <trkpt lat="44.09193" lon="7.19181">
        <ele>1913.3</ele>
        <time>2017-08-25T07:34:04Z</time>
      </trkpt>
      <trkpt lat="44.09203" lon="7.19174">
        <ele>1916.5</ele>
        <time>2017-08-25T07:34:20Z</time>
      </trkpt>
      <trkpt lat="44.09211" lon="7.19169">
        <ele>1918.7</ele>
        <time>2017-08-25T07:34:38Z</time>
      </trkpt>
      <trkpt lat="44.09221" lon="7.19165">
        <ele>1920.6</ele>
        <time>2017-08-25T07:34:53Z</time>
      </trkpt>
      <trkpt lat="44.09229" lon="7.19161">
        <ele>1922.5</ele>
        <time>2017-08-25T07:35:09Z</time>
      </trkpt>
      <trkpt lat="44.09238" lon="7.19155">
        <ele>1925.3</ele>
        <time>2017-08-25T07:35:25Z</time>
      </trkpt>
      <trkpt lat="44.09247" lon="7.19149">
        <ele>1928.1</ele>
        <time>2017-08-25T07:35:39Z</time>
      </trkpt>
      <trkpt lat="44.09254" lon="7.19146">
        <ele>1930.1</ele>
        <time>2017-08-25T07:35:55Z</time>
      </trkpt>
      <trkpt lat="44.09257" lon="7.19147">
        <ele>1930.2</ele>
        <time>2017-08-25T07:36:07Z</time>
      </trkpt>
      <trkpt lat="44.09262" lon="7.19146">
        <ele>1931.3</ele>
        <time>2017-08-25T07:36:19Z</time>
      </trkpt>
      <trkpt lat="44.09272" lon="7.19142">
        <ele>1934.1</ele>
        <time>2017-08-25T07:36:32Z</time>
      </trkpt>
      <trkpt lat="44.09286" lon="7.19136">
        <ele>1939.1</ele>
        <time>2017-08-25T07:36:48Z</time>
      </trkpt>
      <trkpt lat="44.09295" lon="7.19135">
        <ele>1941.9</ele>
        <time>2017-08-25T07:37:03Z</time>
      </trkpt>
      <trkpt lat="44.09304" lon="7.19131">
        <ele>1945.3</ele>
        <time>2017-08-25T07:37:16Z</time>
      </trkpt>
      <trkpt lat="44.09311" lon="7.19129">
        <ele>1948</ele>
        <time>2017-08-25T07:37:28Z</time>
      </trkpt>
      <trkpt lat="44.09319" lon="7.19129">
        <ele>1950.6</ele>
        <time>2017-08-25T07:37:42Z</time>
      </trkpt>
      <trkpt lat="44.09326" lon="7.19132">
        <ele>1952.5</ele>
        <time>2017-08-25T07:37:58Z</time>
      </trkpt>
      <trkpt lat="44.09326" lon="7.19116">
        <ele>1955.1</ele>
        <time>2017-08-25T07:38:14Z</time>
      </trkpt>
      <trkpt lat="44.0932" lon="7.19105">
        <ele>1953.9</ele>
        <time>2017-08-25T07:38:28Z</time>
      </trkpt>
      <trkpt lat="44.09319" lon="7.19097">
        <ele>1953.4</ele>
        <time>2017-08-25T07:38:43Z</time>
      </trkpt>
      <trkpt lat="44.09319" lon="7.19097">
        <ele>1953.4</ele>
        <time>2017-08-25T07:39:07Z</time>
      </trkpt>
      <trkpt lat="44.0932" lon="7.19098">
        <ele>1953.6</ele>
        <time>2017-08-25T07:40:05Z</time>
      </trkpt>
      <trkpt lat="44.0932" lon="7.19098">
        <ele>1953.6</ele>
        <time>2017-08-25T07:40:44Z</time>
      </trkpt>
      <trkpt lat="44.0932" lon="7.19098">
        <ele>1953.6</ele>
        <time>2017-08-25T07:41:38Z</time>
      </trkpt>
      <trkpt lat="44.0932" lon="7.19098">
        <ele>1953.6</ele>
        <time>2017-08-25T07:42:20Z</time>
      </trkpt>
      <trkpt lat="44.09321" lon="7.19096">
        <ele>1953.7</ele>
        <time>2017-08-25T07:42:38Z</time>
      </trkpt>
      <trkpt lat="44.09321" lon="7.19096">
        <ele>1953.7</ele>
        <time>2017-08-25T07:42:54Z</time>
      </trkpt>
      <trkpt lat="44.09321" lon="7.19095">
        <ele>1953.7</ele>
        <time>2017-08-25T07:43:27Z</time>
      </trkpt>
      <trkpt lat="44.09322" lon="7.19094">
        <ele>1953.8</ele>
        <time>2017-08-25T07:44:03Z</time>
      </trkpt>
      <trkpt lat="44.09322" lon="7.19093">
        <ele>1953.7</ele>
        <time>2017-08-25T07:44:17Z</time>
      </trkpt>
      <trkpt lat="44.09334" lon="7.19082">
        <ele>1953.7</ele>
        <time>2017-08-25T07:44:30Z</time>
      </trkpt>
      <trkpt lat="44.09348" lon="7.19068">
        <ele>1953.7</ele>
        <time>2017-08-25T07:44:44Z</time>
      </trkpt>
      <trkpt lat="44.09357" lon="7.19059">
        <ele>1953.7</ele>
        <time>2017-08-25T07:44:53Z</time>
      </trkpt>
      <trkpt lat="44.09361" lon="7.19053">
        <ele>1952.5</ele>
        <time>2017-08-25T07:44:57Z</time>
      </trkpt>
      <trkpt lat="44.09364" lon="7.1905">
        <ele>1952</ele>
        <time>2017-08-25T07:45:00Z</time>
      </trkpt>
      <trkpt lat="44.09376" lon="7.19039">
        <ele>1950.7</ele>
        <time>2017-08-25T07:45:10Z</time>
      </trkpt>
      <trkpt lat="44.09386" lon="7.19027">
        <ele>1948.3</ele>
        <time>2017-08-25T07:45:20Z</time>
      </trkpt>
      <trkpt lat="44.09399" lon="7.19022">
        <ele>1950.7</ele>
        <time>2017-08-25T07:45:34Z</time>
      </trkpt>
      <trkpt lat="44.09401" lon="7.19023">
        <ele>1952</ele>
        <time>2017-08-25T07:45:35Z</time>
      </trkpt>
      <trkpt lat="44.09406" lon="7.19021">
        <ele>1952.9</ele>
        <time>2017-08-25T07:45:40Z</time>
      </trkpt>
      <trkpt lat="44.09409" lon="7.19018">
        <ele>1952.3</ele>
        <time>2017-08-25T07:45:44Z</time>
      </trkpt>
      <trkpt lat="44.09409" lon="7.19014">
        <ele>1950</ele>
        <time>2017-08-25T07:45:47Z</time>
      </trkpt>
      <trkpt lat="44.09411" lon="7.19009">
        <ele>1947.9</ele>
        <time>2017-08-25T07:45:51Z</time>
      </trkpt>
      <trkpt lat="44.09425" lon="7.19003">
        <ele>1950.6</ele>
        <time>2017-08-25T07:46:05Z</time>
      </trkpt>
      <trkpt lat="44.09431" lon="7.19001">
        <ele>1952.3</ele>
        <time>2017-08-25T07:46:13Z</time>
      </trkpt>
      <trkpt lat="44.09433" lon="7.19">
        <ele>1952.6</ele>
        <time>2017-08-25T07:46:15Z</time>
      </trkpt>
      <trkpt lat="44.09435" lon="7.18999">
        <ele>1953.1</ele>
        <time>2017-08-25T07:46:17Z</time>
      </trkpt>
      <trkpt lat="44.0945" lon="7.18986">
        <ele>1955</ele>
        <time>2017-08-25T07:46:33Z</time>
      </trkpt>
      <trkpt lat="44.09458" lon="7.18976">
        <ele>1955</ele>
        <time>2017-08-25T07:46:42Z</time>
      </trkpt>
      <trkpt lat="44.09468" lon="7.18967">
        <ele>1956</ele>
        <time>2017-08-25T07:46:57Z</time>
      </trkpt>
      <trkpt lat="44.09476" lon="7.18964">
        <ele>1958.5</ele>
        <time>2017-08-25T07:47:08Z</time>
      </trkpt>
      <trkpt lat="44.0949" lon="7.18959">
        <ele>1962.5</ele>
        <time>2017-08-25T07:47:23Z</time>
      </trkpt>
      <trkpt lat="44.09494" lon="7.18955">
        <ele>1962</ele>
        <time>2017-08-25T07:47:27Z</time>
      </trkpt>
      <trkpt lat="44.09501" lon="7.18948">
        <ele>1960.9</ele>
        <time>2017-08-25T07:47:35Z</time>
      </trkpt>
      <trkpt lat="44.09507" lon="7.18947">
        <ele>1963.5</ele>
        <time>2017-08-25T07:47:42Z</time>
      </trkpt>
      <trkpt lat="44.09516" lon="7.18941">
        <ele>1965.2</ele>
        <time>2017-08-25T07:47:53Z</time>
      </trkpt>
      <trkpt lat="44.09527" lon="7.1893">
        <ele>1966.8</ele>
        <time>2017-08-25T07:48:04Z</time>
      </trkpt>
      <trkpt lat="44.09536" lon="7.18917">
        <ele>1965.1</ele>
        <time>2017-08-25T07:48:18Z</time>
      </trkpt>
      <trkpt lat="44.09541" lon="7.18915">
        <ele>1966</ele>
        <time>2017-08-25T07:48:24Z</time>
      </trkpt>
      <trkpt lat="44.09555" lon="7.18909">
        <ele>1968.2</ele>
        <time>2017-08-25T07:48:36Z</time>
      </trkpt>
      <trkpt lat="44.09562" lon="7.18903">
        <ele>1968.4</ele>
        <time>2017-08-25T07:48:44Z</time>
      </trkpt>
      <trkpt lat="44.09573" lon="7.18886">
        <ele>1965.1</ele>
        <time>2017-08-25T07:48:58Z</time>
      </trkpt>
      <trkpt lat="44.09586" lon="7.18872">
        <ele>1964.2</ele>
        <time>2017-08-25T07:49:13Z</time>
      </trkpt>
      <trkpt lat="44.09587" lon="7.18871">
        <ele>1964.1</ele>
        <time>2017-08-25T07:49:14Z</time>
      </trkpt>
      <trkpt lat="44.0959" lon="7.1887">
        <ele>1964.8</ele>
        <time>2017-08-25T07:49:17Z</time>
      </trkpt>
      <trkpt lat="44.09594" lon="7.18862">
        <ele>1962.6</ele>
        <time>2017-08-25T07:49:24Z</time>
      </trkpt>
      <trkpt lat="44.0961" lon="7.18855">
        <ele>1964.7</ele>
        <time>2017-08-25T07:49:39Z</time>
      </trkpt>
      <trkpt lat="44.09615" lon="7.18848">
        <ele>1962.1</ele>
        <time>2017-08-25T07:49:50Z</time>
      </trkpt>
      <trkpt lat="44.09618" lon="7.18847">
        <ele>1962.6</ele>
        <time>2017-08-25T07:49:52Z</time>
      </trkpt>
      <trkpt lat="44.09622" lon="7.18844">
        <ele>1962.1</ele>
        <time>2017-08-25T07:49:56Z</time>
      </trkpt>
      <trkpt lat="44.09635" lon="7.18834">
        <ele>1960.1</ele>
        <time>2017-08-25T07:50:08Z</time>
      </trkpt>
      <trkpt lat="44.09638" lon="7.18827">
        <ele>1957.9</ele>
        <time>2017-08-25T07:50:13Z</time>
      </trkpt>
      <trkpt lat="44.09642" lon="7.18824">
        <ele>1958.3</ele>
        <time>2017-08-25T07:50:17Z</time>
      </trkpt>
      <trkpt lat="44.09647" lon="7.18819">
        <ele>1958.2</ele>
        <time>2017-08-25T07:50:22Z</time>
      </trkpt>
      <trkpt lat="44.0965" lon="7.18815">
        <ele>1957.5</ele>
        <time>2017-08-25T07:50:26Z</time>
      </trkpt>
      <trkpt lat="44.09654" lon="7.18805">
        <ele>1954.5</ele>
        <time>2017-08-25T07:50:34Z</time>
      </trkpt>
      <trkpt lat="44.09655" lon="7.18788">
        <ele>1956.1</ele>
        <time>2017-08-25T07:50:49Z</time>
      </trkpt>
      <trkpt lat="44.09656" lon="7.18779">
        <ele>1957.1</ele>
        <time>2017-08-25T07:51:00Z</time>
      </trkpt>
      <trkpt lat="44.09656" lon="7.18779">
        <ele>1957.1</ele>
        <time>2017-08-25T07:51:01Z</time>
      </trkpt>
      <trkpt lat="44.09669" lon="7.18766">
        <ele>1962</ele>
        <time>2017-08-25T07:51:16Z</time>
      </trkpt>
      <trkpt lat="44.09674" lon="7.18755">
        <ele>1964.2</ele>
        <time>2017-08-25T07:51:28Z</time>
      </trkpt>
      <trkpt lat="44.09678" lon="7.18744">
        <ele>1965.6</ele>
        <time>2017-08-25T07:51:41Z</time>
      </trkpt>
      <trkpt lat="44.09686" lon="7.18732">
        <ele>1968.3</ele>
        <time>2017-08-25T07:51:54Z</time>
      </trkpt>
      <trkpt lat="44.09689" lon="7.1872">
        <ele>1969</ele>
        <time>2017-08-25T07:52:05Z</time>
      </trkpt>
      <trkpt lat="44.0969" lon="7.18718">
        <ele>1969.5</ele>
        <time>2017-08-25T07:52:07Z</time>
      </trkpt>
      <trkpt lat="44.09691" lon="7.18705">
        <ele>1970.5</ele>
        <time>2017-08-25T07:52:21Z</time>
      </trkpt>
      <trkpt lat="44.09686" lon="7.18692">
        <ele>1970.1</ele>
        <time>2017-08-25T07:52:35Z</time>
      </trkpt>
      <trkpt lat="44.09694" lon="7.18694">
        <ele>1972</ele>
        <time>2017-08-25T07:52:49Z</time>
      </trkpt>
      <trkpt lat="44.09695" lon="7.18694">
        <ele>1972.3</ele>
        <time>2017-08-25T07:52:50Z</time>
      </trkpt>
      <trkpt lat="44.09693" lon="7.18682">
        <ele>1974.7</ele>
        <time>2017-08-25T07:53:03Z</time>
      </trkpt>
      <trkpt lat="44.09691" lon="7.18669">
        <ele>1977.1</ele>
        <time>2017-08-25T07:53:17Z</time>
      </trkpt>
      <trkpt lat="44.09691" lon="7.18659">
        <ele>1978.7</ele>
        <time>2017-08-25T07:53:30Z</time>
      </trkpt>
      <trkpt lat="44.09694" lon="7.18649">
        <ele>1981.4</ele>
        <time>2017-08-25T07:53:44Z</time>
      </trkpt>
      <trkpt lat="44.097" lon="7.18653">
        <ele>1982.9</ele>
        <time>2017-08-25T07:54:01Z</time>
      </trkpt>
      <trkpt lat="44.097" lon="7.1866">
        <ele>1981.7</ele>
        <time>2017-08-25T07:54:14Z</time>
      </trkpt>
      <trkpt lat="44.09707" lon="7.18665">
        <ele>1982.9</ele>
        <time>2017-08-25T07:54:32Z</time>
      </trkpt>
      <trkpt lat="44.09717" lon="7.18669">
        <ele>1984.9</ele>
        <time>2017-08-25T07:54:46Z</time>
      </trkpt>
      <trkpt lat="44.09724" lon="7.18668">
        <ele>1987.3</ele>
        <time>2017-08-25T07:54:57Z</time>
      </trkpt>
      <trkpt lat="44.09734" lon="7.18667">
        <ele>1990.8</ele>
        <time>2017-08-25T07:55:11Z</time>
      </trkpt>
      <trkpt lat="44.09741" lon="7.18671">
        <ele>1992.4</ele>
        <time>2017-08-25T07:55:24Z</time>
      </trkpt>
      <trkpt lat="44.09742" lon="7.18672">
        <ele>1992.6</ele>
        <time>2017-08-25T07:55:25Z</time>
      </trkpt>
      <trkpt lat="44.0975" lon="7.18679">
        <ele>1994.7</ele>
        <time>2017-08-25T07:55:39Z</time>
      </trkpt>
      <trkpt lat="44.09757" lon="7.18687">
        <ele>1996.8</ele>
        <time>2017-08-25T07:55:54Z</time>
      </trkpt>
      <trkpt lat="44.09765" lon="7.18696">
        <ele>1999.8</ele>
        <time>2017-08-25T07:56:08Z</time>
      </trkpt>
      <trkpt lat="44.09774" lon="7.18704">
        <ele>2004.9</ele>
        <time>2017-08-25T07:56:21Z</time>
      </trkpt>
      <trkpt lat="44.09775" lon="7.18708">
        <ele>2005.9</ele>
        <time>2017-08-25T07:56:25Z</time>
      </trkpt>
      <trkpt lat="44.09781" lon="7.18719">
        <ele>2009.5</ele>
        <time>2017-08-25T07:56:40Z</time>
      </trkpt>
      <trkpt lat="44.09783" lon="7.18724">
        <ele>2010.9</ele>
        <time>2017-08-25T07:56:54Z</time>
      </trkpt>
      <trkpt lat="44.09781" lon="7.18733">
        <ele>2012.3</ele>
        <time>2017-08-25T07:57:08Z</time>
      </trkpt>
      <trkpt lat="44.09782" lon="7.18743">
        <ele>2014.7</ele>
        <time>2017-08-25T07:57:21Z</time>
      </trkpt>
      <trkpt lat="44.09782" lon="7.18758">
        <ele>2017.1</ele>
        <time>2017-08-25T07:57:35Z</time>
      </trkpt>
      <trkpt lat="44.09789" lon="7.18772">
        <ele>2020.9</ele>
        <time>2017-08-25T07:57:50Z</time>
      </trkpt>
      <trkpt lat="44.09795" lon="7.18782">
        <ele>2024.4</ele>
        <time>2017-08-25T07:58:04Z</time>
      </trkpt>
      <trkpt lat="44.09801" lon="7.18792">
        <ele>2028.2</ele>
        <time>2017-08-25T07:58:21Z</time>
      </trkpt>
      <trkpt lat="44.09794" lon="7.18797">
        <ele>2027</ele>
        <time>2017-08-25T07:58:35Z</time>
      </trkpt>
      <trkpt lat="44.09788" lon="7.18809">
        <ele>2027.4</ele>
        <time>2017-08-25T07:58:52Z</time>
      </trkpt>
      <trkpt lat="44.09788" lon="7.18823">
        <ele>2029.1</ele>
        <time>2017-08-25T07:59:09Z</time>
      </trkpt>
      <trkpt lat="44.0979" lon="7.18826">
        <ele>2030.1</ele>
        <time>2017-08-25T07:59:12Z</time>
      </trkpt>
      <trkpt lat="44.09796" lon="7.18842">
        <ele>2032.7</ele>
        <time>2017-08-25T07:59:26Z</time>
      </trkpt>
      <trkpt lat="44.09797" lon="7.18846">
        <ele>2033</ele>
        <time>2017-08-25T07:59:31Z</time>
      </trkpt>
      <trkpt lat="44.09799" lon="7.1885">
        <ele>2033.8</ele>
        <time>2017-08-25T07:59:49Z</time>
      </trkpt>
      <trkpt lat="44.09806" lon="7.18866">
        <ele>2037</ele>
        <time>2017-08-25T08:00:04Z</time>
      </trkpt>
      <trkpt lat="44.09811" lon="7.18877">
        <ele>2038.6</ele>
        <time>2017-08-25T08:00:18Z</time>
      </trkpt>
      <trkpt lat="44.09814" lon="7.1888">
        <ele>2039.8</ele>
        <time>2017-08-25T08:00:30Z</time>
      </trkpt>
      <trkpt lat="44.09824" lon="7.18877">
        <ele>2043.8</ele>
        <time>2017-08-25T08:00:42Z</time>
      </trkpt>
      <trkpt lat="44.09832" lon="7.18882">
        <ele>2047.2</ele>
        <time>2017-08-25T08:00:58Z</time>
      </trkpt>
      <trkpt lat="44.09836" lon="7.18892">
        <ele>2048.9</ele>
        <time>2017-08-25T08:01:14Z</time>
      </trkpt>
      <trkpt lat="44.09845" lon="7.18902">
        <ele>2052</ele>
        <time>2017-08-25T08:01:28Z</time>
      </trkpt>
      <trkpt lat="44.09856" lon="7.18912">
        <ele>2056</ele>
        <time>2017-08-25T08:01:44Z</time>
      </trkpt>
      <trkpt lat="44.09867" lon="7.18917">
        <ele>2059.5</ele>
        <time>2017-08-25T08:02:01Z</time>
      </trkpt>
      <trkpt lat="44.09875" lon="7.18914">
        <ele>2061.4</ele>
        <time>2017-08-25T08:02:14Z</time>
      </trkpt>
      <trkpt lat="44.09881" lon="7.18921">
        <ele>2063.6</ele>
        <time>2017-08-25T08:02:30Z</time>
      </trkpt>
      <trkpt lat="44.0989" lon="7.18927">
        <ele>2066.3</ele>
        <time>2017-08-25T08:02:43Z</time>
      </trkpt>
      <trkpt lat="44.09892" lon="7.1893">
        <ele>2066.9</ele>
        <time>2017-08-25T08:02:47Z</time>
      </trkpt>
      <trkpt lat="44.09902" lon="7.18942">
        <ele>2069.7</ele>
        <time>2017-08-25T08:03:03Z</time>
      </trkpt>
      <trkpt lat="44.09913" lon="7.18953">
        <ele>2072.9</ele>
        <time>2017-08-25T08:03:18Z</time>
      </trkpt>
      <trkpt lat="44.09924" lon="7.18954">
        <ele>2074.3</ele>
        <time>2017-08-25T08:03:32Z</time>
      </trkpt>
      <trkpt lat="44.09933" lon="7.18951">
        <ele>2075.3</ele>
        <time>2017-08-25T08:03:45Z</time>
      </trkpt>
      <trkpt lat="44.09943" lon="7.18948">
        <ele>2076.8</ele>
        <time>2017-08-25T08:04:00Z</time>
      </trkpt>
      <trkpt lat="44.09948" lon="7.18945">
        <ele>2077.5</ele>
        <time>2017-08-25T08:04:13Z</time>
      </trkpt>
      <trkpt lat="44.09952" lon="7.18944">
        <ele>2078</ele>
        <time>2017-08-25T08:04:27Z</time>
      </trkpt>
      <trkpt lat="44.09959" lon="7.18942">
        <ele>2078.9</ele>
        <time>2017-08-25T08:04:35Z</time>
      </trkpt>
      <trkpt lat="44.09963" lon="7.18942">
        <ele>2079.5</ele>
        <time>2017-08-25T08:04:38Z</time>
      </trkpt>
      <trkpt lat="44.09972" lon="7.18937">
        <ele>2080.7</ele>
        <time>2017-08-25T08:04:49Z</time>
      </trkpt>
      <trkpt lat="44.09981" lon="7.18931">
        <ele>2082.1</ele>
        <time>2017-08-25T08:05:01Z</time>
      </trkpt>
      <trkpt lat="44.09988" lon="7.1893">
        <ele>2083.3</ele>
        <time>2017-08-25T08:05:10Z</time>
      </trkpt>
      <trkpt lat="44.10001" lon="7.18931">
        <ele>2085.6</ele>
        <time>2017-08-25T08:05:26Z</time>
      </trkpt>
      <trkpt lat="44.10017" lon="7.18932">
        <ele>2087.7</ele>
        <time>2017-08-25T08:05:42Z</time>
      </trkpt>
      <trkpt lat="44.10031" lon="7.18932">
        <ele>2089.6</ele>
        <time>2017-08-25T08:05:57Z</time>
      </trkpt>
      <trkpt lat="44.1004" lon="7.18926">
        <ele>2090.4</ele>
        <time>2017-08-25T08:06:09Z</time>
      </trkpt>
      <trkpt lat="44.10044" lon="7.18923">
        <ele>2090.6</ele>
        <time>2017-08-25T08:06:15Z</time>
      </trkpt>
      <trkpt lat="44.1005" lon="7.18923">
        <ele>2091.4</ele>
        <time>2017-08-25T08:06:23Z</time>
      </trkpt>
      <trkpt lat="44.10063" lon="7.18927">
        <ele>2094.2</ele>
        <time>2017-08-25T08:06:40Z</time>
      </trkpt>
      <trkpt lat="44.10074" lon="7.18931">
        <ele>2097.3</ele>
        <time>2017-08-25T08:06:54Z</time>
      </trkpt>
      <trkpt lat="44.1008" lon="7.18933">
        <ele>2099</ele>
        <time>2017-08-25T08:07:04Z</time>
      </trkpt>
      <trkpt lat="44.10089" lon="7.18928">
        <ele>2099.2</ele>
        <time>2017-08-25T08:07:14Z</time>
      </trkpt>
      <trkpt lat="44.10096" lon="7.18924">
        <ele>2099.3</ele>
        <time>2017-08-25T08:07:25Z</time>
      </trkpt>
      <trkpt lat="44.10106" lon="7.18926">
        <ele>2101.5</ele>
        <time>2017-08-25T08:07:40Z</time>
      </trkpt>
      <trkpt lat="44.10109" lon="7.18927">
        <ele>2102.3</ele>
        <time>2017-08-25T08:07:43Z</time>
      </trkpt>
      <trkpt lat="44.10118" lon="7.18933">
        <ele>2104.7</ele>
        <time>2017-08-25T08:07:57Z</time>
      </trkpt>
      <trkpt lat="44.10128" lon="7.18932">
        <ele>2105.4</ele>
        <time>2017-08-25T08:08:11Z</time>
      </trkpt>
      <trkpt lat="44.10129" lon="7.18933">
        <ele>2105.7</ele>
        <time>2017-08-25T08:08:12Z</time>
      </trkpt>
      <trkpt lat="44.1014" lon="7.18942">
        <ele>2108.5</ele>
        <time>2017-08-25T08:08:28Z</time>
      </trkpt>
      <trkpt lat="44.10143" lon="7.18941">
        <ele>2108.3</ele>
        <time>2017-08-25T08:08:31Z</time>
      </trkpt>
      <trkpt lat="44.10154" lon="7.1894">
        <ele>2108.2</ele>
        <time>2017-08-25T08:08:45Z</time>
      </trkpt>
      <trkpt lat="44.10159" lon="7.18938">
        <ele>2107.9</ele>
        <time>2017-08-25T08:08:50Z</time>
      </trkpt>
      <trkpt lat="44.10172" lon="7.18939">
        <ele>2108.5</ele>
        <time>2017-08-25T08:09:03Z</time>
      </trkpt>
      <trkpt lat="44.10175" lon="7.18939">
        <ele>2108.6</ele>
        <time>2017-08-25T08:09:06Z</time>
      </trkpt>
      <trkpt lat="44.10189" lon="7.18936">
        <ele>2109.5</ele>
        <time>2017-08-25T08:09:23Z</time>
      </trkpt>
      <trkpt lat="44.10201" lon="7.18935">
        <ele>2111.4</ele>
        <time>2017-08-25T08:09:35Z</time>
      </trkpt>
      <trkpt lat="44.10217" lon="7.18935">
        <ele>2114.9</ele>
        <time>2017-08-25T08:09:53Z</time>
      </trkpt>
      <trkpt lat="44.10225" lon="7.18933">
        <ele>2117.3</ele>
        <time>2017-08-25T08:10:08Z</time>
      </trkpt>
      <trkpt lat="44.10224" lon="7.1892">
        <ele>2119.8</ele>
        <time>2017-08-25T08:10:22Z</time>
      </trkpt>
      <trkpt lat="44.10228" lon="7.1892">
        <ele>2121.1</ele>
        <time>2017-08-25T08:10:34Z</time>
      </trkpt>
      <trkpt lat="44.10239" lon="7.18925">
        <ele>2123.5</ele>
        <time>2017-08-25T08:10:50Z</time>
      </trkpt>
      <trkpt lat="44.10252" lon="7.18931">
        <ele>2126.1</ele>
        <time>2017-08-25T08:11:08Z</time>
      </trkpt>
      <trkpt lat="44.1026" lon="7.18934">
        <ele>2128.1</ele>
        <time>2017-08-25T08:11:22Z</time>
      </trkpt>
      <trkpt lat="44.10264" lon="7.1893">
        <ele>2130.4</ele>
        <time>2017-08-25T08:11:34Z</time>
      </trkpt>
      <trkpt lat="44.10264" lon="7.18923">
        <ele>2132.1</ele>
        <time>2017-08-25T08:11:46Z</time>
      </trkpt>
      <trkpt lat="44.10269" lon="7.18926">
        <ele>2133</ele>
        <time>2017-08-25T08:11:59Z</time>
      </trkpt>
      <trkpt lat="44.1027" lon="7.18927">
        <ele>2133.1</ele>
        <time>2017-08-25T08:12:00Z</time>
      </trkpt>
      <trkpt lat="44.10269" lon="7.1892">
        <ele>2134.4</ele>
        <time>2017-08-25T08:12:11Z</time>
      </trkpt>
      <trkpt lat="44.10266" lon="7.18908">
        <ele>2136.5</ele>
        <time>2017-08-25T08:12:23Z</time>
      </trkpt>
      <trkpt lat="44.10262" lon="7.18893">
        <ele>2139.3</ele>
        <time>2017-08-25T08:12:35Z</time>
      </trkpt>
      <trkpt lat="44.10268" lon="7.18893">
        <ele>2141.1</ele>
        <time>2017-08-25T08:12:44Z</time>
      </trkpt>
      <trkpt lat="44.10281" lon="7.18899">
        <ele>2143.4</ele>
        <time>2017-08-25T08:12:58Z</time>
      </trkpt>
      <trkpt lat="44.10289" lon="7.18898">
        <ele>2146.1</ele>
        <time>2017-08-25T08:13:13Z</time>
      </trkpt>
      <trkpt lat="44.10293" lon="7.18897">
        <ele>2147.6</ele>
        <time>2017-08-25T08:13:29Z</time>
      </trkpt>
      <trkpt lat="44.10301" lon="7.18896">
        <ele>2150.3</ele>
        <time>2017-08-25T08:13:42Z</time>
      </trkpt>
      <trkpt lat="44.1031" lon="7.18893">
        <ele>2153.6</ele>
        <time>2017-08-25T08:13:58Z</time>
      </trkpt>
      <trkpt lat="44.10317" lon="7.18887">
        <ele>2157.1</ele>
        <time>2017-08-25T08:14:14Z</time>
      </trkpt>
      <trkpt lat="44.10323" lon="7.18881">
        <ele>2160.5</ele>
        <time>2017-08-25T08:14:29Z</time>
      </trkpt>
      <trkpt lat="44.10328" lon="7.18877">
        <ele>2163</ele>
        <time>2017-08-25T08:14:44Z</time>
      </trkpt>
      <trkpt lat="44.10338" lon="7.18873">
        <ele>2166.9</ele>
        <time>2017-08-25T08:14:59Z</time>
      </trkpt>
      <trkpt lat="44.10347" lon="7.18868">
        <ele>2171</ele>
        <time>2017-08-25T08:15:15Z</time>
      </trkpt>
      <trkpt lat="44.10352" lon="7.18865">
        <ele>2173.3</ele>
        <time>2017-08-25T08:15:31Z</time>
      </trkpt>
      <trkpt lat="44.10358" lon="7.18855">
        <ele>2178.6</ele>
        <time>2017-08-25T08:15:44Z</time>
      </trkpt>
      <trkpt lat="44.10356" lon="7.18849">
        <ele>2180.5</ele>
        <time>2017-08-25T08:15:58Z</time>
      </trkpt>
      <trkpt lat="44.10365" lon="7.18847">
        <ele>2183.8</ele>
        <time>2017-08-25T08:16:12Z</time>
      </trkpt>
      <trkpt lat="44.10371" lon="7.18845">
        <ele>2186.3</ele>
        <time>2017-08-25T08:16:27Z</time>
      </trkpt>
      <trkpt lat="44.10377" lon="7.18844">
        <ele>2188.3</ele>
        <time>2017-08-25T08:16:39Z</time>
      </trkpt>
      <trkpt lat="44.10384" lon="7.1884">
        <ele>2191.3</ele>
        <time>2017-08-25T08:16:54Z</time>
      </trkpt>
      <trkpt lat="44.10387" lon="7.18835">
        <ele>2193.2</ele>
        <time>2017-08-25T08:17:05Z</time>
      </trkpt>
      <trkpt lat="44.10391" lon="7.18827">
        <ele>2193.4</ele>
        <time>2017-08-25T08:17:18Z</time>
      </trkpt>
      <trkpt lat="44.10392" lon="7.18827">
        <ele>2193.4</ele>
        <time>2017-08-25T08:17:21Z</time>
      </trkpt>
      <trkpt lat="44.10396" lon="7.18825">
        <ele>2192.9</ele>
        <time>2017-08-25T08:17:34Z</time>
      </trkpt>
      <trkpt lat="44.10396" lon="7.18825">
        <ele>2192.9</ele>
        <time>2017-08-25T08:17:57Z</time>
      </trkpt>
      <trkpt lat="44.10396" lon="7.18824">
        <ele>2192.8</ele>
        <time>2017-08-25T08:18:24Z</time>
      </trkpt>
      <trkpt lat="44.10396" lon="7.18824">
        <ele>2192.8</ele>
        <time>2017-08-25T08:18:47Z</time>
      </trkpt>
      <trkpt lat="44.10395" lon="7.18824">
        <ele>2192.9</ele>
        <time>2017-08-25T08:19:08Z</time>
      </trkpt>
      <trkpt lat="44.10395" lon="7.18824">
        <ele>2192.9</ele>
        <time>2017-08-25T08:19:31Z</time>
      </trkpt>
      <trkpt lat="44.10395" lon="7.18824">
        <ele>2192.9</ele>
        <time>2017-08-25T08:19:55Z</time>
      </trkpt>
      <trkpt lat="44.10395" lon="7.18824">
        <ele>2192.9</ele>
        <time>2017-08-25T08:20:07Z</time>
      </trkpt>
      <trkpt lat="44.10395" lon="7.18824">
        <ele>2192.9</ele>
        <time>2017-08-25T08:20:34Z</time>
      </trkpt>
      <trkpt lat="44.10395" lon="7.18824">
        <ele>2192.9</ele>
        <time>2017-08-25T08:21:11Z</time>
      </trkpt>
      <trkpt lat="44.10395" lon="7.18824">
        <ele>2192.9</ele>
        <time>2017-08-25T08:21:52Z</time>
      </trkpt>
      <trkpt lat="44.10395" lon="7.18824">
        <ele>2192.9</ele>
        <time>2017-08-25T08:22:32Z</time>
      </trkpt>
      <trkpt lat="44.10395" lon="7.18824">
        <ele>2192.9</ele>
        <time>2017-08-25T08:23:25Z</time>
      </trkpt>
      <trkpt lat="44.10395" lon="7.18824">
        <ele>2192.9</ele>
        <time>2017-08-25T08:24:22Z</time>
      </trkpt>
      <trkpt lat="44.10395" lon="7.18824">
        <ele>2192.9</ele>
        <time>2017-08-25T08:25:19Z</time>
      </trkpt>
      <trkpt lat="44.10395" lon="7.18824">
        <ele>2192.9</ele>
        <time>2017-08-25T08:25:58Z</time>
      </trkpt>
      <trkpt lat="44.10395" lon="7.18824">
        <ele>2192.9</ele>
        <time>2017-08-25T08:26:52Z</time>
      </trkpt>
      <trkpt lat="44.10395" lon="7.18824">
        <ele>2192.9</ele>
        <time>2017-08-25T08:27:11Z</time>
      </trkpt>
      <trkpt lat="44.10395" lon="7.18824">
        <ele>2192.9</ele>
        <time>2017-08-25T08:27:35Z</time>
      </trkpt>
      <trkpt lat="44.10395" lon="7.18824">
        <ele>2192.9</ele>
        <time>2017-08-25T08:27:49Z</time>
      </trkpt>
      <trkpt lat="44.10395" lon="7.18824">
        <ele>2192.9</ele>
        <time>2017-08-25T08:28:11Z</time>
      </trkpt>
      <trkpt lat="44.10395" lon="7.18825">
        <ele>2193</ele>
        <time>2017-08-25T08:28:27Z</time>
      </trkpt>
      <trkpt lat="44.10399" lon="7.1883">
        <ele>2193.5</ele>
        <time>2017-08-25T08:28:40Z</time>
      </trkpt>
      <trkpt lat="44.10409" lon="7.18845">
        <ele>2195.1</ele>
        <time>2017-08-25T08:28:57Z</time>
      </trkpt>
      <trkpt lat="44.10419" lon="7.18854">
        <ele>2198</ele>
        <time>2017-08-25T08:29:12Z</time>
      </trkpt>
      <trkpt lat="44.1042" lon="7.18858">
        <ele>2198.8</ele>
        <time>2017-08-25T08:29:26Z</time>
      </trkpt>
      <trkpt lat="44.1042" lon="7.18858">
        <ele>2198.8</ele>
        <time>2017-08-25T08:29:27Z</time>
      </trkpt>
      <trkpt lat="44.10426" lon="7.1887">
        <ele>2199.5</ele>
        <time>2017-08-25T08:29:41Z</time>
      </trkpt>
      <trkpt lat="44.10428" lon="7.18875">
        <ele>2200.1</ele>
        <time>2017-08-25T08:29:55Z</time>
      </trkpt>
      <trkpt lat="44.10428" lon="7.18875">
        <ele>2200.1</ele>
        <time>2017-08-25T08:30:09Z</time>
      </trkpt>
      <trkpt lat="44.10428" lon="7.18875">
        <ele>2200.1</ele>
        <time>2017-08-25T08:30:23Z</time>
      </trkpt>
      <trkpt lat="44.10437" lon="7.18886">
        <ele>2203.4</ele>
        <time>2017-08-25T08:30:37Z</time>
      </trkpt>
      <trkpt lat="44.10448" lon="7.18899">
        <ele>2208.8</ele>
        <time>2017-08-25T08:30:54Z</time>
      </trkpt>
      <trkpt lat="44.1045" lon="7.18903">
        <ele>2210</ele>
        <time>2017-08-25T08:31:10Z</time>
      </trkpt>
      <trkpt lat="44.1045" lon="7.18904">
        <ele>2210.3</ele>
        <time>2017-08-25T08:31:25Z</time>
      </trkpt>
      <trkpt lat="44.10452" lon="7.18918">
        <ele>2215.3</ele>
        <time>2017-08-25T08:31:40Z</time>
      </trkpt>
      <trkpt lat="44.10458" lon="7.18926">
        <ele>2217.3</ele>
        <time>2017-08-25T08:31:54Z</time>
      </trkpt>
      <trkpt lat="44.10461" lon="7.18929">
        <ele>2218.4</ele>
        <time>2017-08-25T08:32:09Z</time>
      </trkpt>
      <trkpt lat="44.10461" lon="7.18929">
        <ele>2218.4</ele>
        <time>2017-08-25T08:32:37Z</time>
      </trkpt>
      <trkpt lat="44.10463" lon="7.18931">
        <ele>2219.1</ele>
        <time>2017-08-25T08:33:15Z</time>
      </trkpt>
      <trkpt lat="44.10464" lon="7.18933">
        <ele>2219.8</ele>
        <time>2017-08-25T08:33:16Z</time>
      </trkpt>
      <trkpt lat="44.10471" lon="7.18944">
        <ele>2224.6</ele>
        <time>2017-08-25T08:33:30Z</time>
      </trkpt>
      <trkpt lat="44.10477" lon="7.18955">
        <ele>2227</ele>
        <time>2017-08-25T08:33:45Z</time>
      </trkpt>
      <trkpt lat="44.10484" lon="7.18968">
        <ele>2229.9</ele>
        <time>2017-08-25T08:34:01Z</time>
      </trkpt>
      <trkpt lat="44.1049" lon="7.18976">
        <ele>2231.8</ele>
        <time>2017-08-25T08:34:16Z</time>
      </trkpt>
      <trkpt lat="44.10498" lon="7.18986">
        <ele>2234.5</ele>
        <time>2017-08-25T08:34:33Z</time>
      </trkpt>
      <trkpt lat="44.10504" lon="7.18991">
        <ele>2235.7</ele>
        <time>2017-08-25T08:34:47Z</time>
      </trkpt>
      <trkpt lat="44.10511" lon="7.19001">
        <ele>2238.5</ele>
        <time>2017-08-25T08:35:03Z</time>
      </trkpt>
      <trkpt lat="44.10504" lon="7.19003">
        <ele>2239.5</ele>
        <time>2017-08-25T08:35:15Z</time>
      </trkpt>
      <trkpt lat="44.10488" lon="7.19003">
        <ele>2239.7</ele>
        <time>2017-08-25T08:35:32Z</time>
      </trkpt>
      <trkpt lat="44.10489" lon="7.19012">
        <ele>2241.7</ele>
        <time>2017-08-25T08:35:45Z</time>
      </trkpt>
      <trkpt lat="44.10494" lon="7.19024">
        <ele>2244.7</ele>
        <time>2017-08-25T08:36:02Z</time>
      </trkpt>
      <trkpt lat="44.105" lon="7.19038">
        <ele>2248.2</ele>
        <time>2017-08-25T08:36:22Z</time>
      </trkpt>
      <trkpt lat="44.10507" lon="7.19048">
        <ele>2251.1</ele>
        <time>2017-08-25T08:36:38Z</time>
      </trkpt>
      <trkpt lat="44.10512" lon="7.19057">
        <ele>2253.5</ele>
        <time>2017-08-25T08:36:53Z</time>
      </trkpt>
      <trkpt lat="44.10514" lon="7.19069">
        <ele>2255.9</ele>
        <time>2017-08-25T08:37:09Z</time>
      </trkpt>
      <trkpt lat="44.10523" lon="7.19076">
        <ele>2258.6</ele>
        <time>2017-08-25T08:37:25Z</time>
      </trkpt>
      <trkpt lat="44.10533" lon="7.19083">
        <ele>2261.7</ele>
        <time>2017-08-25T08:37:41Z</time>
      </trkpt>
      <trkpt lat="44.10543" lon="7.19087">
        <ele>2263.7</ele>
        <time>2017-08-25T08:37:54Z</time>
      </trkpt>
      <trkpt lat="44.10554" lon="7.19085">
        <ele>2265</ele>
        <time>2017-08-25T08:38:09Z</time>
      </trkpt>
      <trkpt lat="44.10563" lon="7.19087">
        <ele>2265.6</ele>
        <time>2017-08-25T08:38:24Z</time>
      </trkpt>
      <trkpt lat="44.10573" lon="7.19089">
        <ele>2266.2</ele>
        <time>2017-08-25T08:38:39Z</time>
      </trkpt>
      <trkpt lat="44.10577" lon="7.19092">
        <ele>2267</ele>
        <time>2017-08-25T08:38:46Z</time>
      </trkpt>
      <trkpt lat="44.10588" lon="7.19101">
        <ele>2268.6</ele>
        <time>2017-08-25T08:39:04Z</time>
      </trkpt>
      <trkpt lat="44.10598" lon="7.19111">
        <ele>2270.4</ele>
        <time>2017-08-25T08:39:21Z</time>
      </trkpt>
      <trkpt lat="44.10608" lon="7.19122">
        <ele>2272.3</ele>
        <time>2017-08-25T08:39:37Z</time>
      </trkpt>
      <trkpt lat="44.10621" lon="7.19129">
        <ele>2272.8</ele>
        <time>2017-08-25T08:39:52Z</time>
      </trkpt>
      <trkpt lat="44.10631" lon="7.19135">
        <ele>2273.9</ele>
        <time>2017-08-25T08:40:06Z</time>
      </trkpt>
      <trkpt lat="44.10644" lon="7.19142">
        <ele>2275.8</ele>
        <time>2017-08-25T08:40:23Z</time>
      </trkpt>
      <trkpt lat="44.10655" lon="7.19148">
        <ele>2277.3</ele>
        <time>2017-08-25T08:40:37Z</time>
      </trkpt>
      <trkpt lat="44.10661" lon="7.19148">
        <ele>2276.6</ele>
        <time>2017-08-25T08:40:54Z</time>
      </trkpt>
      <trkpt lat="44.10677" lon="7.19152">
        <ele>2275.7</ele>
        <time>2017-08-25T08:41:11Z</time>
      </trkpt>
      <trkpt lat="44.10683" lon="7.19153">
        <ele>2274.8</ele>
        <time>2017-08-25T08:41:24Z</time>
      </trkpt>
      <trkpt lat="44.10698" lon="7.19158">
        <ele>2274</ele>
        <time>2017-08-25T08:41:40Z</time>
      </trkpt>
      <trkpt lat="44.10699" lon="7.19158">
        <ele>2273.7</ele>
        <time>2017-08-25T08:41:41Z</time>
      </trkpt>
      <trkpt lat="44.10712" lon="7.19162">
        <ele>2272</ele>
        <time>2017-08-25T08:41:54Z</time>
      </trkpt>
      <trkpt lat="44.10715" lon="7.19166">
        <ele>2273</ele>
        <time>2017-08-25T08:41:58Z</time>
      </trkpt>
      <trkpt lat="44.10723" lon="7.19167">
        <ele>2270.9</ele>
        <time>2017-08-25T08:42:11Z</time>
      </trkpt>
      <trkpt lat="44.10727" lon="7.19172">
        <ele>2271.9</ele>
        <time>2017-08-25T08:42:23Z</time>
      </trkpt>
      <trkpt lat="44.10736" lon="7.19175">
        <ele>2270.6</ele>
        <time>2017-08-25T08:42:34Z</time>
      </trkpt>
      <trkpt lat="44.10746" lon="7.19176">
        <ele>2268.2</ele>
        <time>2017-08-25T08:42:43Z</time>
      </trkpt>
      <trkpt lat="44.10751" lon="7.19178">
        <ele>2267.8</ele>
        <time>2017-08-25T08:42:48Z</time>
      </trkpt>
      <trkpt lat="44.10767" lon="7.19184">
        <ele>2268.9</ele>
        <time>2017-08-25T08:43:07Z</time>
      </trkpt>
      <trkpt lat="44.10776" lon="7.19188">
        <ele>2269.6</ele>
        <time>2017-08-25T08:43:24Z</time>
      </trkpt>
      <trkpt lat="44.10785" lon="7.19196">
        <ele>2270.6</ele>
        <time>2017-08-25T08:43:37Z</time>
      </trkpt>
      <trkpt lat="44.10789" lon="7.19198">
        <ele>2270.4</ele>
        <time>2017-08-25T08:43:41Z</time>
      </trkpt>
      <trkpt lat="44.10799" lon="7.19212">
        <ele>2274.1</ele>
        <time>2017-08-25T08:43:54Z</time>
      </trkpt>
      <trkpt lat="44.10807" lon="7.19216">
        <ele>2273.6</ele>
        <time>2017-08-25T08:44:02Z</time>
      </trkpt>
      <trkpt lat="44.10818" lon="7.19225">
        <ele>2274.3</ele>
        <time>2017-08-25T08:44:17Z</time>
      </trkpt>
      <trkpt lat="44.10828" lon="7.19231">
        <ele>2273.9</ele>
        <time>2017-08-25T08:44:27Z</time>
      </trkpt>
      <trkpt lat="44.10839" lon="7.1924">
        <ele>2274.8</ele>
        <time>2017-08-25T08:44:41Z</time>
      </trkpt>
      <trkpt lat="44.1085" lon="7.19249">
        <ele>2275.8</ele>
        <time>2017-08-25T08:44:58Z</time>
      </trkpt>
      <trkpt lat="44.10856" lon="7.19251">
        <ele>2274.9</ele>
        <time>2017-08-25T08:45:05Z</time>
      </trkpt>
      <trkpt lat="44.10863" lon="7.19254">
        <ele>2274.4</ele>
        <time>2017-08-25T08:45:19Z</time>
      </trkpt>
      <trkpt lat="44.10877" lon="7.19256">
        <ele>2272.4</ele>
        <time>2017-08-25T08:45:32Z</time>
      </trkpt>
      <trkpt lat="44.10886" lon="7.19257">
        <ele>2270.9</ele>
        <time>2017-08-25T08:45:44Z</time>
      </trkpt>
      <trkpt lat="44.10902" lon="7.1925">
        <ele>2269.4</ele>
        <time>2017-08-25T08:46:00Z</time>
      </trkpt>
      <trkpt lat="44.10911" lon="7.19248">
        <ele>2269.7</ele>
        <time>2017-08-25T08:46:13Z</time>
      </trkpt>
      <trkpt lat="44.1092" lon="7.19246">
        <ele>2270.2</ele>
        <time>2017-08-25T08:46:27Z</time>
      </trkpt>
      <trkpt lat="44.10925" lon="7.19242">
        <ele>2269.9</ele>
        <time>2017-08-25T08:46:37Z</time>
      </trkpt>
      <trkpt lat="44.10931" lon="7.19239">
        <ele>2270.2</ele>
        <time>2017-08-25T08:46:49Z</time>
      </trkpt>
      <trkpt lat="44.10945" lon="7.19233">
        <ele>2271.7</ele>
        <time>2017-08-25T08:47:02Z</time>
      </trkpt>
      <trkpt lat="44.10956" lon="7.19226">
        <ele>2270.6</ele>
        <time>2017-08-25T08:47:15Z</time>
      </trkpt>
      <trkpt lat="44.10966" lon="7.19227">
        <ele>2271.2</ele>
        <time>2017-08-25T08:47:29Z</time>
      </trkpt>
      <trkpt lat="44.10978" lon="7.1923">
        <ele>2271.5</ele>
        <time>2017-08-25T08:47:44Z</time>
      </trkpt>
      <trkpt lat="44.10981" lon="7.1923">
        <ele>2271.3</ele>
        <time>2017-08-25T08:47:48Z</time>
      </trkpt>
      <trkpt lat="44.10996" lon="7.19238">
        <ele>2270.4</ele>
        <time>2017-08-25T08:48:04Z</time>
      </trkpt>
      <trkpt lat="44.11005" lon="7.19246">
        <ele>2269.3</ele>
        <time>2017-08-25T08:48:17Z</time>
      </trkpt>
      <trkpt lat="44.11013" lon="7.19255">
        <ele>2268.6</ele>
        <time>2017-08-25T08:48:31Z</time>
      </trkpt>
      <trkpt lat="44.11018" lon="7.19269">
        <ele>2269.2</ele>
        <time>2017-08-25T08:48:43Z</time>
      </trkpt>
      <trkpt lat="44.11032" lon="7.19283">
        <ele>2269.2</ele>
        <time>2017-08-25T08:49:00Z</time>
      </trkpt>
      <trkpt lat="44.11042" lon="7.19296">
        <ele>2270.1</ele>
        <time>2017-08-25T08:49:15Z</time>
      </trkpt>
      <trkpt lat="44.11048" lon="7.19304">
        <ele>2271</ele>
        <time>2017-08-25T08:49:27Z</time>
      </trkpt>
      <trkpt lat="44.11056" lon="7.19311">
        <ele>2272.4</ele>
        <time>2017-08-25T08:49:42Z</time>
      </trkpt>
      <trkpt lat="44.11059" lon="7.19317">
        <ele>2273.7</ele>
        <time>2017-08-25T08:49:55Z</time>
      </trkpt>
      <trkpt lat="44.11063" lon="7.19327">
        <ele>2275.9</ele>
        <time>2017-08-25T08:50:10Z</time>
      </trkpt>
      <trkpt lat="44.11067" lon="7.19335">
        <ele>2277.7</ele>
        <time>2017-08-25T08:50:20Z</time>
      </trkpt>
      <trkpt lat="44.11069" lon="7.19337">
        <ele>2278.1</ele>
        <time>2017-08-25T08:50:24Z</time>
      </trkpt>
      <trkpt lat="44.11075" lon="7.19347">
        <ele>2280.3</ele>
        <time>2017-08-25T08:50:36Z</time>
      </trkpt>
      <trkpt lat="44.11079" lon="7.19355">
        <ele>2282</ele>
        <time>2017-08-25T08:50:48Z</time>
      </trkpt>
      <trkpt lat="44.11084" lon="7.19365">
        <ele>2283.9</ele>
        <time>2017-08-25T08:51:01Z</time>
      </trkpt>
      <trkpt lat="44.11084" lon="7.19369">
        <ele>2284.7</ele>
        <time>2017-08-25T08:51:15Z</time>
      </trkpt>
      <trkpt lat="44.1108" lon="7.19371">
        <ele>2285.5</ele>
        <time>2017-08-25T08:51:28Z</time>
      </trkpt>
      <trkpt lat="44.11076" lon="7.19376">
        <ele>2287</ele>
        <time>2017-08-25T08:51:42Z</time>
      </trkpt>
      <trkpt lat="44.11079" lon="7.19386">
        <ele>2288.7</ele>
        <time>2017-08-25T08:51:55Z</time>
      </trkpt>
      <trkpt lat="44.11079" lon="7.19398">
        <ele>2290.6</ele>
        <time>2017-08-25T08:52:08Z</time>
      </trkpt>
      <trkpt lat="44.11085" lon="7.19406">
        <ele>2291.8</ele>
        <time>2017-08-25T08:52:22Z</time>
      </trkpt>
      <trkpt lat="44.11084" lon="7.19418">
        <ele>2293.2</ele>
        <time>2017-08-25T08:52:36Z</time>
      </trkpt>
      <trkpt lat="44.11095" lon="7.19419">
        <ele>2295.6</ele>
        <time>2017-08-25T08:52:46Z</time>
      </trkpt>
      <trkpt lat="44.11101" lon="7.19407">
        <ele>2295</ele>
        <time>2017-08-25T08:53:02Z</time>
      </trkpt>
      <trkpt lat="44.11109" lon="7.19411">
        <ele>2297.4</ele>
        <time>2017-08-25T08:53:14Z</time>
      </trkpt>
      <trkpt lat="44.11118" lon="7.19413">
        <ele>2299</ele>
        <time>2017-08-25T08:53:29Z</time>
      </trkpt>
      <trkpt lat="44.11131" lon="7.19413">
        <ele>2300.5</ele>
        <time>2017-08-25T08:53:47Z</time>
      </trkpt>
      <trkpt lat="44.11141" lon="7.19409">
        <ele>2300.4</ele>
        <time>2017-08-25T08:54:00Z</time>
      </trkpt>
      <trkpt lat="44.11143" lon="7.1941">
        <ele>2300.4</ele>
        <time>2017-08-25T08:54:04Z</time>
      </trkpt>
      <trkpt lat="44.11156" lon="7.1941">
        <ele>2299.1</ele>
        <time>2017-08-25T08:54:18Z</time>
      </trkpt>
      <trkpt lat="44.11169" lon="7.19413">
        <ele>2297.3</ele>
        <time>2017-08-25T08:54:31Z</time>
      </trkpt>
      <trkpt lat="44.11184" lon="7.19408">
        <ele>2296.8</ele>
        <time>2017-08-25T08:54:48Z</time>
      </trkpt>
      <trkpt lat="44.11199" lon="7.19405">
        <ele>2297.4</ele>
        <time>2017-08-25T08:55:03Z</time>
      </trkpt>
      <trkpt lat="44.11211" lon="7.19406">
        <ele>2299.4</ele>
        <time>2017-08-25T08:55:15Z</time>
      </trkpt>
      <trkpt lat="44.11213" lon="7.19408">
        <ele>2299.2</ele>
        <time>2017-08-25T08:55:18Z</time>
      </trkpt>
      <trkpt lat="44.11224" lon="7.19416">
        <ele>2298.6</ele>
        <time>2017-08-25T08:55:31Z</time>
      </trkpt>
      <trkpt lat="44.11234" lon="7.19423">
        <ele>2299.6</ele>
        <time>2017-08-25T08:55:48Z</time>
      </trkpt>
      <trkpt lat="44.11247" lon="7.19429">
        <ele>2301.6</ele>
        <time>2017-08-25T08:56:04Z</time>
      </trkpt>
      <trkpt lat="44.11255" lon="7.19432">
        <ele>2302.8</ele>
        <time>2017-08-25T08:56:15Z</time>
      </trkpt>
      <trkpt lat="44.11266" lon="7.19435">
        <ele>2304.6</ele>
        <time>2017-08-25T08:56:28Z</time>
      </trkpt>
      <trkpt lat="44.11277" lon="7.19435">
        <ele>2306.9</ele>
        <time>2017-08-25T08:56:41Z</time>
      </trkpt>
      <trkpt lat="44.11286" lon="7.19438">
        <ele>2307.8</ele>
        <time>2017-08-25T08:56:55Z</time>
      </trkpt>
      <trkpt lat="44.11296" lon="7.19442">
        <ele>2308.8</ele>
        <time>2017-08-25T08:57:10Z</time>
      </trkpt>
      <trkpt lat="44.11305" lon="7.19446">
        <ele>2309.6</ele>
        <time>2017-08-25T08:57:22Z</time>
      </trkpt>
      <trkpt lat="44.11305" lon="7.19446">
        <ele>2309.6</ele>
        <time>2017-08-25T08:57:23Z</time>
      </trkpt>
      <trkpt lat="44.11315" lon="7.19452">
        <ele>2309</ele>
        <time>2017-08-25T08:57:35Z</time>
      </trkpt>
      <trkpt lat="44.11318" lon="7.19455">
        <ele>2308.8</ele>
        <time>2017-08-25T08:57:39Z</time>
      </trkpt>
      <trkpt lat="44.11325" lon="7.19458">
        <ele>2308.9</ele>
        <time>2017-08-25T08:57:46Z</time>
      </trkpt>
      <trkpt lat="44.11329" lon="7.19458">
        <ele>2309.2</ele>
        <time>2017-08-25T08:57:49Z</time>
      </trkpt>
      <trkpt lat="44.11343" lon="7.19456">
        <ele>2310.8</ele>
        <time>2017-08-25T08:58:03Z</time>
      </trkpt>
      <trkpt lat="44.11356" lon="7.19453">
        <ele>2312.4</ele>
        <time>2017-08-25T08:58:18Z</time>
      </trkpt>
      <trkpt lat="44.11366" lon="7.19458">
        <ele>2314.1</ele>
        <time>2017-08-25T08:58:32Z</time>
      </trkpt>
      <trkpt lat="44.11368" lon="7.19457">
        <ele>2314.5</ele>
        <time>2017-08-25T08:58:34Z</time>
      </trkpt>
      <trkpt lat="44.1138" lon="7.19458">
        <ele>2317.1</ele>
        <time>2017-08-25T08:58:47Z</time>
      </trkpt>
      <trkpt lat="44.11389" lon="7.1946">
        <ele>2319</ele>
        <time>2017-08-25T08:59:00Z</time>
      </trkpt>
      <trkpt lat="44.11393" lon="7.1946">
        <ele>2319.9</ele>
        <time>2017-08-25T08:59:12Z</time>
      </trkpt>
      <trkpt lat="44.11402" lon="7.19458">
        <ele>2321.8</ele>
        <time>2017-08-25T08:59:26Z</time>
      </trkpt>
      <trkpt lat="44.11409" lon="7.19458">
        <ele>2323.3</ele>
        <time>2017-08-25T08:59:42Z</time>
      </trkpt>
      <trkpt lat="44.11418" lon="7.1946">
        <ele>2325.6</ele>
        <time>2017-08-25T08:59:54Z</time>
      </trkpt>
      <trkpt lat="44.11429" lon="7.19459">
        <ele>2328.2</ele>
        <time>2017-08-25T09:00:08Z</time>
      </trkpt>
      <trkpt lat="44.1143" lon="7.19458">
        <ele>2328.3</ele>
        <time>2017-08-25T09:00:09Z</time>
      </trkpt>
      <trkpt lat="44.11436" lon="7.19444">
        <ele>2327.9</ele>
        <time>2017-08-25T09:00:23Z</time>
      </trkpt>
      <trkpt lat="44.11443" lon="7.19441">
        <ele>2329.9</ele>
        <time>2017-08-25T09:00:36Z</time>
      </trkpt>
      <trkpt lat="44.11451" lon="7.19442">
        <ele>2331.8</ele>
        <time>2017-08-25T09:00:49Z</time>
      </trkpt>
      <trkpt lat="44.11456" lon="7.19442">
        <ele>2333</ele>
        <time>2017-08-25T09:00:55Z</time>
      </trkpt>
      <trkpt lat="44.11468" lon="7.1944">
        <ele>2336</ele>
        <time>2017-08-25T09:01:11Z</time>
      </trkpt>
      <trkpt lat="44.11478" lon="7.1943">
        <ele>2338.7</ele>
        <time>2017-08-25T09:01:26Z</time>
      </trkpt>
      <trkpt lat="44.11483" lon="7.19427">
        <ele>2340</ele>
        <time>2017-08-25T09:01:39Z</time>
      </trkpt>
      <trkpt lat="44.11491" lon="7.19422">
        <ele>2342</ele>
        <time>2017-08-25T09:01:53Z</time>
      </trkpt>
      <trkpt lat="44.11495" lon="7.19422">
        <ele>2343.1</ele>
        <time>2017-08-25T09:02:05Z</time>
      </trkpt>
      <trkpt lat="44.11503" lon="7.1942">
        <ele>2344.7</ele>
        <time>2017-08-25T09:02:19Z</time>
      </trkpt>
      <trkpt lat="44.11513" lon="7.1942">
        <ele>2346.2</ele>
        <time>2017-08-25T09:02:33Z</time>
      </trkpt>
      <trkpt lat="44.11527" lon="7.19422">
        <ele>2348.5</ele>
        <time>2017-08-25T09:02:48Z</time>
      </trkpt>
      <trkpt lat="44.11538" lon="7.19424">
        <ele>2348.7</ele>
        <time>2017-08-25T09:03:02Z</time>
      </trkpt>
      <trkpt lat="44.11553" lon="7.19435">
        <ele>2349.4</ele>
        <time>2017-08-25T09:03:19Z</time>
      </trkpt>
      <trkpt lat="44.11553" lon="7.19435">
        <ele>2349.4</ele>
        <time>2017-08-25T09:03:20Z</time>
      </trkpt>
      <trkpt lat="44.11562" lon="7.19448">
        <ele>2349.9</ele>
        <time>2017-08-25T09:03:33Z</time>
      </trkpt>
      <trkpt lat="44.11571" lon="7.19457">
        <ele>2350</ele>
        <time>2017-08-25T09:03:44Z</time>
      </trkpt>
      <trkpt lat="44.11574" lon="7.19458">
        <ele>2349.8</ele>
        <time>2017-08-25T09:03:47Z</time>
      </trkpt>
      <trkpt lat="44.11587" lon="7.19465">
        <ele>2349.6</ele>
        <time>2017-08-25T09:04:01Z</time>
      </trkpt>
      <trkpt lat="44.11599" lon="7.19473">
        <ele>2350.8</ele>
        <time>2017-08-25T09:04:15Z</time>
      </trkpt>
      <trkpt lat="44.11606" lon="7.19477">
        <ele>2352.1</ele>
        <time>2017-08-25T09:04:29Z</time>
      </trkpt>
      <trkpt lat="44.11611" lon="7.19481">
        <ele>2353.5</ele>
        <time>2017-08-25T09:04:47Z</time>
      </trkpt>
      <trkpt lat="44.11616" lon="7.19485">
        <ele>2355.3</ele>
        <time>2017-08-25T09:05:06Z</time>
      </trkpt>
      <trkpt lat="44.11616" lon="7.19485">
        <ele>2355.3</ele>
        <time>2017-08-25T09:05:35Z</time>
      </trkpt>
      <trkpt lat="44.11617" lon="7.19484">
        <ele>2355.1</ele>
        <time>2017-08-25T09:06:00Z</time>
      </trkpt>
      <trkpt lat="44.11617" lon="7.19484">
        <ele>2355.1</ele>
        <time>2017-08-25T09:06:16Z</time>
      </trkpt>
      <trkpt lat="44.11616" lon="7.19484">
        <ele>2355</ele>
        <time>2017-08-25T09:06:32Z</time>
      </trkpt>
      <trkpt lat="44.11616" lon="7.19484">
        <ele>2355</ele>
        <time>2017-08-25T09:06:51Z</time>
      </trkpt>
      <trkpt lat="44.11624" lon="7.19488">
        <ele>2357.3</ele>
        <time>2017-08-25T09:07:06Z</time>
      </trkpt>
      <trkpt lat="44.11631" lon="7.19493">
        <ele>2360</ele>
        <time>2017-08-25T09:07:21Z</time>
      </trkpt>
      <trkpt lat="44.1164" lon="7.19492">
        <ele>2361</ele>
        <time>2017-08-25T09:07:32Z</time>
      </trkpt>
      <trkpt lat="44.11648" lon="7.19492">
        <ele>2361.8</ele>
        <time>2017-08-25T09:07:48Z</time>
      </trkpt>
      <trkpt lat="44.11655" lon="7.19492">
        <ele>2362.6</ele>
        <time>2017-08-25T09:08:01Z</time>
      </trkpt>
      <trkpt lat="44.11655" lon="7.19492">
        <ele>2362.6</ele>
        <time>2017-08-25T09:08:26Z</time>
      </trkpt>
      <trkpt lat="44.11654" lon="7.19492">
        <ele>2362.5</ele>
        <time>2017-08-25T09:08:55Z</time>
      </trkpt>
      <trkpt lat="44.11656" lon="7.19491">
        <ele>2362.3</ele>
        <time>2017-08-25T09:09:27Z</time>
      </trkpt>
      <trkpt lat="44.11656" lon="7.19491">
        <ele>2362.3</ele>
        <time>2017-08-25T09:09:55Z</time>
      </trkpt>
      <trkpt lat="44.11658" lon="7.1949">
        <ele>2362.1</ele>
        <time>2017-08-25T09:10:24Z</time>
      </trkpt>
      <trkpt lat="44.11659" lon="7.1949">
        <ele>2362.2</ele>
        <time>2017-08-25T09:10:47Z</time>
      </trkpt>
      <trkpt lat="44.11659" lon="7.1949">
        <ele>2362.2</ele>
        <time>2017-08-25T09:11:15Z</time>
      </trkpt>
      <trkpt lat="44.11658" lon="7.1949">
        <ele>2362.1</ele>
        <time>2017-08-25T09:11:42Z</time>
      </trkpt>
      <trkpt lat="44.11659" lon="7.19489">
        <ele>2361.8</ele>
        <time>2017-08-25T09:12:13Z</time>
      </trkpt>
      <trkpt lat="44.11659" lon="7.19489">
        <ele>2361.8</ele>
        <time>2017-08-25T09:12:43Z</time>
      </trkpt>
      <trkpt lat="44.11659" lon="7.19489">
        <ele>2361.8</ele>
        <time>2017-08-25T09:13:12Z</time>
      </trkpt>
      <trkpt lat="44.11659" lon="7.19489">
        <ele>2361.8</ele>
        <time>2017-08-25T09:13:39Z</time>
      </trkpt>
      <trkpt lat="44.1166" lon="7.19488">
        <ele>2361.5</ele>
        <time>2017-08-25T09:13:59Z</time>
      </trkpt>
      <trkpt lat="44.11668" lon="7.19492">
        <ele>2364.1</ele>
        <time>2017-08-25T09:14:13Z</time>
      </trkpt>
      <trkpt lat="44.11671" lon="7.19497">
        <ele>2366.6</ele>
        <time>2017-08-25T09:14:26Z</time>
      </trkpt>
      <trkpt lat="44.1168" lon="7.19497">
        <ele>2368.4</ele>
        <time>2017-08-25T09:14:41Z</time>
      </trkpt>
      <trkpt lat="44.11684" lon="7.19498">
        <ele>2369.5</ele>
        <time>2017-08-25T09:14:58Z</time>
      </trkpt>
      <trkpt lat="44.11694" lon="7.19501">
        <ele>2372.3</ele>
        <time>2017-08-25T09:15:16Z</time>
      </trkpt>
      <trkpt lat="44.11704" lon="7.19499">
        <ele>2374.9</ele>
        <time>2017-08-25T09:15:31Z</time>
      </trkpt>
      <trkpt lat="44.11709" lon="7.19498">
        <ele>2376.4</ele>
        <time>2017-08-25T09:15:45Z</time>
      </trkpt>
      <trkpt lat="44.11712" lon="7.19504">
        <ele>2378.5</ele>
        <time>2017-08-25T09:16:01Z</time>
      </trkpt>
      <trkpt lat="44.11716" lon="7.19499">
        <ele>2378.9</ele>
        <time>2017-08-25T09:16:15Z</time>
      </trkpt>
      <trkpt lat="44.11718" lon="7.19502">
        <ele>2379.9</ele>
        <time>2017-08-25T09:16:28Z</time>
      </trkpt>
      <trkpt lat="44.11718" lon="7.19515">
        <ele>2381.8</ele>
        <time>2017-08-25T09:16:45Z</time>
      </trkpt>
      <trkpt lat="44.11719" lon="7.19524">
        <ele>2383.2</ele>
        <time>2017-08-25T09:16:58Z</time>
      </trkpt>
      <trkpt lat="44.11719" lon="7.19536">
        <ele>2384.2</ele>
        <time>2017-08-25T09:17:12Z</time>
      </trkpt>
      <trkpt lat="44.1172" lon="7.19547">
        <ele>2384.7</ele>
        <time>2017-08-25T09:17:28Z</time>
      </trkpt>
      <trkpt lat="44.11721" lon="7.19554">
        <ele>2385</ele>
        <time>2017-08-25T09:17:34Z</time>
      </trkpt>
      <trkpt lat="44.11716" lon="7.19565">
        <ele>2385.8</ele>
        <time>2017-08-25T09:17:48Z</time>
      </trkpt>
      <trkpt lat="44.11711" lon="7.19577">
        <ele>2386.6</ele>
        <time>2017-08-25T09:18:01Z</time>
      </trkpt>
      <trkpt lat="44.11709" lon="7.19591">
        <ele>2387.4</ele>
        <time>2017-08-25T09:18:15Z</time>
      </trkpt>
      <trkpt lat="44.11712" lon="7.19607">
        <ele>2388.6</ele>
        <time>2017-08-25T09:18:30Z</time>
      </trkpt>
      <trkpt lat="44.1172" lon="7.19616">
        <ele>2388.9</ele>
        <time>2017-08-25T09:18:42Z</time>
      </trkpt>
      <trkpt lat="44.11722" lon="7.19619">
        <ele>2388.6</ele>
        <time>2017-08-25T09:18:46Z</time>
      </trkpt>
      <trkpt lat="44.11725" lon="7.19619">
        <ele>2389.3</ele>
        <time>2017-08-25T09:18:50Z</time>
      </trkpt>
      <trkpt lat="44.11732" lon="7.19623">
        <ele>2390.4</ele>
        <time>2017-08-25T09:18:58Z</time>
      </trkpt>
      <trkpt lat="44.11737" lon="7.19624">
        <ele>2391.4</ele>
        <time>2017-08-25T09:19:03Z</time>
      </trkpt>
      <trkpt lat="44.11741" lon="7.19624">
        <ele>2392.5</ele>
        <time>2017-08-25T09:19:07Z</time>
      </trkpt>
      <trkpt lat="44.11746" lon="7.19629">
        <ele>2392.5</ele>
        <time>2017-08-25T09:19:15Z</time>
      </trkpt>
      <trkpt lat="44.11755" lon="7.19638">
        <ele>2393.4</ele>
        <time>2017-08-25T09:19:28Z</time>
      </trkpt>
      <trkpt lat="44.11763" lon="7.19643">
        <ele>2395.9</ele>
        <time>2017-08-25T09:19:41Z</time>
      </trkpt>
      <trkpt lat="44.11771" lon="7.1965">
        <ele>2398.1</ele>
        <time>2017-08-25T09:19:56Z</time>
      </trkpt>
      <trkpt lat="44.11778" lon="7.1966">
        <ele>2399.3</ele>
        <time>2017-08-25T09:20:09Z</time>
      </trkpt>
      <trkpt lat="44.11782" lon="7.19672">
        <ele>2400.4</ele>
        <time>2017-08-25T09:20:21Z</time>
      </trkpt>
      <trkpt lat="44.11788" lon="7.19687">
        <ele>2403.2</ele>
        <time>2017-08-25T09:20:36Z</time>
      </trkpt>
      <trkpt lat="44.1179" lon="7.19702">
        <ele>2403.6</ele>
        <time>2017-08-25T09:20:49Z</time>
      </trkpt>
      <trkpt lat="44.11789" lon="7.19709">
        <ele>2402.6</ele>
        <time>2017-08-25T09:20:55Z</time>
      </trkpt>
      <trkpt lat="44.11794" lon="7.19728">
        <ele>2406.1</ele>
        <time>2017-08-25T09:21:11Z</time>
      </trkpt>
      <trkpt lat="44.11791" lon="7.19745">
        <ele>2405.2</ele>
        <time>2017-08-25T09:21:26Z</time>
      </trkpt>
      <trkpt lat="44.1179" lon="7.1976">
        <ele>2405.7</ele>
        <time>2017-08-25T09:21:41Z</time>
      </trkpt>
      <trkpt lat="44.11792" lon="7.19772">
        <ele>2408.2</ele>
        <time>2017-08-25T09:21:59Z</time>
      </trkpt>
      <trkpt lat="44.11795" lon="7.19768">
        <ele>2409.9</ele>
        <time>2017-08-25T09:22:15Z</time>
      </trkpt>
      <trkpt lat="44.11804" lon="7.19761">
        <ele>2415.7</ele>
        <time>2017-08-25T09:22:29Z</time>
      </trkpt>
      <trkpt lat="44.11802" lon="7.19773">
        <ele>2415.2</ele>
        <time>2017-08-25T09:22:45Z</time>
      </trkpt>
      <trkpt lat="44.11801" lon="7.19789">
        <ele>2417.3</ele>
        <time>2017-08-25T09:23:02Z</time>
      </trkpt>
      <trkpt lat="44.11796" lon="7.19807">
        <ele>2417.8</ele>
        <time>2017-08-25T09:23:16Z</time>
      </trkpt>
      <trkpt lat="44.11797" lon="7.19824">
        <ele>2422.5</ele>
        <time>2017-08-25T09:23:31Z</time>
      </trkpt>
      <trkpt lat="44.11795" lon="7.19839">
        <ele>2425</ele>
        <time>2017-08-25T09:23:47Z</time>
      </trkpt>
      <trkpt lat="44.11793" lon="7.19852">
        <ele>2427.3</ele>
        <time>2017-08-25T09:24:02Z</time>
      </trkpt>
      <trkpt lat="44.11789" lon="7.19864">
        <ele>2428.1</ele>
        <time>2017-08-25T09:24:18Z</time>
      </trkpt>
      <trkpt lat="44.11786" lon="7.19871">
        <ele>2428</ele>
        <time>2017-08-25T09:24:24Z</time>
      </trkpt>
      <trkpt lat="44.11779" lon="7.19884">
        <ele>2426.7</ele>
        <time>2017-08-25T09:24:35Z</time>
      </trkpt>
      <trkpt lat="44.11778" lon="7.19888">
        <ele>2426.9</ele>
        <time>2017-08-25T09:24:38Z</time>
      </trkpt>
      <trkpt lat="44.11775" lon="7.19905">
        <ele>2428.8</ele>
        <time>2017-08-25T09:24:54Z</time>
      </trkpt>
      <trkpt lat="44.11773" lon="7.19921">
        <ele>2431.2</ele>
        <time>2017-08-25T09:25:09Z</time>
      </trkpt>
      <trkpt lat="44.11766" lon="7.19939">
        <ele>2431.8</ele>
        <time>2017-08-25T09:25:26Z</time>
      </trkpt>
      <trkpt lat="44.11763" lon="7.19952">
        <ele>2433.7</ele>
        <time>2017-08-25T09:25:40Z</time>
      </trkpt>
      <trkpt lat="44.11762" lon="7.19967">
        <ele>2437.7</ele>
        <time>2017-08-25T09:25:58Z</time>
      </trkpt>
      <trkpt lat="44.11767" lon="7.19966">
        <ele>2440.5</ele>
        <time>2017-08-25T09:26:12Z</time>
      </trkpt>
      <trkpt lat="44.11772" lon="7.19967">
        <ele>2443.9</ele>
        <time>2017-08-25T09:26:25Z</time>
      </trkpt>
      <trkpt lat="44.11771" lon="7.19968">
        <ele>2443.6</ele>
        <time>2017-08-25T09:26:28Z</time>
      </trkpt>
      <trkpt lat="44.11767" lon="7.19971">
        <ele>2442</ele>
        <time>2017-08-25T09:26:32Z</time>
      </trkpt>
      <trkpt lat="44.1176" lon="7.19983">
        <ele>2441.8</ele>
        <time>2017-08-25T09:26:46Z</time>
      </trkpt>
      <trkpt lat="44.11753" lon="7.19994">
        <ele>2442.1</ele>
        <time>2017-08-25T09:27:01Z</time>
      </trkpt>
      <trkpt lat="44.11751" lon="7.20002">
        <ele>2443.8</ele>
        <time>2017-08-25T09:27:07Z</time>
      </trkpt>
      <trkpt lat="44.11748" lon="7.20013">
        <ele>2444.5</ele>
        <time>2017-08-25T09:27:14Z</time>
      </trkpt>
      <trkpt lat="44.11739" lon="7.20029">
        <ele>2444.2</ele>
        <time>2017-08-25T09:27:28Z</time>
      </trkpt>
      <trkpt lat="44.11732" lon="7.20053">
        <ele>2445.7</ele>
        <time>2017-08-25T09:27:45Z</time>
      </trkpt>
      <trkpt lat="44.11727" lon="7.2007">
        <ele>2446.4</ele>
        <time>2017-08-25T09:27:59Z</time>
      </trkpt>
      <trkpt lat="44.11726" lon="7.20071">
        <ele>2446.4</ele>
        <time>2017-08-25T09:28:01Z</time>
      </trkpt>
      <trkpt lat="44.11717" lon="7.20095">
        <ele>2446.3</ele>
        <time>2017-08-25T09:28:20Z</time>
      </trkpt>
      <trkpt lat="44.11709" lon="7.2011">
        <ele>2447.3</ele>
        <time>2017-08-25T09:28:34Z</time>
      </trkpt>
      <trkpt lat="44.11704" lon="7.20116">
        <ele>2448.2</ele>
        <time>2017-08-25T09:28:50Z</time>
      </trkpt>
      <trkpt lat="44.11704" lon="7.20116">
        <ele>2448.2</ele>
        <time>2017-08-25T09:29:25Z</time>
      </trkpt>
      <trkpt lat="44.11704" lon="7.20117">
        <ele>2448.2</ele>
        <time>2017-08-25T09:30:09Z</time>
      </trkpt>
      <trkpt lat="44.11704" lon="7.20117">
        <ele>2448.2</ele>
        <time>2017-08-25T09:30:42Z</time>
      </trkpt>
      <trkpt lat="44.11704" lon="7.20117">
        <ele>2448.2</ele>
        <time>2017-08-25T09:31:04Z</time>
      </trkpt>
      <trkpt lat="44.11705" lon="7.20117">
        <ele>2447.9</ele>
        <time>2017-08-25T09:31:36Z</time>
      </trkpt>
      <trkpt lat="44.11705" lon="7.20118">
        <ele>2447.8</ele>
        <time>2017-08-25T09:31:51Z</time>
      </trkpt>
      <trkpt lat="44.11705" lon="7.20118">
        <ele>2447.8</ele>
        <time>2017-08-25T09:32:20Z</time>
      </trkpt>
      <trkpt lat="44.11705" lon="7.20122">
        <ele>2447.4</ele>
        <time>2017-08-25T09:32:50Z</time>
      </trkpt>
      <trkpt lat="44.11701" lon="7.20139">
        <ele>2447.9</ele>
        <time>2017-08-25T09:33:06Z</time>
      </trkpt>
      <trkpt lat="44.11694" lon="7.20152">
        <ele>2447.4</ele>
        <time>2017-08-25T09:33:21Z</time>
      </trkpt>
      <trkpt lat="44.1169" lon="7.20169">
        <ele>2444.3</ele>
        <time>2017-08-25T09:33:38Z</time>
      </trkpt>
      <trkpt lat="44.11693" lon="7.20179">
        <ele>2440.2</ele>
        <time>2017-08-25T09:33:51Z</time>
      </trkpt>
      <trkpt lat="44.1169" lon="7.20187">
        <ele>2439.6</ele>
        <time>2017-08-25T09:34:06Z</time>
      </trkpt>
      <trkpt lat="44.11698" lon="7.20186">
        <ele>2435.4</ele>
        <time>2017-08-25T09:34:18Z</time>
      </trkpt>
      <trkpt lat="44.11701" lon="7.20175">
        <ele>2437.1</ele>
        <time>2017-08-25T09:34:31Z</time>
      </trkpt>
      <trkpt lat="44.11703" lon="7.20173">
        <ele>2436.7</ele>
        <time>2017-08-25T09:34:43Z</time>
      </trkpt>
      <trkpt lat="44.11706" lon="7.20175">
        <ele>2434.4</ele>
        <time>2017-08-25T09:34:55Z</time>
      </trkpt>
      <trkpt lat="44.11703" lon="7.20182">
        <ele>2433.8</ele>
        <time>2017-08-25T09:35:10Z</time>
      </trkpt>
      <trkpt lat="44.11709" lon="7.20183">
        <ele>2430</ele>
        <time>2017-08-25T09:35:23Z</time>
      </trkpt>
      <trkpt lat="44.11715" lon="7.2018">
        <ele>2427.7</ele>
        <time>2017-08-25T09:35:37Z</time>
      </trkpt>
      <trkpt lat="44.11722" lon="7.20171">
        <ele>2427.4</ele>
        <time>2017-08-25T09:35:51Z</time>
      </trkpt>
      <trkpt lat="44.11725" lon="7.20166">
        <ele>2427.7</ele>
        <time>2017-08-25T09:35:57Z</time>
      </trkpt>
      <trkpt lat="44.11727" lon="7.20163">
        <ele>2427.7</ele>
        <time>2017-08-25T09:36:12Z</time>
      </trkpt>
      <trkpt lat="44.11727" lon="7.20163">
        <ele>2427.7</ele>
        <time>2017-08-25T09:36:16Z</time>
      </trkpt>
      <trkpt lat="44.1173" lon="7.2016">
        <ele>2427.1</ele>
        <time>2017-08-25T09:36:21Z</time>
      </trkpt>
      <trkpt lat="44.11733" lon="7.20159">
        <ele>2425.9</ele>
        <time>2017-08-25T09:36:24Z</time>
      </trkpt>
      <trkpt lat="44.11736" lon="7.20155">
        <ele>2425.8</ele>
        <time>2017-08-25T09:36:28Z</time>
      </trkpt>
      <trkpt lat="44.11739" lon="7.20151">
        <ele>2425.7</ele>
        <time>2017-08-25T09:36:32Z</time>
      </trkpt>
      <trkpt lat="44.11756" lon="7.20146">
        <ele>2421.5</ele>
        <time>2017-08-25T09:36:49Z</time>
      </trkpt>
      <trkpt lat="44.11757" lon="7.20151">
        <ele>2419.3</ele>
        <time>2017-08-25T09:37:01Z</time>
      </trkpt>
      <trkpt lat="44.11746" lon="7.2016">
        <ele>2418.7</ele>
        <time>2017-08-25T09:37:15Z</time>
      </trkpt>
      <trkpt lat="44.11752" lon="7.20163">
        <ele>2415.1</ele>
        <time>2017-08-25T09:37:27Z</time>
      </trkpt>
      <trkpt lat="44.11751" lon="7.20167">
        <ele>2413.6</ele>
        <time>2017-08-25T09:37:39Z</time>
      </trkpt>
      <trkpt lat="44.11754" lon="7.20173">
        <ele>2409.6</ele>
        <time>2017-08-25T09:37:51Z</time>
      </trkpt>
      <trkpt lat="44.11756" lon="7.20172">
        <ele>2409.7</ele>
        <time>2017-08-25T09:38:13Z</time>
      </trkpt>
      <trkpt lat="44.11758" lon="7.2017">
        <ele>2410.4</ele>
        <time>2017-08-25T09:38:16Z</time>
      </trkpt>
      <trkpt lat="44.11768" lon="7.20166">
        <ele>2410.4</ele>
        <time>2017-08-25T09:38:29Z</time>
      </trkpt>
      <trkpt lat="44.11774" lon="7.20167">
        <ele>2408.6</ele>
        <time>2017-08-25T09:38:35Z</time>
      </trkpt>
      <trkpt lat="44.11783" lon="7.20174">
        <ele>2404.1</ele>
        <time>2017-08-25T09:38:49Z</time>
      </trkpt>
      <trkpt lat="44.11783" lon="7.20178">
        <ele>2402</ele>
        <time>2017-08-25T09:38:55Z</time>
      </trkpt>
      <trkpt lat="44.1177" lon="7.20181">
        <ele>2402.2</ele>
        <time>2017-08-25T09:39:11Z</time>
      </trkpt>
      <trkpt lat="44.11776" lon="7.20186">
        <ele>2398.6</ele>
        <time>2017-08-25T09:39:22Z</time>
      </trkpt>
      <trkpt lat="44.11775" lon="7.20186">
        <ele>2398.7</ele>
        <time>2017-08-25T09:39:41Z</time>
      </trkpt>
      <trkpt lat="44.11774" lon="7.20187">
        <ele>2398.4</ele>
        <time>2017-08-25T09:39:50Z</time>
      </trkpt>
      <trkpt lat="44.1176" lon="7.20192">
        <ele>2397.9</ele>
        <time>2017-08-25T09:40:07Z</time>
      </trkpt>
      <trkpt lat="44.11756" lon="7.202">
        <ele>2394.7</ele>
        <time>2017-08-25T09:40:16Z</time>
      </trkpt>
      <trkpt lat="44.11757" lon="7.20201">
        <ele>2394.1</ele>
        <time>2017-08-25T09:40:31Z</time>
      </trkpt>
      <trkpt lat="44.11759" lon="7.20201">
        <ele>2393.8</ele>
        <time>2017-08-25T09:40:36Z</time>
      </trkpt>
      <trkpt lat="44.11766" lon="7.20204">
        <ele>2391.4</ele>
        <time>2017-08-25T09:40:46Z</time>
      </trkpt>
      <trkpt lat="44.11759" lon="7.20212">
        <ele>2388.9</ele>
        <time>2017-08-25T09:40:54Z</time>
      </trkpt>
      <trkpt lat="44.11751" lon="7.20223">
        <ele>2385.6</ele>
        <time>2017-08-25T09:41:05Z</time>
      </trkpt>
      <trkpt lat="44.11754" lon="7.20226">
        <ele>2384.2</ele>
        <time>2017-08-25T09:41:09Z</time>
      </trkpt>
      <trkpt lat="44.11766" lon="7.20221">
        <ele>2383.7</ele>
        <time>2017-08-25T09:41:21Z</time>
      </trkpt>
      <trkpt lat="44.11773" lon="7.20224">
        <ele>2381.1</ele>
        <time>2017-08-25T09:41:28Z</time>
      </trkpt>
      <trkpt lat="44.11782" lon="7.20226">
        <ele>2378.8</ele>
        <time>2017-08-25T09:41:38Z</time>
      </trkpt>
      <trkpt lat="44.11792" lon="7.20232">
        <ele>2375.2</ele>
        <time>2017-08-25T09:41:47Z</time>
      </trkpt>
      <trkpt lat="44.11805" lon="7.2024">
        <ele>2371</ele>
        <time>2017-08-25T09:42:01Z</time>
      </trkpt>
      <trkpt lat="44.11812" lon="7.20246">
        <ele>2368.1</ele>
        <time>2017-08-25T09:42:09Z</time>
      </trkpt>
      <trkpt lat="44.11817" lon="7.20252">
        <ele>2365.5</ele>
        <time>2017-08-25T09:42:17Z</time>
      </trkpt>
      <trkpt lat="44.11819" lon="7.20256">
        <ele>2364.1</ele>
        <time>2017-08-25T09:42:20Z</time>
      </trkpt>
      <trkpt lat="44.11821" lon="7.20256">
        <ele>2364</ele>
        <time>2017-08-25T09:42:26Z</time>
      </trkpt>
      <trkpt lat="44.11827" lon="7.20263">
        <ele>2361.8</ele>
        <time>2017-08-25T09:42:36Z</time>
      </trkpt>
      <trkpt lat="44.1183" lon="7.20266">
        <ele>2360.9</ele>
        <time>2017-08-25T09:42:39Z</time>
      </trkpt>
      <trkpt lat="44.11831" lon="7.20269">
        <ele>2360.2</ele>
        <time>2017-08-25T09:42:42Z</time>
      </trkpt>
      <trkpt lat="44.11827" lon="7.20271">
        <ele>2359.5</ele>
        <time>2017-08-25T09:42:47Z</time>
      </trkpt>
      <trkpt lat="44.11812" lon="7.20269">
        <ele>2359.6</ele>
        <time>2017-08-25T09:43:02Z</time>
      </trkpt>
      <trkpt lat="44.1181" lon="7.20268">
        <ele>2360</ele>
        <time>2017-08-25T09:43:04Z</time>
      </trkpt>
      <trkpt lat="44.11805" lon="7.20269">
        <ele>2359.5</ele>
        <time>2017-08-25T09:43:08Z</time>
      </trkpt>
      <trkpt lat="44.11792" lon="7.20279">
        <ele>2357.2</ele>
        <time>2017-08-25T09:43:21Z</time>
      </trkpt>
      <trkpt lat="44.11791" lon="7.20281">
        <ele>2356.8</ele>
        <time>2017-08-25T09:43:22Z</time>
      </trkpt>
      <trkpt lat="44.11791" lon="7.20284">
        <ele>2356.1</ele>
        <time>2017-08-25T09:43:25Z</time>
      </trkpt>
      <trkpt lat="44.11803" lon="7.20297">
        <ele>2350.9</ele>
        <time>2017-08-25T09:43:37Z</time>
      </trkpt>
      <trkpt lat="44.11805" lon="7.20297">
        <ele>2350.6</ele>
        <time>2017-08-25T09:43:39Z</time>
      </trkpt>
      <trkpt lat="44.11809" lon="7.20301">
        <ele>2349.5</ele>
        <time>2017-08-25T09:43:44Z</time>
      </trkpt>
      <trkpt lat="44.1181" lon="7.20302">
        <ele>2349.2</ele>
        <time>2017-08-25T09:43:45Z</time>
      </trkpt>
      <trkpt lat="44.11811" lon="7.20304">
        <ele>2348.7</ele>
        <time>2017-08-25T09:43:47Z</time>
      </trkpt>
      <trkpt lat="44.11813" lon="7.20306">
        <ele>2348.2</ele>
        <time>2017-08-25T09:43:49Z</time>
      </trkpt>
      <trkpt lat="44.11819" lon="7.20315">
        <ele>2347</ele>
        <time>2017-08-25T09:43:56Z</time>
      </trkpt>
      <trkpt lat="44.11821" lon="7.20316">
        <ele>2346.8</ele>
        <time>2017-08-25T09:43:58Z</time>
      </trkpt>
      <trkpt lat="44.1183" lon="7.20324">
        <ele>2344.6</ele>
        <time>2017-08-25T09:44:08Z</time>
      </trkpt>
      <trkpt lat="44.11832" lon="7.20322">
        <ele>2345</ele>
        <time>2017-08-25T09:44:20Z</time>
      </trkpt>
      <trkpt lat="44.11835" lon="7.20325">
        <ele>2344.2</ele>
        <time>2017-08-25T09:44:36Z</time>
      </trkpt>
      <trkpt lat="44.11838" lon="7.20328">
        <ele>2343.6</ele>
        <time>2017-08-25T09:44:46Z</time>
      </trkpt>
      <trkpt lat="44.1184" lon="7.20328">
        <ele>2343.7</ele>
        <time>2017-08-25T09:44:48Z</time>
      </trkpt>
      <trkpt lat="44.11843" lon="7.2033">
        <ele>2343.3</ele>
        <time>2017-08-25T09:44:51Z</time>
      </trkpt>
      <trkpt lat="44.1185" lon="7.20346">
        <ele>2338.8</ele>
        <time>2017-08-25T09:45:01Z</time>
      </trkpt>
      <trkpt lat="44.11851" lon="7.2035">
        <ele>2337.5</ele>
        <time>2017-08-25T09:45:03Z</time>
      </trkpt>
      <trkpt lat="44.11863" lon="7.20359">
        <ele>2333.9</ele>
        <time>2017-08-25T09:45:16Z</time>
      </trkpt>
      <trkpt lat="44.1187" lon="7.2037">
        <ele>2332</ele>
        <time>2017-08-25T09:45:27Z</time>
      </trkpt>
      <trkpt lat="44.11877" lon="7.20374">
        <ele>2330.9</ele>
        <time>2017-08-25T09:45:40Z</time>
      </trkpt>
      <trkpt lat="44.11877" lon="7.20374">
        <ele>2330.9</ele>
        <time>2017-08-25T09:46:06Z</time>
      </trkpt>
      <trkpt lat="44.11877" lon="7.20374">
        <ele>2330.9</ele>
        <time>2017-08-25T09:46:17Z</time>
      </trkpt>
      <trkpt lat="44.11881" lon="7.20368">
        <ele>2332.4</ele>
        <time>2017-08-25T11:00:58Z</time>
      </trkpt>
      <trkpt lat="44.11878" lon="7.20376">
        <ele>2330.3</ele>
        <time>2017-08-25T11:01:00Z</time>
      </trkpt>
      <trkpt lat="44.11874" lon="7.20373">
        <ele>2331.3</ele>
        <time>2017-08-25T11:01:04Z</time>
      </trkpt>
      <trkpt lat="44.11874" lon="7.20372">
        <ele>2331.5</ele>
        <time>2017-08-25T11:01:06Z</time>
      </trkpt>
      <trkpt lat="44.11876" lon="7.20373">
        <ele>2331.2</ele>
        <time>2017-08-25T11:01:08Z</time>
      </trkpt>
      <trkpt lat="44.11877" lon="7.20372">
        <ele>2331.4</ele>
        <time>2017-08-25T11:01:10Z</time>
      </trkpt>
      <trkpt lat="44.11879" lon="7.20372">
        <ele>2331.3</ele>
        <time>2017-08-25T11:01:13Z</time>
      </trkpt>
      <trkpt lat="44.1188" lon="7.20372">
        <ele>2331.3</ele>
        <time>2017-08-25T11:01:16Z</time>
      </trkpt>
      <trkpt lat="44.1188" lon="7.20372">
        <ele>2331.3</ele>
        <time>2017-08-25T11:01:19Z</time>
      </trkpt>
      <trkpt lat="44.1188" lon="7.20372">
        <ele>2331.3</ele>
        <time>2017-08-25T11:01:20Z</time>
      </trkpt>
      <trkpt lat="44.1188" lon="7.20371">
        <ele>2331.6</ele>
        <time>2017-08-25T11:01:24Z</time>
      </trkpt>
      <trkpt lat="44.1188" lon="7.20374">
        <ele>2330.8</ele>
        <time>2017-08-25T11:01:27Z</time>
      </trkpt>
      <trkpt lat="44.1188" lon="7.20377">
        <ele>2329.9</ele>
        <time>2017-08-25T11:01:29Z</time>
      </trkpt>
      <trkpt lat="44.11879" lon="7.20377">
        <ele>2330</ele>
        <time>2017-08-25T11:01:30Z</time>
      </trkpt>
      <trkpt lat="44.11877" lon="7.20378">
        <ele>2329.9</ele>
        <time>2017-08-25T11:01:34Z</time>
      </trkpt>
      <trkpt lat="44.11876" lon="7.20376">
        <ele>2330.5</ele>
        <time>2017-08-25T11:01:38Z</time>
      </trkpt>
      <trkpt lat="44.11877" lon="7.20376">
        <ele>2330.4</ele>
        <time>2017-08-25T11:01:44Z</time>
      </trkpt>
      <trkpt lat="44.11876" lon="7.20376">
        <ele>2330.5</ele>
        <time>2017-08-25T11:01:51Z</time>
      </trkpt>
      <trkpt lat="44.11876" lon="7.20375">
        <ele>2330.7</ele>
        <time>2017-08-25T11:02:00Z</time>
      </trkpt>
      <trkpt lat="44.11876" lon="7.20373">
        <ele>2331.2</ele>
        <time>2017-08-25T11:02:07Z</time>
      </trkpt>
      <trkpt lat="44.11873" lon="7.20371">
        <ele>2331.7</ele>
        <time>2017-08-25T11:02:13Z</time>
      </trkpt>
      <trkpt lat="44.11871" lon="7.20382">
        <ele>2329.6</ele>
        <time>2017-08-25T11:02:28Z</time>
      </trkpt>
      <trkpt lat="44.1188" lon="7.20391">
        <ele>2326.1</ele>
        <time>2017-08-25T11:02:41Z</time>
      </trkpt>
      <trkpt lat="44.11886" lon="7.20391">
        <ele>2325</ele>
        <time>2017-08-25T11:02:54Z</time>
      </trkpt>
      <trkpt lat="44.11893" lon="7.20387">
        <ele>2325</ele>
        <time>2017-08-25T11:03:08Z</time>
      </trkpt>
      <trkpt lat="44.11898" lon="7.20387">
        <ele>2324.1</ele>
        <time>2017-08-25T11:03:19Z</time>
      </trkpt>
      <trkpt lat="44.11906" lon="7.20387">
        <ele>2322.8</ele>
        <time>2017-08-25T11:03:31Z</time>
      </trkpt>
      <trkpt lat="44.11909" lon="7.20395">
        <ele>2319.4</ele>
        <time>2017-08-25T11:03:44Z</time>
      </trkpt>
      <trkpt lat="44.11911" lon="7.20394">
        <ele>2319.3</ele>
        <time>2017-08-25T11:03:58Z</time>
      </trkpt>
      <trkpt lat="44.11913" lon="7.20397">
        <ele>2317.9</ele>
        <time>2017-08-25T11:04:09Z</time>
      </trkpt>
      <trkpt lat="44.11914" lon="7.20401">
        <ele>2316.2</ele>
        <time>2017-08-25T11:04:16Z</time>
      </trkpt>
      <trkpt lat="44.11922" lon="7.20402">
        <ele>2314.9</ele>
        <time>2017-08-25T11:04:26Z</time>
      </trkpt>
      <trkpt lat="44.11911" lon="7.20408">
        <ele>2314.6</ele>
        <time>2017-08-25T11:04:40Z</time>
      </trkpt>
      <trkpt lat="44.11911" lon="7.20408">
        <ele>2314.6</ele>
        <time>2017-08-25T11:04:41Z</time>
      </trkpt>
      <trkpt lat="44.11904" lon="7.20423">
        <ele>2311.6</ele>
        <time>2017-08-25T11:04:55Z</time>
      </trkpt>
      <trkpt lat="44.11903" lon="7.20424">
        <ele>2311.6</ele>
        <time>2017-08-25T11:04:56Z</time>
      </trkpt>
      <trkpt lat="44.11902" lon="7.20436">
        <ele>2308</ele>
        <time>2017-08-25T11:05:09Z</time>
      </trkpt>
      <trkpt lat="44.11905" lon="7.20437">
        <ele>2306.8</ele>
        <time>2017-08-25T11:05:13Z</time>
      </trkpt>
      <trkpt lat="44.11912" lon="7.20437">
        <ele>2304.8</ele>
        <time>2017-08-25T11:05:26Z</time>
      </trkpt>
      <trkpt lat="44.11921" lon="7.20437">
        <ele>2302.8</ele>
        <time>2017-08-25T11:05:36Z</time>
      </trkpt>
      <trkpt lat="44.1193" lon="7.2044">
        <ele>2300.6</ele>
        <time>2017-08-25T11:05:49Z</time>
      </trkpt>
      <trkpt lat="44.11931" lon="7.20444">
        <ele>2299.1</ele>
        <time>2017-08-25T11:05:59Z</time>
      </trkpt>
      <trkpt lat="44.11927" lon="7.20451">
        <ele>2298.2</ele>
        <time>2017-08-25T11:06:11Z</time>
      </trkpt>
      <trkpt lat="44.1193" lon="7.20461">
        <ele>2295.8</ele>
        <time>2017-08-25T11:06:23Z</time>
      </trkpt>
      <trkpt lat="44.11936" lon="7.20466">
        <ele>2294.1</ele>
        <time>2017-08-25T11:06:33Z</time>
      </trkpt>
      <trkpt lat="44.11942" lon="7.20472">
        <ele>2292.3</ele>
        <time>2017-08-25T11:06:42Z</time>
      </trkpt>
      <trkpt lat="44.11945" lon="7.20474">
        <ele>2291.9</ele>
        <time>2017-08-25T11:06:45Z</time>
      </trkpt>
      <trkpt lat="44.11953" lon="7.20486">
        <ele>2291</ele>
        <time>2017-08-25T11:06:56Z</time>
      </trkpt>
      <trkpt lat="44.11947" lon="7.20499">
        <ele>2290</ele>
        <time>2017-08-25T11:07:07Z</time>
      </trkpt>
      <trkpt lat="44.11946" lon="7.20503">
        <ele>2289.6</ele>
        <time>2017-08-25T11:07:10Z</time>
      </trkpt>
      <trkpt lat="44.11946" lon="7.20505">
        <ele>2289.4</ele>
        <time>2017-08-25T11:07:12Z</time>
      </trkpt>
      <trkpt lat="44.11948" lon="7.20524">
        <ele>2286.8</ele>
        <time>2017-08-25T11:07:26Z</time>
      </trkpt>
      <trkpt lat="44.1195" lon="7.20528">
        <ele>2286</ele>
        <time>2017-08-25T11:07:29Z</time>
      </trkpt>
      <trkpt lat="44.11953" lon="7.20533">
        <ele>2285</ele>
        <time>2017-08-25T11:07:35Z</time>
      </trkpt>
      <trkpt lat="44.11965" lon="7.2054">
        <ele>2282.1</ele>
        <time>2017-08-25T11:07:49Z</time>
      </trkpt>
      <trkpt lat="44.11966" lon="7.2054">
        <ele>2281.9</ele>
        <time>2017-08-25T11:07:50Z</time>
      </trkpt>
      <trkpt lat="44.1197" lon="7.20538">
        <ele>2281.3</ele>
        <time>2017-08-25T11:07:54Z</time>
      </trkpt>
      <trkpt lat="44.11974" lon="7.20542">
        <ele>2280</ele>
        <time>2017-08-25T11:08:06Z</time>
      </trkpt>
      <trkpt lat="44.1198" lon="7.20543">
        <ele>2278.4</ele>
        <time>2017-08-25T11:08:17Z</time>
      </trkpt>
      <trkpt lat="44.11984" lon="7.20538">
        <ele>2278</ele>
        <time>2017-08-25T11:08:25Z</time>
      </trkpt>
      <trkpt lat="44.11987" lon="7.20538">
        <ele>2277.3</ele>
        <time>2017-08-25T11:08:28Z</time>
      </trkpt>
      <trkpt lat="44.11999" lon="7.20533">
        <ele>2275.3</ele>
        <time>2017-08-25T11:08:44Z</time>
      </trkpt>
      <trkpt lat="44.12003" lon="7.20535">
        <ele>2274.2</ele>
        <time>2017-08-25T11:08:49Z</time>
      </trkpt>
      <trkpt lat="44.12006" lon="7.20537">
        <ele>2273.3</ele>
        <time>2017-08-25T11:08:53Z</time>
      </trkpt>
      <trkpt lat="44.1202" lon="7.20541">
        <ele>2270</ele>
        <time>2017-08-25T11:09:08Z</time>
      </trkpt>
      <trkpt lat="44.1202" lon="7.20541">
        <ele>2270</ele>
        <time>2017-08-25T11:09:23Z</time>
      </trkpt>
      <trkpt lat="44.12034" lon="7.2055">
        <ele>2266.2</ele>
        <time>2017-08-25T11:09:38Z</time>
      </trkpt>
      <trkpt lat="44.12042" lon="7.20555">
        <ele>2264.5</ele>
        <time>2017-08-25T11:09:50Z</time>
      </trkpt>
      <trkpt lat="44.1205" lon="7.20556">
        <ele>2263.5</ele>
        <time>2017-08-25T11:09:58Z</time>
      </trkpt>
      <trkpt lat="44.12052" lon="7.20555">
        <ele>2263.4</ele>
        <time>2017-08-25T11:10:01Z</time>
      </trkpt>
      <trkpt lat="44.12061" lon="7.20557">
        <ele>2262.3</ele>
        <time>2017-08-25T11:10:11Z</time>
      </trkpt>
      <trkpt lat="44.12068" lon="7.2056">
        <ele>2261.1</ele>
        <time>2017-08-25T11:10:19Z</time>
      </trkpt>
      <trkpt lat="44.12066" lon="7.20563">
        <ele>2260.6</ele>
        <time>2017-08-25T11:10:23Z</time>
      </trkpt>
      <trkpt lat="44.12063" lon="7.20566">
        <ele>2260.3</ele>
        <time>2017-08-25T11:10:27Z</time>
      </trkpt>
      <trkpt lat="44.12061" lon="7.20567">
        <ele>2260.3</ele>
        <time>2017-08-25T11:10:29Z</time>
      </trkpt>
      <trkpt lat="44.12054" lon="7.20577">
        <ele>2259.4</ele>
        <time>2017-08-25T11:10:39Z</time>
      </trkpt>
      <trkpt lat="44.12049" lon="7.20586">
        <ele>2258.7</ele>
        <time>2017-08-25T11:10:50Z</time>
      </trkpt>
      <trkpt lat="44.12055" lon="7.2059">
        <ele>2256.9</ele>
        <time>2017-08-25T11:10:58Z</time>
      </trkpt>
      <trkpt lat="44.1206" lon="7.20592">
        <ele>2255.7</ele>
        <time>2017-08-25T11:11:02Z</time>
      </trkpt>
      <trkpt lat="44.12064" lon="7.20596">
        <ele>2254.3</ele>
        <time>2017-08-25T11:11:07Z</time>
      </trkpt>
      <trkpt lat="44.12072" lon="7.206">
        <ele>2252.4</ele>
        <time>2017-08-25T11:11:15Z</time>
      </trkpt>
      <trkpt lat="44.12081" lon="7.20607">
        <ele>2249.9</ele>
        <time>2017-08-25T11:11:28Z</time>
      </trkpt>
      <trkpt lat="44.12079" lon="7.20608">
        <ele>2250.1</ele>
        <time>2017-08-25T11:11:32Z</time>
      </trkpt>
      <trkpt lat="44.12074" lon="7.20613">
        <ele>2249.9</ele>
        <time>2017-08-25T11:11:39Z</time>
      </trkpt>
      <trkpt lat="44.12079" lon="7.2062">
        <ele>2247.7</ele>
        <time>2017-08-25T11:11:46Z</time>
      </trkpt>
      <trkpt lat="44.12085" lon="7.20624">
        <ele>2246</ele>
        <time>2017-08-25T11:11:53Z</time>
      </trkpt>
      <trkpt lat="44.12089" lon="7.20625">
        <ele>2245.2</ele>
        <time>2017-08-25T11:11:58Z</time>
      </trkpt>
      <trkpt lat="44.12104" lon="7.20624">
        <ele>2243.2</ele>
        <time>2017-08-25T11:12:14Z</time>
      </trkpt>
      <trkpt lat="44.12119" lon="7.20621">
        <ele>2240.9</ele>
        <time>2017-08-25T11:12:27Z</time>
      </trkpt>
      <trkpt lat="44.12133" lon="7.20611">
        <ele>2239.3</ele>
        <time>2017-08-25T11:12:42Z</time>
      </trkpt>
      <trkpt lat="44.12143" lon="7.20608">
        <ele>2237.7</ele>
        <time>2017-08-25T11:12:52Z</time>
      </trkpt>
      <trkpt lat="44.12145" lon="7.20609">
        <ele>2237.2</ele>
        <time>2017-08-25T11:12:54Z</time>
      </trkpt>
      <trkpt lat="44.12153" lon="7.20621">
        <ele>2234.4</ele>
        <time>2017-08-25T11:13:08Z</time>
      </trkpt>
      <trkpt lat="44.12158" lon="7.20632">
        <ele>2232.6</ele>
        <time>2017-08-25T11:13:20Z</time>
      </trkpt>
      <trkpt lat="44.12161" lon="7.2064">
        <ele>2231.5</ele>
        <time>2017-08-25T11:13:26Z</time>
      </trkpt>
      <trkpt lat="44.12163" lon="7.20641">
        <ele>2231.1</ele>
        <time>2017-08-25T11:13:28Z</time>
      </trkpt>
      <trkpt lat="44.12171" lon="7.20649">
        <ele>2229.4</ele>
        <time>2017-08-25T11:13:37Z</time>
      </trkpt>
      <trkpt lat="44.12181" lon="7.20652">
        <ele>2228</ele>
        <time>2017-08-25T11:13:50Z</time>
      </trkpt>
      <trkpt lat="44.12186" lon="7.20653">
        <ele>2227.4</ele>
        <time>2017-08-25T11:13:54Z</time>
      </trkpt>
      <trkpt lat="44.12193" lon="7.20654">
        <ele>2226.5</ele>
        <time>2017-08-25T11:14:01Z</time>
      </trkpt>
      <trkpt lat="44.12197" lon="7.20657">
        <ele>2225.7</ele>
        <time>2017-08-25T11:14:06Z</time>
      </trkpt>
      <trkpt lat="44.122" lon="7.20661">
        <ele>2225</ele>
        <time>2017-08-25T11:14:11Z</time>
      </trkpt>
      <trkpt lat="44.12205" lon="7.20663">
        <ele>2224.2</ele>
        <time>2017-08-25T11:14:26Z</time>
      </trkpt>
      <trkpt lat="44.12208" lon="7.20665">
        <ele>2223.7</ele>
        <time>2017-08-25T11:14:31Z</time>
      </trkpt>
      <trkpt lat="44.12213" lon="7.2067">
        <ele>2222.6</ele>
        <time>2017-08-25T11:14:37Z</time>
      </trkpt>
      <trkpt lat="44.12214" lon="7.20685">
        <ele>2220.9</ele>
        <time>2017-08-25T11:14:48Z</time>
      </trkpt>
      <trkpt lat="44.12219" lon="7.20696">
        <ele>2219</ele>
        <time>2017-08-25T11:14:59Z</time>
      </trkpt>
      <trkpt lat="44.12224" lon="7.20695">
        <ele>2218.4</ele>
        <time>2017-08-25T11:15:03Z</time>
      </trkpt>
      <trkpt lat="44.12238" lon="7.20683">
        <ele>2216.7</ele>
        <time>2017-08-25T11:15:19Z</time>
      </trkpt>
      <trkpt lat="44.1225" lon="7.20676">
        <ele>2215.3</ele>
        <time>2017-08-25T11:15:31Z</time>
      </trkpt>
      <trkpt lat="44.12259" lon="7.20665">
        <ele>2214.1</ele>
        <time>2017-08-25T11:15:46Z</time>
      </trkpt>
      <trkpt lat="44.12267" lon="7.20661">
        <ele>2211.5</ele>
        <time>2017-08-25T11:15:56Z</time>
      </trkpt>
      <trkpt lat="44.12273" lon="7.2065">
        <ele>2209.5</ele>
        <time>2017-08-25T11:16:06Z</time>
      </trkpt>
      <trkpt lat="44.12278" lon="7.20638">
        <ele>2207.8</ele>
        <time>2017-08-25T11:16:20Z</time>
      </trkpt>
      <trkpt lat="44.1228" lon="7.20635">
        <ele>2206.7</ele>
        <time>2017-08-25T11:16:26Z</time>
      </trkpt>
      <trkpt lat="44.12289" lon="7.20639">
        <ele>2204.4</ele>
        <time>2017-08-25T11:16:39Z</time>
      </trkpt>
      <trkpt lat="44.12294" lon="7.20643">
        <ele>2202.7</ele>
        <time>2017-08-25T11:16:51Z</time>
      </trkpt>
      <trkpt lat="44.12297" lon="7.20642">
        <ele>2201.8</ele>
        <time>2017-08-25T11:17:05Z</time>
      </trkpt>
      <trkpt lat="44.12297" lon="7.20643">
        <ele>2201.8</ele>
        <time>2017-08-25T11:17:21Z</time>
      </trkpt>
      <trkpt lat="44.12299" lon="7.20655">
        <ele>2201.1</ele>
        <time>2017-08-25T11:17:32Z</time>
      </trkpt>
      <trkpt lat="44.12301" lon="7.20671">
        <ele>2200</ele>
        <time>2017-08-25T11:17:44Z</time>
      </trkpt>
      <trkpt lat="44.12301" lon="7.20672">
        <ele>2199.9</ele>
        <time>2017-08-25T11:17:45Z</time>
      </trkpt>
      <trkpt lat="44.123" lon="7.20677">
        <ele>2199.6</ele>
        <time>2017-08-25T11:17:49Z</time>
      </trkpt>
      <trkpt lat="44.12302" lon="7.20684">
        <ele>2198.2</ele>
        <time>2017-08-25T11:17:55Z</time>
      </trkpt>
      <trkpt lat="44.12305" lon="7.20683">
        <ele>2197.4</ele>
        <time>2017-08-25T11:17:59Z</time>
      </trkpt>
      <trkpt lat="44.12314" lon="7.2067">
        <ele>2195.6</ele>
        <time>2017-08-25T11:18:13Z</time>
      </trkpt>
      <trkpt lat="44.12321" lon="7.20663">
        <ele>2193.5</ele>
        <time>2017-08-25T11:18:24Z</time>
      </trkpt>
      <trkpt lat="44.12324" lon="7.20661">
        <ele>2192.5</ele>
        <time>2017-08-25T11:18:27Z</time>
      </trkpt>
      <trkpt lat="44.12332" lon="7.20647">
        <ele>2190.2</ele>
        <time>2017-08-25T11:18:41Z</time>
      </trkpt>
      <trkpt lat="44.12338" lon="7.20661">
        <ele>2187.7</ele>
        <time>2017-08-25T11:18:55Z</time>
      </trkpt>
      <trkpt lat="44.12349" lon="7.20675">
        <ele>2183</ele>
        <time>2017-08-25T11:19:10Z</time>
      </trkpt>
      <trkpt lat="44.12352" lon="7.2068">
        <ele>2181.3</ele>
        <time>2017-08-25T11:19:19Z</time>
      </trkpt>
      <trkpt lat="44.12346" lon="7.20685">
        <ele>2183</ele>
        <time>2017-08-25T11:19:27Z</time>
      </trkpt>
      <trkpt lat="44.12345" lon="7.20695">
        <ele>2182.3</ele>
        <time>2017-08-25T11:19:34Z</time>
      </trkpt>
      <trkpt lat="44.12341" lon="7.20713">
        <ele>2181.1</ele>
        <time>2017-08-25T11:19:48Z</time>
      </trkpt>
      <trkpt lat="44.1234" lon="7.20714">
        <ele>2181.4</ele>
        <time>2017-08-25T11:19:49Z</time>
      </trkpt>
      <trkpt lat="44.12336" lon="7.20723">
        <ele>2181.6</ele>
        <time>2017-08-25T11:19:57Z</time>
      </trkpt>
      <trkpt lat="44.12328" lon="7.20735">
        <ele>2180.9</ele>
        <time>2017-08-25T11:20:08Z</time>
      </trkpt>
      <trkpt lat="44.12324" lon="7.20746">
        <ele>2178.6</ele>
        <time>2017-08-25T11:20:16Z</time>
      </trkpt>
      <trkpt lat="44.1232" lon="7.20762">
        <ele>2177.5</ele>
        <time>2017-08-25T11:20:26Z</time>
      </trkpt>
      <trkpt lat="44.12321" lon="7.20766">
        <ele>2176.9</ele>
        <time>2017-08-25T11:20:28Z</time>
      </trkpt>
      <trkpt lat="44.12336" lon="7.20775">
        <ele>2171.6</ele>
        <time>2017-08-25T11:20:43Z</time>
      </trkpt>
      <trkpt lat="44.12339" lon="7.20774">
        <ele>2170.9</ele>
        <time>2017-08-25T11:20:47Z</time>
      </trkpt>
      <trkpt lat="44.12349" lon="7.20774">
        <ele>2168.3</ele>
        <time>2017-08-25T11:20:56Z</time>
      </trkpt>
      <trkpt lat="44.12353" lon="7.20774">
        <ele>2167.3</ele>
        <time>2017-08-25T11:21:04Z</time>
      </trkpt>
      <trkpt lat="44.12355" lon="7.20786">
        <ele>2167.5</ele>
        <time>2017-08-25T11:21:14Z</time>
      </trkpt>
      <trkpt lat="44.12366" lon="7.20795">
        <ele>2165.9</ele>
        <time>2017-08-25T11:21:27Z</time>
      </trkpt>
      <trkpt lat="44.12373" lon="7.20792">
        <ele>2164.2</ele>
        <time>2017-08-25T11:21:32Z</time>
      </trkpt>
      <trkpt lat="44.12375" lon="7.20782">
        <ele>2162.9</ele>
        <time>2017-08-25T11:21:38Z</time>
      </trkpt>
      <trkpt lat="44.12376" lon="7.20775">
        <ele>2162.3</ele>
        <time>2017-08-25T11:21:44Z</time>
      </trkpt>
      <trkpt lat="44.12382" lon="7.2077">
        <ele>2160.9</ele>
        <time>2017-08-25T11:21:54Z</time>
      </trkpt>
      <trkpt lat="44.12395" lon="7.20764">
        <ele>2158.2</ele>
        <time>2017-08-25T11:22:09Z</time>
      </trkpt>
      <trkpt lat="44.12401" lon="7.20755">
        <ele>2156.7</ele>
        <time>2017-08-25T11:22:17Z</time>
      </trkpt>
      <trkpt lat="44.12413" lon="7.20746">
        <ele>2154.2</ele>
        <time>2017-08-25T11:22:30Z</time>
      </trkpt>
      <trkpt lat="44.12426" lon="7.20734">
        <ele>2151.5</ele>
        <time>2017-08-25T11:22:45Z</time>
      </trkpt>
      <trkpt lat="44.12439" lon="7.2072">
        <ele>2148.3</ele>
        <time>2017-08-25T11:22:59Z</time>
      </trkpt>
      <trkpt lat="44.12451" lon="7.20713">
        <ele>2146.1</ele>
        <time>2017-08-25T11:23:13Z</time>
      </trkpt>
      <trkpt lat="44.12457" lon="7.2071">
        <ele>2145.1</ele>
        <time>2017-08-25T11:23:18Z</time>
      </trkpt>
      <trkpt lat="44.12459" lon="7.20708">
        <ele>2144.6</ele>
        <time>2017-08-25T11:23:20Z</time>
      </trkpt>
      <trkpt lat="44.12475" lon="7.20695">
        <ele>2141</ele>
        <time>2017-08-25T11:23:37Z</time>
      </trkpt>
      <trkpt lat="44.12476" lon="7.20696">
        <ele>2141.1</ele>
        <time>2017-08-25T11:23:38Z</time>
      </trkpt>
      <trkpt lat="44.12484" lon="7.20689">
        <ele>2140.1</ele>
        <time>2017-08-25T11:23:46Z</time>
      </trkpt>
      <trkpt lat="44.12493" lon="7.20689">
        <ele>2139.6</ele>
        <time>2017-08-25T11:23:55Z</time>
      </trkpt>
      <trkpt lat="44.12506" lon="7.20684">
        <ele>2137.7</ele>
        <time>2017-08-25T11:24:09Z</time>
      </trkpt>
      <trkpt lat="44.12507" lon="7.20684">
        <ele>2137.6</ele>
        <time>2017-08-25T11:24:10Z</time>
      </trkpt>
      <trkpt lat="44.12511" lon="7.20674">
        <ele>2135.3</ele>
        <time>2017-08-25T11:24:17Z</time>
      </trkpt>
      <trkpt lat="44.1251" lon="7.20665">
        <ele>2134.1</ele>
        <time>2017-08-25T11:24:25Z</time>
      </trkpt>
      <trkpt lat="44.12512" lon="7.20666">
        <ele>2133.8</ele>
        <time>2017-08-25T11:24:28Z</time>
      </trkpt>
      <trkpt lat="44.1252" lon="7.20669">
        <ele>2132.9</ele>
        <time>2017-08-25T11:24:39Z</time>
      </trkpt>
      <trkpt lat="44.12534" lon="7.20668">
        <ele>2130</ele>
        <time>2017-08-25T11:24:53Z</time>
      </trkpt>
      <trkpt lat="44.1254" lon="7.20666">
        <ele>2128.2</ele>
        <time>2017-08-25T11:25:00Z</time>
      </trkpt>
      <trkpt lat="44.12544" lon="7.20667">
        <ele>2127.6</ele>
        <time>2017-08-25T11:25:05Z</time>
      </trkpt>
      <trkpt lat="44.12549" lon="7.20667">
        <ele>2126.5</ele>
        <time>2017-08-25T11:25:11Z</time>
      </trkpt>
      <trkpt lat="44.12551" lon="7.20656">
        <ele>2123.5</ele>
        <time>2017-08-25T11:25:24Z</time>
      </trkpt>
      <trkpt lat="44.12552" lon="7.20657">
        <ele>2123.5</ele>
        <time>2017-08-25T11:25:28Z</time>
      </trkpt>
      <trkpt lat="44.1256" lon="7.20664">
        <ele>2123.1</ele>
        <time>2017-08-25T11:25:41Z</time>
      </trkpt>
      <trkpt lat="44.12575" lon="7.20663">
        <ele>2118.6</ele>
        <time>2017-08-25T11:25:56Z</time>
      </trkpt>
      <trkpt lat="44.12586" lon="7.20667">
        <ele>2116.2</ele>
        <time>2017-08-25T11:26:07Z</time>
      </trkpt>
      <trkpt lat="44.12587" lon="7.20659">
        <ele>2114.2</ele>
        <time>2017-08-25T11:26:15Z</time>
      </trkpt>
      <trkpt lat="44.12582" lon="7.20647">
        <ele>2113.1</ele>
        <time>2017-08-25T11:26:28Z</time>
      </trkpt>
      <trkpt lat="44.12576" lon="7.20638">
        <ele>2112.8</ele>
        <time>2017-08-25T11:26:37Z</time>
      </trkpt>
      <trkpt lat="44.12578" lon="7.20641">
        <ele>2112.8</ele>
        <time>2017-08-25T11:26:41Z</time>
      </trkpt>
      <trkpt lat="44.12581" lon="7.20642">
        <ele>2112.3</ele>
        <time>2017-08-25T11:26:46Z</time>
      </trkpt>
      <trkpt lat="44.12591" lon="7.20645">
        <ele>2110.1</ele>
        <time>2017-08-25T11:27:00Z</time>
      </trkpt>
      <trkpt lat="44.12607" lon="7.2064">
        <ele>2104.4</ele>
        <time>2017-08-25T11:27:17Z</time>
      </trkpt>
      <trkpt lat="44.12599" lon="7.20627">
        <ele>2105.2</ele>
        <time>2017-08-25T11:27:29Z</time>
      </trkpt>
      <trkpt lat="44.12599" lon="7.20626">
        <ele>2105.1</ele>
        <time>2017-08-25T11:27:30Z</time>
      </trkpt>
      <trkpt lat="44.12598" lon="7.20614">
        <ele>2104.1</ele>
        <time>2017-08-25T11:27:44Z</time>
      </trkpt>
      <trkpt lat="44.12598" lon="7.20614">
        <ele>2104.1</ele>
        <time>2017-08-25T11:27:45Z</time>
      </trkpt>
      <trkpt lat="44.12603" lon="7.20609">
        <ele>2102.4</ele>
        <time>2017-08-25T11:27:55Z</time>
      </trkpt>
      <trkpt lat="44.12607" lon="7.20602">
        <ele>2101.2</ele>
        <time>2017-08-25T11:28:02Z</time>
      </trkpt>
      <trkpt lat="44.12609" lon="7.20602">
        <ele>2100.6</ele>
        <time>2017-08-25T11:28:05Z</time>
      </trkpt>
      <trkpt lat="44.12619" lon="7.20594">
        <ele>2097.6</ele>
        <time>2017-08-25T11:28:19Z</time>
      </trkpt>
      <trkpt lat="44.12623" lon="7.20594">
        <ele>2096.3</ele>
        <time>2017-08-25T11:28:25Z</time>
      </trkpt>
      <trkpt lat="44.12634" lon="7.20578">
        <ele>2092.6</ele>
        <time>2017-08-25T11:28:36Z</time>
      </trkpt>
      <trkpt lat="44.12639" lon="7.20577">
        <ele>2091</ele>
        <time>2017-08-25T11:28:40Z</time>
      </trkpt>
      <trkpt lat="44.12642" lon="7.20571">
        <ele>2090.2</ele>
        <time>2017-08-25T11:28:45Z</time>
      </trkpt>
      <trkpt lat="44.12646" lon="7.2056">
        <ele>2089</ele>
        <time>2017-08-25T11:28:53Z</time>
      </trkpt>
      <trkpt lat="44.12645" lon="7.20555">
        <ele>2089.3</ele>
        <time>2017-08-25T11:28:58Z</time>
      </trkpt>
      <trkpt lat="44.12652" lon="7.20542">
        <ele>2087.3</ele>
        <time>2017-08-25T11:29:11Z</time>
      </trkpt>
      <trkpt lat="44.12659" lon="7.20538">
        <ele>2084.9</ele>
        <time>2017-08-25T11:29:25Z</time>
      </trkpt>
      <trkpt lat="44.12661" lon="7.20537">
        <ele>2084.2</ele>
        <time>2017-08-25T11:29:27Z</time>
      </trkpt>
      <trkpt lat="44.12672" lon="7.20518">
        <ele>2081.2</ele>
        <time>2017-08-25T11:29:41Z</time>
      </trkpt>
      <trkpt lat="44.12674" lon="7.20518">
        <ele>2080.8</ele>
        <time>2017-08-25T11:29:56Z</time>
      </trkpt>
      <trkpt lat="44.12674" lon="7.20518">
        <ele>2080.8</ele>
        <time>2017-08-25T11:30:24Z</time>
      </trkpt>
      <trkpt lat="44.12678" lon="7.20517">
        <ele>2079.9</ele>
        <time>2017-08-25T11:30:38Z</time>
      </trkpt>
      <trkpt lat="44.12681" lon="7.20517">
        <ele>2079.3</ele>
        <time>2017-08-25T11:30:42Z</time>
      </trkpt>
      <trkpt lat="44.12687" lon="7.20515">
        <ele>2078.1</ele>
        <time>2017-08-25T11:30:48Z</time>
      </trkpt>
      <trkpt lat="44.12696" lon="7.205">
        <ele>2076.8</ele>
        <time>2017-08-25T11:31:02Z</time>
      </trkpt>
      <trkpt lat="44.12706" lon="7.20497">
        <ele>2075.7</ele>
        <time>2017-08-25T11:31:12Z</time>
      </trkpt>
      <trkpt lat="44.12708" lon="7.20497">
        <ele>2075.4</ele>
        <time>2017-08-25T11:31:14Z</time>
      </trkpt>
      <trkpt lat="44.12719" lon="7.20498">
        <ele>2073.7</ele>
        <time>2017-08-25T11:31:24Z</time>
      </trkpt>
      <trkpt lat="44.12726" lon="7.20499">
        <ele>2072.7</ele>
        <time>2017-08-25T11:31:30Z</time>
      </trkpt>
      <trkpt lat="44.12728" lon="7.205">
        <ele>2072.4</ele>
        <time>2017-08-25T11:31:32Z</time>
      </trkpt>
      <trkpt lat="44.12732" lon="7.20504">
        <ele>2071.7</ele>
        <time>2017-08-25T11:31:36Z</time>
      </trkpt>
      <trkpt lat="44.12735" lon="7.20506">
        <ele>2071.2</ele>
        <time>2017-08-25T11:31:39Z</time>
      </trkpt>
      <trkpt lat="44.12751" lon="7.20514">
        <ele>2068.9</ele>
        <time>2017-08-25T11:31:54Z</time>
      </trkpt>
      <trkpt lat="44.12765" lon="7.2051">
        <ele>2067.5</ele>
        <time>2017-08-25T11:32:06Z</time>
      </trkpt>
      <trkpt lat="44.12772" lon="7.20504">
        <ele>2067.2</ele>
        <time>2017-08-25T11:32:14Z</time>
      </trkpt>
      <trkpt lat="44.12784" lon="7.2051">
        <ele>2065.2</ele>
        <time>2017-08-25T11:32:25Z</time>
      </trkpt>
      <trkpt lat="44.12788" lon="7.20509">
        <ele>2064.8</ele>
        <time>2017-08-25T11:32:28Z</time>
      </trkpt>
      <trkpt lat="44.128" lon="7.20507">
        <ele>2063.6</ele>
        <time>2017-08-25T11:32:39Z</time>
      </trkpt>
      <trkpt lat="44.12816" lon="7.20502">
        <ele>2062.2</ele>
        <time>2017-08-25T11:32:53Z</time>
      </trkpt>
      <trkpt lat="44.12818" lon="7.20503">
        <ele>2061.8</ele>
        <time>2017-08-25T11:32:56Z</time>
      </trkpt>
      <trkpt lat="44.12832" lon="7.20504">
        <ele>2059.8</ele>
        <time>2017-08-25T11:33:09Z</time>
      </trkpt>
      <trkpt lat="44.12834" lon="7.20503">
        <ele>2059.6</ele>
        <time>2017-08-25T11:33:11Z</time>
      </trkpt>
      <trkpt lat="44.12846" lon="7.20501">
        <ele>2058.5</ele>
        <time>2017-08-25T11:33:23Z</time>
      </trkpt>
      <trkpt lat="44.12854" lon="7.20498">
        <ele>2058.1</ele>
        <time>2017-08-25T11:33:31Z</time>
      </trkpt>
      <trkpt lat="44.12861" lon="7.20495">
        <ele>2057.7</ele>
        <time>2017-08-25T11:33:45Z</time>
      </trkpt>
      <trkpt lat="44.12864" lon="7.2049">
        <ele>2058</ele>
        <time>2017-08-25T11:33:59Z</time>
      </trkpt>
      <trkpt lat="44.12879" lon="7.20484">
        <ele>2056.4</ele>
        <time>2017-08-25T11:34:11Z</time>
      </trkpt>
      <trkpt lat="44.1288" lon="7.20484">
        <ele>2056.2</ele>
        <time>2017-08-25T11:34:12Z</time>
      </trkpt>
      <trkpt lat="44.12884" lon="7.20484">
        <ele>2055.5</ele>
        <time>2017-08-25T11:34:15Z</time>
      </trkpt>
      <trkpt lat="44.12897" lon="7.2048">
        <ele>2053.1</ele>
        <time>2017-08-25T11:34:26Z</time>
      </trkpt>
      <trkpt lat="44.12907" lon="7.20481">
        <ele>2050.5</ele>
        <time>2017-08-25T11:34:36Z</time>
      </trkpt>
      <trkpt lat="44.12913" lon="7.20481">
        <ele>2049</ele>
        <time>2017-08-25T11:34:43Z</time>
      </trkpt>
      <trkpt lat="44.12917" lon="7.20482">
        <ele>2047.9</ele>
        <time>2017-08-25T11:34:48Z</time>
      </trkpt>
      <trkpt lat="44.12933" lon="7.20473">
        <ele>2046</ele>
        <time>2017-08-25T11:35:04Z</time>
      </trkpt>
      <trkpt lat="44.12946" lon="7.20475">
        <ele>2043.4</ele>
        <time>2017-08-25T11:35:17Z</time>
      </trkpt>
      <trkpt lat="44.12954" lon="7.20478">
        <ele>2041.7</ele>
        <time>2017-08-25T11:35:31Z</time>
      </trkpt>
      <trkpt lat="44.12958" lon="7.20484">
        <ele>2040.1</ele>
        <time>2017-08-25T11:35:37Z</time>
      </trkpt>
      <trkpt lat="44.12964" lon="7.20493">
        <ele>2037.7</ele>
        <time>2017-08-25T11:35:51Z</time>
      </trkpt>
      <trkpt lat="44.12965" lon="7.20495">
        <ele>2037.2</ele>
        <time>2017-08-25T11:35:53Z</time>
      </trkpt>
      <trkpt lat="44.12972" lon="7.20503">
        <ele>2034.8</ele>
        <time>2017-08-25T11:36:03Z</time>
      </trkpt>
      <trkpt lat="44.12987" lon="7.20513">
        <ele>2031.4</ele>
        <time>2017-08-25T11:36:16Z</time>
      </trkpt>
      <trkpt lat="44.13002" lon="7.20512">
        <ele>2028.9</ele>
        <time>2017-08-25T11:36:28Z</time>
      </trkpt>
      <trkpt lat="44.13007" lon="7.20511">
        <ele>2028</ele>
        <time>2017-08-25T11:36:32Z</time>
      </trkpt>
      <trkpt lat="44.13028" lon="7.2051">
        <ele>2023.9</ele>
        <time>2017-08-25T11:36:49Z</time>
      </trkpt>
      <trkpt lat="44.13041" lon="7.20509">
        <ele>2021.6</ele>
        <time>2017-08-25T11:37:01Z</time>
      </trkpt>
      <trkpt lat="44.13047" lon="7.20512">
        <ele>2020.2</ele>
        <time>2017-08-25T11:37:07Z</time>
      </trkpt>
      <trkpt lat="44.13061" lon="7.20519">
        <ele>2017</ele>
        <time>2017-08-25T11:37:20Z</time>
      </trkpt>
      <trkpt lat="44.13073" lon="7.20511">
        <ele>2015.7</ele>
        <time>2017-08-25T11:37:34Z</time>
      </trkpt>
      <trkpt lat="44.13082" lon="7.20504">
        <ele>2014.8</ele>
        <time>2017-08-25T11:37:45Z</time>
      </trkpt>
      <trkpt lat="44.13088" lon="7.20503">
        <ele>2014.2</ele>
        <time>2017-08-25T11:37:49Z</time>
      </trkpt>
      <trkpt lat="44.1309" lon="7.20502">
        <ele>2014</ele>
        <time>2017-08-25T11:37:50Z</time>
      </trkpt>
      <trkpt lat="44.13102" lon="7.20509">
        <ele>2011.8</ele>
        <time>2017-08-25T11:38:04Z</time>
      </trkpt>
      <trkpt lat="44.13103" lon="7.2051">
        <ele>2011.5</ele>
        <time>2017-08-25T11:38:05Z</time>
      </trkpt>
      <trkpt lat="44.13114" lon="7.20513">
        <ele>2010</ele>
        <time>2017-08-25T11:38:16Z</time>
      </trkpt>
      <trkpt lat="44.13126" lon="7.20516">
        <ele>2008.9</ele>
        <time>2017-08-25T11:38:30Z</time>
      </trkpt>
      <trkpt lat="44.13133" lon="7.20503">
        <ele>2010.7</ele>
        <time>2017-08-25T11:38:37Z</time>
      </trkpt>
      <trkpt lat="44.13138" lon="7.20499">
        <ele>2011.2</ele>
        <time>2017-08-25T11:38:48Z</time>
      </trkpt>
      <trkpt lat="44.1314" lon="7.205">
        <ele>2010.9</ele>
        <time>2017-08-25T11:38:50Z</time>
      </trkpt>
      <trkpt lat="44.13144" lon="7.20501">
        <ele>2010.5</ele>
        <time>2017-08-25T11:38:59Z</time>
      </trkpt>
      <trkpt lat="44.13151" lon="7.20503">
        <ele>2009.6</ele>
        <time>2017-08-25T11:39:07Z</time>
      </trkpt>
      <trkpt lat="44.13153" lon="7.20502">
        <ele>2009.6</ele>
        <time>2017-08-25T11:39:09Z</time>
      </trkpt>
      <trkpt lat="44.13168" lon="7.20505">
        <ele>2008</ele>
        <time>2017-08-25T11:39:22Z</time>
      </trkpt>
      <trkpt lat="44.13182" lon="7.2051">
        <ele>2005.5</ele>
        <time>2017-08-25T11:39:35Z</time>
      </trkpt>
      <trkpt lat="44.13198" lon="7.20514">
        <ele>2002.9</ele>
        <time>2017-08-25T11:39:49Z</time>
      </trkpt>
      <trkpt lat="44.13212" lon="7.20515">
        <ele>2000.4</ele>
        <time>2017-08-25T11:40:02Z</time>
      </trkpt>
      <trkpt lat="44.13219" lon="7.20514">
        <ele>1999.5</ele>
        <time>2017-08-25T11:40:09Z</time>
      </trkpt>
      <trkpt lat="44.13226" lon="7.20512">
        <ele>1998.6</ele>
        <time>2017-08-25T11:40:16Z</time>
      </trkpt>
      <trkpt lat="44.13231" lon="7.2051">
        <ele>1997.9</ele>
        <time>2017-08-25T11:40:20Z</time>
      </trkpt>
      <trkpt lat="44.1324" lon="7.20508">
        <ele>1996.4</ele>
        <time>2017-08-25T11:40:27Z</time>
      </trkpt>
      <trkpt lat="44.13257" lon="7.20506">
        <ele>1993.4</ele>
        <time>2017-08-25T11:40:40Z</time>
      </trkpt>
      <trkpt lat="44.1326" lon="7.20508">
        <ele>1992.5</ele>
        <time>2017-08-25T11:40:43Z</time>
      </trkpt>
      <trkpt lat="44.13274" lon="7.20507">
        <ele>1990.2</ele>
        <time>2017-08-25T11:40:56Z</time>
      </trkpt>
      <trkpt lat="44.13284" lon="7.20503">
        <ele>1989.3</ele>
        <time>2017-08-25T11:41:07Z</time>
      </trkpt>
      <trkpt lat="44.1329" lon="7.20498">
        <ele>1989.3</ele>
        <time>2017-08-25T11:41:16Z</time>
      </trkpt>
      <trkpt lat="44.13303" lon="7.20496">
        <ele>1987.5</ele>
        <time>2017-08-25T11:41:28Z</time>
      </trkpt>
      <trkpt lat="44.13309" lon="7.20493">
        <ele>1987.4</ele>
        <time>2017-08-25T11:41:33Z</time>
      </trkpt>
      <trkpt lat="44.13323" lon="7.20494">
        <ele>1985.6</ele>
        <time>2017-08-25T11:41:46Z</time>
      </trkpt>
      <trkpt lat="44.13335" lon="7.20498">
        <ele>1983.3</ele>
        <time>2017-08-25T11:41:59Z</time>
      </trkpt>
      <trkpt lat="44.13346" lon="7.20502">
        <ele>1981.2</ele>
        <time>2017-08-25T11:42:10Z</time>
      </trkpt>
      <trkpt lat="44.13347" lon="7.20504">
        <ele>1980.7</ele>
        <time>2017-08-25T11:42:12Z</time>
      </trkpt>
      <trkpt lat="44.1335" lon="7.20504">
        <ele>1980.3</ele>
        <time>2017-08-25T11:42:14Z</time>
      </trkpt>
      <trkpt lat="44.13354" lon="7.20508">
        <ele>1979</ele>
        <time>2017-08-25T11:42:18Z</time>
      </trkpt>
      <trkpt lat="44.13361" lon="7.20513">
        <ele>1977.2</ele>
        <time>2017-08-25T11:42:26Z</time>
      </trkpt>
      <trkpt lat="44.13363" lon="7.20519">
        <ele>1975.7</ele>
        <time>2017-08-25T11:42:30Z</time>
      </trkpt>
      <trkpt lat="44.13366" lon="7.20522">
        <ele>1974.7</ele>
        <time>2017-08-25T11:42:34Z</time>
      </trkpt>
      <trkpt lat="44.13367" lon="7.20523">
        <ele>1974.4</ele>
        <time>2017-08-25T11:42:35Z</time>
      </trkpt>
      <trkpt lat="44.13379" lon="7.20528">
        <ele>1972</ele>
        <time>2017-08-25T11:42:44Z</time>
      </trkpt>
      <trkpt lat="44.1338" lon="7.20529">
        <ele>1971.8</ele>
        <time>2017-08-25T11:42:46Z</time>
      </trkpt>
      <trkpt lat="44.13384" lon="7.2053">
        <ele>1971.3</ele>
        <time>2017-08-25T11:42:49Z</time>
      </trkpt>
      <trkpt lat="44.13389" lon="7.20533">
        <ele>1970.4</ele>
        <time>2017-08-25T11:42:54Z</time>
      </trkpt>
      <trkpt lat="44.13405" lon="7.20533">
        <ele>1969.2</ele>
        <time>2017-08-25T11:43:09Z</time>
      </trkpt>
      <trkpt lat="44.1341" lon="7.20532">
        <ele>1968.9</ele>
        <time>2017-08-25T11:43:14Z</time>
      </trkpt>
      <trkpt lat="44.13417" lon="7.20533">
        <ele>1968.2</ele>
        <time>2017-08-25T11:43:20Z</time>
      </trkpt>
      <trkpt lat="44.13432" lon="7.20539">
        <ele>1966.6</ele>
        <time>2017-08-25T11:43:34Z</time>
      </trkpt>
      <trkpt lat="44.13443" lon="7.20544">
        <ele>1965.2</ele>
        <time>2017-08-25T11:43:45Z</time>
      </trkpt>
      <trkpt lat="44.13444" lon="7.20543">
        <ele>1965.3</ele>
        <time>2017-08-25T11:43:46Z</time>
      </trkpt>
      <trkpt lat="44.1345" lon="7.20547">
        <ele>1964.5</ele>
        <time>2017-08-25T11:43:51Z</time>
      </trkpt>
      <trkpt lat="44.13454" lon="7.2055">
        <ele>1964</ele>
        <time>2017-08-25T11:43:55Z</time>
      </trkpt>
      <trkpt lat="44.13466" lon="7.20545">
        <ele>1964.9</ele>
        <time>2017-08-25T11:44:08Z</time>
      </trkpt>
      <trkpt lat="44.13465" lon="7.20546">
        <ele>1964.7</ele>
        <time>2017-08-25T11:44:37Z</time>
      </trkpt>
      <trkpt lat="44.13468" lon="7.20546">
        <ele>1964.7</ele>
        <time>2017-08-25T11:44:55Z</time>
      </trkpt>
      <trkpt lat="44.13482" lon="7.20553">
        <ele>1964.5</ele>
        <time>2017-08-25T11:45:08Z</time>
      </trkpt>
      <trkpt lat="44.13494" lon="7.20555">
        <ele>1965.4</ele>
        <time>2017-08-25T11:45:18Z</time>
      </trkpt>
      <trkpt lat="44.13501" lon="7.20558">
        <ele>1965.7</ele>
        <time>2017-08-25T11:45:24Z</time>
      </trkpt>
      <trkpt lat="44.13511" lon="7.20564">
        <ele>1965.2</ele>
        <time>2017-08-25T11:45:34Z</time>
      </trkpt>
      <trkpt lat="44.13513" lon="7.20566">
        <ele>1965</ele>
        <time>2017-08-25T11:45:36Z</time>
      </trkpt>
      <trkpt lat="44.13518" lon="7.20568">
        <ele>1964.9</ele>
        <time>2017-08-25T11:45:40Z</time>
      </trkpt>
      <trkpt lat="44.13523" lon="7.20571">
        <ele>1964.8</ele>
        <time>2017-08-25T11:45:45Z</time>
      </trkpt>
      <trkpt lat="44.13533" lon="7.20576">
        <ele>1964.5</ele>
        <time>2017-08-25T11:45:55Z</time>
      </trkpt>
      <trkpt lat="44.13549" lon="7.2059">
        <ele>1963.5</ele>
        <time>2017-08-25T11:46:12Z</time>
      </trkpt>
      <trkpt lat="44.13559" lon="7.20603">
        <ele>1962.6</ele>
        <time>2017-08-25T11:46:25Z</time>
      </trkpt>
      <trkpt lat="44.13574" lon="7.20608">
        <ele>1962.2</ele>
        <time>2017-08-25T11:46:38Z</time>
      </trkpt>
      <trkpt lat="44.13584" lon="7.20622">
        <ele>1960.8</ele>
        <time>2017-08-25T11:46:51Z</time>
      </trkpt>
      <trkpt lat="44.1359" lon="7.20626">
        <ele>1959.9</ele>
        <time>2017-08-25T11:46:57Z</time>
      </trkpt>
      <trkpt lat="44.13602" lon="7.20642">
        <ele>1957.2</ele>
        <time>2017-08-25T11:47:11Z</time>
      </trkpt>
      <trkpt lat="44.13617" lon="7.20648">
        <ele>1955</ele>
        <time>2017-08-25T11:47:24Z</time>
      </trkpt>
      <trkpt lat="44.13623" lon="7.20656">
        <ele>1953</ele>
        <time>2017-08-25T11:47:31Z</time>
      </trkpt>
      <trkpt lat="44.13636" lon="7.20668">
        <ele>1949.1</ele>
        <time>2017-08-25T11:47:45Z</time>
      </trkpt>
      <trkpt lat="44.13644" lon="7.20681">
        <ele>1945.5</ele>
        <time>2017-08-25T11:47:55Z</time>
      </trkpt>
      <trkpt lat="44.13657" lon="7.20692">
        <ele>1942.7</ele>
        <time>2017-08-25T11:48:09Z</time>
      </trkpt>
      <trkpt lat="44.1366" lon="7.20692">
        <ele>1942.6</ele>
        <time>2017-08-25T11:48:13Z</time>
      </trkpt>
      <trkpt lat="44.13672" lon="7.20693">
        <ele>1941.6</ele>
        <time>2017-08-25T11:48:24Z</time>
      </trkpt>
      <trkpt lat="44.1369" lon="7.20697">
        <ele>1939.3</ele>
        <time>2017-08-25T11:48:39Z</time>
      </trkpt>
      <trkpt lat="44.13692" lon="7.20697">
        <ele>1939.1</ele>
        <time>2017-08-25T11:48:40Z</time>
      </trkpt>
      <trkpt lat="44.13704" lon="7.20705">
        <ele>1936.7</ele>
        <time>2017-08-25T11:48:54Z</time>
      </trkpt>
      <trkpt lat="44.13711" lon="7.20708">
        <ele>1935.3</ele>
        <time>2017-08-25T11:49:01Z</time>
      </trkpt>
      <trkpt lat="44.13728" lon="7.20711">
        <ele>1932.2</ele>
        <time>2017-08-25T11:49:15Z</time>
      </trkpt>
      <trkpt lat="44.13731" lon="7.20713">
        <ele>1931.5</ele>
        <time>2017-08-25T11:49:18Z</time>
      </trkpt>
      <trkpt lat="44.13736" lon="7.20714">
        <ele>1930.5</ele>
        <time>2017-08-25T11:49:23Z</time>
      </trkpt>
      <trkpt lat="44.13742" lon="7.20716">
        <ele>1929.1</ele>
        <time>2017-08-25T11:49:29Z</time>
      </trkpt>
      <trkpt lat="44.13748" lon="7.20715">
        <ele>1927.9</ele>
        <time>2017-08-25T11:49:34Z</time>
      </trkpt>
      <trkpt lat="44.13758" lon="7.20722">
        <ele>1924.7</ele>
        <time>2017-08-25T11:49:45Z</time>
      </trkpt>
      <trkpt lat="44.13762" lon="7.20724">
        <ele>1923.5</ele>
        <time>2017-08-25T11:49:50Z</time>
      </trkpt>
      <trkpt lat="44.13767" lon="7.20726">
        <ele>1922.1</ele>
        <time>2017-08-25T11:49:56Z</time>
      </trkpt>
      <trkpt lat="44.13763" lon="7.20731">
        <ele>1923.3</ele>
        <time>2017-08-25T11:50:06Z</time>
      </trkpt>
      <trkpt lat="44.1376" lon="7.20732">
        <ele>1924.1</ele>
        <time>2017-08-25T11:50:09Z</time>
      </trkpt>
      <trkpt lat="44.13759" lon="7.20743">
        <ele>1924.4</ele>
        <time>2017-08-25T11:50:17Z</time>
      </trkpt>
      <trkpt lat="44.13761" lon="7.20747">
        <ele>1923.8</ele>
        <time>2017-08-25T11:50:19Z</time>
      </trkpt>
      <trkpt lat="44.13766" lon="7.20762">
        <ele>1922.5</ele>
        <time>2017-08-25T11:50:29Z</time>
      </trkpt>
      <trkpt lat="44.13771" lon="7.2077">
        <ele>1921.3</ele>
        <time>2017-08-25T11:50:37Z</time>
      </trkpt>
      <trkpt lat="44.13786" lon="7.20776">
        <ele>1917.5</ele>
        <time>2017-08-25T11:50:50Z</time>
      </trkpt>
      <trkpt lat="44.13798" lon="7.2078">
        <ele>1914.5</ele>
        <time>2017-08-25T11:51:05Z</time>
      </trkpt>
      <trkpt lat="44.13798" lon="7.2078">
        <ele>1914.5</ele>
        <time>2017-08-25T11:51:06Z</time>
      </trkpt>
      <trkpt lat="44.13801" lon="7.20782">
        <ele>1913.9</ele>
        <time>2017-08-25T11:51:09Z</time>
      </trkpt>
      <trkpt lat="44.13811" lon="7.20789">
        <ele>1911.7</ele>
        <time>2017-08-25T11:51:18Z</time>
      </trkpt>
      <trkpt lat="44.13814" lon="7.20794">
        <ele>1911.5</ele>
        <time>2017-08-25T11:51:22Z</time>
      </trkpt>
      <trkpt lat="44.13827" lon="7.20805">
        <ele>1909</ele>
        <time>2017-08-25T11:51:37Z</time>
      </trkpt>
      <trkpt lat="44.13836" lon="7.20818">
        <ele>1908.3</ele>
        <time>2017-08-25T11:51:48Z</time>
      </trkpt>
      <trkpt lat="44.13843" lon="7.20826">
        <ele>1907.3</ele>
        <time>2017-08-25T11:51:56Z</time>
      </trkpt>
      <trkpt lat="44.13856" lon="7.20832">
        <ele>1903.6</ele>
        <time>2017-08-25T11:52:09Z</time>
      </trkpt>
      <trkpt lat="44.13863" lon="7.20826">
        <ele>1900.3</ele>
        <time>2017-08-25T11:52:14Z</time>
      </trkpt>
      <trkpt lat="44.13871" lon="7.2081">
        <ele>1895.1</ele>
        <time>2017-08-25T11:52:23Z</time>
      </trkpt>
      <trkpt lat="44.1387" lon="7.20804">
        <ele>1894.4</ele>
        <time>2017-08-25T11:52:38Z</time>
      </trkpt>
      <trkpt lat="44.13872" lon="7.20805">
        <ele>1893.9</ele>
        <time>2017-08-25T11:52:55Z</time>
      </trkpt>
      <trkpt lat="44.13871" lon="7.20809">
        <ele>1895</ele>
        <time>2017-08-25T11:52:59Z</time>
      </trkpt>
      <trkpt lat="44.13874" lon="7.20828">
        <ele>1897</ele>
        <time>2017-08-25T11:53:14Z</time>
      </trkpt>
      <trkpt lat="44.13885" lon="7.20842">
        <ele>1895.6</ele>
        <time>2017-08-25T11:53:28Z</time>
      </trkpt>
      <trkpt lat="44.13897" lon="7.20859">
        <ele>1893.8</ele>
        <time>2017-08-25T11:53:41Z</time>
      </trkpt>
      <trkpt lat="44.13903" lon="7.20873">
        <ele>1894.1</ele>
        <time>2017-08-25T11:53:53Z</time>
      </trkpt>
      <trkpt lat="44.13908" lon="7.20886">
        <ele>1894.6</ele>
        <time>2017-08-25T11:54:04Z</time>
      </trkpt>
      <trkpt lat="44.13913" lon="7.209">
        <ele>1895.3</ele>
        <time>2017-08-25T11:54:16Z</time>
      </trkpt>
      <trkpt lat="44.13918" lon="7.2091">
        <ele>1895.2</ele>
        <time>2017-08-25T11:54:26Z</time>
      </trkpt>
      <trkpt lat="44.13921" lon="7.20917">
        <ele>1895.2</ele>
        <time>2017-08-25T11:54:32Z</time>
      </trkpt>
      <trkpt lat="44.13927" lon="7.20929">
        <ele>1894.8</ele>
        <time>2017-08-25T11:54:44Z</time>
      </trkpt>
      <trkpt lat="44.13937" lon="7.20943">
        <ele>1893</ele>
        <time>2017-08-25T11:54:56Z</time>
      </trkpt>
      <trkpt lat="44.13948" lon="7.20956">
        <ele>1891.1</ele>
        <time>2017-08-25T11:55:11Z</time>
      </trkpt>
      <trkpt lat="44.13953" lon="7.2096">
        <ele>1890.1</ele>
        <time>2017-08-25T11:55:19Z</time>
      </trkpt>
      <trkpt lat="44.13957" lon="7.2097">
        <ele>1891</ele>
        <time>2017-08-25T11:55:31Z</time>
      </trkpt>
      <trkpt lat="44.1396" lon="7.20977">
        <ele>1891.5</ele>
        <time>2017-08-25T11:55:43Z</time>
      </trkpt>
      <trkpt lat="44.13966" lon="7.20982">
        <ele>1890.6</ele>
        <time>2017-08-25T11:55:56Z</time>
      </trkpt>
      <trkpt lat="44.13973" lon="7.20992">
        <ele>1890.7</ele>
        <time>2017-08-25T11:56:10Z</time>
      </trkpt>
      <trkpt lat="44.13987" lon="7.20999">
        <ele>1888</ele>
        <time>2017-08-25T11:56:21Z</time>
      </trkpt>
      <trkpt lat="44.13993" lon="7.21004">
        <ele>1887</ele>
        <time>2017-08-25T11:56:27Z</time>
      </trkpt>
      <trkpt lat="44.14007" lon="7.21016">
        <ele>1884.6</ele>
        <time>2017-08-25T11:56:42Z</time>
      </trkpt>
      <trkpt lat="44.14014" lon="7.2102">
        <ele>1883.1</ele>
        <time>2017-08-25T11:56:53Z</time>
      </trkpt>
      <trkpt lat="44.14029" lon="7.2102">
        <ele>1878.1</ele>
        <time>2017-08-25T11:57:06Z</time>
      </trkpt>
      <trkpt lat="44.14042" lon="7.21021">
        <ele>1872.6</ele>
        <time>2017-08-25T11:57:20Z</time>
      </trkpt>
      <trkpt lat="44.14044" lon="7.21021">
        <ele>1871.8</ele>
        <time>2017-08-25T11:57:22Z</time>
      </trkpt>
      <trkpt lat="44.14054" lon="7.21014">
        <ele>1866.2</ele>
        <time>2017-08-25T11:57:30Z</time>
      </trkpt>
      <trkpt lat="44.14056" lon="7.21018">
        <ele>1866</ele>
        <time>2017-08-25T11:57:36Z</time>
      </trkpt>
      <trkpt lat="44.14059" lon="7.21026">
        <ele>1865.9</ele>
        <time>2017-08-25T11:57:49Z</time>
      </trkpt>
      <trkpt lat="44.14064" lon="7.21036">
        <ele>1864.8</ele>
        <time>2017-08-25T11:58:03Z</time>
      </trkpt>
      <trkpt lat="44.1407" lon="7.21045">
        <ele>1862.9</ele>
        <time>2017-08-25T11:58:15Z</time>
      </trkpt>
      <trkpt lat="44.14074" lon="7.21048">
        <ele>1861.1</ele>
        <time>2017-08-25T11:58:19Z</time>
      </trkpt>
      <trkpt lat="44.14086" lon="7.21063">
        <ele>1856.6</ele>
        <time>2017-08-25T11:58:34Z</time>
      </trkpt>
      <trkpt lat="44.14092" lon="7.21075">
        <ele>1855</ele>
        <time>2017-08-25T11:58:46Z</time>
      </trkpt>
      <trkpt lat="44.14094" lon="7.21089">
        <ele>1855.4</ele>
        <time>2017-08-25T11:58:58Z</time>
      </trkpt>
      <trkpt lat="44.141" lon="7.2111">
        <ele>1854.1</ele>
        <time>2017-08-25T11:59:12Z</time>
      </trkpt>
      <trkpt lat="44.14103" lon="7.21129">
        <ele>1853.9</ele>
        <time>2017-08-25T11:59:25Z</time>
      </trkpt>
      <trkpt lat="44.14104" lon="7.2113">
        <ele>1853.5</ele>
        <time>2017-08-25T11:59:27Z</time>
      </trkpt>
      <trkpt lat="44.14107" lon="7.21145">
        <ele>1853</ele>
        <time>2017-08-25T11:59:38Z</time>
      </trkpt>
      <trkpt lat="44.14112" lon="7.21153">
        <ele>1851.3</ele>
        <time>2017-08-25T11:59:50Z</time>
      </trkpt>
      <trkpt lat="44.14122" lon="7.21162">
        <ele>1849</ele>
        <time>2017-08-25T12:00:04Z</time>
      </trkpt>
      <trkpt lat="44.14131" lon="7.21168">
        <ele>1847</ele>
        <time>2017-08-25T12:00:17Z</time>
      </trkpt>
      <trkpt lat="44.14135" lon="7.2118">
        <ele>1845.6</ele>
        <time>2017-08-25T12:00:23Z</time>
      </trkpt>
      <trkpt lat="44.14136" lon="7.21182">
        <ele>1845.2</ele>
        <time>2017-08-25T12:00:26Z</time>
      </trkpt>
      <trkpt lat="44.14138" lon="7.21187">
        <ele>1844.5</ele>
        <time>2017-08-25T12:00:31Z</time>
      </trkpt>
      <trkpt lat="44.14141" lon="7.21193">
        <ele>1843.8</ele>
        <time>2017-08-25T12:00:36Z</time>
      </trkpt>
      <trkpt lat="44.14145" lon="7.21203">
        <ele>1843</ele>
        <time>2017-08-25T12:00:43Z</time>
      </trkpt>
      <trkpt lat="44.14149" lon="7.21207">
        <ele>1842.5</ele>
        <time>2017-08-25T12:00:47Z</time>
      </trkpt>
      <trkpt lat="44.14153" lon="7.21223">
        <ele>1841.4</ele>
        <time>2017-08-25T12:00:59Z</time>
      </trkpt>
      <trkpt lat="44.14154" lon="7.21231">
        <ele>1841</ele>
        <time>2017-08-25T12:01:05Z</time>
      </trkpt>
      <trkpt lat="44.14155" lon="7.2124">
        <ele>1840.5</ele>
        <time>2017-08-25T12:01:13Z</time>
      </trkpt>
      <trkpt lat="44.14164" lon="7.21257">
        <ele>1838.5</ele>
        <time>2017-08-25T12:01:25Z</time>
      </trkpt>
      <trkpt lat="44.14166" lon="7.21263">
        <ele>1838.1</ele>
        <time>2017-08-25T12:01:29Z</time>
      </trkpt>
      <trkpt lat="44.14172" lon="7.21279">
        <ele>1837.3</ele>
        <time>2017-08-25T12:01:39Z</time>
      </trkpt>
      <trkpt lat="44.14178" lon="7.21283">
        <ele>1836.6</ele>
        <time>2017-08-25T12:01:52Z</time>
      </trkpt>
      <trkpt lat="44.14178" lon="7.21285">
        <ele>1836.6</ele>
        <time>2017-08-25T12:01:58Z</time>
      </trkpt>
      <trkpt lat="44.14177" lon="7.21287">
        <ele>1836.8</ele>
        <time>2017-08-25T12:02:01Z</time>
      </trkpt>
      <trkpt lat="44.14178" lon="7.21306">
        <ele>1837.4</ele>
        <time>2017-08-25T12:02:14Z</time>
      </trkpt>
      <trkpt lat="44.14177" lon="7.2133">
        <ele>1838.2</ele>
        <time>2017-08-25T12:02:30Z</time>
      </trkpt>
      <trkpt lat="44.14177" lon="7.21336">
        <ele>1838.3</ele>
        <time>2017-08-25T12:02:35Z</time>
      </trkpt>
      <trkpt lat="44.14177" lon="7.21363">
        <ele>1838.7</ele>
        <time>2017-08-25T12:02:52Z</time>
      </trkpt>
      <trkpt lat="44.14174" lon="7.21386">
        <ele>1839.6</ele>
        <time>2017-08-25T12:03:08Z</time>
      </trkpt>
      <trkpt lat="44.1417" lon="7.21405">
        <ele>1839.9</ele>
        <time>2017-08-25T12:03:23Z</time>
      </trkpt>
      <trkpt lat="44.14169" lon="7.21406">
        <ele>1840</ele>
        <time>2017-08-25T12:03:25Z</time>
      </trkpt>
      <trkpt lat="44.14157" lon="7.2142">
        <ele>1841.5</ele>
        <time>2017-08-25T12:03:41Z</time>
      </trkpt>
      <trkpt lat="44.14147" lon="7.21435">
        <ele>1843</ele>
        <time>2017-08-25T12:03:54Z</time>
      </trkpt>
      <trkpt lat="44.14147" lon="7.21436">
        <ele>1843</ele>
        <time>2017-08-25T12:03:55Z</time>
      </trkpt>
      <trkpt lat="44.14141" lon="7.21453">
        <ele>1843.8</ele>
        <time>2017-08-25T12:04:07Z</time>
      </trkpt>
      <trkpt lat="44.14135" lon="7.21461">
        <ele>1844.7</ele>
        <time>2017-08-25T12:04:22Z</time>
      </trkpt>
      <trkpt lat="44.14136" lon="7.21461">
        <ele>1844.5</ele>
        <time>2017-08-25T12:04:47Z</time>
      </trkpt>
      <trkpt lat="44.14136" lon="7.21461">
        <ele>1844.5</ele>
        <time>2017-08-25T12:05:10Z</time>
      </trkpt>
      <trkpt lat="44.14136" lon="7.21461">
        <ele>1844.5</ele>
        <time>2017-08-25T12:05:33Z</time>
      </trkpt>
      <trkpt lat="44.14134" lon="7.21466">
        <ele>1844.8</ele>
        <time>2017-08-25T12:05:53Z</time>
      </trkpt>
      <trkpt lat="44.14133" lon="7.21487">
        <ele>1844.8</ele>
        <time>2017-08-25T12:06:06Z</time>
      </trkpt>
      <trkpt lat="44.14131" lon="7.21505">
        <ele>1845.3</ele>
        <time>2017-08-25T12:06:17Z</time>
      </trkpt>
      <trkpt lat="44.14131" lon="7.21525">
        <ele>1846</ele>
        <time>2017-08-25T12:06:32Z</time>
      </trkpt>
      <trkpt lat="44.14131" lon="7.21535">
        <ele>1846.5</ele>
        <time>2017-08-25T12:06:38Z</time>
      </trkpt>
      <trkpt lat="44.14133" lon="7.21547">
        <ele>1846.7</ele>
        <time>2017-08-25T12:06:46Z</time>
      </trkpt>
      <trkpt lat="44.14138" lon="7.21556">
        <ele>1846.2</ele>
        <time>2017-08-25T12:06:51Z</time>
      </trkpt>
      <trkpt lat="44.14138" lon="7.21573">
        <ele>1847.4</ele>
        <time>2017-08-25T12:07:05Z</time>
      </trkpt>
      <trkpt lat="44.14133" lon="7.21577">
        <ele>1848.8</ele>
        <time>2017-08-25T12:07:16Z</time>
      </trkpt>
      <trkpt lat="44.14133" lon="7.21595">
        <ele>1850.1</ele>
        <time>2017-08-25T12:07:28Z</time>
      </trkpt>
      <trkpt lat="44.14135" lon="7.21605">
        <ele>1850.4</ele>
        <time>2017-08-25T12:07:39Z</time>
      </trkpt>
      <trkpt lat="44.14134" lon="7.21627">
        <ele>1852.1</ele>
        <time>2017-08-25T12:07:53Z</time>
      </trkpt>
      <trkpt lat="44.14134" lon="7.21628">
        <ele>1852.2</ele>
        <time>2017-08-25T12:07:54Z</time>
      </trkpt>
      <trkpt lat="44.14127" lon="7.21643">
        <ele>1854.4</ele>
        <time>2017-08-25T12:08:07Z</time>
      </trkpt>
      <trkpt lat="44.14122" lon="7.21654">
        <ele>1855.9</ele>
        <time>2017-08-25T12:08:19Z</time>
      </trkpt>
      <trkpt lat="44.14121" lon="7.21666">
        <ele>1856.8</ele>
        <time>2017-08-25T12:08:27Z</time>
      </trkpt>
      <trkpt lat="44.14113" lon="7.21677">
        <ele>1859</ele>
        <time>2017-08-25T12:08:41Z</time>
      </trkpt>
      <trkpt lat="44.14111" lon="7.21685">
        <ele>1859.7</ele>
        <time>2017-08-25T12:08:54Z</time>
      </trkpt>
      <trkpt lat="44.14108" lon="7.21695">
        <ele>1860.9</ele>
        <time>2017-08-25T12:09:10Z</time>
      </trkpt>
      <trkpt lat="44.14105" lon="7.21711">
        <ele>1862.4</ele>
        <time>2017-08-25T12:09:23Z</time>
      </trkpt>
      <trkpt lat="44.14105" lon="7.21732">
        <ele>1863.1</ele>
        <time>2017-08-25T12:09:35Z</time>
      </trkpt>
      <trkpt lat="44.14105" lon="7.21754">
        <ele>1864</ele>
        <time>2017-08-25T12:09:49Z</time>
      </trkpt>
      <trkpt lat="44.14098" lon="7.21772">
        <ele>1867.4</ele>
        <time>2017-08-25T12:10:05Z</time>
      </trkpt>
      <trkpt lat="44.14096" lon="7.21786">
        <ele>1868.8</ele>
        <time>2017-08-25T12:10:13Z</time>
      </trkpt>
      <trkpt lat="44.14097" lon="7.21806">
        <ele>1869.6</ele>
        <time>2017-08-25T12:10:25Z</time>
      </trkpt>
      <trkpt lat="44.14095" lon="7.21834">
        <ele>1870.8</ele>
        <time>2017-08-25T12:10:41Z</time>
      </trkpt>
      <trkpt lat="44.14092" lon="7.21858">
        <ele>1872.8</ele>
        <time>2017-08-25T12:10:56Z</time>
      </trkpt>
      <trkpt lat="44.14087" lon="7.21879">
        <ele>1874.7</ele>
        <time>2017-08-25T12:11:13Z</time>
      </trkpt>
      <trkpt lat="44.1408" lon="7.21894">
        <ele>1877.4</ele>
        <time>2017-08-25T12:11:27Z</time>
      </trkpt>
      <trkpt lat="44.14074" lon="7.21911">
        <ele>1879.8</ele>
        <time>2017-08-25T12:11:42Z</time>
      </trkpt>
      <trkpt lat="44.14069" lon="7.21929">
        <ele>1881.2</ele>
        <time>2017-08-25T12:11:55Z</time>
      </trkpt>
      <trkpt lat="44.14062" lon="7.21946">
        <ele>1883.3</ele>
        <time>2017-08-25T12:12:08Z</time>
      </trkpt>
      <trkpt lat="44.14058" lon="7.2197">
        <ele>1883.3</ele>
        <time>2017-08-25T12:12:22Z</time>
      </trkpt>
      <trkpt lat="44.14054" lon="7.21992">
        <ele>1883.9</ele>
        <time>2017-08-25T12:12:35Z</time>
      </trkpt>
      <trkpt lat="44.14051" lon="7.22011">
        <ele>1884.7</ele>
        <time>2017-08-25T12:12:47Z</time>
      </trkpt>
      <trkpt lat="44.14049" lon="7.2202">
        <ele>1885.4</ele>
        <time>2017-08-25T12:12:52Z</time>
      </trkpt>
      <trkpt lat="44.1405" lon="7.22045">
        <ele>1885.5</ele>
        <time>2017-08-25T12:13:06Z</time>
      </trkpt>
      <trkpt lat="44.14052" lon="7.22068">
        <ele>1885.6</ele>
        <time>2017-08-25T12:13:20Z</time>
      </trkpt>
      <trkpt lat="44.14054" lon="7.22088">
        <ele>1885.8</ele>
        <time>2017-08-25T12:13:33Z</time>
      </trkpt>
      <trkpt lat="44.14054" lon="7.22106">
        <ele>1887.1</ele>
        <time>2017-08-25T12:13:46Z</time>
      </trkpt>
      <trkpt lat="44.14052" lon="7.2211">
        <ele>1887.9</ele>
        <time>2017-08-25T12:13:50Z</time>
      </trkpt>
      <trkpt lat="44.14042" lon="7.22128">
        <ele>1891.5</ele>
        <time>2017-08-25T12:14:05Z</time>
      </trkpt>
      <trkpt lat="44.14035" lon="7.22141">
        <ele>1893.5</ele>
        <time>2017-08-25T12:14:18Z</time>
      </trkpt>
      <trkpt lat="44.14032" lon="7.22163">
        <ele>1895.1</ele>
        <time>2017-08-25T12:14:30Z</time>
      </trkpt>
      <trkpt lat="44.1403" lon="7.22188">
        <ele>1897.2</ele>
        <time>2017-08-25T12:14:43Z</time>
      </trkpt>
      <trkpt lat="44.14031" lon="7.22187">
        <ele>1897</ele>
        <time>2017-08-25T12:14:47Z</time>
      </trkpt>
      <trkpt lat="44.14033" lon="7.22182">
        <ele>1896.3</ele>
        <time>2017-08-25T12:14:50Z</time>
      </trkpt>
      <trkpt lat="44.14034" lon="7.22175">
        <ele>1895.5</ele>
        <time>2017-08-25T12:14:56Z</time>
      </trkpt>
      <trkpt lat="44.14023" lon="7.22186">
        <ele>1898.5</ele>
        <time>2017-08-25T12:15:08Z</time>
      </trkpt>
      <trkpt lat="44.14016" lon="7.222">
        <ele>1900.9</ele>
        <time>2017-08-25T12:15:21Z</time>
      </trkpt>
      <trkpt lat="44.14011" lon="7.22213">
        <ele>1903</ele>
        <time>2017-08-25T12:15:32Z</time>
      </trkpt>
      <trkpt lat="44.1401" lon="7.22246">
        <ele>1905.9</ele>
        <time>2017-08-25T12:15:46Z</time>
      </trkpt>
      <trkpt lat="44.14013" lon="7.22277">
        <ele>1908.6</ele>
        <time>2017-08-25T12:16:01Z</time>
      </trkpt>
      <trkpt lat="44.14014" lon="7.22286">
        <ele>1909.1</ele>
        <time>2017-08-25T12:16:06Z</time>
      </trkpt>
      <trkpt lat="44.14024" lon="7.22302">
        <ele>1908.4</ele>
        <time>2017-08-25T12:16:22Z</time>
      </trkpt>
      <trkpt lat="44.14036" lon="7.22326">
        <ele>1909.6</ele>
        <time>2017-08-25T12:16:39Z</time>
      </trkpt>
      <trkpt lat="44.14045" lon="7.22349">
        <ele>1911.5</ele>
        <time>2017-08-25T12:16:55Z</time>
      </trkpt>
      <trkpt lat="44.14061" lon="7.22365">
        <ele>1912</ele>
        <time>2017-08-25T12:17:13Z</time>
      </trkpt>
      <trkpt lat="44.14071" lon="7.22382">
        <ele>1913.1</ele>
        <time>2017-08-25T12:17:28Z</time>
      </trkpt>
      <trkpt lat="44.14083" lon="7.22406">
        <ele>1914.9</ele>
        <time>2017-08-25T12:17:46Z</time>
      </trkpt>
      <trkpt lat="44.14084" lon="7.22407">
        <ele>1914.9</ele>
        <time>2017-08-25T12:17:47Z</time>
      </trkpt>
      <trkpt lat="44.14092" lon="7.22428">
        <ele>1915.8</ele>
        <time>2017-08-25T12:18:01Z</time>
      </trkpt>
      <trkpt lat="44.14093" lon="7.22434">
        <ele>1916</ele>
        <time>2017-08-25T12:18:04Z</time>
      </trkpt>
      <trkpt lat="44.14097" lon="7.22455">
        <ele>1916.4</ele>
        <time>2017-08-25T12:18:21Z</time>
      </trkpt>
      <trkpt lat="44.14096" lon="7.22464">
        <ele>1916.9</ele>
        <time>2017-08-25T12:18:28Z</time>
      </trkpt>
      <trkpt lat="44.14095" lon="7.22475">
        <ele>1917.5</ele>
        <time>2017-08-25T12:18:41Z</time>
      </trkpt>
      <trkpt lat="44.14094" lon="7.22478">
        <ele>1917.9</ele>
        <time>2017-08-25T12:18:43Z</time>
      </trkpt>
      <trkpt lat="44.14085" lon="7.22497">
        <ele>1920.5</ele>
        <time>2017-08-25T12:18:59Z</time>
      </trkpt>
      <trkpt lat="44.14084" lon="7.22498">
        <ele>1920.8</ele>
        <time>2017-08-25T12:19:00Z</time>
      </trkpt>
      <trkpt lat="44.14083" lon="7.22507">
        <ele>1921</ele>
        <time>2017-08-25T12:19:05Z</time>
      </trkpt>
      <trkpt lat="44.14073" lon="7.22525">
        <ele>1922.1</ele>
        <time>2017-08-25T12:19:23Z</time>
      </trkpt>
      <trkpt lat="44.14069" lon="7.22544">
        <ele>1922.8</ele>
        <time>2017-08-25T12:19:37Z</time>
      </trkpt>
      <trkpt lat="44.14067" lon="7.22564">
        <ele>1923.5</ele>
        <time>2017-08-25T12:19:49Z</time>
      </trkpt>
      <trkpt lat="44.14067" lon="7.2258">
        <ele>1924.1</ele>
        <time>2017-08-25T12:20:00Z</time>
      </trkpt>
      <trkpt lat="44.14065" lon="7.22605">
        <ele>1925.1</ele>
        <time>2017-08-25T12:20:14Z</time>
      </trkpt>
      <trkpt lat="44.14066" lon="7.22632">
        <ele>1926.5</ele>
        <time>2017-08-25T12:20:28Z</time>
      </trkpt>
      <trkpt lat="44.14066" lon="7.2266">
        <ele>1927.9</ele>
        <time>2017-08-25T12:20:45Z</time>
      </trkpt>
      <trkpt lat="44.14066" lon="7.22661">
        <ele>1928</ele>
        <time>2017-08-25T12:20:46Z</time>
      </trkpt>
      <trkpt lat="44.14067" lon="7.2268">
        <ele>1928.7</ele>
        <time>2017-08-25T12:20:57Z</time>
      </trkpt>
      <trkpt lat="44.14065" lon="7.22707">
        <ele>1929.9</ele>
        <time>2017-08-25T12:21:16Z</time>
      </trkpt>
      <trkpt lat="44.14062" lon="7.22729">
        <ele>1931.3</ele>
        <time>2017-08-25T12:21:32Z</time>
      </trkpt>
      <trkpt lat="44.14057" lon="7.22749">
        <ele>1932.9</ele>
        <time>2017-08-25T12:21:44Z</time>
      </trkpt>
      <trkpt lat="44.14055" lon="7.22772">
        <ele>1935.5</ele>
        <time>2017-08-25T12:21:58Z</time>
      </trkpt>
      <trkpt lat="44.14057" lon="7.22803">
        <ele>1938.7</ele>
        <time>2017-08-25T12:22:13Z</time>
      </trkpt>
      <trkpt lat="44.14058" lon="7.22804">
        <ele>1938.7</ele>
        <time>2017-08-25T12:22:14Z</time>
      </trkpt>
      <trkpt lat="44.14062" lon="7.22827">
        <ele>1941.1</ele>
        <time>2017-08-25T12:22:27Z</time>
      </trkpt>
      <trkpt lat="44.14066" lon="7.22835">
        <ele>1941.8</ele>
        <time>2017-08-25T12:22:33Z</time>
      </trkpt>
      <trkpt lat="44.14071" lon="7.22856">
        <ele>1944.3</ele>
        <time>2017-08-25T12:22:47Z</time>
      </trkpt>
      <trkpt lat="44.14079" lon="7.22877">
        <ele>1946</ele>
        <time>2017-08-25T12:23:03Z</time>
      </trkpt>
      <trkpt lat="44.14086" lon="7.22898">
        <ele>1947.9</ele>
        <time>2017-08-25T12:23:19Z</time>
      </trkpt>
      <trkpt lat="44.14094" lon="7.22919">
        <ele>1949.8</ele>
        <time>2017-08-25T12:23:34Z</time>
      </trkpt>
      <trkpt lat="44.14104" lon="7.22939">
        <ele>1951.1</ele>
        <time>2017-08-25T12:23:48Z</time>
      </trkpt>
      <trkpt lat="44.14107" lon="7.22943">
        <ele>1951.2</ele>
        <time>2017-08-25T12:23:52Z</time>
      </trkpt>
      <trkpt lat="44.14111" lon="7.2295">
        <ele>1951.6</ele>
        <time>2017-08-25T12:23:58Z</time>
      </trkpt>
      <trkpt lat="44.14111" lon="7.22962">
        <ele>1952.9</ele>
        <time>2017-08-25T12:24:11Z</time>
      </trkpt>
      <trkpt lat="44.14117" lon="7.2299">
        <ele>1954.4</ele>
        <time>2017-08-25T12:24:29Z</time>
      </trkpt>
      <trkpt lat="44.14119" lon="7.22998">
        <ele>1954.5</ele>
        <time>2017-08-25T12:24:36Z</time>
      </trkpt>
      <trkpt lat="44.14119" lon="7.23006">
        <ele>1954.8</ele>
        <time>2017-08-25T12:24:41Z</time>
      </trkpt>
      <trkpt lat="44.14124" lon="7.23027">
        <ele>1954.7</ele>
        <time>2017-08-25T12:24:58Z</time>
      </trkpt>
      <trkpt lat="44.14123" lon="7.23035">
        <ele>1955.3</ele>
        <time>2017-08-25T12:25:05Z</time>
      </trkpt>
      <trkpt lat="44.14122" lon="7.23054">
        <ele>1956.6</ele>
        <time>2017-08-25T12:25:20Z</time>
      </trkpt>
      <trkpt lat="44.14117" lon="7.2306">
        <ele>1957.9</ele>
        <time>2017-08-25T12:25:28Z</time>
      </trkpt>
      <trkpt lat="44.14105" lon="7.23071">
        <ele>1960.3</ele>
        <time>2017-08-25T12:25:44Z</time>
      </trkpt>
      <trkpt lat="44.14102" lon="7.23074">
        <ele>1960.9</ele>
        <time>2017-08-25T12:25:49Z</time>
      </trkpt>
      <trkpt lat="44.14089" lon="7.23088">
        <ele>1963.4</ele>
        <time>2017-08-25T12:26:05Z</time>
      </trkpt>
      <trkpt lat="44.14078" lon="7.23112">
        <ele>1965.6</ele>
        <time>2017-08-25T12:26:22Z</time>
      </trkpt>
      <trkpt lat="44.14074" lon="7.23122">
        <ele>1966.7</ele>
        <time>2017-08-25T12:26:30Z</time>
      </trkpt>
      <trkpt lat="44.14066" lon="7.23128">
        <ele>1967.7</ele>
        <time>2017-08-25T12:26:39Z</time>
      </trkpt>
      <trkpt lat="44.14062" lon="7.2313">
        <ele>1968.1</ele>
        <time>2017-08-25T12:26:44Z</time>
      </trkpt>
      <trkpt lat="44.14048" lon="7.23139">
        <ele>1969.8</ele>
        <time>2017-08-25T12:26:59Z</time>
      </trkpt>
      <trkpt lat="44.14036" lon="7.23145">
        <ele>1971.4</ele>
        <time>2017-08-25T12:27:12Z</time>
      </trkpt>
      <trkpt lat="44.14033" lon="7.23146">
        <ele>1971.7</ele>
        <time>2017-08-25T12:27:15Z</time>
      </trkpt>
      <trkpt lat="44.14021" lon="7.23158">
        <ele>1973.4</ele>
        <time>2017-08-25T12:27:30Z</time>
      </trkpt>
      <trkpt lat="44.1401" lon="7.23167">
        <ele>1974.9</ele>
        <time>2017-08-25T12:27:43Z</time>
      </trkpt>
      <trkpt lat="44.14001" lon="7.2318">
        <ele>1976.4</ele>
        <time>2017-08-25T12:27:57Z</time>
      </trkpt>
      <trkpt lat="44.13993" lon="7.2319">
        <ele>1977.8</ele>
        <time>2017-08-25T12:28:11Z</time>
      </trkpt>
      <trkpt lat="44.13982" lon="7.23201">
        <ele>1979.9</ele>
        <time>2017-08-25T12:28:23Z</time>
      </trkpt>
      <trkpt lat="44.13981" lon="7.23201">
        <ele>1980</ele>
        <time>2017-08-25T12:28:24Z</time>
      </trkpt>
      <trkpt lat="44.13979" lon="7.23202">
        <ele>1980.4</ele>
        <time>2017-08-25T12:28:26Z</time>
      </trkpt>
      <trkpt lat="44.13966" lon="7.23213">
        <ele>1983.1</ele>
        <time>2017-08-25T12:28:40Z</time>
      </trkpt>
      <trkpt lat="44.13963" lon="7.23217">
        <ele>1983.9</ele>
        <time>2017-08-25T12:28:44Z</time>
      </trkpt>
      <trkpt lat="44.13957" lon="7.23225">
        <ele>1985.3</ele>
        <time>2017-08-25T12:28:53Z</time>
      </trkpt>
      <trkpt lat="44.13945" lon="7.23235">
        <ele>1987.9</ele>
        <time>2017-08-25T12:29:07Z</time>
      </trkpt>
      <trkpt lat="44.1394" lon="7.23241">
        <ele>1989</ele>
        <time>2017-08-25T12:29:13Z</time>
      </trkpt>
      <trkpt lat="44.13933" lon="7.23256">
        <ele>1990.5</ele>
        <time>2017-08-25T12:29:27Z</time>
      </trkpt>
      <trkpt lat="44.13929" lon="7.23259">
        <ele>1991.3</ele>
        <time>2017-08-25T12:29:33Z</time>
      </trkpt>
      <trkpt lat="44.13927" lon="7.23261">
        <ele>1991.7</ele>
        <time>2017-08-25T12:29:35Z</time>
      </trkpt>
      <trkpt lat="44.13912" lon="7.23269">
        <ele>1994.4</ele>
        <time>2017-08-25T12:29:52Z</time>
      </trkpt>
      <trkpt lat="44.13902" lon="7.23273">
        <ele>1996.4</ele>
        <time>2017-08-25T12:30:04Z</time>
      </trkpt>
      <trkpt lat="44.13898" lon="7.23276">
        <ele>1997.1</ele>
        <time>2017-08-25T12:30:17Z</time>
      </trkpt>
      <trkpt lat="44.13897" lon="7.23276">
        <ele>1997.4</ele>
        <time>2017-08-25T12:30:25Z</time>
      </trkpt>
      <trkpt lat="44.1388" lon="7.23292">
        <ele>2001.2</ele>
        <time>2017-08-25T12:30:38Z</time>
      </trkpt>
      <trkpt lat="44.13878" lon="7.23293">
        <ele>2001.8</ele>
        <time>2017-08-25T12:30:39Z</time>
      </trkpt>
      <trkpt lat="44.13877" lon="7.23321">
        <ele>2001.2</ele>
        <time>2017-08-25T12:30:53Z</time>
      </trkpt>
      <trkpt lat="44.13875" lon="7.23339">
        <ele>2001.4</ele>
        <time>2017-08-25T12:31:08Z</time>
      </trkpt>
      <trkpt lat="44.13875" lon="7.2334">
        <ele>2001.4</ele>
        <time>2017-08-25T12:31:09Z</time>
      </trkpt>
      <trkpt lat="44.1387" lon="7.23348">
        <ele>2002.4</ele>
        <time>2017-08-25T12:31:17Z</time>
      </trkpt>
      <trkpt lat="44.13867" lon="7.2336">
        <ele>2002.8</ele>
        <time>2017-08-25T12:31:25Z</time>
      </trkpt>
      <trkpt lat="44.13864" lon="7.23388">
        <ele>2004.4</ele>
        <time>2017-08-25T12:31:42Z</time>
      </trkpt>
      <trkpt lat="44.13859" lon="7.23411">
        <ele>2006.3</ele>
        <time>2017-08-25T12:31:58Z</time>
      </trkpt>
      <trkpt lat="44.13853" lon="7.23426">
        <ele>2008.3</ele>
        <time>2017-08-25T12:32:12Z</time>
      </trkpt>
      <trkpt lat="44.13849" lon="7.23432">
        <ele>2009.5</ele>
        <time>2017-08-25T12:32:19Z</time>
      </trkpt>
      <trkpt lat="44.1384" lon="7.2345">
        <ele>2012.1</ele>
        <time>2017-08-25T12:32:35Z</time>
      </trkpt>
      <trkpt lat="44.13838" lon="7.23465">
        <ele>2013.1</ele>
        <time>2017-08-25T12:32:45Z</time>
      </trkpt>
      <trkpt lat="44.13836" lon="7.23484">
        <ele>2014.7</ele>
        <time>2017-08-25T12:32:58Z</time>
      </trkpt>
      <trkpt lat="44.13832" lon="7.23495">
        <ele>2016</ele>
        <time>2017-08-25T12:33:06Z</time>
      </trkpt>
      <trkpt lat="44.13828" lon="7.23511">
        <ele>2018</ele>
        <time>2017-08-25T12:33:18Z</time>
      </trkpt>
      <trkpt lat="44.13815" lon="7.23523">
        <ele>2020.3</ele>
        <time>2017-08-25T12:33:34Z</time>
      </trkpt>
      <trkpt lat="44.13805" lon="7.23528">
        <ele>2021.1</ele>
        <time>2017-08-25T12:33:47Z</time>
      </trkpt>
      <trkpt lat="44.13796" lon="7.23531">
        <ele>2023.2</ele>
        <time>2017-08-25T12:33:55Z</time>
      </trkpt>
      <trkpt lat="44.13791" lon="7.23532">
        <ele>2024.2</ele>
        <time>2017-08-25T12:34:00Z</time>
      </trkpt>
      <trkpt lat="44.13776" lon="7.23535">
        <ele>2026.5</ele>
        <time>2017-08-25T12:34:15Z</time>
      </trkpt>
      <trkpt lat="44.13774" lon="7.23544">
        <ele>2026</ele>
        <time>2017-08-25T12:34:29Z</time>
      </trkpt>
      <trkpt lat="44.13774" lon="7.23544">
        <ele>2026</ele>
        <time>2017-08-25T12:34:43Z</time>
      </trkpt>
      <trkpt lat="44.13774" lon="7.23544">
        <ele>2026</ele>
        <time>2017-08-25T12:34:56Z</time>
      </trkpt>
      <trkpt lat="44.13774" lon="7.23544">
        <ele>2026</ele>
        <time>2017-08-25T12:35:16Z</time>
      </trkpt>
      <trkpt lat="44.13774" lon="7.23544">
        <ele>2026</ele>
        <time>2017-08-25T12:35:39Z</time>
      </trkpt>
      <trkpt lat="44.13767" lon="7.23545">
        <ele>2025.2</ele>
        <time>2017-08-25T12:35:54Z</time>
      </trkpt>
      <trkpt lat="44.13767" lon="7.23545">
        <ele>2025.2</ele>
        <time>2017-08-25T12:36:09Z</time>
      </trkpt>
      <trkpt lat="44.13767" lon="7.23547">
        <ele>2025.2</ele>
        <time>2017-08-25T12:36:39Z</time>
      </trkpt>
      <trkpt lat="44.13767" lon="7.23547">
        <ele>2025.2</ele>
        <time>2017-08-25T12:36:57Z</time>
      </trkpt>
      <trkpt lat="44.13767" lon="7.23548">
        <ele>2025.2</ele>
        <time>2017-08-25T12:37:16Z</time>
      </trkpt>
      <trkpt lat="44.13767" lon="7.23548">
        <ele>2025.2</ele>
        <time>2017-08-25T12:37:37Z</time>
      </trkpt>
      <trkpt lat="44.13767" lon="7.23548">
        <ele>2025.2</ele>
        <time>2017-08-25T12:38:01Z</time>
      </trkpt>
      <trkpt lat="44.13763" lon="7.23547">
        <ele>2024.8</ele>
        <time>2017-08-25T12:38:05Z</time>
      </trkpt>
      <trkpt lat="44.13756" lon="7.23537">
        <ele>2023.5</ele>
        <time>2017-08-25T12:38:14Z</time>
      </trkpt>
      <trkpt lat="44.13756" lon="7.23529">
        <ele>2023.1</ele>
        <time>2017-08-25T12:38:20Z</time>
      </trkpt>
      <trkpt lat="44.13759" lon="7.23518">
        <ele>2023.8</ele>
        <time>2017-08-25T12:38:27Z</time>
      </trkpt>
      <trkpt lat="44.13758" lon="7.23507">
        <ele>2023.9</ele>
        <time>2017-08-25T12:38:33Z</time>
      </trkpt>
      <trkpt lat="44.13757" lon="7.23489">
        <ele>2024</ele>
        <time>2017-08-25T12:38:43Z</time>
      </trkpt>
      <trkpt lat="44.13757" lon="7.23477">
        <ele>2024.2</ele>
        <time>2017-08-25T12:38:50Z</time>
      </trkpt>
      <trkpt lat="44.1375" lon="7.23451">
        <ele>2023.5</ele>
        <time>2017-08-25T12:39:06Z</time>
      </trkpt>
      <trkpt lat="44.13737" lon="7.2343">
        <ele>2016.9</ele>
        <time>2017-08-25T12:39:21Z</time>
      </trkpt>
      <trkpt lat="44.13734" lon="7.23418">
        <ele>2015.9</ele>
        <time>2017-08-25T12:39:28Z</time>
      </trkpt>
      <trkpt lat="44.13734" lon="7.23403">
        <ele>2015.8</ele>
        <time>2017-08-25T12:39:37Z</time>
      </trkpt>
      <trkpt lat="44.1374" lon="7.23384">
        <ele>2019.7</ele>
        <time>2017-08-25T12:39:48Z</time>
      </trkpt>
      <trkpt lat="44.13736" lon="7.23368">
        <ele>2016.9</ele>
        <time>2017-08-25T12:39:58Z</time>
      </trkpt>
      <trkpt lat="44.13727" lon="7.23357">
        <ele>2013</ele>
        <time>2017-08-25T12:40:06Z</time>
      </trkpt>
      <trkpt lat="44.13708" lon="7.23344">
        <ele>2012.5</ele>
        <time>2017-08-25T12:40:20Z</time>
      </trkpt>
      <trkpt lat="44.13703" lon="7.23342">
        <ele>2012.2</ele>
        <time>2017-08-25T12:40:23Z</time>
      </trkpt>
      <trkpt lat="44.13699" lon="7.23337">
        <ele>2012.9</ele>
        <time>2017-08-25T12:40:27Z</time>
      </trkpt>
      <trkpt lat="44.13679" lon="7.23327">
        <ele>2012.5</ele>
        <time>2017-08-25T12:40:43Z</time>
      </trkpt>
      <trkpt lat="44.13672" lon="7.23328">
        <ele>2011.1</ele>
        <time>2017-08-25T12:40:48Z</time>
      </trkpt>
      <trkpt lat="44.13669" lon="7.23329">
        <ele>2010.3</ele>
        <time>2017-08-25T12:40:52Z</time>
      </trkpt>
      <trkpt lat="44.13666" lon="7.23339">
        <ele>2008</ele>
        <time>2017-08-25T12:40:58Z</time>
      </trkpt>
      <trkpt lat="44.13666" lon="7.23349">
        <ele>2006.2</ele>
        <time>2017-08-25T12:41:10Z</time>
      </trkpt>
      <trkpt lat="44.13659" lon="7.23353">
        <ele>2006</ele>
        <time>2017-08-25T12:41:18Z</time>
      </trkpt>
      <trkpt lat="44.13652" lon="7.23364">
        <ele>2005.2</ele>
        <time>2017-08-25T12:41:30Z</time>
      </trkpt>
      <trkpt lat="44.13652" lon="7.23366">
        <ele>2004.9</ele>
        <time>2017-08-25T12:41:31Z</time>
      </trkpt>
      <trkpt lat="44.13651" lon="7.23385">
        <ele>2002.3</ele>
        <time>2017-08-25T12:41:43Z</time>
      </trkpt>
      <trkpt lat="44.13652" lon="7.23386">
        <ele>2002</ele>
        <time>2017-08-25T12:41:44Z</time>
      </trkpt>
      <trkpt lat="44.13652" lon="7.23392">
        <ele>2001.1</ele>
        <time>2017-08-25T12:41:48Z</time>
      </trkpt>
      <trkpt lat="44.13652" lon="7.23421">
        <ele>1996.3</ele>
        <time>2017-08-25T12:42:04Z</time>
      </trkpt>
      <trkpt lat="44.13658" lon="7.23439">
        <ele>1992.5</ele>
        <time>2017-08-25T12:42:15Z</time>
      </trkpt>
      <trkpt lat="44.1366" lon="7.23455">
        <ele>1989.9</ele>
        <time>2017-08-25T12:42:26Z</time>
      </trkpt>
      <trkpt lat="44.13665" lon="7.23486">
        <ele>1986.5</ele>
        <time>2017-08-25T12:42:42Z</time>
      </trkpt>
      <trkpt lat="44.13664" lon="7.23491">
        <ele>1986.2</ele>
        <time>2017-08-25T12:42:45Z</time>
      </trkpt>
      <trkpt lat="44.13666" lon="7.23505">
        <ele>1986.1</ele>
        <time>2017-08-25T12:42:56Z</time>
      </trkpt>
      <trkpt lat="44.13667" lon="7.23515">
        <ele>1986.6</ele>
        <time>2017-08-25T12:43:05Z</time>
      </trkpt>
      <trkpt lat="44.13666" lon="7.23528">
        <ele>1986.9</ele>
        <time>2017-08-25T12:43:15Z</time>
      </trkpt>
      <trkpt lat="44.13662" lon="7.23534">
        <ele>1987.1</ele>
        <time>2017-08-25T12:43:20Z</time>
      </trkpt>
      <trkpt lat="44.13655" lon="7.23546">
        <ele>1987.1</ele>
        <time>2017-08-25T12:43:32Z</time>
      </trkpt>
      <trkpt lat="44.13654" lon="7.23549">
        <ele>1987.1</ele>
        <time>2017-08-25T12:43:34Z</time>
      </trkpt>
      <trkpt lat="44.13645" lon="7.23564">
        <ele>1985.9</ele>
        <time>2017-08-25T12:43:47Z</time>
      </trkpt>
      <trkpt lat="44.13631" lon="7.2358">
        <ele>1982.6</ele>
        <time>2017-08-25T12:44:01Z</time>
      </trkpt>
      <trkpt lat="44.13626" lon="7.23587">
        <ele>1981.6</ele>
        <time>2017-08-25T12:44:08Z</time>
      </trkpt>
      <trkpt lat="44.13616" lon="7.23601">
        <ele>1978.9</ele>
        <time>2017-08-25T12:44:23Z</time>
      </trkpt>
      <trkpt lat="44.1361" lon="7.23616">
        <ele>1977.3</ele>
        <time>2017-08-25T12:44:38Z</time>
      </trkpt>
      <trkpt lat="44.13609" lon="7.23618">
        <ele>1977.3</ele>
        <time>2017-08-25T12:44:40Z</time>
      </trkpt>
      <trkpt lat="44.13595" lon="7.23642">
        <ele>1975.5</ele>
        <time>2017-08-25T12:44:56Z</time>
      </trkpt>
      <trkpt lat="44.13592" lon="7.23657">
        <ele>1975.1</ele>
        <time>2017-08-25T12:45:09Z</time>
      </trkpt>
      <trkpt lat="44.13586" lon="7.23674">
        <ele>1973.4</ele>
        <time>2017-08-25T12:45:23Z</time>
      </trkpt>
      <trkpt lat="44.13579" lon="7.23691">
        <ele>1971.8</ele>
        <time>2017-08-25T12:45:36Z</time>
      </trkpt>
      <trkpt lat="44.13569" lon="7.23713">
        <ele>1969</ele>
        <time>2017-08-25T12:45:52Z</time>
      </trkpt>
      <trkpt lat="44.13567" lon="7.23717">
        <ele>1968.4</ele>
        <time>2017-08-25T12:45:54Z</time>
      </trkpt>
      <trkpt lat="44.13564" lon="7.23736">
        <ele>1966.7</ele>
        <time>2017-08-25T12:46:03Z</time>
      </trkpt>
      <trkpt lat="44.13559" lon="7.23764">
        <ele>1964.2</ele>
        <time>2017-08-25T12:46:18Z</time>
      </trkpt>
      <trkpt lat="44.13557" lon="7.23786">
        <ele>1963.5</ele>
        <time>2017-08-25T12:46:30Z</time>
      </trkpt>
      <trkpt lat="44.13553" lon="7.23795">
        <ele>1962.6</ele>
        <time>2017-08-25T12:46:38Z</time>
      </trkpt>
      <trkpt lat="44.13544" lon="7.23814">
        <ele>1960.8</ele>
        <time>2017-08-25T12:46:52Z</time>
      </trkpt>
      <trkpt lat="44.13542" lon="7.23819">
        <ele>1960.3</ele>
        <time>2017-08-25T12:46:55Z</time>
      </trkpt>
      <trkpt lat="44.13534" lon="7.2383">
        <ele>1958.4</ele>
        <time>2017-08-25T12:47:04Z</time>
      </trkpt>
      <trkpt lat="44.13522" lon="7.23851">
        <ele>1955.5</ele>
        <time>2017-08-25T12:47:18Z</time>
      </trkpt>
      <trkpt lat="44.1352" lon="7.23854">
        <ele>1955</ele>
        <time>2017-08-25T12:47:21Z</time>
      </trkpt>
      <trkpt lat="44.13515" lon="7.23879">
        <ele>1952.1</ele>
        <time>2017-08-25T12:47:36Z</time>
      </trkpt>
      <trkpt lat="44.13509" lon="7.23891">
        <ele>1949.8</ele>
        <time>2017-08-25T12:47:44Z</time>
      </trkpt>
      <trkpt lat="44.13496" lon="7.23909">
        <ele>1946.3</ele>
        <time>2017-08-25T12:47:57Z</time>
      </trkpt>
      <trkpt lat="44.13491" lon="7.23926">
        <ele>1945</ele>
        <time>2017-08-25T12:48:09Z</time>
      </trkpt>
      <trkpt lat="44.1348" lon="7.23945">
        <ele>1943.5</ele>
        <time>2017-08-25T12:48:24Z</time>
      </trkpt>
      <trkpt lat="44.1348" lon="7.23945">
        <ele>1943.5</ele>
        <time>2017-08-25T12:48:25Z</time>
      </trkpt>
      <trkpt lat="44.13477" lon="7.23946">
        <ele>1943.3</ele>
        <time>2017-08-25T12:48:28Z</time>
      </trkpt>
      <trkpt lat="44.13473" lon="7.23962">
        <ele>1942.4</ele>
        <time>2017-08-25T12:48:39Z</time>
      </trkpt>
      <trkpt lat="44.13471" lon="7.23975">
        <ele>1941.9</ele>
        <time>2017-08-25T12:48:51Z</time>
      </trkpt>
      <trkpt lat="44.13475" lon="7.24006">
        <ele>1941.2</ele>
        <time>2017-08-25T12:49:07Z</time>
      </trkpt>
      <trkpt lat="44.13478" lon="7.24026">
        <ele>1941.1</ele>
        <time>2017-08-25T12:49:20Z</time>
      </trkpt>
      <trkpt lat="44.13472" lon="7.24044">
        <ele>1938.2</ele>
        <time>2017-08-25T12:49:32Z</time>
      </trkpt>
      <trkpt lat="44.13468" lon="7.24063">
        <ele>1936</ele>
        <time>2017-08-25T12:49:46Z</time>
      </trkpt>
      <trkpt lat="44.13475" lon="7.24083">
        <ele>1934.5</ele>
        <time>2017-08-25T12:49:57Z</time>
      </trkpt>
      <trkpt lat="44.13474" lon="7.24088">
        <ele>1933.8</ele>
        <time>2017-08-25T12:50:00Z</time>
      </trkpt>
      <trkpt lat="44.13475" lon="7.24092">
        <ele>1933.6</ele>
        <time>2017-08-25T12:50:02Z</time>
      </trkpt>
      <trkpt lat="44.13476" lon="7.24117">
        <ele>1931.1</ele>
        <time>2017-08-25T12:50:16Z</time>
      </trkpt>
      <trkpt lat="44.1347" lon="7.24137">
        <ele>1928</ele>
        <time>2017-08-25T12:50:33Z</time>
      </trkpt>
      <trkpt lat="44.13467" lon="7.24146">
        <ele>1927.1</ele>
        <time>2017-08-25T12:50:39Z</time>
      </trkpt>
      <trkpt lat="44.13459" lon="7.24171">
        <ele>1925.1</ele>
        <time>2017-08-25T12:50:53Z</time>
      </trkpt>
      <trkpt lat="44.13444" lon="7.24187">
        <ele>1923</ele>
        <time>2017-08-25T12:51:07Z</time>
      </trkpt>
      <trkpt lat="44.13442" lon="7.2419">
        <ele>1922.8</ele>
        <time>2017-08-25T12:51:10Z</time>
      </trkpt>
      <trkpt lat="44.13439" lon="7.24192">
        <ele>1922.4</ele>
        <time>2017-08-25T12:51:13Z</time>
      </trkpt>
      <trkpt lat="44.13431" lon="7.242">
        <ele>1921.7</ele>
        <time>2017-08-25T12:51:24Z</time>
      </trkpt>
      <trkpt lat="44.13427" lon="7.24206">
        <ele>1921.3</ele>
        <time>2017-08-25T12:51:28Z</time>
      </trkpt>
      <trkpt lat="44.13424" lon="7.24208">
        <ele>1920.9</ele>
        <time>2017-08-25T12:51:31Z</time>
      </trkpt>
      <trkpt lat="44.1341" lon="7.2423">
        <ele>1919.7</ele>
        <time>2017-08-25T12:51:47Z</time>
      </trkpt>
      <trkpt lat="44.13397" lon="7.24249">
        <ele>1918.4</ele>
        <time>2017-08-25T12:52:01Z</time>
      </trkpt>
      <trkpt lat="44.13396" lon="7.24251">
        <ele>1918.3</ele>
        <time>2017-08-25T12:52:03Z</time>
      </trkpt>
      <trkpt lat="44.13379" lon="7.24263">
        <ele>1915.2</ele>
        <time>2017-08-25T12:52:19Z</time>
      </trkpt>
      <trkpt lat="44.13368" lon="7.24274">
        <ele>1912.7</ele>
        <time>2017-08-25T12:52:31Z</time>
      </trkpt>
      <trkpt lat="44.13363" lon="7.24276">
        <ele>1911.5</ele>
        <time>2017-08-25T12:52:35Z</time>
      </trkpt>
      <trkpt lat="44.13359" lon="7.24287">
        <ele>1910.3</ele>
        <time>2017-08-25T12:52:42Z</time>
      </trkpt>
      <trkpt lat="44.13347" lon="7.2431">
        <ele>1907.3</ele>
        <time>2017-08-25T12:52:57Z</time>
      </trkpt>
      <trkpt lat="44.13341" lon="7.2433">
        <ele>1905.1</ele>
        <time>2017-08-25T12:53:11Z</time>
      </trkpt>
      <trkpt lat="44.13334" lon="7.24344">
        <ele>1903.2</ele>
        <time>2017-08-25T12:53:21Z</time>
      </trkpt>
      <trkpt lat="44.13332" lon="7.24351">
        <ele>1902.9</ele>
        <time>2017-08-25T12:53:26Z</time>
      </trkpt>
      <trkpt lat="44.13324" lon="7.24374">
        <ele>1901.8</ele>
        <time>2017-08-25T12:53:40Z</time>
      </trkpt>
      <trkpt lat="44.13321" lon="7.2439">
        <ele>1901.2</ele>
        <time>2017-08-25T12:53:51Z</time>
      </trkpt>
      <trkpt lat="44.13308" lon="7.24422">
        <ele>1899.6</ele>
        <time>2017-08-25T12:54:08Z</time>
      </trkpt>
      <trkpt lat="44.13304" lon="7.24422">
        <ele>1899.1</ele>
        <time>2017-08-25T12:54:13Z</time>
      </trkpt>
      <trkpt lat="44.13293" lon="7.24426">
        <ele>1898.6</ele>
        <time>2017-08-25T12:54:24Z</time>
      </trkpt>
      <trkpt lat="44.13286" lon="7.24426">
        <ele>1898.2</ele>
        <time>2017-08-25T12:54:31Z</time>
      </trkpt>
      <trkpt lat="44.13279" lon="7.24437">
        <ele>1897.4</ele>
        <time>2017-08-25T12:54:39Z</time>
      </trkpt>
      <trkpt lat="44.13276" lon="7.24441">
        <ele>1897.2</ele>
        <time>2017-08-25T12:54:42Z</time>
      </trkpt>
      <trkpt lat="44.13266" lon="7.2446">
        <ele>1896.1</ele>
        <time>2017-08-25T12:54:57Z</time>
      </trkpt>
      <trkpt lat="44.13267" lon="7.24493">
        <ele>1893.7</ele>
        <time>2017-08-25T12:55:12Z</time>
      </trkpt>
      <trkpt lat="44.13267" lon="7.24495">
        <ele>1893.5</ele>
        <time>2017-08-25T12:55:13Z</time>
      </trkpt>
      <trkpt lat="44.13267" lon="7.24514">
        <ele>1891.8</ele>
        <time>2017-08-25T12:55:23Z</time>
      </trkpt>
      <trkpt lat="44.13256" lon="7.24527">
        <ele>1889</ele>
        <time>2017-08-25T12:55:37Z</time>
      </trkpt>
      <trkpt lat="44.13256" lon="7.24528">
        <ele>1888.8</ele>
        <time>2017-08-25T12:55:38Z</time>
      </trkpt>
      <trkpt lat="44.13253" lon="7.24534">
        <ele>1888</ele>
        <time>2017-08-25T12:55:43Z</time>
      </trkpt>
      <trkpt lat="44.1325" lon="7.24542">
        <ele>1887</ele>
        <time>2017-08-25T12:55:49Z</time>
      </trkpt>
      <trkpt lat="44.13244" lon="7.24549">
        <ele>1886.4</ele>
        <time>2017-08-25T12:55:55Z</time>
      </trkpt>
      <trkpt lat="44.1324" lon="7.24554">
        <ele>1885.8</ele>
        <time>2017-08-25T12:56:01Z</time>
      </trkpt>
      <trkpt lat="44.13235" lon="7.24563">
        <ele>1884.8</ele>
        <time>2017-08-25T12:56:07Z</time>
      </trkpt>
      <trkpt lat="44.13232" lon="7.24582">
        <ele>1882.8</ele>
        <time>2017-08-25T12:56:20Z</time>
      </trkpt>
      <trkpt lat="44.13232" lon="7.24593">
        <ele>1882.3</ele>
        <time>2017-08-25T12:56:24Z</time>
      </trkpt>
      <trkpt lat="44.13224" lon="7.2461">
        <ele>1880.3</ele>
        <time>2017-08-25T12:56:37Z</time>
      </trkpt>
      <trkpt lat="44.1321" lon="7.24623">
        <ele>1879.2</ele>
        <time>2017-08-25T12:56:50Z</time>
      </trkpt>
      <trkpt lat="44.132" lon="7.24633">
        <ele>1878</ele>
        <time>2017-08-25T12:57:03Z</time>
      </trkpt>
      <trkpt lat="44.13193" lon="7.24643">
        <ele>1876.4</ele>
        <time>2017-08-25T12:57:12Z</time>
      </trkpt>
      <trkpt lat="44.13191" lon="7.24648">
        <ele>1875.6</ele>
        <time>2017-08-25T12:57:16Z</time>
      </trkpt>
      <trkpt lat="44.13172" lon="7.24658">
        <ele>1871.7</ele>
        <time>2017-08-25T12:57:32Z</time>
      </trkpt>
      <trkpt lat="44.13159" lon="7.2467">
        <ele>1868.1</ele>
        <time>2017-08-25T12:57:45Z</time>
      </trkpt>
      <trkpt lat="44.13152" lon="7.24678">
        <ele>1866.7</ele>
        <time>2017-08-25T12:57:54Z</time>
      </trkpt>
      <trkpt lat="44.13141" lon="7.24695">
        <ele>1863.3</ele>
        <time>2017-08-25T12:58:08Z</time>
      </trkpt>
      <trkpt lat="44.1313" lon="7.24711">
        <ele>1862</ele>
        <time>2017-08-25T12:58:21Z</time>
      </trkpt>
      <trkpt lat="44.13119" lon="7.24722">
        <ele>1860.6</ele>
        <time>2017-08-25T12:58:34Z</time>
      </trkpt>
      <trkpt lat="44.13112" lon="7.24729">
        <ele>1859.8</ele>
        <time>2017-08-25T12:58:42Z</time>
      </trkpt>
      <trkpt lat="44.13102" lon="7.24732">
        <ele>1859.7</ele>
        <time>2017-08-25T12:58:48Z</time>
      </trkpt>
      <trkpt lat="44.131" lon="7.24733">
        <ele>1859.7</ele>
        <time>2017-08-25T12:58:50Z</time>
      </trkpt>
      <trkpt lat="44.13093" lon="7.2475">
        <ele>1858.3</ele>
        <time>2017-08-25T12:59:02Z</time>
      </trkpt>
      <trkpt lat="44.13086" lon="7.24762">
        <ele>1856.9</ele>
        <time>2017-08-25T12:59:14Z</time>
      </trkpt>
      <trkpt lat="44.13085" lon="7.24763">
        <ele>1856.7</ele>
        <time>2017-08-25T12:59:15Z</time>
      </trkpt>
      <trkpt lat="44.13082" lon="7.24785">
        <ele>1854.7</ele>
        <time>2017-08-25T12:59:28Z</time>
      </trkpt>
      <trkpt lat="44.1308" lon="7.24798">
        <ele>1854.1</ele>
        <time>2017-08-25T12:59:37Z</time>
      </trkpt>
      <trkpt lat="44.13074" lon="7.24812">
        <ele>1852.8</ele>
        <time>2017-08-25T12:59:48Z</time>
      </trkpt>
      <trkpt lat="44.13069" lon="7.24819">
        <ele>1851.8</ele>
        <time>2017-08-25T12:59:54Z</time>
      </trkpt>
      <trkpt lat="44.13061" lon="7.24828">
        <ele>1850.1</ele>
        <time>2017-08-25T13:00:07Z</time>
      </trkpt>
      <trkpt lat="44.13061" lon="7.24829">
        <ele>1850</ele>
        <time>2017-08-25T13:00:08Z</time>
      </trkpt>
      <trkpt lat="44.13055" lon="7.24833">
        <ele>1849</ele>
        <time>2017-08-25T13:00:13Z</time>
      </trkpt>
      <trkpt lat="44.13044" lon="7.24852">
        <ele>1846.7</ele>
        <time>2017-08-25T13:00:28Z</time>
      </trkpt>
      <trkpt lat="44.13033" lon="7.2486">
        <ele>1844.7</ele>
        <time>2017-08-25T13:00:40Z</time>
      </trkpt>
      <trkpt lat="44.13025" lon="7.24876">
        <ele>1842.7</ele>
        <time>2017-08-25T13:00:52Z</time>
      </trkpt>
      <trkpt lat="44.13015" lon="7.24887">
        <ele>1840.8</ele>
        <time>2017-08-25T13:01:04Z</time>
      </trkpt>
      <trkpt lat="44.13011" lon="7.24897">
        <ele>1839.5</ele>
        <time>2017-08-25T13:01:18Z</time>
      </trkpt>
      <trkpt lat="44.1301" lon="7.24905">
        <ele>1838.8</ele>
        <time>2017-08-25T13:01:23Z</time>
      </trkpt>
      <trkpt lat="44.13005" lon="7.24919">
        <ele>1836.7</ele>
        <time>2017-08-25T13:01:35Z</time>
      </trkpt>
      <trkpt lat="44.12991" lon="7.24924">
        <ele>1834.3</ele>
        <time>2017-08-25T13:01:48Z</time>
      </trkpt>
      <trkpt lat="44.12983" lon="7.24925">
        <ele>1833.2</ele>
        <time>2017-08-25T13:02:03Z</time>
      </trkpt>
      <trkpt lat="44.1298" lon="7.24931">
        <ele>1832.1</ele>
        <time>2017-08-25T13:02:14Z</time>
      </trkpt>
      <trkpt lat="44.12959" lon="7.24939">
        <ele>1829.2</ele>
        <time>2017-08-25T13:02:27Z</time>
      </trkpt>
      <trkpt lat="44.12953" lon="7.24943">
        <ele>1828</ele>
        <time>2017-08-25T13:02:32Z</time>
      </trkpt>
      <trkpt lat="44.12945" lon="7.24953">
        <ele>1825.5</ele>
        <time>2017-08-25T13:02:41Z</time>
      </trkpt>
      <trkpt lat="44.1294" lon="7.24969">
        <ele>1822.9</ele>
        <time>2017-08-25T13:02:51Z</time>
      </trkpt>
      <trkpt lat="44.12931" lon="7.24981">
        <ele>1821.3</ele>
        <time>2017-08-25T13:03:00Z</time>
      </trkpt>
      <trkpt lat="44.12925" lon="7.24991">
        <ele>1819</ele>
        <time>2017-08-25T13:03:07Z</time>
      </trkpt>
      <trkpt lat="44.1292" lon="7.24994">
        <ele>1818</ele>
        <time>2017-08-25T13:03:11Z</time>
      </trkpt>
      <trkpt lat="44.12915" lon="7.25011">
        <ele>1813.9</ele>
        <time>2017-08-25T13:03:23Z</time>
      </trkpt>
      <trkpt lat="44.12908" lon="7.25029">
        <ele>1810.4</ele>
        <time>2017-08-25T13:03:37Z</time>
      </trkpt>
      <trkpt lat="44.12906" lon="7.25031">
        <ele>1810.2</ele>
        <time>2017-08-25T13:03:39Z</time>
      </trkpt>
      <trkpt lat="44.12899" lon="7.2505">
        <ele>1806.3</ele>
        <time>2017-08-25T13:03:53Z</time>
      </trkpt>
      <trkpt lat="44.12899" lon="7.25053">
        <ele>1805.7</ele>
        <time>2017-08-25T13:03:55Z</time>
      </trkpt>
      <trkpt lat="44.12894" lon="7.25065">
        <ele>1803</ele>
        <time>2017-08-25T13:04:07Z</time>
      </trkpt>
      <trkpt lat="44.1289" lon="7.2508">
        <ele>1799.8</ele>
        <time>2017-08-25T13:04:17Z</time>
      </trkpt>
      <trkpt lat="44.12887" lon="7.25083">
        <ele>1799.2</ele>
        <time>2017-08-25T13:04:20Z</time>
      </trkpt>
      <trkpt lat="44.12881" lon="7.25088">
        <ele>1799.2</ele>
        <time>2017-08-25T13:04:25Z</time>
      </trkpt>
      <trkpt lat="44.12868" lon="7.25101">
        <ele>1798</ele>
        <time>2017-08-25T13:04:40Z</time>
      </trkpt>
      <trkpt lat="44.12859" lon="7.25111">
        <ele>1796.4</ele>
        <time>2017-08-25T13:04:52Z</time>
      </trkpt>
      <trkpt lat="44.12852" lon="7.25126">
        <ele>1795.1</ele>
        <time>2017-08-25T13:05:05Z</time>
      </trkpt>
      <trkpt lat="44.12851" lon="7.25127">
        <ele>1795.1</ele>
        <time>2017-08-25T13:05:06Z</time>
      </trkpt>
      <trkpt lat="44.12851" lon="7.25145">
        <ele>1792.3</ele>
        <time>2017-08-25T13:05:17Z</time>
      </trkpt>
      <trkpt lat="44.12851" lon="7.25147">
        <ele>1792.1</ele>
        <time>2017-08-25T13:05:18Z</time>
      </trkpt>
      <trkpt lat="44.12846" lon="7.25157">
        <ele>1790.9</ele>
        <time>2017-08-25T13:05:27Z</time>
      </trkpt>
      <trkpt lat="44.12842" lon="7.25175">
        <ele>1788.1</ele>
        <time>2017-08-25T13:05:36Z</time>
      </trkpt>
      <trkpt lat="44.1284" lon="7.25181">
        <ele>1787</ele>
        <time>2017-08-25T13:05:39Z</time>
      </trkpt>
      <trkpt lat="44.12831" lon="7.25195">
        <ele>1784</ele>
        <time>2017-08-25T13:05:51Z</time>
      </trkpt>
      <trkpt lat="44.12831" lon="7.252">
        <ele>1783.4</ele>
        <time>2017-08-25T13:05:54Z</time>
      </trkpt>
      <trkpt lat="44.12829" lon="7.25208">
        <ele>1782.4</ele>
        <time>2017-08-25T13:06:00Z</time>
      </trkpt>
      <trkpt lat="44.12822" lon="7.25217">
        <ele>1780.6</ele>
        <time>2017-08-25T13:06:13Z</time>
      </trkpt>
      <trkpt lat="44.12817" lon="7.25222">
        <ele>1779.3</ele>
        <time>2017-08-25T13:06:19Z</time>
      </trkpt>
      <trkpt lat="44.12807" lon="7.2524">
        <ele>1776.3</ele>
        <time>2017-08-25T13:06:34Z</time>
      </trkpt>
      <trkpt lat="44.12806" lon="7.25245">
        <ele>1775.6</ele>
        <time>2017-08-25T13:06:52Z</time>
      </trkpt>
      <trkpt lat="44.12802" lon="7.25249">
        <ele>1774.9</ele>
        <time>2017-08-25T13:06:57Z</time>
      </trkpt>
      <trkpt lat="44.12799" lon="7.2526">
        <ele>1773.6</ele>
        <time>2017-08-25T13:07:07Z</time>
      </trkpt>
      <trkpt lat="44.12794" lon="7.25274">
        <ele>1771.7</ele>
        <time>2017-08-25T13:07:21Z</time>
      </trkpt>
      <trkpt lat="44.12788" lon="7.25288">
        <ele>1769.9</ele>
        <time>2017-08-25T13:07:32Z</time>
      </trkpt>
      <trkpt lat="44.12783" lon="7.25303">
        <ele>1768.1</ele>
        <time>2017-08-25T13:07:46Z</time>
      </trkpt>
      <trkpt lat="44.12775" lon="7.25305">
        <ele>1766.6</ele>
        <time>2017-08-25T13:07:52Z</time>
      </trkpt>
      <trkpt lat="44.12766" lon="7.25315">
        <ele>1764.8</ele>
        <time>2017-08-25T13:08:07Z</time>
      </trkpt>
      <trkpt lat="44.12763" lon="7.25335">
        <ele>1763.3</ele>
        <time>2017-08-25T13:08:17Z</time>
      </trkpt>
      <trkpt lat="44.12764" lon="7.25346">
        <ele>1763.3</ele>
        <time>2017-08-25T13:08:27Z</time>
      </trkpt>
      <trkpt lat="44.12761" lon="7.25349">
        <ele>1762.6</ele>
        <time>2017-08-25T13:08:30Z</time>
      </trkpt>
      <trkpt lat="44.12752" lon="7.2536">
        <ele>1760.5</ele>
        <time>2017-08-25T13:08:44Z</time>
      </trkpt>
      <trkpt lat="44.12747" lon="7.25373">
        <ele>1759.4</ele>
        <time>2017-08-25T13:08:56Z</time>
      </trkpt>
      <trkpt lat="44.12742" lon="7.25387">
        <ele>1758</ele>
        <time>2017-08-25T13:09:08Z</time>
      </trkpt>
      <trkpt lat="44.12729" lon="7.25391">
        <ele>1754.7</ele>
        <time>2017-08-25T13:09:14Z</time>
      </trkpt>
      <trkpt lat="44.12716" lon="7.25397">
        <ele>1752.3</ele>
        <time>2017-08-25T13:09:22Z</time>
      </trkpt>
      <trkpt lat="44.1271" lon="7.25412">
        <ele>1750.6</ele>
        <time>2017-08-25T13:09:34Z</time>
      </trkpt>
      <trkpt lat="44.12711" lon="7.25414">
        <ele>1750.6</ele>
        <time>2017-08-25T13:09:35Z</time>
      </trkpt>
      <trkpt lat="44.12713" lon="7.25423">
        <ele>1750.3</ele>
        <time>2017-08-25T13:09:40Z</time>
      </trkpt>
      <trkpt lat="44.12711" lon="7.25441">
        <ele>1748.8</ele>
        <time>2017-08-25T13:09:54Z</time>
      </trkpt>
      <trkpt lat="44.12709" lon="7.25453">
        <ele>1747.4</ele>
        <time>2017-08-25T13:10:05Z</time>
      </trkpt>
      <trkpt lat="44.12702" lon="7.25463">
        <ele>1744.8</ele>
        <time>2017-08-25T13:10:16Z</time>
      </trkpt>
      <trkpt lat="44.12706" lon="7.25467">
        <ele>1745.4</ele>
        <time>2017-08-25T13:10:22Z</time>
      </trkpt>
      <trkpt lat="44.12717" lon="7.25478">
        <ele>1747</ele>
        <time>2017-08-25T13:10:35Z</time>
      </trkpt>
      <trkpt lat="44.1272" lon="7.25496">
        <ele>1745.7</ele>
        <time>2017-08-25T13:10:42Z</time>
      </trkpt>
      <trkpt lat="44.1272" lon="7.255">
        <ele>1745.3</ele>
        <time>2017-08-25T13:10:44Z</time>
      </trkpt>
      <trkpt lat="44.12719" lon="7.25507">
        <ele>1743.4</ele>
        <time>2017-08-25T13:10:49Z</time>
      </trkpt>
      <trkpt lat="44.12714" lon="7.25524">
        <ele>1738.2</ele>
        <time>2017-08-25T13:11:00Z</time>
      </trkpt>
      <trkpt lat="44.12715" lon="7.25541">
        <ele>1735.3</ele>
        <time>2017-08-25T13:11:12Z</time>
      </trkpt>
      <trkpt lat="44.12715" lon="7.25553">
        <ele>1733.1</ele>
        <time>2017-08-25T13:11:19Z</time>
      </trkpt>
      <trkpt lat="44.12715" lon="7.25561">
        <ele>1731.9</ele>
        <time>2017-08-25T13:11:23Z</time>
      </trkpt>
      <trkpt lat="44.12714" lon="7.25565">
        <ele>1731</ele>
        <time>2017-08-25T13:11:26Z</time>
      </trkpt>
      <trkpt lat="44.1271" lon="7.25569">
        <ele>1729.1</ele>
        <time>2017-08-25T13:11:30Z</time>
      </trkpt>
      <trkpt lat="44.12709" lon="7.25573">
        <ele>1728.2</ele>
        <time>2017-08-25T13:11:32Z</time>
      </trkpt>
      <trkpt lat="44.12704" lon="7.25597">
        <ele>1724.1</ele>
        <time>2017-08-25T13:11:46Z</time>
      </trkpt>
      <trkpt lat="44.12702" lon="7.25612">
        <ele>1722.4</ele>
        <time>2017-08-25T13:11:55Z</time>
      </trkpt>
      <trkpt lat="44.12697" lon="7.25628">
        <ele>1719.6</ele>
        <time>2017-08-25T13:12:06Z</time>
      </trkpt>
      <trkpt lat="44.12697" lon="7.25646">
        <ele>1718.6</ele>
        <time>2017-08-25T13:12:20Z</time>
      </trkpt>
      <trkpt lat="44.12698" lon="7.25648">
        <ele>1718.9</ele>
        <time>2017-08-25T13:12:31Z</time>
      </trkpt>
      <trkpt lat="44.12694" lon="7.25656">
        <ele>1717.3</ele>
        <time>2017-08-25T13:12:37Z</time>
      </trkpt>
      <trkpt lat="44.12688" lon="7.25668">
        <ele>1715.6</ele>
        <time>2017-08-25T13:12:48Z</time>
      </trkpt>
      <trkpt lat="44.12682" lon="7.25685">
        <ele>1713.7</ele>
        <time>2017-08-25T13:13:00Z</time>
      </trkpt>
      <trkpt lat="44.1268" lon="7.25689">
        <ele>1713</ele>
        <time>2017-08-25T13:13:13Z</time>
      </trkpt>
      <trkpt lat="44.1268" lon="7.25689">
        <ele>1713</ele>
        <time>2017-08-25T13:13:35Z</time>
      </trkpt>
      <trkpt lat="44.12679" lon="7.25689">
        <ele>1712.8</ele>
        <time>2017-08-25T13:13:58Z</time>
      </trkpt>
      <trkpt lat="44.12679" lon="7.25701">
        <ele>1712.8</ele>
        <time>2017-08-25T13:14:07Z</time>
      </trkpt>
      <trkpt lat="44.1268" lon="7.2571">
        <ele>1713.4</ele>
        <time>2017-08-25T13:14:10Z</time>
      </trkpt>
      <trkpt lat="44.12679" lon="7.25716">
        <ele>1713.2</ele>
        <time>2017-08-25T13:14:13Z</time>
      </trkpt>
      <trkpt lat="44.12678" lon="7.25721">
        <ele>1713</ele>
        <time>2017-08-25T13:14:23Z</time>
      </trkpt>
      <trkpt lat="44.12676" lon="7.25721">
        <ele>1712.3</ele>
        <time>2017-08-25T13:14:37Z</time>
      </trkpt>
      <trkpt lat="44.12663" lon="7.25736">
        <ele>1709.5</ele>
        <time>2017-08-25T13:14:50Z</time>
      </trkpt>
      <trkpt lat="44.12651" lon="7.25747">
        <ele>1706.3</ele>
        <time>2017-08-25T13:15:02Z</time>
      </trkpt>
      <trkpt lat="44.12646" lon="7.2575">
        <ele>1704.6</ele>
        <time>2017-08-25T13:15:06Z</time>
      </trkpt>
      <trkpt lat="44.12634" lon="7.25754">
        <ele>1702.4</ele>
        <time>2017-08-25T13:15:18Z</time>
      </trkpt>
      <trkpt lat="44.12627" lon="7.25757">
        <ele>1702.5</ele>
        <time>2017-08-25T13:15:31Z</time>
      </trkpt>
      <trkpt lat="44.1262" lon="7.25762">
        <ele>1702</ele>
        <time>2017-08-25T13:15:43Z</time>
      </trkpt>
      <trkpt lat="44.12616" lon="7.25765">
        <ele>1701.4</ele>
        <time>2017-08-25T13:15:55Z</time>
      </trkpt>
      <trkpt lat="44.12612" lon="7.2578">
        <ele>1697.7</ele>
        <time>2017-08-25T13:16:05Z</time>
      </trkpt>
      <trkpt lat="44.12614" lon="7.25787">
        <ele>1697</ele>
        <time>2017-08-25T13:16:14Z</time>
      </trkpt>
      <trkpt lat="44.12622" lon="7.25814">
        <ele>1696.8</ele>
        <time>2017-08-25T13:16:27Z</time>
      </trkpt>
      <trkpt lat="44.12623" lon="7.25825">
        <ele>1696.6</ele>
        <time>2017-08-25T13:16:31Z</time>
      </trkpt>
      <trkpt lat="44.12623" lon="7.25839">
        <ele>1695.2</ele>
        <time>2017-08-25T13:16:34Z</time>
      </trkpt>
      <trkpt lat="44.12628" lon="7.25864">
        <ele>1693.2</ele>
        <time>2017-08-25T13:16:43Z</time>
      </trkpt>
      <trkpt lat="44.12629" lon="7.25866">
        <ele>1693.2</ele>
        <time>2017-08-25T13:16:44Z</time>
      </trkpt>
      <trkpt lat="44.1263" lon="7.25892">
        <ele>1688.9</ele>
        <time>2017-08-25T13:16:56Z</time>
      </trkpt>
      <trkpt lat="44.12631" lon="7.25911">
        <ele>1686</ele>
        <time>2017-08-25T13:17:08Z</time>
      </trkpt>
      <trkpt lat="44.12632" lon="7.25935">
        <ele>1683.3</ele>
        <time>2017-08-25T13:17:18Z</time>
      </trkpt>
      <trkpt lat="44.12631" lon="7.2594">
        <ele>1682.5</ele>
        <time>2017-08-25T13:17:23Z</time>
      </trkpt>
      <trkpt lat="44.12631" lon="7.25949">
        <ele>1681.6</ele>
        <time>2017-08-25T13:17:27Z</time>
      </trkpt>
      <trkpt lat="44.1263" lon="7.25951">
        <ele>1681.2</ele>
        <time>2017-08-25T13:17:28Z</time>
      </trkpt>
      <trkpt lat="44.12628" lon="7.25955">
        <ele>1680.3</ele>
        <time>2017-08-25T13:17:30Z</time>
      </trkpt>
      <trkpt lat="44.12627" lon="7.25972">
        <ele>1678.6</ele>
        <time>2017-08-25T13:17:40Z</time>
      </trkpt>
      <trkpt lat="44.12621" lon="7.2599">
        <ele>1676</ele>
        <time>2017-08-25T13:17:52Z</time>
      </trkpt>
      <trkpt lat="44.12612" lon="7.25996">
        <ele>1672.6</ele>
        <time>2017-08-25T13:18:03Z</time>
      </trkpt>
      <trkpt lat="44.12608" lon="7.26001">
        <ele>1672.1</ele>
        <time>2017-08-25T13:18:08Z</time>
      </trkpt>
      <trkpt lat="44.12606" lon="7.26004">
        <ele>1672</ele>
        <time>2017-08-25T13:18:11Z</time>
      </trkpt>
      <trkpt lat="44.12605" lon="7.2601">
        <ele>1671.5</ele>
        <time>2017-08-25T13:18:13Z</time>
      </trkpt>
      <trkpt lat="44.12605" lon="7.26014">
        <ele>1671.1</ele>
        <time>2017-08-25T13:18:15Z</time>
      </trkpt>
      <trkpt lat="44.12605" lon="7.2603">
        <ele>1669.6</ele>
        <time>2017-08-25T13:18:25Z</time>
      </trkpt>
      <trkpt lat="44.12597" lon="7.26039">
        <ele>1668.1</ele>
        <time>2017-08-25T13:18:37Z</time>
      </trkpt>
      <trkpt lat="44.12594" lon="7.26051">
        <ele>1666.2</ele>
        <time>2017-08-25T13:18:50Z</time>
      </trkpt>
      <trkpt lat="44.12597" lon="7.26066">
        <ele>1664.8</ele>
        <time>2017-08-25T13:19:05Z</time>
      </trkpt>
      <trkpt lat="44.12597" lon="7.26066">
        <ele>1664.8</ele>
        <time>2017-08-25T13:19:31Z</time>
      </trkpt>
      <trkpt lat="44.12603" lon="7.26064">
        <ele>1665.9</ele>
        <time>2017-08-25T13:19:44Z</time>
      </trkpt>
      <trkpt lat="44.126" lon="7.26058">
        <ele>1666.1</ele>
        <time>2017-08-25T13:19:59Z</time>
      </trkpt>
      <trkpt lat="44.12599" lon="7.26058">
        <ele>1666</ele>
        <time>2017-08-25T13:20:15Z</time>
      </trkpt>
      <trkpt lat="44.12599" lon="7.26058">
        <ele>1666</ele>
        <time>2017-08-25T13:20:35Z</time>
      </trkpt>
      <trkpt lat="44.12597" lon="7.26059">
        <ele>1665.6</ele>
        <time>2017-08-25T13:20:56Z</time>
      </trkpt>
      <trkpt lat="44.12592" lon="7.26062">
        <ele>1664.6</ele>
        <time>2017-08-25T13:21:14Z</time>
      </trkpt>
      <trkpt lat="44.12592" lon="7.26062">
        <ele>1664.6</ele>
        <time>2017-08-25T13:21:35Z</time>
      </trkpt>
      <trkpt lat="44.12586" lon="7.26054">
        <ele>1664.6</ele>
        <time>2017-08-25T13:21:50Z</time>
      </trkpt>
      <trkpt lat="44.12578" lon="7.26053">
        <ele>1665.8</ele>
        <time>2017-08-25T13:22:05Z</time>
      </trkpt>
      <trkpt lat="44.12574" lon="7.26059">
        <ele>1665.9</ele>
        <time>2017-08-25T13:22:19Z</time>
      </trkpt>
      <trkpt lat="44.12574" lon="7.26081">
        <ele>1663.3</ele>
        <time>2017-08-25T13:22:30Z</time>
      </trkpt>
      <trkpt lat="44.12568" lon="7.26108">
        <ele>1661.6</ele>
        <time>2017-08-25T13:22:41Z</time>
      </trkpt>
      <trkpt lat="44.12561" lon="7.26122">
        <ele>1661.6</ele>
        <time>2017-08-25T13:22:54Z</time>
      </trkpt>
      <trkpt lat="44.12559" lon="7.2613">
        <ele>1661.2</ele>
        <time>2017-08-25T13:23:02Z</time>
      </trkpt>
      <trkpt lat="44.12557" lon="7.26137">
        <ele>1660.9</ele>
        <time>2017-08-25T13:23:07Z</time>
      </trkpt>
      <trkpt lat="44.12551" lon="7.26148">
        <ele>1662.9</ele>
        <time>2017-08-25T13:23:18Z</time>
      </trkpt>
      <trkpt lat="44.1255" lon="7.26159">
        <ele>1662.7</ele>
        <time>2017-08-25T13:23:25Z</time>
      </trkpt>
      <trkpt lat="44.12551" lon="7.26167">
        <ele>1661.6</ele>
        <time>2017-08-25T13:23:33Z</time>
      </trkpt>
      <trkpt lat="44.12552" lon="7.26171">
        <ele>1660.6</ele>
        <time>2017-08-25T13:23:35Z</time>
      </trkpt>
      <trkpt lat="44.12554" lon="7.26185">
        <ele>1658</ele>
        <time>2017-08-25T13:23:45Z</time>
      </trkpt>
      <trkpt lat="44.12555" lon="7.26207">
        <ele>1655</ele>
        <time>2017-08-25T13:23:57Z</time>
      </trkpt>
      <trkpt lat="44.12552" lon="7.26221">
        <ele>1655.8</ele>
        <time>2017-08-25T13:24:11Z</time>
      </trkpt>
      <trkpt lat="44.1255" lon="7.26249">
        <ele>1653.3</ele>
        <time>2017-08-25T13:24:24Z</time>
      </trkpt>
      <trkpt lat="44.12554" lon="7.26268">
        <ele>1647.4</ele>
        <time>2017-08-25T13:24:37Z</time>
      </trkpt>
      <trkpt lat="44.1255" lon="7.26277">
        <ele>1648.3</ele>
        <time>2017-08-25T13:24:45Z</time>
      </trkpt>
      <trkpt lat="44.12541" lon="7.26298">
        <ele>1647.1</ele>
        <time>2017-08-25T13:25:00Z</time>
      </trkpt>
      <trkpt lat="44.12538" lon="7.26322">
        <ele>1642.5</ele>
        <time>2017-08-25T13:25:13Z</time>
      </trkpt>
      <trkpt lat="44.12537" lon="7.26338">
        <ele>1639.6</ele>
        <time>2017-08-25T13:25:23Z</time>
      </trkpt>
      <trkpt lat="44.12534" lon="7.26352">
        <ele>1637.5</ele>
        <time>2017-08-25T13:25:34Z</time>
      </trkpt>
      <trkpt lat="44.12533" lon="7.26356">
        <ele>1636.8</ele>
        <time>2017-08-25T13:25:37Z</time>
      </trkpt>
      <trkpt lat="44.12527" lon="7.26366">
        <ele>1635.4</ele>
        <time>2017-08-25T13:25:46Z</time>
      </trkpt>
      <trkpt lat="44.12523" lon="7.26383">
        <ele>1633.4</ele>
        <time>2017-08-25T13:25:58Z</time>
      </trkpt>
      <trkpt lat="44.12518" lon="7.26395">
        <ele>1632.5</ele>
        <time>2017-08-25T13:26:10Z</time>
      </trkpt>
      <trkpt lat="44.12507" lon="7.26401">
        <ele>1634.2</ele>
        <time>2017-08-25T13:26:21Z</time>
      </trkpt>
      <trkpt lat="44.12497" lon="7.26416">
        <ele>1634.6</ele>
        <time>2017-08-25T13:26:32Z</time>
      </trkpt>
      <trkpt lat="44.12497" lon="7.26417">
        <ele>1634.5</ele>
        <time>2017-08-25T13:26:33Z</time>
      </trkpt>
      <trkpt lat="44.12496" lon="7.26437">
        <ele>1631.9</ele>
        <time>2017-08-25T13:26:44Z</time>
      </trkpt>
      <trkpt lat="44.12494" lon="7.26441">
        <ele>1632.1</ele>
        <time>2017-08-25T13:26:48Z</time>
      </trkpt>
      <trkpt lat="44.12495" lon="7.26462">
        <ele>1628.4</ele>
        <time>2017-08-25T13:27:00Z</time>
      </trkpt>
      <trkpt lat="44.12493" lon="7.26476">
        <ele>1626.8</ele>
        <time>2017-08-25T13:27:07Z</time>
      </trkpt>
      <trkpt lat="44.12489" lon="7.26491">
        <ele>1625</ele>
        <time>2017-08-25T13:27:19Z</time>
      </trkpt>
      <trkpt lat="44.12486" lon="7.26504">
        <ele>1623.4</ele>
        <time>2017-08-25T13:27:27Z</time>
      </trkpt>
      <trkpt lat="44.1248" lon="7.26512">
        <ele>1623.5</ele>
        <time>2017-08-25T13:27:34Z</time>
      </trkpt>
      <trkpt lat="44.12477" lon="7.26514">
        <ele>1623.9</ele>
        <time>2017-08-25T13:27:38Z</time>
      </trkpt>
      <trkpt lat="44.12473" lon="7.26526">
        <ele>1622.2</ele>
        <time>2017-08-25T13:27:50Z</time>
      </trkpt>
      <trkpt lat="44.12473" lon="7.26528">
        <ele>1621.8</ele>
        <time>2017-08-25T13:27:51Z</time>
      </trkpt>
      <trkpt lat="44.12471" lon="7.26538">
        <ele>1620.5</ele>
        <time>2017-08-25T13:27:59Z</time>
      </trkpt>
      <trkpt lat="44.12467" lon="7.26554">
        <ele>1618.3</ele>
        <time>2017-08-25T13:28:14Z</time>
      </trkpt>
      <trkpt lat="44.12455" lon="7.26567">
        <ele>1618.3</ele>
        <time>2017-08-25T13:28:29Z</time>
      </trkpt>
      <trkpt lat="44.1245" lon="7.26575">
        <ele>1617.4</ele>
        <time>2017-08-25T13:28:42Z</time>
      </trkpt>
      <trkpt lat="44.12442" lon="7.26592">
        <ele>1615.7</ele>
        <time>2017-08-25T13:28:55Z</time>
      </trkpt>
      <trkpt lat="44.1244" lon="7.266">
        <ele>1615.1</ele>
        <time>2017-08-25T13:29:02Z</time>
      </trkpt>
      <trkpt lat="44.12424" lon="7.26624">
        <ele>1614.6</ele>
        <time>2017-08-25T13:29:16Z</time>
      </trkpt>
      <trkpt lat="44.12423" lon="7.2663">
        <ele>1614</ele>
        <time>2017-08-25T13:29:19Z</time>
      </trkpt>
      <trkpt lat="44.12421" lon="7.26643">
        <ele>1612.5</ele>
        <time>2017-08-25T13:29:27Z</time>
      </trkpt>
      <trkpt lat="44.12421" lon="7.26652">
        <ele>1611.5</ele>
        <time>2017-08-25T13:29:39Z</time>
      </trkpt>
      <trkpt lat="44.1242" lon="7.26658">
        <ele>1610.7</ele>
        <time>2017-08-25T13:29:42Z</time>
      </trkpt>
      <trkpt lat="44.12416" lon="7.26665">
        <ele>1609.3</ele>
        <time>2017-08-25T13:29:47Z</time>
      </trkpt>
      <trkpt lat="44.12405" lon="7.26678">
        <ele>1607.7</ele>
        <time>2017-08-25T13:29:59Z</time>
      </trkpt>
      <trkpt lat="44.12398" lon="7.26687">
        <ele>1605.7</ele>
        <time>2017-08-25T13:30:06Z</time>
      </trkpt>
      <trkpt lat="44.12396" lon="7.2669">
        <ele>1604.9</ele>
        <time>2017-08-25T13:30:08Z</time>
      </trkpt>
      <trkpt lat="44.12389" lon="7.26695">
        <ele>1603</ele>
        <time>2017-08-25T13:30:14Z</time>
      </trkpt>
      <trkpt lat="44.1238" lon="7.26701">
        <ele>1602.9</ele>
        <time>2017-08-25T13:30:20Z</time>
      </trkpt>
      <trkpt lat="44.12377" lon="7.26702">
        <ele>1602.9</ele>
        <time>2017-08-25T13:30:22Z</time>
      </trkpt>
      <trkpt lat="44.12368" lon="7.26721">
        <ele>1598.8</ele>
        <time>2017-08-25T13:30:34Z</time>
      </trkpt>
      <trkpt lat="44.12365" lon="7.26724">
        <ele>1598.1</ele>
        <time>2017-08-25T13:30:37Z</time>
      </trkpt>
      <trkpt lat="44.12354" lon="7.26734">
        <ele>1596.9</ele>
        <time>2017-08-25T13:30:48Z</time>
      </trkpt>
      <trkpt lat="44.12346" lon="7.2674">
        <ele>1596.2</ele>
        <time>2017-08-25T13:31:01Z</time>
      </trkpt>
      <trkpt lat="44.12335" lon="7.26759">
        <ele>1592.8</ele>
        <time>2017-08-25T13:31:14Z</time>
      </trkpt>
      <trkpt lat="44.12333" lon="7.26764">
        <ele>1592.1</ele>
        <time>2017-08-25T13:31:18Z</time>
      </trkpt>
      <trkpt lat="44.12324" lon="7.26766">
        <ele>1593.6</ele>
        <time>2017-08-25T13:31:31Z</time>
      </trkpt>
      <trkpt lat="44.12323" lon="7.26766">
        <ele>1593.8</ele>
        <time>2017-08-25T13:31:32Z</time>
      </trkpt>
      <trkpt lat="44.12316" lon="7.26771">
        <ele>1594.1</ele>
        <time>2017-08-25T13:31:37Z</time>
      </trkpt>
      <trkpt lat="44.12306" lon="7.26782">
        <ele>1593.3</ele>
        <time>2017-08-25T13:31:49Z</time>
      </trkpt>
      <trkpt lat="44.123" lon="7.268">
        <ele>1592.9</ele>
        <time>2017-08-25T13:32:01Z</time>
      </trkpt>
      <trkpt lat="44.12299" lon="7.26805">
        <ele>1592.5</ele>
        <time>2017-08-25T13:32:04Z</time>
      </trkpt>
      <trkpt lat="44.12304" lon="7.26832">
        <ele>1586.7</ele>
        <time>2017-08-25T13:32:17Z</time>
      </trkpt>
      <trkpt lat="44.12304" lon="7.26836">
        <ele>1586.2</ele>
        <time>2017-08-25T13:32:23Z</time>
      </trkpt>
      <trkpt lat="44.12305" lon="7.26854">
        <ele>1583.9</ele>
        <time>2017-08-25T13:32:36Z</time>
      </trkpt>
      <trkpt lat="44.12305" lon="7.26864">
        <ele>1583</ele>
        <time>2017-08-25T13:32:43Z</time>
      </trkpt>
      <trkpt lat="44.12302" lon="7.26869">
        <ele>1583.5</ele>
        <time>2017-08-25T13:32:47Z</time>
      </trkpt>
      <trkpt lat="44.123" lon="7.26875">
        <ele>1583.7</ele>
        <time>2017-08-25T13:32:51Z</time>
      </trkpt>
      <trkpt lat="44.12296" lon="7.26891">
        <ele>1583.6</ele>
        <time>2017-08-25T13:33:01Z</time>
      </trkpt>
      <trkpt lat="44.12288" lon="7.26905">
        <ele>1584.1</ele>
        <time>2017-08-25T13:33:13Z</time>
      </trkpt>
      <trkpt lat="44.1228" lon="7.26917">
        <ele>1583.8</ele>
        <time>2017-08-25T13:33:25Z</time>
      </trkpt>
      <trkpt lat="44.12274" lon="7.26926">
        <ele>1583.9</ele>
        <time>2017-08-25T13:33:43Z</time>
      </trkpt>
      <trkpt lat="44.12263" lon="7.2694">
        <ele>1584.4</ele>
        <time>2017-08-25T13:33:57Z</time>
      </trkpt>
      <trkpt lat="44.12254" lon="7.26956">
        <ele>1583.4</ele>
        <time>2017-08-25T13:34:08Z</time>
      </trkpt>
      <trkpt lat="44.12249" lon="7.26966">
        <ele>1582.4</ele>
        <time>2017-08-25T13:34:14Z</time>
      </trkpt>
      <trkpt lat="44.12237" lon="7.2698">
        <ele>1582.4</ele>
        <time>2017-08-25T13:34:27Z</time>
      </trkpt>
      <trkpt lat="44.12229" lon="7.26986">
        <ele>1582.5</ele>
        <time>2017-08-25T13:34:36Z</time>
      </trkpt>
      <trkpt lat="44.1222" lon="7.26997">
        <ele>1581</ele>
        <time>2017-08-25T13:34:43Z</time>
      </trkpt>
      <trkpt lat="44.1221" lon="7.2702">
        <ele>1576.8</ele>
        <time>2017-08-25T13:34:58Z</time>
      </trkpt>
      <trkpt lat="44.12198" lon="7.27033">
        <ele>1574.2</ele>
        <time>2017-08-25T13:35:11Z</time>
      </trkpt>
      <trkpt lat="44.12197" lon="7.27039">
        <ele>1573.2</ele>
        <time>2017-08-25T13:35:24Z</time>
      </trkpt>
      <trkpt lat="44.12191" lon="7.27044">
        <ele>1571.9</ele>
        <time>2017-08-25T13:35:34Z</time>
      </trkpt>
      <trkpt lat="44.12192" lon="7.27045">
        <ele>1571.8</ele>
        <time>2017-08-25T13:35:38Z</time>
      </trkpt>
      <trkpt lat="44.12196" lon="7.2705">
        <ele>1571.2</ele>
        <time>2017-08-25T13:35:44Z</time>
      </trkpt>
      <trkpt lat="44.12203" lon="7.27055">
        <ele>1571.6</ele>
        <time>2017-08-25T13:35:57Z</time>
      </trkpt>
      <trkpt lat="44.122" lon="7.27064">
        <ele>1570.9</ele>
        <time>2017-08-25T13:36:09Z</time>
      </trkpt>
      <trkpt lat="44.12201" lon="7.27066">
        <ele>1571.1</ele>
        <time>2017-08-25T13:36:21Z</time>
      </trkpt>
      <trkpt lat="44.12202" lon="7.27065">
        <ele>1571.3</ele>
        <time>2017-08-25T13:36:26Z</time>
      </trkpt>
      <trkpt lat="44.12211" lon="7.27082">
        <ele>1573.7</ele>
        <time>2017-08-25T13:36:40Z</time>
      </trkpt>
      <trkpt lat="44.12222" lon="7.27086">
        <ele>1577.2</ele>
        <time>2017-08-25T13:36:55Z</time>
      </trkpt>
      <trkpt lat="44.12226" lon="7.27094">
        <ele>1579.6</ele>
        <time>2017-08-25T13:37:08Z</time>
      </trkpt>
      <trkpt lat="44.1222" lon="7.27096">
        <ele>1577.7</ele>
        <time>2017-08-25T13:37:20Z</time>
      </trkpt>
      <trkpt lat="44.1222" lon="7.27096">
        <ele>1577.7</ele>
        <time>2017-08-25T13:37:33Z</time>
      </trkpt>
      <trkpt lat="44.1222" lon="7.27096">
        <ele>1577.7</ele>
        <time>2017-08-25T13:37:46Z</time>
      </trkpt>
      <trkpt lat="44.12229" lon="7.27104">
        <ele>1581.9</ele>
        <time>2017-08-25T13:38:01Z</time>
      </trkpt>
      <trkpt lat="44.12228" lon="7.27111">
        <ele>1582.3</ele>
        <time>2017-08-25T13:38:17Z</time>
      </trkpt>
      <trkpt lat="44.12219" lon="7.2712">
        <ele>1580.7</ele>
        <time>2017-08-25T13:38:33Z</time>
      </trkpt>
      <trkpt lat="44.1221" lon="7.27124">
        <ele>1579</ele>
        <time>2017-08-25T13:38:48Z</time>
      </trkpt>
      <trkpt lat="44.12206" lon="7.27127">
        <ele>1578.5</ele>
        <time>2017-08-25T13:38:54Z</time>
      </trkpt>
      <trkpt lat="44.12195" lon="7.2713">
        <ele>1576.2</ele>
        <time>2017-08-25T13:39:04Z</time>
      </trkpt>
      <trkpt lat="44.12184" lon="7.27141">
        <ele>1575.8</ele>
        <time>2017-08-25T13:39:14Z</time>
      </trkpt>
      <trkpt lat="44.12172" lon="7.27161">
        <ele>1577.1</ele>
        <time>2017-08-25T13:39:30Z</time>
      </trkpt>
      <trkpt lat="44.12162" lon="7.27171">
        <ele>1577</ele>
        <time>2017-08-25T13:39:44Z</time>
      </trkpt>
      <trkpt lat="44.12155" lon="7.27176">
        <ele>1576.4</ele>
        <time>2017-08-25T13:39:51Z</time>
      </trkpt>
      <trkpt lat="44.12145" lon="7.27187">
        <ele>1576.2</ele>
        <time>2017-08-25T13:40:03Z</time>
      </trkpt>
      <trkpt lat="44.12131" lon="7.27202">
        <ele>1575.1</ele>
        <time>2017-08-25T13:40:17Z</time>
      </trkpt>
      <trkpt lat="44.12117" lon="7.27226">
        <ele>1575.2</ele>
        <time>2017-08-25T13:40:34Z</time>
      </trkpt>
      <trkpt lat="44.12109" lon="7.27244">
        <ele>1576.1</ele>
        <time>2017-08-25T13:40:47Z</time>
      </trkpt>
      <trkpt lat="44.12107" lon="7.27247">
        <ele>1575.8</ele>
        <time>2017-08-25T13:40:49Z</time>
      </trkpt>
      <trkpt lat="44.12098" lon="7.27269">
        <ele>1578</ele>
        <time>2017-08-25T13:41:04Z</time>
      </trkpt>
      <trkpt lat="44.12096" lon="7.27272">
        <ele>1577.7</ele>
        <time>2017-08-25T13:41:06Z</time>
      </trkpt>
      <trkpt lat="44.12094" lon="7.27276">
        <ele>1577.7</ele>
        <time>2017-08-25T13:41:09Z</time>
      </trkpt>
      <trkpt lat="44.12083" lon="7.27296">
        <ele>1576.7</ele>
        <time>2017-08-25T13:41:23Z</time>
      </trkpt>
      <trkpt lat="44.12074" lon="7.27311">
        <ele>1576</ele>
        <time>2017-08-25T13:41:34Z</time>
      </trkpt>
      <trkpt lat="44.12072" lon="7.27314">
        <ele>1575.9</ele>
        <time>2017-08-25T13:41:36Z</time>
      </trkpt>
      <trkpt lat="44.12059" lon="7.27332">
        <ele>1573.9</ele>
        <time>2017-08-25T13:41:51Z</time>
      </trkpt>
      <trkpt lat="44.12054" lon="7.27337">
        <ele>1572.5</ele>
        <time>2017-08-25T13:41:55Z</time>
      </trkpt>
      <trkpt lat="44.12041" lon="7.27353">
        <ele>1570.9</ele>
        <time>2017-08-25T13:42:10Z</time>
      </trkpt>
      <trkpt lat="44.12034" lon="7.27361">
        <ele>1569.8</ele>
        <time>2017-08-25T13:42:18Z</time>
      </trkpt>
      <trkpt lat="44.12032" lon="7.27363">
        <ele>1569.3</ele>
        <time>2017-08-25T13:42:20Z</time>
      </trkpt>
      <trkpt lat="44.12026" lon="7.2737">
        <ele>1568.2</ele>
        <time>2017-08-25T13:42:26Z</time>
      </trkpt>
      <trkpt lat="44.12011" lon="7.27388">
        <ele>1565.4</ele>
        <time>2017-08-25T13:42:41Z</time>
      </trkpt>
      <trkpt lat="44.12006" lon="7.27396">
        <ele>1564.1</ele>
        <time>2017-08-25T13:42:46Z</time>
      </trkpt>
      <trkpt lat="44.11995" lon="7.27407">
        <ele>1559.3</ele>
        <time>2017-08-25T13:42:56Z</time>
      </trkpt>
      <trkpt lat="44.11995" lon="7.27408">
        <ele>1559.4</ele>
        <time>2017-08-25T13:42:57Z</time>
      </trkpt>
      <trkpt lat="44.1199" lon="7.27418">
        <ele>1557.9</ele>
        <time>2017-08-25T13:43:04Z</time>
      </trkpt>
      <trkpt lat="44.11991" lon="7.27434">
        <ele>1559.1</ele>
        <time>2017-08-25T13:43:14Z</time>
      </trkpt>
      <trkpt lat="44.1199" lon="7.27465">
        <ele>1559.1</ele>
        <time>2017-08-25T13:43:30Z</time>
      </trkpt>
      <trkpt lat="44.11989" lon="7.27471">
        <ele>1558.6</ele>
        <time>2017-08-25T13:43:33Z</time>
      </trkpt>
      <trkpt lat="44.11986" lon="7.27488">
        <ele>1558.9</ele>
        <time>2017-08-25T13:43:47Z</time>
      </trkpt>
      <trkpt lat="44.11977" lon="7.27492">
        <ele>1554.9</ele>
        <time>2017-08-25T13:43:54Z</time>
      </trkpt>
      <trkpt lat="44.11974" lon="7.27496">
        <ele>1554.1</ele>
        <time>2017-08-25T13:43:59Z</time>
      </trkpt>
      <trkpt lat="44.11953" lon="7.27498">
        <ele>1546</ele>
        <time>2017-08-25T13:44:13Z</time>
      </trkpt>
      <trkpt lat="44.11939" lon="7.27505">
        <ele>1541.9</ele>
        <time>2017-08-25T13:44:25Z</time>
      </trkpt>
      <trkpt lat="44.11926" lon="7.27526">
        <ele>1540.1</ele>
        <time>2017-08-25T13:44:41Z</time>
      </trkpt>
      <trkpt lat="44.11933" lon="7.2755">
        <ele>1543</ele>
        <time>2017-08-25T13:44:56Z</time>
      </trkpt>
      <trkpt lat="44.11939" lon="7.27573">
        <ele>1544.9</ele>
        <time>2017-08-25T13:45:10Z</time>
      </trkpt>
      <trkpt lat="44.11937" lon="7.27595">
        <ele>1546.8</ele>
        <time>2017-08-25T13:45:23Z</time>
      </trkpt>
      <trkpt lat="44.11937" lon="7.27598">
        <ele>1547.7</ele>
        <time>2017-08-25T13:45:24Z</time>
      </trkpt>
      <trkpt lat="44.11935" lon="7.27602">
        <ele>1548.1</ele>
        <time>2017-08-25T13:45:27Z</time>
      </trkpt>
      <trkpt lat="44.11934" lon="7.27603">
        <ele>1548</ele>
        <time>2017-08-25T13:45:28Z</time>
      </trkpt>
      <trkpt lat="44.11931" lon="7.27605">
        <ele>1547.6</ele>
        <time>2017-08-25T13:45:31Z</time>
      </trkpt>
      <trkpt lat="44.11918" lon="7.27611">
        <ele>1545.4</ele>
        <time>2017-08-25T13:45:42Z</time>
      </trkpt>
      <trkpt lat="44.11896" lon="7.27615">
        <ele>1541.2</ele>
        <time>2017-08-25T13:45:58Z</time>
      </trkpt>
      <trkpt lat="44.11879" lon="7.2763">
        <ele>1538</ele>
        <time>2017-08-25T13:46:13Z</time>
      </trkpt>
      <trkpt lat="44.11878" lon="7.27633">
        <ele>1538.1</ele>
        <time>2017-08-25T13:46:15Z</time>
      </trkpt>
      <trkpt lat="44.11873" lon="7.27662">
        <ele>1543.2</ele>
        <time>2017-08-25T13:46:32Z</time>
      </trkpt>
      <trkpt lat="44.11856" lon="7.27674">
        <ele>1536.1</ele>
        <time>2017-08-25T13:46:46Z</time>
      </trkpt>
      <trkpt lat="44.11842" lon="7.27691">
        <ele>1535</ele>
        <time>2017-08-25T13:47:00Z</time>
      </trkpt>
      <trkpt lat="44.11829" lon="7.27707">
        <ele>1534.3</ele>
        <time>2017-08-25T13:47:13Z</time>
      </trkpt>
      <trkpt lat="44.11828" lon="7.27708">
        <ele>1534.1</ele>
        <time>2017-08-25T13:47:14Z</time>
      </trkpt>
      <trkpt lat="44.11827" lon="7.2771">
        <ele>1534.4</ele>
        <time>2017-08-25T13:47:15Z</time>
      </trkpt>
      <trkpt lat="44.11821" lon="7.27717">
        <ele>1533.6</ele>
        <time>2017-08-25T13:47:21Z</time>
      </trkpt>
      <trkpt lat="44.11801" lon="7.27731">
        <ele>1526.3</ele>
        <time>2017-08-25T13:47:38Z</time>
      </trkpt>
      <trkpt lat="44.11786" lon="7.27754">
        <ele>1526.9</ele>
        <time>2017-08-25T13:47:54Z</time>
      </trkpt>
      <trkpt lat="44.11773" lon="7.27775">
        <ele>1528.3</ele>
        <time>2017-08-25T13:48:10Z</time>
      </trkpt>
      <trkpt lat="44.11756" lon="7.27796">
        <ele>1526.8</ele>
        <time>2017-08-25T13:48:27Z</time>
      </trkpt>
      <trkpt lat="44.11739" lon="7.27809">
        <ele>1521.6</ele>
        <time>2017-08-25T13:48:41Z</time>
      </trkpt>
      <trkpt lat="44.11724" lon="7.27817">
        <ele>1515.5</ele>
        <time>2017-08-25T13:48:54Z</time>
      </trkpt>
      <trkpt lat="44.11712" lon="7.27843">
        <ele>1519.3</ele>
        <time>2017-08-25T13:49:11Z</time>
      </trkpt>
      <trkpt lat="44.11708" lon="7.27851">
        <ele>1520.2</ele>
        <time>2017-08-25T13:49:16Z</time>
      </trkpt>
      <trkpt lat="44.11701" lon="7.27874">
        <ele>1525.7</ele>
        <time>2017-08-25T13:49:30Z</time>
      </trkpt>
      <trkpt lat="44.11697" lon="7.27879">
        <ele>1525.3</ele>
        <time>2017-08-25T13:49:34Z</time>
      </trkpt>
      <trkpt lat="44.11696" lon="7.27879">
        <ele>1524.7</ele>
        <time>2017-08-25T13:49:35Z</time>
      </trkpt>
      <trkpt lat="44.11677" lon="7.27882">
        <ele>1517</ele>
        <time>2017-08-25T13:49:48Z</time>
      </trkpt>
      <trkpt lat="44.1166" lon="7.27886">
        <ele>1512</ele>
        <time>2017-08-25T13:50:02Z</time>
      </trkpt>
      <trkpt lat="44.11642" lon="7.27904">
        <ele>1514.7</ele>
        <time>2017-08-25T13:50:18Z</time>
      </trkpt>
      <trkpt lat="44.11623" lon="7.27918">
        <ele>1513.8</ele>
        <time>2017-08-25T13:50:34Z</time>
      </trkpt>
      <trkpt lat="44.11609" lon="7.27937">
        <ele>1516.3</ele>
        <time>2017-08-25T13:50:49Z</time>
      </trkpt>
      <trkpt lat="44.11604" lon="7.27948">
        <ele>1518.3</ele>
        <time>2017-08-25T13:50:56Z</time>
      </trkpt>
      <trkpt lat="44.11592" lon="7.2797">
        <ele>1520.1</ele>
        <time>2017-08-25T13:51:11Z</time>
      </trkpt>
      <trkpt lat="44.11577" lon="7.27986">
        <ele>1515.8</ele>
        <time>2017-08-25T13:51:26Z</time>
      </trkpt>
      <trkpt lat="44.11567" lon="7.28011">
        <ele>1514.4</ele>
        <time>2017-08-25T13:51:42Z</time>
      </trkpt>
      <trkpt lat="44.11567" lon="7.28017">
        <ele>1515.4</ele>
        <time>2017-08-25T13:51:45Z</time>
      </trkpt>
      <trkpt lat="44.11567" lon="7.28041">
        <ele>1518.2</ele>
        <time>2017-08-25T13:51:58Z</time>
      </trkpt>
      <trkpt lat="44.11569" lon="7.28071">
        <ele>1520.3</ele>
        <time>2017-08-25T13:52:15Z</time>
      </trkpt>
      <trkpt lat="44.11568" lon="7.28079">
        <ele>1519</ele>
        <time>2017-08-25T13:52:20Z</time>
      </trkpt>
      <trkpt lat="44.11568" lon="7.28081">
        <ele>1518.9</ele>
        <time>2017-08-25T13:52:21Z</time>
      </trkpt>
      <trkpt lat="44.11568" lon="7.28083">
        <ele>1518.8</ele>
        <time>2017-08-25T13:52:22Z</time>
      </trkpt>
      <trkpt lat="44.11569" lon="7.28085">
        <ele>1519.5</ele>
        <time>2017-08-25T13:52:23Z</time>
      </trkpt>
      <trkpt lat="44.11569" lon="7.28086">
        <ele>1519.4</ele>
        <time>2017-08-25T13:52:24Z</time>
      </trkpt>
      <trkpt lat="44.11569" lon="7.28088">
        <ele>1519.3</ele>
        <time>2017-08-25T13:52:25Z</time>
      </trkpt>
      <trkpt lat="44.1157" lon="7.28094">
        <ele>1519.7</ele>
        <time>2017-08-25T13:52:28Z</time>
      </trkpt>
      <trkpt lat="44.11571" lon="7.28096">
        <ele>1520.4</ele>
        <time>2017-08-25T13:52:29Z</time>
      </trkpt>
      <trkpt lat="44.11576" lon="7.28124">
        <ele>1522.5</ele>
        <time>2017-08-25T13:52:45Z</time>
      </trkpt>
      <trkpt lat="44.11577" lon="7.28153">
        <ele>1521.5</ele>
        <time>2017-08-25T13:53:00Z</time>
      </trkpt>
      <trkpt lat="44.11578" lon="7.28179">
        <ele>1521.5</ele>
        <time>2017-08-25T13:53:14Z</time>
      </trkpt>
      <trkpt lat="44.1158" lon="7.28185">
        <ele>1522.9</ele>
        <time>2017-08-25T13:53:17Z</time>
      </trkpt>
      <trkpt lat="44.1158" lon="7.28187">
        <ele>1522.8</ele>
        <time>2017-08-25T13:53:18Z</time>
      </trkpt>
      <trkpt lat="44.1158" lon="7.28192">
        <ele>1522.7</ele>
        <time>2017-08-25T13:53:21Z</time>
      </trkpt>
      <trkpt lat="44.1158" lon="7.28194">
        <ele>1522.6</ele>
        <time>2017-08-25T13:53:22Z</time>
      </trkpt>
      <trkpt lat="44.11574" lon="7.28226">
        <ele>1519.6</ele>
        <time>2017-08-25T13:53:39Z</time>
      </trkpt>
      <trkpt lat="44.11572" lon="7.28234">
        <ele>1518.2</ele>
        <time>2017-08-25T13:53:43Z</time>
      </trkpt>
      <trkpt lat="44.11572" lon="7.28235">
        <ele>1518.2</ele>
        <time>2017-08-25T13:53:44Z</time>
      </trkpt>
      <trkpt lat="44.11572" lon="7.28237">
        <ele>1518.2</ele>
        <time>2017-08-25T13:53:45Z</time>
      </trkpt>
      <trkpt lat="44.11572" lon="7.28239">
        <ele>1518.1</ele>
        <time>2017-08-25T13:53:46Z</time>
      </trkpt>
      <trkpt lat="44.11572" lon="7.28241">
        <ele>1518.1</ele>
        <time>2017-08-25T13:53:47Z</time>
      </trkpt>
      <trkpt lat="44.11572" lon="7.28242">
        <ele>1518.1</ele>
        <time>2017-08-25T13:53:48Z</time>
      </trkpt>
      <trkpt lat="44.11576" lon="7.28269">
        <ele>1519.7</ele>
        <time>2017-08-25T13:54:02Z</time>
      </trkpt>
      <trkpt lat="44.11576" lon="7.28281">
        <ele>1519.7</ele>
        <time>2017-08-25T13:54:08Z</time>
      </trkpt>
      <trkpt lat="44.11563" lon="7.28304">
        <ele>1517</ele>
        <time>2017-08-25T13:54:23Z</time>
      </trkpt>
      <trkpt lat="44.11555" lon="7.28313">
        <ele>1515.4</ele>
        <time>2017-08-25T13:54:30Z</time>
      </trkpt>
      <trkpt lat="44.11555" lon="7.28315">
        <ele>1515.8</ele>
        <time>2017-08-25T13:54:31Z</time>
      </trkpt>
      <trkpt lat="44.11545" lon="7.28346">
        <ele>1517.6</ele>
        <time>2017-08-25T13:54:48Z</time>
      </trkpt>
      <trkpt lat="44.11538" lon="7.28369">
        <ele>1518.5</ele>
        <time>2017-08-25T13:55:01Z</time>
      </trkpt>
      <trkpt lat="44.11532" lon="7.284">
        <ele>1520.1</ele>
        <time>2017-08-25T13:55:18Z</time>
      </trkpt>
      <trkpt lat="44.11525" lon="7.28428">
        <ele>1520.6</ele>
        <time>2017-08-25T13:55:34Z</time>
      </trkpt>
      <trkpt lat="44.11524" lon="7.28433">
        <ele>1521</ele>
        <time>2017-08-25T13:55:37Z</time>
      </trkpt>
      <trkpt lat="44.11518" lon="7.28452">
        <ele>1521.6</ele>
        <time>2017-08-25T13:55:48Z</time>
      </trkpt>
      <trkpt lat="44.11518" lon="7.28454">
        <ele>1522</ele>
        <time>2017-08-25T13:55:49Z</time>
      </trkpt>
      <trkpt lat="44.11517" lon="7.28455">
        <ele>1521.7</ele>
        <time>2017-08-25T13:55:50Z</time>
      </trkpt>
      <trkpt lat="44.11511" lon="7.28473">
        <ele>1522.1</ele>
        <time>2017-08-25T13:56:01Z</time>
      </trkpt>
      <trkpt lat="44.11499" lon="7.28497">
        <ele>1520</ele>
        <time>2017-08-25T13:56:17Z</time>
      </trkpt>
      <trkpt lat="44.11489" lon="7.2852">
        <ele>1519</ele>
        <time>2017-08-25T13:56:32Z</time>
      </trkpt>
      <trkpt lat="44.1148" lon="7.28553">
        <ele>1518.4</ele>
        <time>2017-08-25T13:56:52Z</time>
      </trkpt>
      <trkpt lat="44.11476" lon="7.28578">
        <ele>1518.5</ele>
        <time>2017-08-25T13:57:07Z</time>
      </trkpt>
      <trkpt lat="44.11475" lon="7.2858">
        <ele>1518.1</ele>
        <time>2017-08-25T13:57:08Z</time>
      </trkpt>
      <trkpt lat="44.11474" lon="7.28583">
        <ele>1517.9</ele>
        <time>2017-08-25T13:57:09Z</time>
      </trkpt>
      <trkpt lat="44.11473" lon="7.28588">
        <ele>1517.9</ele>
        <time>2017-08-25T13:57:12Z</time>
      </trkpt>
      <trkpt lat="44.1147" lon="7.28607">
        <ele>1518.4</ele>
        <time>2017-08-25T13:57:22Z</time>
      </trkpt>
      <trkpt lat="44.11463" lon="7.28623">
        <ele>1516.9</ele>
        <time>2017-08-25T13:57:34Z</time>
      </trkpt>
      <trkpt lat="44.11454" lon="7.28642">
        <ele>1514.6</ele>
        <time>2017-08-25T13:57:46Z</time>
      </trkpt>
      <trkpt lat="44.11451" lon="7.28646">
        <ele>1513.5</ele>
        <time>2017-08-25T13:57:52Z</time>
      </trkpt>
      <trkpt lat="44.1145" lon="7.28648">
        <ele>1513.2</ele>
        <time>2017-08-25T13:57:53Z</time>
      </trkpt>
      <trkpt lat="44.11449" lon="7.28655">
        <ele>1513.7</ele>
        <time>2017-08-25T13:57:58Z</time>
      </trkpt>
      <trkpt lat="44.11448" lon="7.28657">
        <ele>1513.4</ele>
        <time>2017-08-25T13:57:59Z</time>
      </trkpt>
      <trkpt lat="44.11448" lon="7.28659">
        <ele>1513.7</ele>
        <time>2017-08-25T13:58:00Z</time>
      </trkpt>
      <trkpt lat="44.11448" lon="7.28661">
        <ele>1514</ele>
        <time>2017-08-25T13:58:09Z</time>
      </trkpt>
      <trkpt lat="44.11447" lon="7.28676">
        <ele>1515.3</ele>
        <time>2017-08-25T13:58:24Z</time>
      </trkpt>
      <trkpt lat="44.11445" lon="7.2868">
        <ele>1514.7</ele>
        <time>2017-08-25T13:58:26Z</time>
      </trkpt>
      <trkpt lat="44.11442" lon="7.28688">
        <ele>1513.9</ele>
        <time>2017-08-25T13:58:31Z</time>
      </trkpt>
      <trkpt lat="44.11441" lon="7.28694">
        <ele>1514</ele>
        <time>2017-08-25T13:58:35Z</time>
      </trkpt>
      <trkpt lat="44.11441" lon="7.28696">
        <ele>1514.1</ele>
        <time>2017-08-25T13:58:36Z</time>
      </trkpt>
      <trkpt lat="44.1144" lon="7.28722">
        <ele>1515.4</ele>
        <time>2017-08-25T13:58:52Z</time>
      </trkpt>
      <trkpt lat="44.11441" lon="7.28751">
        <ele>1517.2</ele>
        <time>2017-08-25T13:59:11Z</time>
      </trkpt>
      <trkpt lat="44.11443" lon="7.2877">
        <ele>1518.9</ele>
        <time>2017-08-25T13:59:28Z</time>
      </trkpt>
      <trkpt lat="44.11444" lon="7.28785">
        <ele>1519.8</ele>
        <time>2017-08-25T13:59:42Z</time>
      </trkpt>
      <trkpt lat="44.11445" lon="7.28798">
        <ele>1520.3</ele>
        <time>2017-08-25T13:59:54Z</time>
      </trkpt>
      <trkpt lat="44.11445" lon="7.28801">
        <ele>1520.3</ele>
        <time>2017-08-25T14:00:04Z</time>
      </trkpt>
      <trkpt lat="44.11445" lon="7.28801">
        <ele>1520.3</ele>
        <time>2017-08-25T14:00:06Z</time>
      </trkpt>
    </trkseg>
  </trk>
  <trk>
    <name><![CDATA[20171017105021-22F3R]]></name>
    <trkseg>
      <trkpt lat="44.1145" lon="7.28822">
        <ele>1523.1</ele>
        <time>2017-08-26T05:53:47Z</time>
      </trkpt>
      <trkpt lat="44.11465" lon="7.28824">
        <ele>1529.8</ele>
        <time>2017-08-26T05:54:05Z</time>
      </trkpt>
      <trkpt lat="44.11467" lon="7.28826">
        <ele>1530.7</ele>
        <time>2017-08-26T05:54:27Z</time>
      </trkpt>
      <trkpt lat="44.11471" lon="7.28828">
        <ele>1532.5</ele>
        <time>2017-08-26T05:54:41Z</time>
      </trkpt>
      <trkpt lat="44.11479" lon="7.28843">
        <ele>1536.4</ele>
        <time>2017-08-26T05:54:58Z</time>
      </trkpt>
      <trkpt lat="44.11483" lon="7.28858">
        <ele>1538.6</ele>
        <time>2017-08-26T05:55:13Z</time>
      </trkpt>
      <trkpt lat="44.11487" lon="7.28874">
        <ele>1540.6</ele>
        <time>2017-08-26T05:55:29Z</time>
      </trkpt>
      <trkpt lat="44.11489" lon="7.28888">
        <ele>1541.8</ele>
        <time>2017-08-26T05:55:43Z</time>
      </trkpt>
      <trkpt lat="44.11497" lon="7.28888">
        <ele>1545.6</ele>
        <time>2017-08-26T05:55:57Z</time>
      </trkpt>
      <trkpt lat="44.11498" lon="7.28889">
        <ele>1546.1</ele>
        <time>2017-08-26T05:56:15Z</time>
      </trkpt>
      <trkpt lat="44.11509" lon="7.28901">
        <ele>1551.2</ele>
        <time>2017-08-26T05:56:33Z</time>
      </trkpt>
      <trkpt lat="44.11513" lon="7.28915">
        <ele>1553.1</ele>
        <time>2017-08-26T05:56:48Z</time>
      </trkpt>
      <trkpt lat="44.11523" lon="7.28927">
        <ele>1557.7</ele>
        <time>2017-08-26T05:57:04Z</time>
      </trkpt>
      <trkpt lat="44.11531" lon="7.28943">
        <ele>1561.4</ele>
        <time>2017-08-26T05:57:20Z</time>
      </trkpt>
      <trkpt lat="44.11537" lon="7.28951">
        <ele>1564</ele>
        <time>2017-08-26T05:57:35Z</time>
      </trkpt>
      <trkpt lat="44.11549" lon="7.28967">
        <ele>1569.2</ele>
        <time>2017-08-26T05:57:54Z</time>
      </trkpt>
      <trkpt lat="44.11553" lon="7.28994">
        <ele>1571.7</ele>
        <time>2017-08-26T05:58:11Z</time>
      </trkpt>
      <trkpt lat="44.11553" lon="7.29014">
        <ele>1571.4</ele>
        <time>2017-08-26T05:58:27Z</time>
      </trkpt>
      <trkpt lat="44.11562" lon="7.29023">
        <ele>1574.7</ele>
        <time>2017-08-26T05:58:43Z</time>
      </trkpt>
      <trkpt lat="44.11574" lon="7.29025">
        <ele>1579.4</ele>
        <time>2017-08-26T05:58:59Z</time>
      </trkpt>
      <trkpt lat="44.11578" lon="7.29022">
        <ele>1581.1</ele>
        <time>2017-08-26T05:59:13Z</time>
      </trkpt>
      <trkpt lat="44.1158" lon="7.29028">
        <ele>1581.7</ele>
        <time>2017-08-26T05:59:25Z</time>
      </trkpt>
      <trkpt lat="44.11586" lon="7.29037">
        <ele>1583.9</ele>
        <time>2017-08-26T05:59:41Z</time>
      </trkpt>
      <trkpt lat="44.11596" lon="7.29044">
        <ele>1588.2</ele>
        <time>2017-08-26T05:59:58Z</time>
      </trkpt>
      <trkpt lat="44.116" lon="7.29048">
        <ele>1589.9</ele>
        <time>2017-08-26T06:00:13Z</time>
      </trkpt>
      <trkpt lat="44.11599" lon="7.2905">
        <ele>1589.4</ele>
        <time>2017-08-26T06:00:31Z</time>
      </trkpt>
      <trkpt lat="44.11607" lon="7.29057">
        <ele>1593.1</ele>
        <time>2017-08-26T06:00:47Z</time>
      </trkpt>
      <trkpt lat="44.11611" lon="7.29065">
        <ele>1594.9</ele>
        <time>2017-08-26T06:01:03Z</time>
      </trkpt>
      <trkpt lat="44.11619" lon="7.29079">
        <ele>1599.2</ele>
        <time>2017-08-26T06:01:20Z</time>
      </trkpt>
      <trkpt lat="44.11629" lon="7.29094">
        <ele>1604.9</ele>
        <time>2017-08-26T06:01:34Z</time>
      </trkpt>
      <trkpt lat="44.11632" lon="7.29109">
        <ele>1607</ele>
        <time>2017-08-26T06:01:52Z</time>
      </trkpt>
      <trkpt lat="44.11631" lon="7.29113">
        <ele>1606.6</ele>
        <time>2017-08-26T06:02:11Z</time>
      </trkpt>
      <trkpt lat="44.11635" lon="7.29125">
        <ele>1609.7</ele>
        <time>2017-08-26T06:02:29Z</time>
      </trkpt>
      <trkpt lat="44.11637" lon="7.29134">
        <ele>1611.5</ele>
        <time>2017-08-26T06:02:42Z</time>
      </trkpt>
      <trkpt lat="44.11638" lon="7.29145">
        <ele>1612.9</ele>
        <time>2017-08-26T06:02:56Z</time>
      </trkpt>
      <trkpt lat="44.1164" lon="7.29164">
        <ele>1615.5</ele>
        <time>2017-08-26T06:03:10Z</time>
      </trkpt>
      <trkpt lat="44.11645" lon="7.2919">
        <ele>1619.6</ele>
        <time>2017-08-26T06:03:26Z</time>
      </trkpt>
      <trkpt lat="44.11651" lon="7.29208">
        <ele>1623.2</ele>
        <time>2017-08-26T06:03:43Z</time>
      </trkpt>
      <trkpt lat="44.11652" lon="7.29219">
        <ele>1623.6</ele>
        <time>2017-08-26T06:03:59Z</time>
      </trkpt>
      <trkpt lat="44.11656" lon="7.29225">
        <ele>1625.8</ele>
        <time>2017-08-26T06:04:19Z</time>
      </trkpt>
      <trkpt lat="44.1166" lon="7.29227">
        <ele>1628.1</ele>
        <time>2017-08-26T06:04:36Z</time>
      </trkpt>
      <trkpt lat="44.11664" lon="7.29226">
        <ele>1630.4</ele>
        <time>2017-08-26T06:04:52Z</time>
      </trkpt>
      <trkpt lat="44.11673" lon="7.29244">
        <ele>1635.1</ele>
        <time>2017-08-26T06:05:09Z</time>
      </trkpt>
      <trkpt lat="44.11673" lon="7.29246">
        <ele>1635.1</ele>
        <time>2017-08-26T06:05:27Z</time>
      </trkpt>
      <trkpt lat="44.1167" lon="7.29263">
        <ele>1633.9</ele>
        <time>2017-08-26T06:05:44Z</time>
      </trkpt>
      <trkpt lat="44.11661" lon="7.29278">
        <ele>1630.2</ele>
        <time>2017-08-26T06:06:01Z</time>
      </trkpt>
      <trkpt lat="44.11647" lon="7.29304">
        <ele>1625.9</ele>
        <time>2017-08-26T06:06:15Z</time>
      </trkpt>
      <trkpt lat="44.11644" lon="7.2931">
        <ele>1624.8</ele>
        <time>2017-08-26T06:06:21Z</time>
      </trkpt>
      <trkpt lat="44.11648" lon="7.29333">
        <ele>1628.2</ele>
        <time>2017-08-26T06:06:35Z</time>
      </trkpt>
      <trkpt lat="44.11655" lon="7.29358">
        <ele>1633</ele>
        <time>2017-08-26T06:06:52Z</time>
      </trkpt>
      <trkpt lat="44.11656" lon="7.29366">
        <ele>1634.6</ele>
        <time>2017-08-26T06:07:07Z</time>
      </trkpt>
      <trkpt lat="44.11652" lon="7.29371">
        <ele>1633.8</ele>
        <time>2017-08-26T06:07:20Z</time>
      </trkpt>
      <trkpt lat="44.11655" lon="7.29377">
        <ele>1636.5</ele>
        <time>2017-08-26T06:07:35Z</time>
      </trkpt>
      <trkpt lat="44.11652" lon="7.2938">
        <ele>1635.7</ele>
        <time>2017-08-26T06:07:54Z</time>
      </trkpt>
      <trkpt lat="44.11644" lon="7.29388">
        <ele>1634</ele>
        <time>2017-08-26T06:08:09Z</time>
      </trkpt>
      <trkpt lat="44.11641" lon="7.29389">
        <ele>1633</ele>
        <time>2017-08-26T06:08:25Z</time>
      </trkpt>
      <trkpt lat="44.11637" lon="7.29393">
        <ele>1633.3</ele>
        <time>2017-08-26T06:08:40Z</time>
      </trkpt>
      <trkpt lat="44.11637" lon="7.29393">
        <ele>1633.3</ele>
        <time>2017-08-26T06:08:50Z</time>
      </trkpt>
      <trkpt lat="44.11632" lon="7.29402">
        <ele>1635.9</ele>
        <time>2017-08-26T06:09:01Z</time>
      </trkpt>
      <trkpt lat="44.11633" lon="7.29406">
        <ele>1638</ele>
        <time>2017-08-26T06:09:14Z</time>
      </trkpt>
      <trkpt lat="44.11626" lon="7.29415">
        <ele>1640.4</ele>
        <time>2017-08-26T06:09:30Z</time>
      </trkpt>
      <trkpt lat="44.11622" lon="7.2942">
        <ele>1642</ele>
        <time>2017-08-26T06:09:42Z</time>
      </trkpt>
      <trkpt lat="44.11624" lon="7.29423">
        <ele>1643.9</ele>
        <time>2017-08-26T06:09:59Z</time>
      </trkpt>
      <trkpt lat="44.1163" lon="7.29428">
        <ele>1647.5</ele>
        <time>2017-08-26T06:10:16Z</time>
      </trkpt>
      <trkpt lat="44.11638" lon="7.29431">
        <ele>1650.5</ele>
        <time>2017-08-26T06:10:35Z</time>
      </trkpt>
      <trkpt lat="44.11648" lon="7.29433">
        <ele>1653.5</ele>
        <time>2017-08-26T06:10:53Z</time>
      </trkpt>
      <trkpt lat="44.1165" lon="7.29437">
        <ele>1655.5</ele>
        <time>2017-08-26T06:11:07Z</time>
      </trkpt>
      <trkpt lat="44.11647" lon="7.29438">
        <ele>1655.4</ele>
        <time>2017-08-26T06:11:13Z</time>
      </trkpt>
      <trkpt lat="44.11637" lon="7.29441">
        <ele>1655</ele>
        <time>2017-08-26T06:11:26Z</time>
      </trkpt>
      <trkpt lat="44.11629" lon="7.29443">
        <ele>1654.5</ele>
        <time>2017-08-26T06:11:39Z</time>
      </trkpt>
      <trkpt lat="44.11621" lon="7.29447">
        <ele>1655</ele>
        <time>2017-08-26T06:11:48Z</time>
      </trkpt>
      <trkpt lat="44.11618" lon="7.29453">
        <ele>1657.2</ele>
        <time>2017-08-26T06:11:54Z</time>
      </trkpt>
      <trkpt lat="44.11616" lon="7.2946">
        <ele>1660.2</ele>
        <time>2017-08-26T06:11:59Z</time>
      </trkpt>
      <trkpt lat="44.1161" lon="7.29471">
        <ele>1664.1</ele>
        <time>2017-08-26T06:12:12Z</time>
      </trkpt>
      <trkpt lat="44.11603" lon="7.29475">
        <ele>1663.6</ele>
        <time>2017-08-26T06:12:25Z</time>
      </trkpt>
      <trkpt lat="44.11595" lon="7.29492">
        <ele>1667.8</ele>
        <time>2017-08-26T06:12:42Z</time>
      </trkpt>
      <trkpt lat="44.11578" lon="7.29505">
        <ele>1665</ele>
        <time>2017-08-26T06:12:57Z</time>
      </trkpt>
      <trkpt lat="44.1157" lon="7.29521">
        <ele>1666.1</ele>
        <time>2017-08-26T06:13:11Z</time>
      </trkpt>
      <trkpt lat="44.11565" lon="7.29531">
        <ele>1666.4</ele>
        <time>2017-08-26T06:13:22Z</time>
      </trkpt>
      <trkpt lat="44.11558" lon="7.29551">
        <ele>1668.2</ele>
        <time>2017-08-26T06:13:36Z</time>
      </trkpt>
      <trkpt lat="44.11554" lon="7.29561">
        <ele>1668.7</ele>
        <time>2017-08-26T06:13:48Z</time>
      </trkpt>
      <trkpt lat="44.11549" lon="7.2957">
        <ele>1668.2</ele>
        <time>2017-08-26T06:14:05Z</time>
      </trkpt>
      <trkpt lat="44.11548" lon="7.29574">
        <ele>1668.7</ele>
        <time>2017-08-26T06:14:20Z</time>
      </trkpt>
      <trkpt lat="44.11545" lon="7.296">
        <ele>1674.2</ele>
        <time>2017-08-26T06:14:31Z</time>
      </trkpt>
      <trkpt lat="44.1153" lon="7.29631">
        <ele>1673</ele>
        <time>2017-08-26T06:14:48Z</time>
      </trkpt>
      <trkpt lat="44.11525" lon="7.29646">
        <ele>1674</ele>
        <time>2017-08-26T06:14:59Z</time>
      </trkpt>
      <trkpt lat="44.1152" lon="7.29674">
        <ele>1678.2</ele>
        <time>2017-08-26T06:15:13Z</time>
      </trkpt>
      <trkpt lat="44.11508" lon="7.29699">
        <ele>1675.8</ele>
        <time>2017-08-26T06:15:28Z</time>
      </trkpt>
      <trkpt lat="44.11507" lon="7.29701">
        <ele>1675.5</ele>
        <time>2017-08-26T06:15:29Z</time>
      </trkpt>
      <trkpt lat="44.11501" lon="7.2972">
        <ele>1675.3</ele>
        <time>2017-08-26T06:15:43Z</time>
      </trkpt>
      <trkpt lat="44.11495" lon="7.29741">
        <ele>1674.7</ele>
        <time>2017-08-26T06:15:59Z</time>
      </trkpt>
      <trkpt lat="44.11491" lon="7.29758">
        <ele>1674.2</ele>
        <time>2017-08-26T06:16:08Z</time>
      </trkpt>
      <trkpt lat="44.11488" lon="7.2978">
        <ele>1674.6</ele>
        <time>2017-08-26T06:16:22Z</time>
      </trkpt>
      <trkpt lat="44.11484" lon="7.29789">
        <ele>1672.7</ele>
        <time>2017-08-26T06:16:30Z</time>
      </trkpt>
      <trkpt lat="44.11475" lon="7.29808">
        <ele>1668.4</ele>
        <time>2017-08-26T06:16:45Z</time>
      </trkpt>
      <trkpt lat="44.11475" lon="7.29811">
        <ele>1668.8</ele>
        <time>2017-08-26T06:16:47Z</time>
      </trkpt>
      <trkpt lat="44.11471" lon="7.29836">
        <ele>1669.5</ele>
        <time>2017-08-26T06:16:59Z</time>
      </trkpt>
      <trkpt lat="44.1147" lon="7.29841">
        <ele>1669.6</ele>
        <time>2017-08-26T06:17:01Z</time>
      </trkpt>
      <trkpt lat="44.11469" lon="7.29866">
        <ele>1672.4</ele>
        <time>2017-08-26T06:17:14Z</time>
      </trkpt>
      <trkpt lat="44.1147" lon="7.29881">
        <ele>1675.3</ele>
        <time>2017-08-26T06:17:24Z</time>
      </trkpt>
      <trkpt lat="44.11461" lon="7.29889">
        <ele>1670.4</ele>
        <time>2017-08-26T06:17:35Z</time>
      </trkpt>
      <trkpt lat="44.1146" lon="7.29909">
        <ele>1674.4</ele>
        <time>2017-08-26T06:17:51Z</time>
      </trkpt>
      <trkpt lat="44.11453" lon="7.29915">
        <ele>1670.8</ele>
        <time>2017-08-26T06:17:58Z</time>
      </trkpt>
      <trkpt lat="44.11449" lon="7.29917">
        <ele>1668.4</ele>
        <time>2017-08-26T06:18:03Z</time>
      </trkpt>
      <trkpt lat="44.11443" lon="7.29937">
        <ele>1669.1</ele>
        <time>2017-08-26T06:18:16Z</time>
      </trkpt>
      <trkpt lat="44.11437" lon="7.29956">
        <ele>1669.4</ele>
        <time>2017-08-26T06:18:32Z</time>
      </trkpt>
      <trkpt lat="44.11432" lon="7.29974">
        <ele>1669.8</ele>
        <time>2017-08-26T06:18:47Z</time>
      </trkpt>
      <trkpt lat="44.11431" lon="7.2998">
        <ele>1670.1</ele>
        <time>2017-08-26T06:19:02Z</time>
      </trkpt>
      <trkpt lat="44.11426" lon="7.3">
        <ele>1669.7</ele>
        <time>2017-08-26T06:19:16Z</time>
      </trkpt>
      <trkpt lat="44.11423" lon="7.30017">
        <ele>1671.1</ele>
        <time>2017-08-26T06:19:27Z</time>
      </trkpt>
      <trkpt lat="44.11422" lon="7.30029">
        <ele>1672.9</ele>
        <time>2017-08-26T06:19:40Z</time>
      </trkpt>
      <trkpt lat="44.11418" lon="7.30045">
        <ele>1673.7</ele>
        <time>2017-08-26T06:19:57Z</time>
      </trkpt>
      <trkpt lat="44.11413" lon="7.30065">
        <ele>1674.6</ele>
        <time>2017-08-26T06:20:11Z</time>
      </trkpt>
      <trkpt lat="44.11401" lon="7.30091">
        <ele>1671.7</ele>
        <time>2017-08-26T06:20:25Z</time>
      </trkpt>
      <trkpt lat="44.11392" lon="7.30111">
        <ele>1669.1</ele>
        <time>2017-08-26T06:20:38Z</time>
      </trkpt>
      <trkpt lat="44.1139" lon="7.30126">
        <ele>1668.8</ele>
        <time>2017-08-26T06:20:48Z</time>
      </trkpt>
      <trkpt lat="44.11383" lon="7.30147">
        <ele>1666.3</ele>
        <time>2017-08-26T06:21:04Z</time>
      </trkpt>
      <trkpt lat="44.11383" lon="7.30154">
        <ele>1666.8</ele>
        <time>2017-08-26T06:21:12Z</time>
      </trkpt>
      <trkpt lat="44.11382" lon="7.30165">
        <ele>1667.1</ele>
        <time>2017-08-26T06:21:19Z</time>
      </trkpt>
      <trkpt lat="44.1137" lon="7.30181">
        <ele>1663.2</ele>
        <time>2017-08-26T06:21:36Z</time>
      </trkpt>
      <trkpt lat="44.11365" lon="7.30195">
        <ele>1663.1</ele>
        <time>2017-08-26T06:21:50Z</time>
      </trkpt>
      <trkpt lat="44.11362" lon="7.30209">
        <ele>1665.1</ele>
        <time>2017-08-26T06:22:04Z</time>
      </trkpt>
      <trkpt lat="44.1136" lon="7.30227">
        <ele>1668.8</ele>
        <time>2017-08-26T06:22:17Z</time>
      </trkpt>
      <trkpt lat="44.11352" lon="7.30248">
        <ele>1670.9</ele>
        <time>2017-08-26T06:22:33Z</time>
      </trkpt>
      <trkpt lat="44.11352" lon="7.30248">
        <ele>1670.9</ele>
        <time>2017-08-26T06:22:48Z</time>
      </trkpt>
      <trkpt lat="44.1135" lon="7.30259">
        <ele>1672.7</ele>
        <time>2017-08-26T06:22:59Z</time>
      </trkpt>
      <trkpt lat="44.11346" lon="7.3028">
        <ele>1675.8</ele>
        <time>2017-08-26T06:23:09Z</time>
      </trkpt>
      <trkpt lat="44.11334" lon="7.30309">
        <ele>1674.1</ele>
        <time>2017-08-26T06:23:22Z</time>
      </trkpt>
      <trkpt lat="44.11331" lon="7.30323">
        <ele>1675</ele>
        <time>2017-08-26T06:23:35Z</time>
      </trkpt>
      <trkpt lat="44.11331" lon="7.30329">
        <ele>1676.1</ele>
        <time>2017-08-26T06:23:39Z</time>
      </trkpt>
      <trkpt lat="44.11332" lon="7.30332">
        <ele>1677.1</ele>
        <time>2017-08-26T06:23:42Z</time>
      </trkpt>
      <trkpt lat="44.11329" lon="7.3035">
        <ele>1678.7</ele>
        <time>2017-08-26T06:23:55Z</time>
      </trkpt>
      <trkpt lat="44.11324" lon="7.3037">
        <ele>1679.7</ele>
        <time>2017-08-26T06:24:08Z</time>
      </trkpt>
      <trkpt lat="44.11319" lon="7.30389">
        <ele>1680.2</ele>
        <time>2017-08-26T06:24:23Z</time>
      </trkpt>
      <trkpt lat="44.11313" lon="7.30402">
        <ele>1678.9</ele>
        <time>2017-08-26T06:24:36Z</time>
      </trkpt>
      <trkpt lat="44.11304" lon="7.30415">
        <ele>1676</ele>
        <time>2017-08-26T06:24:48Z</time>
      </trkpt>
      <trkpt lat="44.11302" lon="7.30424">
        <ele>1676.6</ele>
        <time>2017-08-26T06:24:54Z</time>
      </trkpt>
      <trkpt lat="44.11298" lon="7.30454">
        <ele>1680.2</ele>
        <time>2017-08-26T06:25:09Z</time>
      </trkpt>
      <trkpt lat="44.11291" lon="7.30471">
        <ele>1679.9</ele>
        <time>2017-08-26T06:25:22Z</time>
      </trkpt>
      <trkpt lat="44.11288" lon="7.30473">
        <ele>1678.7</ele>
        <time>2017-08-26T06:25:24Z</time>
      </trkpt>
      <trkpt lat="44.11272" lon="7.30491">
        <ele>1674</ele>
        <time>2017-08-26T06:25:41Z</time>
      </trkpt>
      <trkpt lat="44.11258" lon="7.30508">
        <ele>1672</ele>
        <time>2017-08-26T06:25:56Z</time>
      </trkpt>
      <trkpt lat="44.11258" lon="7.30511">
        <ele>1672.7</ele>
        <time>2017-08-26T06:26:15Z</time>
      </trkpt>
      <trkpt lat="44.11255" lon="7.30515">
        <ele>1672.3</ele>
        <time>2017-08-26T06:26:17Z</time>
      </trkpt>
      <trkpt lat="44.11249" lon="7.3052">
        <ele>1670.9</ele>
        <time>2017-08-26T06:26:21Z</time>
      </trkpt>
      <trkpt lat="44.11236" lon="7.3055">
        <ele>1671.1</ele>
        <time>2017-08-26T06:26:37Z</time>
      </trkpt>
      <trkpt lat="44.11232" lon="7.30569">
        <ele>1671.7</ele>
        <time>2017-08-26T06:26:49Z</time>
      </trkpt>
      <trkpt lat="44.1123" lon="7.30578">
        <ele>1671.8</ele>
        <time>2017-08-26T06:26:53Z</time>
      </trkpt>
      <trkpt lat="44.11228" lon="7.30582">
        <ele>1671.4</ele>
        <time>2017-08-26T06:26:56Z</time>
      </trkpt>
      <trkpt lat="44.11225" lon="7.30592">
        <ele>1670.2</ele>
        <time>2017-08-26T06:27:03Z</time>
      </trkpt>
      <trkpt lat="44.11225" lon="7.30602">
        <ele>1670.2</ele>
        <time>2017-08-26T06:27:10Z</time>
      </trkpt>
      <trkpt lat="44.11223" lon="7.30612">
        <ele>1669.2</ele>
        <time>2017-08-26T06:27:18Z</time>
      </trkpt>
      <trkpt lat="44.11224" lon="7.30617">
        <ele>1669.1</ele>
        <time>2017-08-26T06:27:24Z</time>
      </trkpt>
      <trkpt lat="44.11232" lon="7.30625">
        <ele>1671.5</ele>
        <time>2017-08-26T06:27:36Z</time>
      </trkpt>
      <trkpt lat="44.11229" lon="7.30628">
        <ele>1670</ele>
        <time>2017-08-26T06:27:41Z</time>
      </trkpt>
      <trkpt lat="44.11222" lon="7.30635">
        <ele>1666.3</ele>
        <time>2017-08-26T06:27:53Z</time>
      </trkpt>
      <trkpt lat="44.11215" lon="7.30638">
        <ele>1663</ele>
        <time>2017-08-26T06:28:06Z</time>
      </trkpt>
      <trkpt lat="44.11213" lon="7.30646">
        <ele>1661.4</ele>
        <time>2017-08-26T06:28:16Z</time>
      </trkpt>
      <trkpt lat="44.11213" lon="7.30651">
        <ele>1661</ele>
        <time>2017-08-26T06:28:20Z</time>
      </trkpt>
      <trkpt lat="44.11217" lon="7.3067">
        <ele>1661.2</ele>
        <time>2017-08-26T06:28:33Z</time>
      </trkpt>
      <trkpt lat="44.11217" lon="7.3067">
        <ele>1661.2</ele>
        <time>2017-08-26T06:28:34Z</time>
      </trkpt>
      <trkpt lat="44.1123" lon="7.30681">
        <ele>1666.2</ele>
        <time>2017-08-26T06:28:42Z</time>
      </trkpt>
      <trkpt lat="44.1123" lon="7.30694">
        <ele>1665</ele>
        <time>2017-08-26T06:28:54Z</time>
      </trkpt>
      <trkpt lat="44.11232" lon="7.3072">
        <ele>1663.2</ele>
        <time>2017-08-26T06:29:10Z</time>
      </trkpt>
      <trkpt lat="44.11237" lon="7.30732">
        <ele>1665.2</ele>
        <time>2017-08-26T06:29:22Z</time>
      </trkpt>
      <trkpt lat="44.11228" lon="7.30749">
        <ele>1657.8</ele>
        <time>2017-08-26T06:29:32Z</time>
      </trkpt>
      <trkpt lat="44.11219" lon="7.30756">
        <ele>1652.5</ele>
        <time>2017-08-26T06:29:44Z</time>
      </trkpt>
      <trkpt lat="44.11217" lon="7.30757">
        <ele>1651.6</ele>
        <time>2017-08-26T06:29:46Z</time>
      </trkpt>
      <trkpt lat="44.1121" lon="7.30764">
        <ele>1648.3</ele>
        <time>2017-08-26T06:29:58Z</time>
      </trkpt>
      <trkpt lat="44.11205" lon="7.30774">
        <ele>1645.9</ele>
        <time>2017-08-26T06:30:07Z</time>
      </trkpt>
      <trkpt lat="44.1119" lon="7.30797">
        <ele>1642.7</ele>
        <time>2017-08-26T06:30:24Z</time>
      </trkpt>
      <trkpt lat="44.11179" lon="7.30813">
        <ele>1641.5</ele>
        <time>2017-08-26T06:30:37Z</time>
      </trkpt>
      <trkpt lat="44.11178" lon="7.30816">
        <ele>1641.7</ele>
        <time>2017-08-26T06:30:39Z</time>
      </trkpt>
      <trkpt lat="44.1117" lon="7.30833">
        <ele>1642.2</ele>
        <time>2017-08-26T06:30:51Z</time>
      </trkpt>
      <trkpt lat="44.11169" lon="7.30835">
        <ele>1642.2</ele>
        <time>2017-08-26T06:31:08Z</time>
      </trkpt>
      <trkpt lat="44.11169" lon="7.30835">
        <ele>1642.2</ele>
        <time>2017-08-26T06:31:31Z</time>
      </trkpt>
      <trkpt lat="44.11155" lon="7.3085">
        <ele>1639.1</ele>
        <time>2017-08-26T06:32:00Z</time>
      </trkpt>
      <trkpt lat="44.11144" lon="7.30877">
        <ele>1638.6</ele>
        <time>2017-08-26T06:32:11Z</time>
      </trkpt>
      <trkpt lat="44.11134" lon="7.30895">
        <ele>1636.4</ele>
        <time>2017-08-26T06:32:26Z</time>
      </trkpt>
      <trkpt lat="44.11132" lon="7.30897">
        <ele>1635.7</ele>
        <time>2017-08-26T06:32:30Z</time>
      </trkpt>
      <trkpt lat="44.11123" lon="7.30916">
        <ele>1633.9</ele>
        <time>2017-08-26T06:32:44Z</time>
      </trkpt>
      <trkpt lat="44.11118" lon="7.3093">
        <ele>1633.4</ele>
        <time>2017-08-26T06:32:57Z</time>
      </trkpt>
      <trkpt lat="44.11119" lon="7.30934">
        <ele>1634.5</ele>
        <time>2017-08-26T06:33:00Z</time>
      </trkpt>
      <trkpt lat="44.11122" lon="7.30954">
        <ele>1638.5</ele>
        <time>2017-08-26T06:33:11Z</time>
      </trkpt>
      <trkpt lat="44.11114" lon="7.30977">
        <ele>1636.8</ele>
        <time>2017-08-26T06:33:24Z</time>
      </trkpt>
      <trkpt lat="44.1111" lon="7.30991">
        <ele>1635.8</ele>
        <time>2017-08-26T06:33:38Z</time>
      </trkpt>
      <trkpt lat="44.11109" lon="7.31006">
        <ele>1636.2</ele>
        <time>2017-08-26T06:33:49Z</time>
      </trkpt>
      <trkpt lat="44.1111" lon="7.31028">
        <ele>1637.5</ele>
        <time>2017-08-26T06:34:04Z</time>
      </trkpt>
      <trkpt lat="44.1111" lon="7.31031">
        <ele>1637.7</ele>
        <time>2017-08-26T06:34:05Z</time>
      </trkpt>
      <trkpt lat="44.11109" lon="7.31039">
        <ele>1637.8</ele>
        <time>2017-08-26T06:34:07Z</time>
      </trkpt>
      <trkpt lat="44.11101" lon="7.31087">
        <ele>1637.2</ele>
        <time>2017-08-26T06:34:21Z</time>
      </trkpt>
      <trkpt lat="44.11103" lon="7.311">
        <ele>1639.3</ele>
        <time>2017-08-26T06:34:31Z</time>
      </trkpt>
      <trkpt lat="44.11103" lon="7.31116">
        <ele>1640.8</ele>
        <time>2017-08-26T06:34:43Z</time>
      </trkpt>
      <trkpt lat="44.11101" lon="7.3112">
        <ele>1640.3</ele>
        <time>2017-08-26T06:34:46Z</time>
      </trkpt>
      <trkpt lat="44.11103" lon="7.31137">
        <ele>1643.3</ele>
        <time>2017-08-26T06:34:59Z</time>
      </trkpt>
      <trkpt lat="44.11105" lon="7.31152">
        <ele>1645.4</ele>
        <time>2017-08-26T06:35:10Z</time>
      </trkpt>
      <trkpt lat="44.11103" lon="7.31164">
        <ele>1645.6</ele>
        <time>2017-08-26T06:35:23Z</time>
      </trkpt>
      <trkpt lat="44.111" lon="7.31178">
        <ele>1646</ele>
        <time>2017-08-26T06:35:33Z</time>
      </trkpt>
      <trkpt lat="44.11095" lon="7.31199">
        <ele>1646.7</ele>
        <time>2017-08-26T06:35:48Z</time>
      </trkpt>
      <trkpt lat="44.11092" lon="7.31216">
        <ele>1647.4</ele>
        <time>2017-08-26T06:36:01Z</time>
      </trkpt>
      <trkpt lat="44.1109" lon="7.31221">
        <ele>1647.3</ele>
        <time>2017-08-26T06:36:04Z</time>
      </trkpt>
      <trkpt lat="44.1108" lon="7.31236">
        <ele>1645.6</ele>
        <time>2017-08-26T06:36:17Z</time>
      </trkpt>
      <trkpt lat="44.1108" lon="7.31237">
        <ele>1645.7</ele>
        <time>2017-08-26T06:36:18Z</time>
      </trkpt>
      <trkpt lat="44.11073" lon="7.3125">
        <ele>1645.4</ele>
        <time>2017-08-26T06:36:27Z</time>
      </trkpt>
      <trkpt lat="44.11071" lon="7.31255">
        <ele>1645.5</ele>
        <time>2017-08-26T06:36:44Z</time>
      </trkpt>
      <trkpt lat="44.11067" lon="7.31259">
        <ele>1645</ele>
        <time>2017-08-26T06:36:58Z</time>
      </trkpt>
      <trkpt lat="44.11058" lon="7.31266">
        <ele>1643.4</ele>
        <time>2017-08-26T06:37:14Z</time>
      </trkpt>
      <trkpt lat="44.1105" lon="7.31274">
        <ele>1642.8</ele>
        <time>2017-08-26T06:37:28Z</time>
      </trkpt>
      <trkpt lat="44.11027" lon="7.31299">
        <ele>1642.2</ele>
        <time>2017-08-26T06:37:40Z</time>
      </trkpt>
      <trkpt lat="44.11022" lon="7.31306">
        <ele>1642.7</ele>
        <time>2017-08-26T06:37:54Z</time>
      </trkpt>
      <trkpt lat="44.11012" lon="7.3132">
        <ele>1644.2</ele>
        <time>2017-08-26T06:38:08Z</time>
      </trkpt>
      <trkpt lat="44.11004" lon="7.31347">
        <ele>1647.5</ele>
        <time>2017-08-26T06:38:21Z</time>
      </trkpt>
      <trkpt lat="44.10998" lon="7.31368">
        <ele>1650.3</ele>
        <time>2017-08-26T06:38:35Z</time>
      </trkpt>
      <trkpt lat="44.10996" lon="7.31376">
        <ele>1651.6</ele>
        <time>2017-08-26T06:38:47Z</time>
      </trkpt>
      <trkpt lat="44.10996" lon="7.31376">
        <ele>1651.6</ele>
        <time>2017-08-26T06:39:01Z</time>
      </trkpt>
      <trkpt lat="44.10985" lon="7.31391">
        <ele>1653.3</ele>
        <time>2017-08-26T06:39:14Z</time>
      </trkpt>
      <trkpt lat="44.10979" lon="7.31419">
        <ele>1656.7</ele>
        <time>2017-08-26T06:39:29Z</time>
      </trkpt>
      <trkpt lat="44.1097" lon="7.31435">
        <ele>1658.2</ele>
        <time>2017-08-26T06:39:42Z</time>
      </trkpt>
      <trkpt lat="44.10965" lon="7.31451">
        <ele>1660.5</ele>
        <time>2017-08-26T06:39:55Z</time>
      </trkpt>
      <trkpt lat="44.10958" lon="7.31454">
        <ele>1660.3</ele>
        <time>2017-08-26T06:40:07Z</time>
      </trkpt>
      <trkpt lat="44.1095" lon="7.31462">
        <ele>1660.5</ele>
        <time>2017-08-26T06:40:20Z</time>
      </trkpt>
      <trkpt lat="44.1094" lon="7.31461">
        <ele>1660.1</ele>
        <time>2017-08-26T06:40:35Z</time>
      </trkpt>
      <trkpt lat="44.10927" lon="7.31464">
        <ele>1661.3</ele>
        <time>2017-08-26T06:40:49Z</time>
      </trkpt>
      <trkpt lat="44.10924" lon="7.31463">
        <ele>1661.5</ele>
        <time>2017-08-26T06:40:53Z</time>
      </trkpt>
      <trkpt lat="44.1092" lon="7.31454">
        <ele>1661.6</ele>
        <time>2017-08-26T06:41:06Z</time>
      </trkpt>
      <trkpt lat="44.10918" lon="7.31451">
        <ele>1661.8</ele>
        <time>2017-08-26T06:41:16Z</time>
      </trkpt>
      <trkpt lat="44.1092" lon="7.31444">
        <ele>1661.5</ele>
        <time>2017-08-26T06:41:22Z</time>
      </trkpt>
      <trkpt lat="44.10922" lon="7.31438">
        <ele>1661.3</ele>
        <time>2017-08-26T06:41:27Z</time>
      </trkpt>
      <trkpt lat="44.10924" lon="7.31434">
        <ele>1661</ele>
        <time>2017-08-26T06:41:40Z</time>
      </trkpt>
      <trkpt lat="44.10926" lon="7.31432">
        <ele>1660.7</ele>
        <time>2017-08-26T06:41:54Z</time>
      </trkpt>
      <trkpt lat="44.10926" lon="7.31432">
        <ele>1660.7</ele>
        <time>2017-08-26T06:42:06Z</time>
      </trkpt>
      <trkpt lat="44.10918" lon="7.31425">
        <ele>1662.4</ele>
        <time>2017-08-26T06:42:21Z</time>
      </trkpt>
      <trkpt lat="44.10915" lon="7.31414">
        <ele>1663.8</ele>
        <time>2017-08-26T06:42:33Z</time>
      </trkpt>
      <trkpt lat="44.10912" lon="7.3141">
        <ele>1665.2</ele>
        <time>2017-08-26T06:42:46Z</time>
      </trkpt>
      <trkpt lat="44.10902" lon="7.31405">
        <ele>1669.1</ele>
        <time>2017-08-26T06:42:58Z</time>
      </trkpt>
      <trkpt lat="44.10899" lon="7.31407">
        <ele>1670.1</ele>
        <time>2017-08-26T06:43:10Z</time>
      </trkpt>
      <trkpt lat="44.10894" lon="7.31402">
        <ele>1672.2</ele>
        <time>2017-08-26T06:43:25Z</time>
      </trkpt>
      <trkpt lat="44.10891" lon="7.31396">
        <ele>1673.7</ele>
        <time>2017-08-26T06:43:40Z</time>
      </trkpt>
      <trkpt lat="44.10883" lon="7.31395">
        <ele>1676.5</ele>
        <time>2017-08-26T06:43:52Z</time>
      </trkpt>
      <trkpt lat="44.10877" lon="7.31394">
        <ele>1678.5</ele>
        <time>2017-08-26T06:44:07Z</time>
      </trkpt>
      <trkpt lat="44.1087" lon="7.31399">
        <ele>1680.4</ele>
        <time>2017-08-26T06:44:17Z</time>
      </trkpt>
      <trkpt lat="44.10866" lon="7.31413">
        <ele>1680.7</ele>
        <time>2017-08-26T06:44:29Z</time>
      </trkpt>
      <trkpt lat="44.10854" lon="7.31418">
        <ele>1683.7</ele>
        <time>2017-08-26T06:44:43Z</time>
      </trkpt>
      <trkpt lat="44.1085" lon="7.31423">
        <ele>1684.2</ele>
        <time>2017-08-26T06:44:55Z</time>
      </trkpt>
      <trkpt lat="44.10841" lon="7.31432">
        <ele>1685.8</ele>
        <time>2017-08-26T06:45:10Z</time>
      </trkpt>
      <trkpt lat="44.1084" lon="7.31434">
        <ele>1685.9</ele>
        <time>2017-08-26T06:45:15Z</time>
      </trkpt>
      <trkpt lat="44.10835" lon="7.3144">
        <ele>1686.8</ele>
        <time>2017-08-26T06:45:27Z</time>
      </trkpt>
      <trkpt lat="44.10826" lon="7.31459">
        <ele>1688.3</ele>
        <time>2017-08-26T06:45:42Z</time>
      </trkpt>
      <trkpt lat="44.1082" lon="7.31464">
        <ele>1690.1</ele>
        <time>2017-08-26T06:45:45Z</time>
      </trkpt>
      <trkpt lat="44.10809" lon="7.3147">
        <ele>1693.8</ele>
        <time>2017-08-26T06:46:02Z</time>
      </trkpt>
      <trkpt lat="44.10805" lon="7.31476">
        <ele>1695.3</ele>
        <time>2017-08-26T06:46:17Z</time>
      </trkpt>
      <trkpt lat="44.10801" lon="7.31487">
        <ele>1697.1</ele>
        <time>2017-08-26T06:46:31Z</time>
      </trkpt>
      <trkpt lat="44.10795" lon="7.31501">
        <ele>1699.9</ele>
        <time>2017-08-26T06:46:42Z</time>
      </trkpt>
      <trkpt lat="44.1079" lon="7.31507">
        <ele>1702.5</ele>
        <time>2017-08-26T06:46:54Z</time>
      </trkpt>
      <trkpt lat="44.10786" lon="7.31517">
        <ele>1705.3</ele>
        <time>2017-08-26T06:47:07Z</time>
      </trkpt>
      <trkpt lat="44.10789" lon="7.31522">
        <ele>1704.8</ele>
        <time>2017-08-26T06:47:24Z</time>
      </trkpt>
      <trkpt lat="44.10795" lon="7.31535">
        <ele>1704.6</ele>
        <time>2017-08-26T06:47:37Z</time>
      </trkpt>
      <trkpt lat="44.10799" lon="7.31553">
        <ele>1706.4</ele>
        <time>2017-08-26T06:47:55Z</time>
      </trkpt>
      <trkpt lat="44.10803" lon="7.31563">
        <ele>1707</ele>
        <time>2017-08-26T06:48:10Z</time>
      </trkpt>
      <trkpt lat="44.1082" lon="7.31587">
        <ele>1705</ele>
        <time>2017-08-26T06:48:27Z</time>
      </trkpt>
      <trkpt lat="44.1082" lon="7.31588">
        <ele>1705.2</ele>
        <time>2017-08-26T06:48:46Z</time>
      </trkpt>
      <trkpt lat="44.10819" lon="7.31587">
        <ele>1705.5</ele>
        <time>2017-08-26T06:49:16Z</time>
      </trkpt>
      <trkpt lat="44.10819" lon="7.31587">
        <ele>1705.5</ele>
        <time>2017-08-26T06:49:45Z</time>
      </trkpt>
      <trkpt lat="44.1082" lon="7.31592">
        <ele>1706.1</ele>
        <time>2017-08-26T06:49:56Z</time>
      </trkpt>
      <trkpt lat="44.10825" lon="7.31605">
        <ele>1706.6</ele>
        <time>2017-08-26T06:50:10Z</time>
      </trkpt>
      <trkpt lat="44.10826" lon="7.31609">
        <ele>1707</ele>
        <time>2017-08-26T06:50:13Z</time>
      </trkpt>
      <trkpt lat="44.10832" lon="7.31629">
        <ele>1709.1</ele>
        <time>2017-08-26T06:50:22Z</time>
      </trkpt>
      <trkpt lat="44.10835" lon="7.31637">
        <ele>1709.7</ele>
        <time>2017-08-26T06:50:24Z</time>
      </trkpt>
      <trkpt lat="44.10833" lon="7.31653">
        <ele>1713.7</ele>
        <time>2017-08-26T06:50:36Z</time>
      </trkpt>
      <trkpt lat="44.10835" lon="7.3166">
        <ele>1714.1</ele>
        <time>2017-08-26T06:50:43Z</time>
      </trkpt>
      <trkpt lat="44.10838" lon="7.31678">
        <ele>1716.5</ele>
        <time>2017-08-26T06:50:56Z</time>
      </trkpt>
      <trkpt lat="44.10839" lon="7.31683">
        <ele>1717.2</ele>
        <time>2017-08-26T06:51:09Z</time>
      </trkpt>
      <trkpt lat="44.10837" lon="7.31691">
        <ele>1719.8</ele>
        <time>2017-08-26T06:51:17Z</time>
      </trkpt>
      <trkpt lat="44.10835" lon="7.31706">
        <ele>1723.1</ele>
        <time>2017-08-26T06:51:30Z</time>
      </trkpt>
      <trkpt lat="44.10831" lon="7.31719">
        <ele>1726.4</ele>
        <time>2017-08-26T06:51:40Z</time>
      </trkpt>
      <trkpt lat="44.10825" lon="7.31733">
        <ele>1730.3</ele>
        <time>2017-08-26T06:51:54Z</time>
      </trkpt>
      <trkpt lat="44.1082" lon="7.31745">
        <ele>1733.3</ele>
        <time>2017-08-26T06:52:07Z</time>
      </trkpt>
      <trkpt lat="44.10813" lon="7.31758">
        <ele>1736.5</ele>
        <time>2017-08-26T06:52:19Z</time>
      </trkpt>
      <trkpt lat="44.10813" lon="7.31786">
        <ele>1739.2</ele>
        <time>2017-08-26T06:52:38Z</time>
      </trkpt>
      <trkpt lat="44.10814" lon="7.31791">
        <ele>1739.6</ele>
        <time>2017-08-26T06:52:41Z</time>
      </trkpt>
      <trkpt lat="44.10821" lon="7.31811">
        <ele>1741.1</ele>
        <time>2017-08-26T06:52:54Z</time>
      </trkpt>
      <trkpt lat="44.1082" lon="7.31814">
        <ele>1741.8</ele>
        <time>2017-08-26T06:52:57Z</time>
      </trkpt>
      <trkpt lat="44.10809" lon="7.31816">
        <ele>1743.9</ele>
        <time>2017-08-26T06:53:11Z</time>
      </trkpt>
      <trkpt lat="44.10808" lon="7.31819">
        <ele>1744.5</ele>
        <time>2017-08-26T06:53:23Z</time>
      </trkpt>
      <trkpt lat="44.10806" lon="7.31836">
        <ele>1747.4</ele>
        <time>2017-08-26T06:53:39Z</time>
      </trkpt>
      <trkpt lat="44.10812" lon="7.31852">
        <ele>1749.3</ele>
        <time>2017-08-26T06:53:53Z</time>
      </trkpt>
      <trkpt lat="44.10837" lon="7.31875">
        <ele>1749.2</ele>
        <time>2017-08-26T06:54:06Z</time>
      </trkpt>
      <trkpt lat="44.10843" lon="7.31882">
        <ele>1750.1</ele>
        <time>2017-08-26T06:54:14Z</time>
      </trkpt>
      <trkpt lat="44.10854" lon="7.31893">
        <ele>1751.4</ele>
        <time>2017-08-26T06:54:28Z</time>
      </trkpt>
      <trkpt lat="44.10865" lon="7.31887">
        <ele>1749.7</ele>
        <time>2017-08-26T06:54:38Z</time>
      </trkpt>
      <trkpt lat="44.10879" lon="7.31891">
        <ele>1750.5</ele>
        <time>2017-08-26T06:54:50Z</time>
      </trkpt>
      <trkpt lat="44.10882" lon="7.31897">
        <ele>1751.8</ele>
        <time>2017-08-26T06:55:03Z</time>
      </trkpt>
      <trkpt lat="44.10903" lon="7.31891">
        <ele>1751.4</ele>
        <time>2017-08-26T06:55:22Z</time>
      </trkpt>
      <trkpt lat="44.10915" lon="7.31896">
        <ele>1752.9</ele>
        <time>2017-08-26T06:55:35Z</time>
      </trkpt>
      <trkpt lat="44.10925" lon="7.31896">
        <ele>1752.4</ele>
        <time>2017-08-26T06:55:48Z</time>
      </trkpt>
      <trkpt lat="44.10932" lon="7.31898">
        <ele>1752.2</ele>
        <time>2017-08-26T06:55:56Z</time>
      </trkpt>
      <trkpt lat="44.10945" lon="7.31909">
        <ele>1752.7</ele>
        <time>2017-08-26T06:56:09Z</time>
      </trkpt>
      <trkpt lat="44.10957" lon="7.3192">
        <ele>1751</ele>
        <time>2017-08-26T06:56:23Z</time>
      </trkpt>
      <trkpt lat="44.1096" lon="7.31926">
        <ele>1751.2</ele>
        <time>2017-08-26T06:56:31Z</time>
      </trkpt>
      <trkpt lat="44.10963" lon="7.31942">
        <ele>1753.5</ele>
        <time>2017-08-26T06:56:41Z</time>
      </trkpt>
      <trkpt lat="44.10963" lon="7.31945">
        <ele>1754.1</ele>
        <time>2017-08-26T06:56:43Z</time>
      </trkpt>
      <trkpt lat="44.10968" lon="7.31955">
        <ele>1755.5</ele>
        <time>2017-08-26T06:56:53Z</time>
      </trkpt>
      <trkpt lat="44.10981" lon="7.31961">
        <ele>1753.7</ele>
        <time>2017-08-26T06:57:06Z</time>
      </trkpt>
      <trkpt lat="44.10982" lon="7.31962">
        <ele>1753.7</ele>
        <time>2017-08-26T06:57:07Z</time>
      </trkpt>
      <trkpt lat="44.10991" lon="7.31977">
        <ele>1755.7</ele>
        <time>2017-08-26T06:57:17Z</time>
      </trkpt>
      <trkpt lat="44.10999" lon="7.31985">
        <ele>1756.4</ele>
        <time>2017-08-26T06:57:32Z</time>
      </trkpt>
      <trkpt lat="44.11" lon="7.31987">
        <ele>1756.8</ele>
        <time>2017-08-26T06:57:34Z</time>
      </trkpt>
      <trkpt lat="44.11002" lon="7.3199">
        <ele>1757.3</ele>
        <time>2017-08-26T06:57:37Z</time>
      </trkpt>
      <trkpt lat="44.11007" lon="7.32004">
        <ele>1760.7</ele>
        <time>2017-08-26T06:57:50Z</time>
      </trkpt>
      <trkpt lat="44.11015" lon="7.32013">
        <ele>1762</ele>
        <time>2017-08-26T06:58:02Z</time>
      </trkpt>
      <trkpt lat="44.11023" lon="7.32017">
        <ele>1761.9</ele>
        <time>2017-08-26T06:58:09Z</time>
      </trkpt>
      <trkpt lat="44.11037" lon="7.32024">
        <ele>1762.3</ele>
        <time>2017-08-26T06:58:20Z</time>
      </trkpt>
      <trkpt lat="44.11042" lon="7.32032">
        <ele>1764.3</ele>
        <time>2017-08-26T06:58:29Z</time>
      </trkpt>
      <trkpt lat="44.11059" lon="7.32038">
        <ele>1764</ele>
        <time>2017-08-26T06:58:44Z</time>
      </trkpt>
      <trkpt lat="44.11073" lon="7.32036">
        <ele>1760.4</ele>
        <time>2017-08-26T06:58:56Z</time>
      </trkpt>
      <trkpt lat="44.11074" lon="7.32035">
        <ele>1759.9</ele>
        <time>2017-08-26T06:58:57Z</time>
      </trkpt>
      <trkpt lat="44.11084" lon="7.32031">
        <ele>1756.8</ele>
        <time>2017-08-26T06:59:09Z</time>
      </trkpt>
      <trkpt lat="44.11094" lon="7.32024">
        <ele>1752.9</ele>
        <time>2017-08-26T06:59:21Z</time>
      </trkpt>
      <trkpt lat="44.11108" lon="7.32028">
        <ele>1751.6</ele>
        <time>2017-08-26T06:59:35Z</time>
      </trkpt>
      <trkpt lat="44.1112" lon="7.32036">
        <ele>1752.6</ele>
        <time>2017-08-26T06:59:47Z</time>
      </trkpt>
      <trkpt lat="44.11129" lon="7.32041">
        <ele>1753.1</ele>
        <time>2017-08-26T06:59:55Z</time>
      </trkpt>
      <trkpt lat="44.11131" lon="7.32042">
        <ele>1753.1</ele>
        <time>2017-08-26T06:59:56Z</time>
      </trkpt>
      <trkpt lat="44.11136" lon="7.32056">
        <ele>1755.4</ele>
        <time>2017-08-26T07:00:09Z</time>
      </trkpt>
      <trkpt lat="44.1114" lon="7.32071">
        <ele>1758.9</ele>
        <time>2017-08-26T07:00:22Z</time>
      </trkpt>
      <trkpt lat="44.11145" lon="7.32079">
        <ele>1761.2</ele>
        <time>2017-08-26T07:00:33Z</time>
      </trkpt>
      <trkpt lat="44.11146" lon="7.32082">
        <ele>1761.9</ele>
        <time>2017-08-26T07:00:48Z</time>
      </trkpt>
      <trkpt lat="44.11165" lon="7.32089">
        <ele>1764</ele>
        <time>2017-08-26T07:01:02Z</time>
      </trkpt>
      <trkpt lat="44.11179" lon="7.32093">
        <ele>1767</ele>
        <time>2017-08-26T07:01:15Z</time>
      </trkpt>
      <trkpt lat="44.1118" lon="7.32099">
        <ele>1768.2</ele>
        <time>2017-08-26T07:01:28Z</time>
      </trkpt>
      <trkpt lat="44.11182" lon="7.32105">
        <ele>1769.7</ele>
        <time>2017-08-26T07:01:42Z</time>
      </trkpt>
      <trkpt lat="44.11182" lon="7.32106">
        <ele>1769.8</ele>
        <time>2017-08-26T07:01:43Z</time>
      </trkpt>
      <trkpt lat="44.11194" lon="7.32114">
        <ele>1773.2</ele>
        <time>2017-08-26T07:01:55Z</time>
      </trkpt>
      <trkpt lat="44.11195" lon="7.32117">
        <ele>1773.8</ele>
        <time>2017-08-26T07:02:07Z</time>
      </trkpt>
      <trkpt lat="44.11201" lon="7.32124">
        <ele>1776.5</ele>
        <time>2017-08-26T07:02:21Z</time>
      </trkpt>
      <trkpt lat="44.11203" lon="7.32129">
        <ele>1777.8</ele>
        <time>2017-08-26T07:02:33Z</time>
      </trkpt>
      <trkpt lat="44.11208" lon="7.32135">
        <ele>1780.3</ele>
        <time>2017-08-26T07:02:45Z</time>
      </trkpt>
      <trkpt lat="44.1121" lon="7.32148">
        <ele>1782.7</ele>
        <time>2017-08-26T07:02:59Z</time>
      </trkpt>
      <trkpt lat="44.11208" lon="7.32158">
        <ele>1783.3</ele>
        <time>2017-08-26T07:03:16Z</time>
      </trkpt>
      <trkpt lat="44.11211" lon="7.32169">
        <ele>1785.6</ele>
        <time>2017-08-26T07:03:28Z</time>
      </trkpt>
      <trkpt lat="44.11218" lon="7.3217">
        <ele>1787.9</ele>
        <time>2017-08-26T07:03:42Z</time>
      </trkpt>
      <trkpt lat="44.11222" lon="7.32167">
        <ele>1789</ele>
        <time>2017-08-26T07:03:53Z</time>
      </trkpt>
      <trkpt lat="44.11222" lon="7.3217">
        <ele>1789.2</ele>
        <time>2017-08-26T07:04:08Z</time>
      </trkpt>
      <trkpt lat="44.11229" lon="7.32179">
        <ele>1793</ele>
        <time>2017-08-26T07:04:24Z</time>
      </trkpt>
      <trkpt lat="44.11232" lon="7.3219">
        <ele>1795</ele>
        <time>2017-08-26T07:04:40Z</time>
      </trkpt>
      <trkpt lat="44.11234" lon="7.32203">
        <ele>1796.4</ele>
        <time>2017-08-26T07:04:53Z</time>
      </trkpt>
      <trkpt lat="44.11243" lon="7.322">
        <ele>1800.1</ele>
        <time>2017-08-26T07:05:06Z</time>
      </trkpt>
      <trkpt lat="44.11243" lon="7.32199">
        <ele>1800.1</ele>
        <time>2017-08-26T07:05:17Z</time>
      </trkpt>
      <trkpt lat="44.11246" lon="7.32196">
        <ele>1801.3</ele>
        <time>2017-08-26T07:05:30Z</time>
      </trkpt>
      <trkpt lat="44.11248" lon="7.32186">
        <ele>1801.8</ele>
        <time>2017-08-26T07:05:42Z</time>
      </trkpt>
      <trkpt lat="44.1125" lon="7.32182">
        <ele>1802.6</ele>
        <time>2017-08-26T07:05:54Z</time>
      </trkpt>
      <trkpt lat="44.11256" lon="7.32174">
        <ele>1805.2</ele>
        <time>2017-08-26T07:06:05Z</time>
      </trkpt>
      <trkpt lat="44.11261" lon="7.32175">
        <ele>1807.7</ele>
        <time>2017-08-26T07:06:18Z</time>
      </trkpt>
      <trkpt lat="44.11269" lon="7.32176">
        <ele>1811.7</ele>
        <time>2017-08-26T07:06:31Z</time>
      </trkpt>
      <trkpt lat="44.1127" lon="7.32177">
        <ele>1812.2</ele>
        <time>2017-08-26T07:06:46Z</time>
      </trkpt>
      <trkpt lat="44.1127" lon="7.32177">
        <ele>1812.2</ele>
        <time>2017-08-26T07:07:00Z</time>
      </trkpt>
      <trkpt lat="44.1127" lon="7.32177">
        <ele>1812.2</ele>
        <time>2017-08-26T07:07:14Z</time>
      </trkpt>
      <trkpt lat="44.11276" lon="7.32181">
        <ele>1815.1</ele>
        <time>2017-08-26T07:07:28Z</time>
      </trkpt>
      <trkpt lat="44.11305" lon="7.32178">
        <ele>1824.8</ele>
        <time>2017-08-26T07:07:41Z</time>
      </trkpt>
      <trkpt lat="44.11324" lon="7.32185">
        <ele>1827.4</ele>
        <time>2017-08-26T07:07:55Z</time>
      </trkpt>
      <trkpt lat="44.1133" lon="7.32188">
        <ele>1828.3</ele>
        <time>2017-08-26T07:08:00Z</time>
      </trkpt>
      <trkpt lat="44.11345" lon="7.32202">
        <ele>1829.1</ele>
        <time>2017-08-26T07:08:17Z</time>
      </trkpt>
      <trkpt lat="44.1135" lon="7.32206">
        <ele>1829.3</ele>
        <time>2017-08-26T07:08:35Z</time>
      </trkpt>
      <trkpt lat="44.11358" lon="7.32213">
        <ele>1830</ele>
        <time>2017-08-26T07:08:54Z</time>
      </trkpt>
      <trkpt lat="44.11371" lon="7.32222">
        <ele>1830.3</ele>
        <time>2017-08-26T07:09:07Z</time>
      </trkpt>
      <trkpt lat="44.11379" lon="7.32232">
        <ele>1831.1</ele>
        <time>2017-08-26T07:09:21Z</time>
      </trkpt>
      <trkpt lat="44.1138" lon="7.32234">
        <ele>1831.3</ele>
        <time>2017-08-26T07:09:23Z</time>
      </trkpt>
      <trkpt lat="44.11383" lon="7.32245">
        <ele>1832.7</ele>
        <time>2017-08-26T07:09:30Z</time>
      </trkpt>
      <trkpt lat="44.11388" lon="7.32265">
        <ele>1835.2</ele>
        <time>2017-08-26T07:09:44Z</time>
      </trkpt>
      <trkpt lat="44.11398" lon="7.32273">
        <ele>1835.4</ele>
        <time>2017-08-26T07:09:52Z</time>
      </trkpt>
      <trkpt lat="44.1141" lon="7.32288">
        <ele>1835.6</ele>
        <time>2017-08-26T07:10:04Z</time>
      </trkpt>
      <trkpt lat="44.11409" lon="7.32305">
        <ele>1837.3</ele>
        <time>2017-08-26T07:10:17Z</time>
      </trkpt>
      <trkpt lat="44.11409" lon="7.32312">
        <ele>1838.1</ele>
        <time>2017-08-26T07:10:23Z</time>
      </trkpt>
      <trkpt lat="44.11415" lon="7.32312">
        <ele>1837</ele>
        <time>2017-08-26T07:10:37Z</time>
      </trkpt>
      <trkpt lat="44.1142" lon="7.32318">
        <ele>1837.6</ele>
        <time>2017-08-26T07:10:51Z</time>
      </trkpt>
      <trkpt lat="44.11429" lon="7.32342">
        <ele>1840.3</ele>
        <time>2017-08-26T07:11:04Z</time>
      </trkpt>
      <trkpt lat="44.11434" lon="7.32347">
        <ele>1840.7</ele>
        <time>2017-08-26T07:11:20Z</time>
      </trkpt>
      <trkpt lat="44.11435" lon="7.32347">
        <ele>1840.7</ele>
        <time>2017-08-26T07:11:38Z</time>
      </trkpt>
      <trkpt lat="44.11442" lon="7.32352">
        <ele>1840.8</ele>
        <time>2017-08-26T07:12:01Z</time>
      </trkpt>
      <trkpt lat="44.11449" lon="7.32363">
        <ele>1842.1</ele>
        <time>2017-08-26T07:12:13Z</time>
      </trkpt>
      <trkpt lat="44.11449" lon="7.32364">
        <ele>1842.2</ele>
        <time>2017-08-26T07:12:37Z</time>
      </trkpt>
      <trkpt lat="44.11451" lon="7.32365">
        <ele>1842.7</ele>
        <time>2017-08-26T07:12:56Z</time>
      </trkpt>
      <trkpt lat="44.11452" lon="7.32367">
        <ele>1843</ele>
        <time>2017-08-26T07:12:58Z</time>
      </trkpt>
      <trkpt lat="44.11458" lon="7.32388">
        <ele>1844.9</ele>
        <time>2017-08-26T07:13:12Z</time>
      </trkpt>
      <trkpt lat="44.11472" lon="7.32406">
        <ele>1846</ele>
        <time>2017-08-26T07:13:26Z</time>
      </trkpt>
      <trkpt lat="44.11478" lon="7.32417">
        <ele>1846.8</ele>
        <time>2017-08-26T07:13:37Z</time>
      </trkpt>
      <trkpt lat="44.11485" lon="7.32427">
        <ele>1847.9</ele>
        <time>2017-08-26T07:13:45Z</time>
      </trkpt>
      <trkpt lat="44.11487" lon="7.32444">
        <ele>1848</ele>
        <time>2017-08-26T07:13:52Z</time>
      </trkpt>
      <trkpt lat="44.11495" lon="7.32452">
        <ele>1848.2</ele>
        <time>2017-08-26T07:13:59Z</time>
      </trkpt>
      <trkpt lat="44.11498" lon="7.32454">
        <ele>1848.1</ele>
        <time>2017-08-26T07:14:01Z</time>
      </trkpt>
      <trkpt lat="44.11508" lon="7.32465">
        <ele>1848.8</ele>
        <time>2017-08-26T07:14:13Z</time>
      </trkpt>
      <trkpt lat="44.11513" lon="7.32469">
        <ele>1849.1</ele>
        <time>2017-08-26T07:14:18Z</time>
      </trkpt>
      <trkpt lat="44.11515" lon="7.32471">
        <ele>1849.2</ele>
        <time>2017-08-26T07:14:20Z</time>
      </trkpt>
      <trkpt lat="44.11522" lon="7.32476">
        <ele>1849.6</ele>
        <time>2017-08-26T07:14:26Z</time>
      </trkpt>
      <trkpt lat="44.11534" lon="7.32483">
        <ele>1850.8</ele>
        <time>2017-08-26T07:14:39Z</time>
      </trkpt>
      <trkpt lat="44.11546" lon="7.32495">
        <ele>1852</ele>
        <time>2017-08-26T07:14:52Z</time>
      </trkpt>
      <trkpt lat="44.11558" lon="7.32511">
        <ele>1853.3</ele>
        <time>2017-08-26T07:15:07Z</time>
      </trkpt>
      <trkpt lat="44.11563" lon="7.32533">
        <ele>1853.9</ele>
        <time>2017-08-26T07:15:20Z</time>
      </trkpt>
      <trkpt lat="44.11573" lon="7.32534">
        <ele>1857.1</ele>
        <time>2017-08-26T07:15:32Z</time>
      </trkpt>
      <trkpt lat="44.11574" lon="7.32543">
        <ele>1857.1</ele>
        <time>2017-08-26T07:15:40Z</time>
      </trkpt>
      <trkpt lat="44.1158" lon="7.32563">
        <ele>1857.7</ele>
        <time>2017-08-26T07:15:54Z</time>
      </trkpt>
      <trkpt lat="44.11589" lon="7.32569">
        <ele>1860.3</ele>
        <time>2017-08-26T07:16:07Z</time>
      </trkpt>
      <trkpt lat="44.11591" lon="7.32573">
        <ele>1860.8</ele>
        <time>2017-08-26T07:16:12Z</time>
      </trkpt>
      <trkpt lat="44.11589" lon="7.32579">
        <ele>1859.8</ele>
        <time>2017-08-26T07:16:17Z</time>
      </trkpt>
      <trkpt lat="44.11593" lon="7.32591">
        <ele>1861</ele>
        <time>2017-08-26T07:16:30Z</time>
      </trkpt>
      <trkpt lat="44.11595" lon="7.32599">
        <ele>1861.8</ele>
        <time>2017-08-26T07:16:44Z</time>
      </trkpt>
      <trkpt lat="44.11597" lon="7.32615">
        <ele>1862.5</ele>
        <time>2017-08-26T07:16:57Z</time>
      </trkpt>
      <trkpt lat="44.11597" lon="7.32621">
        <ele>1862.5</ele>
        <time>2017-08-26T07:17:09Z</time>
      </trkpt>
      <trkpt lat="44.11598" lon="7.32624">
        <ele>1862.6</ele>
        <time>2017-08-26T07:17:11Z</time>
      </trkpt>
      <trkpt lat="44.11604" lon="7.32631">
        <ele>1863</ele>
        <time>2017-08-26T07:17:17Z</time>
      </trkpt>
      <trkpt lat="44.11611" lon="7.32645">
        <ele>1863</ele>
        <time>2017-08-26T07:17:32Z</time>
      </trkpt>
      <trkpt lat="44.11619" lon="7.32664">
        <ele>1864.8</ele>
        <time>2017-08-26T07:17:46Z</time>
      </trkpt>
      <trkpt lat="44.11622" lon="7.32675">
        <ele>1865.5</ele>
        <time>2017-08-26T07:17:59Z</time>
      </trkpt>
      <trkpt lat="44.11624" lon="7.32681">
        <ele>1865.9</ele>
        <time>2017-08-26T07:18:03Z</time>
      </trkpt>
      <trkpt lat="44.11625" lon="7.32691">
        <ele>1866</ele>
        <time>2017-08-26T07:18:06Z</time>
      </trkpt>
      <trkpt lat="44.11633" lon="7.32707">
        <ele>1866.9</ele>
        <time>2017-08-26T07:18:22Z</time>
      </trkpt>
      <trkpt lat="44.11638" lon="7.32724">
        <ele>1867.2</ele>
        <time>2017-08-26T07:18:34Z</time>
      </trkpt>
      <trkpt lat="44.11648" lon="7.3274">
        <ele>1868.8</ele>
        <time>2017-08-26T07:18:50Z</time>
      </trkpt>
      <trkpt lat="44.11663" lon="7.32737">
        <ele>1869.7</ele>
        <time>2017-08-26T07:18:57Z</time>
      </trkpt>
      <trkpt lat="44.1168" lon="7.32741">
        <ele>1871.8</ele>
        <time>2017-08-26T07:19:09Z</time>
      </trkpt>
      <trkpt lat="44.11689" lon="7.32748">
        <ele>1872.5</ele>
        <time>2017-08-26T07:19:17Z</time>
      </trkpt>
      <trkpt lat="44.11691" lon="7.32749">
        <ele>1872.7</ele>
        <time>2017-08-26T07:19:18Z</time>
      </trkpt>
      <trkpt lat="44.11697" lon="7.32753">
        <ele>1873.6</ele>
        <time>2017-08-26T07:19:31Z</time>
      </trkpt>
      <trkpt lat="44.11699" lon="7.32764">
        <ele>1874.3</ele>
        <time>2017-08-26T07:19:43Z</time>
      </trkpt>
      <trkpt lat="44.11704" lon="7.3277">
        <ele>1875.3</ele>
        <time>2017-08-26T07:19:56Z</time>
      </trkpt>
      <trkpt lat="44.11703" lon="7.3278">
        <ele>1875.3</ele>
        <time>2017-08-26T07:20:06Z</time>
      </trkpt>
      <trkpt lat="44.11705" lon="7.32795">
        <ele>1875.9</ele>
        <time>2017-08-26T07:20:19Z</time>
      </trkpt>
      <trkpt lat="44.11705" lon="7.32796">
        <ele>1875.9</ele>
        <time>2017-08-26T07:20:20Z</time>
      </trkpt>
      <trkpt lat="44.11706" lon="7.32804">
        <ele>1876.2</ele>
        <time>2017-08-26T07:20:29Z</time>
      </trkpt>
      <trkpt lat="44.11709" lon="7.32803">
        <ele>1876.5</ele>
        <time>2017-08-26T07:20:39Z</time>
      </trkpt>
      <trkpt lat="44.11724" lon="7.32809">
        <ele>1878.4</ele>
        <time>2017-08-26T07:20:53Z</time>
      </trkpt>
      <trkpt lat="44.11739" lon="7.32816">
        <ele>1880.8</ele>
        <time>2017-08-26T07:21:05Z</time>
      </trkpt>
      <trkpt lat="44.11746" lon="7.32819">
        <ele>1881.9</ele>
        <time>2017-08-26T07:21:17Z</time>
      </trkpt>
      <trkpt lat="44.11762" lon="7.32827">
        <ele>1884.7</ele>
        <time>2017-08-26T07:21:31Z</time>
      </trkpt>
      <trkpt lat="44.1177" lon="7.32833">
        <ele>1885.9</ele>
        <time>2017-08-26T07:21:49Z</time>
      </trkpt>
      <trkpt lat="44.11784" lon="7.32845">
        <ele>1888</ele>
        <time>2017-08-26T07:22:03Z</time>
      </trkpt>
      <trkpt lat="44.1179" lon="7.32848">
        <ele>1889</ele>
        <time>2017-08-26T07:22:13Z</time>
      </trkpt>
      <trkpt lat="44.11796" lon="7.32855">
        <ele>1889.8</ele>
        <time>2017-08-26T07:22:27Z</time>
      </trkpt>
      <trkpt lat="44.11796" lon="7.32856">
        <ele>1889.7</ele>
        <time>2017-08-26T07:22:43Z</time>
      </trkpt>
      <trkpt lat="44.11796" lon="7.32856">
        <ele>1889.7</ele>
        <time>2017-08-26T07:23:01Z</time>
      </trkpt>
      <trkpt lat="44.11805" lon="7.3286">
        <ele>1891</ele>
        <time>2017-08-26T07:23:16Z</time>
      </trkpt>
      <trkpt lat="44.1182" lon="7.32864">
        <ele>1894.1</ele>
        <time>2017-08-26T07:23:28Z</time>
      </trkpt>
      <trkpt lat="44.11834" lon="7.32869">
        <ele>1896.9</ele>
        <time>2017-08-26T07:23:37Z</time>
      </trkpt>
      <trkpt lat="44.11842" lon="7.32874">
        <ele>1898.9</ele>
        <time>2017-08-26T07:23:42Z</time>
      </trkpt>
      <trkpt lat="44.11854" lon="7.32881">
        <ele>1901.7</ele>
        <time>2017-08-26T07:23:54Z</time>
      </trkpt>
      <trkpt lat="44.11865" lon="7.32882">
        <ele>1904.4</ele>
        <time>2017-08-26T07:24:07Z</time>
      </trkpt>
      <trkpt lat="44.11878" lon="7.32887">
        <ele>1906.9</ele>
        <time>2017-08-26T07:24:19Z</time>
      </trkpt>
      <trkpt lat="44.11892" lon="7.32894">
        <ele>1908.9</ele>
        <time>2017-08-26T07:24:32Z</time>
      </trkpt>
      <trkpt lat="44.119" lon="7.32902">
        <ele>1909.3</ele>
        <time>2017-08-26T07:24:47Z</time>
      </trkpt>
      <trkpt lat="44.119" lon="7.32902">
        <ele>1909.3</ele>
        <time>2017-08-26T07:25:07Z</time>
      </trkpt>
      <trkpt lat="44.11902" lon="7.32901">
        <ele>1909.9</ele>
        <time>2017-08-26T07:25:26Z</time>
      </trkpt>
      <trkpt lat="44.11905" lon="7.32906">
        <ele>1909.7</ele>
        <time>2017-08-26T07:25:31Z</time>
      </trkpt>
      <trkpt lat="44.11907" lon="7.3291">
        <ele>1909.4</ele>
        <time>2017-08-26T07:25:34Z</time>
      </trkpt>
      <trkpt lat="44.11912" lon="7.32913">
        <ele>1909.8</ele>
        <time>2017-08-26T07:25:38Z</time>
      </trkpt>
      <trkpt lat="44.11917" lon="7.32924">
        <ele>1909</ele>
        <time>2017-08-26T07:25:52Z</time>
      </trkpt>
      <trkpt lat="44.11925" lon="7.32927">
        <ele>1909.7</ele>
        <time>2017-08-26T07:26:05Z</time>
      </trkpt>
      <trkpt lat="44.11936" lon="7.32927">
        <ele>1911.3</ele>
        <time>2017-08-26T07:26:16Z</time>
      </trkpt>
      <trkpt lat="44.11946" lon="7.32937">
        <ele>1911.4</ele>
        <time>2017-08-26T07:26:30Z</time>
      </trkpt>
      <trkpt lat="44.11954" lon="7.32946">
        <ele>1912</ele>
        <time>2017-08-26T07:26:42Z</time>
      </trkpt>
      <trkpt lat="44.11957" lon="7.32949">
        <ele>1912.5</ele>
        <time>2017-08-26T07:26:47Z</time>
      </trkpt>
      <trkpt lat="44.11958" lon="7.32959">
        <ele>1912.4</ele>
        <time>2017-08-26T07:26:55Z</time>
      </trkpt>
      <trkpt lat="44.11966" lon="7.32973">
        <ele>1913.7</ele>
        <time>2017-08-26T07:27:08Z</time>
      </trkpt>
      <trkpt lat="44.11975" lon="7.32982">
        <ele>1916.1</ele>
        <time>2017-08-26T07:27:23Z</time>
      </trkpt>
      <trkpt lat="44.11983" lon="7.3299">
        <ele>1918.4</ele>
        <time>2017-08-26T07:27:35Z</time>
      </trkpt>
      <trkpt lat="44.11991" lon="7.32997">
        <ele>1920.6</ele>
        <time>2017-08-26T07:27:48Z</time>
      </trkpt>
      <trkpt lat="44.11992" lon="7.33005">
        <ele>1921.1</ele>
        <time>2017-08-26T07:27:56Z</time>
      </trkpt>
      <trkpt lat="44.11996" lon="7.33009">
        <ele>1922.1</ele>
        <time>2017-08-26T07:28:01Z</time>
      </trkpt>
      <trkpt lat="44.12008" lon="7.33026">
        <ele>1925</ele>
        <time>2017-08-26T07:28:16Z</time>
      </trkpt>
      <trkpt lat="44.12011" lon="7.33029">
        <ele>1925.8</ele>
        <time>2017-08-26T07:28:21Z</time>
      </trkpt>
      <trkpt lat="44.12014" lon="7.33048">
        <ele>1926.9</ele>
        <time>2017-08-26T07:28:35Z</time>
      </trkpt>
      <trkpt lat="44.12015" lon="7.33053">
        <ele>1927.2</ele>
        <time>2017-08-26T07:28:48Z</time>
      </trkpt>
      <trkpt lat="44.12011" lon="7.33064">
        <ele>1927.3</ele>
        <time>2017-08-26T07:29:04Z</time>
      </trkpt>
      <trkpt lat="44.12009" lon="7.33067">
        <ele>1927.2</ele>
        <time>2017-08-26T07:29:06Z</time>
      </trkpt>
      <trkpt lat="44.12006" lon="7.33088">
        <ele>1929.1</ele>
        <time>2017-08-26T07:29:17Z</time>
      </trkpt>
      <trkpt lat="44.12004" lon="7.3309">
        <ele>1929</ele>
        <time>2017-08-26T07:29:19Z</time>
      </trkpt>
      <trkpt lat="44.12004" lon="7.33106">
        <ele>1931.7</ele>
        <time>2017-08-26T07:29:33Z</time>
      </trkpt>
      <trkpt lat="44.11995" lon="7.33108">
        <ele>1931.1</ele>
        <time>2017-08-26T07:29:49Z</time>
      </trkpt>
      <trkpt lat="44.11993" lon="7.33108">
        <ele>1930.9</ele>
        <time>2017-08-26T07:29:53Z</time>
      </trkpt>
      <trkpt lat="44.11987" lon="7.33106">
        <ele>1930.1</ele>
        <time>2017-08-26T07:29:59Z</time>
      </trkpt>
      <trkpt lat="44.11979" lon="7.33095">
        <ele>1927.1</ele>
        <time>2017-08-26T07:30:08Z</time>
      </trkpt>
      <trkpt lat="44.11969" lon="7.33081">
        <ele>1923.6</ele>
        <time>2017-08-26T07:30:22Z</time>
      </trkpt>
      <trkpt lat="44.11966" lon="7.33071">
        <ele>1922</ele>
        <time>2017-08-26T07:30:36Z</time>
      </trkpt>
      <trkpt lat="44.11953" lon="7.33065">
        <ele>1920.4</ele>
        <time>2017-08-26T07:30:52Z</time>
      </trkpt>
      <trkpt lat="44.1194" lon="7.33055">
        <ele>1917.9</ele>
        <time>2017-08-26T07:31:07Z</time>
      </trkpt>
      <trkpt lat="44.11927" lon="7.33048">
        <ele>1916.6</ele>
        <time>2017-08-26T07:31:23Z</time>
      </trkpt>
      <trkpt lat="44.11919" lon="7.33053">
        <ele>1917.5</ele>
        <time>2017-08-26T07:31:36Z</time>
      </trkpt>
      <trkpt lat="44.1191" lon="7.33052">
        <ele>1917.4</ele>
        <time>2017-08-26T07:31:46Z</time>
      </trkpt>
      <trkpt lat="44.11901" lon="7.33061">
        <ele>1920.2</ele>
        <time>2017-08-26T07:31:56Z</time>
      </trkpt>
      <trkpt lat="44.11888" lon="7.33074">
        <ele>1925</ele>
        <time>2017-08-26T07:32:11Z</time>
      </trkpt>
      <trkpt lat="44.11884" lon="7.33082">
        <ele>1927.9</ele>
        <time>2017-08-26T07:32:17Z</time>
      </trkpt>
      <trkpt lat="44.11878" lon="7.33105">
        <ele>1936.1</ele>
        <time>2017-08-26T07:32:32Z</time>
      </trkpt>
      <trkpt lat="44.11868" lon="7.3311">
        <ele>1938.9</ele>
        <time>2017-08-26T07:32:51Z</time>
      </trkpt>
      <trkpt lat="44.11854" lon="7.33108">
        <ele>1939.4</ele>
        <time>2017-08-26T07:33:09Z</time>
      </trkpt>
      <trkpt lat="44.11843" lon="7.33109">
        <ele>1940.6</ele>
        <time>2017-08-26T07:33:25Z</time>
      </trkpt>
      <trkpt lat="44.11827" lon="7.33118">
        <ele>1944.1</ele>
        <time>2017-08-26T07:33:43Z</time>
      </trkpt>
      <trkpt lat="44.1181" lon="7.33108">
        <ele>1941.9</ele>
        <time>2017-08-26T07:34:01Z</time>
      </trkpt>
      <trkpt lat="44.11805" lon="7.33108">
        <ele>1942</ele>
        <time>2017-08-26T07:34:08Z</time>
      </trkpt>
      <trkpt lat="44.11801" lon="7.33117">
        <ele>1943.6</ele>
        <time>2017-08-26T07:34:22Z</time>
      </trkpt>
      <trkpt lat="44.11801" lon="7.33133">
        <ele>1947.1</ele>
        <time>2017-08-26T07:34:36Z</time>
      </trkpt>
      <trkpt lat="44.11803" lon="7.33142">
        <ele>1949.4</ele>
        <time>2017-08-26T07:34:47Z</time>
      </trkpt>
      <trkpt lat="44.11807" lon="7.33154">
        <ele>1952.9</ele>
        <time>2017-08-26T07:35:00Z</time>
      </trkpt>
      <trkpt lat="44.11813" lon="7.33164">
        <ele>1956.1</ele>
        <time>2017-08-26T07:35:15Z</time>
      </trkpt>
      <trkpt lat="44.11815" lon="7.33177">
        <ele>1959.5</ele>
        <time>2017-08-26T07:35:27Z</time>
      </trkpt>
      <trkpt lat="44.1181" lon="7.33188">
        <ele>1961.3</ele>
        <time>2017-08-26T07:35:40Z</time>
      </trkpt>
      <trkpt lat="44.11812" lon="7.33199">
        <ele>1964.4</ele>
        <time>2017-08-26T07:35:53Z</time>
      </trkpt>
      <trkpt lat="44.11811" lon="7.33212">
        <ele>1967.7</ele>
        <time>2017-08-26T07:36:06Z</time>
      </trkpt>
      <trkpt lat="44.11809" lon="7.33216">
        <ele>1968.2</ele>
        <time>2017-08-26T07:36:10Z</time>
      </trkpt>
      <trkpt lat="44.11803" lon="7.33236">
        <ele>1971.1</ele>
        <time>2017-08-26T07:36:26Z</time>
      </trkpt>
      <trkpt lat="44.11794" lon="7.33248">
        <ele>1970.4</ele>
        <time>2017-08-26T07:36:41Z</time>
      </trkpt>
      <trkpt lat="44.11796" lon="7.33264">
        <ele>1975.1</ele>
        <time>2017-08-26T07:36:56Z</time>
      </trkpt>
      <trkpt lat="44.11793" lon="7.33264">
        <ele>1974</ele>
        <time>2017-08-26T07:37:13Z</time>
      </trkpt>
      <trkpt lat="44.118" lon="7.33281">
        <ele>1980.7</ele>
        <time>2017-08-26T07:37:30Z</time>
      </trkpt>
      <trkpt lat="44.11801" lon="7.33291">
        <ele>1983.3</ele>
        <time>2017-08-26T07:37:45Z</time>
      </trkpt>
      <trkpt lat="44.11802" lon="7.33293">
        <ele>1984.1</ele>
        <time>2017-08-26T07:37:55Z</time>
      </trkpt>
      <trkpt lat="44.11802" lon="7.33293">
        <ele>1984.1</ele>
        <time>2017-08-26T07:37:56Z</time>
      </trkpt>
      <trkpt lat="44.11811" lon="7.33296">
        <ele>1987.4</ele>
        <time>2017-08-26T07:38:12Z</time>
      </trkpt>
      <trkpt lat="44.11815" lon="7.33295">
        <ele>1988.2</ele>
        <time>2017-08-26T07:38:27Z</time>
      </trkpt>
      <trkpt lat="44.11807" lon="7.33301">
        <ele>1987.4</ele>
        <time>2017-08-26T07:38:43Z</time>
      </trkpt>
      <trkpt lat="44.11804" lon="7.33316">
        <ele>1989.8</ele>
        <time>2017-08-26T07:39:01Z</time>
      </trkpt>
      <trkpt lat="44.11799" lon="7.33324">
        <ele>1989.9</ele>
        <time>2017-08-26T07:39:17Z</time>
      </trkpt>
      <trkpt lat="44.11798" lon="7.33334">
        <ele>1991.7</ele>
        <time>2017-08-26T07:39:34Z</time>
      </trkpt>
      <trkpt lat="44.118" lon="7.33342">
        <ele>1994.1</ele>
        <time>2017-08-26T07:39:49Z</time>
      </trkpt>
      <trkpt lat="44.118" lon="7.33352">
        <ele>1996.2</ele>
        <time>2017-08-26T07:39:58Z</time>
      </trkpt>
      <trkpt lat="44.118" lon="7.33354">
        <ele>1996.7</ele>
        <time>2017-08-26T07:39:59Z</time>
      </trkpt>
      <trkpt lat="44.11798" lon="7.33361">
        <ele>1997.5</ele>
        <time>2017-08-26T07:40:06Z</time>
      </trkpt>
      <trkpt lat="44.11799" lon="7.33374">
        <ele>2000.9</ele>
        <time>2017-08-26T07:40:21Z</time>
      </trkpt>
      <trkpt lat="44.11798" lon="7.33391">
        <ele>2004.5</ele>
        <time>2017-08-26T07:40:34Z</time>
      </trkpt>
      <trkpt lat="44.11798" lon="7.33408">
        <ele>2008.4</ele>
        <time>2017-08-26T07:40:51Z</time>
      </trkpt>
      <trkpt lat="44.11796" lon="7.33418">
        <ele>2009.8</ele>
        <time>2017-08-26T07:41:05Z</time>
      </trkpt>
      <trkpt lat="44.11791" lon="7.33428">
        <ele>2009.8</ele>
        <time>2017-08-26T07:41:18Z</time>
      </trkpt>
      <trkpt lat="44.1179" lon="7.33448">
        <ele>2014</ele>
        <time>2017-08-26T07:41:34Z</time>
      </trkpt>
      <trkpt lat="44.11794" lon="7.33467">
        <ele>2020.4</ele>
        <time>2017-08-26T07:41:49Z</time>
      </trkpt>
      <trkpt lat="44.11796" lon="7.33468">
        <ele>2021.6</ele>
        <time>2017-08-26T07:42:05Z</time>
      </trkpt>
      <trkpt lat="44.11796" lon="7.33486">
        <ele>2026.3</ele>
        <time>2017-08-26T07:42:19Z</time>
      </trkpt>
      <trkpt lat="44.11798" lon="7.33494">
        <ele>2029.5</ele>
        <time>2017-08-26T07:42:35Z</time>
      </trkpt>
      <trkpt lat="44.11792" lon="7.33501">
        <ele>2028.5</ele>
        <time>2017-08-26T07:42:52Z</time>
      </trkpt>
      <trkpt lat="44.11792" lon="7.33504">
        <ele>2029.5</ele>
        <time>2017-08-26T07:43:06Z</time>
      </trkpt>
      <trkpt lat="44.11795" lon="7.33534">
        <ele>2040.8</ele>
        <time>2017-08-26T07:43:23Z</time>
      </trkpt>
      <trkpt lat="44.11798" lon="7.33544">
        <ele>2045.6</ele>
        <time>2017-08-26T07:43:38Z</time>
      </trkpt>
      <trkpt lat="44.11798" lon="7.33544">
        <ele>2045.6</ele>
        <time>2017-08-26T07:44:06Z</time>
      </trkpt>
      <trkpt lat="44.11801" lon="7.33544">
        <ele>2047.1</ele>
        <time>2017-08-26T07:44:40Z</time>
      </trkpt>
      <trkpt lat="44.11801" lon="7.33546">
        <ele>2047.7</ele>
        <time>2017-08-26T07:45:00Z</time>
      </trkpt>
      <trkpt lat="44.11802" lon="7.33546">
        <ele>2048.2</ele>
        <time>2017-08-26T07:45:22Z</time>
      </trkpt>
      <trkpt lat="44.11802" lon="7.33546">
        <ele>2048.2</ele>
        <time>2017-08-26T07:45:55Z</time>
      </trkpt>
      <trkpt lat="44.11802" lon="7.33545">
        <ele>2047.9</ele>
        <time>2017-08-26T07:46:31Z</time>
      </trkpt>
      <trkpt lat="44.11804" lon="7.33544">
        <ele>2048.5</ele>
        <time>2017-08-26T07:47:17Z</time>
      </trkpt>
      <trkpt lat="44.11803" lon="7.33544">
        <ele>2048</ele>
        <time>2017-08-26T07:47:53Z</time>
      </trkpt>
      <trkpt lat="44.11803" lon="7.33544">
        <ele>2048</ele>
        <time>2017-08-26T07:48:22Z</time>
      </trkpt>
      <trkpt lat="44.11803" lon="7.33544">
        <ele>2048</ele>
        <time>2017-08-26T07:48:51Z</time>
      </trkpt>
      <trkpt lat="44.11803" lon="7.33544">
        <ele>2048</ele>
        <time>2017-08-26T07:49:20Z</time>
      </trkpt>
      <trkpt lat="44.11802" lon="7.33545">
        <ele>2047.9</ele>
        <time>2017-08-26T07:49:49Z</time>
      </trkpt>
      <trkpt lat="44.11802" lon="7.33544">
        <ele>2047.5</ele>
        <time>2017-08-26T07:50:27Z</time>
      </trkpt>
      <trkpt lat="44.11802" lon="7.33545">
        <ele>2047.9</ele>
        <time>2017-08-26T07:51:03Z</time>
      </trkpt>
      <trkpt lat="44.11801" lon="7.33545">
        <ele>2047.4</ele>
        <time>2017-08-26T07:51:26Z</time>
      </trkpt>
      <trkpt lat="44.11803" lon="7.33557">
        <ele>2052.3</ele>
        <time>2017-08-26T07:51:42Z</time>
      </trkpt>
      <trkpt lat="44.11795" lon="7.33563">
        <ele>2050.4</ele>
        <time>2017-08-26T07:51:53Z</time>
      </trkpt>
      <trkpt lat="44.11795" lon="7.33577">
        <ele>2054.7</ele>
        <time>2017-08-26T07:52:06Z</time>
      </trkpt>
      <trkpt lat="44.11791" lon="7.33589">
        <ele>2056.3</ele>
        <time>2017-08-26T07:52:22Z</time>
      </trkpt>
      <trkpt lat="44.11787" lon="7.33601">
        <ele>2057.5</ele>
        <time>2017-08-26T07:52:36Z</time>
      </trkpt>
      <trkpt lat="44.11785" lon="7.33618">
        <ele>2061.8</ele>
        <time>2017-08-26T07:52:50Z</time>
      </trkpt>
      <trkpt lat="44.11782" lon="7.33628">
        <ele>2063.9</ele>
        <time>2017-08-26T07:53:04Z</time>
      </trkpt>
      <trkpt lat="44.11792" lon="7.33634">
        <ele>2071.4</ele>
        <time>2017-08-26T07:53:21Z</time>
      </trkpt>
      <trkpt lat="44.11797" lon="7.33639">
        <ele>2075.7</ele>
        <time>2017-08-26T07:53:35Z</time>
      </trkpt>
      <trkpt lat="44.11795" lon="7.33646">
        <ele>2076.8</ele>
        <time>2017-08-26T07:53:51Z</time>
      </trkpt>
      <trkpt lat="44.1179" lon="7.33655">
        <ele>2077.2</ele>
        <time>2017-08-26T07:54:07Z</time>
      </trkpt>
      <trkpt lat="44.11797" lon="7.33663">
        <ele>2082.6</ele>
        <time>2017-08-26T07:54:19Z</time>
      </trkpt>
      <trkpt lat="44.11804" lon="7.33664">
        <ele>2085.7</ele>
        <time>2017-08-26T07:54:35Z</time>
      </trkpt>
      <trkpt lat="44.11799" lon="7.33673">
        <ele>2086.3</ele>
        <time>2017-08-26T07:54:50Z</time>
      </trkpt>
      <trkpt lat="44.11796" lon="7.33682">
        <ele>2088</ele>
        <time>2017-08-26T07:55:03Z</time>
      </trkpt>
      <trkpt lat="44.11789" lon="7.33689">
        <ele>2087.8</ele>
        <time>2017-08-26T07:55:15Z</time>
      </trkpt>
      <trkpt lat="44.11786" lon="7.33701">
        <ele>2090.6</ele>
        <time>2017-08-26T07:55:26Z</time>
      </trkpt>
      <trkpt lat="44.11783" lon="7.3371">
        <ele>2092.5</ele>
        <time>2017-08-26T07:55:38Z</time>
      </trkpt>
      <trkpt lat="44.11777" lon="7.33721">
        <ele>2094.4</ele>
        <time>2017-08-26T07:55:53Z</time>
      </trkpt>
      <trkpt lat="44.11773" lon="7.33734">
        <ele>2097.4</ele>
        <time>2017-08-26T07:56:07Z</time>
      </trkpt>
      <trkpt lat="44.11774" lon="7.33743">
        <ele>2100</ele>
        <time>2017-08-26T07:56:19Z</time>
      </trkpt>
      <trkpt lat="44.11773" lon="7.33751">
        <ele>2102.3</ele>
        <time>2017-08-26T07:56:31Z</time>
      </trkpt>
      <trkpt lat="44.11779" lon="7.3376">
        <ele>2105.2</ele>
        <time>2017-08-26T07:56:47Z</time>
      </trkpt>
      <trkpt lat="44.11784" lon="7.33768">
        <ele>2108.5</ele>
        <time>2017-08-26T07:56:59Z</time>
      </trkpt>
      <trkpt lat="44.11786" lon="7.33771">
        <ele>2109.7</ele>
        <time>2017-08-26T07:57:12Z</time>
      </trkpt>
      <trkpt lat="44.11786" lon="7.33782">
        <ele>2112.9</ele>
        <time>2017-08-26T07:57:25Z</time>
      </trkpt>
      <trkpt lat="44.11785" lon="7.33791">
        <ele>2115.7</ele>
        <time>2017-08-26T07:57:39Z</time>
      </trkpt>
      <trkpt lat="44.11778" lon="7.33795">
        <ele>2116.2</ele>
        <time>2017-08-26T07:57:53Z</time>
      </trkpt>
      <trkpt lat="44.11771" lon="7.33799">
        <ele>2118.1</ele>
        <time>2017-08-26T07:58:06Z</time>
      </trkpt>
      <trkpt lat="44.11767" lon="7.33798">
        <ele>2118</ele>
        <time>2017-08-26T07:58:10Z</time>
      </trkpt>
      <trkpt lat="44.11758" lon="7.33802">
        <ele>2119.7</ele>
        <time>2017-08-26T07:58:25Z</time>
      </trkpt>
      <trkpt lat="44.11757" lon="7.33811">
        <ele>2123.1</ele>
        <time>2017-08-26T07:58:39Z</time>
      </trkpt>
      <trkpt lat="44.1176" lon="7.33819">
        <ele>2126.6</ele>
        <time>2017-08-26T07:58:51Z</time>
      </trkpt>
      <trkpt lat="44.11754" lon="7.33822">
        <ele>2128</ele>
        <time>2017-08-26T07:59:04Z</time>
      </trkpt>
      <trkpt lat="44.1175" lon="7.33822">
        <ele>2128.1</ele>
        <time>2017-08-26T07:59:10Z</time>
      </trkpt>
      <trkpt lat="44.11741" lon="7.33825">
        <ele>2132.7</ele>
        <time>2017-08-26T07:59:24Z</time>
      </trkpt>
      <trkpt lat="44.11738" lon="7.33832">
        <ele>2136</ele>
        <time>2017-08-26T07:59:36Z</time>
      </trkpt>
      <trkpt lat="44.11734" lon="7.33835">
        <ele>2138.2</ele>
        <time>2017-08-26T07:59:47Z</time>
      </trkpt>
      <trkpt lat="44.11728" lon="7.33842">
        <ele>2141.9</ele>
        <time>2017-08-26T08:00:00Z</time>
      </trkpt>
      <trkpt lat="44.11724" lon="7.33849">
        <ele>2144.3</ele>
        <time>2017-08-26T08:00:11Z</time>
      </trkpt>
      <trkpt lat="44.11719" lon="7.33857">
        <ele>2147</ele>
        <time>2017-08-26T08:00:22Z</time>
      </trkpt>
      <trkpt lat="44.11718" lon="7.33865">
        <ele>2149.3</ele>
        <time>2017-08-26T08:00:36Z</time>
      </trkpt>
      <trkpt lat="44.11713" lon="7.33871">
        <ele>2151.7</ele>
        <time>2017-08-26T08:00:48Z</time>
      </trkpt>
      <trkpt lat="44.1171" lon="7.33873">
        <ele>2152.3</ele>
        <time>2017-08-26T08:00:55Z</time>
      </trkpt>
      <trkpt lat="44.11704" lon="7.33887">
        <ele>2153.9</ele>
        <time>2017-08-26T08:01:07Z</time>
      </trkpt>
      <trkpt lat="44.11702" lon="7.33891">
        <ele>2153.9</ele>
        <time>2017-08-26T08:01:13Z</time>
      </trkpt>
      <trkpt lat="44.11699" lon="7.33895">
        <ele>2153.6</ele>
        <time>2017-08-26T08:01:17Z</time>
      </trkpt>
      <trkpt lat="44.11696" lon="7.33905">
        <ele>2153.6</ele>
        <time>2017-08-26T08:01:25Z</time>
      </trkpt>
      <trkpt lat="44.11691" lon="7.33917">
        <ele>2154.5</ele>
        <time>2017-08-26T08:01:38Z</time>
      </trkpt>
      <trkpt lat="44.11689" lon="7.3393">
        <ele>2155.5</ele>
        <time>2017-08-26T08:01:53Z</time>
      </trkpt>
      <trkpt lat="44.11689" lon="7.33933">
        <ele>2155.6</ele>
        <time>2017-08-26T08:02:09Z</time>
      </trkpt>
      <trkpt lat="44.11689" lon="7.33933">
        <ele>2155.6</ele>
        <time>2017-08-26T08:02:41Z</time>
      </trkpt>
      <trkpt lat="44.1169" lon="7.33934">
        <ele>2155.7</ele>
        <time>2017-08-26T08:03:15Z</time>
      </trkpt>
      <trkpt lat="44.1169" lon="7.33934">
        <ele>2155.7</ele>
        <time>2017-08-26T08:03:57Z</time>
      </trkpt>
      <trkpt lat="44.1169" lon="7.33934">
        <ele>2155.7</ele>
        <time>2017-08-26T08:04:30Z</time>
      </trkpt>
      <trkpt lat="44.1169" lon="7.33935">
        <ele>2155.8</ele>
        <time>2017-08-26T08:05:04Z</time>
      </trkpt>
      <trkpt lat="44.1169" lon="7.33936">
        <ele>2155.8</ele>
        <time>2017-08-26T08:05:44Z</time>
      </trkpt>
      <trkpt lat="44.11691" lon="7.33949">
        <ele>2156.9</ele>
        <time>2017-08-26T08:05:55Z</time>
      </trkpt>
      <trkpt lat="44.11687" lon="7.33968">
        <ele>2157.8</ele>
        <time>2017-08-26T08:06:11Z</time>
      </trkpt>
      <trkpt lat="44.11683" lon="7.33978">
        <ele>2157.7</ele>
        <time>2017-08-26T08:06:20Z</time>
      </trkpt>
      <trkpt lat="44.1168" lon="7.33985">
        <ele>2157.7</ele>
        <time>2017-08-26T08:06:26Z</time>
      </trkpt>
      <trkpt lat="44.11677" lon="7.3399">
        <ele>2157.5</ele>
        <time>2017-08-26T08:06:31Z</time>
      </trkpt>
      <trkpt lat="44.11671" lon="7.34006">
        <ele>2157.6</ele>
        <time>2017-08-26T08:06:44Z</time>
      </trkpt>
      <trkpt lat="44.11668" lon="7.34016">
        <ele>2157.5</ele>
        <time>2017-08-26T08:06:51Z</time>
      </trkpt>
      <trkpt lat="44.11665" lon="7.34019">
        <ele>2157</ele>
        <time>2017-08-26T08:06:54Z</time>
      </trkpt>
      <trkpt lat="44.11662" lon="7.34036">
        <ele>2157.4</ele>
        <time>2017-08-26T08:07:04Z</time>
      </trkpt>
      <trkpt lat="44.11661" lon="7.34038">
        <ele>2157.3</ele>
        <time>2017-08-26T08:07:06Z</time>
      </trkpt>
      <trkpt lat="44.1166" lon="7.34043">
        <ele>2157.4</ele>
        <time>2017-08-26T08:07:09Z</time>
      </trkpt>
      <trkpt lat="44.11658" lon="7.34054">
        <ele>2157.7</ele>
        <time>2017-08-26T08:07:16Z</time>
      </trkpt>
      <trkpt lat="44.11657" lon="7.3406">
        <ele>2157.9</ele>
        <time>2017-08-26T08:07:20Z</time>
      </trkpt>
      <trkpt lat="44.11654" lon="7.34072">
        <ele>2158</ele>
        <time>2017-08-26T08:07:29Z</time>
      </trkpt>
      <trkpt lat="44.11642" lon="7.34082">
        <ele>2154.9</ele>
        <time>2017-08-26T08:07:43Z</time>
      </trkpt>
      <trkpt lat="44.11637" lon="7.3409">
        <ele>2153.6</ele>
        <time>2017-08-26T08:07:49Z</time>
      </trkpt>
      <trkpt lat="44.11636" lon="7.34092">
        <ele>2153.4</ele>
        <time>2017-08-26T08:07:51Z</time>
      </trkpt>
      <trkpt lat="44.11634" lon="7.34099">
        <ele>2153</ele>
        <time>2017-08-26T08:07:56Z</time>
      </trkpt>
      <trkpt lat="44.11633" lon="7.34103">
        <ele>2152.9</ele>
        <time>2017-08-26T08:07:59Z</time>
      </trkpt>
      <trkpt lat="44.11626" lon="7.34124">
        <ele>2152.9</ele>
        <time>2017-08-26T08:08:14Z</time>
      </trkpt>
      <trkpt lat="44.11622" lon="7.34137">
        <ele>2153.2</ele>
        <time>2017-08-26T08:08:25Z</time>
      </trkpt>
      <trkpt lat="44.11614" lon="7.34139">
        <ele>2151.6</ele>
        <time>2017-08-26T08:08:37Z</time>
      </trkpt>
      <trkpt lat="44.11614" lon="7.34139">
        <ele>2151.6</ele>
        <time>2017-08-26T08:08:57Z</time>
      </trkpt>
      <trkpt lat="44.11611" lon="7.34141">
        <ele>2151.3</ele>
        <time>2017-08-26T08:09:12Z</time>
      </trkpt>
      <trkpt lat="44.11609" lon="7.34148">
        <ele>2152</ele>
        <time>2017-08-26T08:09:17Z</time>
      </trkpt>
      <trkpt lat="44.11602" lon="7.34166">
        <ele>2153.3</ele>
        <time>2017-08-26T08:09:33Z</time>
      </trkpt>
      <trkpt lat="44.11599" lon="7.34177">
        <ele>2155.2</ele>
        <time>2017-08-26T08:09:44Z</time>
      </trkpt>
      <trkpt lat="44.11596" lon="7.34185">
        <ele>2156.6</ele>
        <time>2017-08-26T08:09:56Z</time>
      </trkpt>
      <trkpt lat="44.11594" lon="7.34187">
        <ele>2156.8</ele>
        <time>2017-08-26T08:10:08Z</time>
      </trkpt>
      <trkpt lat="44.11598" lon="7.34193">
        <ele>2158.8</ele>
        <time>2017-08-26T08:10:20Z</time>
      </trkpt>
      <trkpt lat="44.11595" lon="7.34198">
        <ele>2159.4</ele>
        <time>2017-08-26T08:10:32Z</time>
      </trkpt>
      <trkpt lat="44.11593" lon="7.342">
        <ele>2159.6</ele>
        <time>2017-08-26T08:10:35Z</time>
      </trkpt>
      <trkpt lat="44.11587" lon="7.34197">
        <ele>2158.1</ele>
        <time>2017-08-26T08:10:45Z</time>
      </trkpt>
      <trkpt lat="44.11576" lon="7.34198">
        <ele>2157.2</ele>
        <time>2017-08-26T08:10:57Z</time>
      </trkpt>
      <trkpt lat="44.11575" lon="7.34199">
        <ele>2157.4</ele>
        <time>2017-08-26T08:10:58Z</time>
      </trkpt>
      <trkpt lat="44.11568" lon="7.34215">
        <ele>2160.3</ele>
        <time>2017-08-26T08:11:13Z</time>
      </trkpt>
      <trkpt lat="44.11566" lon="7.34228">
        <ele>2162.5</ele>
        <time>2017-08-26T08:11:23Z</time>
      </trkpt>
      <trkpt lat="44.11566" lon="7.34228">
        <ele>2162.5</ele>
        <time>2017-08-26T08:11:51Z</time>
      </trkpt>
      <trkpt lat="44.11568" lon="7.34233">
        <ele>2163.3</ele>
        <time>2017-08-26T08:12:00Z</time>
      </trkpt>
      <trkpt lat="44.11567" lon="7.34251">
        <ele>2165.6</ele>
        <time>2017-08-26T08:12:14Z</time>
      </trkpt>
      <trkpt lat="44.11563" lon="7.34264">
        <ele>2167.9</ele>
        <time>2017-08-26T08:12:28Z</time>
      </trkpt>
      <trkpt lat="44.11553" lon="7.34278">
        <ele>2170.1</ele>
        <time>2017-08-26T08:12:44Z</time>
      </trkpt>
      <trkpt lat="44.11547" lon="7.34287">
        <ele>2171.9</ele>
        <time>2017-08-26T08:12:55Z</time>
      </trkpt>
      <trkpt lat="44.1154" lon="7.34296">
        <ele>2173.5</ele>
        <time>2017-08-26T08:13:08Z</time>
      </trkpt>
      <trkpt lat="44.11535" lon="7.343">
        <ele>2174.1</ele>
        <time>2017-08-26T08:13:18Z</time>
      </trkpt>
      <trkpt lat="44.11531" lon="7.34312">
        <ele>2176.6</ele>
        <time>2017-08-26T08:13:32Z</time>
      </trkpt>
      <trkpt lat="44.11525" lon="7.34323">
        <ele>2179.4</ele>
        <time>2017-08-26T08:13:46Z</time>
      </trkpt>
      <trkpt lat="44.11518" lon="7.34335">
        <ele>2182.4</ele>
        <time>2017-08-26T08:14:01Z</time>
      </trkpt>
      <trkpt lat="44.11508" lon="7.34339">
        <ele>2183.6</ele>
        <time>2017-08-26T08:14:14Z</time>
      </trkpt>
      <trkpt lat="44.11504" lon="7.34338">
        <ele>2183.3</ele>
        <time>2017-08-26T08:14:18Z</time>
      </trkpt>
      <trkpt lat="44.11496" lon="7.34351">
        <ele>2186.9</ele>
        <time>2017-08-26T08:14:33Z</time>
      </trkpt>
      <trkpt lat="44.11491" lon="7.34358">
        <ele>2188.5</ele>
        <time>2017-08-26T08:14:48Z</time>
      </trkpt>
      <trkpt lat="44.1149" lon="7.34365">
        <ele>2189.9</ele>
        <time>2017-08-26T08:15:11Z</time>
      </trkpt>
      <trkpt lat="44.11487" lon="7.34375">
        <ele>2191.3</ele>
        <time>2017-08-26T08:15:26Z</time>
      </trkpt>
      <trkpt lat="44.11487" lon="7.34375">
        <ele>2191.3</ele>
        <time>2017-08-26T08:15:41Z</time>
      </trkpt>
      <trkpt lat="44.11488" lon="7.34376">
        <ele>2191.6</ele>
        <time>2017-08-26T08:16:15Z</time>
      </trkpt>
      <trkpt lat="44.11488" lon="7.34376">
        <ele>2191.6</ele>
        <time>2017-08-26T08:16:51Z</time>
      </trkpt>
      <trkpt lat="44.11488" lon="7.34376">
        <ele>2191.6</ele>
        <time>2017-08-26T08:17:19Z</time>
      </trkpt>
      <trkpt lat="44.11487" lon="7.34381">
        <ele>2192.3</ele>
        <time>2017-08-26T08:17:55Z</time>
      </trkpt>
      <trkpt lat="44.11484" lon="7.34397">
        <ele>2194.9</ele>
        <time>2017-08-26T08:18:09Z</time>
      </trkpt>
      <trkpt lat="44.1148" lon="7.34406">
        <ele>2196.1</ele>
        <time>2017-08-26T08:18:20Z</time>
      </trkpt>
      <trkpt lat="44.1148" lon="7.34418">
        <ele>2198.4</ele>
        <time>2017-08-26T08:18:34Z</time>
      </trkpt>
      <trkpt lat="44.11476" lon="7.34426">
        <ele>2199.6</ele>
        <time>2017-08-26T08:18:48Z</time>
      </trkpt>
      <trkpt lat="44.1147" lon="7.34438">
        <ele>2201.5</ele>
        <time>2017-08-26T08:19:03Z</time>
      </trkpt>
      <trkpt lat="44.11463" lon="7.34444">
        <ele>2202.6</ele>
        <time>2017-08-26T08:19:15Z</time>
      </trkpt>
      <trkpt lat="44.11463" lon="7.34448">
        <ele>2203.7</ele>
        <time>2017-08-26T08:19:18Z</time>
      </trkpt>
      <trkpt lat="44.11455" lon="7.3446">
        <ele>2206.9</ele>
        <time>2017-08-26T08:19:31Z</time>
      </trkpt>
      <trkpt lat="44.11452" lon="7.3447">
        <ele>2209.6</ele>
        <time>2017-08-26T08:19:43Z</time>
      </trkpt>
      <trkpt lat="44.11447" lon="7.34479">
        <ele>2212.6</ele>
        <time>2017-08-26T08:19:56Z</time>
      </trkpt>
      <trkpt lat="44.11444" lon="7.34485">
        <ele>2214.7</ele>
        <time>2017-08-26T08:20:09Z</time>
      </trkpt>
      <trkpt lat="44.11441" lon="7.34491">
        <ele>2217.3</ele>
        <time>2017-08-26T08:20:23Z</time>
      </trkpt>
      <trkpt lat="44.1144" lon="7.3449">
        <ele>2217.1</ele>
        <time>2017-08-26T08:20:27Z</time>
      </trkpt>
      <trkpt lat="44.11438" lon="7.34491">
        <ele>2217.8</ele>
        <time>2017-08-26T08:20:30Z</time>
      </trkpt>
      <trkpt lat="44.11431" lon="7.34494">
        <ele>2219.7</ele>
        <time>2017-08-26T08:20:44Z</time>
      </trkpt>
      <trkpt lat="44.11424" lon="7.34501">
        <ele>2222.3</ele>
        <time>2017-08-26T08:20:55Z</time>
      </trkpt>
      <trkpt lat="44.11423" lon="7.34504">
        <ele>2222.8</ele>
        <time>2017-08-26T08:20:58Z</time>
      </trkpt>
      <trkpt lat="44.11418" lon="7.34523">
        <ele>2224.8</ele>
        <time>2017-08-26T08:21:13Z</time>
      </trkpt>
      <trkpt lat="44.11417" lon="7.34527">
        <ele>2225</ele>
        <time>2017-08-26T08:21:16Z</time>
      </trkpt>
      <trkpt lat="44.11412" lon="7.34542">
        <ele>2225.9</ele>
        <time>2017-08-26T08:21:28Z</time>
      </trkpt>
      <trkpt lat="44.11406" lon="7.34553">
        <ele>2226.5</ele>
        <time>2017-08-26T08:21:37Z</time>
      </trkpt>
      <trkpt lat="44.11399" lon="7.34568">
        <ele>2226.7</ele>
        <time>2017-08-26T08:21:51Z</time>
      </trkpt>
      <trkpt lat="44.11391" lon="7.3458">
        <ele>2225.5</ele>
        <time>2017-08-26T08:22:03Z</time>
      </trkpt>
      <trkpt lat="44.1139" lon="7.34605">
        <ele>2223.8</ele>
        <time>2017-08-26T08:22:19Z</time>
      </trkpt>
      <trkpt lat="44.11391" lon="7.34606">
        <ele>2224.1</ele>
        <time>2017-08-26T08:22:20Z</time>
      </trkpt>
      <trkpt lat="44.11395" lon="7.34621">
        <ele>2226</ele>
        <time>2017-08-26T08:22:31Z</time>
      </trkpt>
      <trkpt lat="44.11397" lon="7.34625">
        <ele>2227.1</ele>
        <time>2017-08-26T08:22:37Z</time>
      </trkpt>
      <trkpt lat="44.11395" lon="7.34635">
        <ele>2227.1</ele>
        <time>2017-08-26T08:22:51Z</time>
      </trkpt>
      <trkpt lat="44.114" lon="7.34651">
        <ele>2231.5</ele>
        <time>2017-08-26T08:23:02Z</time>
      </trkpt>
      <trkpt lat="44.11392" lon="7.34657">
        <ele>2229.9</ele>
        <time>2017-08-26T08:23:11Z</time>
      </trkpt>
      <trkpt lat="44.11387" lon="7.34659">
        <ele>2229</ele>
        <time>2017-08-26T08:23:18Z</time>
      </trkpt>
      <trkpt lat="44.11386" lon="7.34659">
        <ele>2228.7</ele>
        <time>2017-08-26T08:23:20Z</time>
      </trkpt>
      <trkpt lat="44.11384" lon="7.34662">
        <ele>2229</ele>
        <time>2017-08-26T08:23:23Z</time>
      </trkpt>
      <trkpt lat="44.11384" lon="7.34667">
        <ele>2230.1</ele>
        <time>2017-08-26T08:23:27Z</time>
      </trkpt>
      <trkpt lat="44.11376" lon="7.34681">
        <ele>2232.9</ele>
        <time>2017-08-26T08:23:45Z</time>
      </trkpt>
      <trkpt lat="44.11368" lon="7.34684">
        <ele>2232.1</ele>
        <time>2017-08-26T08:23:58Z</time>
      </trkpt>
      <trkpt lat="44.11363" lon="7.34694">
        <ele>2234.3</ele>
        <time>2017-08-26T08:24:11Z</time>
      </trkpt>
      <trkpt lat="44.11359" lon="7.34702">
        <ele>2235.1</ele>
        <time>2017-08-26T08:24:25Z</time>
      </trkpt>
      <trkpt lat="44.11354" lon="7.34715">
        <ele>2236.8</ele>
        <time>2017-08-26T08:24:37Z</time>
      </trkpt>
      <trkpt lat="44.11349" lon="7.34726">
        <ele>2238</ele>
        <time>2017-08-26T08:24:47Z</time>
      </trkpt>
      <trkpt lat="44.11352" lon="7.34733">
        <ele>2239.8</ele>
        <time>2017-08-26T08:24:50Z</time>
      </trkpt>
      <trkpt lat="44.11348" lon="7.34747">
        <ele>2241.6</ele>
        <time>2017-08-26T08:25:04Z</time>
      </trkpt>
      <trkpt lat="44.11346" lon="7.34753">
        <ele>2242.3</ele>
        <time>2017-08-26T08:25:11Z</time>
      </trkpt>
      <trkpt lat="44.11346" lon="7.34766">
        <ele>2244.4</ele>
        <time>2017-08-26T08:25:23Z</time>
      </trkpt>
      <trkpt lat="44.11346" lon="7.34774">
        <ele>2245.8</ele>
        <time>2017-08-26T08:25:34Z</time>
      </trkpt>
      <trkpt lat="44.11346" lon="7.34774">
        <ele>2245.8</ele>
        <time>2017-08-26T08:25:35Z</time>
      </trkpt>
      <trkpt lat="44.11347" lon="7.34789">
        <ele>2248.9</ele>
        <time>2017-08-26T08:25:47Z</time>
      </trkpt>
      <trkpt lat="44.11346" lon="7.34803">
        <ele>2251.8</ele>
        <time>2017-08-26T08:26:01Z</time>
      </trkpt>
      <trkpt lat="44.11345" lon="7.34812">
        <ele>2253.6</ele>
        <time>2017-08-26T08:26:13Z</time>
      </trkpt>
      <trkpt lat="44.11345" lon="7.34816">
        <ele>2254.4</ele>
        <time>2017-08-26T08:26:25Z</time>
      </trkpt>
      <trkpt lat="44.11345" lon="7.34829">
        <ele>2257.1</ele>
        <time>2017-08-26T08:26:37Z</time>
      </trkpt>
      <trkpt lat="44.11343" lon="7.34843">
        <ele>2259.7</ele>
        <time>2017-08-26T08:26:50Z</time>
      </trkpt>
      <trkpt lat="44.11339" lon="7.34848">
        <ele>2260.6</ele>
        <time>2017-08-26T08:26:56Z</time>
      </trkpt>
      <trkpt lat="44.11337" lon="7.34857">
        <ele>2262.3</ele>
        <time>2017-08-26T08:27:09Z</time>
      </trkpt>
      <trkpt lat="44.11337" lon="7.34857">
        <ele>2262.3</ele>
        <time>2017-08-26T08:27:21Z</time>
      </trkpt>
      <trkpt lat="44.11336" lon="7.34871">
        <ele>2264.4</ele>
        <time>2017-08-26T08:27:32Z</time>
      </trkpt>
      <trkpt lat="44.11334" lon="7.34878">
        <ele>2265.4</ele>
        <time>2017-08-26T08:27:38Z</time>
      </trkpt>
      <trkpt lat="44.11334" lon="7.349">
        <ele>2268.9</ele>
        <time>2017-08-26T08:27:52Z</time>
      </trkpt>
      <trkpt lat="44.11334" lon="7.34902">
        <ele>2269.3</ele>
        <time>2017-08-26T08:27:53Z</time>
      </trkpt>
      <trkpt lat="44.11332" lon="7.34916">
        <ele>2272.2</ele>
        <time>2017-08-26T08:28:06Z</time>
      </trkpt>
      <trkpt lat="44.11329" lon="7.34929">
        <ele>2274.9</ele>
        <time>2017-08-26T08:28:19Z</time>
      </trkpt>
      <trkpt lat="44.11323" lon="7.34938">
        <ele>2278</ele>
        <time>2017-08-26T08:28:33Z</time>
      </trkpt>
      <trkpt lat="44.11319" lon="7.34932">
        <ele>2278.1</ele>
        <time>2017-08-26T08:28:47Z</time>
      </trkpt>
      <trkpt lat="44.11311" lon="7.34929">
        <ele>2279.8</ele>
        <time>2017-08-26T08:28:58Z</time>
      </trkpt>
      <trkpt lat="44.11304" lon="7.3493">
        <ele>2281.9</ele>
        <time>2017-08-26T08:29:10Z</time>
      </trkpt>
      <trkpt lat="44.113" lon="7.34934">
        <ele>2283.6</ele>
        <time>2017-08-26T08:29:23Z</time>
      </trkpt>
      <trkpt lat="44.11302" lon="7.34939">
        <ele>2283.8</ele>
        <time>2017-08-26T08:29:26Z</time>
      </trkpt>
      <trkpt lat="44.11301" lon="7.34947">
        <ele>2285.5</ele>
        <time>2017-08-26T08:29:38Z</time>
      </trkpt>
      <trkpt lat="44.11295" lon="7.34954">
        <ele>2288.4</ele>
        <time>2017-08-26T08:29:51Z</time>
      </trkpt>
      <trkpt lat="44.113" lon="7.34965">
        <ele>2290.3</ele>
        <time>2017-08-26T08:30:03Z</time>
      </trkpt>
      <trkpt lat="44.11296" lon="7.34966">
        <ele>2291.4</ele>
        <time>2017-08-26T08:30:16Z</time>
      </trkpt>
      <trkpt lat="44.11295" lon="7.3497">
        <ele>2292.7</ele>
        <time>2017-08-26T08:30:25Z</time>
      </trkpt>
      <trkpt lat="44.113" lon="7.34983">
        <ele>2296.3</ele>
        <time>2017-08-26T08:30:39Z</time>
      </trkpt>
      <trkpt lat="44.11299" lon="7.34987">
        <ele>2298.1</ele>
        <time>2017-08-26T08:30:52Z</time>
      </trkpt>
      <trkpt lat="44.11299" lon="7.34987">
        <ele>2298.1</ele>
        <time>2017-08-26T08:31:09Z</time>
      </trkpt>
      <trkpt lat="44.11299" lon="7.34989">
        <ele>2298.9</ele>
        <time>2017-08-26T08:31:36Z</time>
      </trkpt>
      <trkpt lat="44.113" lon="7.34993">
        <ele>2300.1</ele>
        <time>2017-08-26T08:32:17Z</time>
      </trkpt>
      <trkpt lat="44.1129" lon="7.34985">
        <ele>2299.7</ele>
        <time>2017-08-26T08:32:31Z</time>
      </trkpt>
      <trkpt lat="44.11291" lon="7.34997">
        <ele>2304.5</ele>
        <time>2017-08-26T08:32:46Z</time>
      </trkpt>
      <trkpt lat="44.1129" lon="7.35">
        <ele>2306</ele>
        <time>2017-08-26T08:32:58Z</time>
      </trkpt>
      <trkpt lat="44.11285" lon="7.35002">
        <ele>2308.4</ele>
        <time>2017-08-26T08:33:10Z</time>
      </trkpt>
      <trkpt lat="44.11273" lon="7.35002">
        <ele>2311.5</ele>
        <time>2017-08-26T08:33:27Z</time>
      </trkpt>
      <trkpt lat="44.11274" lon="7.3501">
        <ele>2314.5</ele>
        <time>2017-08-26T08:33:41Z</time>
      </trkpt>
      <trkpt lat="44.11266" lon="7.35012">
        <ele>2316.4</ele>
        <time>2017-08-26T08:33:56Z</time>
      </trkpt>
      <trkpt lat="44.1126" lon="7.35013">
        <ele>2317.7</ele>
        <time>2017-08-26T08:34:08Z</time>
      </trkpt>
      <trkpt lat="44.11258" lon="7.35014">
        <ele>2318.4</ele>
        <time>2017-08-26T08:34:12Z</time>
      </trkpt>
      <trkpt lat="44.1126" lon="7.35021">
        <ele>2320.9</ele>
        <time>2017-08-26T08:34:23Z</time>
      </trkpt>
      <trkpt lat="44.11252" lon="7.35021">
        <ele>2322</ele>
        <time>2017-08-26T08:34:36Z</time>
      </trkpt>
      <trkpt lat="44.11243" lon="7.35027">
        <ele>2324.7</ele>
        <time>2017-08-26T08:34:50Z</time>
      </trkpt>
      <trkpt lat="44.11242" lon="7.35039">
        <ele>2329</ele>
        <time>2017-08-26T08:35:02Z</time>
      </trkpt>
      <trkpt lat="44.11249" lon="7.35054">
        <ele>2333.6</ele>
        <time>2017-08-26T08:35:16Z</time>
      </trkpt>
      <trkpt lat="44.1125" lon="7.35058">
        <ele>2335</ele>
        <time>2017-08-26T08:35:19Z</time>
      </trkpt>
      <trkpt lat="44.1125" lon="7.35061">
        <ele>2336.2</ele>
        <time>2017-08-26T08:35:21Z</time>
      </trkpt>
      <trkpt lat="44.11253" lon="7.35065">
        <ele>2337.2</ele>
        <time>2017-08-26T08:35:33Z</time>
      </trkpt>
      <trkpt lat="44.11265" lon="7.35061">
        <ele>2333.7</ele>
        <time>2017-08-26T08:35:43Z</time>
      </trkpt>
      <trkpt lat="44.11272" lon="7.35068">
        <ele>2334.7</ele>
        <time>2017-08-26T08:35:56Z</time>
      </trkpt>
      <trkpt lat="44.11278" lon="7.35074">
        <ele>2335.2</ele>
        <time>2017-08-26T08:36:05Z</time>
      </trkpt>
      <trkpt lat="44.1128" lon="7.35084">
        <ele>2337.6</ele>
        <time>2017-08-26T08:36:17Z</time>
      </trkpt>
      <trkpt lat="44.11287" lon="7.35087">
        <ele>2336.8</ele>
        <time>2017-08-26T08:36:31Z</time>
      </trkpt>
      <trkpt lat="44.1128" lon="7.35089">
        <ele>2339.4</ele>
        <time>2017-08-26T08:36:44Z</time>
      </trkpt>
      <trkpt lat="44.11279" lon="7.35095">
        <ele>2341.9</ele>
        <time>2017-08-26T08:36:55Z</time>
      </trkpt>
      <trkpt lat="44.11279" lon="7.35103">
        <ele>2344.8</ele>
        <time>2017-08-26T08:37:08Z</time>
      </trkpt>
      <trkpt lat="44.11275" lon="7.35111">
        <ele>2349.1</ele>
        <time>2017-08-26T08:37:24Z</time>
      </trkpt>
      <trkpt lat="44.11272" lon="7.35115">
        <ele>2352.1</ele>
        <time>2017-08-26T08:37:38Z</time>
      </trkpt>
      <trkpt lat="44.11273" lon="7.35122">
        <ele>2355.1</ele>
        <time>2017-08-26T08:37:50Z</time>
      </trkpt>
      <trkpt lat="44.1128" lon="7.3513">
        <ele>2357</ele>
        <time>2017-08-26T08:38:04Z</time>
      </trkpt>
      <trkpt lat="44.11282" lon="7.35129">
        <ele>2356</ele>
        <time>2017-08-26T08:38:18Z</time>
      </trkpt>
      <trkpt lat="44.11282" lon="7.35129">
        <ele>2356</ele>
        <time>2017-08-26T08:38:57Z</time>
      </trkpt>
      <trkpt lat="44.11282" lon="7.35129">
        <ele>2356</ele>
        <time>2017-08-26T08:39:31Z</time>
      </trkpt>
      <trkpt lat="44.11282" lon="7.35129">
        <ele>2356</ele>
        <time>2017-08-26T08:40:09Z</time>
      </trkpt>
      <trkpt lat="44.11282" lon="7.35128">
        <ele>2355.5</ele>
        <time>2017-08-26T08:40:28Z</time>
      </trkpt>
      <trkpt lat="44.11283" lon="7.35128">
        <ele>2355.3</ele>
        <time>2017-08-26T08:41:05Z</time>
      </trkpt>
      <trkpt lat="44.11283" lon="7.35128">
        <ele>2355.3</ele>
        <time>2017-08-26T08:41:34Z</time>
      </trkpt>
      <trkpt lat="44.11282" lon="7.35126">
        <ele>2354.5</ele>
        <time>2017-08-26T08:42:04Z</time>
      </trkpt>
      <trkpt lat="44.11282" lon="7.35126">
        <ele>2354.5</ele>
        <time>2017-08-26T08:42:15Z</time>
      </trkpt>
      <trkpt lat="44.11287" lon="7.35134">
        <ele>2357.3</ele>
        <time>2017-08-26T08:42:29Z</time>
      </trkpt>
      <trkpt lat="44.11293" lon="7.35142">
        <ele>2359.6</ele>
        <time>2017-08-26T08:42:42Z</time>
      </trkpt>
      <trkpt lat="44.11292" lon="7.35141">
        <ele>2359.4</ele>
        <time>2017-08-26T08:42:53Z</time>
      </trkpt>
      <trkpt lat="44.11289" lon="7.3514">
        <ele>2359.7</ele>
        <time>2017-08-26T08:43:07Z</time>
      </trkpt>
      <trkpt lat="44.11283" lon="7.3514">
        <ele>2361.2</ele>
        <time>2017-08-26T08:43:19Z</time>
      </trkpt>
      <trkpt lat="44.11277" lon="7.35139">
        <ele>2362.2</ele>
        <time>2017-08-26T08:43:32Z</time>
      </trkpt>
      <trkpt lat="44.11274" lon="7.3515">
        <ele>2368.1</ele>
        <time>2017-08-26T08:43:44Z</time>
      </trkpt>
      <trkpt lat="44.11274" lon="7.3516">
        <ele>2372.7</ele>
        <time>2017-08-26T08:43:55Z</time>
      </trkpt>
      <trkpt lat="44.11273" lon="7.35164">
        <ele>2374.8</ele>
        <time>2017-08-26T08:44:07Z</time>
      </trkpt>
      <trkpt lat="44.11273" lon="7.35173">
        <ele>2377.9</ele>
        <time>2017-08-26T08:44:21Z</time>
      </trkpt>
      <trkpt lat="44.11276" lon="7.35182">
        <ele>2379.5</ele>
        <time>2017-08-26T08:44:33Z</time>
      </trkpt>
      <trkpt lat="44.11278" lon="7.35191">
        <ele>2381</ele>
        <time>2017-08-26T08:44:46Z</time>
      </trkpt>
      <trkpt lat="44.11278" lon="7.35193">
        <ele>2381.5</ele>
        <time>2017-08-26T08:45:01Z</time>
      </trkpt>
      <trkpt lat="44.11278" lon="7.35196">
        <ele>2382.3</ele>
        <time>2017-08-26T08:45:15Z</time>
      </trkpt>
      <trkpt lat="44.11273" lon="7.35199">
        <ele>2385.3</ele>
        <time>2017-08-26T08:45:28Z</time>
      </trkpt>
      <trkpt lat="44.11274" lon="7.35207">
        <ele>2387.1</ele>
        <time>2017-08-26T08:45:37Z</time>
      </trkpt>
      <trkpt lat="44.11273" lon="7.3522">
        <ele>2391.1</ele>
        <time>2017-08-26T08:45:52Z</time>
      </trkpt>
      <trkpt lat="44.11273" lon="7.35222">
        <ele>2391.7</ele>
        <time>2017-08-26T08:46:04Z</time>
      </trkpt>
      <trkpt lat="44.11277" lon="7.35224">
        <ele>2391.2</ele>
        <time>2017-08-26T08:46:17Z</time>
      </trkpt>
      <trkpt lat="44.11274" lon="7.35225">
        <ele>2392.9</ele>
        <time>2017-08-26T08:46:29Z</time>
      </trkpt>
      <trkpt lat="44.11273" lon="7.3523">
        <ele>2396.2</ele>
        <time>2017-08-26T08:46:45Z</time>
      </trkpt>
      <trkpt lat="44.1127" lon="7.35234">
        <ele>2399.8</ele>
        <time>2017-08-26T08:47:00Z</time>
      </trkpt>
      <trkpt lat="44.11264" lon="7.35235">
        <ele>2403</ele>
        <time>2017-08-26T08:47:16Z</time>
      </trkpt>
      <trkpt lat="44.11262" lon="7.35241">
        <ele>2407.7</ele>
        <time>2017-08-26T08:47:29Z</time>
      </trkpt>
      <trkpt lat="44.11255" lon="7.35243">
        <ele>2412.5</ele>
        <time>2017-08-26T08:47:46Z</time>
      </trkpt>
      <trkpt lat="44.11256" lon="7.35254">
        <ele>2418.8</ele>
        <time>2017-08-26T08:47:59Z</time>
      </trkpt>
      <trkpt lat="44.11258" lon="7.35257">
        <ele>2419.4</ele>
        <time>2017-08-26T08:48:12Z</time>
      </trkpt>
      <trkpt lat="44.11257" lon="7.35256">
        <ele>2419.4</ele>
        <time>2017-08-26T08:48:24Z</time>
      </trkpt>
      <trkpt lat="44.11257" lon="7.35264">
        <ele>2423.5</ele>
        <time>2017-08-26T08:48:38Z</time>
      </trkpt>
      <trkpt lat="44.11258" lon="7.35268">
        <ele>2425.2</ele>
        <time>2017-08-26T08:48:52Z</time>
      </trkpt>
      <trkpt lat="44.11257" lon="7.35267">
        <ele>2425.1</ele>
        <time>2017-08-26T08:49:05Z</time>
      </trkpt>
      <trkpt lat="44.11255" lon="7.35278">
        <ele>2431.5</ele>
        <time>2017-08-26T08:49:19Z</time>
      </trkpt>
      <trkpt lat="44.11253" lon="7.35282">
        <ele>2433.7</ele>
        <time>2017-08-26T08:49:32Z</time>
      </trkpt>
      <trkpt lat="44.11254" lon="7.3529">
        <ele>2436.9</ele>
        <time>2017-08-26T08:49:46Z</time>
      </trkpt>
      <trkpt lat="44.11254" lon="7.35291">
        <ele>2437.3</ele>
        <time>2017-08-26T08:49:58Z</time>
      </trkpt>
      <trkpt lat="44.11252" lon="7.35297">
        <ele>2439.9</ele>
        <time>2017-08-26T08:50:09Z</time>
      </trkpt>
      <trkpt lat="44.11251" lon="7.35305">
        <ele>2442.9</ele>
        <time>2017-08-26T08:50:24Z</time>
      </trkpt>
      <trkpt lat="44.11253" lon="7.35315">
        <ele>2442</ele>
        <time>2017-08-26T08:50:37Z</time>
      </trkpt>
      <trkpt lat="44.11253" lon="7.35315">
        <ele>2442</ele>
        <time>2017-08-26T08:50:55Z</time>
      </trkpt>
      <trkpt lat="44.11254" lon="7.35315">
        <ele>2442.2</ele>
        <time>2017-08-26T08:51:06Z</time>
      </trkpt>
      <trkpt lat="44.11254" lon="7.35315">
        <ele>2442.2</ele>
        <time>2017-08-26T08:51:16Z</time>
      </trkpt>
      <trkpt lat="44.11254" lon="7.35316">
        <ele>2442.1</ele>
        <time>2017-08-26T08:51:26Z</time>
      </trkpt>
      <trkpt lat="44.11254" lon="7.35316">
        <ele>2442.1</ele>
        <time>2017-08-26T08:51:34Z</time>
      </trkpt>
      <trkpt lat="44.11256" lon="7.35316">
        <ele>2442.6</ele>
        <time>2017-08-26T09:38:14Z</time>
      </trkpt>
      <trkpt lat="44.11256" lon="7.35316">
        <ele>2442.6</ele>
        <time>2017-08-26T09:38:16Z</time>
      </trkpt>
      <trkpt lat="44.11257" lon="7.35316">
        <ele>2442.8</ele>
        <time>2017-08-26T09:38:18Z</time>
      </trkpt>
      <trkpt lat="44.11257" lon="7.35317">
        <ele>2442.7</ele>
        <time>2017-08-26T09:38:20Z</time>
      </trkpt>
      <trkpt lat="44.11256" lon="7.35317">
        <ele>2442.5</ele>
        <time>2017-08-26T09:38:22Z</time>
      </trkpt>
      <trkpt lat="44.11256" lon="7.35316">
        <ele>2442.6</ele>
        <time>2017-08-26T09:38:24Z</time>
      </trkpt>
      <trkpt lat="44.11256" lon="7.35317">
        <ele>2442.5</ele>
        <time>2017-08-26T09:38:26Z</time>
      </trkpt>
      <trkpt lat="44.11255" lon="7.35317">
        <ele>2442.2</ele>
        <time>2017-08-26T09:38:28Z</time>
      </trkpt>
      <trkpt lat="44.11255" lon="7.35317">
        <ele>2442.2</ele>
        <time>2017-08-26T09:38:30Z</time>
      </trkpt>
      <trkpt lat="44.11254" lon="7.35317">
        <ele>2442</ele>
        <time>2017-08-26T09:38:32Z</time>
      </trkpt>
      <trkpt lat="44.11254" lon="7.35317">
        <ele>2442</ele>
        <time>2017-08-26T09:38:35Z</time>
      </trkpt>
      <trkpt lat="44.11254" lon="7.35317">
        <ele>2442</ele>
        <time>2017-08-26T09:38:36Z</time>
      </trkpt>
      <trkpt lat="44.11255" lon="7.35317">
        <ele>2442.2</ele>
        <time>2017-08-26T09:38:39Z</time>
      </trkpt>
      <trkpt lat="44.11255" lon="7.35318">
        <ele>2442.1</ele>
        <time>2017-08-26T09:38:42Z</time>
      </trkpt>
      <trkpt lat="44.11255" lon="7.35318">
        <ele>2442.1</ele>
        <time>2017-08-26T09:38:45Z</time>
      </trkpt>
      <trkpt lat="44.11256" lon="7.35317">
        <ele>2442.5</ele>
        <time>2017-08-26T09:38:49Z</time>
      </trkpt>
      <trkpt lat="44.11255" lon="7.35316">
        <ele>2442.3</ele>
        <time>2017-08-26T09:38:53Z</time>
      </trkpt>
      <trkpt lat="44.11255" lon="7.35316">
        <ele>2442.3</ele>
        <time>2017-08-26T09:38:58Z</time>
      </trkpt>
      <trkpt lat="44.11255" lon="7.35317">
        <ele>2442.2</ele>
        <time>2017-08-26T09:39:04Z</time>
      </trkpt>
      <trkpt lat="44.11256" lon="7.35318">
        <ele>2442.4</ele>
        <time>2017-08-26T09:39:12Z</time>
      </trkpt>
      <trkpt lat="44.11256" lon="7.35318">
        <ele>2442.4</ele>
        <time>2017-08-26T09:39:17Z</time>
      </trkpt>
      <trkpt lat="44.11257" lon="7.35319">
        <ele>2442.6</ele>
        <time>2017-08-26T09:39:30Z</time>
      </trkpt>
      <trkpt lat="44.11255" lon="7.35318">
        <ele>2442.1</ele>
        <time>2017-08-26T09:39:59Z</time>
      </trkpt>
      <trkpt lat="44.11255" lon="7.35317">
        <ele>2442.2</ele>
        <time>2017-08-26T09:40:12Z</time>
      </trkpt>
      <trkpt lat="44.11253" lon="7.35318">
        <ele>2441.6</ele>
        <time>2017-08-26T09:40:29Z</time>
      </trkpt>
      <trkpt lat="44.11252" lon="7.35317">
        <ele>2441.5</ele>
        <time>2017-08-26T09:40:30Z</time>
      </trkpt>
      <trkpt lat="44.11248" lon="7.35316">
        <ele>2440.4</ele>
        <time>2017-08-26T09:40:34Z</time>
      </trkpt>
      <trkpt lat="44.11246" lon="7.35315">
        <ele>2439.9</ele>
        <time>2017-08-26T09:40:36Z</time>
      </trkpt>
      <trkpt lat="44.11243" lon="7.35316">
        <ele>2438.5</ele>
        <time>2017-08-26T09:40:39Z</time>
      </trkpt>
      <trkpt lat="44.11237" lon="7.35317">
        <ele>2436</ele>
        <time>2017-08-26T09:40:47Z</time>
      </trkpt>
      <trkpt lat="44.11235" lon="7.35317">
        <ele>2435.3</ele>
        <time>2017-08-26T09:40:50Z</time>
      </trkpt>
      <trkpt lat="44.1123" lon="7.35315">
        <ele>2434.1</ele>
        <time>2017-08-26T09:41:00Z</time>
      </trkpt>
      <trkpt lat="44.11222" lon="7.3531">
        <ele>2433.1</ele>
        <time>2017-08-26T09:41:11Z</time>
      </trkpt>
      <trkpt lat="44.11222" lon="7.35315">
        <ele>2431.1</ele>
        <time>2017-08-26T09:41:17Z</time>
      </trkpt>
      <trkpt lat="44.11222" lon="7.35316">
        <ele>2430.7</ele>
        <time>2017-08-26T09:41:20Z</time>
      </trkpt>
      <trkpt lat="44.11221" lon="7.35323">
        <ele>2427.4</ele>
        <time>2017-08-26T09:41:32Z</time>
      </trkpt>
      <trkpt lat="44.11221" lon="7.35326">
        <ele>2426.2</ele>
        <time>2017-08-26T09:41:36Z</time>
      </trkpt>
      <trkpt lat="44.11225" lon="7.35342">
        <ele>2423</ele>
        <time>2017-08-26T09:41:48Z</time>
      </trkpt>
      <trkpt lat="44.11223" lon="7.35343">
        <ele>2421.6</ele>
        <time>2017-08-26T09:41:55Z</time>
      </trkpt>
      <trkpt lat="44.11217" lon="7.35337">
        <ele>2420.2</ele>
        <time>2017-08-26T09:42:09Z</time>
      </trkpt>
      <trkpt lat="44.11211" lon="7.35339">
        <ele>2416.6</ele>
        <time>2017-08-26T09:42:23Z</time>
      </trkpt>
      <trkpt lat="44.11208" lon="7.35341">
        <ele>2414.7</ele>
        <time>2017-08-26T09:42:35Z</time>
      </trkpt>
      <trkpt lat="44.11206" lon="7.35341">
        <ele>2413.7</ele>
        <time>2017-08-26T09:42:40Z</time>
      </trkpt>
      <trkpt lat="44.11204" lon="7.35343">
        <ele>2412.3</ele>
        <time>2017-08-26T09:42:44Z</time>
      </trkpt>
      <trkpt lat="44.11203" lon="7.35358">
        <ele>2409</ele>
        <time>2017-08-26T09:42:57Z</time>
      </trkpt>
      <trkpt lat="44.11202" lon="7.35364">
        <ele>2407.9</ele>
        <time>2017-08-26T09:43:03Z</time>
      </trkpt>
      <trkpt lat="44.112" lon="7.35363">
        <ele>2407.1</ele>
        <time>2017-08-26T09:43:05Z</time>
      </trkpt>
      <trkpt lat="44.11193" lon="7.35351">
        <ele>2405.8</ele>
        <time>2017-08-26T09:43:16Z</time>
      </trkpt>
      <trkpt lat="44.11189" lon="7.3535">
        <ele>2404</ele>
        <time>2017-08-26T09:43:21Z</time>
      </trkpt>
      <trkpt lat="44.1119" lon="7.35371">
        <ele>2402</ele>
        <time>2017-08-26T09:43:36Z</time>
      </trkpt>
      <trkpt lat="44.1119" lon="7.35377">
        <ele>2401.6</ele>
        <time>2017-08-26T09:43:40Z</time>
      </trkpt>
      <trkpt lat="44.11187" lon="7.35375">
        <ele>2400.2</ele>
        <time>2017-08-26T09:43:47Z</time>
      </trkpt>
      <trkpt lat="44.11184" lon="7.35383">
        <ele>2398.2</ele>
        <time>2017-08-26T09:43:59Z</time>
      </trkpt>
      <trkpt lat="44.11183" lon="7.35391">
        <ele>2397.5</ele>
        <time>2017-08-26T09:44:11Z</time>
      </trkpt>
      <trkpt lat="44.11179" lon="7.35387">
        <ele>2395.4</ele>
        <time>2017-08-26T09:44:17Z</time>
      </trkpt>
      <trkpt lat="44.11174" lon="7.35388">
        <ele>2392.8</ele>
        <time>2017-08-26T09:44:29Z</time>
      </trkpt>
      <trkpt lat="44.11171" lon="7.35387">
        <ele>2391.3</ele>
        <time>2017-08-26T09:44:39Z</time>
      </trkpt>
      <trkpt lat="44.11164" lon="7.35393">
        <ele>2388.7</ele>
        <time>2017-08-26T09:44:53Z</time>
      </trkpt>
      <trkpt lat="44.11157" lon="7.35392">
        <ele>2386.5</ele>
        <time>2017-08-26T09:45:05Z</time>
      </trkpt>
      <trkpt lat="44.11156" lon="7.35391">
        <ele>2386.1</ele>
        <time>2017-08-26T09:45:06Z</time>
      </trkpt>
      <trkpt lat="44.11141" lon="7.35394">
        <ele>2382</ele>
        <time>2017-08-26T09:45:19Z</time>
      </trkpt>
      <trkpt lat="44.1114" lon="7.35395">
        <ele>2381.8</ele>
        <time>2017-08-26T09:45:20Z</time>
      </trkpt>
      <trkpt lat="44.11137" lon="7.354">
        <ele>2381.4</ele>
        <time>2017-08-26T09:45:24Z</time>
      </trkpt>
      <trkpt lat="44.11135" lon="7.35406">
        <ele>2381.3</ele>
        <time>2017-08-26T09:45:37Z</time>
      </trkpt>
      <trkpt lat="44.11134" lon="7.35406">
        <ele>2381.1</ele>
        <time>2017-08-26T09:45:39Z</time>
      </trkpt>
      <trkpt lat="44.11125" lon="7.35407">
        <ele>2379</ele>
        <time>2017-08-26T09:45:52Z</time>
      </trkpt>
      <trkpt lat="44.11123" lon="7.35405">
        <ele>2378.4</ele>
        <time>2017-08-26T09:45:54Z</time>
      </trkpt>
      <trkpt lat="44.11118" lon="7.35405">
        <ele>2377.2</ele>
        <time>2017-08-26T09:45:59Z</time>
      </trkpt>
      <trkpt lat="44.11116" lon="7.35406">
        <ele>2376.8</ele>
        <time>2017-08-26T09:46:01Z</time>
      </trkpt>
      <trkpt lat="44.11103" lon="7.35406">
        <ele>2373.9</ele>
        <time>2017-08-26T09:46:15Z</time>
      </trkpt>
      <trkpt lat="44.11087" lon="7.35396">
        <ele>2369.6</ele>
        <time>2017-08-26T09:46:29Z</time>
      </trkpt>
      <trkpt lat="44.11084" lon="7.35396">
        <ele>2368.9</ele>
        <time>2017-08-26T09:46:32Z</time>
      </trkpt>
      <trkpt lat="44.11081" lon="7.354">
        <ele>2368.8</ele>
        <time>2017-08-26T09:46:36Z</time>
      </trkpt>
      <trkpt lat="44.11077" lon="7.35399">
        <ele>2368</ele>
        <time>2017-08-26T09:46:40Z</time>
      </trkpt>
      <trkpt lat="44.11071" lon="7.35399">
        <ele>2367</ele>
        <time>2017-08-26T09:46:47Z</time>
      </trkpt>
      <trkpt lat="44.11064" lon="7.35397">
        <ele>2365.6</ele>
        <time>2017-08-26T09:46:54Z</time>
      </trkpt>
      <trkpt lat="44.11049" lon="7.35401">
        <ele>2363.7</ele>
        <time>2017-08-26T09:47:09Z</time>
      </trkpt>
      <trkpt lat="44.11048" lon="7.35402">
        <ele>2363.7</ele>
        <time>2017-08-26T09:47:10Z</time>
      </trkpt>
      <trkpt lat="44.11037" lon="7.35407">
        <ele>2362.7</ele>
        <time>2017-08-26T09:47:24Z</time>
      </trkpt>
      <trkpt lat="44.11037" lon="7.35407">
        <ele>2362.7</ele>
        <time>2017-08-26T09:47:28Z</time>
      </trkpt>
      <trkpt lat="44.11036" lon="7.35412">
        <ele>2363.4</ele>
        <time>2017-08-26T09:47:33Z</time>
      </trkpt>
      <trkpt lat="44.11031" lon="7.3542">
        <ele>2364.2</ele>
        <time>2017-08-26T09:47:40Z</time>
      </trkpt>
      <trkpt lat="44.11029" lon="7.35422">
        <ele>2364.3</ele>
        <time>2017-08-26T09:47:43Z</time>
      </trkpt>
      <trkpt lat="44.11024" lon="7.35424">
        <ele>2363.7</ele>
        <time>2017-08-26T09:47:48Z</time>
      </trkpt>
      <trkpt lat="44.11021" lon="7.35427">
        <ele>2363.7</ele>
        <time>2017-08-26T09:47:52Z</time>
      </trkpt>
      <trkpt lat="44.11019" lon="7.35432">
        <ele>2364.2</ele>
        <time>2017-08-26T09:47:58Z</time>
      </trkpt>
      <trkpt lat="44.11012" lon="7.35426">
        <ele>2361.4</ele>
        <time>2017-08-26T09:48:13Z</time>
      </trkpt>
      <trkpt lat="44.1101" lon="7.35432">
        <ele>2362.1</ele>
        <time>2017-08-26T09:48:26Z</time>
      </trkpt>
      <trkpt lat="44.11009" lon="7.35433">
        <ele>2362.1</ele>
        <time>2017-08-26T09:48:34Z</time>
      </trkpt>
      <trkpt lat="44.11002" lon="7.35435">
        <ele>2360.8</ele>
        <time>2017-08-26T09:48:46Z</time>
      </trkpt>
      <trkpt lat="44.11" lon="7.35429">
        <ele>2359.2</ele>
        <time>2017-08-26T09:48:58Z</time>
      </trkpt>
      <trkpt lat="44.10998" lon="7.3542">
        <ele>2356.9</ele>
        <time>2017-08-26T09:49:10Z</time>
      </trkpt>
      <trkpt lat="44.1099" lon="7.3542">
        <ele>2354.2</ele>
        <time>2017-08-26T09:49:21Z</time>
      </trkpt>
      <trkpt lat="44.10989" lon="7.35419">
        <ele>2353.8</ele>
        <time>2017-08-26T09:49:22Z</time>
      </trkpt>
      <trkpt lat="44.10987" lon="7.35417">
        <ele>2352.8</ele>
        <time>2017-08-26T09:49:25Z</time>
      </trkpt>
      <trkpt lat="44.10979" lon="7.35416">
        <ele>2350.1</ele>
        <time>2017-08-26T09:49:40Z</time>
      </trkpt>
      <trkpt lat="44.10972" lon="7.35422">
        <ele>2348.3</ele>
        <time>2017-08-26T09:49:53Z</time>
      </trkpt>
      <trkpt lat="44.10965" lon="7.35427">
        <ele>2346.3</ele>
        <time>2017-08-26T09:50:05Z</time>
      </trkpt>
      <trkpt lat="44.10962" lon="7.35426">
        <ele>2345.2</ele>
        <time>2017-08-26T09:50:10Z</time>
      </trkpt>
      <trkpt lat="44.10961" lon="7.35428">
        <ele>2344.9</ele>
        <time>2017-08-26T09:50:12Z</time>
      </trkpt>
      <trkpt lat="44.10957" lon="7.35423">
        <ele>2343.6</ele>
        <time>2017-08-26T09:50:25Z</time>
      </trkpt>
      <trkpt lat="44.10952" lon="7.3543">
        <ele>2341.7</ele>
        <time>2017-08-26T09:50:37Z</time>
      </trkpt>
      <trkpt lat="44.10952" lon="7.3543">
        <ele>2341.7</ele>
        <time>2017-08-26T09:50:42Z</time>
      </trkpt>
      <trkpt lat="44.10948" lon="7.35434">
        <ele>2340.1</ele>
        <time>2017-08-26T09:50:54Z</time>
      </trkpt>
      <trkpt lat="44.10947" lon="7.35439">
        <ele>2339.4</ele>
        <time>2017-08-26T09:51:05Z</time>
      </trkpt>
      <trkpt lat="44.10943" lon="7.35432">
        <ele>2338.4</ele>
        <time>2017-08-26T09:51:16Z</time>
      </trkpt>
      <trkpt lat="44.10941" lon="7.35431">
        <ele>2337.7</ele>
        <time>2017-08-26T09:51:26Z</time>
      </trkpt>
      <trkpt lat="44.10932" lon="7.35443">
        <ele>2332.8</ele>
        <time>2017-08-26T09:51:42Z</time>
      </trkpt>
      <trkpt lat="44.10928" lon="7.35444">
        <ele>2331</ele>
        <time>2017-08-26T09:51:52Z</time>
      </trkpt>
      <trkpt lat="44.10924" lon="7.35444">
        <ele>2329.2</ele>
        <time>2017-08-26T09:51:57Z</time>
      </trkpt>
      <trkpt lat="44.10923" lon="7.35453">
        <ele>2328.6</ele>
        <time>2017-08-26T09:52:10Z</time>
      </trkpt>
      <trkpt lat="44.10917" lon="7.35457">
        <ele>2325.7</ele>
        <time>2017-08-26T09:52:22Z</time>
      </trkpt>
      <trkpt lat="44.10913" lon="7.35468">
        <ele>2323.6</ele>
        <time>2017-08-26T09:52:31Z</time>
      </trkpt>
      <trkpt lat="44.10912" lon="7.35468">
        <ele>2323.2</ele>
        <time>2017-08-26T09:52:32Z</time>
      </trkpt>
      <trkpt lat="44.10906" lon="7.35474">
        <ele>2320.4</ele>
        <time>2017-08-26T09:52:42Z</time>
      </trkpt>
      <trkpt lat="44.10905" lon="7.35475">
        <ele>2320</ele>
        <time>2017-08-26T09:52:43Z</time>
      </trkpt>
      <trkpt lat="44.10897" lon="7.35475">
        <ele>2316.5</ele>
        <time>2017-08-26T09:52:54Z</time>
      </trkpt>
      <trkpt lat="44.10896" lon="7.35477">
        <ele>2316</ele>
        <time>2017-08-26T09:52:57Z</time>
      </trkpt>
      <trkpt lat="44.10888" lon="7.35481">
        <ele>2312.3</ele>
        <time>2017-08-26T09:53:10Z</time>
      </trkpt>
      <trkpt lat="44.10886" lon="7.3548">
        <ele>2311.4</ele>
        <time>2017-08-26T09:53:13Z</time>
      </trkpt>
      <trkpt lat="44.10878" lon="7.35478">
        <ele>2307.8</ele>
        <time>2017-08-26T09:53:26Z</time>
      </trkpt>
      <trkpt lat="44.10876" lon="7.35478">
        <ele>2306.9</ele>
        <time>2017-08-26T09:53:30Z</time>
      </trkpt>
      <trkpt lat="44.10875" lon="7.3548">
        <ele>2306.3</ele>
        <time>2017-08-26T09:53:36Z</time>
      </trkpt>
      <trkpt lat="44.10874" lon="7.35486">
        <ele>2305.3</ele>
        <time>2017-08-26T09:53:41Z</time>
      </trkpt>
      <trkpt lat="44.10875" lon="7.35494">
        <ele>2305</ele>
        <time>2017-08-26T09:53:51Z</time>
      </trkpt>
      <trkpt lat="44.10875" lon="7.35501">
        <ele>2304.1</ele>
        <time>2017-08-26T09:54:04Z</time>
      </trkpt>
      <trkpt lat="44.10869" lon="7.35502">
        <ele>2300.4</ele>
        <time>2017-08-26T09:54:15Z</time>
      </trkpt>
      <trkpt lat="44.10865" lon="7.35508">
        <ele>2295.7</ele>
        <time>2017-08-26T09:54:28Z</time>
      </trkpt>
      <trkpt lat="44.10859" lon="7.355">
        <ele>2295.9</ele>
        <time>2017-08-26T09:54:40Z</time>
      </trkpt>
      <trkpt lat="44.10853" lon="7.35486">
        <ele>2294.9</ele>
        <time>2017-08-26T09:54:54Z</time>
      </trkpt>
      <trkpt lat="44.10849" lon="7.35484">
        <ele>2293.3</ele>
        <time>2017-08-26T09:55:01Z</time>
      </trkpt>
      <trkpt lat="44.10849" lon="7.35488">
        <ele>2292.6</ele>
        <time>2017-08-26T09:55:05Z</time>
      </trkpt>
      <trkpt lat="44.1084" lon="7.35496">
        <ele>2286.4</ele>
        <time>2017-08-26T09:55:20Z</time>
      </trkpt>
      <trkpt lat="44.10838" lon="7.35502">
        <ele>2284.2</ele>
        <time>2017-08-26T09:55:32Z</time>
      </trkpt>
      <trkpt lat="44.10836" lon="7.35505">
        <ele>2282.7</ele>
        <time>2017-08-26T09:55:40Z</time>
      </trkpt>
      <trkpt lat="44.10835" lon="7.355">
        <ele>2282.9</ele>
        <time>2017-08-26T09:55:43Z</time>
      </trkpt>
      <trkpt lat="44.10831" lon="7.3551">
        <ele>2279.6</ele>
        <time>2017-08-26T09:55:55Z</time>
      </trkpt>
      <trkpt lat="44.10831" lon="7.35513">
        <ele>2279.3</ele>
        <time>2017-08-26T09:56:01Z</time>
      </trkpt>
      <trkpt lat="44.10828" lon="7.35517">
        <ele>2277.2</ele>
        <time>2017-08-26T09:56:10Z</time>
      </trkpt>
      <trkpt lat="44.10827" lon="7.35513">
        <ele>2277.1</ele>
        <time>2017-08-26T09:56:13Z</time>
      </trkpt>
      <trkpt lat="44.10826" lon="7.35509">
        <ele>2277</ele>
        <time>2017-08-26T09:56:17Z</time>
      </trkpt>
      <trkpt lat="44.10822" lon="7.35516">
        <ele>2273.9</ele>
        <time>2017-08-26T09:56:28Z</time>
      </trkpt>
      <trkpt lat="44.10818" lon="7.35517">
        <ele>2271.5</ele>
        <time>2017-08-26T09:56:42Z</time>
      </trkpt>
      <trkpt lat="44.10814" lon="7.35511">
        <ele>2270.1</ele>
        <time>2017-08-26T09:56:55Z</time>
      </trkpt>
      <trkpt lat="44.1081" lon="7.35517">
        <ele>2267</ele>
        <time>2017-08-26T09:57:07Z</time>
      </trkpt>
      <trkpt lat="44.10808" lon="7.35522">
        <ele>2265.2</ele>
        <time>2017-08-26T09:57:19Z</time>
      </trkpt>
      <trkpt lat="44.10807" lon="7.35519">
        <ele>2265.1</ele>
        <time>2017-08-26T09:57:34Z</time>
      </trkpt>
      <trkpt lat="44.10804" lon="7.35512">
        <ele>2264.3</ele>
        <time>2017-08-26T09:57:46Z</time>
      </trkpt>
      <trkpt lat="44.10798" lon="7.35509">
        <ele>2261.3</ele>
        <time>2017-08-26T09:57:59Z</time>
      </trkpt>
      <trkpt lat="44.10797" lon="7.35522">
        <ele>2258.2</ele>
        <time>2017-08-26T09:58:16Z</time>
      </trkpt>
      <trkpt lat="44.10795" lon="7.35525">
        <ele>2256.3</ele>
        <time>2017-08-26T09:58:29Z</time>
      </trkpt>
      <trkpt lat="44.10793" lon="7.35521">
        <ele>2255.8</ele>
        <time>2017-08-26T09:58:42Z</time>
      </trkpt>
      <trkpt lat="44.10789" lon="7.35525">
        <ele>2252.3</ele>
        <time>2017-08-26T09:58:55Z</time>
      </trkpt>
      <trkpt lat="44.10787" lon="7.35535">
        <ele>2246.2</ele>
        <time>2017-08-26T09:59:06Z</time>
      </trkpt>
      <trkpt lat="44.10784" lon="7.3553">
        <ele>2247</ele>
        <time>2017-08-26T09:59:23Z</time>
      </trkpt>
      <trkpt lat="44.10781" lon="7.35521">
        <ele>2248</ele>
        <time>2017-08-26T09:59:39Z</time>
      </trkpt>
      <trkpt lat="44.10779" lon="7.35516">
        <ele>2248.2</ele>
        <time>2017-08-26T09:59:51Z</time>
      </trkpt>
      <trkpt lat="44.10776" lon="7.35512">
        <ele>2248.2</ele>
        <time>2017-08-26T09:59:59Z</time>
      </trkpt>
      <trkpt lat="44.10771" lon="7.3551">
        <ele>2247.8</ele>
        <time>2017-08-26T10:00:05Z</time>
      </trkpt>
      <trkpt lat="44.10769" lon="7.3551">
        <ele>2247.4</ele>
        <time>2017-08-26T10:00:07Z</time>
      </trkpt>
      <trkpt lat="44.10755" lon="7.35508">
        <ele>2245.5</ele>
        <time>2017-08-26T10:00:20Z</time>
      </trkpt>
      <trkpt lat="44.10748" lon="7.35505">
        <ele>2245.8</ele>
        <time>2017-08-26T10:00:25Z</time>
      </trkpt>
      <trkpt lat="44.10744" lon="7.35506">
        <ele>2245.4</ele>
        <time>2017-08-26T10:00:28Z</time>
      </trkpt>
      <trkpt lat="44.10732" lon="7.35513">
        <ele>2242.1</ele>
        <time>2017-08-26T10:00:43Z</time>
      </trkpt>
      <trkpt lat="44.10731" lon="7.35513">
        <ele>2242.1</ele>
        <time>2017-08-26T10:00:44Z</time>
      </trkpt>
      <trkpt lat="44.10728" lon="7.35513">
        <ele>2242</ele>
        <time>2017-08-26T10:00:48Z</time>
      </trkpt>
      <trkpt lat="44.10719" lon="7.35513">
        <ele>2241.9</ele>
        <time>2017-08-26T10:00:56Z</time>
      </trkpt>
      <trkpt lat="44.10705" lon="7.35512">
        <ele>2242.4</ele>
        <time>2017-08-26T10:01:10Z</time>
      </trkpt>
      <trkpt lat="44.107" lon="7.35513">
        <ele>2241.9</ele>
        <time>2017-08-26T10:01:14Z</time>
      </trkpt>
      <trkpt lat="44.10687" lon="7.35512">
        <ele>2243.2</ele>
        <time>2017-08-26T10:01:28Z</time>
      </trkpt>
      <trkpt lat="44.10677" lon="7.35517">
        <ele>2241.9</ele>
        <time>2017-08-26T10:01:40Z</time>
      </trkpt>
      <trkpt lat="44.10674" lon="7.35515">
        <ele>2243.2</ele>
        <time>2017-08-26T10:01:52Z</time>
      </trkpt>
      <trkpt lat="44.10668" lon="7.35514">
        <ele>2244.3</ele>
        <time>2017-08-26T10:02:04Z</time>
      </trkpt>
      <trkpt lat="44.10661" lon="7.35516">
        <ele>2243.9</ele>
        <time>2017-08-26T10:02:12Z</time>
      </trkpt>
      <trkpt lat="44.10656" lon="7.35517">
        <ele>2243.8</ele>
        <time>2017-08-26T10:02:17Z</time>
      </trkpt>
      <trkpt lat="44.10642" lon="7.35521">
        <ele>2242.9</ele>
        <time>2017-08-26T10:02:31Z</time>
      </trkpt>
      <trkpt lat="44.10634" lon="7.3552">
        <ele>2243.8</ele>
        <time>2017-08-26T10:02:40Z</time>
      </trkpt>
      <trkpt lat="44.10622" lon="7.35524">
        <ele>2242.3</ele>
        <time>2017-08-26T10:02:54Z</time>
      </trkpt>
      <trkpt lat="44.10613" lon="7.35524">
        <ele>2242.6</ele>
        <time>2017-08-26T10:03:05Z</time>
      </trkpt>
      <trkpt lat="44.10605" lon="7.35523">
        <ele>2243.5</ele>
        <time>2017-08-26T10:03:16Z</time>
      </trkpt>
      <trkpt lat="44.10602" lon="7.35522">
        <ele>2244.1</ele>
        <time>2017-08-26T10:03:24Z</time>
      </trkpt>
      <trkpt lat="44.10591" lon="7.35522">
        <ele>2244.8</ele>
        <time>2017-08-26T10:03:37Z</time>
      </trkpt>
      <trkpt lat="44.1059" lon="7.35522">
        <ele>2244.9</ele>
        <time>2017-08-26T10:03:38Z</time>
      </trkpt>
      <trkpt lat="44.10585" lon="7.35522">
        <ele>2245.2</ele>
        <time>2017-08-26T10:03:42Z</time>
      </trkpt>
      <trkpt lat="44.10579" lon="7.35525">
        <ele>2244.3</ele>
        <time>2017-08-26T10:03:47Z</time>
      </trkpt>
      <trkpt lat="44.10576" lon="7.35526">
        <ele>2244</ele>
        <time>2017-08-26T10:03:49Z</time>
      </trkpt>
      <trkpt lat="44.10571" lon="7.35523">
        <ele>2245.3</ele>
        <time>2017-08-26T10:04:02Z</time>
      </trkpt>
      <trkpt lat="44.10564" lon="7.35522">
        <ele>2246</ele>
        <time>2017-08-26T10:04:12Z</time>
      </trkpt>
      <trkpt lat="44.10554" lon="7.35525">
        <ele>2245.3</ele>
        <time>2017-08-26T10:04:24Z</time>
      </trkpt>
      <trkpt lat="44.10546" lon="7.35531">
        <ele>2244.3</ele>
        <time>2017-08-26T10:04:36Z</time>
      </trkpt>
      <trkpt lat="44.10541" lon="7.35537">
        <ele>2243.1</ele>
        <time>2017-08-26T10:04:48Z</time>
      </trkpt>
      <trkpt lat="44.10535" lon="7.35544">
        <ele>2241.7</ele>
        <time>2017-08-26T10:05:00Z</time>
      </trkpt>
      <trkpt lat="44.10534" lon="7.35545">
        <ele>2241.5</ele>
        <time>2017-08-26T10:05:03Z</time>
      </trkpt>
      <trkpt lat="44.10533" lon="7.35548">
        <ele>2240.7</ele>
        <time>2017-08-26T10:05:16Z</time>
      </trkpt>
      <trkpt lat="44.10524" lon="7.35558">
        <ele>2239.1</ele>
        <time>2017-08-26T10:05:30Z</time>
      </trkpt>
      <trkpt lat="44.10511" lon="7.35571">
        <ele>2237.9</ele>
        <time>2017-08-26T10:05:45Z</time>
      </trkpt>
      <trkpt lat="44.10504" lon="7.35584">
        <ele>2235</ele>
        <time>2017-08-26T10:05:58Z</time>
      </trkpt>
      <trkpt lat="44.10503" lon="7.35585">
        <ele>2234.8</ele>
        <time>2017-08-26T10:05:59Z</time>
      </trkpt>
      <trkpt lat="44.10494" lon="7.35591">
        <ele>2233.4</ele>
        <time>2017-08-26T10:06:07Z</time>
      </trkpt>
      <trkpt lat="44.10493" lon="7.35594">
        <ele>2231.8</ele>
        <time>2017-08-26T10:06:09Z</time>
      </trkpt>
      <trkpt lat="44.10481" lon="7.35601">
        <ele>2230.5</ele>
        <time>2017-08-26T10:06:27Z</time>
      </trkpt>
      <trkpt lat="44.10471" lon="7.35606">
        <ele>2230.3</ele>
        <time>2017-08-26T10:06:42Z</time>
      </trkpt>
      <trkpt lat="44.10458" lon="7.35613">
        <ele>2230</ele>
        <time>2017-08-26T10:06:55Z</time>
      </trkpt>
      <trkpt lat="44.10448" lon="7.35624">
        <ele>2226.1</ele>
        <time>2017-08-26T10:07:08Z</time>
      </trkpt>
      <trkpt lat="44.10435" lon="7.35638">
        <ele>2221.3</ele>
        <time>2017-08-26T10:07:21Z</time>
      </trkpt>
      <trkpt lat="44.10425" lon="7.35647">
        <ele>2218.8</ele>
        <time>2017-08-26T10:07:33Z</time>
      </trkpt>
      <trkpt lat="44.10415" lon="7.35656">
        <ele>2216.2</ele>
        <time>2017-08-26T10:07:46Z</time>
      </trkpt>
      <trkpt lat="44.10408" lon="7.35665">
        <ele>2213.4</ele>
        <time>2017-08-26T10:08:00Z</time>
      </trkpt>
      <trkpt lat="44.104" lon="7.35675">
        <ele>2211.2</ele>
        <time>2017-08-26T10:08:14Z</time>
      </trkpt>
      <trkpt lat="44.10393" lon="7.35686">
        <ele>2208</ele>
        <time>2017-08-26T10:08:28Z</time>
      </trkpt>
      <trkpt lat="44.10391" lon="7.35692">
        <ele>2205.6</ele>
        <time>2017-08-26T10:08:40Z</time>
      </trkpt>
      <trkpt lat="44.10389" lon="7.35699">
        <ele>2202.3</ele>
        <time>2017-08-26T10:08:54Z</time>
      </trkpt>
      <trkpt lat="44.10387" lon="7.35701">
        <ele>2201.9</ele>
        <time>2017-08-26T10:09:08Z</time>
      </trkpt>
      <trkpt lat="44.10388" lon="7.35704">
        <ele>2199.8</ele>
        <time>2017-08-26T10:09:23Z</time>
      </trkpt>
      <trkpt lat="44.10386" lon="7.35706">
        <ele>2199.3</ele>
        <time>2017-08-26T10:09:39Z</time>
      </trkpt>
      <trkpt lat="44.10387" lon="7.35707">
        <ele>2198.4</ele>
        <time>2017-08-26T10:09:52Z</time>
      </trkpt>
      <trkpt lat="44.10389" lon="7.35709">
        <ele>2196.6</ele>
        <time>2017-08-26T10:10:05Z</time>
      </trkpt>
      <trkpt lat="44.10389" lon="7.35711">
        <ele>2195.4</ele>
        <time>2017-08-26T10:10:17Z</time>
      </trkpt>
      <trkpt lat="44.10389" lon="7.35716">
        <ele>2192.6</ele>
        <time>2017-08-26T10:10:32Z</time>
      </trkpt>
      <trkpt lat="44.1039" lon="7.35725">
        <ele>2187.4</ele>
        <time>2017-08-26T10:10:46Z</time>
      </trkpt>
      <trkpt lat="44.1039" lon="7.35725">
        <ele>2187.4</ele>
        <time>2017-08-26T10:10:47Z</time>
      </trkpt>
      <trkpt lat="44.10391" lon="7.3573">
        <ele>2184.7</ele>
        <time>2017-08-26T10:11:00Z</time>
      </trkpt>
      <trkpt lat="44.10392" lon="7.35732">
        <ele>2183.6</ele>
        <time>2017-08-26T10:11:17Z</time>
      </trkpt>
      <trkpt lat="44.10392" lon="7.35733">
        <ele>2183.1</ele>
        <time>2017-08-26T10:11:24Z</time>
      </trkpt>
      <trkpt lat="44.10381" lon="7.35742">
        <ele>2179.8</ele>
        <time>2017-08-26T10:11:38Z</time>
      </trkpt>
      <trkpt lat="44.10367" lon="7.35749">
        <ele>2176.5</ele>
        <time>2017-08-26T10:11:53Z</time>
      </trkpt>
      <trkpt lat="44.10363" lon="7.35752">
        <ele>2175</ele>
        <time>2017-08-26T10:11:58Z</time>
      </trkpt>
      <trkpt lat="44.10352" lon="7.35761">
        <ele>2173.5</ele>
        <time>2017-08-26T10:12:12Z</time>
      </trkpt>
      <trkpt lat="44.10347" lon="7.35775">
        <ele>2168.4</ele>
        <time>2017-08-26T10:12:29Z</time>
      </trkpt>
      <trkpt lat="44.10342" lon="7.35787">
        <ele>2164.7</ele>
        <time>2017-08-26T10:12:44Z</time>
      </trkpt>
      <trkpt lat="44.1034" lon="7.35791">
        <ele>2163.6</ele>
        <time>2017-08-26T10:12:49Z</time>
      </trkpt>
      <trkpt lat="44.10332" lon="7.35802">
        <ele>2160.7</ele>
        <time>2017-08-26T10:13:02Z</time>
      </trkpt>
      <trkpt lat="44.1033" lon="7.35804">
        <ele>2160.2</ele>
        <time>2017-08-26T10:13:05Z</time>
      </trkpt>
      <trkpt lat="44.10335" lon="7.35807">
        <ele>2158</ele>
        <time>2017-08-26T10:13:11Z</time>
      </trkpt>
      <trkpt lat="44.10336" lon="7.35808">
        <ele>2157.4</ele>
        <time>2017-08-26T10:13:19Z</time>
      </trkpt>
      <trkpt lat="44.10339" lon="7.3581">
        <ele>2156</ele>
        <time>2017-08-26T10:13:22Z</time>
      </trkpt>
      <trkpt lat="44.10342" lon="7.3581">
        <ele>2155.4</ele>
        <time>2017-08-26T10:13:27Z</time>
      </trkpt>
      <trkpt lat="44.10345" lon="7.35813">
        <ele>2153.6</ele>
        <time>2017-08-26T10:13:39Z</time>
      </trkpt>
      <trkpt lat="44.10344" lon="7.35819">
        <ele>2151.4</ele>
        <time>2017-08-26T10:13:46Z</time>
      </trkpt>
      <trkpt lat="44.10343" lon="7.35844">
        <ele>2141.7</ele>
        <time>2017-08-26T10:14:02Z</time>
      </trkpt>
      <trkpt lat="44.10339" lon="7.35853">
        <ele>2138.3</ele>
        <time>2017-08-26T10:14:11Z</time>
      </trkpt>
      <trkpt lat="44.1034" lon="7.35859">
        <ele>2135.9</ele>
        <time>2017-08-26T10:14:20Z</time>
      </trkpt>
      <trkpt lat="44.10341" lon="7.35862">
        <ele>2134.8</ele>
        <time>2017-08-26T10:14:26Z</time>
      </trkpt>
      <trkpt lat="44.1034" lon="7.35866">
        <ele>2133.8</ele>
        <time>2017-08-26T10:14:37Z</time>
      </trkpt>
      <trkpt lat="44.10338" lon="7.35874">
        <ele>2131.6</ele>
        <time>2017-08-26T10:14:50Z</time>
      </trkpt>
      <trkpt lat="44.10339" lon="7.35877">
        <ele>2130.9</ele>
        <time>2017-08-26T10:15:05Z</time>
      </trkpt>
      <trkpt lat="44.10335" lon="7.35883">
        <ele>2128.9</ele>
        <time>2017-08-26T10:15:16Z</time>
      </trkpt>
      <trkpt lat="44.1034" lon="7.3589">
        <ele>2127.9</ele>
        <time>2017-08-26T10:15:27Z</time>
      </trkpt>
      <trkpt lat="44.10338" lon="7.35892">
        <ele>2127.4</ele>
        <time>2017-08-26T10:15:39Z</time>
      </trkpt>
      <trkpt lat="44.10334" lon="7.35892">
        <ele>2126.8</ele>
        <time>2017-08-26T10:15:54Z</time>
      </trkpt>
      <trkpt lat="44.1033" lon="7.35892">
        <ele>2126</ele>
        <time>2017-08-26T10:16:08Z</time>
      </trkpt>
      <trkpt lat="44.10329" lon="7.35892">
        <ele>2125.8</ele>
        <time>2017-08-26T10:16:20Z</time>
      </trkpt>
      <trkpt lat="44.10328" lon="7.35892">
        <ele>2125.6</ele>
        <time>2017-08-26T10:16:24Z</time>
      </trkpt>
      <trkpt lat="44.10318" lon="7.35892">
        <ele>2123.6</ele>
        <time>2017-08-26T10:16:39Z</time>
      </trkpt>
      <trkpt lat="44.10319" lon="7.35895">
        <ele>2123.2</ele>
        <time>2017-08-26T10:16:47Z</time>
      </trkpt>
      <trkpt lat="44.10325" lon="7.359">
        <ele>2123.7</ele>
        <time>2017-08-26T10:16:59Z</time>
      </trkpt>
      <trkpt lat="44.10324" lon="7.35904">
        <ele>2122.8</ele>
        <time>2017-08-26T10:17:16Z</time>
      </trkpt>
      <trkpt lat="44.10321" lon="7.35905">
        <ele>2121.8</ele>
        <time>2017-08-26T10:17:28Z</time>
      </trkpt>
      <trkpt lat="44.10319" lon="7.35908">
        <ele>2120.6</ele>
        <time>2017-08-26T10:17:39Z</time>
      </trkpt>
      <trkpt lat="44.10316" lon="7.35909">
        <ele>2119.4</ele>
        <time>2017-08-26T10:17:53Z</time>
      </trkpt>
      <trkpt lat="44.10311" lon="7.3591">
        <ele>2117.6</ele>
        <time>2017-08-26T10:18:04Z</time>
      </trkpt>
      <trkpt lat="44.1031" lon="7.3591">
        <ele>2117.3</ele>
        <time>2017-08-26T10:18:24Z</time>
      </trkpt>
      <trkpt lat="44.1031" lon="7.3591">
        <ele>2117.3</ele>
        <time>2017-08-26T10:18:46Z</time>
      </trkpt>
      <trkpt lat="44.1031" lon="7.3591">
        <ele>2117.3</ele>
        <time>2017-08-26T10:19:05Z</time>
      </trkpt>
      <trkpt lat="44.1031" lon="7.3591">
        <ele>2117.3</ele>
        <time>2017-08-26T10:19:24Z</time>
      </trkpt>
      <trkpt lat="44.10306" lon="7.35912">
        <ele>2115.5</ele>
        <time>2017-08-26T10:19:38Z</time>
      </trkpt>
      <trkpt lat="44.10298" lon="7.35915">
        <ele>2111.8</ele>
        <time>2017-08-26T10:19:50Z</time>
      </trkpt>
      <trkpt lat="44.10292" lon="7.35914">
        <ele>2110.1</ele>
        <time>2017-08-26T10:20:02Z</time>
      </trkpt>
      <trkpt lat="44.10287" lon="7.35914">
        <ele>2108.4</ele>
        <time>2017-08-26T10:20:17Z</time>
      </trkpt>
      <trkpt lat="44.10282" lon="7.35917">
        <ele>2105.5</ele>
        <time>2017-08-26T10:20:27Z</time>
      </trkpt>
      <trkpt lat="44.10278" lon="7.35915">
        <ele>2104.9</ele>
        <time>2017-08-26T10:20:34Z</time>
      </trkpt>
      <trkpt lat="44.10278" lon="7.35915">
        <ele>2104.9</ele>
        <time>2017-08-26T10:20:35Z</time>
      </trkpt>
      <trkpt lat="44.10276" lon="7.35918">
        <ele>2103.5</ele>
        <time>2017-08-26T10:20:43Z</time>
      </trkpt>
      <trkpt lat="44.10269" lon="7.35915">
        <ele>2102.6</ele>
        <time>2017-08-26T10:20:55Z</time>
      </trkpt>
      <trkpt lat="44.10265" lon="7.35914">
        <ele>2102.1</ele>
        <time>2017-08-26T10:21:04Z</time>
      </trkpt>
      <trkpt lat="44.10263" lon="7.35915">
        <ele>2101.1</ele>
        <time>2017-08-26T10:21:10Z</time>
      </trkpt>
      <trkpt lat="44.10264" lon="7.35921">
        <ele>2099.8</ele>
        <time>2017-08-26T10:21:23Z</time>
      </trkpt>
      <trkpt lat="44.10258" lon="7.35923">
        <ele>2097.7</ele>
        <time>2017-08-26T10:21:36Z</time>
      </trkpt>
      <trkpt lat="44.10251" lon="7.3592">
        <ele>2096.3</ele>
        <time>2017-08-26T10:21:51Z</time>
      </trkpt>
      <trkpt lat="44.1025" lon="7.35919">
        <ele>2096.3</ele>
        <time>2017-08-26T10:21:52Z</time>
      </trkpt>
      <trkpt lat="44.10247" lon="7.35918">
        <ele>2096.1</ele>
        <time>2017-08-26T10:21:55Z</time>
      </trkpt>
      <trkpt lat="44.1024" lon="7.35916">
        <ele>2095.6</ele>
        <time>2017-08-26T10:22:02Z</time>
      </trkpt>
      <trkpt lat="44.10223" lon="7.35919">
        <ele>2091.1</ele>
        <time>2017-08-26T10:22:16Z</time>
      </trkpt>
      <trkpt lat="44.10217" lon="7.35921">
        <ele>2090</ele>
        <time>2017-08-26T10:22:21Z</time>
      </trkpt>
      <trkpt lat="44.10205" lon="7.35922">
        <ele>2089.6</ele>
        <time>2017-08-26T10:22:35Z</time>
      </trkpt>
      <trkpt lat="44.10204" lon="7.35922">
        <ele>2089.7</ele>
        <time>2017-08-26T10:22:38Z</time>
      </trkpt>
      <trkpt lat="44.10198" lon="7.35923">
        <ele>2089.1</ele>
        <time>2017-08-26T10:22:51Z</time>
      </trkpt>
      <trkpt lat="44.1019" lon="7.35926">
        <ele>2087.4</ele>
        <time>2017-08-26T10:23:04Z</time>
      </trkpt>
      <trkpt lat="44.10184" lon="7.35933">
        <ele>2083.7</ele>
        <time>2017-08-26T10:23:15Z</time>
      </trkpt>
      <trkpt lat="44.10179" lon="7.35938">
        <ele>2081.5</ele>
        <time>2017-08-26T10:23:21Z</time>
      </trkpt>
      <trkpt lat="44.10176" lon="7.35942">
        <ele>2079.9</ele>
        <time>2017-08-26T10:23:27Z</time>
      </trkpt>
      <trkpt lat="44.10172" lon="7.35949">
        <ele>2077.5</ele>
        <time>2017-08-26T10:23:40Z</time>
      </trkpt>
      <trkpt lat="44.10164" lon="7.35961">
        <ele>2073.3</ele>
        <time>2017-08-26T10:23:54Z</time>
      </trkpt>
      <trkpt lat="44.1016" lon="7.3597">
        <ele>2069.8</ele>
        <time>2017-08-26T10:24:06Z</time>
      </trkpt>
      <trkpt lat="44.10159" lon="7.35973">
        <ele>2068.7</ele>
        <time>2017-08-26T10:24:16Z</time>
      </trkpt>
      <trkpt lat="44.10152" lon="7.35979">
        <ele>2066.7</ele>
        <time>2017-08-26T10:24:30Z</time>
      </trkpt>
      <trkpt lat="44.10148" lon="7.35983">
        <ele>2065.6</ele>
        <time>2017-08-26T10:24:44Z</time>
      </trkpt>
      <trkpt lat="44.10148" lon="7.35983">
        <ele>2065.6</ele>
        <time>2017-08-26T10:24:59Z</time>
      </trkpt>
      <trkpt lat="44.10146" lon="7.35984">
        <ele>2065.5</ele>
        <time>2017-08-26T10:25:24Z</time>
      </trkpt>
      <trkpt lat="44.10142" lon="7.35984">
        <ele>2065.8</ele>
        <time>2017-08-26T10:25:37Z</time>
      </trkpt>
      <trkpt lat="44.10138" lon="7.35985">
        <ele>2065.7</ele>
        <time>2017-08-26T10:25:50Z</time>
      </trkpt>
      <trkpt lat="44.10131" lon="7.35984">
        <ele>2065</ele>
        <time>2017-08-26T10:26:02Z</time>
      </trkpt>
      <trkpt lat="44.10121" lon="7.35985">
        <ele>2063.5</ele>
        <time>2017-08-26T10:26:14Z</time>
      </trkpt>
      <trkpt lat="44.10113" lon="7.35986">
        <ele>2062.3</ele>
        <time>2017-08-26T10:26:29Z</time>
      </trkpt>
      <trkpt lat="44.10109" lon="7.35988">
        <ele>2061.1</ele>
        <time>2017-08-26T10:26:34Z</time>
      </trkpt>
      <trkpt lat="44.10106" lon="7.35993">
        <ele>2059.5</ele>
        <time>2017-08-26T10:26:40Z</time>
      </trkpt>
      <trkpt lat="44.10103" lon="7.35997">
        <ele>2058.1</ele>
        <time>2017-08-26T10:26:49Z</time>
      </trkpt>
      <trkpt lat="44.101" lon="7.36007">
        <ele>2056</ele>
        <time>2017-08-26T10:27:03Z</time>
      </trkpt>
      <trkpt lat="44.10091" lon="7.36011">
        <ele>2053.8</ele>
        <time>2017-08-26T10:27:17Z</time>
      </trkpt>
      <trkpt lat="44.10085" lon="7.36009">
        <ele>2053</ele>
        <time>2017-08-26T10:27:26Z</time>
      </trkpt>
      <trkpt lat="44.10081" lon="7.36006">
        <ele>2052.5</ele>
        <time>2017-08-26T10:27:32Z</time>
      </trkpt>
      <trkpt lat="44.10071" lon="7.36003">
        <ele>2050.4</ele>
        <time>2017-08-26T10:27:42Z</time>
      </trkpt>
      <trkpt lat="44.10064" lon="7.36003">
        <ele>2048.6</ele>
        <time>2017-08-26T10:27:47Z</time>
      </trkpt>
      <trkpt lat="44.10062" lon="7.36001">
        <ele>2048.5</ele>
        <time>2017-08-26T10:27:49Z</time>
      </trkpt>
      <trkpt lat="44.10059" lon="7.36006">
        <ele>2046.8</ele>
        <time>2017-08-26T10:27:58Z</time>
      </trkpt>
      <trkpt lat="44.10058" lon="7.36013">
        <ele>2045.3</ele>
        <time>2017-08-26T10:28:04Z</time>
      </trkpt>
      <trkpt lat="44.10051" lon="7.36018">
        <ele>2043.2</ele>
        <time>2017-08-26T10:28:18Z</time>
      </trkpt>
      <trkpt lat="44.10047" lon="7.36022">
        <ele>2042.1</ele>
        <time>2017-08-26T10:28:25Z</time>
      </trkpt>
      <trkpt lat="44.10036" lon="7.36021">
        <ele>2040.9</ele>
        <time>2017-08-26T10:28:39Z</time>
      </trkpt>
      <trkpt lat="44.1002" lon="7.36019">
        <ele>2038.7</ele>
        <time>2017-08-26T10:28:54Z</time>
      </trkpt>
      <trkpt lat="44.10017" lon="7.36019">
        <ele>2038</ele>
        <time>2017-08-26T10:28:57Z</time>
      </trkpt>
      <trkpt lat="44.10004" lon="7.36016">
        <ele>2036.2</ele>
        <time>2017-08-26T10:29:12Z</time>
      </trkpt>
      <trkpt lat="44.1" lon="7.36016">
        <ele>2035.4</ele>
        <time>2017-08-26T10:29:18Z</time>
      </trkpt>
      <trkpt lat="44.09993" lon="7.36013">
        <ele>2034.2</ele>
        <time>2017-08-26T10:29:31Z</time>
      </trkpt>
      <trkpt lat="44.09989" lon="7.36009">
        <ele>2034.2</ele>
        <time>2017-08-26T10:29:37Z</time>
      </trkpt>
      <trkpt lat="44.09984" lon="7.36003">
        <ele>2034.5</ele>
        <time>2017-08-26T10:29:50Z</time>
      </trkpt>
      <trkpt lat="44.09978" lon="7.36003">
        <ele>2032.8</ele>
        <time>2017-08-26T10:30:02Z</time>
      </trkpt>
      <trkpt lat="44.09975" lon="7.36002">
        <ele>2032.2</ele>
        <time>2017-08-26T10:30:06Z</time>
      </trkpt>
      <trkpt lat="44.0997" lon="7.36">
        <ele>2031.4</ele>
        <time>2017-08-26T10:30:14Z</time>
      </trkpt>
      <trkpt lat="44.09961" lon="7.35997">
        <ele>2030</ele>
        <time>2017-08-26T10:30:27Z</time>
      </trkpt>
      <trkpt lat="44.09954" lon="7.35996">
        <ele>2028.5</ele>
        <time>2017-08-26T10:30:38Z</time>
      </trkpt>
      <trkpt lat="44.09942" lon="7.3599">
        <ele>2026.8</ele>
        <time>2017-08-26T10:30:52Z</time>
      </trkpt>
      <trkpt lat="44.09942" lon="7.3599">
        <ele>2026.8</ele>
        <time>2017-08-26T10:30:54Z</time>
      </trkpt>
      <trkpt lat="44.09931" lon="7.35981">
        <ele>2025.8</ele>
        <time>2017-08-26T10:31:09Z</time>
      </trkpt>
      <trkpt lat="44.09924" lon="7.35977">
        <ele>2024.8</ele>
        <time>2017-08-26T10:31:21Z</time>
      </trkpt>
      <trkpt lat="44.09917" lon="7.35974">
        <ele>2023.6</ele>
        <time>2017-08-26T10:31:35Z</time>
      </trkpt>
      <trkpt lat="44.0991" lon="7.3597">
        <ele>2022.1</ele>
        <time>2017-08-26T10:31:48Z</time>
      </trkpt>
      <trkpt lat="44.09905" lon="7.35967">
        <ele>2021.1</ele>
        <time>2017-08-26T10:31:58Z</time>
      </trkpt>
      <trkpt lat="44.09895" lon="7.35962">
        <ele>2019.2</ele>
        <time>2017-08-26T10:32:12Z</time>
      </trkpt>
      <trkpt lat="44.09893" lon="7.35961">
        <ele>2018.9</ele>
        <time>2017-08-26T10:32:13Z</time>
      </trkpt>
      <trkpt lat="44.0988" lon="7.35958">
        <ele>2014.5</ele>
        <time>2017-08-26T10:32:28Z</time>
      </trkpt>
      <trkpt lat="44.09877" lon="7.35956">
        <ele>2013.9</ele>
        <time>2017-08-26T10:32:43Z</time>
      </trkpt>
      <trkpt lat="44.09873" lon="7.35952">
        <ele>2013.6</ele>
        <time>2017-08-26T10:32:55Z</time>
      </trkpt>
      <trkpt lat="44.09868" lon="7.35947">
        <ele>2013.2</ele>
        <time>2017-08-26T10:33:05Z</time>
      </trkpt>
      <trkpt lat="44.09866" lon="7.35943">
        <ele>2013.4</ele>
        <time>2017-08-26T10:33:08Z</time>
      </trkpt>
      <trkpt lat="44.09861" lon="7.35931">
        <ele>2011.9</ele>
        <time>2017-08-26T10:33:19Z</time>
      </trkpt>
      <trkpt lat="44.09861" lon="7.35928">
        <ele>2012.1</ele>
        <time>2017-08-26T10:33:24Z</time>
      </trkpt>
      <trkpt lat="44.09861" lon="7.35917">
        <ele>2012.9</ele>
        <time>2017-08-26T10:33:35Z</time>
      </trkpt>
      <trkpt lat="44.09862" lon="7.35914">
        <ele>2012.9</ele>
        <time>2017-08-26T10:33:38Z</time>
      </trkpt>
      <trkpt lat="44.0987" lon="7.35894">
        <ele>2012.6</ele>
        <time>2017-08-26T10:33:53Z</time>
      </trkpt>
      <trkpt lat="44.09873" lon="7.35888">
        <ele>2012.8</ele>
        <time>2017-08-26T10:33:58Z</time>
      </trkpt>
      <trkpt lat="44.09879" lon="7.35878">
        <ele>2013.2</ele>
        <time>2017-08-26T10:34:10Z</time>
      </trkpt>
      <trkpt lat="44.0988" lon="7.35862">
        <ele>2009.4</ele>
        <time>2017-08-26T10:34:22Z</time>
      </trkpt>
      <trkpt lat="44.0987" lon="7.35851">
        <ele>2006.7</ele>
        <time>2017-08-26T10:34:35Z</time>
      </trkpt>
      <trkpt lat="44.09861" lon="7.35845">
        <ele>2003.9</ele>
        <time>2017-08-26T10:34:47Z</time>
      </trkpt>
      <trkpt lat="44.09859" lon="7.35843">
        <ele>2003.4</ele>
        <time>2017-08-26T10:34:52Z</time>
      </trkpt>
      <trkpt lat="44.09856" lon="7.35841">
        <ele>2002.5</ele>
        <time>2017-08-26T10:34:55Z</time>
      </trkpt>
      <trkpt lat="44.09849" lon="7.35835">
        <ele>2000.5</ele>
        <time>2017-08-26T10:35:10Z</time>
      </trkpt>
      <trkpt lat="44.09844" lon="7.35828">
        <ele>1999.7</ele>
        <time>2017-08-26T10:35:18Z</time>
      </trkpt>
      <trkpt lat="44.0984" lon="7.35824">
        <ele>1998.7</ele>
        <time>2017-08-26T10:35:21Z</time>
      </trkpt>
      <trkpt lat="44.09836" lon="7.35818">
        <ele>1998</ele>
        <time>2017-08-26T10:35:26Z</time>
      </trkpt>
      <trkpt lat="44.09831" lon="7.35824">
        <ele>1994.7</ele>
        <time>2017-08-26T10:35:32Z</time>
      </trkpt>
      <trkpt lat="44.09835" lon="7.35842">
        <ele>1993.5</ele>
        <time>2017-08-26T10:35:47Z</time>
      </trkpt>
      <trkpt lat="44.09841" lon="7.35855">
        <ele>1994</ele>
        <time>2017-08-26T10:35:59Z</time>
      </trkpt>
      <trkpt lat="44.09842" lon="7.35863">
        <ele>1993.7</ele>
        <time>2017-08-26T10:36:05Z</time>
      </trkpt>
      <trkpt lat="44.09836" lon="7.3586">
        <ele>1991.2</ele>
        <time>2017-08-26T10:36:19Z</time>
      </trkpt>
      <trkpt lat="44.09826" lon="7.35855">
        <ele>1988</ele>
        <time>2017-08-26T10:36:32Z</time>
      </trkpt>
      <trkpt lat="44.09823" lon="7.35853">
        <ele>1987.1</ele>
        <time>2017-08-26T10:36:40Z</time>
      </trkpt>
      <trkpt lat="44.09817" lon="7.35849">
        <ele>1985.3</ele>
        <time>2017-08-26T10:36:47Z</time>
      </trkpt>
      <trkpt lat="44.09816" lon="7.35846">
        <ele>1985.3</ele>
        <time>2017-08-26T10:36:49Z</time>
      </trkpt>
      <trkpt lat="44.09814" lon="7.35842">
        <ele>1985.1</ele>
        <time>2017-08-26T10:36:53Z</time>
      </trkpt>
      <trkpt lat="44.09807" lon="7.35829">
        <ele>1984.2</ele>
        <time>2017-08-26T10:37:09Z</time>
      </trkpt>
      <trkpt lat="44.09801" lon="7.3582">
        <ele>1983.1</ele>
        <time>2017-08-26T10:37:21Z</time>
      </trkpt>
      <trkpt lat="44.09794" lon="7.35809">
        <ele>1981.9</ele>
        <time>2017-08-26T10:37:33Z</time>
      </trkpt>
      <trkpt lat="44.09789" lon="7.35804">
        <ele>1980.4</ele>
        <time>2017-08-26T10:37:44Z</time>
      </trkpt>
      <trkpt lat="44.09782" lon="7.35804">
        <ele>1977.6</ele>
        <time>2017-08-26T10:37:56Z</time>
      </trkpt>
      <trkpt lat="44.09779" lon="7.35805">
        <ele>1976.4</ele>
        <time>2017-08-26T10:38:00Z</time>
      </trkpt>
      <trkpt lat="44.09775" lon="7.35809">
        <ele>1974.4</ele>
        <time>2017-08-26T10:38:07Z</time>
      </trkpt>
      <trkpt lat="44.09777" lon="7.35821">
        <ele>1973.5</ele>
        <time>2017-08-26T10:38:19Z</time>
      </trkpt>
      <trkpt lat="44.09778" lon="7.35831">
        <ele>1972.4</ele>
        <time>2017-08-26T10:38:32Z</time>
      </trkpt>
      <trkpt lat="44.09771" lon="7.35828">
        <ele>1970.3</ele>
        <time>2017-08-26T10:38:45Z</time>
      </trkpt>
      <trkpt lat="44.0976" lon="7.35823">
        <ele>1966.8</ele>
        <time>2017-08-26T10:39:00Z</time>
      </trkpt>
      <trkpt lat="44.09753" lon="7.35821">
        <ele>1964.5</ele>
        <time>2017-08-26T10:39:14Z</time>
      </trkpt>
      <trkpt lat="44.09744" lon="7.35814">
        <ele>1961.6</ele>
        <time>2017-08-26T10:39:26Z</time>
      </trkpt>
      <trkpt lat="44.0974" lon="7.35798">
        <ele>1960.8</ele>
        <time>2017-08-26T10:39:41Z</time>
      </trkpt>
      <trkpt lat="44.09737" lon="7.35781">
        <ele>1959.3</ele>
        <time>2017-08-26T10:39:53Z</time>
      </trkpt>
      <trkpt lat="44.09728" lon="7.35769">
        <ele>1956.9</ele>
        <time>2017-08-26T10:40:04Z</time>
      </trkpt>
      <trkpt lat="44.09724" lon="7.35762">
        <ele>1956</ele>
        <time>2017-08-26T10:40:09Z</time>
      </trkpt>
      <trkpt lat="44.09719" lon="7.35752">
        <ele>1955.1</ele>
        <time>2017-08-26T10:40:20Z</time>
      </trkpt>
      <trkpt lat="44.09716" lon="7.35745">
        <ele>1954.5</ele>
        <time>2017-08-26T10:40:26Z</time>
      </trkpt>
      <trkpt lat="44.09713" lon="7.35742">
        <ele>1953.9</ele>
        <time>2017-08-26T10:40:29Z</time>
      </trkpt>
      <trkpt lat="44.09706" lon="7.35725">
        <ele>1953</ele>
        <time>2017-08-26T10:40:43Z</time>
      </trkpt>
      <trkpt lat="44.09705" lon="7.35706">
        <ele>1950.9</ele>
        <time>2017-08-26T10:40:58Z</time>
      </trkpt>
      <trkpt lat="44.097" lon="7.35701">
        <ele>1949.6</ele>
        <time>2017-08-26T10:41:12Z</time>
      </trkpt>
      <trkpt lat="44.09689" lon="7.35695">
        <ele>1946.9</ele>
        <time>2017-08-26T10:41:27Z</time>
      </trkpt>
      <trkpt lat="44.09687" lon="7.35693">
        <ele>1946.2</ele>
        <time>2017-08-26T10:41:29Z</time>
      </trkpt>
      <trkpt lat="44.09673" lon="7.35687">
        <ele>1942.4</ele>
        <time>2017-08-26T10:41:44Z</time>
      </trkpt>
      <trkpt lat="44.09667" lon="7.35689">
        <ele>1941.5</ele>
        <time>2017-08-26T10:41:53Z</time>
      </trkpt>
      <trkpt lat="44.09661" lon="7.35699">
        <ele>1940</ele>
        <time>2017-08-26T10:42:07Z</time>
      </trkpt>
      <trkpt lat="44.09658" lon="7.35702">
        <ele>1938.9</ele>
        <time>2017-08-26T10:42:15Z</time>
      </trkpt>
      <trkpt lat="44.09652" lon="7.35712">
        <ele>1936.8</ele>
        <time>2017-08-26T10:42:28Z</time>
      </trkpt>
      <trkpt lat="44.09651" lon="7.35717">
        <ele>1936.5</ele>
        <time>2017-08-26T10:42:34Z</time>
      </trkpt>
      <trkpt lat="44.09648" lon="7.35721">
        <ele>1935.2</ele>
        <time>2017-08-26T10:42:41Z</time>
      </trkpt>
      <trkpt lat="44.09649" lon="7.35728">
        <ele>1935.2</ele>
        <time>2017-08-26T10:42:51Z</time>
      </trkpt>
      <trkpt lat="44.09652" lon="7.35737">
        <ele>1935.8</ele>
        <time>2017-08-26T10:42:59Z</time>
      </trkpt>
      <trkpt lat="44.09651" lon="7.35744">
        <ele>1934.8</ele>
        <time>2017-08-26T10:43:05Z</time>
      </trkpt>
      <trkpt lat="44.09648" lon="7.35752">
        <ele>1932.8</ele>
        <time>2017-08-26T10:43:14Z</time>
      </trkpt>
      <trkpt lat="44.09645" lon="7.35756">
        <ele>1931.3</ele>
        <time>2017-08-26T10:43:18Z</time>
      </trkpt>
      <trkpt lat="44.09643" lon="7.35758">
        <ele>1930.4</ele>
        <time>2017-08-26T10:43:20Z</time>
      </trkpt>
      <trkpt lat="44.09639" lon="7.35747">
        <ele>1929.3</ele>
        <time>2017-08-26T10:43:33Z</time>
      </trkpt>
      <trkpt lat="44.09638" lon="7.35743">
        <ele>1929</ele>
        <time>2017-08-26T10:43:36Z</time>
      </trkpt>
      <trkpt lat="44.09635" lon="7.35726">
        <ele>1928.5</ele>
        <time>2017-08-26T10:43:49Z</time>
      </trkpt>
      <trkpt lat="44.09631" lon="7.35716">
        <ele>1926.6</ele>
        <time>2017-08-26T10:44:02Z</time>
      </trkpt>
      <trkpt lat="44.09626" lon="7.35704">
        <ele>1924.5</ele>
        <time>2017-08-26T10:44:14Z</time>
      </trkpt>
      <trkpt lat="44.0962" lon="7.35692">
        <ele>1922.2</ele>
        <time>2017-08-26T10:44:29Z</time>
      </trkpt>
      <trkpt lat="44.09618" lon="7.35685">
        <ele>1921.5</ele>
        <time>2017-08-26T10:44:36Z</time>
      </trkpt>
      <trkpt lat="44.09612" lon="7.35671">
        <ele>1919.2</ele>
        <time>2017-08-26T10:44:49Z</time>
      </trkpt>
      <trkpt lat="44.09609" lon="7.35659">
        <ele>1918</ele>
        <time>2017-08-26T10:45:02Z</time>
      </trkpt>
      <trkpt lat="44.09608" lon="7.35656">
        <ele>1917.6</ele>
        <time>2017-08-26T10:45:06Z</time>
      </trkpt>
      <trkpt lat="44.09602" lon="7.35639">
        <ele>1915.4</ele>
        <time>2017-08-26T10:45:19Z</time>
      </trkpt>
      <trkpt lat="44.09598" lon="7.35641">
        <ele>1914.2</ele>
        <time>2017-08-26T10:45:32Z</time>
      </trkpt>
      <trkpt lat="44.09596" lon="7.35643">
        <ele>1913.6</ele>
        <time>2017-08-26T10:45:38Z</time>
      </trkpt>
      <trkpt lat="44.09595" lon="7.35645">
        <ele>1913.3</ele>
        <time>2017-08-26T10:45:40Z</time>
      </trkpt>
      <trkpt lat="44.09582" lon="7.35652">
        <ele>1909.2</ele>
        <time>2017-08-26T10:45:57Z</time>
      </trkpt>
      <trkpt lat="44.09579" lon="7.35652">
        <ele>1908.4</ele>
        <time>2017-08-26T10:46:08Z</time>
      </trkpt>
      <trkpt lat="44.09576" lon="7.35655">
        <ele>1907.4</ele>
        <time>2017-08-26T10:46:13Z</time>
      </trkpt>
      <trkpt lat="44.09575" lon="7.35659">
        <ele>1907</ele>
        <time>2017-08-26T10:46:17Z</time>
      </trkpt>
      <trkpt lat="44.09572" lon="7.3567">
        <ele>1905.4</ele>
        <time>2017-08-26T10:46:32Z</time>
      </trkpt>
      <trkpt lat="44.09571" lon="7.35671">
        <ele>1905.1</ele>
        <time>2017-08-26T10:46:43Z</time>
      </trkpt>
      <trkpt lat="44.09569" lon="7.3567">
        <ele>1904.6</ele>
        <time>2017-08-26T10:46:58Z</time>
      </trkpt>
      <trkpt lat="44.0957" lon="7.35669">
        <ele>1905</ele>
        <time>2017-08-26T10:47:17Z</time>
      </trkpt>
      <trkpt lat="44.09572" lon="7.35671">
        <ele>1905.4</ele>
        <time>2017-08-26T10:47:34Z</time>
      </trkpt>
      <trkpt lat="44.09572" lon="7.35672">
        <ele>1905.3</ele>
        <time>2017-08-26T10:47:54Z</time>
      </trkpt>
      <trkpt lat="44.09572" lon="7.35671">
        <ele>1905.4</ele>
        <time>2017-08-26T10:48:26Z</time>
      </trkpt>
      <trkpt lat="44.09572" lon="7.35671">
        <ele>1905.4</ele>
        <time>2017-08-26T10:48:51Z</time>
      </trkpt>
      <trkpt lat="44.09588" lon="7.35697">
        <ele>1908.6</ele>
        <time>2017-08-26T10:49:46Z</time>
      </trkpt>
      <trkpt lat="44.09586" lon="7.35674">
        <ele>1909.5</ele>
        <time>2017-08-26T10:50:16Z</time>
      </trkpt>
      <trkpt lat="44.0958" lon="7.35676">
        <ele>1907.3</ele>
        <time>2017-08-26T10:50:38Z</time>
      </trkpt>
      <trkpt lat="44.09575" lon="7.35679">
        <ele>1905.6</ele>
        <time>2017-08-26T10:51:03Z</time>
      </trkpt>
      <trkpt lat="44.09575" lon="7.35686">
        <ele>1905</ele>
        <time>2017-08-26T10:51:33Z</time>
      </trkpt>
      <trkpt lat="44.09575" lon="7.35686">
        <ele>1905</ele>
        <time>2017-08-26T10:52:04Z</time>
      </trkpt>
      <trkpt lat="44.09576" lon="7.35685">
        <ele>1905.4</ele>
        <time>2017-08-26T10:52:45Z</time>
      </trkpt>
      <trkpt lat="44.09576" lon="7.35685">
        <ele>1905.4</ele>
        <time>2017-08-26T10:53:16Z</time>
      </trkpt>
      <trkpt lat="44.09577" lon="7.35684">
        <ele>1905.8</ele>
        <time>2017-08-26T10:53:42Z</time>
      </trkpt>
      <trkpt lat="44.09577" lon="7.35683">
        <ele>1905.9</ele>
        <time>2017-08-26T10:54:12Z</time>
      </trkpt>
      <trkpt lat="44.0959" lon="7.35679">
        <ele>1910.6</ele>
        <time>2017-08-26T10:54:38Z</time>
      </trkpt>
      <trkpt lat="44.0959" lon="7.35679">
        <ele>1910.6</ele>
        <time>2017-08-26T10:55:06Z</time>
      </trkpt>
      <trkpt lat="44.09583" lon="7.35684">
        <ele>1907.6</ele>
        <time>2017-08-26T10:55:25Z</time>
      </trkpt>
      <trkpt lat="44.09583" lon="7.35684">
        <ele>1907.6</ele>
        <time>2017-08-26T10:55:50Z</time>
      </trkpt>
      <trkpt lat="44.09582" lon="7.35681">
        <ele>1907.6</ele>
        <time>2017-08-26T10:56:30Z</time>
      </trkpt>
      <trkpt lat="44.09581" lon="7.35681">
        <ele>1907.3</ele>
        <time>2017-08-26T10:57:04Z</time>
      </trkpt>
      <trkpt lat="44.09579" lon="7.35681">
        <ele>1906.6</ele>
        <time>2017-08-26T10:57:33Z</time>
      </trkpt>
      <trkpt lat="44.09581" lon="7.3568">
        <ele>1907.3</ele>
        <time>2017-08-26T10:57:48Z</time>
      </trkpt>
      <trkpt lat="44.09581" lon="7.3568">
        <ele>1907.3</ele>
        <time>2017-08-26T10:58:13Z</time>
      </trkpt>
      <trkpt lat="44.09581" lon="7.35679">
        <ele>1907.4</ele>
        <time>2017-08-26T10:58:41Z</time>
      </trkpt>
      <trkpt lat="44.09582" lon="7.35679">
        <ele>1907.7</ele>
        <time>2017-08-26T10:59:10Z</time>
      </trkpt>
      <trkpt lat="44.09582" lon="7.35678">
        <ele>1907.8</ele>
        <time>2017-08-26T10:59:30Z</time>
      </trkpt>
      <trkpt lat="44.09582" lon="7.35677">
        <ele>1907.9</ele>
        <time>2017-08-26T10:59:50Z</time>
      </trkpt>
      <trkpt lat="44.09574" lon="7.35677">
        <ele>1905.4</ele>
        <time>2017-08-26T11:00:08Z</time>
      </trkpt>
      <trkpt lat="44.09574" lon="7.35677">
        <ele>1905.4</ele>
        <time>2017-08-26T11:00:25Z</time>
      </trkpt>
      <trkpt lat="44.09573" lon="7.35676">
        <ele>1905.2</ele>
        <time>2017-08-26T11:00:44Z</time>
      </trkpt>
      <trkpt lat="44.09566" lon="7.35674">
        <ele>1903.3</ele>
        <time>2017-08-26T11:00:59Z</time>
      </trkpt>
      <trkpt lat="44.09569" lon="7.35687">
        <ele>1903</ele>
        <time>2017-08-26T11:01:10Z</time>
      </trkpt>
      <trkpt lat="44.09571" lon="7.35701">
        <ele>1902.2</ele>
        <time>2017-08-26T11:01:20Z</time>
      </trkpt>
      <trkpt lat="44.09576" lon="7.35717">
        <ele>1902</ele>
        <time>2017-08-26T11:01:35Z</time>
      </trkpt>
      <trkpt lat="44.09579" lon="7.35737">
        <ele>1899.8</ele>
        <time>2017-08-26T11:01:52Z</time>
      </trkpt>
      <trkpt lat="44.09583" lon="7.35748">
        <ele>1899.2</ele>
        <time>2017-08-26T11:02:05Z</time>
      </trkpt>
      <trkpt lat="44.09585" lon="7.35763">
        <ele>1897.6</ele>
        <time>2017-08-26T11:02:18Z</time>
      </trkpt>
      <trkpt lat="44.09582" lon="7.35774">
        <ele>1894</ele>
        <time>2017-08-26T11:02:32Z</time>
      </trkpt>
      <trkpt lat="44.09584" lon="7.35783">
        <ele>1894.1</ele>
        <time>2017-08-26T11:02:45Z</time>
      </trkpt>
      <trkpt lat="44.09583" lon="7.35795">
        <ele>1892.6</ele>
        <time>2017-08-26T11:02:57Z</time>
      </trkpt>
      <trkpt lat="44.09582" lon="7.35802">
        <ele>1891.5</ele>
        <time>2017-08-26T11:03:02Z</time>
      </trkpt>
      <trkpt lat="44.09578" lon="7.3582">
        <ele>1888.6</ele>
        <time>2017-08-26T11:03:16Z</time>
      </trkpt>
      <trkpt lat="44.09575" lon="7.35835">
        <ele>1886.6</ele>
        <time>2017-08-26T11:03:30Z</time>
      </trkpt>
      <trkpt lat="44.09577" lon="7.35849">
        <ele>1885.4</ele>
        <time>2017-08-26T11:03:39Z</time>
      </trkpt>
      <trkpt lat="44.0958" lon="7.35855">
        <ele>1885.7</ele>
        <time>2017-08-26T11:03:45Z</time>
      </trkpt>
      <trkpt lat="44.09581" lon="7.35862">
        <ele>1884.9</ele>
        <time>2017-08-26T11:03:50Z</time>
      </trkpt>
      <trkpt lat="44.09586" lon="7.35881">
        <ele>1883.3</ele>
        <time>2017-08-26T11:04:05Z</time>
      </trkpt>
      <trkpt lat="44.09593" lon="7.35894">
        <ele>1883.2</ele>
        <time>2017-08-26T11:04:20Z</time>
      </trkpt>
      <trkpt lat="44.09594" lon="7.35896">
        <ele>1883.3</ele>
        <time>2017-08-26T11:04:22Z</time>
      </trkpt>
      <trkpt lat="44.09595" lon="7.35901">
        <ele>1883.1</ele>
        <time>2017-08-26T11:04:28Z</time>
      </trkpt>
      <trkpt lat="44.09595" lon="7.35904">
        <ele>1882.7</ele>
        <time>2017-08-26T11:04:31Z</time>
      </trkpt>
      <trkpt lat="44.09594" lon="7.35907">
        <ele>1882.1</ele>
        <time>2017-08-26T11:04:47Z</time>
      </trkpt>
      <trkpt lat="44.09586" lon="7.35915">
        <ele>1878.9</ele>
        <time>2017-08-26T11:05:02Z</time>
      </trkpt>
      <trkpt lat="44.09581" lon="7.35926">
        <ele>1876.3</ele>
        <time>2017-08-26T11:05:16Z</time>
      </trkpt>
      <trkpt lat="44.09577" lon="7.35933">
        <ele>1874.5</ele>
        <time>2017-08-26T11:05:26Z</time>
      </trkpt>
      <trkpt lat="44.09577" lon="7.35935">
        <ele>1874.3</ele>
        <time>2017-08-26T11:05:28Z</time>
      </trkpt>
      <trkpt lat="44.09577" lon="7.35938">
        <ele>1874</ele>
        <time>2017-08-26T11:05:30Z</time>
      </trkpt>
      <trkpt lat="44.09573" lon="7.35949">
        <ele>1871.6</ele>
        <time>2017-08-26T11:05:40Z</time>
      </trkpt>
      <trkpt lat="44.0957" lon="7.3595">
        <ele>1870.7</ele>
        <time>2017-08-26T11:05:43Z</time>
      </trkpt>
      <trkpt lat="44.09569" lon="7.35954">
        <ele>1869.9</ele>
        <time>2017-08-26T11:05:46Z</time>
      </trkpt>
      <trkpt lat="44.09563" lon="7.35968">
        <ele>1866.7</ele>
        <time>2017-08-26T11:05:58Z</time>
      </trkpt>
      <trkpt lat="44.09562" lon="7.35973">
        <ele>1865.8</ele>
        <time>2017-08-26T11:06:01Z</time>
      </trkpt>
      <trkpt lat="44.0956" lon="7.35974">
        <ele>1865.4</ele>
        <time>2017-08-26T11:06:03Z</time>
      </trkpt>
      <trkpt lat="44.09561" lon="7.35977">
        <ele>1865.1</ele>
        <time>2017-08-26T11:06:06Z</time>
      </trkpt>
      <trkpt lat="44.09566" lon="7.35977">
        <ele>1865.8</ele>
        <time>2017-08-26T11:06:17Z</time>
      </trkpt>
      <trkpt lat="44.09565" lon="7.35979">
        <ele>1865.3</ele>
        <time>2017-08-26T11:06:19Z</time>
      </trkpt>
      <trkpt lat="44.09561" lon="7.35983">
        <ele>1864.2</ele>
        <time>2017-08-26T11:06:24Z</time>
      </trkpt>
      <trkpt lat="44.09556" lon="7.35984">
        <ele>1863.4</ele>
        <time>2017-08-26T11:06:30Z</time>
      </trkpt>
      <trkpt lat="44.09546" lon="7.35992">
        <ele>1861.5</ele>
        <time>2017-08-26T11:06:39Z</time>
      </trkpt>
      <trkpt lat="44.09541" lon="7.36002">
        <ele>1860.7</ele>
        <time>2017-08-26T11:06:47Z</time>
      </trkpt>
      <trkpt lat="44.09538" lon="7.36011">
        <ele>1861.6</ele>
        <time>2017-08-26T11:07:00Z</time>
      </trkpt>
      <trkpt lat="44.09536" lon="7.36012">
        <ele>1861.6</ele>
        <time>2017-08-26T11:07:23Z</time>
      </trkpt>
      <trkpt lat="44.09539" lon="7.36013">
        <ele>1861.8</ele>
        <time>2017-08-26T11:07:35Z</time>
      </trkpt>
      <trkpt lat="44.0954" lon="7.36012">
        <ele>1861.7</ele>
        <time>2017-08-26T11:07:44Z</time>
      </trkpt>
      <trkpt lat="44.09533" lon="7.36013">
        <ele>1861.6</ele>
        <time>2017-08-26T11:07:50Z</time>
      </trkpt>
      <trkpt lat="44.0953" lon="7.36014">
        <ele>1861.6</ele>
        <time>2017-08-26T11:07:53Z</time>
      </trkpt>
      <trkpt lat="44.09511" lon="7.36014">
        <ele>1862.4</ele>
        <time>2017-08-26T11:08:07Z</time>
      </trkpt>
      <trkpt lat="44.09496" lon="7.36022">
        <ele>1865.5</ele>
        <time>2017-08-26T11:08:19Z</time>
      </trkpt>
      <trkpt lat="44.09496" lon="7.36027">
        <ele>1866.6</ele>
        <time>2017-08-26T11:08:23Z</time>
      </trkpt>
      <trkpt lat="44.09506" lon="7.36039">
        <ele>1867.3</ele>
        <time>2017-08-26T11:08:38Z</time>
      </trkpt>
      <trkpt lat="44.09512" lon="7.36043">
        <ele>1867.2</ele>
        <time>2017-08-26T11:08:53Z</time>
      </trkpt>
      <trkpt lat="44.09515" lon="7.36042">
        <ele>1866.7</ele>
        <time>2017-08-26T11:09:06Z</time>
      </trkpt>
      <trkpt lat="44.09515" lon="7.36042">
        <ele>1866.7</ele>
        <time>2017-08-26T11:09:29Z</time>
      </trkpt>
      <trkpt lat="44.09515" lon="7.36042">
        <ele>1866.7</ele>
        <time>2017-08-26T11:10:01Z</time>
      </trkpt>
      <trkpt lat="44.09515" lon="7.36041">
        <ele>1866.5</ele>
        <time>2017-08-26T11:10:27Z</time>
      </trkpt>
      <trkpt lat="44.09515" lon="7.36041">
        <ele>1866.5</ele>
        <time>2017-08-26T11:10:47Z</time>
      </trkpt>
      <trkpt lat="44.09515" lon="7.36041">
        <ele>1866.5</ele>
        <time>2017-08-26T11:11:11Z</time>
      </trkpt>
      <trkpt lat="44.09515" lon="7.36041">
        <ele>1866.5</ele>
        <time>2017-08-26T11:11:32Z</time>
      </trkpt>
      <trkpt lat="44.09515" lon="7.36041">
        <ele>1866.5</ele>
        <time>2017-08-26T11:11:46Z</time>
      </trkpt>
      <trkpt lat="44.095" lon="7.3603">
        <ele>1866.4</ele>
        <time>2017-08-26T11:11:57Z</time>
      </trkpt>
      <trkpt lat="44.09498" lon="7.36028">
        <ele>1866.4</ele>
        <time>2017-08-26T11:11:59Z</time>
      </trkpt>
      <trkpt lat="44.09502" lon="7.36024">
        <ele>1865</ele>
        <time>2017-08-26T11:12:05Z</time>
      </trkpt>
      <trkpt lat="44.09521" lon="7.36022">
        <ele>1863</ele>
        <time>2017-08-26T11:12:22Z</time>
      </trkpt>
      <trkpt lat="44.09539" lon="7.36016">
        <ele>1862.1</ele>
        <time>2017-08-26T11:12:36Z</time>
      </trkpt>
      <trkpt lat="44.09541" lon="7.36014">
        <ele>1862</ele>
        <time>2017-08-26T11:12:42Z</time>
      </trkpt>
      <trkpt lat="44.09545" lon="7.36017">
        <ele>1862.5</ele>
        <time>2017-08-26T11:12:46Z</time>
      </trkpt>
      <trkpt lat="44.09548" lon="7.36018">
        <ele>1862.7</ele>
        <time>2017-08-26T11:12:49Z</time>
      </trkpt>
      <trkpt lat="44.09552" lon="7.36017">
        <ele>1862.7</ele>
        <time>2017-08-26T11:12:52Z</time>
      </trkpt>
      <trkpt lat="44.09559" lon="7.36022">
        <ele>1863.6</ele>
        <time>2017-08-26T11:13:02Z</time>
      </trkpt>
      <trkpt lat="44.0956" lon="7.36023">
        <ele>1863.7</ele>
        <time>2017-08-26T11:13:04Z</time>
      </trkpt>
      <trkpt lat="44.09567" lon="7.36025">
        <ele>1864.2</ele>
        <time>2017-08-26T11:13:11Z</time>
      </trkpt>
      <trkpt lat="44.09584" lon="7.36023">
        <ele>1864.9</ele>
        <time>2017-08-26T11:13:25Z</time>
      </trkpt>
      <trkpt lat="44.09586" lon="7.36023">
        <ele>1865.2</ele>
        <time>2017-08-26T11:13:28Z</time>
      </trkpt>
      <trkpt lat="44.09591" lon="7.3603">
        <ele>1866.2</ele>
        <time>2017-08-26T11:13:42Z</time>
      </trkpt>
      <trkpt lat="44.0959" lon="7.36036">
        <ele>1867.2</ele>
        <time>2017-08-26T11:13:49Z</time>
      </trkpt>
      <trkpt lat="44.09591" lon="7.36047">
        <ele>1869.2</ele>
        <time>2017-08-26T11:13:57Z</time>
      </trkpt>
      <trkpt lat="44.09594" lon="7.36052">
        <ele>1870</ele>
        <time>2017-08-26T11:14:01Z</time>
      </trkpt>
      <trkpt lat="44.09598" lon="7.36054">
        <ele>1870.3</ele>
        <time>2017-08-26T11:14:06Z</time>
      </trkpt>
      <trkpt lat="44.09599" lon="7.36056">
        <ele>1870.5</ele>
        <time>2017-08-26T11:14:08Z</time>
      </trkpt>
      <trkpt lat="44.09601" lon="7.36069">
        <ele>1872.2</ele>
        <time>2017-08-26T11:14:22Z</time>
      </trkpt>
      <trkpt lat="44.09605" lon="7.36079">
        <ele>1873.1</ele>
        <time>2017-08-26T11:14:31Z</time>
      </trkpt>
      <trkpt lat="44.09606" lon="7.36086">
        <ele>1873.9</ele>
        <time>2017-08-26T11:14:39Z</time>
      </trkpt>
      <trkpt lat="44.09606" lon="7.36098">
        <ele>1875.7</ele>
        <time>2017-08-26T11:14:51Z</time>
      </trkpt>
      <trkpt lat="44.09604" lon="7.36102">
        <ele>1876.5</ele>
        <time>2017-08-26T11:14:54Z</time>
      </trkpt>
      <trkpt lat="44.09604" lon="7.36112">
        <ele>1877.9</ele>
        <time>2017-08-26T11:15:00Z</time>
      </trkpt>
      <trkpt lat="44.09607" lon="7.36116">
        <ele>1878.3</ele>
        <time>2017-08-26T11:15:04Z</time>
      </trkpt>
      <trkpt lat="44.09609" lon="7.36118">
        <ele>1878.4</ele>
        <time>2017-08-26T11:15:07Z</time>
      </trkpt>
      <trkpt lat="44.09619" lon="7.36127">
        <ele>1879.3</ele>
        <time>2017-08-26T11:15:20Z</time>
      </trkpt>
      <trkpt lat="44.09622" lon="7.36134">
        <ele>1880.1</ele>
        <time>2017-08-26T11:15:26Z</time>
      </trkpt>
      <trkpt lat="44.09623" lon="7.36139">
        <ele>1880.7</ele>
        <time>2017-08-26T11:15:31Z</time>
      </trkpt>
      <trkpt lat="44.09624" lon="7.36146">
        <ele>1881.9</ele>
        <time>2017-08-26T11:15:39Z</time>
      </trkpt>
      <trkpt lat="44.09625" lon="7.36153">
        <ele>1883</ele>
        <time>2017-08-26T11:15:45Z</time>
      </trkpt>
      <trkpt lat="44.09627" lon="7.36156">
        <ele>1883.4</ele>
        <time>2017-08-26T11:15:47Z</time>
      </trkpt>
      <trkpt lat="44.09637" lon="7.36164">
        <ele>1883.7</ele>
        <time>2017-08-26T11:15:57Z</time>
      </trkpt>
      <trkpt lat="44.09642" lon="7.36166">
        <ele>1883.7</ele>
        <time>2017-08-26T11:16:02Z</time>
      </trkpt>
      <trkpt lat="44.09647" lon="7.36177">
        <ele>1885</ele>
        <time>2017-08-26T11:16:08Z</time>
      </trkpt>
      <trkpt lat="44.09661" lon="7.36193">
        <ele>1887</ele>
        <time>2017-08-26T11:16:23Z</time>
      </trkpt>
      <trkpt lat="44.09665" lon="7.36193">
        <ele>1886.8</ele>
        <time>2017-08-26T11:16:30Z</time>
      </trkpt>
      <trkpt lat="44.0967" lon="7.36198">
        <ele>1887.8</ele>
        <time>2017-08-26T11:16:35Z</time>
      </trkpt>
      <trkpt lat="44.09682" lon="7.36202">
        <ele>1889.1</ele>
        <time>2017-08-26T11:16:47Z</time>
      </trkpt>
      <trkpt lat="44.09688" lon="7.36204">
        <ele>1889.8</ele>
        <time>2017-08-26T11:16:54Z</time>
      </trkpt>
      <trkpt lat="44.09702" lon="7.36204">
        <ele>1891.3</ele>
        <time>2017-08-26T11:17:06Z</time>
      </trkpt>
      <trkpt lat="44.0971" lon="7.36205">
        <ele>1892.9</ele>
        <time>2017-08-26T11:17:13Z</time>
      </trkpt>
      <trkpt lat="44.09723" lon="7.36208">
        <ele>1896</ele>
        <time>2017-08-26T11:17:27Z</time>
      </trkpt>
      <trkpt lat="44.09733" lon="7.36212">
        <ele>1899</ele>
        <time>2017-08-26T11:17:39Z</time>
      </trkpt>
      <trkpt lat="44.09739" lon="7.36219">
        <ele>1902.1</ele>
        <time>2017-08-26T11:17:52Z</time>
      </trkpt>
      <trkpt lat="44.09748" lon="7.36225">
        <ele>1905.2</ele>
        <time>2017-08-26T11:18:07Z</time>
      </trkpt>
      <trkpt lat="44.09749" lon="7.36225">
        <ele>1905.4</ele>
        <time>2017-08-26T11:18:09Z</time>
      </trkpt>
      <trkpt lat="44.09752" lon="7.36225">
        <ele>1906</ele>
        <time>2017-08-26T11:18:13Z</time>
      </trkpt>
      <trkpt lat="44.09758" lon="7.3623">
        <ele>1908.6</ele>
        <time>2017-08-26T11:18:29Z</time>
      </trkpt>
      <trkpt lat="44.09767" lon="7.36227">
        <ele>1909.9</ele>
        <time>2017-08-26T11:18:42Z</time>
      </trkpt>
      <trkpt lat="44.09772" lon="7.3623">
        <ele>1911.9</ele>
        <time>2017-08-26T11:18:55Z</time>
      </trkpt>
      <trkpt lat="44.09777" lon="7.36229">
        <ele>1912.8</ele>
        <time>2017-08-26T11:19:07Z</time>
      </trkpt>
      <trkpt lat="44.09784" lon="7.36237">
        <ele>1916.6</ele>
        <time>2017-08-26T11:19:19Z</time>
      </trkpt>
      <trkpt lat="44.09791" lon="7.3624">
        <ele>1919.2</ele>
        <time>2017-08-26T11:19:31Z</time>
      </trkpt>
      <trkpt lat="44.098" lon="7.36244">
        <ele>1923</ele>
        <time>2017-08-26T11:19:41Z</time>
      </trkpt>
      <trkpt lat="44.09807" lon="7.3625">
        <ele>1927.3</ele>
        <time>2017-08-26T11:19:50Z</time>
      </trkpt>
      <trkpt lat="44.09813" lon="7.36255">
        <ele>1929.6</ele>
        <time>2017-08-26T11:19:58Z</time>
      </trkpt>
      <trkpt lat="44.09817" lon="7.36258">
        <ele>1931.1</ele>
        <time>2017-08-26T11:20:02Z</time>
      </trkpt>
      <trkpt lat="44.09827" lon="7.36262">
        <ele>1934.5</ele>
        <time>2017-08-26T11:20:14Z</time>
      </trkpt>
      <trkpt lat="44.09837" lon="7.36264">
        <ele>1937.5</ele>
        <time>2017-08-26T11:20:26Z</time>
      </trkpt>
      <trkpt lat="44.09845" lon="7.36268">
        <ele>1941</ele>
        <time>2017-08-26T11:20:39Z</time>
      </trkpt>
      <trkpt lat="44.09851" lon="7.36269">
        <ele>1943</ele>
        <time>2017-08-26T11:20:51Z</time>
      </trkpt>
      <trkpt lat="44.09854" lon="7.36272">
        <ele>1944.9</ele>
        <time>2017-08-26T11:20:56Z</time>
      </trkpt>
      <trkpt lat="44.09859" lon="7.3627">
        <ele>1945.6</ele>
        <time>2017-08-26T11:21:04Z</time>
      </trkpt>
      <trkpt lat="44.09861" lon="7.36269">
        <ele>1945.8</ele>
        <time>2017-08-26T11:21:07Z</time>
      </trkpt>
      <trkpt lat="44.09867" lon="7.36265">
        <ele>1946.1</ele>
        <time>2017-08-26T11:21:22Z</time>
      </trkpt>
      <trkpt lat="44.09871" lon="7.36269">
        <ele>1948.7</ele>
        <time>2017-08-26T11:21:33Z</time>
      </trkpt>
      <trkpt lat="44.09878" lon="7.36275">
        <ele>1952.9</ele>
        <time>2017-08-26T11:21:45Z</time>
      </trkpt>
      <trkpt lat="44.09883" lon="7.36274">
        <ele>1953.9</ele>
        <time>2017-08-26T11:21:57Z</time>
      </trkpt>
      <trkpt lat="44.09885" lon="7.36273">
        <ele>1954.2</ele>
        <time>2017-08-26T11:22:01Z</time>
      </trkpt>
      <trkpt lat="44.09892" lon="7.36278">
        <ele>1957.6</ele>
        <time>2017-08-26T11:22:13Z</time>
      </trkpt>
      <trkpt lat="44.09903" lon="7.36285">
        <ele>1961</ele>
        <time>2017-08-26T11:22:26Z</time>
      </trkpt>
      <trkpt lat="44.09907" lon="7.36284">
        <ele>1961.5</ele>
        <time>2017-08-26T11:22:29Z</time>
      </trkpt>
      <trkpt lat="44.0991" lon="7.36284">
        <ele>1962</ele>
        <time>2017-08-26T11:22:32Z</time>
      </trkpt>
      <trkpt lat="44.09923" lon="7.36284">
        <ele>1964.1</ele>
        <time>2017-08-26T11:22:46Z</time>
      </trkpt>
      <trkpt lat="44.09932" lon="7.36285">
        <ele>1965.7</ele>
        <time>2017-08-26T11:22:59Z</time>
      </trkpt>
      <trkpt lat="44.09943" lon="7.36275">
        <ele>1964.4</ele>
        <time>2017-08-26T11:23:12Z</time>
      </trkpt>
      <trkpt lat="44.09945" lon="7.36272">
        <ele>1963.2</ele>
        <time>2017-08-26T11:23:21Z</time>
      </trkpt>
      <trkpt lat="44.09948" lon="7.36269">
        <ele>1962</ele>
        <time>2017-08-26T11:23:36Z</time>
      </trkpt>
      <trkpt lat="44.09954" lon="7.36272">
        <ele>1964.3</ele>
        <time>2017-08-26T11:23:51Z</time>
      </trkpt>
      <trkpt lat="44.09959" lon="7.36274">
        <ele>1966</ele>
        <time>2017-08-26T11:24:05Z</time>
      </trkpt>
      <trkpt lat="44.09964" lon="7.36275">
        <ele>1967.3</ele>
        <time>2017-08-26T11:24:20Z</time>
      </trkpt>
      <trkpt lat="44.09968" lon="7.36282">
        <ele>1970.9</ele>
        <time>2017-08-26T11:24:33Z</time>
      </trkpt>
      <trkpt lat="44.09976" lon="7.36287">
        <ele>1974.2</ele>
        <time>2017-08-26T11:24:47Z</time>
      </trkpt>
      <trkpt lat="44.09978" lon="7.36292">
        <ele>1976.6</ele>
        <time>2017-08-26T11:25:01Z</time>
      </trkpt>
      <trkpt lat="44.09978" lon="7.36292">
        <ele>1976.6</ele>
        <time>2017-08-26T11:25:21Z</time>
      </trkpt>
      <trkpt lat="44.09979" lon="7.36289">
        <ele>1975.5</ele>
        <time>2017-08-26T11:25:34Z</time>
      </trkpt>
      <trkpt lat="44.0998" lon="7.3629">
        <ele>1976</ele>
        <time>2017-08-26T11:25:53Z</time>
      </trkpt>
      <trkpt lat="44.09989" lon="7.36295">
        <ele>1979.8</ele>
        <time>2017-08-26T11:26:07Z</time>
      </trkpt>
      <trkpt lat="44.09995" lon="7.36305">
        <ele>1985.7</ele>
        <time>2017-08-26T11:26:21Z</time>
      </trkpt>
      <trkpt lat="44.1" lon="7.36312">
        <ele>1988.6</ele>
        <time>2017-08-26T11:26:34Z</time>
      </trkpt>
      <trkpt lat="44.10002" lon="7.3632">
        <ele>1991</ele>
        <time>2017-08-26T11:26:48Z</time>
      </trkpt>
      <trkpt lat="44.10008" lon="7.36326">
        <ele>1993.7</ele>
        <time>2017-08-26T11:27:02Z</time>
      </trkpt>
      <trkpt lat="44.10007" lon="7.36336">
        <ele>1996.3</ele>
        <time>2017-08-26T11:27:17Z</time>
      </trkpt>
      <trkpt lat="44.10012" lon="7.36343">
        <ele>1999.2</ele>
        <time>2017-08-26T11:27:31Z</time>
      </trkpt>
      <trkpt lat="44.10018" lon="7.36348">
        <ele>2001.8</ele>
        <time>2017-08-26T11:27:48Z</time>
      </trkpt>
      <trkpt lat="44.10024" lon="7.36351">
        <ele>2003.7</ele>
        <time>2017-08-26T11:28:04Z</time>
      </trkpt>
      <trkpt lat="44.10034" lon="7.36351">
        <ele>2005.9</ele>
        <time>2017-08-26T11:28:19Z</time>
      </trkpt>
      <trkpt lat="44.1004" lon="7.36354">
        <ele>2008.3</ele>
        <time>2017-08-26T11:28:33Z</time>
      </trkpt>
      <trkpt lat="44.10049" lon="7.36351">
        <ele>2009.5</ele>
        <time>2017-08-26T11:28:46Z</time>
      </trkpt>
      <trkpt lat="44.10057" lon="7.36353">
        <ele>2011.8</ele>
        <time>2017-08-26T11:29:00Z</time>
      </trkpt>
      <trkpt lat="44.10061" lon="7.36355">
        <ele>2012.8</ele>
        <time>2017-08-26T11:29:17Z</time>
      </trkpt>
      <trkpt lat="44.10057" lon="7.36356">
        <ele>2013</ele>
        <time>2017-08-26T11:29:32Z</time>
      </trkpt>
      <trkpt lat="44.10052" lon="7.3636">
        <ele>2013.6</ele>
        <time>2017-08-26T11:29:46Z</time>
      </trkpt>
      <trkpt lat="44.10047" lon="7.36377">
        <ele>2016.9</ele>
        <time>2017-08-26T11:30:03Z</time>
      </trkpt>
      <trkpt lat="44.10051" lon="7.36389">
        <ele>2021</ele>
        <time>2017-08-26T11:30:15Z</time>
      </trkpt>
      <trkpt lat="44.10062" lon="7.36389">
        <ele>2022.7</ele>
        <time>2017-08-26T11:30:28Z</time>
      </trkpt>
      <trkpt lat="44.10073" lon="7.36392">
        <ele>2024.4</ele>
        <time>2017-08-26T11:30:43Z</time>
      </trkpt>
      <trkpt lat="44.10082" lon="7.36396">
        <ele>2026.1</ele>
        <time>2017-08-26T11:30:58Z</time>
      </trkpt>
      <trkpt lat="44.10087" lon="7.36401">
        <ele>2027.3</ele>
        <time>2017-08-26T11:31:07Z</time>
      </trkpt>
      <trkpt lat="44.10093" lon="7.3641">
        <ele>2029.3</ele>
        <time>2017-08-26T11:31:20Z</time>
      </trkpt>
      <trkpt lat="44.101" lon="7.36419">
        <ele>2031.5</ele>
        <time>2017-08-26T11:31:33Z</time>
      </trkpt>
      <trkpt lat="44.1011" lon="7.36428">
        <ele>2033.6</ele>
        <time>2017-08-26T11:31:49Z</time>
      </trkpt>
      <trkpt lat="44.10117" lon="7.36435">
        <ele>2034.8</ele>
        <time>2017-08-26T11:32:03Z</time>
      </trkpt>
      <trkpt lat="44.10126" lon="7.36441">
        <ele>2036.4</ele>
        <time>2017-08-26T11:32:15Z</time>
      </trkpt>
      <trkpt lat="44.10136" lon="7.36446">
        <ele>2038.2</ele>
        <time>2017-08-26T11:32:27Z</time>
      </trkpt>
      <trkpt lat="44.10148" lon="7.36449">
        <ele>2040.5</ele>
        <time>2017-08-26T11:32:41Z</time>
      </trkpt>
      <trkpt lat="44.10157" lon="7.3645">
        <ele>2042.1</ele>
        <time>2017-08-26T11:32:57Z</time>
      </trkpt>
      <trkpt lat="44.10164" lon="7.3645">
        <ele>2043.2</ele>
        <time>2017-08-26T11:33:08Z</time>
      </trkpt>
      <trkpt lat="44.10171" lon="7.36453">
        <ele>2045.2</ele>
        <time>2017-08-26T11:33:21Z</time>
      </trkpt>
      <trkpt lat="44.10178" lon="7.36443">
        <ele>2043.6</ele>
        <time>2017-08-26T11:33:33Z</time>
      </trkpt>
      <trkpt lat="44.10183" lon="7.36441">
        <ele>2043.8</ele>
        <time>2017-08-26T11:33:47Z</time>
      </trkpt>
      <trkpt lat="44.10182" lon="7.36452">
        <ele>2046.9</ele>
        <time>2017-08-26T11:34:01Z</time>
      </trkpt>
      <trkpt lat="44.10185" lon="7.36463">
        <ele>2050.6</ele>
        <time>2017-08-26T11:34:16Z</time>
      </trkpt>
      <trkpt lat="44.10189" lon="7.3647">
        <ele>2053.4</ele>
        <time>2017-08-26T11:34:30Z</time>
      </trkpt>
      <trkpt lat="44.1019" lon="7.3648">
        <ele>2056.2</ele>
        <time>2017-08-26T11:34:45Z</time>
      </trkpt>
      <trkpt lat="44.10192" lon="7.36488">
        <ele>2058.6</ele>
        <time>2017-08-26T11:34:59Z</time>
      </trkpt>
      <trkpt lat="44.10192" lon="7.36498">
        <ele>2061.1</ele>
        <time>2017-08-26T11:35:14Z</time>
      </trkpt>
      <trkpt lat="44.10193" lon="7.36508">
        <ele>2063.8</ele>
        <time>2017-08-26T11:35:28Z</time>
      </trkpt>
      <trkpt lat="44.10193" lon="7.3651">
        <ele>2064.3</ele>
        <time>2017-08-26T11:35:31Z</time>
      </trkpt>
      <trkpt lat="44.10193" lon="7.36522">
        <ele>2067.3</ele>
        <time>2017-08-26T11:35:45Z</time>
      </trkpt>
      <trkpt lat="44.10196" lon="7.36528">
        <ele>2069.4</ele>
        <time>2017-08-26T11:35:58Z</time>
      </trkpt>
      <trkpt lat="44.10196" lon="7.36536">
        <ele>2071.4</ele>
        <time>2017-08-26T11:36:12Z</time>
      </trkpt>
      <trkpt lat="44.10195" lon="7.36547">
        <ele>2073.9</ele>
        <time>2017-08-26T11:36:26Z</time>
      </trkpt>
      <trkpt lat="44.10197" lon="7.36558">
        <ele>2077</ele>
        <time>2017-08-26T11:36:41Z</time>
      </trkpt>
      <trkpt lat="44.10204" lon="7.36569">
        <ele>2080.9</ele>
        <time>2017-08-26T11:36:56Z</time>
      </trkpt>
      <trkpt lat="44.10211" lon="7.36581">
        <ele>2084.4</ele>
        <time>2017-08-26T11:37:13Z</time>
      </trkpt>
      <trkpt lat="44.10214" lon="7.36581">
        <ele>2084.4</ele>
        <time>2017-08-26T11:37:27Z</time>
      </trkpt>
      <trkpt lat="44.1021" lon="7.36593">
        <ele>2087</ele>
        <time>2017-08-26T11:37:41Z</time>
      </trkpt>
      <trkpt lat="44.10207" lon="7.36604">
        <ele>2089.5</ele>
        <time>2017-08-26T11:37:55Z</time>
      </trkpt>
      <trkpt lat="44.10202" lon="7.36615">
        <ele>2091.8</ele>
        <time>2017-08-26T11:38:12Z</time>
      </trkpt>
      <trkpt lat="44.10201" lon="7.36626">
        <ele>2093</ele>
        <time>2017-08-26T11:38:23Z</time>
      </trkpt>
      <trkpt lat="44.10199" lon="7.36637">
        <ele>2094.3</ele>
        <time>2017-08-26T11:38:32Z</time>
      </trkpt>
      <trkpt lat="44.102" lon="7.36657">
        <ele>2095.6</ele>
        <time>2017-08-26T11:38:47Z</time>
      </trkpt>
      <trkpt lat="44.10197" lon="7.36673">
        <ele>2097.3</ele>
        <time>2017-08-26T11:39:01Z</time>
      </trkpt>
      <trkpt lat="44.10198" lon="7.36683">
        <ele>2098.3</ele>
        <time>2017-08-26T11:39:15Z</time>
      </trkpt>
      <trkpt lat="44.10197" lon="7.36685">
        <ele>2098.6</ele>
        <time>2017-08-26T11:39:34Z</time>
      </trkpt>
      <trkpt lat="44.10197" lon="7.36685">
        <ele>2098.6</ele>
        <time>2017-08-26T11:39:54Z</time>
      </trkpt>
      <trkpt lat="44.10197" lon="7.36684">
        <ele>2098.5</ele>
        <time>2017-08-26T11:40:30Z</time>
      </trkpt>
      <trkpt lat="44.10197" lon="7.36684">
        <ele>2098.5</ele>
        <time>2017-08-26T11:40:57Z</time>
      </trkpt>
      <trkpt lat="44.10197" lon="7.36684">
        <ele>2098.5</ele>
        <time>2017-08-26T11:41:28Z</time>
      </trkpt>
      <trkpt lat="44.10195" lon="7.36692">
        <ele>2099.7</ele>
        <time>2017-08-26T11:41:44Z</time>
      </trkpt>
      <trkpt lat="44.10196" lon="7.367">
        <ele>2099.9</ele>
        <time>2017-08-26T11:42:00Z</time>
      </trkpt>
      <trkpt lat="44.10193" lon="7.36707">
        <ele>2100.7</ele>
        <time>2017-08-26T11:42:09Z</time>
      </trkpt>
      <trkpt lat="44.10187" lon="7.36706">
        <ele>2101.7</ele>
        <time>2017-08-26T11:42:22Z</time>
      </trkpt>
      <trkpt lat="44.10179" lon="7.36708">
        <ele>2103.2</ele>
        <time>2017-08-26T11:42:36Z</time>
      </trkpt>
      <trkpt lat="44.10175" lon="7.36711">
        <ele>2104.4</ele>
        <time>2017-08-26T11:42:46Z</time>
      </trkpt>
      <trkpt lat="44.10163" lon="7.36714">
        <ele>2106.8</ele>
        <time>2017-08-26T11:43:01Z</time>
      </trkpt>
      <trkpt lat="44.1016" lon="7.36716">
        <ele>2107.4</ele>
        <time>2017-08-26T11:43:16Z</time>
      </trkpt>
      <trkpt lat="44.10156" lon="7.36724">
        <ele>2109.2</ele>
        <time>2017-08-26T11:43:32Z</time>
      </trkpt>
      <trkpt lat="44.10152" lon="7.36729">
        <ele>2110</ele>
        <time>2017-08-26T11:43:45Z</time>
      </trkpt>
      <trkpt lat="44.10147" lon="7.36741">
        <ele>2111.6</ele>
        <time>2017-08-26T11:43:59Z</time>
      </trkpt>
      <trkpt lat="44.10147" lon="7.36744">
        <ele>2111.8</ele>
        <time>2017-08-26T11:44:01Z</time>
      </trkpt>
      <trkpt lat="44.10147" lon="7.36751">
        <ele>2112.3</ele>
        <time>2017-08-26T11:44:08Z</time>
      </trkpt>
      <trkpt lat="44.10139" lon="7.36765">
        <ele>2114.5</ele>
        <time>2017-08-26T11:44:24Z</time>
      </trkpt>
      <trkpt lat="44.10133" lon="7.3677">
        <ele>2116.5</ele>
        <time>2017-08-26T11:44:37Z</time>
      </trkpt>
      <trkpt lat="44.1013" lon="7.36781">
        <ele>2118.4</ele>
        <time>2017-08-26T11:44:50Z</time>
      </trkpt>
      <trkpt lat="44.10122" lon="7.36783">
        <ele>2121.3</ele>
        <time>2017-08-26T11:45:03Z</time>
      </trkpt>
      <trkpt lat="44.10122" lon="7.3679">
        <ele>2122.5</ele>
        <time>2017-08-26T11:45:16Z</time>
      </trkpt>
      <trkpt lat="44.10117" lon="7.36799">
        <ele>2125.8</ele>
        <time>2017-08-26T11:45:30Z</time>
      </trkpt>
      <trkpt lat="44.10117" lon="7.36813">
        <ele>2128.6</ele>
        <time>2017-08-26T11:45:47Z</time>
      </trkpt>
      <trkpt lat="44.10115" lon="7.36814">
        <ele>2129.6</ele>
        <time>2017-08-26T11:45:59Z</time>
      </trkpt>
      <trkpt lat="44.10116" lon="7.36822">
        <ele>2131.2</ele>
        <time>2017-08-26T11:46:10Z</time>
      </trkpt>
      <trkpt lat="44.10115" lon="7.36827">
        <ele>2132.8</ele>
        <time>2017-08-26T11:46:24Z</time>
      </trkpt>
      <trkpt lat="44.10112" lon="7.36834">
        <ele>2135.8</ele>
        <time>2017-08-26T11:46:38Z</time>
      </trkpt>
      <trkpt lat="44.10111" lon="7.36844">
        <ele>2138.4</ele>
        <time>2017-08-26T11:46:51Z</time>
      </trkpt>
      <trkpt lat="44.10113" lon="7.36853">
        <ele>2139.4</ele>
        <time>2017-08-26T11:47:05Z</time>
      </trkpt>
      <trkpt lat="44.1011" lon="7.36856">
        <ele>2141.5</ele>
        <time>2017-08-26T11:47:18Z</time>
      </trkpt>
      <trkpt lat="44.10108" lon="7.36867">
        <ele>2145.6</ele>
        <time>2017-08-26T11:47:32Z</time>
      </trkpt>
      <trkpt lat="44.10106" lon="7.36869">
        <ele>2147.3</ele>
        <time>2017-08-26T11:47:49Z</time>
      </trkpt>
      <trkpt lat="44.10102" lon="7.3687">
        <ele>2149.7</ele>
        <time>2017-08-26T11:48:04Z</time>
      </trkpt>
      <trkpt lat="44.10101" lon="7.36878">
        <ele>2152.4</ele>
        <time>2017-08-26T11:48:17Z</time>
      </trkpt>
      <trkpt lat="44.10095" lon="7.36877">
        <ele>2155.1</ele>
        <time>2017-08-26T11:48:32Z</time>
      </trkpt>
      <trkpt lat="44.10093" lon="7.36875">
        <ele>2155.6</ele>
        <time>2017-08-26T11:48:47Z</time>
      </trkpt>
      <trkpt lat="44.10086" lon="7.36872">
        <ele>2158.6</ele>
        <time>2017-08-26T11:49:02Z</time>
      </trkpt>
      <trkpt lat="44.1008" lon="7.3687">
        <ele>2161.1</ele>
        <time>2017-08-26T11:49:18Z</time>
      </trkpt>
      <trkpt lat="44.10075" lon="7.36864">
        <ele>2161.9</ele>
        <time>2017-08-26T11:49:35Z</time>
      </trkpt>
      <trkpt lat="44.1007" lon="7.36876">
        <ele>2167</ele>
        <time>2017-08-26T11:49:49Z</time>
      </trkpt>
      <trkpt lat="44.10068" lon="7.36886">
        <ele>2170.5</ele>
        <time>2017-08-26T11:50:03Z</time>
      </trkpt>
      <trkpt lat="44.10068" lon="7.36891">
        <ele>2171.9</ele>
        <time>2017-08-26T11:50:17Z</time>
      </trkpt>
      <trkpt lat="44.10067" lon="7.36897">
        <ele>2174.2</ele>
        <time>2017-08-26T11:50:30Z</time>
      </trkpt>
      <trkpt lat="44.10064" lon="7.36899">
        <ele>2176.3</ele>
        <time>2017-08-26T11:50:44Z</time>
      </trkpt>
      <trkpt lat="44.10059" lon="7.36903">
        <ele>2179.9</ele>
        <time>2017-08-26T11:50:58Z</time>
      </trkpt>
      <trkpt lat="44.1006" lon="7.36912">
        <ele>2181.8</ele>
        <time>2017-08-26T11:51:14Z</time>
      </trkpt>
      <trkpt lat="44.10063" lon="7.36923">
        <ele>2183.8</ele>
        <time>2017-08-26T11:51:29Z</time>
      </trkpt>
      <trkpt lat="44.10063" lon="7.36924">
        <ele>2184.1</ele>
        <time>2017-08-26T11:51:42Z</time>
      </trkpt>
      <trkpt lat="44.10063" lon="7.36924">
        <ele>2184.1</ele>
        <time>2017-08-26T11:52:06Z</time>
      </trkpt>
      <trkpt lat="44.10063" lon="7.36923">
        <ele>2183.8</ele>
        <time>2017-08-26T11:52:37Z</time>
      </trkpt>
      <trkpt lat="44.10064" lon="7.36922">
        <ele>2183</ele>
        <time>2017-08-26T11:53:04Z</time>
      </trkpt>
      <trkpt lat="44.10064" lon="7.36922">
        <ele>2183</ele>
        <time>2017-08-26T11:53:33Z</time>
      </trkpt>
      <trkpt lat="44.10066" lon="7.36925">
        <ele>2183.1</ele>
        <time>2017-08-26T11:54:01Z</time>
      </trkpt>
      <trkpt lat="44.10069" lon="7.3693">
        <ele>2183.3</ele>
        <time>2017-08-26T11:54:13Z</time>
      </trkpt>
      <trkpt lat="44.1007" lon="7.3694">
        <ele>2185.9</ele>
        <time>2017-08-26T11:54:27Z</time>
      </trkpt>
      <trkpt lat="44.1007" lon="7.36949">
        <ele>2189.3</ele>
        <time>2017-08-26T11:54:43Z</time>
      </trkpt>
      <trkpt lat="44.10071" lon="7.36956">
        <ele>2191.8</ele>
        <time>2017-08-26T11:54:56Z</time>
      </trkpt>
      <trkpt lat="44.10071" lon="7.36964">
        <ele>2195.2</ele>
        <time>2017-08-26T11:55:08Z</time>
      </trkpt>
      <trkpt lat="44.10073" lon="7.36971">
        <ele>2196.7</ele>
        <time>2017-08-26T11:55:14Z</time>
      </trkpt>
      <trkpt lat="44.10074" lon="7.36972">
        <ele>2196.3</ele>
        <time>2017-08-26T11:55:16Z</time>
      </trkpt>
      <trkpt lat="44.10079" lon="7.36983">
        <ele>2197.1</ele>
        <time>2017-08-26T11:55:30Z</time>
      </trkpt>
      <trkpt lat="44.10081" lon="7.36989">
        <ele>2197.8</ele>
        <time>2017-08-26T11:55:36Z</time>
      </trkpt>
      <trkpt lat="44.10087" lon="7.36998">
        <ele>2196.6</ele>
        <time>2017-08-26T11:55:49Z</time>
      </trkpt>
      <trkpt lat="44.10091" lon="7.37006">
        <ele>2196.9</ele>
        <time>2017-08-26T11:56:01Z</time>
      </trkpt>
      <trkpt lat="44.10092" lon="7.3701">
        <ele>2197.7</ele>
        <time>2017-08-26T11:56:15Z</time>
      </trkpt>
      <trkpt lat="44.10092" lon="7.3701">
        <ele>2197.7</ele>
        <time>2017-08-26T11:56:30Z</time>
      </trkpt>
      <trkpt lat="44.10092" lon="7.3701">
        <ele>2197.7</ele>
        <time>2017-08-26T11:56:44Z</time>
      </trkpt>
      <trkpt lat="44.10092" lon="7.37012">
        <ele>2198.5</ele>
        <time>2017-08-26T11:56:58Z</time>
      </trkpt>
      <trkpt lat="44.10091" lon="7.37018">
        <ele>2201.7</ele>
        <time>2017-08-26T11:57:26Z</time>
      </trkpt>
      <trkpt lat="44.1009" lon="7.37023">
        <ele>2204.5</ele>
        <time>2017-08-26T11:57:40Z</time>
      </trkpt>
      <trkpt lat="44.1009" lon="7.37023">
        <ele>2204.5</ele>
        <time>2017-08-26T11:57:53Z</time>
      </trkpt>
      <trkpt lat="44.1009" lon="7.3703">
        <ele>2207.3</ele>
        <time>2017-08-26T11:58:03Z</time>
      </trkpt>
      <trkpt lat="44.1009" lon="7.37037">
        <ele>2210.1</ele>
        <time>2017-08-26T11:58:07Z</time>
      </trkpt>
      <trkpt lat="44.10093" lon="7.37051">
        <ele>2212.9</ele>
        <time>2017-08-26T11:58:14Z</time>
      </trkpt>
      <trkpt lat="44.10091" lon="7.37064">
        <ele>2219.5</ele>
        <time>2017-08-26T11:58:21Z</time>
      </trkpt>
      <trkpt lat="44.10094" lon="7.37077">
        <ele>2221.4</ele>
        <time>2017-08-26T11:58:35Z</time>
      </trkpt>
      <trkpt lat="44.10094" lon="7.37077">
        <ele>2221.4</ele>
        <time>2017-08-26T11:58:48Z</time>
      </trkpt>
      <trkpt lat="44.10094" lon="7.37077">
        <ele>2221.4</ele>
        <time>2017-08-26T11:59:04Z</time>
      </trkpt>
      <trkpt lat="44.10094" lon="7.37078">
        <ele>2221.7</ele>
        <time>2017-08-26T11:59:16Z</time>
      </trkpt>
      <trkpt lat="44.10094" lon="7.37078">
        <ele>2221.7</ele>
        <time>2017-08-26T11:59:31Z</time>
      </trkpt>
      <trkpt lat="44.10094" lon="7.37078">
        <ele>2221.7</ele>
        <time>2017-08-26T11:59:44Z</time>
      </trkpt>
      <trkpt lat="44.10094" lon="7.37083">
        <ele>2223.5</ele>
        <time>2017-08-26T11:59:57Z</time>
      </trkpt>
      <trkpt lat="44.10094" lon="7.37085">
        <ele>2224</ele>
        <time>2017-08-26T12:00:10Z</time>
      </trkpt>
      <trkpt lat="44.10096" lon="7.37107">
        <ele>2226.4</ele>
        <time>2017-08-26T12:00:18Z</time>
      </trkpt>
      <trkpt lat="44.10093" lon="7.37126">
        <ele>2232.4</ele>
        <time>2017-08-26T12:00:30Z</time>
      </trkpt>
      <trkpt lat="44.10092" lon="7.37138">
        <ele>2235.1</ele>
        <time>2017-08-26T12:00:43Z</time>
      </trkpt>
      <trkpt lat="44.10092" lon="7.37142">
        <ele>2235.7</ele>
        <time>2017-08-26T12:00:55Z</time>
      </trkpt>
      <trkpt lat="44.10092" lon="7.37141">
        <ele>2235.6</ele>
        <time>2017-08-26T12:01:09Z</time>
      </trkpt>
      <trkpt lat="44.10093" lon="7.3715">
        <ele>2235.9</ele>
        <time>2017-08-26T12:01:22Z</time>
      </trkpt>
      <trkpt lat="44.10093" lon="7.37161">
        <ele>2237.5</ele>
        <time>2017-08-26T12:01:32Z</time>
      </trkpt>
      <trkpt lat="44.1009" lon="7.37175">
        <ele>2242</ele>
        <time>2017-08-26T12:01:44Z</time>
      </trkpt>
      <trkpt lat="44.1009" lon="7.37174">
        <ele>2241.8</ele>
        <time>2017-08-26T12:01:58Z</time>
      </trkpt>
      <trkpt lat="44.10094" lon="7.37202">
        <ele>2242.6</ele>
        <time>2017-08-26T12:02:12Z</time>
      </trkpt>
      <trkpt lat="44.10096" lon="7.37223">
        <ele>2244.9</ele>
        <time>2017-08-26T12:02:23Z</time>
      </trkpt>
      <trkpt lat="44.10096" lon="7.37236">
        <ele>2247.5</ele>
        <time>2017-08-26T12:02:30Z</time>
      </trkpt>
      <trkpt lat="44.10096" lon="7.37248">
        <ele>2249.9</ele>
        <time>2017-08-26T12:02:41Z</time>
      </trkpt>
      <trkpt lat="44.10103" lon="7.37273">
        <ele>2249.8</ele>
        <time>2017-08-26T12:02:54Z</time>
      </trkpt>
      <trkpt lat="44.10108" lon="7.37282">
        <ele>2247.9</ele>
        <time>2017-08-26T12:03:07Z</time>
      </trkpt>
      <trkpt lat="44.10108" lon="7.37282">
        <ele>2247.9</ele>
        <time>2017-08-26T12:03:08Z</time>
      </trkpt>
      <trkpt lat="44.10108" lon="7.37286">
        <ele>2248.6</ele>
        <time>2017-08-26T12:03:16Z</time>
      </trkpt>
      <trkpt lat="44.10105" lon="7.37288">
        <ele>2250.9</ele>
        <time>2017-08-26T12:03:30Z</time>
      </trkpt>
      <trkpt lat="44.10105" lon="7.37288">
        <ele>2250.9</ele>
        <time>2017-08-26T12:03:53Z</time>
      </trkpt>
      <trkpt lat="44.10106" lon="7.37289">
        <ele>2250.4</ele>
        <time>2017-08-26T12:04:10Z</time>
      </trkpt>
      <trkpt lat="44.10106" lon="7.37289">
        <ele>2250.4</ele>
        <time>2017-08-26T12:04:34Z</time>
      </trkpt>
      <trkpt lat="44.10107" lon="7.37291">
        <ele>2250.1</ele>
        <time>2017-08-26T12:05:00Z</time>
      </trkpt>
      <trkpt lat="44.10108" lon="7.37295">
        <ele>2250.2</ele>
        <time>2017-08-26T12:05:15Z</time>
      </trkpt>
      <trkpt lat="44.10108" lon="7.37295">
        <ele>2250.2</ele>
        <time>2017-08-26T12:05:26Z</time>
      </trkpt>
      <trkpt lat="44.10107" lon="7.37296">
        <ele>2251</ele>
        <time>2017-08-26T12:05:44Z</time>
      </trkpt>
      <trkpt lat="44.10108" lon="7.37303">
        <ele>2251.6</ele>
        <time>2017-08-26T12:05:58Z</time>
      </trkpt>
      <trkpt lat="44.10111" lon="7.37306">
        <ele>2250.1</ele>
        <time>2017-08-26T12:06:06Z</time>
      </trkpt>
      <trkpt lat="44.10111" lon="7.37305">
        <ele>2250</ele>
        <time>2017-08-26T12:06:18Z</time>
      </trkpt>
      <trkpt lat="44.10111" lon="7.37305">
        <ele>2250</ele>
        <time>2017-08-26T12:06:31Z</time>
      </trkpt>
      <trkpt lat="44.10112" lon="7.37309">
        <ele>2250.1</ele>
        <time>2017-08-26T12:06:45Z</time>
      </trkpt>
      <trkpt lat="44.10117" lon="7.37325">
        <ele>2250.3</ele>
        <time>2017-08-26T12:06:58Z</time>
      </trkpt>
      <trkpt lat="44.10117" lon="7.37325">
        <ele>2250.3</ele>
        <time>2017-08-26T12:07:11Z</time>
      </trkpt>
      <trkpt lat="44.10117" lon="7.37325">
        <ele>2250.3</ele>
        <time>2017-08-26T12:07:27Z</time>
      </trkpt>
      <trkpt lat="44.10126" lon="7.37337">
        <ele>2249</ele>
        <time>2017-08-26T12:07:39Z</time>
      </trkpt>
      <trkpt lat="44.10141" lon="7.37364">
        <ele>2251.5</ele>
        <time>2017-08-26T12:07:50Z</time>
      </trkpt>
      <trkpt lat="44.10156" lon="7.37396">
        <ele>2259.6</ele>
        <time>2017-08-26T12:08:01Z</time>
      </trkpt>
      <trkpt lat="44.10163" lon="7.37411">
        <ele>2263.7</ele>
        <time>2017-08-26T12:08:11Z</time>
      </trkpt>
      <trkpt lat="44.10164" lon="7.37415">
        <ele>2265</ele>
        <time>2017-08-26T12:08:21Z</time>
      </trkpt>
      <trkpt lat="44.10167" lon="7.37421">
        <ele>2267</ele>
        <time>2017-08-26T12:08:33Z</time>
      </trkpt>
      <trkpt lat="44.10167" lon="7.37421">
        <ele>2267</ele>
        <time>2017-08-26T12:08:46Z</time>
      </trkpt>
      <trkpt lat="44.10167" lon="7.37421">
        <ele>2267</ele>
        <time>2017-08-26T12:09:00Z</time>
      </trkpt>
      <trkpt lat="44.1017" lon="7.37425">
        <ele>2268.4</ele>
        <time>2017-08-26T12:09:08Z</time>
      </trkpt>
      <trkpt lat="44.10185" lon="7.37439">
        <ele>2272.8</ele>
        <time>2017-08-26T12:09:21Z</time>
      </trkpt>
      <trkpt lat="44.10192" lon="7.37446">
        <ele>2274.9</ele>
        <time>2017-08-26T12:09:31Z</time>
      </trkpt>
      <trkpt lat="44.10195" lon="7.37449">
        <ele>2275.4</ele>
        <time>2017-08-26T12:09:45Z</time>
      </trkpt>
      <trkpt lat="44.10203" lon="7.37457">
        <ele>2276.4</ele>
        <time>2017-08-26T12:10:01Z</time>
      </trkpt>
      <trkpt lat="44.10206" lon="7.37463">
        <ele>2277.7</ele>
        <time>2017-08-26T12:10:14Z</time>
      </trkpt>
      <trkpt lat="44.10206" lon="7.37463">
        <ele>2277.7</ele>
        <time>2017-08-26T12:10:22Z</time>
      </trkpt>
      <trkpt lat="44.10209" lon="7.37469">
        <ele>2278.9</ele>
        <time>2017-08-26T12:10:35Z</time>
      </trkpt>
      <trkpt lat="44.10214" lon="7.37475">
        <ele>2278.8</ele>
        <time>2017-08-26T12:10:47Z</time>
      </trkpt>
      <trkpt lat="44.10216" lon="7.37481">
        <ele>2278.3</ele>
        <time>2017-08-26T12:10:58Z</time>
      </trkpt>
      <trkpt lat="44.10216" lon="7.37481">
        <ele>2278.3</ele>
        <time>2017-08-26T12:11:13Z</time>
      </trkpt>
      <trkpt lat="44.10217" lon="7.37484">
        <ele>2278</ele>
        <time>2017-08-26T12:11:28Z</time>
      </trkpt>
      <trkpt lat="44.10219" lon="7.37489">
        <ele>2277.4</ele>
        <time>2017-08-26T12:11:42Z</time>
      </trkpt>
      <trkpt lat="44.10225" lon="7.37507">
        <ele>2273.5</ele>
        <time>2017-08-26T12:11:57Z</time>
      </trkpt>
      <trkpt lat="44.10225" lon="7.37507">
        <ele>2273.5</ele>
        <time>2017-08-26T12:12:08Z</time>
      </trkpt>
      <trkpt lat="44.10227" lon="7.37515">
        <ele>2271.1</ele>
        <time>2017-08-26T12:12:21Z</time>
      </trkpt>
      <trkpt lat="44.10225" lon="7.3753">
        <ele>2269.8</ele>
        <time>2017-08-26T12:12:36Z</time>
      </trkpt>
      <trkpt lat="44.10225" lon="7.37531">
        <ele>2270</ele>
        <time>2017-08-26T12:12:48Z</time>
      </trkpt>
      <trkpt lat="44.10225" lon="7.37533">
        <ele>2270.6</ele>
        <time>2017-08-26T12:13:22Z</time>
      </trkpt>
      <trkpt lat="44.10225" lon="7.37533">
        <ele>2270.6</ele>
        <time>2017-08-26T12:13:55Z</time>
      </trkpt>
      <trkpt lat="44.10226" lon="7.37534">
        <ele>2270.6</ele>
        <time>2017-08-26T12:14:19Z</time>
      </trkpt>
      <trkpt lat="44.10226" lon="7.37545">
        <ele>2273.5</ele>
        <time>2017-08-26T12:14:36Z</time>
      </trkpt>
      <trkpt lat="44.10226" lon="7.3756">
        <ele>2277.5</ele>
        <time>2017-08-26T12:14:49Z</time>
      </trkpt>
      <trkpt lat="44.10226" lon="7.37567">
        <ele>2279.4</ele>
        <time>2017-08-26T12:15:05Z</time>
      </trkpt>
      <trkpt lat="44.10226" lon="7.37578">
        <ele>2282.3</ele>
        <time>2017-08-26T12:15:17Z</time>
      </trkpt>
      <trkpt lat="44.10228" lon="7.37586">
        <ele>2284</ele>
        <time>2017-08-26T12:15:31Z</time>
      </trkpt>
      <trkpt lat="44.10231" lon="7.37596">
        <ele>2285.6</ele>
        <time>2017-08-26T12:15:46Z</time>
      </trkpt>
      <trkpt lat="44.10234" lon="7.37609">
        <ele>2288</ele>
        <time>2017-08-26T12:16:01Z</time>
      </trkpt>
      <trkpt lat="44.10236" lon="7.37614">
        <ele>2288.9</ele>
        <time>2017-08-26T12:16:14Z</time>
      </trkpt>
      <trkpt lat="44.10238" lon="7.37618">
        <ele>2289.5</ele>
        <time>2017-08-26T12:16:29Z</time>
      </trkpt>
      <trkpt lat="44.10236" lon="7.37627">
        <ele>2290.5</ele>
        <time>2017-08-26T12:16:41Z</time>
      </trkpt>
      <trkpt lat="44.1024" lon="7.37644">
        <ele>2292.9</ele>
        <time>2017-08-26T12:16:54Z</time>
      </trkpt>
      <trkpt lat="44.10246" lon="7.37654">
        <ele>2294.8</ele>
        <time>2017-08-26T12:17:04Z</time>
      </trkpt>
      <trkpt lat="44.10248" lon="7.37667">
        <ele>2296.9</ele>
        <time>2017-08-26T12:17:17Z</time>
      </trkpt>
      <trkpt lat="44.10248" lon="7.37668">
        <ele>2297.1</ele>
        <time>2017-08-26T12:17:18Z</time>
      </trkpt>
      <trkpt lat="44.10246" lon="7.3768">
        <ele>2299.3</ele>
        <time>2017-08-26T12:17:31Z</time>
      </trkpt>
      <trkpt lat="44.10247" lon="7.37689">
        <ele>2301.3</ele>
        <time>2017-08-26T12:17:44Z</time>
      </trkpt>
      <trkpt lat="44.10246" lon="7.37701">
        <ele>2303.9</ele>
        <time>2017-08-26T12:17:57Z</time>
      </trkpt>
      <trkpt lat="44.10242" lon="7.37713">
        <ele>2306.2</ele>
        <time>2017-08-26T12:18:11Z</time>
      </trkpt>
      <trkpt lat="44.10244" lon="7.37721">
        <ele>2308.6</ele>
        <time>2017-08-26T12:18:25Z</time>
      </trkpt>
      <trkpt lat="44.10242" lon="7.37729">
        <ele>2310.8</ele>
        <time>2017-08-26T12:18:39Z</time>
      </trkpt>
      <trkpt lat="44.10241" lon="7.37732">
        <ele>2311.5</ele>
        <time>2017-08-26T12:18:54Z</time>
      </trkpt>
      <trkpt lat="44.1024" lon="7.37734">
        <ele>2312</ele>
        <time>2017-08-26T12:19:11Z</time>
      </trkpt>
      <trkpt lat="44.10242" lon="7.37732">
        <ele>2311.7</ele>
        <time>2017-08-26T12:19:32Z</time>
      </trkpt>
      <trkpt lat="44.10242" lon="7.37732">
        <ele>2311.7</ele>
        <time>2017-08-26T12:19:56Z</time>
      </trkpt>
      <trkpt lat="44.1024" lon="7.37734">
        <ele>2312</ele>
        <time>2017-08-26T12:20:06Z</time>
      </trkpt>
      <trkpt lat="44.1024" lon="7.37734">
        <ele>2312</ele>
        <time>2017-08-26T12:20:26Z</time>
      </trkpt>
      <trkpt lat="44.10242" lon="7.37733">
        <ele>2312.1</ele>
        <time>2017-08-26T12:20:38Z</time>
      </trkpt>
      <trkpt lat="44.10241" lon="7.37736">
        <ele>2312.8</ele>
        <time>2017-08-26T12:20:49Z</time>
      </trkpt>
      <trkpt lat="44.10241" lon="7.37737">
        <ele>2313.2</ele>
        <time>2017-08-26T12:21:07Z</time>
      </trkpt>
      <trkpt lat="44.10241" lon="7.37737">
        <ele>2313.2</ele>
        <time>2017-08-26T12:21:27Z</time>
      </trkpt>
      <trkpt lat="44.10241" lon="7.37737">
        <ele>2313.2</ele>
        <time>2017-08-26T12:21:51Z</time>
      </trkpt>
      <trkpt lat="44.1024" lon="7.37739">
        <ele>2313.6</ele>
        <time>2017-08-26T12:22:08Z</time>
      </trkpt>
      <trkpt lat="44.10242" lon="7.37743">
        <ele>2315.3</ele>
        <time>2017-08-26T12:22:25Z</time>
      </trkpt>
      <trkpt lat="44.10241" lon="7.3775">
        <ele>2317.4</ele>
        <time>2017-08-26T12:22:41Z</time>
      </trkpt>
      <trkpt lat="44.10239" lon="7.37755">
        <ele>2318.4</ele>
        <time>2017-08-26T12:23:04Z</time>
      </trkpt>
      <trkpt lat="44.10237" lon="7.37758">
        <ele>2318.8</ele>
        <time>2017-08-26T12:23:19Z</time>
      </trkpt>
      <trkpt lat="44.10246" lon="7.3777">
        <ele>2323.4</ele>
        <time>2017-08-26T12:23:33Z</time>
      </trkpt>
      <trkpt lat="44.10245" lon="7.37781">
        <ele>2326.1</ele>
        <time>2017-08-26T12:23:46Z</time>
      </trkpt>
      <trkpt lat="44.10247" lon="7.37791">
        <ele>2329</ele>
        <time>2017-08-26T12:24:00Z</time>
      </trkpt>
      <trkpt lat="44.10247" lon="7.37802">
        <ele>2331.8</ele>
        <time>2017-08-26T12:24:12Z</time>
      </trkpt>
      <trkpt lat="44.10248" lon="7.37812">
        <ele>2334.2</ele>
        <time>2017-08-26T12:24:24Z</time>
      </trkpt>
      <trkpt lat="44.10251" lon="7.37824">
        <ele>2337.3</ele>
        <time>2017-08-26T12:24:41Z</time>
      </trkpt>
      <trkpt lat="44.1025" lon="7.37833">
        <ele>2338.9</ele>
        <time>2017-08-26T12:24:54Z</time>
      </trkpt>
      <trkpt lat="44.10251" lon="7.37843">
        <ele>2341.7</ele>
        <time>2017-08-26T12:25:10Z</time>
      </trkpt>
      <trkpt lat="44.10251" lon="7.37853">
        <ele>2344.2</ele>
        <time>2017-08-26T12:25:28Z</time>
      </trkpt>
      <trkpt lat="44.10246" lon="7.37866">
        <ele>2347.3</ele>
        <time>2017-08-26T12:25:44Z</time>
      </trkpt>
      <trkpt lat="44.10249" lon="7.37875">
        <ele>2349.5</ele>
        <time>2017-08-26T12:26:00Z</time>
      </trkpt>
      <trkpt lat="44.10247" lon="7.37885">
        <ele>2352.2</ele>
        <time>2017-08-26T12:26:12Z</time>
      </trkpt>
      <trkpt lat="44.10251" lon="7.37892">
        <ele>2353.8</ele>
        <time>2017-08-26T12:26:28Z</time>
      </trkpt>
      <trkpt lat="44.10251" lon="7.37894">
        <ele>2354.3</ele>
        <time>2017-08-26T12:26:41Z</time>
      </trkpt>
      <trkpt lat="44.10251" lon="7.37894">
        <ele>2354.3</ele>
        <time>2017-08-26T12:27:09Z</time>
      </trkpt>
      <trkpt lat="44.10251" lon="7.37892">
        <ele>2353.8</ele>
        <time>2017-08-26T12:27:35Z</time>
      </trkpt>
      <trkpt lat="44.10253" lon="7.3789">
        <ele>2353.8</ele>
        <time>2017-08-26T12:27:55Z</time>
      </trkpt>
      <trkpt lat="44.10251" lon="7.3789">
        <ele>2353.4</ele>
        <time>2017-08-26T12:28:17Z</time>
      </trkpt>
      <trkpt lat="44.10251" lon="7.3789">
        <ele>2353.4</ele>
        <time>2017-08-26T12:28:41Z</time>
      </trkpt>
      <trkpt lat="44.10249" lon="7.3789">
        <ele>2353.3</ele>
        <time>2017-08-26T12:29:09Z</time>
      </trkpt>
      <trkpt lat="44.10249" lon="7.3789">
        <ele>2353.3</ele>
        <time>2017-08-26T12:29:36Z</time>
      </trkpt>
      <trkpt lat="44.10249" lon="7.37889">
        <ele>2353.1</ele>
        <time>2017-08-26T12:29:54Z</time>
      </trkpt>
      <trkpt lat="44.10249" lon="7.37889">
        <ele>2353.1</ele>
        <time>2017-08-26T12:30:13Z</time>
      </trkpt>
      <trkpt lat="44.10248" lon="7.3789">
        <ele>2353.4</ele>
        <time>2017-08-26T12:30:37Z</time>
      </trkpt>
      <trkpt lat="44.10249" lon="7.3789">
        <ele>2353.3</ele>
        <time>2017-08-26T12:30:57Z</time>
      </trkpt>
      <trkpt lat="44.10248" lon="7.37889">
        <ele>2353.2</ele>
        <time>2017-08-26T12:31:15Z</time>
      </trkpt>
      <trkpt lat="44.10248" lon="7.37894">
        <ele>2354.3</ele>
        <time>2017-08-26T12:31:26Z</time>
      </trkpt>
      <trkpt lat="44.10249" lon="7.37899">
        <ele>2355.3</ele>
        <time>2017-08-26T12:31:31Z</time>
      </trkpt>
      <trkpt lat="44.10246" lon="7.37912">
        <ele>2358.6</ele>
        <time>2017-08-26T12:31:44Z</time>
      </trkpt>
      <trkpt lat="44.10249" lon="7.37929">
        <ele>2361.9</ele>
        <time>2017-08-26T12:31:59Z</time>
      </trkpt>
      <trkpt lat="44.10249" lon="7.37942">
        <ele>2364.7</ele>
        <time>2017-08-26T12:32:15Z</time>
      </trkpt>
      <trkpt lat="44.10254" lon="7.37939">
        <ele>2363.9</ele>
        <time>2017-08-26T12:32:29Z</time>
      </trkpt>
      <trkpt lat="44.10262" lon="7.37934">
        <ele>2363.2</ele>
        <time>2017-08-26T12:32:44Z</time>
      </trkpt>
      <trkpt lat="44.10273" lon="7.37937">
        <ele>2364.1</ele>
        <time>2017-08-26T12:32:59Z</time>
      </trkpt>
      <trkpt lat="44.10276" lon="7.37946">
        <ele>2365.1</ele>
        <time>2017-08-26T12:33:16Z</time>
      </trkpt>
      <trkpt lat="44.10285" lon="7.37956">
        <ele>2368.1</ele>
        <time>2017-08-26T12:33:30Z</time>
      </trkpt>
      <trkpt lat="44.1029" lon="7.3797">
        <ele>2370</ele>
        <time>2017-08-26T12:33:46Z</time>
      </trkpt>
      <trkpt lat="44.10292" lon="7.37975">
        <ele>2370.7</ele>
        <time>2017-08-26T12:33:53Z</time>
      </trkpt>
      <trkpt lat="44.10296" lon="7.37984">
        <ele>2372.2</ele>
        <time>2017-08-26T12:34:06Z</time>
      </trkpt>
      <trkpt lat="44.10296" lon="7.38">
        <ele>2372.9</ele>
        <time>2017-08-26T12:34:21Z</time>
      </trkpt>
      <trkpt lat="44.10296" lon="7.38014">
        <ele>2373.8</ele>
        <time>2017-08-26T12:34:36Z</time>
      </trkpt>
      <trkpt lat="44.10295" lon="7.38025">
        <ele>2374.2</ele>
        <time>2017-08-26T12:34:49Z</time>
      </trkpt>
      <trkpt lat="44.10294" lon="7.38035">
        <ele>2374.6</ele>
        <time>2017-08-26T12:35:03Z</time>
      </trkpt>
      <trkpt lat="44.10294" lon="7.38036">
        <ele>2374.6</ele>
        <time>2017-08-26T12:35:04Z</time>
      </trkpt>
      <trkpt lat="44.10286" lon="7.3806">
        <ele>2374.8</ele>
        <time>2017-08-26T12:35:21Z</time>
      </trkpt>
      <trkpt lat="44.10284" lon="7.38072">
        <ele>2375.4</ele>
        <time>2017-08-26T12:35:34Z</time>
      </trkpt>
      <trkpt lat="44.10274" lon="7.38076">
        <ele>2374.3</ele>
        <time>2017-08-26T12:35:47Z</time>
      </trkpt>
      <trkpt lat="44.10267" lon="7.38086">
        <ele>2375</ele>
        <time>2017-08-26T12:36:01Z</time>
      </trkpt>
      <trkpt lat="44.10261" lon="7.38097">
        <ele>2376.1</ele>
        <time>2017-08-26T12:36:15Z</time>
      </trkpt>
      <trkpt lat="44.1026" lon="7.38101">
        <ele>2376.5</ele>
        <time>2017-08-26T12:36:18Z</time>
      </trkpt>
      <trkpt lat="44.10258" lon="7.38102">
        <ele>2376.5</ele>
        <time>2017-08-26T12:36:30Z</time>
      </trkpt>
      <trkpt lat="44.10258" lon="7.38102">
        <ele>2376.5</ele>
        <time>2017-08-26T12:36:34Z</time>
      </trkpt>
      <trkpt lat="44.10251" lon="7.38113">
        <ele>2377.4</ele>
        <time>2017-08-26T12:36:47Z</time>
      </trkpt>
      <trkpt lat="44.10246" lon="7.38116">
        <ele>2378.4</ele>
        <time>2017-08-26T12:36:56Z</time>
      </trkpt>
      <trkpt lat="44.10239" lon="7.3812">
        <ele>2380.1</ele>
        <time>2017-08-26T12:37:08Z</time>
      </trkpt>
      <trkpt lat="44.10239" lon="7.38119">
        <ele>2379.9</ele>
        <time>2017-08-26T12:37:10Z</time>
      </trkpt>
      <trkpt lat="44.10225" lon="7.38124">
        <ele>2382.5</ele>
        <time>2017-08-26T12:37:24Z</time>
      </trkpt>
      <trkpt lat="44.10214" lon="7.38124">
        <ele>2385.8</ele>
        <time>2017-08-26T12:37:39Z</time>
      </trkpt>
      <trkpt lat="44.10211" lon="7.38129">
        <ele>2387.5</ele>
        <time>2017-08-26T12:37:47Z</time>
      </trkpt>
      <trkpt lat="44.10212" lon="7.38142">
        <ele>2388.9</ele>
        <time>2017-08-26T12:37:59Z</time>
      </trkpt>
      <trkpt lat="44.10207" lon="7.38154">
        <ele>2392.6</ele>
        <time>2017-08-26T12:38:15Z</time>
      </trkpt>
      <trkpt lat="44.10204" lon="7.38158">
        <ele>2394.1</ele>
        <time>2017-08-26T12:38:30Z</time>
      </trkpt>
      <trkpt lat="44.10201" lon="7.38154">
        <ele>2394.3</ele>
        <time>2017-08-26T12:38:41Z</time>
      </trkpt>
      <trkpt lat="44.10195" lon="7.38165">
        <ele>2397.6</ele>
        <time>2017-08-26T12:38:53Z</time>
      </trkpt>
      <trkpt lat="44.10196" lon="7.38175">
        <ele>2398.9</ele>
        <time>2017-08-26T12:39:07Z</time>
      </trkpt>
      <trkpt lat="44.10191" lon="7.38181">
        <ele>2401.5</ele>
        <time>2017-08-26T12:39:19Z</time>
      </trkpt>
      <trkpt lat="44.10189" lon="7.38187">
        <ele>2403.2</ele>
        <time>2017-08-26T12:39:32Z</time>
      </trkpt>
      <trkpt lat="44.10189" lon="7.38189">
        <ele>2403.4</ele>
        <time>2017-08-26T12:39:45Z</time>
      </trkpt>
      <trkpt lat="44.1019" lon="7.38195">
        <ele>2403.9</ele>
        <time>2017-08-26T12:40:00Z</time>
      </trkpt>
      <trkpt lat="44.10189" lon="7.38197">
        <ele>2404.7</ele>
        <time>2017-08-26T12:40:18Z</time>
      </trkpt>
      <trkpt lat="44.10186" lon="7.38203">
        <ele>2406.9</ele>
        <time>2017-08-26T12:40:33Z</time>
      </trkpt>
      <trkpt lat="44.10189" lon="7.38206">
        <ele>2406.4</ele>
        <time>2017-08-26T12:40:48Z</time>
      </trkpt>
      <trkpt lat="44.10187" lon="7.38214">
        <ele>2408.6</ele>
        <time>2017-08-26T12:41:02Z</time>
      </trkpt>
      <trkpt lat="44.10188" lon="7.38216">
        <ele>2408.7</ele>
        <time>2017-08-26T12:41:16Z</time>
      </trkpt>
      <trkpt lat="44.10186" lon="7.38215">
        <ele>2409.1</ele>
        <time>2017-08-26T12:41:25Z</time>
      </trkpt>
      <trkpt lat="44.10177" lon="7.38223">
        <ele>2413.2</ele>
        <time>2017-08-26T12:41:40Z</time>
      </trkpt>
      <trkpt lat="44.10178" lon="7.3823">
        <ele>2414.3</ele>
        <time>2017-08-26T12:41:55Z</time>
      </trkpt>
      <trkpt lat="44.10179" lon="7.38237">
        <ele>2415.3</ele>
        <time>2017-08-26T12:42:10Z</time>
      </trkpt>
      <trkpt lat="44.10179" lon="7.3824">
        <ele>2415.9</ele>
        <time>2017-08-26T12:42:22Z</time>
      </trkpt>
      <trkpt lat="44.10178" lon="7.38254">
        <ele>2419.1</ele>
        <time>2017-08-26T12:42:35Z</time>
      </trkpt>
      <trkpt lat="44.10176" lon="7.38259">
        <ele>2420.7</ele>
        <time>2017-08-26T12:42:52Z</time>
      </trkpt>
      <trkpt lat="44.10176" lon="7.38262">
        <ele>2421.4</ele>
        <time>2017-08-26T12:43:07Z</time>
      </trkpt>
      <trkpt lat="44.10177" lon="7.38264">
        <ele>2421.6</ele>
        <time>2017-08-26T12:43:20Z</time>
      </trkpt>
      <trkpt lat="44.10177" lon="7.38264">
        <ele>2421.6</ele>
        <time>2017-08-26T12:43:23Z</time>
      </trkpt>
      <trkpt lat="44.10175" lon="7.38266">
        <ele>2422.5</ele>
        <time>2017-08-26T12:43:36Z</time>
      </trkpt>
      <trkpt lat="44.10175" lon="7.38266">
        <ele>2422.5</ele>
        <time>2017-08-26T12:43:39Z</time>
      </trkpt>
      <trkpt lat="44.10175" lon="7.38269">
        <ele>2423.2</ele>
        <time>2017-08-26T12:43:41Z</time>
      </trkpt>
      <trkpt lat="44.10173" lon="7.38285">
        <ele>2427.5</ele>
        <time>2017-08-26T12:43:55Z</time>
      </trkpt>
      <trkpt lat="44.10174" lon="7.38292">
        <ele>2429</ele>
        <time>2017-08-26T12:43:59Z</time>
      </trkpt>
      <trkpt lat="44.10172" lon="7.38305">
        <ele>2432.7</ele>
        <time>2017-08-26T12:44:12Z</time>
      </trkpt>
      <trkpt lat="44.1017" lon="7.3831">
        <ele>2434.4</ele>
        <time>2017-08-26T12:44:23Z</time>
      </trkpt>
      <trkpt lat="44.10169" lon="7.38317">
        <ele>2436.4</ele>
        <time>2017-08-26T12:44:31Z</time>
      </trkpt>
      <trkpt lat="44.10165" lon="7.38321">
        <ele>2438.4</ele>
        <time>2017-08-26T12:44:43Z</time>
      </trkpt>
      <trkpt lat="44.10166" lon="7.38334">
        <ele>2441.4</ele>
        <time>2017-08-26T12:44:55Z</time>
      </trkpt>
      <trkpt lat="44.10167" lon="7.3834">
        <ele>2442.6</ele>
        <time>2017-08-26T12:44:59Z</time>
      </trkpt>
      <trkpt lat="44.10167" lon="7.38343">
        <ele>2443.4</ele>
        <time>2017-08-26T12:45:13Z</time>
      </trkpt>
      <trkpt lat="44.10162" lon="7.38353">
        <ele>2447.3</ele>
        <time>2017-08-26T12:45:25Z</time>
      </trkpt>
      <trkpt lat="44.1016" lon="7.38363">
        <ele>2450.5</ele>
        <time>2017-08-26T12:45:37Z</time>
      </trkpt>
      <trkpt lat="44.10157" lon="7.3838">
        <ele>2456.4</ele>
        <time>2017-08-26T12:45:50Z</time>
      </trkpt>
      <trkpt lat="44.10153" lon="7.38386">
        <ele>2459.1</ele>
        <time>2017-08-26T12:46:01Z</time>
      </trkpt>
      <trkpt lat="44.10153" lon="7.38389">
        <ele>2460</ele>
        <time>2017-08-26T12:46:14Z</time>
      </trkpt>
      <trkpt lat="44.10153" lon="7.38392">
        <ele>2461</ele>
        <time>2017-08-26T12:46:29Z</time>
      </trkpt>
      <trkpt lat="44.10154" lon="7.38395">
        <ele>2461.8</ele>
        <time>2017-08-26T12:46:32Z</time>
      </trkpt>
      <trkpt lat="44.10154" lon="7.38401">
        <ele>2463.9</ele>
        <time>2017-08-26T12:46:37Z</time>
      </trkpt>
      <trkpt lat="44.10152" lon="7.38409">
        <ele>2467</ele>
        <time>2017-08-26T12:46:49Z</time>
      </trkpt>
      <trkpt lat="44.10152" lon="7.38409">
        <ele>2467</ele>
        <time>2017-08-26T12:47:09Z</time>
      </trkpt>
      <trkpt lat="44.1015" lon="7.38415">
        <ele>2469.4</ele>
        <time>2017-08-26T12:47:26Z</time>
      </trkpt>
      <trkpt lat="44.1015" lon="7.38417">
        <ele>2470.1</ele>
        <time>2017-08-26T12:47:39Z</time>
      </trkpt>
      <trkpt lat="44.10149" lon="7.38422">
        <ele>2472.2</ele>
        <time>2017-08-26T12:47:51Z</time>
      </trkpt>
      <trkpt lat="44.10152" lon="7.38429">
        <ele>2474.3</ele>
        <time>2017-08-26T12:48:07Z</time>
      </trkpt>
      <trkpt lat="44.10153" lon="7.38434">
        <ele>2476</ele>
        <time>2017-08-26T12:48:17Z</time>
      </trkpt>
      <trkpt lat="44.10157" lon="7.38443">
        <ele>2478.8</ele>
        <time>2017-08-26T12:48:29Z</time>
      </trkpt>
      <trkpt lat="44.1016" lon="7.3845">
        <ele>2481.5</ele>
        <time>2017-08-26T12:48:39Z</time>
      </trkpt>
      <trkpt lat="44.10164" lon="7.38454">
        <ele>2482.8</ele>
        <time>2017-08-26T12:48:51Z</time>
      </trkpt>
      <trkpt lat="44.10169" lon="7.3846">
        <ele>2485.5</ele>
        <time>2017-08-26T12:49:05Z</time>
      </trkpt>
      <trkpt lat="44.10168" lon="7.38463">
        <ele>2486.8</ele>
        <time>2017-08-26T12:49:20Z</time>
      </trkpt>
      <trkpt lat="44.10167" lon="7.38469">
        <ele>2489.5</ele>
        <time>2017-08-26T12:49:35Z</time>
      </trkpt>
      <trkpt lat="44.10164" lon="7.38468">
        <ele>2489.3</ele>
        <time>2017-08-26T12:49:47Z</time>
      </trkpt>
      <trkpt lat="44.10168" lon="7.38478">
        <ele>2494.6</ele>
        <time>2017-08-26T12:49:57Z</time>
      </trkpt>
      <trkpt lat="44.10169" lon="7.38486">
        <ele>2499.4</ele>
        <time>2017-08-26T12:50:06Z</time>
      </trkpt>
      <trkpt lat="44.10173" lon="7.38491">
        <ele>2503.3</ele>
        <time>2017-08-26T12:50:11Z</time>
      </trkpt>
      <trkpt lat="44.10174" lon="7.38493">
        <ele>2504.8</ele>
        <time>2017-08-26T12:50:15Z</time>
      </trkpt>
      <trkpt lat="44.10175" lon="7.38498">
        <ele>2508.2</ele>
        <time>2017-08-26T12:50:26Z</time>
      </trkpt>
      <trkpt lat="44.10174" lon="7.38498">
        <ele>2507.9</ele>
        <time>2017-08-26T12:50:40Z</time>
      </trkpt>
      <trkpt lat="44.10174" lon="7.38498">
        <ele>2507.9</ele>
        <time>2017-08-26T12:50:55Z</time>
      </trkpt>
      <trkpt lat="44.10174" lon="7.38501">
        <ele>2509.8</ele>
        <time>2017-08-26T12:51:06Z</time>
      </trkpt>
      <trkpt lat="44.10168" lon="7.38511">
        <ele>2514.6</ele>
        <time>2017-08-26T12:51:21Z</time>
      </trkpt>
      <trkpt lat="44.10165" lon="7.38512">
        <ele>2514.7</ele>
        <time>2017-08-26T12:51:33Z</time>
      </trkpt>
      <trkpt lat="44.10165" lon="7.38512">
        <ele>2514.7</ele>
        <time>2017-08-26T12:51:46Z</time>
      </trkpt>
      <trkpt lat="44.1016" lon="7.38517">
        <ele>2517.6</ele>
        <time>2017-08-26T12:51:57Z</time>
      </trkpt>
      <trkpt lat="44.10159" lon="7.38519">
        <ele>2518.7</ele>
        <time>2017-08-26T12:51:58Z</time>
      </trkpt>
      <trkpt lat="44.10159" lon="7.38518">
        <ele>2518.1</ele>
        <time>2017-08-26T12:52:00Z</time>
      </trkpt>
      <trkpt lat="44.10149" lon="7.38525">
        <ele>2521.5</ele>
        <time>2017-08-26T12:52:04Z</time>
      </trkpt>
      <trkpt lat="44.10143" lon="7.38533">
        <ele>2525.3</ele>
        <time>2017-08-26T12:52:13Z</time>
      </trkpt>
      <trkpt lat="44.10138" lon="7.38542">
        <ele>2529.9</ele>
        <time>2017-08-26T12:52:28Z</time>
      </trkpt>
      <trkpt lat="44.1014" lon="7.38544">
        <ele>2531</ele>
        <time>2017-08-26T12:52:39Z</time>
      </trkpt>
      <trkpt lat="44.10136" lon="7.38548">
        <ele>2533.5</ele>
        <time>2017-08-26T12:52:53Z</time>
      </trkpt>
      <trkpt lat="44.10135" lon="7.38555">
        <ele>2537.4</ele>
        <time>2017-08-26T12:53:11Z</time>
      </trkpt>
      <trkpt lat="44.10132" lon="7.3856">
        <ele>2539.8</ele>
        <time>2017-08-26T12:53:21Z</time>
      </trkpt>
      <trkpt lat="44.1013" lon="7.38567">
        <ele>2542.3</ele>
        <time>2017-08-26T12:53:33Z</time>
      </trkpt>
      <trkpt lat="44.10128" lon="7.38568">
        <ele>2542.8</ele>
        <time>2017-08-26T12:53:46Z</time>
      </trkpt>
      <trkpt lat="44.10127" lon="7.38569">
        <ele>2543.2</ele>
        <time>2017-08-26T12:53:48Z</time>
      </trkpt>
      <trkpt lat="44.10126" lon="7.38573">
        <ele>2544.5</ele>
        <time>2017-08-26T12:53:53Z</time>
      </trkpt>
      <trkpt lat="44.10126" lon="7.38576">
        <ele>2545.4</ele>
        <time>2017-08-26T12:54:04Z</time>
      </trkpt>
      <trkpt lat="44.10125" lon="7.38577">
        <ele>2545.7</ele>
        <time>2017-08-26T12:54:18Z</time>
      </trkpt>
      <trkpt lat="44.10124" lon="7.3858">
        <ele>2546.5</ele>
        <time>2017-08-26T12:54:21Z</time>
      </trkpt>
      <trkpt lat="44.10124" lon="7.38581">
        <ele>2546.8</ele>
        <time>2017-08-26T12:54:22Z</time>
      </trkpt>
      <trkpt lat="44.10122" lon="7.3859">
        <ele>2547.6</ele>
        <time>2017-08-26T12:54:35Z</time>
      </trkpt>
      <trkpt lat="44.10117" lon="7.38595">
        <ele>2546.6</ele>
        <time>2017-08-26T12:54:47Z</time>
      </trkpt>
      <trkpt lat="44.10118" lon="7.38598">
        <ele>2546.7</ele>
        <time>2017-08-26T12:55:02Z</time>
      </trkpt>
      <trkpt lat="44.10115" lon="7.38598">
        <ele>2545.9</ele>
        <time>2017-08-26T12:55:11Z</time>
      </trkpt>
      <trkpt lat="44.10113" lon="7.386">
        <ele>2545.2</ele>
        <time>2017-08-26T12:55:14Z</time>
      </trkpt>
      <trkpt lat="44.1011" lon="7.38603">
        <ele>2544.1</ele>
        <time>2017-08-26T12:55:17Z</time>
      </trkpt>
      <trkpt lat="44.1011" lon="7.38603">
        <ele>2544.1</ele>
        <time>2017-08-26T12:55:26Z</time>
      </trkpt>
      <trkpt lat="44.1011" lon="7.38603">
        <ele>2544.1</ele>
        <time>2017-08-26T12:55:50Z</time>
      </trkpt>
      <trkpt lat="44.10106" lon="7.38602">
        <ele>2544.2</ele>
        <time>2017-08-26T12:56:10Z</time>
      </trkpt>
      <trkpt lat="44.10105" lon="7.38602">
        <ele>2544.2</ele>
        <time>2017-08-26T12:56:23Z</time>
      </trkpt>
      <trkpt lat="44.10106" lon="7.38601">
        <ele>2544.5</ele>
        <time>2017-08-26T12:56:36Z</time>
      </trkpt>
      <trkpt lat="44.10106" lon="7.38599">
        <ele>2544.9</ele>
        <time>2017-08-26T12:56:51Z</time>
      </trkpt>
      <trkpt lat="44.10106" lon="7.38598">
        <ele>2545.2</ele>
        <time>2017-08-26T12:57:03Z</time>
      </trkpt>
      <trkpt lat="44.10105" lon="7.38598">
        <ele>2545.2</ele>
        <time>2017-08-26T12:57:19Z</time>
      </trkpt>
      <trkpt lat="44.10106" lon="7.38599">
        <ele>2544.9</ele>
        <time>2017-08-26T12:57:32Z</time>
      </trkpt>
      <trkpt lat="44.10109" lon="7.38602">
        <ele>2544.3</ele>
        <time>2017-08-26T12:57:46Z</time>
      </trkpt>
      <trkpt lat="44.10109" lon="7.38607">
        <ele>2543.4</ele>
        <time>2017-08-26T12:58:00Z</time>
      </trkpt>
      <trkpt lat="44.10108" lon="7.38607">
        <ele>2543.3</ele>
        <time>2017-08-26T12:58:12Z</time>
      </trkpt>
      <trkpt lat="44.1011" lon="7.38611">
        <ele>2542.8</ele>
        <time>2017-08-26T12:58:28Z</time>
      </trkpt>
      <trkpt lat="44.10108" lon="7.38614">
        <ele>2541.1</ele>
        <time>2017-08-26T12:58:42Z</time>
      </trkpt>
      <trkpt lat="44.10109" lon="7.38612">
        <ele>2542.2</ele>
        <time>2017-08-26T12:58:59Z</time>
      </trkpt>
      <trkpt lat="44.10108" lon="7.38617">
        <ele>2539.7</ele>
        <time>2017-08-26T12:59:12Z</time>
      </trkpt>
      <trkpt lat="44.10106" lon="7.38617">
        <ele>2539.1</ele>
        <time>2017-08-26T12:59:28Z</time>
      </trkpt>
      <trkpt lat="44.10103" lon="7.3862">
        <ele>2536.8</ele>
        <time>2017-08-26T12:59:42Z</time>
      </trkpt>
      <trkpt lat="44.10104" lon="7.38621">
        <ele>2536.5</ele>
        <time>2017-08-26T12:59:55Z</time>
      </trkpt>
      <trkpt lat="44.10107" lon="7.38627">
        <ele>2534.5</ele>
        <time>2017-08-26T13:00:08Z</time>
      </trkpt>
      <trkpt lat="44.10103" lon="7.3863">
        <ele>2531.4</ele>
        <time>2017-08-26T13:00:21Z</time>
      </trkpt>
      <trkpt lat="44.10102" lon="7.38631">
        <ele>2530.4</ele>
        <time>2017-08-26T13:00:35Z</time>
      </trkpt>
      <trkpt lat="44.10099" lon="7.38634">
        <ele>2527.3</ele>
        <time>2017-08-26T13:00:51Z</time>
      </trkpt>
      <trkpt lat="44.101" lon="7.38639">
        <ele>2524.9</ele>
        <time>2017-08-26T13:01:03Z</time>
      </trkpt>
      <trkpt lat="44.10101" lon="7.38645">
        <ele>2521.3</ele>
        <time>2017-08-26T13:01:17Z</time>
      </trkpt>
      <trkpt lat="44.10098" lon="7.38645">
        <ele>2519.5</ele>
        <time>2017-08-26T13:01:30Z</time>
      </trkpt>
      <trkpt lat="44.10097" lon="7.38647">
        <ele>2517.5</ele>
        <time>2017-08-26T13:01:45Z</time>
      </trkpt>
      <trkpt lat="44.10094" lon="7.3865">
        <ele>2513.6</ele>
        <time>2017-08-26T13:01:59Z</time>
      </trkpt>
      <trkpt lat="44.10094" lon="7.38651">
        <ele>2512.8</ele>
        <time>2017-08-26T13:02:13Z</time>
      </trkpt>
      <trkpt lat="44.1009" lon="7.38655">
        <ele>2507.4</ele>
        <time>2017-08-26T13:02:29Z</time>
      </trkpt>
      <trkpt lat="44.10087" lon="7.3866">
        <ele>2501.7</ele>
        <time>2017-08-26T13:02:41Z</time>
      </trkpt>
      <trkpt lat="44.10081" lon="7.38661">
        <ele>2498.2</ele>
        <time>2017-08-26T13:02:50Z</time>
      </trkpt>
      <trkpt lat="44.10082" lon="7.38661">
        <ele>2498.3</ele>
        <time>2017-08-26T13:02:54Z</time>
      </trkpt>
      <trkpt lat="44.10082" lon="7.38665">
        <ele>2495.1</ele>
        <time>2017-08-26T13:03:10Z</time>
      </trkpt>
      <trkpt lat="44.10081" lon="7.38674">
        <ele>2488.3</ele>
        <time>2017-08-26T13:03:25Z</time>
      </trkpt>
      <trkpt lat="44.10079" lon="7.38675">
        <ele>2487.3</ele>
        <time>2017-08-26T13:03:41Z</time>
      </trkpt>
      <trkpt lat="44.10076" lon="7.3868">
        <ele>2483.1</ele>
        <time>2017-08-26T13:03:55Z</time>
      </trkpt>
      <trkpt lat="44.10071" lon="7.38681">
        <ele>2481.4</ele>
        <time>2017-08-26T13:04:06Z</time>
      </trkpt>
      <trkpt lat="44.10067" lon="7.38681">
        <ele>2480.7</ele>
        <time>2017-08-26T13:04:10Z</time>
      </trkpt>
      <trkpt lat="44.10065" lon="7.38682">
        <ele>2479.6</ele>
        <time>2017-08-26T13:04:14Z</time>
      </trkpt>
      <trkpt lat="44.10064" lon="7.38687">
        <ele>2475.6</ele>
        <time>2017-08-26T13:04:20Z</time>
      </trkpt>
      <trkpt lat="44.10057" lon="7.38694">
        <ele>2468.7</ele>
        <time>2017-08-26T13:04:32Z</time>
      </trkpt>
      <trkpt lat="44.10057" lon="7.38694">
        <ele>2468.7</ele>
        <time>2017-08-26T13:04:49Z</time>
      </trkpt>
      <trkpt lat="44.10057" lon="7.38694">
        <ele>2468.7</ele>
        <time>2017-08-26T13:05:11Z</time>
      </trkpt>
      <trkpt lat="44.10052" lon="7.38696">
        <ele>2468.1</ele>
        <time>2017-08-26T13:05:34Z</time>
      </trkpt>
      <trkpt lat="44.10044" lon="7.38702">
        <ele>2466.4</ele>
        <time>2017-08-26T13:05:50Z</time>
      </trkpt>
      <trkpt lat="44.10039" lon="7.38708">
        <ele>2463.5</ele>
        <time>2017-08-26T13:06:03Z</time>
      </trkpt>
      <trkpt lat="44.10036" lon="7.38709">
        <ele>2463.4</ele>
        <time>2017-08-26T13:06:07Z</time>
      </trkpt>
      <trkpt lat="44.10035" lon="7.3871">
        <ele>2462.9</ele>
        <time>2017-08-26T13:06:11Z</time>
      </trkpt>
      <trkpt lat="44.10031" lon="7.38713">
        <ele>2461.4</ele>
        <time>2017-08-26T13:06:26Z</time>
      </trkpt>
      <trkpt lat="44.10025" lon="7.38723">
        <ele>2455.5</ele>
        <time>2017-08-26T13:06:39Z</time>
      </trkpt>
      <trkpt lat="44.10022" lon="7.38726">
        <ele>2454.7</ele>
        <time>2017-08-26T13:06:51Z</time>
      </trkpt>
      <trkpt lat="44.10023" lon="7.38737">
        <ele>2447.5</ele>
        <time>2017-08-26T13:07:14Z</time>
      </trkpt>
      <trkpt lat="44.10026" lon="7.38744">
        <ele>2442.2</ele>
        <time>2017-08-26T13:07:23Z</time>
      </trkpt>
      <trkpt lat="44.10024" lon="7.38749">
        <ele>2439.7</ele>
        <time>2017-08-26T13:07:28Z</time>
      </trkpt>
      <trkpt lat="44.10023" lon="7.38762">
        <ele>2433.6</ele>
        <time>2017-08-26T13:07:40Z</time>
      </trkpt>
      <trkpt lat="44.10021" lon="7.38762">
        <ele>2433.9</ele>
        <time>2017-08-26T13:07:54Z</time>
      </trkpt>
      <trkpt lat="44.10021" lon="7.38762">
        <ele>2433.9</ele>
        <time>2017-08-26T13:08:16Z</time>
      </trkpt>
      <trkpt lat="44.10021" lon="7.38765">
        <ele>2432.4</ele>
        <time>2017-08-26T13:08:34Z</time>
      </trkpt>
      <trkpt lat="44.10019" lon="7.38775">
        <ele>2427.5</ele>
        <time>2017-08-26T13:08:44Z</time>
      </trkpt>
      <trkpt lat="44.1002" lon="7.38785">
        <ele>2422.7</ele>
        <time>2017-08-26T13:08:57Z</time>
      </trkpt>
      <trkpt lat="44.10011" lon="7.38793">
        <ele>2418.4</ele>
        <time>2017-08-26T13:09:11Z</time>
      </trkpt>
      <trkpt lat="44.10009" lon="7.38793">
        <ele>2418.3</ele>
        <time>2017-08-26T13:09:29Z</time>
      </trkpt>
      <trkpt lat="44.10009" lon="7.38798">
        <ele>2415.8</ele>
        <time>2017-08-26T13:09:40Z</time>
      </trkpt>
      <trkpt lat="44.10007" lon="7.38805">
        <ele>2412</ele>
        <time>2017-08-26T13:09:48Z</time>
      </trkpt>
      <trkpt lat="44.10009" lon="7.38814">
        <ele>2409.1</ele>
        <time>2017-08-26T13:09:54Z</time>
      </trkpt>
      <trkpt lat="44.1001" lon="7.38815">
        <ele>2408.9</ele>
        <time>2017-08-26T13:10:06Z</time>
      </trkpt>
      <trkpt lat="44.10005" lon="7.38827">
        <ele>2404.8</ele>
        <time>2017-08-26T13:10:18Z</time>
      </trkpt>
      <trkpt lat="44.10005" lon="7.38835">
        <ele>2402.3</ele>
        <time>2017-08-26T13:10:25Z</time>
      </trkpt>
      <trkpt lat="44.10005" lon="7.38836">
        <ele>2402</ele>
        <time>2017-08-26T13:10:29Z</time>
      </trkpt>
      <trkpt lat="44.10005" lon="7.38836">
        <ele>2402</ele>
        <time>2017-08-26T13:10:33Z</time>
      </trkpt>
      <trkpt lat="44.10005" lon="7.38838">
        <ele>2401.3</ele>
        <time>2017-08-26T13:10:48Z</time>
      </trkpt>
      <trkpt lat="44.10005" lon="7.38838">
        <ele>2401.3</ele>
        <time>2017-08-26T13:11:04Z</time>
      </trkpt>
      <trkpt lat="44.10004" lon="7.38838">
        <ele>2401.3</ele>
        <time>2017-08-26T13:11:23Z</time>
      </trkpt>
      <trkpt lat="44.10003" lon="7.38844">
        <ele>2399.4</ele>
        <time>2017-08-26T13:11:37Z</time>
      </trkpt>
      <trkpt lat="44.10003" lon="7.38844">
        <ele>2399.4</ele>
        <time>2017-08-26T13:11:52Z</time>
      </trkpt>
      <trkpt lat="44.10003" lon="7.38844">
        <ele>2399.4</ele>
        <time>2017-08-26T13:12:16Z</time>
      </trkpt>
      <trkpt lat="44.10003" lon="7.38844">
        <ele>2399.4</ele>
        <time>2017-08-26T13:12:33Z</time>
      </trkpt>
      <trkpt lat="44.10003" lon="7.38844">
        <ele>2399.4</ele>
        <time>2017-08-26T13:12:45Z</time>
      </trkpt>
      <trkpt lat="44.10003" lon="7.38852">
        <ele>2396.8</ele>
        <time>2017-08-26T13:12:48Z</time>
      </trkpt>
      <trkpt lat="44.10003" lon="7.38856">
        <ele>2395.5</ele>
        <time>2017-08-26T13:13:01Z</time>
      </trkpt>
      <trkpt lat="44.10003" lon="7.38856">
        <ele>2395.5</ele>
        <time>2017-08-26T13:13:17Z</time>
      </trkpt>
      <trkpt lat="44.10003" lon="7.38856">
        <ele>2395.5</ele>
        <time>2017-08-26T13:13:35Z</time>
      </trkpt>
      <trkpt lat="44.09998" lon="7.38868">
        <ele>2392.7</ele>
        <time>2017-08-26T13:13:50Z</time>
      </trkpt>
      <trkpt lat="44.09997" lon="7.38871">
        <ele>2392.2</ele>
        <time>2017-08-26T13:13:52Z</time>
      </trkpt>
      <trkpt lat="44.09996" lon="7.38879">
        <ele>2390.1</ele>
        <time>2017-08-26T13:13:58Z</time>
      </trkpt>
      <trkpt lat="44.09999" lon="7.38886">
        <ele>2387.1</ele>
        <time>2017-08-26T13:14:14Z</time>
      </trkpt>
      <trkpt lat="44.09998" lon="7.38895">
        <ele>2385</ele>
        <time>2017-08-26T13:14:27Z</time>
      </trkpt>
      <trkpt lat="44.1" lon="7.38904">
        <ele>2382.2</ele>
        <time>2017-08-26T13:14:33Z</time>
      </trkpt>
      <trkpt lat="44.1" lon="7.38906">
        <ele>2381.7</ele>
        <time>2017-08-26T13:14:37Z</time>
      </trkpt>
      <trkpt lat="44.10004" lon="7.3891">
        <ele>2379.9</ele>
        <time>2017-08-26T13:14:47Z</time>
      </trkpt>
      <trkpt lat="44.10003" lon="7.3892">
        <ele>2377.6</ele>
        <time>2017-08-26T13:14:55Z</time>
      </trkpt>
      <trkpt lat="44.10004" lon="7.38929">
        <ele>2375.2</ele>
        <time>2017-08-26T13:15:02Z</time>
      </trkpt>
      <trkpt lat="44.10004" lon="7.38933">
        <ele>2374.3</ele>
        <time>2017-08-26T13:15:05Z</time>
      </trkpt>
      <trkpt lat="44.10007" lon="7.38937">
        <ele>2372.9</ele>
        <time>2017-08-26T13:15:13Z</time>
      </trkpt>
      <trkpt lat="44.10009" lon="7.38946">
        <ele>2370.8</ele>
        <time>2017-08-26T13:15:24Z</time>
      </trkpt>
      <trkpt lat="44.10013" lon="7.38955">
        <ele>2369.1</ele>
        <time>2017-08-26T13:15:32Z</time>
      </trkpt>
      <trkpt lat="44.10014" lon="7.38963">
        <ele>2367.8</ele>
        <time>2017-08-26T13:15:39Z</time>
      </trkpt>
      <trkpt lat="44.10016" lon="7.38963">
        <ele>2367.7</ele>
        <time>2017-08-26T13:15:42Z</time>
      </trkpt>
      <trkpt lat="44.10023" lon="7.38966">
        <ele>2366.9</ele>
        <time>2017-08-26T13:15:50Z</time>
      </trkpt>
      <trkpt lat="44.10025" lon="7.38978">
        <ele>2365.4</ele>
        <time>2017-08-26T13:16:00Z</time>
      </trkpt>
      <trkpt lat="44.10024" lon="7.38983">
        <ele>2364.8</ele>
        <time>2017-08-26T13:16:05Z</time>
      </trkpt>
      <trkpt lat="44.10024" lon="7.3899">
        <ele>2364</ele>
        <time>2017-08-26T13:16:10Z</time>
      </trkpt>
      <trkpt lat="44.10018" lon="7.39001">
        <ele>2362.2</ele>
        <time>2017-08-26T13:16:21Z</time>
      </trkpt>
      <trkpt lat="44.10017" lon="7.39014">
        <ele>2360.3</ele>
        <time>2017-08-26T13:16:34Z</time>
      </trkpt>
      <trkpt lat="44.10014" lon="7.39023">
        <ele>2358.7</ele>
        <time>2017-08-26T13:16:48Z</time>
      </trkpt>
      <trkpt lat="44.10014" lon="7.39023">
        <ele>2358.7</ele>
        <time>2017-08-26T13:17:14Z</time>
      </trkpt>
      <trkpt lat="44.10014" lon="7.39024">
        <ele>2358.6</ele>
        <time>2017-08-26T13:17:41Z</time>
      </trkpt>
      <trkpt lat="44.10015" lon="7.39026">
        <ele>2358.4</ele>
        <time>2017-08-26T13:18:11Z</time>
      </trkpt>
      <trkpt lat="44.1002" lon="7.39029">
        <ele>2358.8</ele>
        <time>2017-08-26T13:18:25Z</time>
      </trkpt>
      <trkpt lat="44.1002" lon="7.39028">
        <ele>2358.9</ele>
        <time>2017-08-26T13:18:46Z</time>
      </trkpt>
      <trkpt lat="44.10019" lon="7.39031">
        <ele>2358.4</ele>
        <time>2017-08-26T13:19:09Z</time>
      </trkpt>
      <trkpt lat="44.10016" lon="7.39039">
        <ele>2357</ele>
        <time>2017-08-26T13:19:24Z</time>
      </trkpt>
      <trkpt lat="44.10016" lon="7.39047">
        <ele>2356</ele>
        <time>2017-08-26T13:19:37Z</time>
      </trkpt>
      <trkpt lat="44.10015" lon="7.39054">
        <ele>2355</ele>
        <time>2017-08-26T13:19:49Z</time>
      </trkpt>
      <trkpt lat="44.10013" lon="7.39065">
        <ele>2353.6</ele>
        <time>2017-08-26T13:20:02Z</time>
      </trkpt>
      <trkpt lat="44.10012" lon="7.39068">
        <ele>2353.1</ele>
        <time>2017-08-26T13:20:15Z</time>
      </trkpt>
      <trkpt lat="44.10008" lon="7.39078">
        <ele>2351.1</ele>
        <time>2017-08-26T13:20:30Z</time>
      </trkpt>
      <trkpt lat="44.10006" lon="7.39082">
        <ele>2350.1</ele>
        <time>2017-08-26T13:20:45Z</time>
      </trkpt>
      <trkpt lat="44.10005" lon="7.39086">
        <ele>2349.3</ele>
        <time>2017-08-26T13:20:58Z</time>
      </trkpt>
      <trkpt lat="44.10002" lon="7.39092">
        <ele>2347.7</ele>
        <time>2017-08-26T13:21:12Z</time>
      </trkpt>
      <trkpt lat="44.09999" lon="7.39106">
        <ele>2345.5</ele>
        <time>2017-08-26T13:21:25Z</time>
      </trkpt>
      <trkpt lat="44.09994" lon="7.39114">
        <ele>2344.1</ele>
        <time>2017-08-26T13:21:37Z</time>
      </trkpt>
      <trkpt lat="44.09991" lon="7.39122">
        <ele>2342.4</ele>
        <time>2017-08-26T13:21:47Z</time>
      </trkpt>
      <trkpt lat="44.09984" lon="7.3913">
        <ele>2341.2</ele>
        <time>2017-08-26T13:22:01Z</time>
      </trkpt>
      <trkpt lat="44.0998" lon="7.39136">
        <ele>2340.6</ele>
        <time>2017-08-26T13:22:14Z</time>
      </trkpt>
      <trkpt lat="44.09976" lon="7.39141">
        <ele>2339.5</ele>
        <time>2017-08-26T13:22:29Z</time>
      </trkpt>
      <trkpt lat="44.09979" lon="7.39141">
        <ele>2339.2</ele>
        <time>2017-08-26T13:22:44Z</time>
      </trkpt>
      <trkpt lat="44.0998" lon="7.39144">
        <ele>2337.7</ele>
        <time>2017-08-26T13:22:59Z</time>
      </trkpt>
      <trkpt lat="44.09978" lon="7.39148">
        <ele>2335.9</ele>
        <time>2017-08-26T13:23:03Z</time>
      </trkpt>
      <trkpt lat="44.09975" lon="7.39151">
        <ele>2334.4</ele>
        <time>2017-08-26T13:23:09Z</time>
      </trkpt>
      <trkpt lat="44.09973" lon="7.39153">
        <ele>2333.4</ele>
        <time>2017-08-26T13:23:21Z</time>
      </trkpt>
      <trkpt lat="44.09969" lon="7.39161">
        <ele>2329.4</ele>
        <time>2017-08-26T13:23:33Z</time>
      </trkpt>
      <trkpt lat="44.09962" lon="7.39165">
        <ele>2328.3</ele>
        <time>2017-08-26T13:23:46Z</time>
      </trkpt>
      <trkpt lat="44.09956" lon="7.39169">
        <ele>2326.9</ele>
        <time>2017-08-26T13:23:58Z</time>
      </trkpt>
      <trkpt lat="44.09952" lon="7.39178">
        <ele>2322</ele>
        <time>2017-08-26T13:24:12Z</time>
      </trkpt>
      <trkpt lat="44.09952" lon="7.39179">
        <ele>2321.4</ele>
        <time>2017-08-26T13:24:26Z</time>
      </trkpt>
      <trkpt lat="44.09952" lon="7.39179">
        <ele>2321.4</ele>
        <time>2017-08-26T13:24:46Z</time>
      </trkpt>
      <trkpt lat="44.09951" lon="7.39182">
        <ele>2319.7</ele>
        <time>2017-08-26T13:24:48Z</time>
      </trkpt>
      <trkpt lat="44.09951" lon="7.3919">
        <ele>2314.8</ele>
        <time>2017-08-26T13:24:55Z</time>
      </trkpt>
      <trkpt lat="44.09956" lon="7.39189">
        <ele>2314.7</ele>
        <time>2017-08-26T13:25:01Z</time>
      </trkpt>
      <trkpt lat="44.09955" lon="7.39196">
        <ele>2310.6</ele>
        <time>2017-08-26T13:25:13Z</time>
      </trkpt>
      <trkpt lat="44.09956" lon="7.392">
        <ele>2308.4</ele>
        <time>2017-08-26T13:25:22Z</time>
      </trkpt>
      <trkpt lat="44.09955" lon="7.39205">
        <ele>2305.7</ele>
        <time>2017-08-26T13:25:28Z</time>
      </trkpt>
      <trkpt lat="44.09959" lon="7.39208">
        <ele>2303.9</ele>
        <time>2017-08-26T13:25:40Z</time>
      </trkpt>
      <trkpt lat="44.09952" lon="7.39216">
        <ele>2299.8</ele>
        <time>2017-08-26T13:25:52Z</time>
      </trkpt>
      <trkpt lat="44.09952" lon="7.39218">
        <ele>2298.6</ele>
        <time>2017-08-26T13:25:55Z</time>
      </trkpt>
      <trkpt lat="44.09947" lon="7.39221">
        <ele>2296.8</ele>
        <time>2017-08-26T13:26:04Z</time>
      </trkpt>
      <trkpt lat="44.09946" lon="7.39222">
        <ele>2296.2</ele>
        <time>2017-08-26T13:26:06Z</time>
      </trkpt>
      <trkpt lat="44.09945" lon="7.39223">
        <ele>2295.5</ele>
        <time>2017-08-26T13:26:25Z</time>
      </trkpt>
      <trkpt lat="44.09945" lon="7.39224">
        <ele>2294.9</ele>
        <time>2017-08-26T13:26:43Z</time>
      </trkpt>
      <trkpt lat="44.09939" lon="7.3923">
        <ele>2290.8</ele>
        <time>2017-08-26T13:26:59Z</time>
      </trkpt>
      <trkpt lat="44.09934" lon="7.39238">
        <ele>2285.6</ele>
        <time>2017-08-26T13:27:12Z</time>
      </trkpt>
      <trkpt lat="44.09925" lon="7.39238">
        <ele>2285.5</ele>
        <time>2017-08-26T13:27:25Z</time>
      </trkpt>
      <trkpt lat="44.09922" lon="7.39241">
        <ele>2283.6</ele>
        <time>2017-08-26T13:27:30Z</time>
      </trkpt>
      <trkpt lat="44.09911" lon="7.39243">
        <ele>2282.8</ele>
        <time>2017-08-26T13:27:43Z</time>
      </trkpt>
      <trkpt lat="44.099" lon="7.39247">
        <ele>2280.9</ele>
        <time>2017-08-26T13:27:57Z</time>
      </trkpt>
      <trkpt lat="44.09898" lon="7.39249">
        <ele>2279.5</ele>
        <time>2017-08-26T13:28:18Z</time>
      </trkpt>
      <trkpt lat="44.0989" lon="7.39253">
        <ele>2276.8</ele>
        <time>2017-08-26T13:28:30Z</time>
      </trkpt>
      <trkpt lat="44.09887" lon="7.39255">
        <ele>2276.2</ele>
        <time>2017-08-26T13:28:34Z</time>
      </trkpt>
      <trkpt lat="44.09883" lon="7.39259">
        <ele>2274.9</ele>
        <time>2017-08-26T13:28:41Z</time>
      </trkpt>
      <trkpt lat="44.0988" lon="7.39266">
        <ele>2271</ele>
        <time>2017-08-26T13:28:53Z</time>
      </trkpt>
      <trkpt lat="44.09872" lon="7.39272">
        <ele>2269.5</ele>
        <time>2017-08-26T13:29:07Z</time>
      </trkpt>
      <trkpt lat="44.09872" lon="7.39275">
        <ele>2267.2</ele>
        <time>2017-08-26T13:29:12Z</time>
      </trkpt>
      <trkpt lat="44.09865" lon="7.39283">
        <ele>2263.8</ele>
        <time>2017-08-26T13:29:26Z</time>
      </trkpt>
      <trkpt lat="44.09864" lon="7.39287">
        <ele>2261.2</ele>
        <time>2017-08-26T13:29:38Z</time>
      </trkpt>
      <trkpt lat="44.09864" lon="7.39292">
        <ele>2257.5</ele>
        <time>2017-08-26T13:29:43Z</time>
      </trkpt>
      <trkpt lat="44.09864" lon="7.39297">
        <ele>2253.9</ele>
        <time>2017-08-26T13:29:47Z</time>
      </trkpt>
      <trkpt lat="44.09864" lon="7.39304">
        <ele>2248.7</ele>
        <time>2017-08-26T13:29:59Z</time>
      </trkpt>
      <trkpt lat="44.09858" lon="7.39309">
        <ele>2246</ele>
        <time>2017-08-26T13:30:12Z</time>
      </trkpt>
      <trkpt lat="44.09857" lon="7.3931">
        <ele>2245.4</ele>
        <time>2017-08-26T13:30:35Z</time>
      </trkpt>
      <trkpt lat="44.09844" lon="7.39315">
        <ele>2242.9</ele>
        <time>2017-08-26T13:30:49Z</time>
      </trkpt>
      <trkpt lat="44.09839" lon="7.3932">
        <ele>2239.8</ele>
        <time>2017-08-26T13:31:01Z</time>
      </trkpt>
      <trkpt lat="44.09842" lon="7.39323">
        <ele>2237.6</ele>
        <time>2017-08-26T13:31:06Z</time>
      </trkpt>
      <trkpt lat="44.09843" lon="7.39325">
        <ele>2236.2</ele>
        <time>2017-08-26T13:31:08Z</time>
      </trkpt>
      <trkpt lat="44.0985" lon="7.39327">
        <ele>2234.6</ele>
        <time>2017-08-26T13:31:15Z</time>
      </trkpt>
      <trkpt lat="44.09847" lon="7.39333">
        <ele>2230.7</ele>
        <time>2017-08-26T13:31:26Z</time>
      </trkpt>
      <trkpt lat="44.09845" lon="7.39341">
        <ele>2226.6</ele>
        <time>2017-08-26T13:31:38Z</time>
      </trkpt>
      <trkpt lat="44.09843" lon="7.39346">
        <ele>2224.1</ele>
        <time>2017-08-26T13:31:50Z</time>
      </trkpt>
      <trkpt lat="44.09842" lon="7.39346">
        <ele>2224.2</ele>
        <time>2017-08-26T13:31:55Z</time>
      </trkpt>
      <trkpt lat="44.09843" lon="7.39352">
        <ele>2221</ele>
        <time>2017-08-26T13:32:11Z</time>
      </trkpt>
      <trkpt lat="44.09844" lon="7.39361">
        <ele>2216.3</ele>
        <time>2017-08-26T13:32:24Z</time>
      </trkpt>
      <trkpt lat="44.09842" lon="7.39365">
        <ele>2214.3</ele>
        <time>2017-08-26T13:32:29Z</time>
      </trkpt>
      <trkpt lat="44.09835" lon="7.39373">
        <ele>2210.5</ele>
        <time>2017-08-26T13:32:44Z</time>
      </trkpt>
      <trkpt lat="44.09835" lon="7.39377">
        <ele>2208.3</ele>
        <time>2017-08-26T13:32:58Z</time>
      </trkpt>
      <trkpt lat="44.09844" lon="7.3938">
        <ele>2206</ele>
        <time>2017-08-26T13:33:12Z</time>
      </trkpt>
      <trkpt lat="44.09844" lon="7.39381">
        <ele>2205.5</ele>
        <time>2017-08-26T13:33:13Z</time>
      </trkpt>
      <trkpt lat="44.09844" lon="7.39386">
        <ele>2202.8</ele>
        <time>2017-08-26T13:33:20Z</time>
      </trkpt>
      <trkpt lat="44.09842" lon="7.3939">
        <ele>2200.9</ele>
        <time>2017-08-26T13:33:26Z</time>
      </trkpt>
      <trkpt lat="44.0984" lon="7.39393">
        <ele>2199.7</ele>
        <time>2017-08-26T13:33:39Z</time>
      </trkpt>
      <trkpt lat="44.09839" lon="7.39394">
        <ele>2199.3</ele>
        <time>2017-08-26T13:33:50Z</time>
      </trkpt>
      <trkpt lat="44.09828" lon="7.39402">
        <ele>2196.4</ele>
        <time>2017-08-26T13:34:03Z</time>
      </trkpt>
      <trkpt lat="44.09821" lon="7.39411">
        <ele>2193</ele>
        <time>2017-08-26T13:34:16Z</time>
      </trkpt>
      <trkpt lat="44.09818" lon="7.39415">
        <ele>2191.4</ele>
        <time>2017-08-26T13:34:22Z</time>
      </trkpt>
      <trkpt lat="44.09818" lon="7.39416">
        <ele>2191</ele>
        <time>2017-08-26T13:34:24Z</time>
      </trkpt>
      <trkpt lat="44.0981" lon="7.39425">
        <ele>2187.6</ele>
        <time>2017-08-26T13:34:36Z</time>
      </trkpt>
      <trkpt lat="44.09807" lon="7.3943">
        <ele>2185.6</ele>
        <time>2017-08-26T13:34:49Z</time>
      </trkpt>
      <trkpt lat="44.09807" lon="7.39432">
        <ele>2184.7</ele>
        <time>2017-08-26T13:34:51Z</time>
      </trkpt>
      <trkpt lat="44.09808" lon="7.39438">
        <ele>2181.8</ele>
        <time>2017-08-26T13:34:56Z</time>
      </trkpt>
      <trkpt lat="44.09806" lon="7.39441">
        <ele>2180.6</ele>
        <time>2017-08-26T13:35:01Z</time>
      </trkpt>
      <trkpt lat="44.09801" lon="7.39449">
        <ele>2176.3</ele>
        <time>2017-08-26T13:35:14Z</time>
      </trkpt>
      <trkpt lat="44.09796" lon="7.39452">
        <ele>2174.4</ele>
        <time>2017-08-26T13:35:29Z</time>
      </trkpt>
      <trkpt lat="44.09794" lon="7.39459">
        <ele>2171.1</ele>
        <time>2017-08-26T13:35:39Z</time>
      </trkpt>
      <trkpt lat="44.09792" lon="7.39463">
        <ele>2169.2</ele>
        <time>2017-08-26T13:35:50Z</time>
      </trkpt>
      <trkpt lat="44.09792" lon="7.39464">
        <ele>2168.7</ele>
        <time>2017-08-26T13:36:06Z</time>
      </trkpt>
      <trkpt lat="44.09792" lon="7.39464">
        <ele>2168.7</ele>
        <time>2017-08-26T13:36:30Z</time>
      </trkpt>
      <trkpt lat="44.09792" lon="7.39464">
        <ele>2168.7</ele>
        <time>2017-08-26T13:36:48Z</time>
      </trkpt>
      <trkpt lat="44.09792" lon="7.39464">
        <ele>2168.7</ele>
        <time>2017-08-26T13:37:15Z</time>
      </trkpt>
      <trkpt lat="44.09792" lon="7.39464">
        <ele>2168.7</ele>
        <time>2017-08-26T13:37:49Z</time>
      </trkpt>
      <trkpt lat="44.0979" lon="7.39462">
        <ele>2169.5</ele>
        <time>2017-08-26T13:38:16Z</time>
      </trkpt>
      <trkpt lat="44.0979" lon="7.39462">
        <ele>2169.5</ele>
        <time>2017-08-26T13:38:26Z</time>
      </trkpt>
      <trkpt lat="44.09797" lon="7.3947">
        <ele>2166</ele>
        <time>2017-08-26T13:38:37Z</time>
      </trkpt>
      <trkpt lat="44.09804" lon="7.39475">
        <ele>2163.8</ele>
        <time>2017-08-26T13:38:45Z</time>
      </trkpt>
      <trkpt lat="44.09813" lon="7.39479">
        <ele>2162.3</ele>
        <time>2017-08-26T13:38:52Z</time>
      </trkpt>
      <trkpt lat="44.09818" lon="7.39479">
        <ele>2162.5</ele>
        <time>2017-08-26T13:38:56Z</time>
      </trkpt>
      <trkpt lat="44.09828" lon="7.39484">
        <ele>2161.3</ele>
        <time>2017-08-26T13:39:10Z</time>
      </trkpt>
      <trkpt lat="44.09829" lon="7.39488">
        <ele>2160.1</ele>
        <time>2017-08-26T13:39:14Z</time>
      </trkpt>
      <trkpt lat="44.09835" lon="7.39496">
        <ele>2159</ele>
        <time>2017-08-26T13:39:26Z</time>
      </trkpt>
      <trkpt lat="44.09844" lon="7.39502">
        <ele>2161.4</ele>
        <time>2017-08-26T13:39:41Z</time>
      </trkpt>
      <trkpt lat="44.09849" lon="7.39505">
        <ele>2162.7</ele>
        <time>2017-08-26T13:39:48Z</time>
      </trkpt>
      <trkpt lat="44.09858" lon="7.39513">
        <ele>2163.6</ele>
        <time>2017-08-26T13:40:02Z</time>
      </trkpt>
      <trkpt lat="44.09855" lon="7.39518">
        <ele>2160.6</ele>
        <time>2017-08-26T13:40:12Z</time>
      </trkpt>
      <trkpt lat="44.0986" lon="7.39532">
        <ele>2157.8</ele>
        <time>2017-08-26T13:40:25Z</time>
      </trkpt>
      <trkpt lat="44.09861" lon="7.39534">
        <ele>2157.8</ele>
        <time>2017-08-26T13:40:27Z</time>
      </trkpt>
      <trkpt lat="44.09864" lon="7.39546">
        <ele>2157.7</ele>
        <time>2017-08-26T13:40:40Z</time>
      </trkpt>
      <trkpt lat="44.09869" lon="7.39559">
        <ele>2157.5</ele>
        <time>2017-08-26T13:40:54Z</time>
      </trkpt>
      <trkpt lat="44.09871" lon="7.39562">
        <ele>2157.8</ele>
        <time>2017-08-26T13:41:01Z</time>
      </trkpt>
      <trkpt lat="44.09872" lon="7.39566">
        <ele>2157.1</ele>
        <time>2017-08-26T13:41:20Z</time>
      </trkpt>
      <trkpt lat="44.09875" lon="7.39581">
        <ele>2154.2</ele>
        <time>2017-08-26T13:41:33Z</time>
      </trkpt>
      <trkpt lat="44.09876" lon="7.39583">
        <ele>2154.1</ele>
        <time>2017-08-26T13:41:50Z</time>
      </trkpt>
      <trkpt lat="44.09878" lon="7.39587">
        <ele>2154.6</ele>
        <time>2017-08-26T13:42:00Z</time>
      </trkpt>
      <trkpt lat="44.09883" lon="7.39595">
        <ele>2156.2</ele>
        <time>2017-08-26T13:42:07Z</time>
      </trkpt>
      <trkpt lat="44.09886" lon="7.39599">
        <ele>2157.2</ele>
        <time>2017-08-26T13:42:11Z</time>
      </trkpt>
      <trkpt lat="44.09884" lon="7.39619">
        <ele>2154.5</ele>
        <time>2017-08-26T13:42:26Z</time>
      </trkpt>
      <trkpt lat="44.09883" lon="7.39631">
        <ele>2154</ele>
        <time>2017-08-26T13:42:40Z</time>
      </trkpt>
      <trkpt lat="44.09884" lon="7.39636">
        <ele>2154.5</ele>
        <time>2017-08-26T13:42:44Z</time>
      </trkpt>
      <trkpt lat="44.09885" lon="7.39649">
        <ele>2155.1</ele>
        <time>2017-08-26T13:42:55Z</time>
      </trkpt>
      <trkpt lat="44.09891" lon="7.39662">
        <ele>2157.8</ele>
        <time>2017-08-26T13:43:06Z</time>
      </trkpt>
      <trkpt lat="44.09892" lon="7.39667">
        <ele>2158.1</ele>
        <time>2017-08-26T13:43:18Z</time>
      </trkpt>
      <trkpt lat="44.09893" lon="7.3967">
        <ele>2158.3</ele>
        <time>2017-08-26T13:43:43Z</time>
      </trkpt>
      <trkpt lat="44.09895" lon="7.39675">
        <ele>2158.8</ele>
        <time>2017-08-26T13:43:49Z</time>
      </trkpt>
      <trkpt lat="44.09896" lon="7.39692">
        <ele>2158.2</ele>
        <time>2017-08-26T13:44:04Z</time>
      </trkpt>
      <trkpt lat="44.09896" lon="7.39696">
        <ele>2157.9</ele>
        <time>2017-08-26T13:44:07Z</time>
      </trkpt>
      <trkpt lat="44.09898" lon="7.397">
        <ele>2158.1</ele>
        <time>2017-08-26T13:44:10Z</time>
      </trkpt>
      <trkpt lat="44.09913" lon="7.39703">
        <ele>2161.3</ele>
        <time>2017-08-26T13:44:26Z</time>
      </trkpt>
      <trkpt lat="44.09931" lon="7.39694">
        <ele>2165.1</ele>
        <time>2017-08-26T13:44:43Z</time>
      </trkpt>
      <trkpt lat="44.09939" lon="7.39685">
        <ele>2167.4</ele>
        <time>2017-08-26T13:44:56Z</time>
      </trkpt>
      <trkpt lat="44.09946" lon="7.39683">
        <ele>2168.5</ele>
        <time>2017-08-26T13:45:04Z</time>
      </trkpt>
      <trkpt lat="44.0995" lon="7.39678">
        <ele>2169.8</ele>
        <time>2017-08-26T13:45:15Z</time>
      </trkpt>
      <trkpt lat="44.09953" lon="7.39676">
        <ele>2170.3</ele>
        <time>2017-08-26T13:45:21Z</time>
      </trkpt>
      <trkpt lat="44.09954" lon="7.39674">
        <ele>2170.8</ele>
        <time>2017-08-26T13:45:23Z</time>
      </trkpt>
      <trkpt lat="44.0995" lon="7.39669">
        <ele>2171.7</ele>
        <time>2017-08-26T13:45:31Z</time>
      </trkpt>
      <trkpt lat="44.09949" lon="7.39668">
        <ele>2171.9</ele>
        <time>2017-08-26T13:45:32Z</time>
      </trkpt>
      <trkpt lat="44.09951" lon="7.3966">
        <ele>2173.9</ele>
        <time>2017-08-26T13:45:48Z</time>
      </trkpt>
      <trkpt lat="44.09946" lon="7.39648">
        <ele>2176.2</ele>
        <time>2017-08-26T13:46:00Z</time>
      </trkpt>
      <trkpt lat="44.09952" lon="7.39645">
        <ele>2177.8</ele>
        <time>2017-08-26T13:46:14Z</time>
      </trkpt>
      <trkpt lat="44.0996" lon="7.39639">
        <ele>2180.8</ele>
        <time>2017-08-26T13:46:28Z</time>
      </trkpt>
      <trkpt lat="44.09961" lon="7.3964">
        <ele>2180.6</ele>
        <time>2017-08-26T13:46:30Z</time>
      </trkpt>
      <trkpt lat="44.09976" lon="7.39643">
        <ele>2181.9</ele>
        <time>2017-08-26T13:46:47Z</time>
      </trkpt>
      <trkpt lat="44.0998" lon="7.39641">
        <ele>2183.1</ele>
        <time>2017-08-26T13:47:00Z</time>
      </trkpt>
      <trkpt lat="44.09989" lon="7.39644">
        <ele>2183</ele>
        <time>2017-08-26T13:47:12Z</time>
      </trkpt>
      <trkpt lat="44.10003" lon="7.39641">
        <ele>2185.8</ele>
        <time>2017-08-26T13:47:29Z</time>
      </trkpt>
      <trkpt lat="44.10012" lon="7.39636">
        <ele>2189.4</ele>
        <time>2017-08-26T13:47:42Z</time>
      </trkpt>
      <trkpt lat="44.10028" lon="7.39639">
        <ele>2191</ele>
        <time>2017-08-26T13:48:01Z</time>
      </trkpt>
      <trkpt lat="44.10044" lon="7.39634">
        <ele>2194.9</ele>
        <time>2017-08-26T13:48:18Z</time>
      </trkpt>
      <trkpt lat="44.10053" lon="7.39629">
        <ele>2198</ele>
        <time>2017-08-26T13:48:32Z</time>
      </trkpt>
      <trkpt lat="44.10053" lon="7.39629">
        <ele>2198</ele>
        <time>2017-08-26T13:48:47Z</time>
      </trkpt>
      <trkpt lat="44.10053" lon="7.39629">
        <ele>2198</ele>
        <time>2017-08-26T13:49:01Z</time>
      </trkpt>
      <trkpt lat="44.10055" lon="7.39629">
        <ele>2198.2</ele>
        <time>2017-08-26T13:49:17Z</time>
      </trkpt>
      <trkpt lat="44.10062" lon="7.39627">
        <ele>2199</ele>
        <time>2017-08-26T13:49:31Z</time>
      </trkpt>
      <trkpt lat="44.10067" lon="7.39626">
        <ele>2199.4</ele>
        <time>2017-08-26T13:49:35Z</time>
      </trkpt>
      <trkpt lat="44.10085" lon="7.39632">
        <ele>2196.7</ele>
        <time>2017-08-26T13:49:51Z</time>
      </trkpt>
      <trkpt lat="44.10089" lon="7.39627">
        <ele>2198.4</ele>
        <time>2017-08-26T13:49:57Z</time>
      </trkpt>
      <trkpt lat="44.10106" lon="7.39607">
        <ele>2205.1</ele>
        <time>2017-08-26T13:50:14Z</time>
      </trkpt>
      <trkpt lat="44.10114" lon="7.39604">
        <ele>2205.9</ele>
        <time>2017-08-26T13:50:22Z</time>
      </trkpt>
      <trkpt lat="44.10127" lon="7.396">
        <ele>2206.1</ele>
        <time>2017-08-26T13:50:34Z</time>
      </trkpt>
      <trkpt lat="44.10144" lon="7.39604">
        <ele>2201.3</ele>
        <time>2017-08-26T13:50:50Z</time>
      </trkpt>
      <trkpt lat="44.10165" lon="7.39605">
        <ele>2198.5</ele>
        <time>2017-08-26T13:51:05Z</time>
      </trkpt>
      <trkpt lat="44.10185" lon="7.39601">
        <ele>2196.7</ele>
        <time>2017-08-26T13:51:19Z</time>
      </trkpt>
      <trkpt lat="44.10195" lon="7.39598">
        <ele>2196.1</ele>
        <time>2017-08-26T13:51:28Z</time>
      </trkpt>
      <trkpt lat="44.10208" lon="7.39596">
        <ele>2195.3</ele>
        <time>2017-08-26T13:51:40Z</time>
      </trkpt>
      <trkpt lat="44.10219" lon="7.39598">
        <ele>2193.1</ele>
        <time>2017-08-26T13:51:49Z</time>
      </trkpt>
      <trkpt lat="44.10228" lon="7.39586">
        <ele>2196.9</ele>
        <time>2017-08-26T13:52:04Z</time>
      </trkpt>
      <trkpt lat="44.1024" lon="7.39581">
        <ele>2198.4</ele>
        <time>2017-08-26T13:52:19Z</time>
      </trkpt>
      <trkpt lat="44.10242" lon="7.39581">
        <ele>2198.3</ele>
        <time>2017-08-26T13:52:23Z</time>
      </trkpt>
      <trkpt lat="44.1025" lon="7.39588">
        <ele>2195.5</ele>
        <time>2017-08-26T13:52:38Z</time>
      </trkpt>
      <trkpt lat="44.1025" lon="7.39588">
        <ele>2195.5</ele>
        <time>2017-08-26T13:53:00Z</time>
      </trkpt>
      <trkpt lat="44.1025" lon="7.39588">
        <ele>2195.5</ele>
        <time>2017-08-26T13:53:22Z</time>
      </trkpt>
      <trkpt lat="44.10252" lon="7.39589">
        <ele>2195.4</ele>
        <time>2017-08-26T13:53:31Z</time>
      </trkpt>
      <trkpt lat="44.10253" lon="7.39589">
        <ele>2195.6</ele>
        <time>2017-08-26T13:53:33Z</time>
      </trkpt>
      <trkpt lat="44.10257" lon="7.39593">
        <ele>2194.8</ele>
        <time>2017-08-26T13:53:37Z</time>
      </trkpt>
      <trkpt lat="44.10258" lon="7.39595">
        <ele>2194.3</ele>
        <time>2017-08-26T13:53:40Z</time>
      </trkpt>
      <trkpt lat="44.10262" lon="7.39599">
        <ele>2193.4</ele>
        <time>2017-08-26T13:53:43Z</time>
      </trkpt>
      <trkpt lat="44.10267" lon="7.39601">
        <ele>2193.3</ele>
        <time>2017-08-26T13:53:48Z</time>
      </trkpt>
      <trkpt lat="44.10272" lon="7.39603">
        <ele>2193.2</ele>
        <time>2017-08-26T13:53:52Z</time>
      </trkpt>
      <trkpt lat="44.10287" lon="7.39606">
        <ele>2193.9</ele>
        <time>2017-08-26T13:54:06Z</time>
      </trkpt>
      <trkpt lat="44.103" lon="7.39609">
        <ele>2194.2</ele>
        <time>2017-08-26T13:54:19Z</time>
      </trkpt>
      <trkpt lat="44.10307" lon="7.39612">
        <ele>2193.8</ele>
        <time>2017-08-26T13:54:29Z</time>
      </trkpt>
      <trkpt lat="44.10316" lon="7.39615">
        <ele>2193.5</ele>
        <time>2017-08-26T13:54:42Z</time>
      </trkpt>
      <trkpt lat="44.10329" lon="7.39618">
        <ele>2193.7</ele>
        <time>2017-08-26T13:54:55Z</time>
      </trkpt>
      <trkpt lat="44.10335" lon="7.39619">
        <ele>2193.8</ele>
        <time>2017-08-26T13:55:01Z</time>
      </trkpt>
      <trkpt lat="44.10345" lon="7.39621">
        <ele>2194</ele>
        <time>2017-08-26T13:55:17Z</time>
      </trkpt>
      <trkpt lat="44.10353" lon="7.39619">
        <ele>2195.1</ele>
        <time>2017-08-26T13:55:28Z</time>
      </trkpt>
      <trkpt lat="44.10362" lon="7.39618">
        <ele>2196.1</ele>
        <time>2017-08-26T13:55:40Z</time>
      </trkpt>
      <trkpt lat="44.10371" lon="7.3962">
        <ele>2196.4</ele>
        <time>2017-08-26T13:55:49Z</time>
      </trkpt>
      <trkpt lat="44.10373" lon="7.39621">
        <ele>2196.3</ele>
        <time>2017-08-26T13:55:51Z</time>
      </trkpt>
      <trkpt lat="44.10375" lon="7.39622">
        <ele>2196.2</ele>
        <time>2017-08-26T13:55:52Z</time>
      </trkpt>
      <trkpt lat="44.10387" lon="7.39625">
        <ele>2196.3</ele>
        <time>2017-08-26T13:56:05Z</time>
      </trkpt>
      <trkpt lat="44.10391" lon="7.39629">
        <ele>2195.8</ele>
        <time>2017-08-26T13:56:11Z</time>
      </trkpt>
      <trkpt lat="44.10394" lon="7.39632">
        <ele>2195.6</ele>
        <time>2017-08-26T13:56:13Z</time>
      </trkpt>
      <trkpt lat="44.10409" lon="7.39635">
        <ele>2198.2</ele>
        <time>2017-08-26T13:56:28Z</time>
      </trkpt>
      <trkpt lat="44.10422" lon="7.39641">
        <ele>2199.5</ele>
        <time>2017-08-26T13:56:44Z</time>
      </trkpt>
      <trkpt lat="44.10423" lon="7.39642">
        <ele>2199.6</ele>
        <time>2017-08-26T13:56:46Z</time>
      </trkpt>
      <trkpt lat="44.10428" lon="7.39648">
        <ele>2199.6</ele>
        <time>2017-08-26T13:56:53Z</time>
      </trkpt>
      <trkpt lat="44.10434" lon="7.39652">
        <ele>2200.5</ele>
        <time>2017-08-26T13:57:00Z</time>
      </trkpt>
      <trkpt lat="44.10441" lon="7.39663">
        <ele>2199.2</ele>
        <time>2017-08-26T13:57:12Z</time>
      </trkpt>
      <trkpt lat="44.10448" lon="7.39674">
        <ele>2197.8</ele>
        <time>2017-08-26T13:57:26Z</time>
      </trkpt>
      <trkpt lat="44.1045" lon="7.39686">
        <ele>2195.6</ele>
        <time>2017-08-26T13:57:40Z</time>
      </trkpt>
      <trkpt lat="44.1045" lon="7.39689">
        <ele>2195.1</ele>
        <time>2017-08-26T13:57:42Z</time>
      </trkpt>
      <trkpt lat="44.10452" lon="7.39705">
        <ele>2193.5</ele>
        <time>2017-08-26T13:57:55Z</time>
      </trkpt>
      <trkpt lat="44.10454" lon="7.39722">
        <ele>2192.4</ele>
        <time>2017-08-26T13:58:10Z</time>
      </trkpt>
      <trkpt lat="44.10456" lon="7.39726">
        <ele>2192.6</ele>
        <time>2017-08-26T13:58:22Z</time>
      </trkpt>
      <trkpt lat="44.1046" lon="7.39728">
        <ele>2193.3</ele>
        <time>2017-08-26T13:58:26Z</time>
      </trkpt>
      <trkpt lat="44.10469" lon="7.39735">
        <ele>2194.9</ele>
        <time>2017-08-26T13:58:40Z</time>
      </trkpt>
      <trkpt lat="44.10471" lon="7.39739">
        <ele>2195.4</ele>
        <time>2017-08-26T13:58:44Z</time>
      </trkpt>
      <trkpt lat="44.10474" lon="7.39761">
        <ele>2196.6</ele>
        <time>2017-08-26T13:59:03Z</time>
      </trkpt>
      <trkpt lat="44.10473" lon="7.39764">
        <ele>2196.3</ele>
        <time>2017-08-26T13:59:05Z</time>
      </trkpt>
      <trkpt lat="44.10472" lon="7.39788">
        <ele>2195.9</ele>
        <time>2017-08-26T13:59:24Z</time>
      </trkpt>
      <trkpt lat="44.10472" lon="7.39788">
        <ele>2195.9</ele>
        <time>2017-08-26T13:59:31Z</time>
      </trkpt>
      <trkpt lat="44.10472" lon="7.39792">
        <ele>2195.9</ele>
        <time>2017-08-26T13:59:33Z</time>
      </trkpt>
      <trkpt lat="44.10475" lon="7.39812">
        <ele>2196</ele>
        <time>2017-08-26T13:59:48Z</time>
      </trkpt>
      <trkpt lat="44.1048" lon="7.3983">
        <ele>2195</ele>
        <time>2017-08-26T14:00:03Z</time>
      </trkpt>
      <trkpt lat="44.10481" lon="7.39837">
        <ele>2194.5</ele>
        <time>2017-08-26T14:00:10Z</time>
      </trkpt>
      <trkpt lat="44.10486" lon="7.39854">
        <ele>2194.6</ele>
        <time>2017-08-26T14:00:26Z</time>
      </trkpt>
      <trkpt lat="44.10489" lon="7.39866">
        <ele>2194.4</ele>
        <time>2017-08-26T14:00:39Z</time>
      </trkpt>
      <trkpt lat="44.10494" lon="7.39882">
        <ele>2194.3</ele>
        <time>2017-08-26T14:00:54Z</time>
      </trkpt>
      <trkpt lat="44.10496" lon="7.39893">
        <ele>2194</ele>
        <time>2017-08-26T14:01:05Z</time>
      </trkpt>
      <trkpt lat="44.10499" lon="7.39901">
        <ele>2194.4</ele>
        <time>2017-08-26T14:01:10Z</time>
      </trkpt>
      <trkpt lat="44.10502" lon="7.39923">
        <ele>2194</ele>
        <time>2017-08-26T14:01:27Z</time>
      </trkpt>
      <trkpt lat="44.10504" lon="7.39943">
        <ele>2193</ele>
        <time>2017-08-26T14:01:40Z</time>
      </trkpt>
      <trkpt lat="44.10505" lon="7.39947">
        <ele>2193.2</ele>
        <time>2017-08-26T14:01:43Z</time>
      </trkpt>
      <trkpt lat="44.10505" lon="7.3995">
        <ele>2193.4</ele>
        <time>2017-08-26T14:01:46Z</time>
      </trkpt>
      <trkpt lat="44.10502" lon="7.39972">
        <ele>2194.3</ele>
        <time>2017-08-26T14:02:02Z</time>
      </trkpt>
      <trkpt lat="44.10508" lon="7.39995">
        <ele>2196</ele>
        <time>2017-08-26T14:02:19Z</time>
      </trkpt>
      <trkpt lat="44.10516" lon="7.40015">
        <ele>2197.6</ele>
        <time>2017-08-26T14:02:33Z</time>
      </trkpt>
      <trkpt lat="44.10518" lon="7.40035">
        <ele>2198.5</ele>
        <time>2017-08-26T14:02:48Z</time>
      </trkpt>
      <trkpt lat="44.10516" lon="7.40035">
        <ele>2198.8</ele>
        <time>2017-08-26T14:02:50Z</time>
      </trkpt>
      <trkpt lat="44.10509" lon="7.40035">
        <ele>2199.7</ele>
        <time>2017-08-26T14:02:56Z</time>
      </trkpt>
      <trkpt lat="44.10513" lon="7.40055">
        <ele>2202.2</ele>
        <time>2017-08-26T14:03:11Z</time>
      </trkpt>
      <trkpt lat="44.10511" lon="7.40057">
        <ele>2203.2</ele>
        <time>2017-08-26T14:03:16Z</time>
      </trkpt>
      <trkpt lat="44.10508" lon="7.40056">
        <ele>2203.8</ele>
        <time>2017-08-26T14:03:20Z</time>
      </trkpt>
      <trkpt lat="44.10507" lon="7.40056">
        <ele>2204.1</ele>
        <time>2017-08-26T14:03:21Z</time>
      </trkpt>
      <trkpt lat="44.10505" lon="7.40057">
        <ele>2205</ele>
        <time>2017-08-26T14:03:23Z</time>
      </trkpt>
      <trkpt lat="44.10501" lon="7.40054">
        <ele>2205.3</ele>
        <time>2017-08-26T14:03:26Z</time>
      </trkpt>
      <trkpt lat="44.10498" lon="7.40053">
        <ele>2206.1</ele>
        <time>2017-08-26T14:03:29Z</time>
      </trkpt>
      <trkpt lat="44.10495" lon="7.40055">
        <ele>2207.8</ele>
        <time>2017-08-26T14:03:31Z</time>
      </trkpt>
      <trkpt lat="44.1049" lon="7.40053">
        <ele>2209.3</ele>
        <time>2017-08-26T14:03:35Z</time>
      </trkpt>
      <trkpt lat="44.1048" lon="7.40051">
        <ele>2212.7</ele>
        <time>2017-08-26T14:03:44Z</time>
      </trkpt>
      <trkpt lat="44.10468" lon="7.40048">
        <ele>2216.1</ele>
        <time>2017-08-26T14:03:59Z</time>
      </trkpt>
      <trkpt lat="44.10471" lon="7.4006">
        <ele>2218.6</ele>
        <time>2017-08-26T14:04:14Z</time>
      </trkpt>
      <trkpt lat="44.10465" lon="7.40068">
        <ele>2222.1</ele>
        <time>2017-08-26T14:04:28Z</time>
      </trkpt>
      <trkpt lat="44.10456" lon="7.40057">
        <ele>2221.4</ele>
        <time>2017-08-26T14:04:46Z</time>
      </trkpt>
      <trkpt lat="44.10447" lon="7.40045">
        <ele>2222</ele>
        <time>2017-08-26T14:04:59Z</time>
      </trkpt>
      <trkpt lat="44.10444" lon="7.40039">
        <ele>2222.2</ele>
        <time>2017-08-26T14:05:10Z</time>
      </trkpt>
      <trkpt lat="44.10443" lon="7.40046">
        <ele>2223</ele>
        <time>2017-08-26T14:05:29Z</time>
      </trkpt>
      <trkpt lat="44.10441" lon="7.40047">
        <ele>2223.3</ele>
        <time>2017-08-26T14:05:46Z</time>
      </trkpt>
      <trkpt lat="44.10443" lon="7.40048">
        <ele>2223.3</ele>
        <time>2017-08-26T14:06:02Z</time>
      </trkpt>
      <trkpt lat="44.10444" lon="7.40047">
        <ele>2223.1</ele>
        <time>2017-08-26T14:06:12Z</time>
      </trkpt>
      <trkpt lat="44.10455" lon="7.40045">
        <ele>2219.5</ele>
        <time>2017-08-26T14:34:32Z</time>
      </trkpt>
      <trkpt lat="44.10455" lon="7.40046">
        <ele>2219.7</ele>
        <time>2017-08-26T14:34:33Z</time>
      </trkpt>
      <trkpt lat="44.10454" lon="7.40043">
        <ele>2219.5</ele>
        <time>2017-08-26T14:35:03Z</time>
      </trkpt>
      <trkpt lat="44.10452" lon="7.40043">
        <ele>2220.1</ele>
        <time>2017-08-26T14:35:37Z</time>
      </trkpt>
      <trkpt lat="44.10453" lon="7.40042">
        <ele>2219.6</ele>
        <time>2017-08-26T14:36:05Z</time>
      </trkpt>
      <trkpt lat="44.10453" lon="7.40042">
        <ele>2219.6</ele>
        <time>2017-08-26T14:36:34Z</time>
      </trkpt>
      <trkpt lat="44.10453" lon="7.40042">
        <ele>2219.6</ele>
        <time>2017-08-26T14:36:43Z</time>
      </trkpt>
      <trkpt lat="44.10455" lon="7.40041">
        <ele>2218.8</ele>
        <time>2017-08-26T14:44:15Z</time>
      </trkpt>
      <trkpt lat="44.10454" lon="7.40042">
        <ele>2219.3</ele>
        <time>2017-08-26T14:44:17Z</time>
      </trkpt>
      <trkpt lat="44.10452" lon="7.40044">
        <ele>2220.3</ele>
        <time>2017-08-26T14:44:22Z</time>
      </trkpt>
      <trkpt lat="44.10454" lon="7.40041">
        <ele>2219.1</ele>
        <time>2017-08-26T14:44:30Z</time>
      </trkpt>
      <trkpt lat="44.10455" lon="7.4004">
        <ele>2218.6</ele>
        <time>2017-08-26T14:44:44Z</time>
      </trkpt>
      <trkpt lat="44.10453" lon="7.40043">
        <ele>2219.8</ele>
        <time>2017-08-26T14:45:19Z</time>
      </trkpt>
      <trkpt lat="44.10454" lon="7.4004">
        <ele>2218.9</ele>
        <time>2017-08-26T14:45:56Z</time>
      </trkpt>
      <trkpt lat="44.10454" lon="7.4004">
        <ele>2218.9</ele>
        <time>2017-08-26T14:46:24Z</time>
      </trkpt>
      <trkpt lat="44.10454" lon="7.4004">
        <ele>2218.9</ele>
        <time>2017-08-26T14:46:46Z</time>
      </trkpt>
      <trkpt lat="44.10454" lon="7.4004">
        <ele>2218.9</ele>
        <time>2017-08-26T14:46:57Z</time>
      </trkpt>
    </trkseg>
  </trk>
  <trk>
    <name><![CDATA[20171017105021-22F3R]]></name>
    <trkseg>
      <trkpt lat="44.10454" lon="7.40106">
        <ele>2235.8</ele>
        <time>2017-08-27T05:59:28Z</time>
      </trkpt>
      <trkpt lat="44.10456" lon="7.40105">
        <ele>2235.1</ele>
        <time>2017-08-27T05:59:34Z</time>
      </trkpt>
      <trkpt lat="44.10464" lon="7.40106">
        <ele>2234.3</ele>
        <time>2017-08-27T05:59:44Z</time>
      </trkpt>
      <trkpt lat="44.10471" lon="7.40112">
        <ele>2235.5</ele>
        <time>2017-08-27T05:59:56Z</time>
      </trkpt>
      <trkpt lat="44.10476" lon="7.40111">
        <ele>2233.5</ele>
        <time>2017-08-27T06:00:02Z</time>
      </trkpt>
      <trkpt lat="44.10474" lon="7.40113">
        <ele>2234.9</ele>
        <time>2017-08-27T06:00:07Z</time>
      </trkpt>
      <trkpt lat="44.10473" lon="7.40114">
        <ele>2235.6</ele>
        <time>2017-08-27T06:00:09Z</time>
      </trkpt>
      <trkpt lat="44.10472" lon="7.40116">
        <ele>2236.6</ele>
        <time>2017-08-27T06:00:12Z</time>
      </trkpt>
      <trkpt lat="44.1047" lon="7.40119">
        <ele>2238</ele>
        <time>2017-08-27T06:00:15Z</time>
      </trkpt>
      <trkpt lat="44.10471" lon="7.40121">
        <ele>2238.4</ele>
        <time>2017-08-27T06:00:18Z</time>
      </trkpt>
      <trkpt lat="44.10471" lon="7.40123">
        <ele>2239.1</ele>
        <time>2017-08-27T06:00:21Z</time>
      </trkpt>
      <trkpt lat="44.10472" lon="7.40124">
        <ele>2239.2</ele>
        <time>2017-08-27T06:00:23Z</time>
      </trkpt>
      <trkpt lat="44.10473" lon="7.40124">
        <ele>2238.8</ele>
        <time>2017-08-27T06:00:24Z</time>
      </trkpt>
      <trkpt lat="44.10476" lon="7.40126">
        <ele>2238.2</ele>
        <time>2017-08-27T06:00:27Z</time>
      </trkpt>
      <trkpt lat="44.10476" lon="7.40126">
        <ele>2238.2</ele>
        <time>2017-08-27T06:00:28Z</time>
      </trkpt>
      <trkpt lat="44.10479" lon="7.40127">
        <ele>2237.2</ele>
        <time>2017-08-27T06:00:31Z</time>
      </trkpt>
      <trkpt lat="44.10481" lon="7.40128">
        <ele>2236.6</ele>
        <time>2017-08-27T06:00:32Z</time>
      </trkpt>
      <trkpt lat="44.10482" lon="7.40132">
        <ele>2237.4</ele>
        <time>2017-08-27T06:00:36Z</time>
      </trkpt>
      <trkpt lat="44.10482" lon="7.40134">
        <ele>2238</ele>
        <time>2017-08-27T06:00:40Z</time>
      </trkpt>
      <trkpt lat="44.10482" lon="7.40135">
        <ele>2238.3</ele>
        <time>2017-08-27T06:00:41Z</time>
      </trkpt>
      <trkpt lat="44.1048" lon="7.40138">
        <ele>2240.1</ele>
        <time>2017-08-27T06:00:47Z</time>
      </trkpt>
      <trkpt lat="44.10479" lon="7.4014">
        <ele>2241</ele>
        <time>2017-08-27T06:00:50Z</time>
      </trkpt>
      <trkpt lat="44.10478" lon="7.40142">
        <ele>2241.8</ele>
        <time>2017-08-27T06:00:54Z</time>
      </trkpt>
      <trkpt lat="44.10476" lon="7.40147">
        <ele>2243.7</ele>
        <time>2017-08-27T06:01:03Z</time>
      </trkpt>
      <trkpt lat="44.10473" lon="7.40157">
        <ele>2246.9</ele>
        <time>2017-08-27T06:01:15Z</time>
      </trkpt>
      <trkpt lat="44.10473" lon="7.40158">
        <ele>2247.1</ele>
        <time>2017-08-27T06:01:16Z</time>
      </trkpt>
      <trkpt lat="44.10474" lon="7.4017">
        <ele>2248.1</ele>
        <time>2017-08-27T06:01:28Z</time>
      </trkpt>
      <trkpt lat="44.10473" lon="7.40179">
        <ele>2248.6</ele>
        <time>2017-08-27T06:01:35Z</time>
      </trkpt>
      <trkpt lat="44.10472" lon="7.40195">
        <ele>2249</ele>
        <time>2017-08-27T06:01:47Z</time>
      </trkpt>
      <trkpt lat="44.10475" lon="7.4021">
        <ele>2247</ele>
        <time>2017-08-27T06:01:59Z</time>
      </trkpt>
      <trkpt lat="44.1047" lon="7.40236">
        <ele>2247.1</ele>
        <time>2017-08-27T06:02:16Z</time>
      </trkpt>
      <trkpt lat="44.10464" lon="7.40257">
        <ele>2247.3</ele>
        <time>2017-08-27T06:02:30Z</time>
      </trkpt>
      <trkpt lat="44.10461" lon="7.40263">
        <ele>2247.5</ele>
        <time>2017-08-27T06:02:35Z</time>
      </trkpt>
      <trkpt lat="44.1046" lon="7.40266">
        <ele>2247.4</ele>
        <time>2017-08-27T06:02:37Z</time>
      </trkpt>
      <trkpt lat="44.10459" lon="7.40273">
        <ele>2247.2</ele>
        <time>2017-08-27T06:02:43Z</time>
      </trkpt>
      <trkpt lat="44.10458" lon="7.40282">
        <ele>2246.6</ele>
        <time>2017-08-27T06:02:58Z</time>
      </trkpt>
      <trkpt lat="44.10457" lon="7.40284">
        <ele>2246.5</ele>
        <time>2017-08-27T06:03:25Z</time>
      </trkpt>
      <trkpt lat="44.10456" lon="7.4029">
        <ele>2246</ele>
        <time>2017-08-27T06:03:30Z</time>
      </trkpt>
      <trkpt lat="44.10456" lon="7.40294">
        <ele>2245.6</ele>
        <time>2017-08-27T06:03:33Z</time>
      </trkpt>
      <trkpt lat="44.10453" lon="7.40311">
        <ele>2243.9</ele>
        <time>2017-08-27T06:03:46Z</time>
      </trkpt>
      <trkpt lat="44.1045" lon="7.40318">
        <ele>2243</ele>
        <time>2017-08-27T06:03:59Z</time>
      </trkpt>
      <trkpt lat="44.10449" lon="7.40321">
        <ele>2242.6</ele>
        <time>2017-08-27T06:04:10Z</time>
      </trkpt>
      <trkpt lat="44.10443" lon="7.4033">
        <ele>2240.1</ele>
        <time>2017-08-27T06:04:18Z</time>
      </trkpt>
      <trkpt lat="44.10439" lon="7.40332">
        <ele>2238.8</ele>
        <time>2017-08-27T06:04:22Z</time>
      </trkpt>
      <trkpt lat="44.10428" lon="7.40356">
        <ele>2235.9</ele>
        <time>2017-08-27T06:04:40Z</time>
      </trkpt>
      <trkpt lat="44.10426" lon="7.40356">
        <ele>2235.4</ele>
        <time>2017-08-27T06:04:42Z</time>
      </trkpt>
      <trkpt lat="44.10409" lon="7.40354">
        <ele>2234.3</ele>
        <time>2017-08-27T06:04:57Z</time>
      </trkpt>
      <trkpt lat="44.10407" lon="7.40353">
        <ele>2234.6</ele>
        <time>2017-08-27T06:04:59Z</time>
      </trkpt>
      <trkpt lat="44.10402" lon="7.4036">
        <ele>2235.6</ele>
        <time>2017-08-27T06:05:08Z</time>
      </trkpt>
      <trkpt lat="44.10398" lon="7.40362">
        <ele>2236.4</ele>
        <time>2017-08-27T06:05:14Z</time>
      </trkpt>
      <trkpt lat="44.10391" lon="7.40361">
        <ele>2237.6</ele>
        <time>2017-08-27T06:05:25Z</time>
      </trkpt>
      <trkpt lat="44.10381" lon="7.40358">
        <ele>2241.3</ele>
        <time>2017-08-27T06:05:38Z</time>
      </trkpt>
      <trkpt lat="44.10378" lon="7.40368">
        <ele>2243.6</ele>
        <time>2017-08-27T06:05:52Z</time>
      </trkpt>
      <trkpt lat="44.10375" lon="7.40374">
        <ele>2245.9</ele>
        <time>2017-08-27T06:06:05Z</time>
      </trkpt>
      <trkpt lat="44.10374" lon="7.40378">
        <ele>2246.9</ele>
        <time>2017-08-27T06:06:18Z</time>
      </trkpt>
      <trkpt lat="44.1037" lon="7.40385">
        <ele>2249.9</ele>
        <time>2017-08-27T06:06:31Z</time>
      </trkpt>
      <trkpt lat="44.10363" lon="7.40392">
        <ele>2254.6</ele>
        <time>2017-08-27T06:06:47Z</time>
      </trkpt>
      <trkpt lat="44.10358" lon="7.404">
        <ele>2258.3</ele>
        <time>2017-08-27T06:07:01Z</time>
      </trkpt>
      <trkpt lat="44.10355" lon="7.40403">
        <ele>2260.1</ele>
        <time>2017-08-27T06:07:17Z</time>
      </trkpt>
      <trkpt lat="44.1035" lon="7.40411">
        <ele>2263.2</ele>
        <time>2017-08-27T06:07:30Z</time>
      </trkpt>
      <trkpt lat="44.10345" lon="7.40419">
        <ele>2265.8</ele>
        <time>2017-08-27T06:07:41Z</time>
      </trkpt>
      <trkpt lat="44.10345" lon="7.40436">
        <ele>2265.4</ele>
        <time>2017-08-27T06:07:55Z</time>
      </trkpt>
      <trkpt lat="44.10345" lon="7.40448">
        <ele>2264.8</ele>
        <time>2017-08-27T06:08:08Z</time>
      </trkpt>
      <trkpt lat="44.10344" lon="7.40453">
        <ele>2264.6</ele>
        <time>2017-08-27T06:08:15Z</time>
      </trkpt>
      <trkpt lat="44.10343" lon="7.40459">
        <ele>2264.3</ele>
        <time>2017-08-27T06:08:20Z</time>
      </trkpt>
      <trkpt lat="44.10342" lon="7.40474">
        <ele>2262.8</ele>
        <time>2017-08-27T06:08:34Z</time>
      </trkpt>
      <trkpt lat="44.10344" lon="7.40488">
        <ele>2259.6</ele>
        <time>2017-08-27T06:08:47Z</time>
      </trkpt>
      <trkpt lat="44.10343" lon="7.40489">
        <ele>2259.7</ele>
        <time>2017-08-27T06:08:48Z</time>
      </trkpt>
      <trkpt lat="44.10338" lon="7.40506">
        <ele>2258.4</ele>
        <time>2017-08-27T06:09:02Z</time>
      </trkpt>
      <trkpt lat="44.10329" lon="7.40519">
        <ele>2260.3</ele>
        <time>2017-08-27T06:09:16Z</time>
      </trkpt>
      <trkpt lat="44.10324" lon="7.40527">
        <ele>2261.4</ele>
        <time>2017-08-27T06:09:29Z</time>
      </trkpt>
      <trkpt lat="44.10326" lon="7.40539">
        <ele>2260.2</ele>
        <time>2017-08-27T06:09:41Z</time>
      </trkpt>
      <trkpt lat="44.10323" lon="7.40547">
        <ele>2261</ele>
        <time>2017-08-27T06:09:49Z</time>
      </trkpt>
      <trkpt lat="44.10322" lon="7.40549">
        <ele>2261.3</ele>
        <time>2017-08-27T06:09:51Z</time>
      </trkpt>
      <trkpt lat="44.1032" lon="7.40552">
        <ele>2261.9</ele>
        <time>2017-08-27T06:09:54Z</time>
      </trkpt>
      <trkpt lat="44.10319" lon="7.40555">
        <ele>2262.2</ele>
        <time>2017-08-27T06:09:56Z</time>
      </trkpt>
      <trkpt lat="44.10312" lon="7.40567">
        <ele>2264.6</ele>
        <time>2017-08-27T06:10:09Z</time>
      </trkpt>
      <trkpt lat="44.1031" lon="7.40572">
        <ele>2265.3</ele>
        <time>2017-08-27T06:10:15Z</time>
      </trkpt>
      <trkpt lat="44.10305" lon="7.40582">
        <ele>2267.3</ele>
        <time>2017-08-27T06:10:26Z</time>
      </trkpt>
      <trkpt lat="44.10305" lon="7.40594">
        <ele>2268</ele>
        <time>2017-08-27T06:10:35Z</time>
      </trkpt>
      <trkpt lat="44.10301" lon="7.40607">
        <ele>2270.9</ele>
        <time>2017-08-27T06:10:48Z</time>
      </trkpt>
      <trkpt lat="44.10303" lon="7.40619">
        <ele>2271.6</ele>
        <time>2017-08-27T06:11:01Z</time>
      </trkpt>
      <trkpt lat="44.10301" lon="7.40627">
        <ele>2273.9</ele>
        <time>2017-08-27T06:11:13Z</time>
      </trkpt>
      <trkpt lat="44.10298" lon="7.40629">
        <ele>2275.6</ele>
        <time>2017-08-27T06:11:25Z</time>
      </trkpt>
      <trkpt lat="44.10299" lon="7.4063">
        <ele>2275.3</ele>
        <time>2017-08-27T06:11:28Z</time>
      </trkpt>
      <trkpt lat="44.10296" lon="7.40633">
        <ele>2277.1</ele>
        <time>2017-08-27T06:11:48Z</time>
      </trkpt>
      <trkpt lat="44.1029" lon="7.40634">
        <ele>2279.9</ele>
        <time>2017-08-27T06:12:04Z</time>
      </trkpt>
      <trkpt lat="44.10289" lon="7.40641">
        <ele>2281.7</ele>
        <time>2017-08-27T06:12:16Z</time>
      </trkpt>
      <trkpt lat="44.1029" lon="7.40646">
        <ele>2282.6</ele>
        <time>2017-08-27T06:12:29Z</time>
      </trkpt>
      <trkpt lat="44.10297" lon="7.40652">
        <ele>2281.5</ele>
        <time>2017-08-27T06:12:43Z</time>
      </trkpt>
      <trkpt lat="44.10297" lon="7.40662">
        <ele>2284.4</ele>
        <time>2017-08-27T06:12:58Z</time>
      </trkpt>
      <trkpt lat="44.10306" lon="7.40667">
        <ele>2283</ele>
        <time>2017-08-27T06:13:11Z</time>
      </trkpt>
      <trkpt lat="44.10313" lon="7.40678">
        <ele>2283.7</ele>
        <time>2017-08-27T06:13:24Z</time>
      </trkpt>
      <trkpt lat="44.10314" lon="7.40679">
        <ele>2283.6</ele>
        <time>2017-08-27T06:13:26Z</time>
      </trkpt>
      <trkpt lat="44.10317" lon="7.40692">
        <ele>2285.6</ele>
        <time>2017-08-27T06:13:37Z</time>
      </trkpt>
      <trkpt lat="44.10318" lon="7.407">
        <ele>2286.3</ele>
        <time>2017-08-27T06:13:48Z</time>
      </trkpt>
      <trkpt lat="44.10314" lon="7.40708">
        <ele>2289.4</ele>
        <time>2017-08-27T06:13:59Z</time>
      </trkpt>
      <trkpt lat="44.10311" lon="7.4072">
        <ele>2293</ele>
        <time>2017-08-27T06:14:12Z</time>
      </trkpt>
      <trkpt lat="44.1031" lon="7.40726">
        <ele>2294.2</ele>
        <time>2017-08-27T06:14:24Z</time>
      </trkpt>
      <trkpt lat="44.1031" lon="7.40726">
        <ele>2294.2</ele>
        <time>2017-08-27T06:14:54Z</time>
      </trkpt>
      <trkpt lat="44.1031" lon="7.40726">
        <ele>2294.2</ele>
        <time>2017-08-27T06:15:01Z</time>
      </trkpt>
      <trkpt lat="44.10312" lon="7.40726">
        <ele>2292.8</ele>
        <time>2017-08-27T06:15:15Z</time>
      </trkpt>
      <trkpt lat="44.10312" lon="7.40726">
        <ele>2292.8</ele>
        <time>2017-08-27T06:15:40Z</time>
      </trkpt>
      <trkpt lat="44.10309" lon="7.40736">
        <ele>2295.3</ele>
        <time>2017-08-27T06:15:50Z</time>
      </trkpt>
      <trkpt lat="44.10309" lon="7.40755">
        <ele>2296.7</ele>
        <time>2017-08-27T06:16:03Z</time>
      </trkpt>
      <trkpt lat="44.10309" lon="7.40767">
        <ele>2298.5</ele>
        <time>2017-08-27T06:16:17Z</time>
      </trkpt>
      <trkpt lat="44.10311" lon="7.40786">
        <ele>2300.3</ele>
        <time>2017-08-27T06:16:34Z</time>
      </trkpt>
      <trkpt lat="44.10316" lon="7.40799">
        <ele>2300.2</ele>
        <time>2017-08-27T06:16:46Z</time>
      </trkpt>
      <trkpt lat="44.10312" lon="7.40804">
        <ele>2302.9</ele>
        <time>2017-08-27T06:16:58Z</time>
      </trkpt>
      <trkpt lat="44.10309" lon="7.40801">
        <ele>2303.8</ele>
        <time>2017-08-27T06:17:11Z</time>
      </trkpt>
      <trkpt lat="44.10305" lon="7.40799">
        <ele>2305.2</ele>
        <time>2017-08-27T06:17:23Z</time>
      </trkpt>
      <trkpt lat="44.10304" lon="7.40805">
        <ele>2306.3</ele>
        <time>2017-08-27T06:17:33Z</time>
      </trkpt>
      <trkpt lat="44.10301" lon="7.40808">
        <ele>2307.8</ele>
        <time>2017-08-27T06:17:50Z</time>
      </trkpt>
      <trkpt lat="44.10297" lon="7.40804">
        <ele>2308</ele>
        <time>2017-08-27T06:18:03Z</time>
      </trkpt>
      <trkpt lat="44.10296" lon="7.40804">
        <ele>2308.2</ele>
        <time>2017-08-27T06:18:05Z</time>
      </trkpt>
      <trkpt lat="44.10291" lon="7.40801">
        <ele>2309.2</ele>
        <time>2017-08-27T06:18:20Z</time>
      </trkpt>
      <trkpt lat="44.10294" lon="7.40788">
        <ele>2306.9</ele>
        <time>2017-08-27T06:18:32Z</time>
      </trkpt>
      <trkpt lat="44.10284" lon="7.40786">
        <ele>2309.7</ele>
        <time>2017-08-27T06:18:44Z</time>
      </trkpt>
      <trkpt lat="44.10274" lon="7.40786">
        <ele>2313</ele>
        <time>2017-08-27T06:18:58Z</time>
      </trkpt>
      <trkpt lat="44.1027" lon="7.40775">
        <ele>2313.3</ele>
        <time>2017-08-27T06:19:11Z</time>
      </trkpt>
      <trkpt lat="44.10265" lon="7.4077">
        <ele>2314.3</ele>
        <time>2017-08-27T06:19:24Z</time>
      </trkpt>
      <trkpt lat="44.10256" lon="7.40767">
        <ele>2316.7</ele>
        <time>2017-08-27T06:19:39Z</time>
      </trkpt>
      <trkpt lat="44.10249" lon="7.40764">
        <ele>2318.3</ele>
        <time>2017-08-27T06:19:52Z</time>
      </trkpt>
      <trkpt lat="44.10244" lon="7.40767">
        <ele>2320.1</ele>
        <time>2017-08-27T06:20:05Z</time>
      </trkpt>
      <trkpt lat="44.10236" lon="7.40773">
        <ele>2323.3</ele>
        <time>2017-08-27T06:20:18Z</time>
      </trkpt>
      <trkpt lat="44.10229" lon="7.40781">
        <ele>2326.8</ele>
        <time>2017-08-27T06:20:33Z</time>
      </trkpt>
      <trkpt lat="44.10222" lon="7.4079">
        <ele>2331.1</ele>
        <time>2017-08-27T06:20:49Z</time>
      </trkpt>
      <trkpt lat="44.1021" lon="7.40793">
        <ele>2334.6</ele>
        <time>2017-08-27T06:21:02Z</time>
      </trkpt>
      <trkpt lat="44.10205" lon="7.408">
        <ele>2336.7</ele>
        <time>2017-08-27T06:21:16Z</time>
      </trkpt>
      <trkpt lat="44.10204" lon="7.40801">
        <ele>2337</ele>
        <time>2017-08-27T06:21:18Z</time>
      </trkpt>
      <trkpt lat="44.10202" lon="7.40804">
        <ele>2337.7</ele>
        <time>2017-08-27T06:21:21Z</time>
      </trkpt>
      <trkpt lat="44.10193" lon="7.40818">
        <ele>2339.3</ele>
        <time>2017-08-27T06:21:36Z</time>
      </trkpt>
      <trkpt lat="44.10193" lon="7.40819">
        <ele>2339.2</ele>
        <time>2017-08-27T06:21:37Z</time>
      </trkpt>
      <trkpt lat="44.10189" lon="7.40834">
        <ele>2341</ele>
        <time>2017-08-27T06:21:52Z</time>
      </trkpt>
      <trkpt lat="44.10186" lon="7.40845">
        <ele>2343.9</ele>
        <time>2017-08-27T06:22:04Z</time>
      </trkpt>
      <trkpt lat="44.10187" lon="7.40854">
        <ele>2344.4</ele>
        <time>2017-08-27T06:22:18Z</time>
      </trkpt>
      <trkpt lat="44.10186" lon="7.40861">
        <ele>2345.6</ele>
        <time>2017-08-27T06:22:32Z</time>
      </trkpt>
      <trkpt lat="44.1018" lon="7.40862">
        <ele>2348.4</ele>
        <time>2017-08-27T06:22:43Z</time>
      </trkpt>
      <trkpt lat="44.10179" lon="7.40868">
        <ele>2350</ele>
        <time>2017-08-27T06:22:55Z</time>
      </trkpt>
      <trkpt lat="44.10176" lon="7.40873">
        <ele>2352</ele>
        <time>2017-08-27T06:23:10Z</time>
      </trkpt>
      <trkpt lat="44.10175" lon="7.40883">
        <ele>2353.9</ele>
        <time>2017-08-27T06:23:26Z</time>
      </trkpt>
      <trkpt lat="44.10174" lon="7.40891">
        <ele>2355.7</ele>
        <time>2017-08-27T06:23:39Z</time>
      </trkpt>
      <trkpt lat="44.10176" lon="7.40898">
        <ele>2357.1</ele>
        <time>2017-08-27T06:23:53Z</time>
      </trkpt>
      <trkpt lat="44.10174" lon="7.40903">
        <ele>2358.7</ele>
        <time>2017-08-27T06:24:06Z</time>
      </trkpt>
      <trkpt lat="44.10172" lon="7.40906">
        <ele>2359.8</ele>
        <time>2017-08-27T06:24:17Z</time>
      </trkpt>
      <trkpt lat="44.10169" lon="7.40902">
        <ele>2359.4</ele>
        <time>2017-08-27T06:24:24Z</time>
      </trkpt>
      <trkpt lat="44.10162" lon="7.409">
        <ele>2359.6</ele>
        <time>2017-08-27T06:24:32Z</time>
      </trkpt>
      <trkpt lat="44.10149" lon="7.40902">
        <ele>2360.5</ele>
        <time>2017-08-27T06:24:46Z</time>
      </trkpt>
      <trkpt lat="44.10143" lon="7.40908">
        <ele>2361.3</ele>
        <time>2017-08-27T06:24:56Z</time>
      </trkpt>
      <trkpt lat="44.10141" lon="7.40912">
        <ele>2361.7</ele>
        <time>2017-08-27T06:25:10Z</time>
      </trkpt>
      <trkpt lat="44.10141" lon="7.40912">
        <ele>2361.7</ele>
        <time>2017-08-27T06:25:37Z</time>
      </trkpt>
      <trkpt lat="44.1014" lon="7.40911">
        <ele>2361.6</ele>
        <time>2017-08-27T06:26:15Z</time>
      </trkpt>
      <trkpt lat="44.10141" lon="7.40912">
        <ele>2361.7</ele>
        <time>2017-08-27T06:26:53Z</time>
      </trkpt>
      <trkpt lat="44.10141" lon="7.40913">
        <ele>2361.8</ele>
        <time>2017-08-27T06:27:19Z</time>
      </trkpt>
      <trkpt lat="44.10141" lon="7.4092">
        <ele>2362.4</ele>
        <time>2017-08-27T06:27:36Z</time>
      </trkpt>
      <trkpt lat="44.1014" lon="7.40922">
        <ele>2362.5</ele>
        <time>2017-08-27T06:27:54Z</time>
      </trkpt>
      <trkpt lat="44.1014" lon="7.40922">
        <ele>2362.5</ele>
        <time>2017-08-27T06:28:23Z</time>
      </trkpt>
      <trkpt lat="44.10141" lon="7.40925">
        <ele>2362.8</ele>
        <time>2017-08-27T06:28:39Z</time>
      </trkpt>
      <trkpt lat="44.10143" lon="7.40933">
        <ele>2363.9</ele>
        <time>2017-08-27T06:28:47Z</time>
      </trkpt>
      <trkpt lat="44.10141" lon="7.40949">
        <ele>2364.3</ele>
        <time>2017-08-27T06:29:00Z</time>
      </trkpt>
      <trkpt lat="44.10142" lon="7.40957">
        <ele>2364.1</ele>
        <time>2017-08-27T06:29:06Z</time>
      </trkpt>
      <trkpt lat="44.10141" lon="7.40969">
        <ele>2363</ele>
        <time>2017-08-27T06:29:17Z</time>
      </trkpt>
      <trkpt lat="44.10139" lon="7.40976">
        <ele>2362</ele>
        <time>2017-08-27T06:29:23Z</time>
      </trkpt>
      <trkpt lat="44.10139" lon="7.40997">
        <ele>2362</ele>
        <time>2017-08-27T06:29:38Z</time>
      </trkpt>
      <trkpt lat="44.10139" lon="7.41">
        <ele>2362</ele>
        <time>2017-08-27T06:29:51Z</time>
      </trkpt>
      <trkpt lat="44.10137" lon="7.41003">
        <ele>2362.1</ele>
        <time>2017-08-27T06:29:53Z</time>
      </trkpt>
      <trkpt lat="44.1013" lon="7.41012">
        <ele>2361.9</ele>
        <time>2017-08-27T06:30:06Z</time>
      </trkpt>
      <trkpt lat="44.10124" lon="7.41019">
        <ele>2361.3</ele>
        <time>2017-08-27T06:30:18Z</time>
      </trkpt>
      <trkpt lat="44.10124" lon="7.41025">
        <ele>2362</ele>
        <time>2017-08-27T06:30:22Z</time>
      </trkpt>
      <trkpt lat="44.10118" lon="7.41047">
        <ele>2360.7</ele>
        <time>2017-08-27T06:30:36Z</time>
      </trkpt>
      <trkpt lat="44.10112" lon="7.41063">
        <ele>2360</ele>
        <time>2017-08-27T06:30:48Z</time>
      </trkpt>
      <trkpt lat="44.10111" lon="7.41065">
        <ele>2360</ele>
        <time>2017-08-27T06:30:50Z</time>
      </trkpt>
      <trkpt lat="44.10107" lon="7.41079">
        <ele>2360.9</ele>
        <time>2017-08-27T06:31:00Z</time>
      </trkpt>
      <trkpt lat="44.10102" lon="7.41084">
        <ele>2360.7</ele>
        <time>2017-08-27T06:31:07Z</time>
      </trkpt>
      <trkpt lat="44.10101" lon="7.41086">
        <ele>2360.7</ele>
        <time>2017-08-27T06:31:09Z</time>
      </trkpt>
      <trkpt lat="44.10099" lon="7.41093">
        <ele>2361</ele>
        <time>2017-08-27T06:31:15Z</time>
      </trkpt>
      <trkpt lat="44.10097" lon="7.41107">
        <ele>2361.7</ele>
        <time>2017-08-27T06:31:29Z</time>
      </trkpt>
      <trkpt lat="44.10093" lon="7.41124">
        <ele>2363.1</ele>
        <time>2017-08-27T06:31:43Z</time>
      </trkpt>
      <trkpt lat="44.10092" lon="7.41135">
        <ele>2364.4</ele>
        <time>2017-08-27T06:31:51Z</time>
      </trkpt>
      <trkpt lat="44.10094" lon="7.41149">
        <ele>2365.4</ele>
        <time>2017-08-27T06:32:05Z</time>
      </trkpt>
      <trkpt lat="44.10098" lon="7.41159">
        <ele>2366.6</ele>
        <time>2017-08-27T06:32:18Z</time>
      </trkpt>
      <trkpt lat="44.10097" lon="7.41172">
        <ele>2366.6</ele>
        <time>2017-08-27T06:32:28Z</time>
      </trkpt>
      <trkpt lat="44.10094" lon="7.41189">
        <ele>2366.7</ele>
        <time>2017-08-27T06:32:43Z</time>
      </trkpt>
      <trkpt lat="44.10095" lon="7.4119">
        <ele>2366.9</ele>
        <time>2017-08-27T06:32:44Z</time>
      </trkpt>
      <trkpt lat="44.10104" lon="7.41209">
        <ele>2369.9</ele>
        <time>2017-08-27T06:32:59Z</time>
      </trkpt>
      <trkpt lat="44.10108" lon="7.41222">
        <ele>2371.5</ele>
        <time>2017-08-27T06:33:12Z</time>
      </trkpt>
      <trkpt lat="44.10106" lon="7.41233">
        <ele>2371.5</ele>
        <time>2017-08-27T06:33:25Z</time>
      </trkpt>
      <trkpt lat="44.10108" lon="7.41245">
        <ele>2371.9</ele>
        <time>2017-08-27T06:33:37Z</time>
      </trkpt>
      <trkpt lat="44.10114" lon="7.41261">
        <ele>2372.8</ele>
        <time>2017-08-27T06:33:53Z</time>
      </trkpt>
      <trkpt lat="44.10115" lon="7.41265">
        <ele>2373</ele>
        <time>2017-08-27T06:33:56Z</time>
      </trkpt>
      <trkpt lat="44.10116" lon="7.41267">
        <ele>2373.3</ele>
        <time>2017-08-27T06:33:58Z</time>
      </trkpt>
      <trkpt lat="44.10117" lon="7.41269">
        <ele>2373.6</ele>
        <time>2017-08-27T06:34:00Z</time>
      </trkpt>
      <trkpt lat="44.1012" lon="7.41287">
        <ele>2374</ele>
        <time>2017-08-27T06:34:12Z</time>
      </trkpt>
      <trkpt lat="44.1012" lon="7.41309">
        <ele>2373.3</ele>
        <time>2017-08-27T06:34:28Z</time>
      </trkpt>
      <trkpt lat="44.10122" lon="7.41318">
        <ele>2373.4</ele>
        <time>2017-08-27T06:34:36Z</time>
      </trkpt>
      <trkpt lat="44.10124" lon="7.41338">
        <ele>2372.9</ele>
        <time>2017-08-27T06:34:51Z</time>
      </trkpt>
      <trkpt lat="44.10123" lon="7.41361">
        <ele>2371.7</ele>
        <time>2017-08-27T06:35:06Z</time>
      </trkpt>
      <trkpt lat="44.10122" lon="7.41367">
        <ele>2371.2</ele>
        <time>2017-08-27T06:35:11Z</time>
      </trkpt>
      <trkpt lat="44.10124" lon="7.4138">
        <ele>2371.8</ele>
        <time>2017-08-27T06:35:20Z</time>
      </trkpt>
      <trkpt lat="44.10125" lon="7.41397">
        <ele>2372</ele>
        <time>2017-08-27T06:35:31Z</time>
      </trkpt>
      <trkpt lat="44.10127" lon="7.41399">
        <ele>2372.7</ele>
        <time>2017-08-27T06:35:33Z</time>
      </trkpt>
      <trkpt lat="44.10126" lon="7.41409">
        <ele>2372.4</ele>
        <time>2017-08-27T06:35:40Z</time>
      </trkpt>
      <trkpt lat="44.1013" lon="7.41428">
        <ele>2373.8</ele>
        <time>2017-08-27T06:35:55Z</time>
      </trkpt>
      <trkpt lat="44.10131" lon="7.41432">
        <ele>2374.2</ele>
        <time>2017-08-27T06:35:58Z</time>
      </trkpt>
      <trkpt lat="44.10136" lon="7.4145">
        <ele>2376.2</ele>
        <time>2017-08-27T06:36:12Z</time>
      </trkpt>
      <trkpt lat="44.10136" lon="7.41457">
        <ele>2376.4</ele>
        <time>2017-08-27T06:36:16Z</time>
      </trkpt>
      <trkpt lat="44.10134" lon="7.41464">
        <ele>2375.9</ele>
        <time>2017-08-27T06:36:21Z</time>
      </trkpt>
      <trkpt lat="44.10133" lon="7.41475">
        <ele>2376</ele>
        <time>2017-08-27T06:36:29Z</time>
      </trkpt>
      <trkpt lat="44.1013" lon="7.41487">
        <ele>2375.2</ele>
        <time>2017-08-27T06:36:45Z</time>
      </trkpt>
      <trkpt lat="44.10128" lon="7.41499">
        <ele>2374.7</ele>
        <time>2017-08-27T06:36:59Z</time>
      </trkpt>
      <trkpt lat="44.10129" lon="7.41527">
        <ele>2375.7</ele>
        <time>2017-08-27T06:37:17Z</time>
      </trkpt>
      <trkpt lat="44.10132" lon="7.41549">
        <ele>2377.2</ele>
        <time>2017-08-27T06:37:33Z</time>
      </trkpt>
      <trkpt lat="44.1013" lon="7.41556">
        <ele>2376.5</ele>
        <time>2017-08-27T06:37:37Z</time>
      </trkpt>
      <trkpt lat="44.10128" lon="7.41564">
        <ele>2375.9</ele>
        <time>2017-08-27T06:37:42Z</time>
      </trkpt>
      <trkpt lat="44.10128" lon="7.41566">
        <ele>2375.9</ele>
        <time>2017-08-27T06:37:43Z</time>
      </trkpt>
      <trkpt lat="44.10126" lon="7.41585">
        <ele>2375.6</ele>
        <time>2017-08-27T06:37:55Z</time>
      </trkpt>
      <trkpt lat="44.10126" lon="7.41603">
        <ele>2376.8</ele>
        <time>2017-08-27T06:38:09Z</time>
      </trkpt>
      <trkpt lat="44.10123" lon="7.41616">
        <ele>2376.6</ele>
        <time>2017-08-27T06:38:22Z</time>
      </trkpt>
      <trkpt lat="44.10122" lon="7.41621">
        <ele>2376.6</ele>
        <time>2017-08-27T06:38:26Z</time>
      </trkpt>
      <trkpt lat="44.10125" lon="7.41634">
        <ele>2379.1</ele>
        <time>2017-08-27T06:38:40Z</time>
      </trkpt>
      <trkpt lat="44.10123" lon="7.41647">
        <ele>2379.6</ele>
        <time>2017-08-27T06:38:52Z</time>
      </trkpt>
      <trkpt lat="44.10122" lon="7.41651">
        <ele>2379.6</ele>
        <time>2017-08-27T06:38:58Z</time>
      </trkpt>
      <trkpt lat="44.1012" lon="7.41654">
        <ele>2379.2</ele>
        <time>2017-08-27T06:39:02Z</time>
      </trkpt>
      <trkpt lat="44.10118" lon="7.41664">
        <ele>2379.4</ele>
        <time>2017-08-27T06:39:14Z</time>
      </trkpt>
      <trkpt lat="44.10119" lon="7.41675">
        <ele>2381.4</ele>
        <time>2017-08-27T06:39:31Z</time>
      </trkpt>
      <trkpt lat="44.10122" lon="7.4168">
        <ele>2383.4</ele>
        <time>2017-08-27T06:39:45Z</time>
      </trkpt>
      <trkpt lat="44.10113" lon="7.41687">
        <ele>2380.7</ele>
        <time>2017-08-27T06:40:07Z</time>
      </trkpt>
      <trkpt lat="44.10103" lon="7.41701">
        <ele>2380.1</ele>
        <time>2017-08-27T06:40:21Z</time>
      </trkpt>
      <trkpt lat="44.10103" lon="7.41705">
        <ele>2380.7</ele>
        <time>2017-08-27T06:40:23Z</time>
      </trkpt>
      <trkpt lat="44.10103" lon="7.41709">
        <ele>2381.2</ele>
        <time>2017-08-27T06:40:26Z</time>
      </trkpt>
      <trkpt lat="44.10102" lon="7.4172">
        <ele>2382.4</ele>
        <time>2017-08-27T06:40:38Z</time>
      </trkpt>
      <trkpt lat="44.10101" lon="7.41722">
        <ele>2382.4</ele>
        <time>2017-08-27T06:40:40Z</time>
      </trkpt>
      <trkpt lat="44.10097" lon="7.4173">
        <ele>2382.1</ele>
        <time>2017-08-27T06:40:46Z</time>
      </trkpt>
      <trkpt lat="44.10093" lon="7.41745">
        <ele>2382.4</ele>
        <time>2017-08-27T06:40:58Z</time>
      </trkpt>
      <trkpt lat="44.10092" lon="7.41756">
        <ele>2382.8</ele>
        <time>2017-08-27T06:41:09Z</time>
      </trkpt>
      <trkpt lat="44.10091" lon="7.4177">
        <ele>2383.3</ele>
        <time>2017-08-27T06:41:21Z</time>
      </trkpt>
      <trkpt lat="44.1009" lon="7.4178">
        <ele>2383.4</ele>
        <time>2017-08-27T06:41:32Z</time>
      </trkpt>
      <trkpt lat="44.10087" lon="7.41784">
        <ele>2382.3</ele>
        <time>2017-08-27T06:41:48Z</time>
      </trkpt>
      <trkpt lat="44.10085" lon="7.41801">
        <ele>2381.7</ele>
        <time>2017-08-27T06:42:03Z</time>
      </trkpt>
      <trkpt lat="44.10082" lon="7.41813">
        <ele>2380.5</ele>
        <time>2017-08-27T06:42:16Z</time>
      </trkpt>
      <trkpt lat="44.10082" lon="7.41821">
        <ele>2380.2</ele>
        <time>2017-08-27T06:42:28Z</time>
      </trkpt>
      <trkpt lat="44.1008" lon="7.41831">
        <ele>2379.5</ele>
        <time>2017-08-27T06:42:40Z</time>
      </trkpt>
      <trkpt lat="44.10079" lon="7.41832">
        <ele>2379.3</ele>
        <time>2017-08-27T06:42:42Z</time>
      </trkpt>
      <trkpt lat="44.10072" lon="7.41844">
        <ele>2377.3</ele>
        <time>2017-08-27T06:42:55Z</time>
      </trkpt>
      <trkpt lat="44.10061" lon="7.41851">
        <ele>2375.2</ele>
        <time>2017-08-27T06:43:08Z</time>
      </trkpt>
      <trkpt lat="44.10053" lon="7.41852">
        <ele>2374.5</ele>
        <time>2017-08-27T06:43:17Z</time>
      </trkpt>
      <trkpt lat="44.10042" lon="7.41859">
        <ele>2375</ele>
        <time>2017-08-27T06:43:31Z</time>
      </trkpt>
      <trkpt lat="44.10039" lon="7.41874">
        <ele>2375.2</ele>
        <time>2017-08-27T06:43:46Z</time>
      </trkpt>
      <trkpt lat="44.10038" lon="7.4188">
        <ele>2375.3</ele>
        <time>2017-08-27T06:43:51Z</time>
      </trkpt>
      <trkpt lat="44.10029" lon="7.41891">
        <ele>2375.8</ele>
        <time>2017-08-27T06:44:04Z</time>
      </trkpt>
      <trkpt lat="44.1002" lon="7.41895">
        <ele>2376.6</ele>
        <time>2017-08-27T06:44:18Z</time>
      </trkpt>
      <trkpt lat="44.1002" lon="7.41895">
        <ele>2376.6</ele>
        <time>2017-08-27T06:44:42Z</time>
      </trkpt>
      <trkpt lat="44.10016" lon="7.41903">
        <ele>2376.8</ele>
        <time>2017-08-27T06:44:55Z</time>
      </trkpt>
      <trkpt lat="44.10008" lon="7.41911">
        <ele>2377.3</ele>
        <time>2017-08-27T06:45:07Z</time>
      </trkpt>
      <trkpt lat="44.10002" lon="7.41914">
        <ele>2377.9</ele>
        <time>2017-08-27T06:45:14Z</time>
      </trkpt>
      <trkpt lat="44.09994" lon="7.41915">
        <ele>2378.3</ele>
        <time>2017-08-27T06:45:20Z</time>
      </trkpt>
      <trkpt lat="44.09989" lon="7.41923">
        <ele>2378.5</ele>
        <time>2017-08-27T06:45:27Z</time>
      </trkpt>
      <trkpt lat="44.09984" lon="7.41939">
        <ele>2379</ele>
        <time>2017-08-27T06:45:42Z</time>
      </trkpt>
      <trkpt lat="44.09982" lon="7.41945">
        <ele>2379.4</ele>
        <time>2017-08-27T06:45:47Z</time>
      </trkpt>
      <trkpt lat="44.09977" lon="7.41961">
        <ele>2381.4</ele>
        <time>2017-08-27T06:46:02Z</time>
      </trkpt>
      <trkpt lat="44.09977" lon="7.41969">
        <ele>2382.3</ele>
        <time>2017-08-27T06:46:14Z</time>
      </trkpt>
      <trkpt lat="44.09975" lon="7.41975">
        <ele>2383.4</ele>
        <time>2017-08-27T06:46:26Z</time>
      </trkpt>
      <trkpt lat="44.09972" lon="7.41978">
        <ele>2384.3</ele>
        <time>2017-08-27T06:46:41Z</time>
      </trkpt>
      <trkpt lat="44.09972" lon="7.4198">
        <ele>2384.7</ele>
        <time>2017-08-27T06:46:50Z</time>
      </trkpt>
      <trkpt lat="44.09972" lon="7.41982">
        <ele>2385.1</ele>
        <time>2017-08-27T06:47:00Z</time>
      </trkpt>
      <trkpt lat="44.09972" lon="7.41982">
        <ele>2385.1</ele>
        <time>2017-08-27T06:47:02Z</time>
      </trkpt>
      <trkpt lat="44.09964" lon="7.41988">
        <ele>2386.7</ele>
        <time>2017-08-27T06:47:17Z</time>
      </trkpt>
      <trkpt lat="44.09963" lon="7.41992">
        <ele>2387.6</ele>
        <time>2017-08-27T06:47:28Z</time>
      </trkpt>
      <trkpt lat="44.09962" lon="7.41992">
        <ele>2387.6</ele>
        <time>2017-08-27T06:47:38Z</time>
      </trkpt>
      <trkpt lat="44.09957" lon="7.41996">
        <ele>2388.7</ele>
        <time>2017-08-27T06:47:43Z</time>
      </trkpt>
      <trkpt lat="44.09949" lon="7.42002">
        <ele>2390.6</ele>
        <time>2017-08-27T06:47:53Z</time>
      </trkpt>
      <trkpt lat="44.09946" lon="7.42008">
        <ele>2392.9</ele>
        <time>2017-08-27T06:48:07Z</time>
      </trkpt>
      <trkpt lat="44.09946" lon="7.42014">
        <ele>2395.1</ele>
        <time>2017-08-27T06:48:19Z</time>
      </trkpt>
      <trkpt lat="44.09942" lon="7.4202">
        <ele>2397.4</ele>
        <time>2017-08-27T06:48:30Z</time>
      </trkpt>
      <trkpt lat="44.09941" lon="7.42024">
        <ele>2398.9</ele>
        <time>2017-08-27T06:48:43Z</time>
      </trkpt>
      <trkpt lat="44.09942" lon="7.42027">
        <ele>2399.9</ele>
        <time>2017-08-27T06:48:53Z</time>
      </trkpt>
      <trkpt lat="44.0994" lon="7.42031">
        <ele>2401.8</ele>
        <time>2017-08-27T06:49:04Z</time>
      </trkpt>
      <trkpt lat="44.09934" lon="7.42037">
        <ele>2404.8</ele>
        <time>2017-08-27T06:49:17Z</time>
      </trkpt>
      <trkpt lat="44.09934" lon="7.42037">
        <ele>2404.8</ele>
        <time>2017-08-27T06:49:22Z</time>
      </trkpt>
      <trkpt lat="44.09932" lon="7.42037">
        <ele>2404.9</ele>
        <time>2017-08-27T06:49:23Z</time>
      </trkpt>
      <trkpt lat="44.09923" lon="7.42044">
        <ele>2408.2</ele>
        <time>2017-08-27T06:49:37Z</time>
      </trkpt>
      <trkpt lat="44.09913" lon="7.42052">
        <ele>2412.3</ele>
        <time>2017-08-27T06:49:48Z</time>
      </trkpt>
      <trkpt lat="44.09911" lon="7.42056">
        <ele>2414.2</ele>
        <time>2017-08-27T06:49:58Z</time>
      </trkpt>
      <trkpt lat="44.09913" lon="7.42057">
        <ele>2414.3</ele>
        <time>2017-08-27T06:50:13Z</time>
      </trkpt>
      <trkpt lat="44.09913" lon="7.42057">
        <ele>2414.3</ele>
        <time>2017-08-27T06:50:36Z</time>
      </trkpt>
      <trkpt lat="44.09912" lon="7.42058">
        <ele>2415</ele>
        <time>2017-08-27T06:50:51Z</time>
      </trkpt>
      <trkpt lat="44.09912" lon="7.42058">
        <ele>2415</ele>
        <time>2017-08-27T06:50:57Z</time>
      </trkpt>
      <trkpt lat="44.09912" lon="7.42064">
        <ele>2417.7</ele>
        <time>2017-08-27T06:51:08Z</time>
      </trkpt>
      <trkpt lat="44.0991" lon="7.42065">
        <ele>2418.5</ele>
        <time>2017-08-27T06:51:21Z</time>
      </trkpt>
      <trkpt lat="44.09906" lon="7.42068">
        <ele>2420.4</ele>
        <time>2017-08-27T06:51:32Z</time>
      </trkpt>
      <trkpt lat="44.09904" lon="7.42078">
        <ele>2425</ele>
        <time>2017-08-27T06:51:39Z</time>
      </trkpt>
      <trkpt lat="44.09904" lon="7.42091">
        <ele>2430.7</ele>
        <time>2017-08-27T06:51:50Z</time>
      </trkpt>
      <trkpt lat="44.09893" lon="7.42091">
        <ele>2431.7</ele>
        <time>2017-08-27T06:52:02Z</time>
      </trkpt>
      <trkpt lat="44.09885" lon="7.42093">
        <ele>2433.6</ele>
        <time>2017-08-27T06:52:16Z</time>
      </trkpt>
      <trkpt lat="44.09876" lon="7.42096">
        <ele>2436.6</ele>
        <time>2017-08-27T06:52:30Z</time>
      </trkpt>
      <trkpt lat="44.09881" lon="7.42102">
        <ele>2437.9</ele>
        <time>2017-08-27T06:52:41Z</time>
      </trkpt>
      <trkpt lat="44.09881" lon="7.42103">
        <ele>2438.3</ele>
        <time>2017-08-27T06:52:45Z</time>
      </trkpt>
      <trkpt lat="44.09881" lon="7.42104">
        <ele>2438.7</ele>
        <time>2017-08-27T06:52:49Z</time>
      </trkpt>
      <trkpt lat="44.09884" lon="7.42109">
        <ele>2440.1</ele>
        <time>2017-08-27T06:53:03Z</time>
      </trkpt>
      <trkpt lat="44.09696" lon="7.42016">
        <ele>2564.9</ele>
        <time>2017-08-27T06:53:15Z</time>
      </trkpt>
      <trkpt lat="44.09701" lon="7.42026">
        <ele>2565.7</ele>
        <time>2017-08-27T06:53:26Z</time>
      </trkpt>
      <trkpt lat="44.09701" lon="7.42026">
        <ele>2565.7</ele>
        <time>2017-08-27T06:53:35Z</time>
      </trkpt>
      <trkpt lat="44.09699" lon="7.42038">
        <ele>2573.3</ele>
        <time>2017-08-27T06:53:39Z</time>
      </trkpt>
      <trkpt lat="44.09766" lon="7.42093">
        <ele>2506.7</ele>
        <time>2017-08-27T06:53:53Z</time>
      </trkpt>
      <trkpt lat="44.0979" lon="7.42105">
        <ele>2486.8</ele>
        <time>2017-08-27T06:54:08Z</time>
      </trkpt>
      <trkpt lat="44.09817" lon="7.42119">
        <ele>2469.1</ele>
        <time>2017-08-27T06:54:23Z</time>
      </trkpt>
      <trkpt lat="44.09836" lon="7.42125">
        <ele>2459</ele>
        <time>2017-08-27T06:54:29Z</time>
      </trkpt>
      <trkpt lat="44.09838" lon="7.42127">
        <ele>2458.7</ele>
        <time>2017-08-27T06:54:44Z</time>
      </trkpt>
      <trkpt lat="44.09838" lon="7.42127">
        <ele>2458.7</ele>
        <time>2017-08-27T06:54:53Z</time>
      </trkpt>
      <trkpt lat="44.09835" lon="7.42128">
        <ele>2460</ele>
        <time>2017-08-27T06:55:03Z</time>
      </trkpt>
      <trkpt lat="44.09835" lon="7.42141">
        <ele>2462.9</ele>
        <time>2017-08-27T06:55:18Z</time>
      </trkpt>
      <trkpt lat="44.09843" lon="7.42148">
        <ele>2462.2</ele>
        <time>2017-08-27T06:55:27Z</time>
      </trkpt>
      <trkpt lat="44.09861" lon="7.42165">
        <ele>2462.5</ele>
        <time>2017-08-27T06:55:39Z</time>
      </trkpt>
      <trkpt lat="44.0987" lon="7.42176">
        <ele>2465</ele>
        <time>2017-08-27T06:55:53Z</time>
      </trkpt>
      <trkpt lat="44.09872" lon="7.4218">
        <ele>2466.1</ele>
        <time>2017-08-27T06:56:10Z</time>
      </trkpt>
      <trkpt lat="44.09874" lon="7.42183">
        <ele>2466.9</ele>
        <time>2017-08-27T06:56:38Z</time>
      </trkpt>
      <trkpt lat="44.09874" lon="7.42187">
        <ele>2467.9</ele>
        <time>2017-08-27T06:56:58Z</time>
      </trkpt>
      <trkpt lat="44.09877" lon="7.42199">
        <ele>2471</ele>
        <time>2017-08-27T06:57:10Z</time>
      </trkpt>
      <trkpt lat="44.09877" lon="7.42203">
        <ele>2471.7</ele>
        <time>2017-08-27T06:57:14Z</time>
      </trkpt>
      <trkpt lat="44.09875" lon="7.42206">
        <ele>2472.1</ele>
        <time>2017-08-27T06:57:16Z</time>
      </trkpt>
      <trkpt lat="44.09877" lon="7.42214">
        <ele>2473.7</ele>
        <time>2017-08-27T06:57:23Z</time>
      </trkpt>
      <trkpt lat="44.09878" lon="7.42218">
        <ele>2474.5</ele>
        <time>2017-08-27T06:57:27Z</time>
      </trkpt>
      <trkpt lat="44.09878" lon="7.42222">
        <ele>2475.2</ele>
        <time>2017-08-27T06:57:30Z</time>
      </trkpt>
      <trkpt lat="44.09866" lon="7.42232">
        <ele>2475.8</ele>
        <time>2017-08-27T06:57:45Z</time>
      </trkpt>
      <trkpt lat="44.09855" lon="7.42242">
        <ele>2477.6</ele>
        <time>2017-08-27T06:57:59Z</time>
      </trkpt>
      <trkpt lat="44.09858" lon="7.42252">
        <ele>2478.5</ele>
        <time>2017-08-27T06:58:10Z</time>
      </trkpt>
      <trkpt lat="44.09868" lon="7.42265">
        <ele>2479.7</ele>
        <time>2017-08-27T06:58:25Z</time>
      </trkpt>
      <trkpt lat="44.09867" lon="7.42275">
        <ele>2480.4</ele>
        <time>2017-08-27T06:58:42Z</time>
      </trkpt>
      <trkpt lat="44.0987" lon="7.42281">
        <ele>2481.2</ele>
        <time>2017-08-27T06:58:57Z</time>
      </trkpt>
      <trkpt lat="44.09864" lon="7.42287">
        <ele>2481.2</ele>
        <time>2017-08-27T06:59:10Z</time>
      </trkpt>
      <trkpt lat="44.09861" lon="7.4229">
        <ele>2481.3</ele>
        <time>2017-08-27T06:59:23Z</time>
      </trkpt>
      <trkpt lat="44.09853" lon="7.42293">
        <ele>2483.1</ele>
        <time>2017-08-27T06:59:36Z</time>
      </trkpt>
      <trkpt lat="44.09853" lon="7.42296">
        <ele>2483.5</ele>
        <time>2017-08-27T06:59:45Z</time>
      </trkpt>
      <trkpt lat="44.0985" lon="7.42303">
        <ele>2485.1</ele>
        <time>2017-08-27T06:59:58Z</time>
      </trkpt>
      <trkpt lat="44.0985" lon="7.42305">
        <ele>2485.3</ele>
        <time>2017-08-27T07:00:23Z</time>
      </trkpt>
      <trkpt lat="44.09844" lon="7.42309">
        <ele>2487.4</ele>
        <time>2017-08-27T07:00:39Z</time>
      </trkpt>
      <trkpt lat="44.09842" lon="7.42309">
        <ele>2487.9</ele>
        <time>2017-08-27T07:00:43Z</time>
      </trkpt>
      <trkpt lat="44.09833" lon="7.42314">
        <ele>2491.3</ele>
        <time>2017-08-27T07:00:59Z</time>
      </trkpt>
      <trkpt lat="44.0983" lon="7.42315">
        <ele>2492.9</ele>
        <time>2017-08-27T07:01:12Z</time>
      </trkpt>
      <trkpt lat="44.09827" lon="7.42318">
        <ele>2495</ele>
        <time>2017-08-27T07:01:28Z</time>
      </trkpt>
      <trkpt lat="44.09827" lon="7.42318">
        <ele>2495</ele>
        <time>2017-08-27T07:01:49Z</time>
      </trkpt>
      <trkpt lat="44.09821" lon="7.42322">
        <ele>2498.7</ele>
        <time>2017-08-27T07:02:07Z</time>
      </trkpt>
      <trkpt lat="44.0982" lon="7.42322">
        <ele>2499.2</ele>
        <time>2017-08-27T07:02:15Z</time>
      </trkpt>
      <trkpt lat="44.09818" lon="7.42322">
        <ele>2500.1</ele>
        <time>2017-08-27T07:02:29Z</time>
      </trkpt>
      <trkpt lat="44.09818" lon="7.42325">
        <ele>2500.9</ele>
        <time>2017-08-27T07:02:42Z</time>
      </trkpt>
      <trkpt lat="44.09817" lon="7.42335">
        <ele>2504.3</ele>
        <time>2017-08-27T07:02:54Z</time>
      </trkpt>
      <trkpt lat="44.09812" lon="7.42343">
        <ele>2509.8</ele>
        <time>2017-08-27T07:03:08Z</time>
      </trkpt>
      <trkpt lat="44.09806" lon="7.42343">
        <ele>2512.6</ele>
        <time>2017-08-27T07:03:22Z</time>
      </trkpt>
      <trkpt lat="44.09802" lon="7.42338">
        <ele>2512.9</ele>
        <time>2017-08-27T07:03:34Z</time>
      </trkpt>
      <trkpt lat="44.098" lon="7.42335">
        <ele>2512.8</ele>
        <time>2017-08-27T07:03:53Z</time>
      </trkpt>
      <trkpt lat="44.09794" lon="7.42344">
        <ele>2519.6</ele>
        <time>2017-08-27T07:04:08Z</time>
      </trkpt>
      <trkpt lat="44.09794" lon="7.42349">
        <ele>2521.4</ele>
        <time>2017-08-27T07:04:20Z</time>
      </trkpt>
      <trkpt lat="44.09793" lon="7.42353">
        <ele>2523.4</ele>
        <time>2017-08-27T07:04:35Z</time>
      </trkpt>
      <trkpt lat="44.09792" lon="7.42354">
        <ele>2524.3</ele>
        <time>2017-08-27T07:04:55Z</time>
      </trkpt>
      <trkpt lat="44.09786" lon="7.42352">
        <ele>2526.7</ele>
        <time>2017-08-27T07:05:16Z</time>
      </trkpt>
      <trkpt lat="44.09787" lon="7.42357">
        <ele>2527.9</ele>
        <time>2017-08-27T07:05:30Z</time>
      </trkpt>
      <trkpt lat="44.09784" lon="7.4236">
        <ele>2530.5</ele>
        <time>2017-08-27T07:05:47Z</time>
      </trkpt>
      <trkpt lat="44.09781" lon="7.42362">
        <ele>2532.7</ele>
        <time>2017-08-27T07:06:05Z</time>
      </trkpt>
      <trkpt lat="44.09779" lon="7.42363">
        <ele>2534.1</ele>
        <time>2017-08-27T07:06:20Z</time>
      </trkpt>
      <trkpt lat="44.09772" lon="7.42366">
        <ele>2538.9</ele>
        <time>2017-08-27T07:06:35Z</time>
      </trkpt>
      <trkpt lat="44.09766" lon="7.42371">
        <ele>2543.8</ele>
        <time>2017-08-27T07:06:51Z</time>
      </trkpt>
      <trkpt lat="44.0976" lon="7.42368">
        <ele>2545.9</ele>
        <time>2017-08-27T07:07:06Z</time>
      </trkpt>
      <trkpt lat="44.09756" lon="7.42374">
        <ele>2549.8</ele>
        <time>2017-08-27T07:07:21Z</time>
      </trkpt>
      <trkpt lat="44.09751" lon="7.42375">
        <ele>2552.5</ele>
        <time>2017-08-27T07:07:35Z</time>
      </trkpt>
      <trkpt lat="44.09749" lon="7.42377">
        <ele>2554</ele>
        <time>2017-08-27T07:07:48Z</time>
      </trkpt>
      <trkpt lat="44.09749" lon="7.42381">
        <ele>2555.2</ele>
        <time>2017-08-27T07:08:02Z</time>
      </trkpt>
      <trkpt lat="44.09748" lon="7.42379">
        <ele>2555.1</ele>
        <time>2017-08-27T07:08:16Z</time>
      </trkpt>
      <trkpt lat="44.09746" lon="7.42384">
        <ele>2557.5</ele>
        <time>2017-08-27T07:08:31Z</time>
      </trkpt>
      <trkpt lat="44.09744" lon="7.42389">
        <ele>2559.9</ele>
        <time>2017-08-27T07:08:48Z</time>
      </trkpt>
      <trkpt lat="44.09744" lon="7.4239">
        <ele>2560.2</ele>
        <time>2017-08-27T07:09:04Z</time>
      </trkpt>
      <trkpt lat="44.09737" lon="7.42401">
        <ele>2567.5</ele>
        <time>2017-08-27T07:09:17Z</time>
      </trkpt>
      <trkpt lat="44.09738" lon="7.42403">
        <ele>2567.8</ele>
        <time>2017-08-27T07:09:21Z</time>
      </trkpt>
      <trkpt lat="44.09744" lon="7.42413">
        <ele>2569</ele>
        <time>2017-08-27T07:09:34Z</time>
      </trkpt>
      <trkpt lat="44.09743" lon="7.42418">
        <ele>2571.2</ele>
        <time>2017-08-27T07:09:48Z</time>
      </trkpt>
      <trkpt lat="44.09745" lon="7.42425">
        <ele>2572.9</ele>
        <time>2017-08-27T07:10:02Z</time>
      </trkpt>
      <trkpt lat="44.09745" lon="7.42433">
        <ele>2575.6</ele>
        <time>2017-08-27T07:10:15Z</time>
      </trkpt>
      <trkpt lat="44.09744" lon="7.42433">
        <ele>2576</ele>
        <time>2017-08-27T07:10:16Z</time>
      </trkpt>
      <trkpt lat="44.09726" lon="7.42432">
        <ele>2582.1</ele>
        <time>2017-08-27T07:10:30Z</time>
      </trkpt>
      <trkpt lat="44.0972" lon="7.42436">
        <ele>2585.5</ele>
        <time>2017-08-27T07:10:43Z</time>
      </trkpt>
      <trkpt lat="44.09721" lon="7.42439">
        <ele>2586</ele>
        <time>2017-08-27T07:10:48Z</time>
      </trkpt>
      <trkpt lat="44.09717" lon="7.42447">
        <ele>2590</ele>
        <time>2017-08-27T07:11:03Z</time>
      </trkpt>
      <trkpt lat="44.09726" lon="7.42452">
        <ele>2588</ele>
        <time>2017-08-27T07:11:18Z</time>
      </trkpt>
      <trkpt lat="44.09726" lon="7.42458">
        <ele>2589.7</ele>
        <time>2017-08-27T07:11:36Z</time>
      </trkpt>
      <trkpt lat="44.09726" lon="7.42461">
        <ele>2590.6</ele>
        <time>2017-08-27T07:11:50Z</time>
      </trkpt>
      <trkpt lat="44.09727" lon="7.42465">
        <ele>2591.5</ele>
        <time>2017-08-27T07:12:03Z</time>
      </trkpt>
      <trkpt lat="44.09725" lon="7.42465">
        <ele>2592.1</ele>
        <time>2017-08-27T07:12:20Z</time>
      </trkpt>
      <trkpt lat="44.09722" lon="7.42466">
        <ele>2593.3</ele>
        <time>2017-08-27T07:12:37Z</time>
      </trkpt>
      <trkpt lat="44.0972" lon="7.42462">
        <ele>2593</ele>
        <time>2017-08-27T07:12:53Z</time>
      </trkpt>
      <trkpt lat="44.0972" lon="7.42462">
        <ele>2593</ele>
        <time>2017-08-27T07:13:19Z</time>
      </trkpt>
      <trkpt lat="44.09716" lon="7.4246">
        <ele>2594</ele>
        <time>2017-08-27T07:13:36Z</time>
      </trkpt>
      <trkpt lat="44.09717" lon="7.42471">
        <ele>2596.7</ele>
        <time>2017-08-27T07:13:49Z</time>
      </trkpt>
      <trkpt lat="44.09715" lon="7.42469">
        <ele>2597</ele>
        <time>2017-08-27T07:14:06Z</time>
      </trkpt>
      <trkpt lat="44.09712" lon="7.42468">
        <ele>2597.9</ele>
        <time>2017-08-27T07:14:18Z</time>
      </trkpt>
      <trkpt lat="44.09713" lon="7.42474">
        <ele>2599.1</ele>
        <time>2017-08-27T07:14:30Z</time>
      </trkpt>
      <trkpt lat="44.09715" lon="7.42484">
        <ele>2600.9</ele>
        <time>2017-08-27T07:14:44Z</time>
      </trkpt>
      <trkpt lat="44.09717" lon="7.42492">
        <ele>2602.2</ele>
        <time>2017-08-27T07:15:00Z</time>
      </trkpt>
      <trkpt lat="44.09716" lon="7.42497">
        <ele>2603.9</ele>
        <time>2017-08-27T07:15:13Z</time>
      </trkpt>
      <trkpt lat="44.09719" lon="7.42508">
        <ele>2605.3</ele>
        <time>2017-08-27T07:15:29Z</time>
      </trkpt>
      <trkpt lat="44.09721" lon="7.42516">
        <ele>2606.5</ele>
        <time>2017-08-27T07:15:44Z</time>
      </trkpt>
      <trkpt lat="44.09727" lon="7.42527">
        <ele>2607.8</ele>
        <time>2017-08-27T07:16:01Z</time>
      </trkpt>
      <trkpt lat="44.0973" lon="7.42536">
        <ele>2608.7</ele>
        <time>2017-08-27T07:16:15Z</time>
      </trkpt>
      <trkpt lat="44.09731" lon="7.42545">
        <ele>2610</ele>
        <time>2017-08-27T07:16:27Z</time>
      </trkpt>
      <trkpt lat="44.09731" lon="7.42551">
        <ele>2611</ele>
        <time>2017-08-27T07:16:40Z</time>
      </trkpt>
      <trkpt lat="44.0973" lon="7.42559">
        <ele>2612.4</ele>
        <time>2017-08-27T07:16:56Z</time>
      </trkpt>
      <trkpt lat="44.09729" lon="7.42567">
        <ele>2613.6</ele>
        <time>2017-08-27T07:17:13Z</time>
      </trkpt>
      <trkpt lat="44.09732" lon="7.42577">
        <ele>2614.1</ele>
        <time>2017-08-27T07:17:27Z</time>
      </trkpt>
      <trkpt lat="44.0973" lon="7.42587">
        <ele>2615.5</ele>
        <time>2017-08-27T07:17:43Z</time>
      </trkpt>
      <trkpt lat="44.09733" lon="7.42592">
        <ele>2615.2</ele>
        <time>2017-08-27T07:17:57Z</time>
      </trkpt>
      <trkpt lat="44.09733" lon="7.42592">
        <ele>2615.2</ele>
        <time>2017-08-27T07:18:18Z</time>
      </trkpt>
      <trkpt lat="44.09733" lon="7.42592">
        <ele>2615.2</ele>
        <time>2017-08-27T07:18:39Z</time>
      </trkpt>
      <trkpt lat="44.09732" lon="7.42599">
        <ele>2615.8</ele>
        <time>2017-08-27T07:18:56Z</time>
      </trkpt>
      <trkpt lat="44.09726" lon="7.42617">
        <ele>2617.8</ele>
        <time>2017-08-27T07:19:11Z</time>
      </trkpt>
      <trkpt lat="44.09723" lon="7.42626">
        <ele>2618.5</ele>
        <time>2017-08-27T07:19:25Z</time>
      </trkpt>
      <trkpt lat="44.09721" lon="7.42643">
        <ele>2620.4</ele>
        <time>2017-08-27T07:19:38Z</time>
      </trkpt>
      <trkpt lat="44.09717" lon="7.42656">
        <ele>2625.1</ele>
        <time>2017-08-27T07:19:52Z</time>
      </trkpt>
      <trkpt lat="44.09715" lon="7.42659">
        <ele>2626.4</ele>
        <time>2017-08-27T07:20:05Z</time>
      </trkpt>
      <trkpt lat="44.09714" lon="7.4266">
        <ele>2626.9</ele>
        <time>2017-08-27T07:20:18Z</time>
      </trkpt>
      <trkpt lat="44.09712" lon="7.42661">
        <ele>2627.6</ele>
        <time>2017-08-27T07:20:34Z</time>
      </trkpt>
      <trkpt lat="44.09708" lon="7.42669">
        <ele>2631.1</ele>
        <time>2017-08-27T07:20:48Z</time>
      </trkpt>
      <trkpt lat="44.09702" lon="7.42668">
        <ele>2632</ele>
        <time>2017-08-27T07:21:06Z</time>
      </trkpt>
      <trkpt lat="44.09699" lon="7.42669">
        <ele>2633.2</ele>
        <time>2017-08-27T07:21:22Z</time>
      </trkpt>
      <trkpt lat="44.09698" lon="7.42674">
        <ele>2635.8</ele>
        <time>2017-08-27T07:21:37Z</time>
      </trkpt>
      <trkpt lat="44.09693" lon="7.42676">
        <ele>2638.4</ele>
        <time>2017-08-27T07:21:56Z</time>
      </trkpt>
      <trkpt lat="44.09692" lon="7.42677">
        <ele>2639.4</ele>
        <time>2017-08-27T07:22:14Z</time>
      </trkpt>
      <trkpt lat="44.09692" lon="7.42676">
        <ele>2638.9</ele>
        <time>2017-08-27T07:22:29Z</time>
      </trkpt>
      <trkpt lat="44.0969" lon="7.42679">
        <ele>2641.3</ele>
        <time>2017-08-27T07:22:44Z</time>
      </trkpt>
      <trkpt lat="44.09684" lon="7.42686">
        <ele>2647.5</ele>
        <time>2017-08-27T07:22:58Z</time>
      </trkpt>
      <trkpt lat="44.09684" lon="7.42686">
        <ele>2647.5</ele>
        <time>2017-08-27T07:23:10Z</time>
      </trkpt>
      <trkpt lat="44.09683" lon="7.42688">
        <ele>2648.9</ele>
        <time>2017-08-27T07:23:28Z</time>
      </trkpt>
      <trkpt lat="44.09683" lon="7.42688">
        <ele>2648.9</ele>
        <time>2017-08-27T07:23:44Z</time>
      </trkpt>
      <trkpt lat="44.09682" lon="7.4269">
        <ele>2650.3</ele>
        <time>2017-08-27T07:23:58Z</time>
      </trkpt>
      <trkpt lat="44.09682" lon="7.4269">
        <ele>2650.3</ele>
        <time>2017-08-27T07:24:15Z</time>
      </trkpt>
      <trkpt lat="44.09683" lon="7.42692">
        <ele>2650.8</ele>
        <time>2017-08-27T07:24:29Z</time>
      </trkpt>
      <trkpt lat="44.09686" lon="7.42709">
        <ele>2658</ele>
        <time>2017-08-27T07:24:43Z</time>
      </trkpt>
      <trkpt lat="44.09686" lon="7.42716">
        <ele>2661.6</ele>
        <time>2017-08-27T07:24:56Z</time>
      </trkpt>
      <trkpt lat="44.09689" lon="7.42723">
        <ele>2664.2</ele>
        <time>2017-08-27T07:25:11Z</time>
      </trkpt>
      <trkpt lat="44.09691" lon="7.42727">
        <ele>2665.8</ele>
        <time>2017-08-27T07:25:25Z</time>
      </trkpt>
      <trkpt lat="44.09694" lon="7.42731">
        <ele>2667.2</ele>
        <time>2017-08-27T07:25:39Z</time>
      </trkpt>
      <trkpt lat="44.09694" lon="7.42735">
        <ele>2669.5</ele>
        <time>2017-08-27T07:25:55Z</time>
      </trkpt>
      <trkpt lat="44.09694" lon="7.42736">
        <ele>2670</ele>
        <time>2017-08-27T07:26:10Z</time>
      </trkpt>
      <trkpt lat="44.09691" lon="7.42742">
        <ele>2674.1</ele>
        <time>2017-08-27T07:26:23Z</time>
      </trkpt>
      <trkpt lat="44.09684" lon="7.42751">
        <ele>2679.9</ele>
        <time>2017-08-27T07:26:40Z</time>
      </trkpt>
      <trkpt lat="44.09678" lon="7.42753">
        <ele>2681.4</ele>
        <time>2017-08-27T07:26:54Z</time>
      </trkpt>
      <trkpt lat="44.09672" lon="7.42754">
        <ele>2682.4</ele>
        <time>2017-08-27T07:27:09Z</time>
      </trkpt>
      <trkpt lat="44.09668" lon="7.42757">
        <ele>2683.6</ele>
        <time>2017-08-27T07:27:23Z</time>
      </trkpt>
      <trkpt lat="44.09668" lon="7.42763">
        <ele>2685.2</ele>
        <time>2017-08-27T07:27:36Z</time>
      </trkpt>
      <trkpt lat="44.09668" lon="7.42764">
        <ele>2685.5</ele>
        <time>2017-08-27T07:27:40Z</time>
      </trkpt>
      <trkpt lat="44.09667" lon="7.42766">
        <ele>2686</ele>
        <time>2017-08-27T07:27:56Z</time>
      </trkpt>
      <trkpt lat="44.09668" lon="7.42767">
        <ele>2686.3</ele>
        <time>2017-08-27T07:28:15Z</time>
      </trkpt>
      <trkpt lat="44.09668" lon="7.42774">
        <ele>2688.1</ele>
        <time>2017-08-27T07:28:31Z</time>
      </trkpt>
      <trkpt lat="44.09668" lon="7.42776">
        <ele>2688.6</ele>
        <time>2017-08-27T07:28:47Z</time>
      </trkpt>
      <trkpt lat="44.09668" lon="7.42776">
        <ele>2688.6</ele>
        <time>2017-08-27T07:29:19Z</time>
      </trkpt>
      <trkpt lat="44.09668" lon="7.42776">
        <ele>2688.6</ele>
        <time>2017-08-27T07:29:54Z</time>
      </trkpt>
      <trkpt lat="44.09668" lon="7.42777">
        <ele>2688.9</ele>
        <time>2017-08-27T07:30:35Z</time>
      </trkpt>
      <trkpt lat="44.09668" lon="7.42776">
        <ele>2688.6</ele>
        <time>2017-08-27T07:31:13Z</time>
      </trkpt>
      <trkpt lat="44.09668" lon="7.42776">
        <ele>2688.6</ele>
        <time>2017-08-27T07:31:55Z</time>
      </trkpt>
      <trkpt lat="44.09668" lon="7.42776">
        <ele>2688.6</ele>
        <time>2017-08-27T07:32:31Z</time>
      </trkpt>
      <trkpt lat="44.09668" lon="7.42776">
        <ele>2688.6</ele>
        <time>2017-08-27T07:33:02Z</time>
      </trkpt>
      <trkpt lat="44.09667" lon="7.42777">
        <ele>2688.8</ele>
        <time>2017-08-27T07:33:28Z</time>
      </trkpt>
      <trkpt lat="44.09663" lon="7.42774">
        <ele>2687.1</ele>
        <time>2017-08-27T07:33:42Z</time>
      </trkpt>
      <trkpt lat="44.09659" lon="7.42774">
        <ele>2686.1</ele>
        <time>2017-08-27T07:33:55Z</time>
      </trkpt>
      <trkpt lat="44.09659" lon="7.42774">
        <ele>2686.1</ele>
        <time>2017-08-27T07:34:09Z</time>
      </trkpt>
      <trkpt lat="44.09659" lon="7.42776">
        <ele>2686.3</ele>
        <time>2017-08-27T07:34:26Z</time>
      </trkpt>
      <trkpt lat="44.09658" lon="7.42778">
        <ele>2686.2</ele>
        <time>2017-08-27T07:34:48Z</time>
      </trkpt>
      <trkpt lat="44.09658" lon="7.42778">
        <ele>2686.2</ele>
        <time>2017-08-27T07:35:06Z</time>
      </trkpt>
      <trkpt lat="44.09657" lon="7.42778">
        <ele>2685.9</ele>
        <time>2017-08-27T07:35:31Z</time>
      </trkpt>
      <trkpt lat="44.09653" lon="7.42785">
        <ele>2684.6</ele>
        <time>2017-08-27T07:35:46Z</time>
      </trkpt>
      <trkpt lat="44.09653" lon="7.42787">
        <ele>2684.6</ele>
        <time>2017-08-27T07:36:01Z</time>
      </trkpt>
      <trkpt lat="44.09651" lon="7.42786">
        <ele>2683.8</ele>
        <time>2017-08-27T07:36:14Z</time>
      </trkpt>
      <trkpt lat="44.09644" lon="7.42786">
        <ele>2680.9</ele>
        <time>2017-08-27T07:36:29Z</time>
      </trkpt>
      <trkpt lat="44.0964" lon="7.42784">
        <ele>2679.5</ele>
        <time>2017-08-27T07:36:42Z</time>
      </trkpt>
      <trkpt lat="44.09635" lon="7.42777">
        <ele>2678.1</ele>
        <time>2017-08-27T07:36:56Z</time>
      </trkpt>
      <trkpt lat="44.09622" lon="7.42764">
        <ele>2676</ele>
        <time>2017-08-27T07:37:11Z</time>
      </trkpt>
      <trkpt lat="44.09615" lon="7.4276">
        <ele>2674.8</ele>
        <time>2017-08-27T07:37:25Z</time>
      </trkpt>
      <trkpt lat="44.0961" lon="7.4276">
        <ele>2672.8</ele>
        <time>2017-08-27T07:37:40Z</time>
      </trkpt>
      <trkpt lat="44.09608" lon="7.4276">
        <ele>2671.9</ele>
        <time>2017-08-27T07:37:56Z</time>
      </trkpt>
      <trkpt lat="44.09606" lon="7.42761">
        <ele>2670.5</ele>
        <time>2017-08-27T07:38:13Z</time>
      </trkpt>
      <trkpt lat="44.096" lon="7.42765">
        <ele>2665.8</ele>
        <time>2017-08-27T07:38:27Z</time>
      </trkpt>
      <trkpt lat="44.09599" lon="7.42764">
        <ele>2665.8</ele>
        <time>2017-08-27T07:38:41Z</time>
      </trkpt>
      <trkpt lat="44.09589" lon="7.42763">
        <ele>2661.6</ele>
        <time>2017-08-27T07:38:55Z</time>
      </trkpt>
      <trkpt lat="44.09586" lon="7.42767">
        <ele>2658.3</ele>
        <time>2017-08-27T07:39:10Z</time>
      </trkpt>
      <trkpt lat="44.09586" lon="7.42768">
        <ele>2657.8</ele>
        <time>2017-08-27T07:39:25Z</time>
      </trkpt>
      <trkpt lat="44.09581" lon="7.42773">
        <ele>2653.3</ele>
        <time>2017-08-27T07:39:37Z</time>
      </trkpt>
      <trkpt lat="44.09578" lon="7.42777">
        <ele>2650.2</ele>
        <time>2017-08-27T07:39:53Z</time>
      </trkpt>
      <trkpt lat="44.09575" lon="7.42777">
        <ele>2649</ele>
        <time>2017-08-27T07:40:05Z</time>
      </trkpt>
      <trkpt lat="44.0957" lon="7.4278">
        <ele>2646.2</ele>
        <time>2017-08-27T07:40:18Z</time>
      </trkpt>
      <trkpt lat="44.09567" lon="7.42785">
        <ele>2643.9</ele>
        <time>2017-08-27T07:40:26Z</time>
      </trkpt>
      <trkpt lat="44.09568" lon="7.42793">
        <ele>2642.4</ele>
        <time>2017-08-27T07:40:32Z</time>
      </trkpt>
      <trkpt lat="44.09571" lon="7.42801">
        <ele>2641.6</ele>
        <time>2017-08-27T07:40:45Z</time>
      </trkpt>
      <trkpt lat="44.09568" lon="7.42801">
        <ele>2640.5</ele>
        <time>2017-08-27T07:41:03Z</time>
      </trkpt>
      <trkpt lat="44.09558" lon="7.42796">
        <ele>2638</ele>
        <time>2017-08-27T07:41:17Z</time>
      </trkpt>
      <trkpt lat="44.09554" lon="7.42798">
        <ele>2636</ele>
        <time>2017-08-27T07:41:28Z</time>
      </trkpt>
      <trkpt lat="44.09545" lon="7.42799">
        <ele>2632.4</ele>
        <time>2017-08-27T07:41:43Z</time>
      </trkpt>
      <trkpt lat="44.09542" lon="7.42799">
        <ele>2631.3</ele>
        <time>2017-08-27T07:41:58Z</time>
      </trkpt>
      <trkpt lat="44.09539" lon="7.42799">
        <ele>2630.1</ele>
        <time>2017-08-27T07:42:10Z</time>
      </trkpt>
      <trkpt lat="44.0953" lon="7.42798">
        <ele>2627</ele>
        <time>2017-08-27T07:42:20Z</time>
      </trkpt>
      <trkpt lat="44.09517" lon="7.42798">
        <ele>2623.9</ele>
        <time>2017-08-27T07:42:31Z</time>
      </trkpt>
      <trkpt lat="44.09506" lon="7.42808">
        <ele>2619.8</ele>
        <time>2017-08-27T07:42:45Z</time>
      </trkpt>
      <trkpt lat="44.09499" lon="7.42817">
        <ele>2617.1</ele>
        <time>2017-08-27T07:43:00Z</time>
      </trkpt>
      <trkpt lat="44.09494" lon="7.42823">
        <ele>2615</ele>
        <time>2017-08-27T07:43:13Z</time>
      </trkpt>
      <trkpt lat="44.09492" lon="7.42831">
        <ele>2613.1</ele>
        <time>2017-08-27T07:43:22Z</time>
      </trkpt>
      <trkpt lat="44.09488" lon="7.42837">
        <ele>2611.9</ele>
        <time>2017-08-27T07:43:34Z</time>
      </trkpt>
      <trkpt lat="44.09483" lon="7.42844">
        <ele>2610.6</ele>
        <time>2017-08-27T07:43:46Z</time>
      </trkpt>
      <trkpt lat="44.09475" lon="7.42843">
        <ele>2607.7</ele>
        <time>2017-08-27T07:43:56Z</time>
      </trkpt>
      <trkpt lat="44.09465" lon="7.42845">
        <ele>2605.1</ele>
        <time>2017-08-27T07:44:10Z</time>
      </trkpt>
      <trkpt lat="44.09457" lon="7.42847">
        <ele>2603.5</ele>
        <time>2017-08-27T07:44:23Z</time>
      </trkpt>
      <trkpt lat="44.09456" lon="7.42848">
        <ele>2603.3</ele>
        <time>2017-08-27T07:44:28Z</time>
      </trkpt>
      <trkpt lat="44.09449" lon="7.42854">
        <ele>2601.9</ele>
        <time>2017-08-27T07:44:39Z</time>
      </trkpt>
      <trkpt lat="44.09446" lon="7.42857">
        <ele>2601.3</ele>
        <time>2017-08-27T07:44:43Z</time>
      </trkpt>
      <trkpt lat="44.09431" lon="7.42868">
        <ele>2600.2</ele>
        <time>2017-08-27T07:44:58Z</time>
      </trkpt>
      <trkpt lat="44.0943" lon="7.42868">
        <ele>2600</ele>
        <time>2017-08-27T07:44:59Z</time>
      </trkpt>
      <trkpt lat="44.09424" lon="7.42873">
        <ele>2599.6</ele>
        <time>2017-08-27T07:45:06Z</time>
      </trkpt>
      <trkpt lat="44.09414" lon="7.42883">
        <ele>2598.4</ele>
        <time>2017-08-27T07:45:20Z</time>
      </trkpt>
      <trkpt lat="44.09413" lon="7.42885">
        <ele>2598.3</ele>
        <time>2017-08-27T07:45:26Z</time>
      </trkpt>
      <trkpt lat="44.09411" lon="7.4289">
        <ele>2598.2</ele>
        <time>2017-08-27T07:45:30Z</time>
      </trkpt>
      <trkpt lat="44.09403" lon="7.429">
        <ele>2597.3</ele>
        <time>2017-08-27T07:45:41Z</time>
      </trkpt>
      <trkpt lat="44.09397" lon="7.42904">
        <ele>2595.6</ele>
        <time>2017-08-27T07:45:51Z</time>
      </trkpt>
      <trkpt lat="44.09394" lon="7.42901">
        <ele>2593.8</ele>
        <time>2017-08-27T07:45:57Z</time>
      </trkpt>
      <trkpt lat="44.09393" lon="7.429">
        <ele>2593.3</ele>
        <time>2017-08-27T07:46:01Z</time>
      </trkpt>
      <trkpt lat="44.09384" lon="7.42905">
        <ele>2590.3</ele>
        <time>2017-08-27T07:46:14Z</time>
      </trkpt>
      <trkpt lat="44.09376" lon="7.42905">
        <ele>2586.9</ele>
        <time>2017-08-27T07:46:27Z</time>
      </trkpt>
      <trkpt lat="44.09369" lon="7.42904">
        <ele>2583.8</ele>
        <time>2017-08-27T07:46:37Z</time>
      </trkpt>
      <trkpt lat="44.09366" lon="7.42905">
        <ele>2582.6</ele>
        <time>2017-08-27T07:46:41Z</time>
      </trkpt>
      <trkpt lat="44.09355" lon="7.42908">
        <ele>2578.6</ele>
        <time>2017-08-27T07:46:54Z</time>
      </trkpt>
      <trkpt lat="44.09345" lon="7.42909">
        <ele>2575.1</ele>
        <time>2017-08-27T07:47:07Z</time>
      </trkpt>
      <trkpt lat="44.09332" lon="7.42915">
        <ele>2570.7</ele>
        <time>2017-08-27T07:47:22Z</time>
      </trkpt>
      <trkpt lat="44.09323" lon="7.4292">
        <ele>2569.2</ele>
        <time>2017-08-27T07:47:32Z</time>
      </trkpt>
      <trkpt lat="44.09319" lon="7.42924">
        <ele>2569.1</ele>
        <time>2017-08-27T07:47:38Z</time>
      </trkpt>
      <trkpt lat="44.09316" lon="7.42928">
        <ele>2569.1</ele>
        <time>2017-08-27T07:47:42Z</time>
      </trkpt>
      <trkpt lat="44.09311" lon="7.42932">
        <ele>2568.5</ele>
        <time>2017-08-27T07:47:56Z</time>
      </trkpt>
      <trkpt lat="44.09312" lon="7.42932">
        <ele>2568.8</ele>
        <time>2017-08-27T07:48:31Z</time>
      </trkpt>
      <trkpt lat="44.09306" lon="7.42935">
        <ele>2567.4</ele>
        <time>2017-08-27T07:48:43Z</time>
      </trkpt>
      <trkpt lat="44.09301" lon="7.4294">
        <ele>2567.1</ele>
        <time>2017-08-27T07:48:49Z</time>
      </trkpt>
      <trkpt lat="44.09284" lon="7.42949">
        <ele>2563.3</ele>
        <time>2017-08-27T07:49:05Z</time>
      </trkpt>
      <trkpt lat="44.09279" lon="7.42953">
        <ele>2562</ele>
        <time>2017-08-27T07:49:15Z</time>
      </trkpt>
      <trkpt lat="44.09271" lon="7.42961">
        <ele>2560.2</ele>
        <time>2017-08-27T07:49:27Z</time>
      </trkpt>
      <trkpt lat="44.09264" lon="7.42962">
        <ele>2558.2</ele>
        <time>2017-08-27T07:49:43Z</time>
      </trkpt>
      <trkpt lat="44.09264" lon="7.42962">
        <ele>2558.2</ele>
        <time>2017-08-27T07:49:46Z</time>
      </trkpt>
      <trkpt lat="44.09261" lon="7.42962">
        <ele>2557.3</ele>
        <time>2017-08-27T07:49:59Z</time>
      </trkpt>
      <trkpt lat="44.09261" lon="7.42962">
        <ele>2557.3</ele>
        <time>2017-08-27T07:50:21Z</time>
      </trkpt>
      <trkpt lat="44.09261" lon="7.42963">
        <ele>2557.3</ele>
        <time>2017-08-27T07:50:38Z</time>
      </trkpt>
      <trkpt lat="44.09261" lon="7.42963">
        <ele>2557.3</ele>
        <time>2017-08-27T07:51:02Z</time>
      </trkpt>
      <trkpt lat="44.09261" lon="7.42963">
        <ele>2557.3</ele>
        <time>2017-08-27T07:51:19Z</time>
      </trkpt>
      <trkpt lat="44.09259" lon="7.42961">
        <ele>2556.8</ele>
        <time>2017-08-27T07:51:36Z</time>
      </trkpt>
      <trkpt lat="44.09259" lon="7.42961">
        <ele>2556.8</ele>
        <time>2017-08-27T07:51:58Z</time>
      </trkpt>
      <trkpt lat="44.09259" lon="7.42959">
        <ele>2556.9</ele>
        <time>2017-08-27T07:52:14Z</time>
      </trkpt>
      <trkpt lat="44.09252" lon="7.4296">
        <ele>2554.9</ele>
        <time>2017-08-27T07:52:30Z</time>
      </trkpt>
      <trkpt lat="44.09249" lon="7.42958">
        <ele>2554.5</ele>
        <time>2017-08-27T07:52:35Z</time>
      </trkpt>
      <trkpt lat="44.0924" lon="7.4295">
        <ele>2555.5</ele>
        <time>2017-08-27T07:52:49Z</time>
      </trkpt>
      <trkpt lat="44.09236" lon="7.42947">
        <ele>2556.1</ele>
        <time>2017-08-27T07:53:00Z</time>
      </trkpt>
      <trkpt lat="44.09226" lon="7.42944">
        <ele>2557</ele>
        <time>2017-08-27T07:53:13Z</time>
      </trkpt>
      <trkpt lat="44.09218" lon="7.42946">
        <ele>2557.1</ele>
        <time>2017-08-27T07:53:27Z</time>
      </trkpt>
      <trkpt lat="44.09211" lon="7.42946">
        <ele>2557.9</ele>
        <time>2017-08-27T07:53:36Z</time>
      </trkpt>
      <trkpt lat="44.092" lon="7.42949">
        <ele>2558.4</ele>
        <time>2017-08-27T07:53:50Z</time>
      </trkpt>
      <trkpt lat="44.09196" lon="7.42951">
        <ele>2558.4</ele>
        <time>2017-08-27T07:54:02Z</time>
      </trkpt>
      <trkpt lat="44.09187" lon="7.42952">
        <ele>2560</ele>
        <time>2017-08-27T07:54:17Z</time>
      </trkpt>
      <trkpt lat="44.09187" lon="7.42952">
        <ele>2560</ele>
        <time>2017-08-27T07:54:28Z</time>
      </trkpt>
      <trkpt lat="44.0918" lon="7.4296">
        <ele>2559.4</ele>
        <time>2017-08-27T07:54:41Z</time>
      </trkpt>
      <trkpt lat="44.09178" lon="7.42963">
        <ele>2558.9</ele>
        <time>2017-08-27T07:54:54Z</time>
      </trkpt>
      <trkpt lat="44.09173" lon="7.42978">
        <ele>2555.9</ele>
        <time>2017-08-27T07:55:06Z</time>
      </trkpt>
      <trkpt lat="44.09163" lon="7.42987">
        <ele>2555.7</ele>
        <time>2017-08-27T07:55:22Z</time>
      </trkpt>
      <trkpt lat="44.09162" lon="7.42991">
        <ele>2555.1</ele>
        <time>2017-08-27T07:55:33Z</time>
      </trkpt>
      <trkpt lat="44.09162" lon="7.42992">
        <ele>2554.8</ele>
        <time>2017-08-27T07:55:49Z</time>
      </trkpt>
      <trkpt lat="44.0916" lon="7.43001">
        <ele>2553.3</ele>
        <time>2017-08-27T07:56:03Z</time>
      </trkpt>
      <trkpt lat="44.09152" lon="7.43009">
        <ele>2553.4</ele>
        <time>2017-08-27T07:56:19Z</time>
      </trkpt>
      <trkpt lat="44.0915" lon="7.43011">
        <ele>2553.3</ele>
        <time>2017-08-27T07:56:22Z</time>
      </trkpt>
      <trkpt lat="44.09143" lon="7.43014">
        <ele>2553.8</ele>
        <time>2017-08-27T07:56:34Z</time>
      </trkpt>
      <trkpt lat="44.09136" lon="7.4302">
        <ele>2554.1</ele>
        <time>2017-08-27T07:56:45Z</time>
      </trkpt>
      <trkpt lat="44.09132" lon="7.43022">
        <ele>2555</ele>
        <time>2017-08-27T07:56:56Z</time>
      </trkpt>
      <trkpt lat="44.09129" lon="7.43031">
        <ele>2553.9</ele>
        <time>2017-08-27T07:57:11Z</time>
      </trkpt>
      <trkpt lat="44.09125" lon="7.4304">
        <ele>2553.4</ele>
        <time>2017-08-27T07:57:24Z</time>
      </trkpt>
      <trkpt lat="44.09124" lon="7.43043">
        <ele>2553</ele>
        <time>2017-08-27T07:57:27Z</time>
      </trkpt>
      <trkpt lat="44.09118" lon="7.43059">
        <ele>2551.3</ele>
        <time>2017-08-27T07:57:42Z</time>
      </trkpt>
      <trkpt lat="44.09111" lon="7.43071">
        <ele>2550.2</ele>
        <time>2017-08-27T07:57:57Z</time>
      </trkpt>
      <trkpt lat="44.09101" lon="7.43074">
        <ele>2554.3</ele>
        <time>2017-08-27T07:58:12Z</time>
      </trkpt>
      <trkpt lat="44.09098" lon="7.43081">
        <ele>2553.5</ele>
        <time>2017-08-27T07:58:20Z</time>
      </trkpt>
      <trkpt lat="44.09093" lon="7.43088">
        <ele>2553</ele>
        <time>2017-08-27T07:58:31Z</time>
      </trkpt>
      <trkpt lat="44.09092" lon="7.43088">
        <ele>2553.3</ele>
        <time>2017-08-27T07:58:52Z</time>
      </trkpt>
      <trkpt lat="44.0909" lon="7.4309">
        <ele>2553.1</ele>
        <time>2017-08-27T07:59:12Z</time>
      </trkpt>
      <trkpt lat="44.09081" lon="7.43093">
        <ele>2554.8</ele>
        <time>2017-08-27T07:59:24Z</time>
      </trkpt>
      <trkpt lat="44.09075" lon="7.431">
        <ele>2554.3</ele>
        <time>2017-08-27T07:59:39Z</time>
      </trkpt>
      <trkpt lat="44.09075" lon="7.43107">
        <ele>2550.2</ele>
        <time>2017-08-27T07:59:51Z</time>
      </trkpt>
      <trkpt lat="44.09075" lon="7.43107">
        <ele>2550.2</ele>
        <time>2017-08-27T08:00:13Z</time>
      </trkpt>
      <trkpt lat="44.09076" lon="7.43114">
        <ele>2545.4</ele>
        <time>2017-08-27T08:00:29Z</time>
      </trkpt>
      <trkpt lat="44.0907" lon="7.43114">
        <ele>2548.4</ele>
        <time>2017-08-27T08:00:42Z</time>
      </trkpt>
      <trkpt lat="44.09069" lon="7.43117">
        <ele>2546.5</ele>
        <time>2017-08-27T08:00:55Z</time>
      </trkpt>
      <trkpt lat="44.09067" lon="7.43126">
        <ele>2539.8</ele>
        <time>2017-08-27T08:01:06Z</time>
      </trkpt>
      <trkpt lat="44.09066" lon="7.43131">
        <ele>2535.6</ele>
        <time>2017-08-27T08:01:16Z</time>
      </trkpt>
      <trkpt lat="44.09066" lon="7.43134">
        <ele>2533</ele>
        <time>2017-08-27T08:01:21Z</time>
      </trkpt>
      <trkpt lat="44.09061" lon="7.43139">
        <ele>2528.3</ele>
        <time>2017-08-27T08:01:35Z</time>
      </trkpt>
      <trkpt lat="44.09053" lon="7.43145">
        <ele>2525.4</ele>
        <time>2017-08-27T08:01:47Z</time>
      </trkpt>
      <trkpt lat="44.09045" lon="7.43154">
        <ele>2522.4</ele>
        <time>2017-08-27T08:02:01Z</time>
      </trkpt>
      <trkpt lat="44.09038" lon="7.4316">
        <ele>2520.4</ele>
        <time>2017-08-27T08:02:13Z</time>
      </trkpt>
      <trkpt lat="44.09035" lon="7.43163">
        <ele>2519.1</ele>
        <time>2017-08-27T08:02:21Z</time>
      </trkpt>
      <trkpt lat="44.09035" lon="7.43167">
        <ele>2516.6</ele>
        <time>2017-08-27T08:02:26Z</time>
      </trkpt>
      <trkpt lat="44.09034" lon="7.4317">
        <ele>2515.4</ele>
        <time>2017-08-27T08:02:30Z</time>
      </trkpt>
      <trkpt lat="44.09028" lon="7.43173">
        <ele>2514.8</ele>
        <time>2017-08-27T08:02:42Z</time>
      </trkpt>
      <trkpt lat="44.09029" lon="7.43184">
        <ele>2509.2</ele>
        <time>2017-08-27T08:02:54Z</time>
      </trkpt>
      <trkpt lat="44.09028" lon="7.43186">
        <ele>2508.2</ele>
        <time>2017-08-27T08:02:59Z</time>
      </trkpt>
      <trkpt lat="44.09028" lon="7.43188">
        <ele>2507.2</ele>
        <time>2017-08-27T08:03:00Z</time>
      </trkpt>
      <trkpt lat="44.09029" lon="7.4319">
        <ele>2506.2</ele>
        <time>2017-08-27T08:03:02Z</time>
      </trkpt>
      <trkpt lat="44.0903" lon="7.43192">
        <ele>2505.3</ele>
        <time>2017-08-27T08:03:04Z</time>
      </trkpt>
      <trkpt lat="44.09026" lon="7.43206">
        <ele>2501.8</ele>
        <time>2017-08-27T08:03:13Z</time>
      </trkpt>
      <trkpt lat="44.09011" lon="7.43216">
        <ele>2499</ele>
        <time>2017-08-27T08:03:27Z</time>
      </trkpt>
      <trkpt lat="44.09006" lon="7.43221">
        <ele>2497.7</ele>
        <time>2017-08-27T08:03:39Z</time>
      </trkpt>
      <trkpt lat="44.09004" lon="7.43225">
        <ele>2497.1</ele>
        <time>2017-08-27T08:03:43Z</time>
      </trkpt>
      <trkpt lat="44.08993" lon="7.43235">
        <ele>2496.1</ele>
        <time>2017-08-27T08:03:56Z</time>
      </trkpt>
      <trkpt lat="44.08982" lon="7.43243">
        <ele>2495.2</ele>
        <time>2017-08-27T08:04:10Z</time>
      </trkpt>
      <trkpt lat="44.08978" lon="7.43252">
        <ele>2494</ele>
        <time>2017-08-27T08:04:22Z</time>
      </trkpt>
      <trkpt lat="44.08975" lon="7.43254">
        <ele>2493.7</ele>
        <time>2017-08-27T08:04:37Z</time>
      </trkpt>
      <trkpt lat="44.08975" lon="7.43256">
        <ele>2493.5</ele>
        <time>2017-08-27T08:04:53Z</time>
      </trkpt>
      <trkpt lat="44.08968" lon="7.43264">
        <ele>2492.5</ele>
        <time>2017-08-27T08:05:06Z</time>
      </trkpt>
      <trkpt lat="44.08964" lon="7.43266">
        <ele>2492.1</ele>
        <time>2017-08-27T08:05:19Z</time>
      </trkpt>
      <trkpt lat="44.0896" lon="7.43268">
        <ele>2491.7</ele>
        <time>2017-08-27T08:05:30Z</time>
      </trkpt>
      <trkpt lat="44.08958" lon="7.43278">
        <ele>2489.4</ele>
        <time>2017-08-27T08:05:42Z</time>
      </trkpt>
      <trkpt lat="44.08952" lon="7.43286">
        <ele>2487.9</ele>
        <time>2017-08-27T08:05:54Z</time>
      </trkpt>
      <trkpt lat="44.0895" lon="7.43288">
        <ele>2487.3</ele>
        <time>2017-08-27T08:06:07Z</time>
      </trkpt>
      <trkpt lat="44.0895" lon="7.43288">
        <ele>2487.3</ele>
        <time>2017-08-27T08:06:47Z</time>
      </trkpt>
      <trkpt lat="44.0895" lon="7.43288">
        <ele>2487.3</ele>
        <time>2017-08-27T08:07:25Z</time>
      </trkpt>
      <trkpt lat="44.0895" lon="7.43288">
        <ele>2487.3</ele>
        <time>2017-08-27T08:08:03Z</time>
      </trkpt>
      <trkpt lat="44.0895" lon="7.43288">
        <ele>2487.3</ele>
        <time>2017-08-27T08:08:26Z</time>
      </trkpt>
      <trkpt lat="44.08951" lon="7.43287">
        <ele>2487.6</ele>
        <time>2017-08-27T08:09:05Z</time>
      </trkpt>
      <trkpt lat="44.08952" lon="7.43287">
        <ele>2487.8</ele>
        <time>2017-08-27T08:09:22Z</time>
      </trkpt>
      <trkpt lat="44.08952" lon="7.43287">
        <ele>2487.8</ele>
        <time>2017-08-27T08:09:49Z</time>
      </trkpt>
      <trkpt lat="44.0895" lon="7.43287">
        <ele>2487.5</ele>
        <time>2017-08-27T08:10:01Z</time>
      </trkpt>
      <trkpt lat="44.0895" lon="7.43287">
        <ele>2487.5</ele>
        <time>2017-08-27T08:10:14Z</time>
      </trkpt>
      <trkpt lat="44.08946" lon="7.43291">
        <ele>2486.3</ele>
        <time>2017-08-27T08:10:26Z</time>
      </trkpt>
      <trkpt lat="44.08943" lon="7.43293">
        <ele>2485.7</ele>
        <time>2017-08-27T08:10:30Z</time>
      </trkpt>
      <trkpt lat="44.08934" lon="7.43297">
        <ele>2483.9</ele>
        <time>2017-08-27T08:10:41Z</time>
      </trkpt>
      <trkpt lat="44.08927" lon="7.43311">
        <ele>2480.7</ele>
        <time>2017-08-27T08:10:55Z</time>
      </trkpt>
      <trkpt lat="44.08922" lon="7.43314">
        <ele>2479.7</ele>
        <time>2017-08-27T08:11:09Z</time>
      </trkpt>
      <trkpt lat="44.08919" lon="7.43319">
        <ele>2479</ele>
        <time>2017-08-27T08:11:21Z</time>
      </trkpt>
      <trkpt lat="44.08914" lon="7.43325">
        <ele>2477.9</ele>
        <time>2017-08-27T08:11:31Z</time>
      </trkpt>
      <trkpt lat="44.08912" lon="7.4333">
        <ele>2477.1</ele>
        <time>2017-08-27T08:11:37Z</time>
      </trkpt>
      <trkpt lat="44.0891" lon="7.43334">
        <ele>2476.2</ele>
        <time>2017-08-27T08:11:42Z</time>
      </trkpt>
      <trkpt lat="44.08904" lon="7.43338">
        <ele>2474.1</ele>
        <time>2017-08-27T08:11:54Z</time>
      </trkpt>
      <trkpt lat="44.08899" lon="7.43335">
        <ele>2473.3</ele>
        <time>2017-08-27T08:12:04Z</time>
      </trkpt>
      <trkpt lat="44.08896" lon="7.43332">
        <ele>2473.2</ele>
        <time>2017-08-27T08:12:08Z</time>
      </trkpt>
      <trkpt lat="44.08889" lon="7.43337">
        <ele>2470.5</ele>
        <time>2017-08-27T08:12:19Z</time>
      </trkpt>
      <trkpt lat="44.08883" lon="7.43341">
        <ele>2471</ele>
        <time>2017-08-27T08:12:28Z</time>
      </trkpt>
      <trkpt lat="44.08878" lon="7.43346">
        <ele>2471</ele>
        <time>2017-08-27T08:12:39Z</time>
      </trkpt>
      <trkpt lat="44.08862" lon="7.43346">
        <ele>2473.7</ele>
        <time>2017-08-27T08:12:54Z</time>
      </trkpt>
      <trkpt lat="44.08851" lon="7.43349">
        <ele>2474.1</ele>
        <time>2017-08-27T08:13:11Z</time>
      </trkpt>
      <trkpt lat="44.08843" lon="7.43355">
        <ele>2472.8</ele>
        <time>2017-08-27T08:13:22Z</time>
      </trkpt>
      <trkpt lat="44.08839" lon="7.43359">
        <ele>2471.6</ele>
        <time>2017-08-27T08:13:29Z</time>
      </trkpt>
      <trkpt lat="44.08831" lon="7.43363">
        <ele>2471.6</ele>
        <time>2017-08-27T08:13:41Z</time>
      </trkpt>
      <trkpt lat="44.08829" lon="7.43361">
        <ele>2472.4</ele>
        <time>2017-08-27T08:13:53Z</time>
      </trkpt>
      <trkpt lat="44.08827" lon="7.43363">
        <ele>2472.8</ele>
        <time>2017-08-27T08:14:14Z</time>
      </trkpt>
      <trkpt lat="44.08822" lon="7.43373">
        <ele>2472.2</ele>
        <time>2017-08-27T08:14:29Z</time>
      </trkpt>
      <trkpt lat="44.08819" lon="7.43377">
        <ele>2471.8</ele>
        <time>2017-08-27T08:14:41Z</time>
      </trkpt>
      <trkpt lat="44.08809" lon="7.4338">
        <ele>2472.2</ele>
        <time>2017-08-27T08:14:52Z</time>
      </trkpt>
      <trkpt lat="44.08804" lon="7.43382">
        <ele>2472.4</ele>
        <time>2017-08-27T08:15:03Z</time>
      </trkpt>
      <trkpt lat="44.08798" lon="7.4338">
        <ele>2475.7</ele>
        <time>2017-08-27T08:15:25Z</time>
      </trkpt>
      <trkpt lat="44.08793" lon="7.43382">
        <ele>2476.9</ele>
        <time>2017-08-27T08:15:33Z</time>
      </trkpt>
      <trkpt lat="44.08787" lon="7.43389">
        <ele>2476.3</ele>
        <time>2017-08-27T08:15:47Z</time>
      </trkpt>
      <trkpt lat="44.08786" lon="7.43394">
        <ele>2475</ele>
        <time>2017-08-27T08:15:54Z</time>
      </trkpt>
      <trkpt lat="44.08784" lon="7.43399">
        <ele>2474.2</ele>
        <time>2017-08-27T08:15:59Z</time>
      </trkpt>
      <trkpt lat="44.08779" lon="7.434">
        <ele>2475.9</ele>
        <time>2017-08-27T08:16:12Z</time>
      </trkpt>
      <trkpt lat="44.08776" lon="7.43399">
        <ele>2477.8</ele>
        <time>2017-08-27T08:16:39Z</time>
      </trkpt>
      <trkpt lat="44.08773" lon="7.43409">
        <ele>2476.2</ele>
        <time>2017-08-27T08:16:52Z</time>
      </trkpt>
      <trkpt lat="44.08769" lon="7.43421">
        <ele>2474.4</ele>
        <time>2017-08-27T08:17:07Z</time>
      </trkpt>
      <trkpt lat="44.08764" lon="7.43425">
        <ele>2475.9</ele>
        <time>2017-08-27T08:17:21Z</time>
      </trkpt>
      <trkpt lat="44.08756" lon="7.43427">
        <ele>2479.5</ele>
        <time>2017-08-27T08:17:35Z</time>
      </trkpt>
      <trkpt lat="44.0875" lon="7.43429">
        <ele>2482</ele>
        <time>2017-08-27T08:17:44Z</time>
      </trkpt>
      <trkpt lat="44.08748" lon="7.43432">
        <ele>2482.1</ele>
        <time>2017-08-27T08:17:47Z</time>
      </trkpt>
      <trkpt lat="44.08743" lon="7.43442">
        <ele>2481</ele>
        <time>2017-08-27T08:18:00Z</time>
      </trkpt>
      <trkpt lat="44.08742" lon="7.43443">
        <ele>2481</ele>
        <time>2017-08-27T08:18:02Z</time>
      </trkpt>
      <trkpt lat="44.08739" lon="7.43448">
        <ele>2480.9</ele>
        <time>2017-08-27T08:18:18Z</time>
      </trkpt>
      <trkpt lat="44.08739" lon="7.43451">
        <ele>2480.2</ele>
        <time>2017-08-27T08:18:29Z</time>
      </trkpt>
      <trkpt lat="44.08739" lon="7.43453">
        <ele>2479.7</ele>
        <time>2017-08-27T08:19:08Z</time>
      </trkpt>
      <trkpt lat="44.08739" lon="7.43452">
        <ele>2480</ele>
        <time>2017-08-27T08:19:48Z</time>
      </trkpt>
      <trkpt lat="44.08739" lon="7.43454">
        <ele>2479.5</ele>
        <time>2017-08-27T08:20:18Z</time>
      </trkpt>
      <trkpt lat="44.08735" lon="7.43459">
        <ele>2479.4</ele>
        <time>2017-08-27T08:20:30Z</time>
      </trkpt>
      <trkpt lat="44.0873" lon="7.43464">
        <ele>2479</ele>
        <time>2017-08-27T08:20:41Z</time>
      </trkpt>
      <trkpt lat="44.08724" lon="7.43472">
        <ele>2476.9</ele>
        <time>2017-08-27T08:20:53Z</time>
      </trkpt>
      <trkpt lat="44.08722" lon="7.43482">
        <ele>2472.1</ele>
        <time>2017-08-27T08:21:04Z</time>
      </trkpt>
      <trkpt lat="44.08723" lon="7.43483">
        <ele>2471.4</ele>
        <time>2017-08-27T08:21:06Z</time>
      </trkpt>
      <trkpt lat="44.08718" lon="7.43485">
        <ele>2471.7</ele>
        <time>2017-08-27T08:21:17Z</time>
      </trkpt>
      <trkpt lat="44.08712" lon="7.43488">
        <ele>2471.8</ele>
        <time>2017-08-27T08:21:31Z</time>
      </trkpt>
      <trkpt lat="44.08708" lon="7.4349">
        <ele>2471.8</ele>
        <time>2017-08-27T08:21:37Z</time>
      </trkpt>
      <trkpt lat="44.08704" lon="7.43491">
        <ele>2472.3</ele>
        <time>2017-08-27T08:21:48Z</time>
      </trkpt>
      <trkpt lat="44.08699" lon="7.43491">
        <ele>2473.7</ele>
        <time>2017-08-27T08:22:06Z</time>
      </trkpt>
      <trkpt lat="44.08697" lon="7.43491">
        <ele>2474.2</ele>
        <time>2017-08-27T08:22:20Z</time>
      </trkpt>
      <trkpt lat="44.08692" lon="7.43499">
        <ele>2470.7</ele>
        <time>2017-08-27T08:22:33Z</time>
      </trkpt>
      <trkpt lat="44.08687" lon="7.43504">
        <ele>2469.2</ele>
        <time>2017-08-27T08:22:44Z</time>
      </trkpt>
      <trkpt lat="44.08681" lon="7.43521">
        <ele>2463.8</ele>
        <time>2017-08-27T08:22:59Z</time>
      </trkpt>
      <trkpt lat="44.08676" lon="7.43528">
        <ele>2461.6</ele>
        <time>2017-08-27T08:23:07Z</time>
      </trkpt>
      <trkpt lat="44.08667" lon="7.43529">
        <ele>2461.7</ele>
        <time>2017-08-27T08:23:18Z</time>
      </trkpt>
      <trkpt lat="44.08657" lon="7.43532">
        <ele>2460.2</ele>
        <time>2017-08-27T08:23:32Z</time>
      </trkpt>
      <trkpt lat="44.08652" lon="7.43537">
        <ele>2458.6</ele>
        <time>2017-08-27T08:23:45Z</time>
      </trkpt>
      <trkpt lat="44.08646" lon="7.43534">
        <ele>2458.9</ele>
        <time>2017-08-27T08:23:58Z</time>
      </trkpt>
      <trkpt lat="44.08639" lon="7.43536">
        <ele>2457.9</ele>
        <time>2017-08-27T08:24:11Z</time>
      </trkpt>
      <trkpt lat="44.0864" lon="7.43537">
        <ele>2457.8</ele>
        <time>2017-08-27T08:24:28Z</time>
      </trkpt>
      <trkpt lat="44.08635" lon="7.43542">
        <ele>2456.6</ele>
        <time>2017-08-27T08:24:46Z</time>
      </trkpt>
      <trkpt lat="44.08627" lon="7.43548">
        <ele>2455.1</ele>
        <time>2017-08-27T08:24:58Z</time>
      </trkpt>
      <trkpt lat="44.08619" lon="7.43548">
        <ele>2455.3</ele>
        <time>2017-08-27T08:25:10Z</time>
      </trkpt>
      <trkpt lat="44.08617" lon="7.43547">
        <ele>2455.6</ele>
        <time>2017-08-27T08:25:13Z</time>
      </trkpt>
      <trkpt lat="44.08615" lon="7.43552">
        <ele>2454.1</ele>
        <time>2017-08-27T08:25:16Z</time>
      </trkpt>
      <trkpt lat="44.08601" lon="7.43562">
        <ele>2452.8</ele>
        <time>2017-08-27T08:25:30Z</time>
      </trkpt>
      <trkpt lat="44.08591" lon="7.43569">
        <ele>2451.9</ele>
        <time>2017-08-27T08:25:42Z</time>
      </trkpt>
      <trkpt lat="44.08587" lon="7.43571">
        <ele>2451.7</ele>
        <time>2017-08-27T08:25:47Z</time>
      </trkpt>
      <trkpt lat="44.08578" lon="7.43571">
        <ele>2451.5</ele>
        <time>2017-08-27T08:26:00Z</time>
      </trkpt>
      <trkpt lat="44.08571" lon="7.43575">
        <ele>2449.7</ele>
        <time>2017-08-27T08:26:12Z</time>
      </trkpt>
      <trkpt lat="44.08562" lon="7.43576">
        <ele>2448.6</ele>
        <time>2017-08-27T08:26:26Z</time>
      </trkpt>
      <trkpt lat="44.08561" lon="7.43577">
        <ele>2448.3</ele>
        <time>2017-08-27T08:26:28Z</time>
      </trkpt>
      <trkpt lat="44.08553" lon="7.43579">
        <ele>2446.8</ele>
        <time>2017-08-27T08:26:43Z</time>
      </trkpt>
      <trkpt lat="44.08544" lon="7.43578">
        <ele>2445.6</ele>
        <time>2017-08-27T08:26:56Z</time>
      </trkpt>
      <trkpt lat="44.08535" lon="7.43575">
        <ele>2445.1</ele>
        <time>2017-08-27T08:27:11Z</time>
      </trkpt>
      <trkpt lat="44.08529" lon="7.43581">
        <ele>2442.1</ele>
        <time>2017-08-27T08:27:22Z</time>
      </trkpt>
      <trkpt lat="44.08523" lon="7.43582">
        <ele>2442.2</ele>
        <time>2017-08-27T08:27:30Z</time>
      </trkpt>
      <trkpt lat="44.08519" lon="7.43583">
        <ele>2442.4</ele>
        <time>2017-08-27T08:27:35Z</time>
      </trkpt>
      <trkpt lat="44.0851" lon="7.43591">
        <ele>2439.5</ele>
        <time>2017-08-27T08:27:48Z</time>
      </trkpt>
      <trkpt lat="44.08505" lon="7.43598">
        <ele>2436.2</ele>
        <time>2017-08-27T08:28:00Z</time>
      </trkpt>
      <trkpt lat="44.08503" lon="7.43605">
        <ele>2432.4</ele>
        <time>2017-08-27T08:28:11Z</time>
      </trkpt>
      <trkpt lat="44.08501" lon="7.43608">
        <ele>2430.8</ele>
        <time>2017-08-27T08:28:16Z</time>
      </trkpt>
      <trkpt lat="44.08499" lon="7.43607">
        <ele>2431.5</ele>
        <time>2017-08-27T08:28:26Z</time>
      </trkpt>
      <trkpt lat="44.08496" lon="7.43608">
        <ele>2431.2</ele>
        <time>2017-08-27T08:28:48Z</time>
      </trkpt>
      <trkpt lat="44.08491" lon="7.43613">
        <ele>2429.1</ele>
        <time>2017-08-27T08:29:06Z</time>
      </trkpt>
      <trkpt lat="44.08489" lon="7.43616">
        <ele>2427.8</ele>
        <time>2017-08-27T08:29:10Z</time>
      </trkpt>
      <trkpt lat="44.08483" lon="7.43624">
        <ele>2424.5</ele>
        <time>2017-08-27T08:29:20Z</time>
      </trkpt>
      <trkpt lat="44.08481" lon="7.43626">
        <ele>2423.7</ele>
        <time>2017-08-27T08:29:24Z</time>
      </trkpt>
      <trkpt lat="44.08476" lon="7.43633">
        <ele>2420.7</ele>
        <time>2017-08-27T08:29:35Z</time>
      </trkpt>
      <trkpt lat="44.0847" lon="7.43639">
        <ele>2418.6</ele>
        <time>2017-08-27T08:29:42Z</time>
      </trkpt>
      <trkpt lat="44.08466" lon="7.43645">
        <ele>2417.8</ele>
        <time>2017-08-27T08:29:48Z</time>
      </trkpt>
      <trkpt lat="44.08464" lon="7.43648">
        <ele>2417.3</ele>
        <time>2017-08-27T08:29:50Z</time>
      </trkpt>
      <trkpt lat="44.08457" lon="7.43658">
        <ele>2415.8</ele>
        <time>2017-08-27T08:30:00Z</time>
      </trkpt>
      <trkpt lat="44.08458" lon="7.43664">
        <ele>2413.5</ele>
        <time>2017-08-27T08:30:05Z</time>
      </trkpt>
      <trkpt lat="44.08459" lon="7.43673">
        <ele>2410.9</ele>
        <time>2017-08-27T08:30:14Z</time>
      </trkpt>
      <trkpt lat="44.0846" lon="7.43684">
        <ele>2408.1</ele>
        <time>2017-08-27T08:30:24Z</time>
      </trkpt>
      <trkpt lat="44.0846" lon="7.43691">
        <ele>2406.4</ele>
        <time>2017-08-27T08:30:28Z</time>
      </trkpt>
      <trkpt lat="44.08461" lon="7.43705">
        <ele>2403.9</ele>
        <time>2017-08-27T08:30:37Z</time>
      </trkpt>
      <trkpt lat="44.08461" lon="7.43708">
        <ele>2403.5</ele>
        <time>2017-08-27T08:30:39Z</time>
      </trkpt>
      <trkpt lat="44.0846" lon="7.4371">
        <ele>2403.4</ele>
        <time>2017-08-27T08:30:41Z</time>
      </trkpt>
      <trkpt lat="44.08459" lon="7.43716">
        <ele>2402.8</ele>
        <time>2017-08-27T08:30:46Z</time>
      </trkpt>
      <trkpt lat="44.08452" lon="7.43724">
        <ele>2403.2</ele>
        <time>2017-08-27T08:30:59Z</time>
      </trkpt>
      <trkpt lat="44.08452" lon="7.43724">
        <ele>2403.2</ele>
        <time>2017-08-27T08:31:16Z</time>
      </trkpt>
      <trkpt lat="44.08452" lon="7.43724">
        <ele>2403.2</ele>
        <time>2017-08-27T08:31:32Z</time>
      </trkpt>
      <trkpt lat="44.08452" lon="7.43724">
        <ele>2403.2</ele>
        <time>2017-08-27T08:31:54Z</time>
      </trkpt>
      <trkpt lat="44.08452" lon="7.43725">
        <ele>2403.1</ele>
        <time>2017-08-27T08:32:20Z</time>
      </trkpt>
      <trkpt lat="44.08452" lon="7.43725">
        <ele>2403.1</ele>
        <time>2017-08-27T08:32:41Z</time>
      </trkpt>
      <trkpt lat="44.08452" lon="7.43725">
        <ele>2403.1</ele>
        <time>2017-08-27T08:32:58Z</time>
      </trkpt>
      <trkpt lat="44.08452" lon="7.43727">
        <ele>2402.9</ele>
        <time>2017-08-27T08:33:19Z</time>
      </trkpt>
      <trkpt lat="44.08453" lon="7.43726">
        <ele>2402.8</ele>
        <time>2017-08-27T08:33:46Z</time>
      </trkpt>
      <trkpt lat="44.08453" lon="7.43726">
        <ele>2402.8</ele>
        <time>2017-08-27T08:34:12Z</time>
      </trkpt>
      <trkpt lat="44.08452" lon="7.43725">
        <ele>2403.1</ele>
        <time>2017-08-27T08:34:40Z</time>
      </trkpt>
      <trkpt lat="44.08453" lon="7.43726">
        <ele>2402.8</ele>
        <time>2017-08-27T08:35:06Z</time>
      </trkpt>
      <trkpt lat="44.08453" lon="7.43726">
        <ele>2402.8</ele>
        <time>2017-08-27T08:35:25Z</time>
      </trkpt>
      <trkpt lat="44.08453" lon="7.43728">
        <ele>2402.7</ele>
        <time>2017-08-27T08:35:57Z</time>
      </trkpt>
      <trkpt lat="44.08453" lon="7.43727">
        <ele>2402.7</ele>
        <time>2017-08-27T08:36:19Z</time>
      </trkpt>
      <trkpt lat="44.08453" lon="7.43726">
        <ele>2402.8</ele>
        <time>2017-08-27T08:36:37Z</time>
      </trkpt>
      <trkpt lat="44.08452" lon="7.43726">
        <ele>2403</ele>
        <time>2017-08-27T08:36:38Z</time>
      </trkpt>
      <trkpt lat="44.08451" lon="7.43724">
        <ele>2403.4</ele>
        <time>2017-08-27T08:36:40Z</time>
      </trkpt>
      <trkpt lat="44.0844" lon="7.43721">
        <ele>2406.5</ele>
        <time>2017-08-27T08:36:52Z</time>
      </trkpt>
      <trkpt lat="44.0843" lon="7.43717">
        <ele>2409.9</ele>
        <time>2017-08-27T08:37:06Z</time>
      </trkpt>
      <trkpt lat="44.08422" lon="7.43715">
        <ele>2412.5</ele>
        <time>2017-08-27T08:37:18Z</time>
      </trkpt>
      <trkpt lat="44.08419" lon="7.43714">
        <ele>2413.5</ele>
        <time>2017-08-27T08:37:22Z</time>
      </trkpt>
      <trkpt lat="44.08418" lon="7.43714">
        <ele>2413.8</ele>
        <time>2017-08-27T08:37:23Z</time>
      </trkpt>
      <trkpt lat="44.08416" lon="7.43715">
        <ele>2414.2</ele>
        <time>2017-08-27T08:37:25Z</time>
      </trkpt>
      <trkpt lat="44.08413" lon="7.43724">
        <ele>2413.5</ele>
        <time>2017-08-27T08:37:31Z</time>
      </trkpt>
      <trkpt lat="44.08404" lon="7.43727">
        <ele>2414.8</ele>
        <time>2017-08-27T08:37:45Z</time>
      </trkpt>
      <trkpt lat="44.08397" lon="7.43739">
        <ele>2415.2</ele>
        <time>2017-08-27T08:37:59Z</time>
      </trkpt>
      <trkpt lat="44.08397" lon="7.43739">
        <ele>2415.2</ele>
        <time>2017-08-27T08:38:00Z</time>
      </trkpt>
      <trkpt lat="44.08391" lon="7.43743">
        <ele>2416.1</ele>
        <time>2017-08-27T08:38:08Z</time>
      </trkpt>
      <trkpt lat="44.08383" lon="7.43746">
        <ele>2417.4</ele>
        <time>2017-08-27T08:38:16Z</time>
      </trkpt>
      <trkpt lat="44.0837" lon="7.43756">
        <ele>2418.6</ele>
        <time>2017-08-27T08:38:31Z</time>
      </trkpt>
      <trkpt lat="44.08367" lon="7.43758">
        <ele>2418.8</ele>
        <time>2017-08-27T08:38:33Z</time>
      </trkpt>
      <trkpt lat="44.08366" lon="7.4376">
        <ele>2418.7</ele>
        <time>2017-08-27T08:38:35Z</time>
      </trkpt>
      <trkpt lat="44.0836" lon="7.43768">
        <ele>2418.6</ele>
        <time>2017-08-27T08:38:41Z</time>
      </trkpt>
      <trkpt lat="44.08357" lon="7.43777">
        <ele>2418</ele>
        <time>2017-08-27T08:38:47Z</time>
      </trkpt>
      <trkpt lat="44.08355" lon="7.4378">
        <ele>2418.2</ele>
        <time>2017-08-27T08:38:50Z</time>
      </trkpt>
      <trkpt lat="44.08347" lon="7.43796">
        <ele>2419.4</ele>
        <time>2017-08-27T08:39:04Z</time>
      </trkpt>
      <trkpt lat="44.08342" lon="7.43813">
        <ele>2422.2</ele>
        <time>2017-08-27T08:39:17Z</time>
      </trkpt>
      <trkpt lat="44.08341" lon="7.43821">
        <ele>2424.7</ele>
        <time>2017-08-27T08:39:22Z</time>
      </trkpt>
      <trkpt lat="44.0833" lon="7.43824">
        <ele>2429.3</ele>
        <time>2017-08-27T08:39:36Z</time>
      </trkpt>
      <trkpt lat="44.08332" lon="7.43835">
        <ele>2432.3</ele>
        <time>2017-08-27T08:39:47Z</time>
      </trkpt>
      <trkpt lat="44.08329" lon="7.43833">
        <ele>2432.6</ele>
        <time>2017-08-27T08:39:52Z</time>
      </trkpt>
      <trkpt lat="44.08328" lon="7.43833">
        <ele>2433</ele>
        <time>2017-08-27T08:39:53Z</time>
      </trkpt>
      <trkpt lat="44.08317" lon="7.4383">
        <ele>2436.3</ele>
        <time>2017-08-27T08:40:07Z</time>
      </trkpt>
      <trkpt lat="44.08311" lon="7.43831">
        <ele>2439</ele>
        <time>2017-08-27T08:40:20Z</time>
      </trkpt>
      <trkpt lat="44.08305" lon="7.43827">
        <ele>2439.9</ele>
        <time>2017-08-27T08:40:31Z</time>
      </trkpt>
      <trkpt lat="44.083" lon="7.43827">
        <ele>2441.2</ele>
        <time>2017-08-27T08:40:41Z</time>
      </trkpt>
      <trkpt lat="44.08297" lon="7.43827">
        <ele>2442</ele>
        <time>2017-08-27T08:40:45Z</time>
      </trkpt>
      <trkpt lat="44.08288" lon="7.43826">
        <ele>2444.1</ele>
        <time>2017-08-27T08:41:00Z</time>
      </trkpt>
      <trkpt lat="44.08279" lon="7.43826">
        <ele>2446.6</ele>
        <time>2017-08-27T08:41:15Z</time>
      </trkpt>
      <trkpt lat="44.08269" lon="7.43827">
        <ele>2451</ele>
        <time>2017-08-27T08:41:27Z</time>
      </trkpt>
      <trkpt lat="44.08264" lon="7.43827">
        <ele>2453.1</ele>
        <time>2017-08-27T08:41:32Z</time>
      </trkpt>
      <trkpt lat="44.08264" lon="7.43827">
        <ele>2453.1</ele>
        <time>2017-08-27T08:41:33Z</time>
      </trkpt>
      <trkpt lat="44.08255" lon="7.43825">
        <ele>2456.4</ele>
        <time>2017-08-27T08:41:45Z</time>
      </trkpt>
      <trkpt lat="44.08248" lon="7.43822">
        <ele>2458.7</ele>
        <time>2017-08-27T08:41:53Z</time>
      </trkpt>
      <trkpt lat="44.08241" lon="7.4382">
        <ele>2461.5</ele>
        <time>2017-08-27T08:42:02Z</time>
      </trkpt>
      <trkpt lat="44.08234" lon="7.43808">
        <ele>2461.7</ele>
        <time>2017-08-27T08:42:17Z</time>
      </trkpt>
      <trkpt lat="44.08228" lon="7.43797">
        <ele>2462.9</ele>
        <time>2017-08-27T08:42:28Z</time>
      </trkpt>
      <trkpt lat="44.08219" lon="7.43787">
        <ele>2465.9</ele>
        <time>2017-08-27T08:42:41Z</time>
      </trkpt>
      <trkpt lat="44.08216" lon="7.43785">
        <ele>2467.1</ele>
        <time>2017-08-27T08:42:44Z</time>
      </trkpt>
      <trkpt lat="44.08214" lon="7.43787">
        <ele>2468.4</ele>
        <time>2017-08-27T08:42:49Z</time>
      </trkpt>
      <trkpt lat="44.08215" lon="7.43804">
        <ele>2470.2</ele>
        <time>2017-08-27T08:42:59Z</time>
      </trkpt>
      <trkpt lat="44.08215" lon="7.4382">
        <ele>2473.9</ele>
        <time>2017-08-27T08:43:12Z</time>
      </trkpt>
      <trkpt lat="44.08214" lon="7.4383">
        <ele>2476.7</ele>
        <time>2017-08-27T08:43:21Z</time>
      </trkpt>
      <trkpt lat="44.08212" lon="7.43836">
        <ele>2479.2</ele>
        <time>2017-08-27T08:43:26Z</time>
      </trkpt>
      <trkpt lat="44.08208" lon="7.43852">
        <ele>2485.5</ele>
        <time>2017-08-27T08:43:42Z</time>
      </trkpt>
      <trkpt lat="44.08212" lon="7.43859">
        <ele>2485.8</ele>
        <time>2017-08-27T08:43:48Z</time>
      </trkpt>
      <trkpt lat="44.08214" lon="7.43867">
        <ele>2487.5</ele>
        <time>2017-08-27T08:44:02Z</time>
      </trkpt>
      <trkpt lat="44.08207" lon="7.43863">
        <ele>2489.2</ele>
        <time>2017-08-27T08:44:15Z</time>
      </trkpt>
      <trkpt lat="44.08205" lon="7.43861">
        <ele>2489.4</ele>
        <time>2017-08-27T08:44:18Z</time>
      </trkpt>
      <trkpt lat="44.08203" lon="7.43858">
        <ele>2489.4</ele>
        <time>2017-08-27T08:44:21Z</time>
      </trkpt>
      <trkpt lat="44.08193" lon="7.43854">
        <ele>2492.5</ele>
        <time>2017-08-27T08:44:36Z</time>
      </trkpt>
      <trkpt lat="44.08189" lon="7.43851">
        <ele>2493.3</ele>
        <time>2017-08-27T08:44:45Z</time>
      </trkpt>
      <trkpt lat="44.08184" lon="7.4385">
        <ele>2495.1</ele>
        <time>2017-08-27T08:44:50Z</time>
      </trkpt>
      <trkpt lat="44.08183" lon="7.4385">
        <ele>2495.5</ele>
        <time>2017-08-27T08:44:51Z</time>
      </trkpt>
      <trkpt lat="44.08174" lon="7.43848">
        <ele>2498.7</ele>
        <time>2017-08-27T08:45:04Z</time>
      </trkpt>
      <trkpt lat="44.08164" lon="7.43842">
        <ele>2501.4</ele>
        <time>2017-08-27T08:45:17Z</time>
      </trkpt>
      <trkpt lat="44.08158" lon="7.43842">
        <ele>2504.2</ele>
        <time>2017-08-27T08:45:23Z</time>
      </trkpt>
      <trkpt lat="44.08157" lon="7.43842">
        <ele>2504.7</ele>
        <time>2017-08-27T08:45:24Z</time>
      </trkpt>
      <trkpt lat="44.08156" lon="7.43849">
        <ele>2506.9</ele>
        <time>2017-08-27T08:45:31Z</time>
      </trkpt>
      <trkpt lat="44.08159" lon="7.43856">
        <ele>2507.3</ele>
        <time>2017-08-27T08:45:38Z</time>
      </trkpt>
      <trkpt lat="44.08157" lon="7.43869">
        <ele>2511.9</ele>
        <time>2017-08-27T08:45:46Z</time>
      </trkpt>
      <trkpt lat="44.0816" lon="7.43885">
        <ele>2515.4</ele>
        <time>2017-08-27T08:45:59Z</time>
      </trkpt>
      <trkpt lat="44.0816" lon="7.43895">
        <ele>2518.8</ele>
        <time>2017-08-27T08:46:09Z</time>
      </trkpt>
      <trkpt lat="44.08161" lon="7.43902">
        <ele>2521</ele>
        <time>2017-08-27T08:46:16Z</time>
      </trkpt>
      <trkpt lat="44.08161" lon="7.43908">
        <ele>2523.1</ele>
        <time>2017-08-27T08:46:21Z</time>
      </trkpt>
      <trkpt lat="44.08162" lon="7.43909">
        <ele>2523.1</ele>
        <time>2017-08-27T08:46:22Z</time>
      </trkpt>
      <trkpt lat="44.08162" lon="7.43913">
        <ele>2524.5</ele>
        <time>2017-08-27T08:46:25Z</time>
      </trkpt>
      <trkpt lat="44.08158" lon="7.43916">
        <ele>2527.2</ele>
        <time>2017-08-27T08:46:37Z</time>
      </trkpt>
      <trkpt lat="44.08153" lon="7.43912">
        <ele>2527.7</ele>
        <time>2017-08-27T08:46:46Z</time>
      </trkpt>
      <trkpt lat="44.08149" lon="7.43911">
        <ele>2529</ele>
        <time>2017-08-27T08:46:54Z</time>
      </trkpt>
      <trkpt lat="44.08146" lon="7.43912">
        <ele>2530.5</ele>
        <time>2017-08-27T08:46:59Z</time>
      </trkpt>
      <trkpt lat="44.0814" lon="7.43909">
        <ele>2531.8</ele>
        <time>2017-08-27T08:47:10Z</time>
      </trkpt>
      <trkpt lat="44.08139" lon="7.43908">
        <ele>2531.8</ele>
        <time>2017-08-27T08:47:13Z</time>
      </trkpt>
      <trkpt lat="44.08124" lon="7.43902">
        <ele>2536.2</ele>
        <time>2017-08-27T08:47:29Z</time>
      </trkpt>
      <trkpt lat="44.08121" lon="7.43901">
        <ele>2537.1</ele>
        <time>2017-08-27T08:47:33Z</time>
      </trkpt>
      <trkpt lat="44.08117" lon="7.43901">
        <ele>2538.8</ele>
        <time>2017-08-27T08:47:36Z</time>
      </trkpt>
      <trkpt lat="44.08115" lon="7.43902">
        <ele>2540</ele>
        <time>2017-08-27T08:47:39Z</time>
      </trkpt>
      <trkpt lat="44.08112" lon="7.43901">
        <ele>2541</ele>
        <time>2017-08-27T08:47:42Z</time>
      </trkpt>
      <trkpt lat="44.08108" lon="7.43901">
        <ele>2542.3</ele>
        <time>2017-08-27T08:47:45Z</time>
      </trkpt>
      <trkpt lat="44.08104" lon="7.43901">
        <ele>2543.6</ele>
        <time>2017-08-27T08:47:50Z</time>
      </trkpt>
      <trkpt lat="44.08094" lon="7.439">
        <ele>2546.3</ele>
        <time>2017-08-27T08:48:02Z</time>
      </trkpt>
      <trkpt lat="44.08089" lon="7.439">
        <ele>2547.8</ele>
        <time>2017-08-27T08:48:10Z</time>
      </trkpt>
      <trkpt lat="44.08088" lon="7.43897">
        <ele>2547.2</ele>
        <time>2017-08-27T08:48:15Z</time>
      </trkpt>
      <trkpt lat="44.0808" lon="7.43895">
        <ele>2548.2</ele>
        <time>2017-08-27T08:48:25Z</time>
      </trkpt>
      <trkpt lat="44.08071" lon="7.43889">
        <ele>2546.9</ele>
        <time>2017-08-27T08:48:38Z</time>
      </trkpt>
      <trkpt lat="44.08071" lon="7.4389">
        <ele>2547.2</ele>
        <time>2017-08-27T08:48:39Z</time>
      </trkpt>
      <trkpt lat="44.08067" lon="7.43887">
        <ele>2547.1</ele>
        <time>2017-08-27T08:48:44Z</time>
      </trkpt>
      <trkpt lat="44.08066" lon="7.43886">
        <ele>2547.1</ele>
        <time>2017-08-27T08:48:45Z</time>
      </trkpt>
      <trkpt lat="44.08062" lon="7.43868">
        <ele>2547</ele>
        <time>2017-08-27T08:48:58Z</time>
      </trkpt>
      <trkpt lat="44.08062" lon="7.43864">
        <ele>2546.9</ele>
        <time>2017-08-27T08:49:01Z</time>
      </trkpt>
      <trkpt lat="44.08056" lon="7.43852">
        <ele>2549.2</ele>
        <time>2017-08-27T08:49:16Z</time>
      </trkpt>
      <trkpt lat="44.08056" lon="7.43852">
        <ele>2549.2</ele>
        <time>2017-08-27T08:49:39Z</time>
      </trkpt>
      <trkpt lat="44.08055" lon="7.43852">
        <ele>2549.2</ele>
        <time>2017-08-27T08:50:04Z</time>
      </trkpt>
      <trkpt lat="44.08054" lon="7.43852">
        <ele>2549</ele>
        <time>2017-08-27T08:50:35Z</time>
      </trkpt>
      <trkpt lat="44.08054" lon="7.43852">
        <ele>2549</ele>
        <time>2017-08-27T08:51:17Z</time>
      </trkpt>
      <trkpt lat="44.08054" lon="7.43852">
        <ele>2549</ele>
        <time>2017-08-27T08:51:52Z</time>
      </trkpt>
      <trkpt lat="44.08055" lon="7.43851">
        <ele>2549.3</ele>
        <time>2017-08-27T08:52:27Z</time>
      </trkpt>
      <trkpt lat="44.08055" lon="7.43851">
        <ele>2549.3</ele>
        <time>2017-08-27T08:53:01Z</time>
      </trkpt>
      <trkpt lat="44.08054" lon="7.43852">
        <ele>2549</ele>
        <time>2017-08-27T08:53:32Z</time>
      </trkpt>
      <trkpt lat="44.08054" lon="7.43852">
        <ele>2549</ele>
        <time>2017-08-27T08:54:00Z</time>
      </trkpt>
      <trkpt lat="44.08054" lon="7.43851">
        <ele>2549.1</ele>
        <time>2017-08-27T08:54:35Z</time>
      </trkpt>
      <trkpt lat="44.08054" lon="7.43852">
        <ele>2549</ele>
        <time>2017-08-27T08:54:58Z</time>
      </trkpt>
      <trkpt lat="44.08054" lon="7.43852">
        <ele>2549</ele>
        <time>2017-08-27T08:55:24Z</time>
      </trkpt>
      <trkpt lat="44.08053" lon="7.43852">
        <ele>2548.7</ele>
        <time>2017-08-27T08:55:47Z</time>
      </trkpt>
      <trkpt lat="44.08053" lon="7.4385">
        <ele>2549</ele>
        <time>2017-08-27T08:55:48Z</time>
      </trkpt>
      <trkpt lat="44.08053" lon="7.43849">
        <ele>2549.2</ele>
        <time>2017-08-27T08:55:49Z</time>
      </trkpt>
      <trkpt lat="44.08048" lon="7.4384">
        <ele>2549.9</ele>
        <time>2017-08-27T08:56:03Z</time>
      </trkpt>
      <trkpt lat="44.08045" lon="7.43841">
        <ele>2549.2</ele>
        <time>2017-08-27T08:56:09Z</time>
      </trkpt>
      <trkpt lat="44.08041" lon="7.43836">
        <ele>2549.8</ele>
        <time>2017-08-27T08:56:21Z</time>
      </trkpt>
      <trkpt lat="44.08041" lon="7.43835">
        <ele>2550</ele>
        <time>2017-08-27T08:56:22Z</time>
      </trkpt>
      <trkpt lat="44.08032" lon="7.43827">
        <ele>2550.3</ele>
        <time>2017-08-27T08:56:36Z</time>
      </trkpt>
      <trkpt lat="44.0803" lon="7.43836">
        <ele>2548.4</ele>
        <time>2017-08-27T08:56:48Z</time>
      </trkpt>
      <trkpt lat="44.08026" lon="7.43832">
        <ele>2547.9</ele>
        <time>2017-08-27T08:56:56Z</time>
      </trkpt>
      <trkpt lat="44.08024" lon="7.4383">
        <ele>2546.7</ele>
        <time>2017-08-27T08:56:58Z</time>
      </trkpt>
      <trkpt lat="44.08022" lon="7.43819">
        <ele>2547</ele>
        <time>2017-08-27T08:57:06Z</time>
      </trkpt>
      <trkpt lat="44.08018" lon="7.43813">
        <ele>2545.3</ele>
        <time>2017-08-27T08:57:14Z</time>
      </trkpt>
      <trkpt lat="44.08019" lon="7.43806">
        <ele>2547.2</ele>
        <time>2017-08-27T08:57:18Z</time>
      </trkpt>
      <trkpt lat="44.08019" lon="7.43796">
        <ele>2548</ele>
        <time>2017-08-27T08:57:26Z</time>
      </trkpt>
      <trkpt lat="44.08016" lon="7.4379">
        <ele>2546.6</ele>
        <time>2017-08-27T08:57:31Z</time>
      </trkpt>
      <trkpt lat="44.08013" lon="7.43784">
        <ele>2545.4</ele>
        <time>2017-08-27T08:57:38Z</time>
      </trkpt>
      <trkpt lat="44.08008" lon="7.4378">
        <ele>2543.1</ele>
        <time>2017-08-27T08:57:46Z</time>
      </trkpt>
      <trkpt lat="44.08006" lon="7.43775">
        <ele>2542.5</ele>
        <time>2017-08-27T08:57:51Z</time>
      </trkpt>
      <trkpt lat="44.08" lon="7.43765">
        <ele>2540.4</ele>
        <time>2017-08-27T08:58:04Z</time>
      </trkpt>
      <trkpt lat="44.08" lon="7.43765">
        <ele>2540.4</ele>
        <time>2017-08-27T08:58:26Z</time>
      </trkpt>
      <trkpt lat="44.07996" lon="7.43753">
        <ele>2538.7</ele>
        <time>2017-08-27T08:58:40Z</time>
      </trkpt>
      <trkpt lat="44.07988" lon="7.43743">
        <ele>2535.5</ele>
        <time>2017-08-27T08:58:54Z</time>
      </trkpt>
      <trkpt lat="44.07985" lon="7.4374">
        <ele>2534.3</ele>
        <time>2017-08-27T08:58:58Z</time>
      </trkpt>
      <trkpt lat="44.07975" lon="7.43735">
        <ele>2528.8</ele>
        <time>2017-08-27T08:59:11Z</time>
      </trkpt>
      <trkpt lat="44.07971" lon="7.43731">
        <ele>2527.3</ele>
        <time>2017-08-27T08:59:18Z</time>
      </trkpt>
      <trkpt lat="44.07971" lon="7.43735">
        <ele>2526</ele>
        <time>2017-08-27T08:59:31Z</time>
      </trkpt>
      <trkpt lat="44.07973" lon="7.43744">
        <ele>2524.5</ele>
        <time>2017-08-27T08:59:45Z</time>
      </trkpt>
      <trkpt lat="44.07975" lon="7.43751">
        <ele>2523.8</ele>
        <time>2017-08-27T08:59:54Z</time>
      </trkpt>
      <trkpt lat="44.07968" lon="7.4375">
        <ele>2518.8</ele>
        <time>2017-08-27T09:00:03Z</time>
      </trkpt>
      <trkpt lat="44.0797" lon="7.43755">
        <ele>2519.2</ele>
        <time>2017-08-27T09:00:08Z</time>
      </trkpt>
      <trkpt lat="44.0797" lon="7.43756">
        <ele>2519</ele>
        <time>2017-08-27T09:00:09Z</time>
      </trkpt>
      <trkpt lat="44.07971" lon="7.43768">
        <ele>2517.2</ele>
        <time>2017-08-27T09:00:20Z</time>
      </trkpt>
      <trkpt lat="44.07972" lon="7.43778">
        <ele>2515.8</ele>
        <time>2017-08-27T09:00:33Z</time>
      </trkpt>
      <trkpt lat="44.07972" lon="7.43787">
        <ele>2513.5</ele>
        <time>2017-08-27T09:00:47Z</time>
      </trkpt>
      <trkpt lat="44.07968" lon="7.43785">
        <ele>2510.8</ele>
        <time>2017-08-27T09:00:59Z</time>
      </trkpt>
      <trkpt lat="44.07967" lon="7.4378">
        <ele>2511.3</ele>
        <time>2017-08-27T09:01:03Z</time>
      </trkpt>
      <trkpt lat="44.07964" lon="7.43774">
        <ele>2510.3</ele>
        <time>2017-08-27T09:01:18Z</time>
      </trkpt>
      <trkpt lat="44.07961" lon="7.43771">
        <ele>2508.7</ele>
        <time>2017-08-27T09:01:39Z</time>
      </trkpt>
      <trkpt lat="44.07954" lon="7.43757">
        <ele>2506.5</ele>
        <time>2017-08-27T09:01:53Z</time>
      </trkpt>
      <trkpt lat="44.07949" lon="7.43752">
        <ele>2504</ele>
        <time>2017-08-27T09:02:03Z</time>
      </trkpt>
      <trkpt lat="44.0795" lon="7.43761">
        <ele>2502.5</ele>
        <time>2017-08-27T09:02:15Z</time>
      </trkpt>
      <trkpt lat="44.07946" lon="7.43757">
        <ele>2500.4</ele>
        <time>2017-08-27T09:02:26Z</time>
      </trkpt>
      <trkpt lat="44.07943" lon="7.43754">
        <ele>2499.1</ele>
        <time>2017-08-27T09:02:33Z</time>
      </trkpt>
      <trkpt lat="44.07935" lon="7.43748">
        <ele>2495.9</ele>
        <time>2017-08-27T09:02:44Z</time>
      </trkpt>
      <trkpt lat="44.07933" lon="7.43747">
        <ele>2495.1</ele>
        <time>2017-08-27T09:02:48Z</time>
      </trkpt>
      <trkpt lat="44.07931" lon="7.43746">
        <ele>2494.2</ele>
        <time>2017-08-27T09:02:50Z</time>
      </trkpt>
      <trkpt lat="44.07929" lon="7.43742">
        <ele>2494.4</ele>
        <time>2017-08-27T09:02:53Z</time>
      </trkpt>
      <trkpt lat="44.07924" lon="7.43736">
        <ele>2493.5</ele>
        <time>2017-08-27T09:03:00Z</time>
      </trkpt>
      <trkpt lat="44.0792" lon="7.43732">
        <ele>2492.5</ele>
        <time>2017-08-27T09:03:04Z</time>
      </trkpt>
      <trkpt lat="44.07908" lon="7.43722">
        <ele>2489.1</ele>
        <time>2017-08-27T09:03:18Z</time>
      </trkpt>
      <trkpt lat="44.07906" lon="7.43719">
        <ele>2489.5</ele>
        <time>2017-08-27T09:03:21Z</time>
      </trkpt>
      <trkpt lat="44.07905" lon="7.43718">
        <ele>2489.4</ele>
        <time>2017-08-27T09:03:23Z</time>
      </trkpt>
      <trkpt lat="44.07895" lon="7.43709">
        <ele>2488.2</ele>
        <time>2017-08-27T09:03:38Z</time>
      </trkpt>
      <trkpt lat="44.07893" lon="7.43709">
        <ele>2487</ele>
        <time>2017-08-27T09:03:55Z</time>
      </trkpt>
      <trkpt lat="44.07893" lon="7.43709">
        <ele>2487</ele>
        <time>2017-08-27T09:04:16Z</time>
      </trkpt>
      <trkpt lat="44.07892" lon="7.4371">
        <ele>2486</ele>
        <time>2017-08-27T09:04:21Z</time>
      </trkpt>
      <trkpt lat="44.07891" lon="7.4371">
        <ele>2485.4</ele>
        <time>2017-08-27T09:04:23Z</time>
      </trkpt>
      <trkpt lat="44.07895" lon="7.43718">
        <ele>2483.6</ele>
        <time>2017-08-27T09:04:33Z</time>
      </trkpt>
      <trkpt lat="44.07895" lon="7.43721">
        <ele>2482.1</ele>
        <time>2017-08-27T09:04:35Z</time>
      </trkpt>
      <trkpt lat="44.07895" lon="7.43723">
        <ele>2481.2</ele>
        <time>2017-08-27T09:04:37Z</time>
      </trkpt>
      <trkpt lat="44.07899" lon="7.4374">
        <ele>2477.4</ele>
        <time>2017-08-27T09:04:50Z</time>
      </trkpt>
      <trkpt lat="44.07901" lon="7.43746">
        <ele>2476.4</ele>
        <time>2017-08-27T09:04:55Z</time>
      </trkpt>
      <trkpt lat="44.07902" lon="7.43748">
        <ele>2476.3</ele>
        <time>2017-08-27T09:04:57Z</time>
      </trkpt>
      <trkpt lat="44.07904" lon="7.43752">
        <ele>2476</ele>
        <time>2017-08-27T09:05:00Z</time>
      </trkpt>
      <trkpt lat="44.07905" lon="7.43754">
        <ele>2475.9</ele>
        <time>2017-08-27T09:05:05Z</time>
      </trkpt>
      <trkpt lat="44.07891" lon="7.43748">
        <ele>2469.9</ele>
        <time>2017-08-27T09:05:19Z</time>
      </trkpt>
      <trkpt lat="44.07888" lon="7.43746">
        <ele>2469</ele>
        <time>2017-08-27T09:05:24Z</time>
      </trkpt>
      <trkpt lat="44.0788" lon="7.4374">
        <ele>2466.9</ele>
        <time>2017-08-27T09:05:35Z</time>
      </trkpt>
      <trkpt lat="44.07874" lon="7.43737">
        <ele>2464.7</ele>
        <time>2017-08-27T09:05:45Z</time>
      </trkpt>
      <trkpt lat="44.07865" lon="7.4373">
        <ele>2461.9</ele>
        <time>2017-08-27T09:05:57Z</time>
      </trkpt>
      <trkpt lat="44.07863" lon="7.43728">
        <ele>2461.4</ele>
        <time>2017-08-27T09:05:59Z</time>
      </trkpt>
      <trkpt lat="44.07864" lon="7.43733">
        <ele>2460.5</ele>
        <time>2017-08-27T09:06:08Z</time>
      </trkpt>
      <trkpt lat="44.07865" lon="7.43746">
        <ele>2457.2</ele>
        <time>2017-08-27T09:06:26Z</time>
      </trkpt>
      <trkpt lat="44.07865" lon="7.43747">
        <ele>2456.9</ele>
        <time>2017-08-27T09:06:29Z</time>
      </trkpt>
      <trkpt lat="44.07864" lon="7.43752">
        <ele>2454.7</ele>
        <time>2017-08-27T09:06:45Z</time>
      </trkpt>
      <trkpt lat="44.07862" lon="7.43759">
        <ele>2451.2</ele>
        <time>2017-08-27T09:06:57Z</time>
      </trkpt>
      <trkpt lat="44.07859" lon="7.43761">
        <ele>2449.1</ele>
        <time>2017-08-27T09:07:04Z</time>
      </trkpt>
      <trkpt lat="44.07854" lon="7.43763">
        <ele>2446</ele>
        <time>2017-08-27T09:07:11Z</time>
      </trkpt>
      <trkpt lat="44.07851" lon="7.43761">
        <ele>2445.3</ele>
        <time>2017-08-27T09:07:16Z</time>
      </trkpt>
      <trkpt lat="44.07846" lon="7.43758">
        <ele>2444</ele>
        <time>2017-08-27T09:07:27Z</time>
      </trkpt>
      <trkpt lat="44.07841" lon="7.43756">
        <ele>2442.4</ele>
        <time>2017-08-27T09:07:33Z</time>
      </trkpt>
      <trkpt lat="44.07839" lon="7.43756">
        <ele>2441.5</ele>
        <time>2017-08-27T09:07:44Z</time>
      </trkpt>
      <trkpt lat="44.07839" lon="7.43756">
        <ele>2441.5</ele>
        <time>2017-08-27T09:07:49Z</time>
      </trkpt>
      <trkpt lat="44.07831" lon="7.43762">
        <ele>2435.2</ele>
        <time>2017-08-27T09:08:01Z</time>
      </trkpt>
      <trkpt lat="44.0783" lon="7.43773">
        <ele>2430.6</ele>
        <time>2017-08-27T09:08:14Z</time>
      </trkpt>
      <trkpt lat="44.07831" lon="7.43776">
        <ele>2430.2</ele>
        <time>2017-08-27T09:08:20Z</time>
      </trkpt>
      <trkpt lat="44.07831" lon="7.43778">
        <ele>2429.5</ele>
        <time>2017-08-27T09:08:21Z</time>
      </trkpt>
      <trkpt lat="44.07833" lon="7.43785">
        <ele>2428.5</ele>
        <time>2017-08-27T09:08:28Z</time>
      </trkpt>
      <trkpt lat="44.07832" lon="7.43792">
        <ele>2425.7</ele>
        <time>2017-08-27T09:08:38Z</time>
      </trkpt>
      <trkpt lat="44.07835" lon="7.43802">
        <ele>2423.9</ele>
        <time>2017-08-27T09:08:50Z</time>
      </trkpt>
      <trkpt lat="44.07833" lon="7.43807">
        <ele>2421.8</ele>
        <time>2017-08-27T09:09:02Z</time>
      </trkpt>
      <trkpt lat="44.07825" lon="7.43805">
        <ele>2418.5</ele>
        <time>2017-08-27T09:09:15Z</time>
      </trkpt>
      <trkpt lat="44.07818" lon="7.43804">
        <ele>2415.7</ele>
        <time>2017-08-27T09:09:27Z</time>
      </trkpt>
      <trkpt lat="44.07811" lon="7.43794">
        <ele>2414.4</ele>
        <time>2017-08-27T09:09:41Z</time>
      </trkpt>
      <trkpt lat="44.07804" lon="7.43783">
        <ele>2412.5</ele>
        <time>2017-08-27T09:09:54Z</time>
      </trkpt>
      <trkpt lat="44.07804" lon="7.43783">
        <ele>2412.5</ele>
        <time>2017-08-27T09:10:00Z</time>
      </trkpt>
      <trkpt lat="44.07796" lon="7.43784">
        <ele>2408.5</ele>
        <time>2017-08-27T09:10:07Z</time>
      </trkpt>
      <trkpt lat="44.07792" lon="7.43784">
        <ele>2406.6</ele>
        <time>2017-08-27T09:10:10Z</time>
      </trkpt>
      <trkpt lat="44.07788" lon="7.43783">
        <ele>2404.8</ele>
        <time>2017-08-27T09:10:13Z</time>
      </trkpt>
      <trkpt lat="44.07782" lon="7.43779">
        <ele>2402.1</ele>
        <time>2017-08-27T09:10:20Z</time>
      </trkpt>
      <trkpt lat="44.07776" lon="7.43779">
        <ele>2399.3</ele>
        <time>2017-08-27T09:10:30Z</time>
      </trkpt>
      <trkpt lat="44.07773" lon="7.43783">
        <ele>2398.2</ele>
        <time>2017-08-27T09:10:36Z</time>
      </trkpt>
      <trkpt lat="44.07769" lon="7.43783">
        <ele>2396.9</ele>
        <time>2017-08-27T09:10:43Z</time>
      </trkpt>
      <trkpt lat="44.07769" lon="7.43786">
        <ele>2396.9</ele>
        <time>2017-08-27T09:10:45Z</time>
      </trkpt>
      <trkpt lat="44.07762" lon="7.43787">
        <ele>2394.7</ele>
        <time>2017-08-27T09:10:52Z</time>
      </trkpt>
      <trkpt lat="44.07762" lon="7.43786">
        <ele>2394.7</ele>
        <time>2017-08-27T09:10:53Z</time>
      </trkpt>
      <trkpt lat="44.07756" lon="7.43784">
        <ele>2392.6</ele>
        <time>2017-08-27T09:10:59Z</time>
      </trkpt>
      <trkpt lat="44.07753" lon="7.43785">
        <ele>2391.7</ele>
        <time>2017-08-27T09:11:02Z</time>
      </trkpt>
      <trkpt lat="44.07748" lon="7.43783">
        <ele>2390.3</ele>
        <time>2017-08-27T09:11:07Z</time>
      </trkpt>
      <trkpt lat="44.07728" lon="7.43775">
        <ele>2387.9</ele>
        <time>2017-08-27T09:11:23Z</time>
      </trkpt>
      <trkpt lat="44.07711" lon="7.43782">
        <ele>2386.7</ele>
        <time>2017-08-27T09:11:38Z</time>
      </trkpt>
      <trkpt lat="44.07695" lon="7.4379">
        <ele>2386.5</ele>
        <time>2017-08-27T09:11:53Z</time>
      </trkpt>
      <trkpt lat="44.07682" lon="7.43797">
        <ele>2385.5</ele>
        <time>2017-08-27T09:12:06Z</time>
      </trkpt>
      <trkpt lat="44.07669" lon="7.438">
        <ele>2384.2</ele>
        <time>2017-08-27T09:12:17Z</time>
      </trkpt>
      <trkpt lat="44.07653" lon="7.43809">
        <ele>2383.9</ele>
        <time>2017-08-27T09:12:32Z</time>
      </trkpt>
      <trkpt lat="44.07648" lon="7.43812">
        <ele>2383.8</ele>
        <time>2017-08-27T09:12:37Z</time>
      </trkpt>
      <trkpt lat="44.0764" lon="7.43819">
        <ele>2383.5</ele>
        <time>2017-08-27T09:12:45Z</time>
      </trkpt>
      <trkpt lat="44.07624" lon="7.43827">
        <ele>2383.5</ele>
        <time>2017-08-27T09:13:00Z</time>
      </trkpt>
      <trkpt lat="44.07613" lon="7.43823">
        <ele>2383.6</ele>
        <time>2017-08-27T09:13:11Z</time>
      </trkpt>
      <trkpt lat="44.07609" lon="7.43819">
        <ele>2383.5</ele>
        <time>2017-08-27T09:13:19Z</time>
      </trkpt>
      <trkpt lat="44.07601" lon="7.43817">
        <ele>2383.6</ele>
        <time>2017-08-27T09:13:26Z</time>
      </trkpt>
      <trkpt lat="44.07589" lon="7.43828">
        <ele>2384</ele>
        <time>2017-08-27T09:13:40Z</time>
      </trkpt>
      <trkpt lat="44.07582" lon="7.4383">
        <ele>2383.8</ele>
        <time>2017-08-27T09:13:46Z</time>
      </trkpt>
      <trkpt lat="44.07578" lon="7.4383">
        <ele>2383.3</ele>
        <time>2017-08-27T09:13:51Z</time>
      </trkpt>
      <trkpt lat="44.07566" lon="7.43832">
        <ele>2381.6</ele>
        <time>2017-08-27T09:14:04Z</time>
      </trkpt>
      <trkpt lat="44.07566" lon="7.43832">
        <ele>2381.6</ele>
        <time>2017-08-27T09:14:25Z</time>
      </trkpt>
      <trkpt lat="44.07566" lon="7.43832">
        <ele>2381.6</ele>
        <time>2017-08-27T09:15:09Z</time>
      </trkpt>
      <trkpt lat="44.07566" lon="7.43832">
        <ele>2381.6</ele>
        <time>2017-08-27T09:15:51Z</time>
      </trkpt>
      <trkpt lat="44.07566" lon="7.43832">
        <ele>2381.6</ele>
        <time>2017-08-27T09:16:28Z</time>
      </trkpt>
      <trkpt lat="44.07565" lon="7.43834">
        <ele>2381.3</ele>
        <time>2017-08-27T09:16:56Z</time>
      </trkpt>
      <trkpt lat="44.07559" lon="7.43839">
        <ele>2380.2</ele>
        <time>2017-08-27T09:17:05Z</time>
      </trkpt>
      <trkpt lat="44.07546" lon="7.43855">
        <ele>2378.2</ele>
        <time>2017-08-27T09:17:23Z</time>
      </trkpt>
      <trkpt lat="44.07536" lon="7.43857">
        <ele>2377</ele>
        <time>2017-08-27T09:17:34Z</time>
      </trkpt>
      <trkpt lat="44.07524" lon="7.43858">
        <ele>2375.7</ele>
        <time>2017-08-27T09:17:48Z</time>
      </trkpt>
      <trkpt lat="44.07521" lon="7.43858">
        <ele>2375.4</ele>
        <time>2017-08-27T09:17:52Z</time>
      </trkpt>
      <trkpt lat="44.07508" lon="7.43864">
        <ele>2374</ele>
        <time>2017-08-27T09:18:07Z</time>
      </trkpt>
      <trkpt lat="44.07502" lon="7.43866">
        <ele>2373.5</ele>
        <time>2017-08-27T09:18:15Z</time>
      </trkpt>
      <trkpt lat="44.07494" lon="7.43874">
        <ele>2373.4</ele>
        <time>2017-08-27T09:18:28Z</time>
      </trkpt>
      <trkpt lat="44.07478" lon="7.43879">
        <ele>2372.2</ele>
        <time>2017-08-27T09:18:43Z</time>
      </trkpt>
      <trkpt lat="44.0747" lon="7.43881">
        <ele>2371.3</ele>
        <time>2017-08-27T09:18:50Z</time>
      </trkpt>
      <trkpt lat="44.07469" lon="7.43883">
        <ele>2371.2</ele>
        <time>2017-08-27T09:18:52Z</time>
      </trkpt>
      <trkpt lat="44.07467" lon="7.43883">
        <ele>2370.8</ele>
        <time>2017-08-27T09:18:54Z</time>
      </trkpt>
      <trkpt lat="44.07463" lon="7.43887">
        <ele>2370</ele>
        <time>2017-08-27T09:18:59Z</time>
      </trkpt>
      <trkpt lat="44.07452" lon="7.43888">
        <ele>2367.7</ele>
        <time>2017-08-27T09:19:09Z</time>
      </trkpt>
      <trkpt lat="44.07449" lon="7.43888">
        <ele>2367</ele>
        <time>2017-08-27T09:19:13Z</time>
      </trkpt>
      <trkpt lat="44.0744" lon="7.43896">
        <ele>2366.8</ele>
        <time>2017-08-27T09:19:23Z</time>
      </trkpt>
      <trkpt lat="44.07438" lon="7.43899">
        <ele>2367.1</ele>
        <time>2017-08-27T09:19:27Z</time>
      </trkpt>
      <trkpt lat="44.07435" lon="7.43901">
        <ele>2366.9</ele>
        <time>2017-08-27T09:19:30Z</time>
      </trkpt>
      <trkpt lat="44.07432" lon="7.43901">
        <ele>2366.2</ele>
        <time>2017-08-27T09:19:33Z</time>
      </trkpt>
      <trkpt lat="44.07429" lon="7.43902">
        <ele>2365.7</ele>
        <time>2017-08-27T09:19:36Z</time>
      </trkpt>
      <trkpt lat="44.07424" lon="7.43907">
        <ele>2365.7</ele>
        <time>2017-08-27T09:19:43Z</time>
      </trkpt>
      <trkpt lat="44.07419" lon="7.43909">
        <ele>2364.9</ele>
        <time>2017-08-27T09:19:49Z</time>
      </trkpt>
      <trkpt lat="44.07412" lon="7.43909">
        <ele>2363.4</ele>
        <time>2017-08-27T09:19:56Z</time>
      </trkpt>
      <trkpt lat="44.07405" lon="7.43915">
        <ele>2362.8</ele>
        <time>2017-08-27T09:20:11Z</time>
      </trkpt>
      <trkpt lat="44.074" lon="7.43917">
        <ele>2361.9</ele>
        <time>2017-08-27T09:20:24Z</time>
      </trkpt>
      <trkpt lat="44.07397" lon="7.43919">
        <ele>2361.8</ele>
        <time>2017-08-27T09:20:40Z</time>
      </trkpt>
      <trkpt lat="44.07392" lon="7.43923">
        <ele>2361.6</ele>
        <time>2017-08-27T09:20:51Z</time>
      </trkpt>
      <trkpt lat="44.07386" lon="7.43925">
        <ele>2360.2</ele>
        <time>2017-08-27T09:21:04Z</time>
      </trkpt>
      <trkpt lat="44.07382" lon="7.43929">
        <ele>2359.6</ele>
        <time>2017-08-27T09:21:17Z</time>
      </trkpt>
      <trkpt lat="44.07379" lon="7.4393">
        <ele>2358.7</ele>
        <time>2017-08-27T09:21:22Z</time>
      </trkpt>
      <trkpt lat="44.0737" lon="7.4393">
        <ele>2355.3</ele>
        <time>2017-08-27T09:21:34Z</time>
      </trkpt>
      <trkpt lat="44.07365" lon="7.43933">
        <ele>2353.6</ele>
        <time>2017-08-27T09:21:49Z</time>
      </trkpt>
      <trkpt lat="44.07358" lon="7.43942">
        <ele>2350.8</ele>
        <time>2017-08-27T09:22:00Z</time>
      </trkpt>
      <trkpt lat="44.07357" lon="7.43946">
        <ele>2350.7</ele>
        <time>2017-08-27T09:22:03Z</time>
      </trkpt>
      <trkpt lat="44.07348" lon="7.43961">
        <ele>2349.9</ele>
        <time>2017-08-27T09:22:17Z</time>
      </trkpt>
      <trkpt lat="44.07339" lon="7.43971">
        <ele>2346.9</ele>
        <time>2017-08-27T09:22:29Z</time>
      </trkpt>
      <trkpt lat="44.07333" lon="7.43971">
        <ele>2343.7</ele>
        <time>2017-08-27T09:22:36Z</time>
      </trkpt>
      <trkpt lat="44.07324" lon="7.43977">
        <ele>2341.6</ele>
        <time>2017-08-27T09:22:48Z</time>
      </trkpt>
      <trkpt lat="44.07316" lon="7.4398">
        <ele>2339.3</ele>
        <time>2017-08-27T09:23:01Z</time>
      </trkpt>
      <trkpt lat="44.0731" lon="7.43981">
        <ele>2337.4</ele>
        <time>2017-08-27T09:23:08Z</time>
      </trkpt>
      <trkpt lat="44.07308" lon="7.43976">
        <ele>2335.7</ele>
        <time>2017-08-27T09:23:14Z</time>
      </trkpt>
      <trkpt lat="44.07305" lon="7.4397">
        <ele>2333.8</ele>
        <time>2017-08-27T09:23:23Z</time>
      </trkpt>
      <trkpt lat="44.073" lon="7.43967">
        <ele>2332.2</ele>
        <time>2017-08-27T09:23:33Z</time>
      </trkpt>
      <trkpt lat="44.07299" lon="7.43966">
        <ele>2331.9</ele>
        <time>2017-08-27T09:23:35Z</time>
      </trkpt>
      <trkpt lat="44.07293" lon="7.43964">
        <ele>2330.2</ele>
        <time>2017-08-27T09:23:42Z</time>
      </trkpt>
      <trkpt lat="44.0729" lon="7.43964">
        <ele>2329.4</ele>
        <time>2017-08-27T09:23:45Z</time>
      </trkpt>
      <trkpt lat="44.07283" lon="7.43971">
        <ele>2327.5</ele>
        <time>2017-08-27T09:23:59Z</time>
      </trkpt>
      <trkpt lat="44.07277" lon="7.43975">
        <ele>2326.5</ele>
        <time>2017-08-27T09:24:09Z</time>
      </trkpt>
      <trkpt lat="44.07273" lon="7.43977">
        <ele>2326.2</ele>
        <time>2017-08-27T09:24:13Z</time>
      </trkpt>
      <trkpt lat="44.07266" lon="7.43981">
        <ele>2325.7</ele>
        <time>2017-08-27T09:24:22Z</time>
      </trkpt>
      <trkpt lat="44.07256" lon="7.4398">
        <ele>2323.3</ele>
        <time>2017-08-27T09:24:32Z</time>
      </trkpt>
      <trkpt lat="44.07252" lon="7.43978">
        <ele>2321.9</ele>
        <time>2017-08-27T09:24:38Z</time>
      </trkpt>
      <trkpt lat="44.07246" lon="7.43972">
        <ele>2319.1</ele>
        <time>2017-08-27T09:24:46Z</time>
      </trkpt>
      <trkpt lat="44.07241" lon="7.4397">
        <ele>2317.9</ele>
        <time>2017-08-27T09:24:51Z</time>
      </trkpt>
      <trkpt lat="44.07237" lon="7.43968">
        <ele>2316.9</ele>
        <time>2017-08-27T09:24:55Z</time>
      </trkpt>
      <trkpt lat="44.07228" lon="7.4397">
        <ele>2315.1</ele>
        <time>2017-08-27T09:25:05Z</time>
      </trkpt>
      <trkpt lat="44.07215" lon="7.4397">
        <ele>2312.6</ele>
        <time>2017-08-27T09:25:19Z</time>
      </trkpt>
      <trkpt lat="44.07214" lon="7.4397">
        <ele>2312.5</ele>
        <time>2017-08-27T09:25:20Z</time>
      </trkpt>
      <trkpt lat="44.07212" lon="7.4397">
        <ele>2312.1</ele>
        <time>2017-08-27T09:25:22Z</time>
      </trkpt>
      <trkpt lat="44.07202" lon="7.43965">
        <ele>2310.8</ele>
        <time>2017-08-27T09:25:34Z</time>
      </trkpt>
      <trkpt lat="44.07198" lon="7.43966">
        <ele>2310.2</ele>
        <time>2017-08-27T09:25:38Z</time>
      </trkpt>
      <trkpt lat="44.07195" lon="7.43969">
        <ele>2309.4</ele>
        <time>2017-08-27T09:25:42Z</time>
      </trkpt>
      <trkpt lat="44.07184" lon="7.43963">
        <ele>2309.2</ele>
        <time>2017-08-27T09:25:52Z</time>
      </trkpt>
      <trkpt lat="44.07181" lon="7.43962">
        <ele>2309.2</ele>
        <time>2017-08-27T09:25:54Z</time>
      </trkpt>
      <trkpt lat="44.07176" lon="7.43961">
        <ele>2309</ele>
        <time>2017-08-27T09:26:00Z</time>
      </trkpt>
      <trkpt lat="44.0717" lon="7.43964">
        <ele>2308</ele>
        <time>2017-08-27T09:26:06Z</time>
      </trkpt>
      <trkpt lat="44.07156" lon="7.43962">
        <ele>2307.7</ele>
        <time>2017-08-27T09:26:18Z</time>
      </trkpt>
      <trkpt lat="44.07151" lon="7.43964">
        <ele>2307</ele>
        <time>2017-08-27T09:26:23Z</time>
      </trkpt>
      <trkpt lat="44.07141" lon="7.4397">
        <ele>2305.5</ele>
        <time>2017-08-27T09:26:32Z</time>
      </trkpt>
      <trkpt lat="44.07136" lon="7.43978">
        <ele>2305.5</ele>
        <time>2017-08-27T09:26:39Z</time>
      </trkpt>
      <trkpt lat="44.07135" lon="7.43978">
        <ele>2305.5</ele>
        <time>2017-08-27T09:26:41Z</time>
      </trkpt>
      <trkpt lat="44.07122" lon="7.43989">
        <ele>2305.2</ele>
        <time>2017-08-27T09:26:54Z</time>
      </trkpt>
      <trkpt lat="44.07114" lon="7.44002">
        <ele>2303.6</ele>
        <time>2017-08-27T09:27:04Z</time>
      </trkpt>
      <trkpt lat="44.07111" lon="7.4402">
        <ele>2305.2</ele>
        <time>2017-08-27T09:27:17Z</time>
      </trkpt>
      <trkpt lat="44.07109" lon="7.4404">
        <ele>2308.7</ele>
        <time>2017-08-27T09:27:29Z</time>
      </trkpt>
      <trkpt lat="44.07094" lon="7.44047">
        <ele>2307.5</ele>
        <time>2017-08-27T09:27:46Z</time>
      </trkpt>
      <trkpt lat="44.07094" lon="7.44047">
        <ele>2307.5</ele>
        <time>2017-08-27T09:28:04Z</time>
      </trkpt>
      <trkpt lat="44.07094" lon="7.44047">
        <ele>2307.5</ele>
        <time>2017-08-27T09:28:20Z</time>
      </trkpt>
      <trkpt lat="44.07094" lon="7.44047">
        <ele>2307.5</ele>
        <time>2017-08-27T09:28:49Z</time>
      </trkpt>
      <trkpt lat="44.07094" lon="7.44047">
        <ele>2307.5</ele>
        <time>2017-08-27T09:29:12Z</time>
      </trkpt>
      <trkpt lat="44.07094" lon="7.44047">
        <ele>2307.5</ele>
        <time>2017-08-27T09:29:35Z</time>
      </trkpt>
      <trkpt lat="44.07094" lon="7.44047">
        <ele>2307.5</ele>
        <time>2017-08-27T09:29:51Z</time>
      </trkpt>
      <trkpt lat="44.07094" lon="7.44047">
        <ele>2307.5</ele>
        <time>2017-08-27T09:30:19Z</time>
      </trkpt>
      <trkpt lat="44.07094" lon="7.44047">
        <ele>2307.5</ele>
        <time>2017-08-27T09:30:32Z</time>
      </trkpt>
      <trkpt lat="44.07094" lon="7.44047">
        <ele>2307.5</ele>
        <time>2017-08-27T09:30:53Z</time>
      </trkpt>
      <trkpt lat="44.07094" lon="7.44048">
        <ele>2307.7</ele>
        <time>2017-08-27T09:31:08Z</time>
      </trkpt>
      <trkpt lat="44.07094" lon="7.44047">
        <ele>2307.5</ele>
        <time>2017-08-27T09:31:28Z</time>
      </trkpt>
      <trkpt lat="44.07094" lon="7.44047">
        <ele>2307.5</ele>
        <time>2017-08-27T09:31:48Z</time>
      </trkpt>
      <trkpt lat="44.07092" lon="7.44048">
        <ele>2307.3</ele>
        <time>2017-08-27T09:32:07Z</time>
      </trkpt>
      <trkpt lat="44.07089" lon="7.44049">
        <ele>2306.9</ele>
        <time>2017-08-27T09:32:23Z</time>
      </trkpt>
      <trkpt lat="44.07091" lon="7.4405">
        <ele>2307.5</ele>
        <time>2017-08-27T09:32:45Z</time>
      </trkpt>
      <trkpt lat="44.07088" lon="7.44054">
        <ele>2307.7</ele>
        <time>2017-08-27T09:32:54Z</time>
      </trkpt>
      <trkpt lat="44.07084" lon="7.44057">
        <ele>2307.6</ele>
        <time>2017-08-27T09:32:59Z</time>
      </trkpt>
      <trkpt lat="44.07072" lon="7.44062">
        <ele>2306</ele>
        <time>2017-08-27T09:33:13Z</time>
      </trkpt>
      <trkpt lat="44.07066" lon="7.44063">
        <ele>2304.8</ele>
        <time>2017-08-27T09:33:25Z</time>
      </trkpt>
      <trkpt lat="44.07065" lon="7.44064">
        <ele>2304.8</ele>
        <time>2017-08-27T09:33:26Z</time>
      </trkpt>
      <trkpt lat="44.07056" lon="7.44069">
        <ele>2304</ele>
        <time>2017-08-27T09:33:38Z</time>
      </trkpt>
      <trkpt lat="44.07048" lon="7.44075">
        <ele>2303.8</ele>
        <time>2017-08-27T09:33:49Z</time>
      </trkpt>
      <trkpt lat="44.07044" lon="7.44078">
        <ele>2303.5</ele>
        <time>2017-08-27T09:34:01Z</time>
      </trkpt>
      <trkpt lat="44.07036" lon="7.44082">
        <ele>2302.2</ele>
        <time>2017-08-27T09:34:14Z</time>
      </trkpt>
      <trkpt lat="44.07028" lon="7.44089">
        <ele>2301.9</ele>
        <time>2017-08-27T09:34:31Z</time>
      </trkpt>
      <trkpt lat="44.0702" lon="7.44099">
        <ele>2302.8</ele>
        <time>2017-08-27T09:34:43Z</time>
      </trkpt>
      <trkpt lat="44.07019" lon="7.441">
        <ele>2302.7</ele>
        <time>2017-08-27T09:34:44Z</time>
      </trkpt>
      <trkpt lat="44.07009" lon="7.44106">
        <ele>2301.1</ele>
        <time>2017-08-27T09:34:57Z</time>
      </trkpt>
      <trkpt lat="44.07005" lon="7.44107">
        <ele>2300</ele>
        <time>2017-08-27T09:35:01Z</time>
      </trkpt>
      <trkpt lat="44.06991" lon="7.4411">
        <ele>2296.9</ele>
        <time>2017-08-27T09:35:16Z</time>
      </trkpt>
      <trkpt lat="44.06981" lon="7.44112">
        <ele>2295.2</ele>
        <time>2017-08-27T09:35:25Z</time>
      </trkpt>
      <trkpt lat="44.06976" lon="7.44115">
        <ele>2295</ele>
        <time>2017-08-27T09:35:30Z</time>
      </trkpt>
      <trkpt lat="44.06964" lon="7.44119">
        <ele>2294.6</ele>
        <time>2017-08-27T09:35:44Z</time>
      </trkpt>
      <trkpt lat="44.06958" lon="7.44124">
        <ele>2295.2</ele>
        <time>2017-08-27T09:35:51Z</time>
      </trkpt>
      <trkpt lat="44.06956" lon="7.44125">
        <ele>2295.2</ele>
        <time>2017-08-27T09:35:54Z</time>
      </trkpt>
      <trkpt lat="44.06944" lon="7.44141">
        <ele>2296.4</ele>
        <time>2017-08-27T09:36:08Z</time>
      </trkpt>
      <trkpt lat="44.06932" lon="7.44157">
        <ele>2297</ele>
        <time>2017-08-27T09:36:23Z</time>
      </trkpt>
      <trkpt lat="44.06924" lon="7.44169">
        <ele>2297</ele>
        <time>2017-08-27T09:36:36Z</time>
      </trkpt>
      <trkpt lat="44.06917" lon="7.44179">
        <ele>2299</ele>
        <time>2017-08-27T09:36:48Z</time>
      </trkpt>
      <trkpt lat="44.06909" lon="7.4418">
        <ele>2298.6</ele>
        <time>2017-08-27T09:36:57Z</time>
      </trkpt>
      <trkpt lat="44.069" lon="7.44181">
        <ele>2298.2</ele>
        <time>2017-08-27T09:37:06Z</time>
      </trkpt>
      <trkpt lat="44.06897" lon="7.4418">
        <ele>2297.5</ele>
        <time>2017-08-27T09:37:08Z</time>
      </trkpt>
      <trkpt lat="44.06894" lon="7.4418">
        <ele>2297.3</ele>
        <time>2017-08-27T09:37:11Z</time>
      </trkpt>
      <trkpt lat="44.06888" lon="7.44177">
        <ele>2295.7</ele>
        <time>2017-08-27T09:37:17Z</time>
      </trkpt>
      <trkpt lat="44.06872" lon="7.44178">
        <ele>2295.8</ele>
        <time>2017-08-27T09:37:34Z</time>
      </trkpt>
      <trkpt lat="44.06868" lon="7.44178">
        <ele>2295.8</ele>
        <time>2017-08-27T09:37:38Z</time>
      </trkpt>
      <trkpt lat="44.0686" lon="7.44178">
        <ele>2295.6</ele>
        <time>2017-08-27T09:37:52Z</time>
      </trkpt>
      <trkpt lat="44.06852" lon="7.44178">
        <ele>2295.4</ele>
        <time>2017-08-27T09:38:07Z</time>
      </trkpt>
      <trkpt lat="44.0684" lon="7.44181">
        <ele>2295.9</ele>
        <time>2017-08-27T09:38:19Z</time>
      </trkpt>
      <trkpt lat="44.06838" lon="7.44179">
        <ele>2295.3</ele>
        <time>2017-08-27T09:38:23Z</time>
      </trkpt>
      <trkpt lat="44.06836" lon="7.44177">
        <ele>2294.7</ele>
        <time>2017-08-27T09:38:26Z</time>
      </trkpt>
      <trkpt lat="44.06831" lon="7.44177">
        <ele>2294.6</ele>
        <time>2017-08-27T09:38:31Z</time>
      </trkpt>
      <trkpt lat="44.06817" lon="7.44177">
        <ele>2294.7</ele>
        <time>2017-08-27T09:38:47Z</time>
      </trkpt>
      <trkpt lat="44.0681" lon="7.44178">
        <ele>2294.8</ele>
        <time>2017-08-27T09:38:53Z</time>
      </trkpt>
      <trkpt lat="44.06806" lon="7.44182">
        <ele>2295.1</ele>
        <time>2017-08-27T09:38:58Z</time>
      </trkpt>
      <trkpt lat="44.06802" lon="7.44183">
        <ele>2295.1</ele>
        <time>2017-08-27T09:39:02Z</time>
      </trkpt>
      <trkpt lat="44.06792" lon="7.44188">
        <ele>2294.6</ele>
        <time>2017-08-27T09:39:15Z</time>
      </trkpt>
      <trkpt lat="44.06783" lon="7.44193">
        <ele>2293.7</ele>
        <time>2017-08-27T09:39:27Z</time>
      </trkpt>
      <trkpt lat="44.06776" lon="7.44198">
        <ele>2294.2</ele>
        <time>2017-08-27T09:39:39Z</time>
      </trkpt>
      <trkpt lat="44.06771" lon="7.44198">
        <ele>2293.6</ele>
        <time>2017-08-27T09:39:53Z</time>
      </trkpt>
      <trkpt lat="44.0677" lon="7.44198">
        <ele>2293.5</ele>
        <time>2017-08-27T09:40:18Z</time>
      </trkpt>
      <trkpt lat="44.0677" lon="7.44198">
        <ele>2293.5</ele>
        <time>2017-08-27T09:40:40Z</time>
      </trkpt>
      <trkpt lat="44.0677" lon="7.44198">
        <ele>2293.5</ele>
        <time>2017-08-27T09:41:05Z</time>
      </trkpt>
      <trkpt lat="44.06767" lon="7.44197">
        <ele>2292.8</ele>
        <time>2017-08-27T09:41:19Z</time>
      </trkpt>
      <trkpt lat="44.06767" lon="7.44197">
        <ele>2292.8</ele>
        <time>2017-08-27T09:41:23Z</time>
      </trkpt>
      <trkpt lat="44.06758" lon="7.44206">
        <ele>2294.8</ele>
        <time>2017-08-27T09:41:37Z</time>
      </trkpt>
      <trkpt lat="44.06755" lon="7.44208">
        <ele>2295.1</ele>
        <time>2017-08-27T09:41:50Z</time>
      </trkpt>
      <trkpt lat="44.06745" lon="7.44207">
        <ele>2292.6</ele>
        <time>2017-08-27T09:42:03Z</time>
      </trkpt>
      <trkpt lat="44.06745" lon="7.44207">
        <ele>2292.6</ele>
        <time>2017-08-27T09:42:07Z</time>
      </trkpt>
      <trkpt lat="44.0674" lon="7.44206">
        <ele>2290.9</ele>
        <time>2017-08-27T09:42:12Z</time>
      </trkpt>
      <trkpt lat="44.06737" lon="7.44204">
        <ele>2289.4</ele>
        <time>2017-08-27T09:42:16Z</time>
      </trkpt>
      <trkpt lat="44.06732" lon="7.44206">
        <ele>2288.6</ele>
        <time>2017-08-27T09:42:28Z</time>
      </trkpt>
      <trkpt lat="44.06725" lon="7.4421">
        <ele>2287.8</ele>
        <time>2017-08-27T09:42:39Z</time>
      </trkpt>
      <trkpt lat="44.0672" lon="7.44215">
        <ele>2287.9</ele>
        <time>2017-08-27T09:42:54Z</time>
      </trkpt>
      <trkpt lat="44.06712" lon="7.44222">
        <ele>2286.9</ele>
        <time>2017-08-27T09:43:07Z</time>
      </trkpt>
      <trkpt lat="44.06706" lon="7.4422">
        <ele>2284</ele>
        <time>2017-08-27T09:43:20Z</time>
      </trkpt>
      <trkpt lat="44.06699" lon="7.44223">
        <ele>2282.2</ele>
        <time>2017-08-27T09:43:34Z</time>
      </trkpt>
      <trkpt lat="44.06689" lon="7.44225">
        <ele>2279</ele>
        <time>2017-08-27T09:43:49Z</time>
      </trkpt>
      <trkpt lat="44.06687" lon="7.44222">
        <ele>2276.8</ele>
        <time>2017-08-27T09:44:01Z</time>
      </trkpt>
      <trkpt lat="44.06679" lon="7.44226">
        <ele>2275.1</ele>
        <time>2017-08-27T09:44:14Z</time>
      </trkpt>
      <trkpt lat="44.06679" lon="7.44226">
        <ele>2275.1</ele>
        <time>2017-08-27T09:44:22Z</time>
      </trkpt>
      <trkpt lat="44.06676" lon="7.4423">
        <ele>2275.6</ele>
        <time>2017-08-27T09:44:28Z</time>
      </trkpt>
      <trkpt lat="44.06672" lon="7.44239">
        <ele>2277.8</ele>
        <time>2017-08-27T09:44:37Z</time>
      </trkpt>
      <trkpt lat="44.06666" lon="7.44243">
        <ele>2276.7</ele>
        <time>2017-08-27T09:44:49Z</time>
      </trkpt>
      <trkpt lat="44.06656" lon="7.44245">
        <ele>2272.8</ele>
        <time>2017-08-27T09:44:59Z</time>
      </trkpt>
      <trkpt lat="44.06652" lon="7.44249">
        <ele>2272.3</ele>
        <time>2017-08-27T09:45:07Z</time>
      </trkpt>
      <trkpt lat="44.06647" lon="7.44245">
        <ele>2268.6</ele>
        <time>2017-08-27T09:45:15Z</time>
      </trkpt>
      <trkpt lat="44.06646" lon="7.44243">
        <ele>2267.5</ele>
        <time>2017-08-27T09:45:19Z</time>
      </trkpt>
      <trkpt lat="44.06643" lon="7.44244">
        <ele>2266.4</ele>
        <time>2017-08-27T09:45:32Z</time>
      </trkpt>
      <trkpt lat="44.06643" lon="7.44244">
        <ele>2266.4</ele>
        <time>2017-08-27T09:45:52Z</time>
      </trkpt>
      <trkpt lat="44.06643" lon="7.44244">
        <ele>2266.4</ele>
        <time>2017-08-27T09:46:28Z</time>
      </trkpt>
      <trkpt lat="44.06641" lon="7.44244">
        <ele>2265.5</ele>
        <time>2017-08-27T09:47:06Z</time>
      </trkpt>
      <trkpt lat="44.06629" lon="7.44244">
        <ele>2259.7</ele>
        <time>2017-08-27T09:47:18Z</time>
      </trkpt>
      <trkpt lat="44.06623" lon="7.44248">
        <ele>2257.2</ele>
        <time>2017-08-27T09:47:28Z</time>
      </trkpt>
      <trkpt lat="44.06618" lon="7.44248">
        <ele>2254.6</ele>
        <time>2017-08-27T09:47:38Z</time>
      </trkpt>
      <trkpt lat="44.06618" lon="7.44248">
        <ele>2254.6</ele>
        <time>2017-08-27T09:47:39Z</time>
      </trkpt>
      <trkpt lat="44.06618" lon="7.44248">
        <ele>2254.6</ele>
        <time>2017-08-27T09:48:00Z</time>
      </trkpt>
      <trkpt lat="44.06617" lon="7.44246">
        <ele>2254</ele>
        <time>2017-08-27T09:48:13Z</time>
      </trkpt>
      <trkpt lat="44.06612" lon="7.4425">
        <ele>2251.5</ele>
        <time>2017-08-27T09:48:28Z</time>
      </trkpt>
      <trkpt lat="44.06605" lon="7.44257">
        <ele>2251.1</ele>
        <time>2017-08-27T09:48:38Z</time>
      </trkpt>
      <trkpt lat="44.06599" lon="7.44263">
        <ele>2250.4</ele>
        <time>2017-08-27T09:48:46Z</time>
      </trkpt>
      <trkpt lat="44.06592" lon="7.44267">
        <ele>2248</ele>
        <time>2017-08-27T09:48:59Z</time>
      </trkpt>
      <trkpt lat="44.06592" lon="7.44267">
        <ele>2248</ele>
        <time>2017-08-27T09:49:04Z</time>
      </trkpt>
      <trkpt lat="44.06594" lon="7.44258">
        <ele>2246.2</ele>
        <time>2017-08-27T09:49:15Z</time>
      </trkpt>
      <trkpt lat="44.06592" lon="7.4425">
        <ele>2242.7</ele>
        <time>2017-08-27T09:49:27Z</time>
      </trkpt>
      <trkpt lat="44.06592" lon="7.4425">
        <ele>2242.7</ele>
        <time>2017-08-27T09:49:31Z</time>
      </trkpt>
      <trkpt lat="44.06591" lon="7.44233">
        <ele>2243.6</ele>
        <time>2017-08-27T09:49:45Z</time>
      </trkpt>
      <trkpt lat="44.06587" lon="7.44228">
        <ele>2242.6</ele>
        <time>2017-08-27T09:50:02Z</time>
      </trkpt>
      <trkpt lat="44.06578" lon="7.44218">
        <ele>2240.6</ele>
        <time>2017-08-27T09:50:14Z</time>
      </trkpt>
      <trkpt lat="44.06576" lon="7.44209">
        <ele>2241</ele>
        <time>2017-08-27T09:50:22Z</time>
      </trkpt>
      <trkpt lat="44.06566" lon="7.44198">
        <ele>2238.2</ele>
        <time>2017-08-27T09:50:37Z</time>
      </trkpt>
      <trkpt lat="44.06558" lon="7.44192">
        <ele>2235.8</ele>
        <time>2017-08-27T09:50:45Z</time>
      </trkpt>
      <trkpt lat="44.06552" lon="7.44189">
        <ele>2234.8</ele>
        <time>2017-08-27T09:50:50Z</time>
      </trkpt>
      <trkpt lat="44.06548" lon="7.44186">
        <ele>2234.6</ele>
        <time>2017-08-27T09:50:54Z</time>
      </trkpt>
      <trkpt lat="44.06544" lon="7.44185">
        <ele>2233.7</ele>
        <time>2017-08-27T09:50:58Z</time>
      </trkpt>
      <trkpt lat="44.06539" lon="7.4419">
        <ele>2231</ele>
        <time>2017-08-27T09:51:03Z</time>
      </trkpt>
      <trkpt lat="44.06533" lon="7.44194">
        <ele>2228.4</ele>
        <time>2017-08-27T09:51:08Z</time>
      </trkpt>
      <trkpt lat="44.06531" lon="7.44193">
        <ele>2228.1</ele>
        <time>2017-08-27T09:51:10Z</time>
      </trkpt>
      <trkpt lat="44.06526" lon="7.44197">
        <ele>2226.8</ele>
        <time>2017-08-27T09:51:15Z</time>
      </trkpt>
      <trkpt lat="44.06514" lon="7.44207">
        <ele>2225.8</ele>
        <time>2017-08-27T09:51:30Z</time>
      </trkpt>
      <trkpt lat="44.06512" lon="7.4421">
        <ele>2225.6</ele>
        <time>2017-08-27T09:51:33Z</time>
      </trkpt>
      <trkpt lat="44.0651" lon="7.44213">
        <ele>2225.5</ele>
        <time>2017-08-27T09:51:35Z</time>
      </trkpt>
      <trkpt lat="44.06495" lon="7.44226">
        <ele>2224.6</ele>
        <time>2017-08-27T09:51:50Z</time>
      </trkpt>
      <trkpt lat="44.06492" lon="7.44228">
        <ele>2224.5</ele>
        <time>2017-08-27T09:51:53Z</time>
      </trkpt>
      <trkpt lat="44.06485" lon="7.44235">
        <ele>2224.1</ele>
        <time>2017-08-27T09:52:00Z</time>
      </trkpt>
      <trkpt lat="44.06484" lon="7.44258">
        <ele>2222.4</ele>
        <time>2017-08-27T09:52:14Z</time>
      </trkpt>
      <trkpt lat="44.06483" lon="7.44264">
        <ele>2221.9</ele>
        <time>2017-08-27T09:52:20Z</time>
      </trkpt>
      <trkpt lat="44.06473" lon="7.44279">
        <ele>2220.8</ele>
        <time>2017-08-27T09:52:34Z</time>
      </trkpt>
      <trkpt lat="44.0647" lon="7.44288">
        <ele>2219.7</ele>
        <time>2017-08-27T09:52:47Z</time>
      </trkpt>
      <trkpt lat="44.0647" lon="7.44295">
        <ele>2218.6</ele>
        <time>2017-08-27T09:52:51Z</time>
      </trkpt>
      <trkpt lat="44.0647" lon="7.44299">
        <ele>2217.9</ele>
        <time>2017-08-27T09:52:53Z</time>
      </trkpt>
      <trkpt lat="44.06465" lon="7.44303">
        <ele>2217.2</ele>
        <time>2017-08-27T09:52:57Z</time>
      </trkpt>
      <trkpt lat="44.06462" lon="7.44304">
        <ele>2216.9</ele>
        <time>2017-08-27T09:53:00Z</time>
      </trkpt>
      <trkpt lat="44.06448" lon="7.44301">
        <ele>2217.4</ele>
        <time>2017-08-27T09:53:13Z</time>
      </trkpt>
      <trkpt lat="44.06444" lon="7.44302">
        <ele>2217.1</ele>
        <time>2017-08-27T09:53:18Z</time>
      </trkpt>
      <trkpt lat="44.0644" lon="7.443">
        <ele>2218.4</ele>
        <time>2017-08-27T09:53:23Z</time>
      </trkpt>
      <trkpt lat="44.06434" lon="7.44305">
        <ele>2218</ele>
        <time>2017-08-27T09:53:31Z</time>
      </trkpt>
      <trkpt lat="44.06426" lon="7.44309">
        <ele>2218.3</ele>
        <time>2017-08-27T09:53:41Z</time>
      </trkpt>
      <trkpt lat="44.06423" lon="7.44308">
        <ele>2219</ele>
        <time>2017-08-27T09:53:46Z</time>
      </trkpt>
      <trkpt lat="44.06417" lon="7.44311">
        <ele>2218.6</ele>
        <time>2017-08-27T09:53:50Z</time>
      </trkpt>
      <trkpt lat="44.06412" lon="7.44313">
        <ele>2218.6</ele>
        <time>2017-08-27T09:54:05Z</time>
      </trkpt>
      <trkpt lat="44.06412" lon="7.44313">
        <ele>2218.6</ele>
        <time>2017-08-27T09:54:31Z</time>
      </trkpt>
      <trkpt lat="44.06411" lon="7.44315">
        <ele>2217.9</ele>
        <time>2017-08-27T09:54:51Z</time>
      </trkpt>
      <trkpt lat="44.06411" lon="7.44315">
        <ele>2217.9</ele>
        <time>2017-08-27T09:55:15Z</time>
      </trkpt>
      <trkpt lat="44.06402" lon="7.44326">
        <ele>2213.1</ele>
        <time>2017-08-27T09:55:31Z</time>
      </trkpt>
      <trkpt lat="44.06388" lon="7.44318">
        <ele>2219.4</ele>
        <time>2017-08-27T09:55:47Z</time>
      </trkpt>
      <trkpt lat="44.06383" lon="7.44318">
        <ele>2219.2</ele>
        <time>2017-08-27T09:55:54Z</time>
      </trkpt>
      <trkpt lat="44.06369" lon="7.44315">
        <ele>2220.1</ele>
        <time>2017-08-27T09:56:07Z</time>
      </trkpt>
      <trkpt lat="44.06358" lon="7.44311">
        <ele>2220.8</ele>
        <time>2017-08-27T09:56:21Z</time>
      </trkpt>
      <trkpt lat="44.06353" lon="7.44318">
        <ele>2217</ele>
        <time>2017-08-27T09:56:31Z</time>
      </trkpt>
      <trkpt lat="44.06352" lon="7.44319">
        <ele>2216.5</ele>
        <time>2017-08-27T09:56:33Z</time>
      </trkpt>
      <trkpt lat="44.06349" lon="7.44323">
        <ele>2214.8</ele>
        <time>2017-08-27T09:56:37Z</time>
      </trkpt>
      <trkpt lat="44.06342" lon="7.4433">
        <ele>2212.5</ele>
        <time>2017-08-27T09:56:51Z</time>
      </trkpt>
      <trkpt lat="44.06342" lon="7.4433">
        <ele>2212.5</ele>
        <time>2017-08-27T09:57:14Z</time>
      </trkpt>
      <trkpt lat="44.06337" lon="7.44331">
        <ele>2212.3</ele>
        <time>2017-08-27T09:57:24Z</time>
      </trkpt>
      <trkpt lat="44.06327" lon="7.44328">
        <ele>2211.6</ele>
        <time>2017-08-27T09:57:36Z</time>
      </trkpt>
      <trkpt lat="44.06324" lon="7.44321">
        <ele>2211.9</ele>
        <time>2017-08-27T09:57:42Z</time>
      </trkpt>
      <trkpt lat="44.06325" lon="7.44315">
        <ele>2212.9</ele>
        <time>2017-08-27T09:57:47Z</time>
      </trkpt>
      <trkpt lat="44.06324" lon="7.4431">
        <ele>2213.4</ele>
        <time>2017-08-27T09:57:52Z</time>
      </trkpt>
      <trkpt lat="44.06322" lon="7.44306">
        <ele>2213.5</ele>
        <time>2017-08-27T09:57:56Z</time>
      </trkpt>
      <trkpt lat="44.06316" lon="7.44304">
        <ele>2212.8</ele>
        <time>2017-08-27T09:58:01Z</time>
      </trkpt>
      <trkpt lat="44.06311" lon="7.44302">
        <ele>2212.5</ele>
        <time>2017-08-27T09:58:05Z</time>
      </trkpt>
      <trkpt lat="44.06302" lon="7.44299">
        <ele>2212.1</ele>
        <time>2017-08-27T09:58:13Z</time>
      </trkpt>
      <trkpt lat="44.06295" lon="7.44301">
        <ele>2210.2</ele>
        <time>2017-08-27T09:58:23Z</time>
      </trkpt>
      <trkpt lat="44.06293" lon="7.443">
        <ele>2210.3</ele>
        <time>2017-08-27T09:58:25Z</time>
      </trkpt>
      <trkpt lat="44.06289" lon="7.44298">
        <ele>2210.4</ele>
        <time>2017-08-27T09:58:28Z</time>
      </trkpt>
      <trkpt lat="44.06273" lon="7.4429">
        <ele>2211.1</ele>
        <time>2017-08-27T09:58:44Z</time>
      </trkpt>
      <trkpt lat="44.06264" lon="7.44287">
        <ele>2211.2</ele>
        <time>2017-08-27T09:58:59Z</time>
      </trkpt>
      <trkpt lat="44.06261" lon="7.44283">
        <ele>2212</ele>
        <time>2017-08-27T09:59:07Z</time>
      </trkpt>
      <trkpt lat="44.06257" lon="7.44276">
        <ele>2213.4</ele>
        <time>2017-08-27T09:59:17Z</time>
      </trkpt>
      <trkpt lat="44.0625" lon="7.44268">
        <ele>2214.1</ele>
        <time>2017-08-27T09:59:30Z</time>
      </trkpt>
      <trkpt lat="44.06248" lon="7.4426">
        <ele>2216</ele>
        <time>2017-08-27T09:59:42Z</time>
      </trkpt>
      <trkpt lat="44.06248" lon="7.4426">
        <ele>2216</ele>
        <time>2017-08-27T10:00:03Z</time>
      </trkpt>
      <trkpt lat="44.06248" lon="7.4426">
        <ele>2216</ele>
        <time>2017-08-27T10:00:08Z</time>
      </trkpt>
      <trkpt lat="44.06238" lon="7.44257">
        <ele>2217.2</ele>
        <time>2017-08-27T10:00:17Z</time>
      </trkpt>
      <trkpt lat="44.06229" lon="7.44266">
        <ele>2215.6</ele>
        <time>2017-08-27T10:00:31Z</time>
      </trkpt>
      <trkpt lat="44.06226" lon="7.44268">
        <ele>2215.3</ele>
        <time>2017-08-27T10:00:36Z</time>
      </trkpt>
      <trkpt lat="44.06219" lon="7.4428">
        <ele>2212.7</ele>
        <time>2017-08-27T10:00:50Z</time>
      </trkpt>
      <trkpt lat="44.06218" lon="7.44281">
        <ele>2212.5</ele>
        <time>2017-08-27T10:00:51Z</time>
      </trkpt>
      <trkpt lat="44.06214" lon="7.44286">
        <ele>2211.4</ele>
        <time>2017-08-27T10:00:58Z</time>
      </trkpt>
      <trkpt lat="44.06209" lon="7.44292">
        <ele>2210.1</ele>
        <time>2017-08-27T10:01:06Z</time>
      </trkpt>
      <trkpt lat="44.06206" lon="7.44294">
        <ele>2209.7</ele>
        <time>2017-08-27T10:01:09Z</time>
      </trkpt>
      <trkpt lat="44.06203" lon="7.44299">
        <ele>2208.5</ele>
        <time>2017-08-27T10:01:13Z</time>
      </trkpt>
      <trkpt lat="44.06199" lon="7.44308">
        <ele>2206.2</ele>
        <time>2017-08-27T10:01:20Z</time>
      </trkpt>
      <trkpt lat="44.06196" lon="7.44312">
        <ele>2205.3</ele>
        <time>2017-08-27T10:01:24Z</time>
      </trkpt>
      <trkpt lat="44.06196" lon="7.44315">
        <ele>2204.6</ele>
        <time>2017-08-27T10:01:26Z</time>
      </trkpt>
      <trkpt lat="44.06183" lon="7.44319">
        <ele>2202.6</ele>
        <time>2017-08-27T10:01:39Z</time>
      </trkpt>
      <trkpt lat="44.06178" lon="7.44319">
        <ele>2202.1</ele>
        <time>2017-08-27T10:01:51Z</time>
      </trkpt>
      <trkpt lat="44.06167" lon="7.44319">
        <ele>2201.2</ele>
        <time>2017-08-27T10:02:03Z</time>
      </trkpt>
      <trkpt lat="44.06165" lon="7.44317">
        <ele>2201.3</ele>
        <time>2017-08-27T10:02:06Z</time>
      </trkpt>
      <trkpt lat="44.06161" lon="7.44305">
        <ele>2203.8</ele>
        <time>2017-08-27T10:02:18Z</time>
      </trkpt>
      <trkpt lat="44.06154" lon="7.44305">
        <ele>2202.1</ele>
        <time>2017-08-27T10:02:32Z</time>
      </trkpt>
      <trkpt lat="44.06155" lon="7.44309">
        <ele>2201.1</ele>
        <time>2017-08-27T10:02:36Z</time>
      </trkpt>
      <trkpt lat="44.06154" lon="7.44311">
        <ele>2200.2</ele>
        <time>2017-08-27T10:02:38Z</time>
      </trkpt>
      <trkpt lat="44.06152" lon="7.44322">
        <ele>2196.6</ele>
        <time>2017-08-27T10:02:47Z</time>
      </trkpt>
      <trkpt lat="44.06152" lon="7.44325">
        <ele>2195.7</ele>
        <time>2017-08-27T10:02:49Z</time>
      </trkpt>
      <trkpt lat="44.06152" lon="7.44326">
        <ele>2195.4</ele>
        <time>2017-08-27T10:02:50Z</time>
      </trkpt>
      <trkpt lat="44.06152" lon="7.44329">
        <ele>2194.6</ele>
        <time>2017-08-27T10:02:53Z</time>
      </trkpt>
      <trkpt lat="44.06147" lon="7.44323">
        <ele>2195</ele>
        <time>2017-08-27T10:03:04Z</time>
      </trkpt>
      <trkpt lat="44.06144" lon="7.44321">
        <ele>2194.8</ele>
        <time>2017-08-27T10:03:08Z</time>
      </trkpt>
      <trkpt lat="44.0613" lon="7.44316">
        <ele>2193</ele>
        <time>2017-08-27T10:03:20Z</time>
      </trkpt>
      <trkpt lat="44.06119" lon="7.44319">
        <ele>2189.5</ele>
        <time>2017-08-27T10:03:30Z</time>
      </trkpt>
      <trkpt lat="44.06114" lon="7.44322">
        <ele>2187.4</ele>
        <time>2017-08-27T10:03:36Z</time>
      </trkpt>
      <trkpt lat="44.0611" lon="7.44322">
        <ele>2186.4</ele>
        <time>2017-08-27T10:03:40Z</time>
      </trkpt>
      <trkpt lat="44.06109" lon="7.44322">
        <ele>2186.2</ele>
        <time>2017-08-27T10:03:41Z</time>
      </trkpt>
      <trkpt lat="44.06105" lon="7.44321">
        <ele>2185.7</ele>
        <time>2017-08-27T10:03:46Z</time>
      </trkpt>
      <trkpt lat="44.061" lon="7.44322">
        <ele>2184.3</ele>
        <time>2017-08-27T10:04:01Z</time>
      </trkpt>
      <trkpt lat="44.06101" lon="7.44322">
        <ele>2184.6</ele>
        <time>2017-08-27T10:04:26Z</time>
      </trkpt>
      <trkpt lat="44.06098" lon="7.44323">
        <ele>2183.6</ele>
        <time>2017-08-27T10:04:54Z</time>
      </trkpt>
      <trkpt lat="44.06083" lon="7.44324">
        <ele>2180.3</ele>
        <time>2017-08-27T10:05:09Z</time>
      </trkpt>
      <trkpt lat="44.06079" lon="7.44324">
        <ele>2179.8</ele>
        <time>2017-08-27T10:05:13Z</time>
      </trkpt>
      <trkpt lat="44.0607" lon="7.44325">
        <ele>2178.3</ele>
        <time>2017-08-27T10:05:22Z</time>
      </trkpt>
      <trkpt lat="44.06061" lon="7.44322">
        <ele>2178</ele>
        <time>2017-08-27T10:05:33Z</time>
      </trkpt>
      <trkpt lat="44.06051" lon="7.44321">
        <ele>2177.2</ele>
        <time>2017-08-27T10:05:49Z</time>
      </trkpt>
      <trkpt lat="44.0605" lon="7.44322">
        <ele>2176.8</ele>
        <time>2017-08-27T10:06:08Z</time>
      </trkpt>
      <trkpt lat="44.06046" lon="7.44324">
        <ele>2175.9</ele>
        <time>2017-08-27T10:06:16Z</time>
      </trkpt>
      <trkpt lat="44.06044" lon="7.44326">
        <ele>2175.2</ele>
        <time>2017-08-27T10:06:19Z</time>
      </trkpt>
      <trkpt lat="44.06032" lon="7.44324">
        <ele>2174.7</ele>
        <time>2017-08-27T10:06:35Z</time>
      </trkpt>
      <trkpt lat="44.06028" lon="7.44313">
        <ele>2177.1</ele>
        <time>2017-08-27T10:06:49Z</time>
      </trkpt>
      <trkpt lat="44.06026" lon="7.44311">
        <ele>2177.3</ele>
        <time>2017-08-27T10:06:51Z</time>
      </trkpt>
      <trkpt lat="44.06021" lon="7.44295">
        <ele>2180.9</ele>
        <time>2017-08-27T10:07:05Z</time>
      </trkpt>
      <trkpt lat="44.06019" lon="7.44288">
        <ele>2182.5</ele>
        <time>2017-08-27T10:07:11Z</time>
      </trkpt>
      <trkpt lat="44.0601" lon="7.44278">
        <ele>2182.8</ele>
        <time>2017-08-27T10:07:23Z</time>
      </trkpt>
      <trkpt lat="44.06007" lon="7.44277">
        <ele>2182.3</ele>
        <time>2017-08-27T10:07:25Z</time>
      </trkpt>
      <trkpt lat="44.05994" lon="7.44277">
        <ele>2179.2</ele>
        <time>2017-08-27T10:07:35Z</time>
      </trkpt>
      <trkpt lat="44.05976" lon="7.44279">
        <ele>2175.5</ele>
        <time>2017-08-27T10:07:50Z</time>
      </trkpt>
      <trkpt lat="44.05968" lon="7.4428">
        <ele>2174.4</ele>
        <time>2017-08-27T10:07:57Z</time>
      </trkpt>
      <trkpt lat="44.05955" lon="7.44282">
        <ele>2173.4</ele>
        <time>2017-08-27T10:08:09Z</time>
      </trkpt>
      <trkpt lat="44.05949" lon="7.44281">
        <ele>2173.4</ele>
        <time>2017-08-27T10:08:13Z</time>
      </trkpt>
      <trkpt lat="44.05933" lon="7.44276">
        <ele>2173.3</ele>
        <time>2017-08-27T10:08:27Z</time>
      </trkpt>
      <trkpt lat="44.05931" lon="7.44272">
        <ele>2174.4</ele>
        <time>2017-08-27T10:08:31Z</time>
      </trkpt>
      <trkpt lat="44.0592" lon="7.44257">
        <ele>2178.1</ele>
        <time>2017-08-27T10:08:46Z</time>
      </trkpt>
      <trkpt lat="44.05909" lon="7.44249">
        <ele>2178.9</ele>
        <time>2017-08-27T10:08:58Z</time>
      </trkpt>
      <trkpt lat="44.05902" lon="7.44247">
        <ele>2178.2</ele>
        <time>2017-08-27T10:09:04Z</time>
      </trkpt>
      <trkpt lat="44.05889" lon="7.44242">
        <ele>2177</ele>
        <time>2017-08-27T10:09:17Z</time>
      </trkpt>
      <trkpt lat="44.05883" lon="7.44245">
        <ele>2176.2</ele>
        <time>2017-08-27T10:09:22Z</time>
      </trkpt>
      <trkpt lat="44.05881" lon="7.44245">
        <ele>2176.2</ele>
        <time>2017-08-27T10:09:24Z</time>
      </trkpt>
      <trkpt lat="44.05872" lon="7.44249">
        <ele>2175.2</ele>
        <time>2017-08-27T10:09:33Z</time>
      </trkpt>
      <trkpt lat="44.05869" lon="7.44252">
        <ele>2174.5</ele>
        <time>2017-08-27T10:09:37Z</time>
      </trkpt>
      <trkpt lat="44.05865" lon="7.44259">
        <ele>2172.9</ele>
        <time>2017-08-27T10:09:43Z</time>
      </trkpt>
      <trkpt lat="44.0586" lon="7.44264">
        <ele>2172</ele>
        <time>2017-08-27T10:09:49Z</time>
      </trkpt>
      <trkpt lat="44.05859" lon="7.44269">
        <ele>2171</ele>
        <time>2017-08-27T10:09:52Z</time>
      </trkpt>
      <trkpt lat="44.05856" lon="7.44274">
        <ele>2170.1</ele>
        <time>2017-08-27T10:09:56Z</time>
      </trkpt>
      <trkpt lat="44.05848" lon="7.44283">
        <ele>2168.8</ele>
        <time>2017-08-27T10:10:09Z</time>
      </trkpt>
      <trkpt lat="44.05845" lon="7.44285">
        <ele>2168.7</ele>
        <time>2017-08-27T10:10:12Z</time>
      </trkpt>
      <trkpt lat="44.0584" lon="7.44291">
        <ele>2168.2</ele>
        <time>2017-08-27T10:10:24Z</time>
      </trkpt>
      <trkpt lat="44.05842" lon="7.44294">
        <ele>2167.3</ele>
        <time>2017-08-27T10:10:35Z</time>
      </trkpt>
      <trkpt lat="44.05842" lon="7.44294">
        <ele>2167.3</ele>
        <time>2017-08-27T10:11:05Z</time>
      </trkpt>
      <trkpt lat="44.05841" lon="7.44294">
        <ele>2167.5</ele>
        <time>2017-08-27T10:11:28Z</time>
      </trkpt>
      <trkpt lat="44.05836" lon="7.44299">
        <ele>2167.5</ele>
        <time>2017-08-27T10:11:34Z</time>
      </trkpt>
      <trkpt lat="44.05832" lon="7.443">
        <ele>2167.9</ele>
        <time>2017-08-27T10:11:38Z</time>
      </trkpt>
      <trkpt lat="44.0583" lon="7.44304">
        <ele>2167.4</ele>
        <time>2017-08-27T10:11:41Z</time>
      </trkpt>
      <trkpt lat="44.05827" lon="7.44305">
        <ele>2167.5</ele>
        <time>2017-08-27T10:11:44Z</time>
      </trkpt>
      <trkpt lat="44.05815" lon="7.44317">
        <ele>2167.6</ele>
        <time>2017-08-27T10:11:58Z</time>
      </trkpt>
      <trkpt lat="44.0581" lon="7.44323">
        <ele>2167.9</ele>
        <time>2017-08-27T10:12:05Z</time>
      </trkpt>
      <trkpt lat="44.05805" lon="7.44334">
        <ele>2168</ele>
        <time>2017-08-27T10:12:15Z</time>
      </trkpt>
      <trkpt lat="44.05806" lon="7.44338">
        <ele>2167.8</ele>
        <time>2017-08-27T10:12:18Z</time>
      </trkpt>
      <trkpt lat="44.05801" lon="7.44361">
        <ele>2167.2</ele>
        <time>2017-08-27T10:12:33Z</time>
      </trkpt>
      <trkpt lat="44.05798" lon="7.44379">
        <ele>2166.8</ele>
        <time>2017-08-27T10:12:46Z</time>
      </trkpt>
      <trkpt lat="44.05796" lon="7.44385">
        <ele>2166.8</ele>
        <time>2017-08-27T10:12:51Z</time>
      </trkpt>
      <trkpt lat="44.05785" lon="7.44403">
        <ele>2166.8</ele>
        <time>2017-08-27T10:13:07Z</time>
      </trkpt>
      <trkpt lat="44.05779" lon="7.4441">
        <ele>2167.1</ele>
        <time>2017-08-27T10:13:14Z</time>
      </trkpt>
      <trkpt lat="44.05776" lon="7.44438">
        <ele>2167.1</ele>
        <time>2017-08-27T10:13:31Z</time>
      </trkpt>
      <trkpt lat="44.05776" lon="7.4444">
        <ele>2167.1</ele>
        <time>2017-08-27T10:13:32Z</time>
      </trkpt>
      <trkpt lat="44.05773" lon="7.4445">
        <ele>2167.4</ele>
        <time>2017-08-27T10:13:39Z</time>
      </trkpt>
      <trkpt lat="44.05765" lon="7.44475">
        <ele>2168.2</ele>
        <time>2017-08-27T10:13:57Z</time>
      </trkpt>
      <trkpt lat="44.05765" lon="7.44475">
        <ele>2168.2</ele>
        <time>2017-08-27T10:14:00Z</time>
      </trkpt>
      <trkpt lat="44.05765" lon="7.44482">
        <ele>2167.8</ele>
        <time>2017-08-27T10:14:05Z</time>
      </trkpt>
      <trkpt lat="44.05764" lon="7.44489">
        <ele>2167.6</ele>
        <time>2017-08-27T10:14:10Z</time>
      </trkpt>
      <trkpt lat="44.0576" lon="7.44507">
        <ele>2167.1</ele>
        <time>2017-08-27T10:14:23Z</time>
      </trkpt>
      <trkpt lat="44.05757" lon="7.44513">
        <ele>2167.1</ele>
        <time>2017-08-27T10:14:28Z</time>
      </trkpt>
      <trkpt lat="44.05757" lon="7.44516">
        <ele>2166.8</ele>
        <time>2017-08-27T10:14:30Z</time>
      </trkpt>
      <trkpt lat="44.05752" lon="7.44534">
        <ele>2166</ele>
        <time>2017-08-27T10:14:46Z</time>
      </trkpt>
      <trkpt lat="44.05748" lon="7.44548">
        <ele>2164.9</ele>
        <time>2017-08-27T10:14:56Z</time>
      </trkpt>
      <trkpt lat="44.05741" lon="7.4457">
        <ele>2163.3</ele>
        <time>2017-08-27T10:15:11Z</time>
      </trkpt>
      <trkpt lat="44.0573" lon="7.4459">
        <ele>2162.9</ele>
        <time>2017-08-27T10:15:26Z</time>
      </trkpt>
      <trkpt lat="44.05726" lon="7.44604">
        <ele>2162.7</ele>
        <time>2017-08-27T10:15:42Z</time>
      </trkpt>
      <trkpt lat="44.05726" lon="7.44604">
        <ele>2162.7</ele>
        <time>2017-08-27T10:15:45Z</time>
      </trkpt>
      <trkpt lat="44.05725" lon="7.44607">
        <ele>2162.8</ele>
        <time>2017-08-27T10:15:48Z</time>
      </trkpt>
      <trkpt lat="44.05719" lon="7.44629">
        <ele>2162.7</ele>
        <time>2017-08-27T10:16:03Z</time>
      </trkpt>
      <trkpt lat="44.05717" lon="7.44641">
        <ele>2162.3</ele>
        <time>2017-08-27T10:16:17Z</time>
      </trkpt>
      <trkpt lat="44.05716" lon="7.44646">
        <ele>2162.1</ele>
        <time>2017-08-27T10:16:20Z</time>
      </trkpt>
      <trkpt lat="44.0571" lon="7.44673">
        <ele>2161.3</ele>
        <time>2017-08-27T10:16:37Z</time>
      </trkpt>
      <trkpt lat="44.05709" lon="7.44705">
        <ele>2160.2</ele>
        <time>2017-08-27T10:16:54Z</time>
      </trkpt>
      <trkpt lat="44.05707" lon="7.44732">
        <ele>2158.1</ele>
        <time>2017-08-27T10:17:10Z</time>
      </trkpt>
      <trkpt lat="44.05706" lon="7.44745">
        <ele>2156.8</ele>
        <time>2017-08-27T10:17:19Z</time>
      </trkpt>
      <trkpt lat="44.05708" lon="7.44753">
        <ele>2155.7</ele>
        <time>2017-08-27T10:17:25Z</time>
      </trkpt>
      <trkpt lat="44.05707" lon="7.44759">
        <ele>2155.3</ele>
        <time>2017-08-27T10:17:29Z</time>
      </trkpt>
      <trkpt lat="44.05707" lon="7.44763">
        <ele>2154.8</ele>
        <time>2017-08-27T10:17:32Z</time>
      </trkpt>
      <trkpt lat="44.05706" lon="7.44773">
        <ele>2154</ele>
        <time>2017-08-27T10:17:39Z</time>
      </trkpt>
      <trkpt lat="44.05706" lon="7.44787">
        <ele>2152.6</ele>
        <time>2017-08-27T10:17:48Z</time>
      </trkpt>
      <trkpt lat="44.05705" lon="7.44791">
        <ele>2152.4</ele>
        <time>2017-08-27T10:17:51Z</time>
      </trkpt>
      <trkpt lat="44.05703" lon="7.44812">
        <ele>2150.9</ele>
        <time>2017-08-27T10:18:06Z</time>
      </trkpt>
      <trkpt lat="44.05703" lon="7.44831">
        <ele>2148.9</ele>
        <time>2017-08-27T10:18:18Z</time>
      </trkpt>
      <trkpt lat="44.05704" lon="7.44843">
        <ele>2147.4</ele>
        <time>2017-08-27T10:18:27Z</time>
      </trkpt>
      <trkpt lat="44.05702" lon="7.44861">
        <ele>2146.7</ele>
        <time>2017-08-27T10:18:36Z</time>
      </trkpt>
      <trkpt lat="44.057" lon="7.44871">
        <ele>2147.5</ele>
        <time>2017-08-27T10:18:42Z</time>
      </trkpt>
      <trkpt lat="44.057" lon="7.44895">
        <ele>2146.7</ele>
        <time>2017-08-27T10:18:57Z</time>
      </trkpt>
      <trkpt lat="44.05699" lon="7.44916">
        <ele>2144.9</ele>
        <time>2017-08-27T10:19:09Z</time>
      </trkpt>
      <trkpt lat="44.05701" lon="7.44931">
        <ele>2143.1</ele>
        <time>2017-08-27T10:19:20Z</time>
      </trkpt>
      <trkpt lat="44.05701" lon="7.44942">
        <ele>2142.4</ele>
        <time>2017-08-27T10:19:27Z</time>
      </trkpt>
      <trkpt lat="44.05701" lon="7.4495">
        <ele>2141.8</ele>
        <time>2017-08-27T10:19:32Z</time>
      </trkpt>
      <trkpt lat="44.057" lon="7.44952">
        <ele>2142.2</ele>
        <time>2017-08-27T10:19:34Z</time>
      </trkpt>
      <trkpt lat="44.05697" lon="7.44963">
        <ele>2143.1</ele>
        <time>2017-08-27T10:19:43Z</time>
      </trkpt>
      <trkpt lat="44.05697" lon="7.44969">
        <ele>2142.7</ele>
        <time>2017-08-27T10:19:47Z</time>
      </trkpt>
      <trkpt lat="44.05702" lon="7.44964">
        <ele>2140</ele>
        <time>2017-08-27T10:19:54Z</time>
      </trkpt>
      <trkpt lat="44.05699" lon="7.44979">
        <ele>2140</ele>
        <time>2017-08-27T10:20:04Z</time>
      </trkpt>
      <trkpt lat="44.05697" lon="7.45001">
        <ele>2137.3</ele>
        <time>2017-08-27T10:20:17Z</time>
      </trkpt>
      <trkpt lat="44.05695" lon="7.45028">
        <ele>2132.8</ele>
        <time>2017-08-27T10:20:31Z</time>
      </trkpt>
      <trkpt lat="44.05689" lon="7.45052">
        <ele>2132.7</ele>
        <time>2017-08-27T10:20:45Z</time>
      </trkpt>
      <trkpt lat="44.05685" lon="7.4508">
        <ele>2132.5</ele>
        <time>2017-08-27T10:21:00Z</time>
      </trkpt>
      <trkpt lat="44.05686" lon="7.45107">
        <ele>2132</ele>
        <time>2017-08-27T10:21:16Z</time>
      </trkpt>
      <trkpt lat="44.05686" lon="7.45117">
        <ele>2132.3</ele>
        <time>2017-08-27T10:21:30Z</time>
      </trkpt>
      <trkpt lat="44.05687" lon="7.45117">
        <ele>2132.1</ele>
        <time>2017-08-27T10:21:31Z</time>
      </trkpt>
      <trkpt lat="44.05695" lon="7.4514">
        <ele>2131.8</ele>
        <time>2017-08-27T10:21:46Z</time>
      </trkpt>
      <trkpt lat="44.057" lon="7.45146">
        <ele>2130.5</ele>
        <time>2017-08-27T10:21:55Z</time>
      </trkpt>
      <trkpt lat="44.05711" lon="7.45142">
        <ele>2127.3</ele>
        <time>2017-08-27T10:22:02Z</time>
      </trkpt>
      <trkpt lat="44.05722" lon="7.45143">
        <ele>2124.2</ele>
        <time>2017-08-27T10:22:11Z</time>
      </trkpt>
      <trkpt lat="44.05723" lon="7.45146">
        <ele>2124.1</ele>
        <time>2017-08-27T10:22:13Z</time>
      </trkpt>
      <trkpt lat="44.05732" lon="7.45151">
        <ele>2122.2</ele>
        <time>2017-08-27T10:22:21Z</time>
      </trkpt>
      <trkpt lat="44.05736" lon="7.4516">
        <ele>2121.4</ele>
        <time>2017-08-27T10:22:28Z</time>
      </trkpt>
      <trkpt lat="44.05738" lon="7.45176">
        <ele>2120.7</ele>
        <time>2017-08-27T10:22:37Z</time>
      </trkpt>
      <trkpt lat="44.05738" lon="7.45195">
        <ele>2120</ele>
        <time>2017-08-27T10:22:52Z</time>
      </trkpt>
      <trkpt lat="44.05737" lon="7.45195">
        <ele>2120.3</ele>
        <time>2017-08-27T10:23:18Z</time>
      </trkpt>
      <trkpt lat="44.05737" lon="7.45195">
        <ele>2120.3</ele>
        <time>2017-08-27T10:23:41Z</time>
      </trkpt>
      <trkpt lat="44.05737" lon="7.45195">
        <ele>2120.3</ele>
        <time>2017-08-27T10:24:09Z</time>
      </trkpt>
      <trkpt lat="44.05738" lon="7.45195">
        <ele>2120</ele>
        <time>2017-08-27T10:24:42Z</time>
      </trkpt>
      <trkpt lat="44.05738" lon="7.45194">
        <ele>2120</ele>
        <time>2017-08-27T10:25:17Z</time>
      </trkpt>
      <trkpt lat="44.05738" lon="7.45194">
        <ele>2120</ele>
        <time>2017-08-27T10:25:53Z</time>
      </trkpt>
      <trkpt lat="44.05738" lon="7.45194">
        <ele>2120</ele>
        <time>2017-08-27T10:26:21Z</time>
      </trkpt>
      <trkpt lat="44.05738" lon="7.45194">
        <ele>2120</ele>
        <time>2017-08-27T10:27:01Z</time>
      </trkpt>
      <trkpt lat="44.05738" lon="7.45194">
        <ele>2120</ele>
        <time>2017-08-27T10:27:41Z</time>
      </trkpt>
      <trkpt lat="44.05738" lon="7.45194">
        <ele>2120</ele>
        <time>2017-08-27T10:28:24Z</time>
      </trkpt>
      <trkpt lat="44.05738" lon="7.45195">
        <ele>2120</ele>
        <time>2017-08-27T10:29:02Z</time>
      </trkpt>
      <trkpt lat="44.05739" lon="7.45195">
        <ele>2119.8</ele>
        <time>2017-08-27T10:29:34Z</time>
      </trkpt>
      <trkpt lat="44.05739" lon="7.45195">
        <ele>2119.8</ele>
        <time>2017-08-27T10:30:20Z</time>
      </trkpt>
      <trkpt lat="44.05738" lon="7.45196">
        <ele>2120</ele>
        <time>2017-08-27T10:30:36Z</time>
      </trkpt>
      <trkpt lat="44.05733" lon="7.45199">
        <ele>2121.2</ele>
        <time>2017-08-27T10:30:47Z</time>
      </trkpt>
      <trkpt lat="44.05732" lon="7.45199">
        <ele>2121.5</ele>
        <time>2017-08-27T10:31:10Z</time>
      </trkpt>
      <trkpt lat="44.05732" lon="7.45199">
        <ele>2121.5</ele>
        <time>2017-08-27T10:31:44Z</time>
      </trkpt>
      <trkpt lat="44.05732" lon="7.45199">
        <ele>2121.5</ele>
        <time>2017-08-27T10:32:11Z</time>
      </trkpt>
      <trkpt lat="44.05732" lon="7.45199">
        <ele>2121.5</ele>
        <time>2017-08-27T10:32:46Z</time>
      </trkpt>
      <trkpt lat="44.05732" lon="7.45199">
        <ele>2121.5</ele>
        <time>2017-08-27T10:33:16Z</time>
      </trkpt>
      <trkpt lat="44.05732" lon="7.45199">
        <ele>2121.5</ele>
        <time>2017-08-27T10:33:47Z</time>
      </trkpt>
      <trkpt lat="44.05732" lon="7.45199">
        <ele>2121.5</ele>
        <time>2017-08-27T10:34:21Z</time>
      </trkpt>
      <trkpt lat="44.05732" lon="7.45199">
        <ele>2121.5</ele>
        <time>2017-08-27T10:35:00Z</time>
      </trkpt>
      <trkpt lat="44.05732" lon="7.45199">
        <ele>2121.5</ele>
        <time>2017-08-27T10:35:36Z</time>
      </trkpt>
      <trkpt lat="44.05732" lon="7.45199">
        <ele>2121.5</ele>
        <time>2017-08-27T10:36:14Z</time>
      </trkpt>
      <trkpt lat="44.05732" lon="7.45199">
        <ele>2121.5</ele>
        <time>2017-08-27T10:36:56Z</time>
      </trkpt>
      <trkpt lat="44.05732" lon="7.45199">
        <ele>2121.5</ele>
        <time>2017-08-27T10:37:33Z</time>
      </trkpt>
      <trkpt lat="44.05732" lon="7.45199">
        <ele>2121.5</ele>
        <time>2017-08-27T10:38:15Z</time>
      </trkpt>
      <trkpt lat="44.05732" lon="7.45199">
        <ele>2121.5</ele>
        <time>2017-08-27T10:38:42Z</time>
      </trkpt>
      <trkpt lat="44.05732" lon="7.452">
        <ele>2121.5</ele>
        <time>2017-08-27T10:39:13Z</time>
      </trkpt>
      <trkpt lat="44.05732" lon="7.45199">
        <ele>2121.5</ele>
        <time>2017-08-27T10:39:48Z</time>
      </trkpt>
      <trkpt lat="44.05732" lon="7.45199">
        <ele>2121.5</ele>
        <time>2017-08-27T10:40:20Z</time>
      </trkpt>
      <trkpt lat="44.05732" lon="7.452">
        <ele>2121.5</ele>
        <time>2017-08-27T10:40:52Z</time>
      </trkpt>
      <trkpt lat="44.05732" lon="7.452">
        <ele>2121.5</ele>
        <time>2017-08-27T10:41:22Z</time>
      </trkpt>
      <trkpt lat="44.05732" lon="7.452">
        <ele>2121.5</ele>
        <time>2017-08-27T10:42:05Z</time>
      </trkpt>
      <trkpt lat="44.05732" lon="7.452">
        <ele>2121.5</ele>
        <time>2017-08-27T10:42:41Z</time>
      </trkpt>
      <trkpt lat="44.05732" lon="7.45199">
        <ele>2121.5</ele>
        <time>2017-08-27T10:43:17Z</time>
      </trkpt>
      <trkpt lat="44.05732" lon="7.45199">
        <ele>2121.5</ele>
        <time>2017-08-27T10:43:48Z</time>
      </trkpt>
      <trkpt lat="44.05732" lon="7.45199">
        <ele>2121.5</ele>
        <time>2017-08-27T10:44:22Z</time>
      </trkpt>
      <trkpt lat="44.05732" lon="7.45199">
        <ele>2121.5</ele>
        <time>2017-08-27T10:44:55Z</time>
      </trkpt>
      <trkpt lat="44.05732" lon="7.45199">
        <ele>2121.5</ele>
        <time>2017-08-27T10:45:30Z</time>
      </trkpt>
      <trkpt lat="44.05732" lon="7.45199">
        <ele>2121.5</ele>
        <time>2017-08-27T10:46:04Z</time>
      </trkpt>
      <trkpt lat="44.05731" lon="7.45199">
        <ele>2121.7</ele>
        <time>2017-08-27T10:46:39Z</time>
      </trkpt>
      <trkpt lat="44.05732" lon="7.45199">
        <ele>2121.5</ele>
        <time>2017-08-27T10:47:13Z</time>
      </trkpt>
      <trkpt lat="44.05731" lon="7.45199">
        <ele>2121.7</ele>
        <time>2017-08-27T10:47:45Z</time>
      </trkpt>
      <trkpt lat="44.05732" lon="7.45199">
        <ele>2121.5</ele>
        <time>2017-08-27T10:48:02Z</time>
      </trkpt>
      <trkpt lat="44.05736" lon="7.45177">
        <ele>2121.2</ele>
        <time>2017-08-27T11:26:03Z</time>
      </trkpt>
      <trkpt lat="44.05736" lon="7.45174">
        <ele>2121.3</ele>
        <time>2017-08-27T11:26:05Z</time>
      </trkpt>
      <trkpt lat="44.05737" lon="7.45161">
        <ele>2121.2</ele>
        <time>2017-08-27T11:26:18Z</time>
      </trkpt>
      <trkpt lat="44.05736" lon="7.4516">
        <ele>2121.4</ele>
        <time>2017-08-27T11:26:32Z</time>
      </trkpt>
      <trkpt lat="44.05735" lon="7.45166">
        <ele>2121.8</ele>
        <time>2017-08-27T11:26:51Z</time>
      </trkpt>
      <trkpt lat="44.05732" lon="7.45166">
        <ele>2122.5</ele>
        <time>2017-08-27T11:27:18Z</time>
      </trkpt>
      <trkpt lat="44.05735" lon="7.45164">
        <ele>2121.7</ele>
        <time>2017-08-27T11:27:34Z</time>
      </trkpt>
      <trkpt lat="44.05733" lon="7.45158">
        <ele>2122.1</ele>
        <time>2017-08-27T11:27:50Z</time>
      </trkpt>
      <trkpt lat="44.05724" lon="7.45147">
        <ele>2123.9</ele>
        <time>2017-08-27T11:28:04Z</time>
      </trkpt>
      <trkpt lat="44.05717" lon="7.4514">
        <ele>2125.5</ele>
        <time>2017-08-27T11:28:18Z</time>
      </trkpt>
      <trkpt lat="44.05712" lon="7.45139">
        <ele>2126.9</ele>
        <time>2017-08-27T11:28:34Z</time>
      </trkpt>
      <trkpt lat="44.05703" lon="7.4514">
        <ele>2129.5</ele>
        <time>2017-08-27T11:28:49Z</time>
      </trkpt>
      <trkpt lat="44.05698" lon="7.45144">
        <ele>2131</ele>
        <time>2017-08-27T11:29:06Z</time>
      </trkpt>
      <trkpt lat="44.05696" lon="7.45136">
        <ele>2131.4</ele>
        <time>2017-08-27T11:29:22Z</time>
      </trkpt>
      <trkpt lat="44.05689" lon="7.45123">
        <ele>2132.2</ele>
        <time>2017-08-27T11:29:38Z</time>
      </trkpt>
      <trkpt lat="44.05685" lon="7.45116">
        <ele>2132.3</ele>
        <time>2017-08-27T11:29:54Z</time>
      </trkpt>
      <trkpt lat="44.05677" lon="7.45115">
        <ele>2133.2</ele>
        <time>2017-08-27T11:30:10Z</time>
      </trkpt>
      <trkpt lat="44.05663" lon="7.45115">
        <ele>2134.8</ele>
        <time>2017-08-27T11:30:28Z</time>
      </trkpt>
      <trkpt lat="44.05658" lon="7.45123">
        <ele>2136</ele>
        <time>2017-08-27T11:30:37Z</time>
      </trkpt>
      <trkpt lat="44.05657" lon="7.45139">
        <ele>2137.4</ele>
        <time>2017-08-27T11:30:50Z</time>
      </trkpt>
      <trkpt lat="44.05652" lon="7.45156">
        <ele>2137.8</ele>
        <time>2017-08-27T11:31:05Z</time>
      </trkpt>
      <trkpt lat="44.05649" lon="7.45168">
        <ele>2138</ele>
        <time>2017-08-27T11:31:16Z</time>
      </trkpt>
      <trkpt lat="44.05644" lon="7.45182">
        <ele>2137.9</ele>
        <time>2017-08-27T11:31:31Z</time>
      </trkpt>
      <trkpt lat="44.05634" lon="7.45196">
        <ele>2138.4</ele>
        <time>2017-08-27T11:31:47Z</time>
      </trkpt>
      <trkpt lat="44.05623" lon="7.45213">
        <ele>2139.1</ele>
        <time>2017-08-27T11:32:05Z</time>
      </trkpt>
      <trkpt lat="44.0562" lon="7.45213">
        <ele>2139.4</ele>
        <time>2017-08-27T11:32:09Z</time>
      </trkpt>
      <trkpt lat="44.0561" lon="7.45204">
        <ele>2140.1</ele>
        <time>2017-08-27T11:32:23Z</time>
      </trkpt>
      <trkpt lat="44.0561" lon="7.45203">
        <ele>2140.1</ele>
        <time>2017-08-27T11:32:24Z</time>
      </trkpt>
      <trkpt lat="44.05603" lon="7.45195">
        <ele>2140.6</ele>
        <time>2017-08-27T11:32:40Z</time>
      </trkpt>
      <trkpt lat="44.05594" lon="7.45184">
        <ele>2141.7</ele>
        <time>2017-08-27T11:32:55Z</time>
      </trkpt>
      <trkpt lat="44.05585" lon="7.45172">
        <ele>2143.4</ele>
        <time>2017-08-27T11:33:11Z</time>
      </trkpt>
      <trkpt lat="44.05584" lon="7.45162">
        <ele>2144.6</ele>
        <time>2017-08-27T11:33:25Z</time>
      </trkpt>
      <trkpt lat="44.05581" lon="7.45153">
        <ele>2147.2</ele>
        <time>2017-08-27T11:33:38Z</time>
      </trkpt>
      <trkpt lat="44.05573" lon="7.45164">
        <ele>2150.5</ele>
        <time>2017-08-27T11:33:52Z</time>
      </trkpt>
      <trkpt lat="44.05572" lon="7.45167">
        <ele>2150.9</ele>
        <time>2017-08-27T11:33:55Z</time>
      </trkpt>
      <trkpt lat="44.05566" lon="7.45182">
        <ele>2153.2</ele>
        <time>2017-08-27T11:34:10Z</time>
      </trkpt>
      <trkpt lat="44.05561" lon="7.45192">
        <ele>2155.1</ele>
        <time>2017-08-27T11:34:23Z</time>
      </trkpt>
      <trkpt lat="44.05556" lon="7.45201">
        <ele>2156.8</ele>
        <time>2017-08-27T11:34:38Z</time>
      </trkpt>
      <trkpt lat="44.05555" lon="7.45195">
        <ele>2158.1</ele>
        <time>2017-08-27T11:34:54Z</time>
      </trkpt>
      <trkpt lat="44.05555" lon="7.4518">
        <ele>2159.7</ele>
        <time>2017-08-27T11:35:10Z</time>
      </trkpt>
      <trkpt lat="44.05551" lon="7.4517">
        <ele>2161.7</ele>
        <time>2017-08-27T11:35:24Z</time>
      </trkpt>
      <trkpt lat="44.05551" lon="7.45168">
        <ele>2161.9</ele>
        <time>2017-08-27T11:35:26Z</time>
      </trkpt>
      <trkpt lat="44.05552" lon="7.45157">
        <ele>2161.3</ele>
        <time>2017-08-27T11:35:33Z</time>
      </trkpt>
      <trkpt lat="44.05549" lon="7.45137">
        <ele>2160.4</ele>
        <time>2017-08-27T11:35:49Z</time>
      </trkpt>
      <trkpt lat="44.05545" lon="7.45134">
        <ele>2160.2</ele>
        <time>2017-08-27T11:36:03Z</time>
      </trkpt>
      <trkpt lat="44.05544" lon="7.45135">
        <ele>2160.5</ele>
        <time>2017-08-27T11:36:04Z</time>
      </trkpt>
      <trkpt lat="44.05532" lon="7.45142">
        <ele>2162.9</ele>
        <time>2017-08-27T11:36:20Z</time>
      </trkpt>
      <trkpt lat="44.05521" lon="7.45149">
        <ele>2164.5</ele>
        <time>2017-08-27T11:36:35Z</time>
      </trkpt>
      <trkpt lat="44.05519" lon="7.45149">
        <ele>2164.5</ele>
        <time>2017-08-27T11:36:37Z</time>
      </trkpt>
      <trkpt lat="44.05513" lon="7.4515">
        <ele>2164.6</ele>
        <time>2017-08-27T11:36:51Z</time>
      </trkpt>
      <trkpt lat="44.05511" lon="7.45152">
        <ele>2164.9</ele>
        <time>2017-08-27T11:37:11Z</time>
      </trkpt>
      <trkpt lat="44.05502" lon="7.45152">
        <ele>2164.9</ele>
        <time>2017-08-27T11:37:20Z</time>
      </trkpt>
      <trkpt lat="44.05489" lon="7.45139">
        <ele>2165.4</ele>
        <time>2017-08-27T11:37:38Z</time>
      </trkpt>
      <trkpt lat="44.0548" lon="7.4513">
        <ele>2166.4</ele>
        <time>2017-08-27T11:37:54Z</time>
      </trkpt>
      <trkpt lat="44.0548" lon="7.45129">
        <ele>2166.4</ele>
        <time>2017-08-27T11:37:55Z</time>
      </trkpt>
      <trkpt lat="44.05469" lon="7.45115">
        <ele>2166.6</ele>
        <time>2017-08-27T11:38:11Z</time>
      </trkpt>
      <trkpt lat="44.05462" lon="7.4511">
        <ele>2166.2</ele>
        <time>2017-08-27T11:38:28Z</time>
      </trkpt>
      <trkpt lat="44.05463" lon="7.45112">
        <ele>2166.5</ele>
        <time>2017-08-27T11:38:44Z</time>
      </trkpt>
      <trkpt lat="44.05464" lon="7.45114">
        <ele>2166.7</ele>
        <time>2017-08-27T11:38:57Z</time>
      </trkpt>
      <trkpt lat="44.05464" lon="7.45114">
        <ele>2166.7</ele>
        <time>2017-08-27T11:39:15Z</time>
      </trkpt>
      <trkpt lat="44.0546" lon="7.45113">
        <ele>2166.7</ele>
        <time>2017-08-27T11:39:27Z</time>
      </trkpt>
      <trkpt lat="44.05449" lon="7.45113">
        <ele>2167.2</ele>
        <time>2017-08-27T11:39:42Z</time>
      </trkpt>
      <trkpt lat="44.05443" lon="7.45118">
        <ele>2168.6</ele>
        <time>2017-08-27T11:39:50Z</time>
      </trkpt>
      <trkpt lat="44.05429" lon="7.4513">
        <ele>2171</ele>
        <time>2017-08-27T11:40:07Z</time>
      </trkpt>
      <trkpt lat="44.05413" lon="7.45127">
        <ele>2170.7</ele>
        <time>2017-08-27T11:40:23Z</time>
      </trkpt>
      <trkpt lat="44.05413" lon="7.45126">
        <ele>2170.7</ele>
        <time>2017-08-27T11:40:24Z</time>
      </trkpt>
      <trkpt lat="44.05411" lon="7.45118">
        <ele>2170.5</ele>
        <time>2017-08-27T11:40:30Z</time>
      </trkpt>
      <trkpt lat="44.0541" lon="7.45117">
        <ele>2170.5</ele>
        <time>2017-08-27T11:40:32Z</time>
      </trkpt>
      <trkpt lat="44.05406" lon="7.45109">
        <ele>2170.3</ele>
        <time>2017-08-27T11:40:37Z</time>
      </trkpt>
      <trkpt lat="44.05393" lon="7.45087">
        <ele>2170.8</ele>
        <time>2017-08-27T11:40:56Z</time>
      </trkpt>
      <trkpt lat="44.05379" lon="7.45071">
        <ele>2170.1</ele>
        <time>2017-08-27T11:41:11Z</time>
      </trkpt>
      <trkpt lat="44.05376" lon="7.45069">
        <ele>2169.8</ele>
        <time>2017-08-27T11:41:14Z</time>
      </trkpt>
      <trkpt lat="44.05377" lon="7.45062">
        <ele>2170</ele>
        <time>2017-08-27T11:41:19Z</time>
      </trkpt>
      <trkpt lat="44.05375" lon="7.45041">
        <ele>2170.3</ele>
        <time>2017-08-27T11:41:34Z</time>
      </trkpt>
      <trkpt lat="44.05368" lon="7.45023">
        <ele>2171.4</ele>
        <time>2017-08-27T11:41:49Z</time>
      </trkpt>
      <trkpt lat="44.0536" lon="7.45012">
        <ele>2173.2</ele>
        <time>2017-08-27T11:42:04Z</time>
      </trkpt>
      <trkpt lat="44.0536" lon="7.45007">
        <ele>2173.5</ele>
        <time>2017-08-27T11:42:08Z</time>
      </trkpt>
      <trkpt lat="44.05361" lon="7.45002">
        <ele>2173.9</ele>
        <time>2017-08-27T11:42:12Z</time>
      </trkpt>
      <trkpt lat="44.0536" lon="7.44997">
        <ele>2174.1</ele>
        <time>2017-08-27T11:42:16Z</time>
      </trkpt>
      <trkpt lat="44.0536" lon="7.44969">
        <ele>2175.1</ele>
        <time>2017-08-27T11:42:36Z</time>
      </trkpt>
      <trkpt lat="44.05359" lon="7.44942">
        <ele>2175.9</ele>
        <time>2017-08-27T11:42:53Z</time>
      </trkpt>
      <trkpt lat="44.05362" lon="7.44924">
        <ele>2178.4</ele>
        <time>2017-08-27T11:43:05Z</time>
      </trkpt>
      <trkpt lat="44.05365" lon="7.44901">
        <ele>2183.5</ele>
        <time>2017-08-27T11:43:21Z</time>
      </trkpt>
      <trkpt lat="44.05372" lon="7.44885">
        <ele>2184.5</ele>
        <time>2017-08-27T11:43:36Z</time>
      </trkpt>
      <trkpt lat="44.05373" lon="7.4488">
        <ele>2185.3</ele>
        <time>2017-08-27T11:43:41Z</time>
      </trkpt>
      <trkpt lat="44.05376" lon="7.44862">
        <ele>2188.2</ele>
        <time>2017-08-27T11:43:57Z</time>
      </trkpt>
      <trkpt lat="44.05382" lon="7.44847">
        <ele>2187.1</ele>
        <time>2017-08-27T11:44:11Z</time>
      </trkpt>
      <trkpt lat="44.05383" lon="7.44842">
        <ele>2187.3</ele>
        <time>2017-08-27T11:44:16Z</time>
      </trkpt>
      <trkpt lat="44.05387" lon="7.44837">
        <ele>2185.6</ele>
        <time>2017-08-27T11:44:20Z</time>
      </trkpt>
      <trkpt lat="44.05388" lon="7.4483">
        <ele>2186</ele>
        <time>2017-08-27T11:44:25Z</time>
      </trkpt>
      <trkpt lat="44.0539" lon="7.44824">
        <ele>2185.8</ele>
        <time>2017-08-27T11:44:29Z</time>
      </trkpt>
      <trkpt lat="44.05385" lon="7.44813">
        <ele>2190.1</ele>
        <time>2017-08-27T11:44:45Z</time>
      </trkpt>
      <trkpt lat="44.05377" lon="7.44814">
        <ele>2194.5</ele>
        <time>2017-08-27T11:44:59Z</time>
      </trkpt>
      <trkpt lat="44.05377" lon="7.44813">
        <ele>2194.6</ele>
        <time>2017-08-27T11:45:01Z</time>
      </trkpt>
      <trkpt lat="44.05373" lon="7.44812">
        <ele>2196.9</ele>
        <time>2017-08-27T11:45:15Z</time>
      </trkpt>
      <trkpt lat="44.05368" lon="7.4481">
        <ele>2199.9</ele>
        <time>2017-08-27T11:45:27Z</time>
      </trkpt>
      <trkpt lat="44.05362" lon="7.4481">
        <ele>2203.2</ele>
        <time>2017-08-27T11:45:37Z</time>
      </trkpt>
      <trkpt lat="44.0536" lon="7.44809">
        <ele>2204.1</ele>
        <time>2017-08-27T11:45:41Z</time>
      </trkpt>
      <trkpt lat="44.05355" lon="7.44804">
        <ele>2205.6</ele>
        <time>2017-08-27T11:45:54Z</time>
      </trkpt>
      <trkpt lat="44.05355" lon="7.44804">
        <ele>2205.6</ele>
        <time>2017-08-27T11:46:19Z</time>
      </trkpt>
      <trkpt lat="44.05354" lon="7.44804">
        <ele>2205.9</ele>
        <time>2017-08-27T11:46:47Z</time>
      </trkpt>
      <trkpt lat="44.05354" lon="7.44804">
        <ele>2205.9</ele>
        <time>2017-08-27T11:47:12Z</time>
      </trkpt>
      <trkpt lat="44.05348" lon="7.44801">
        <ele>2207.3</ele>
        <time>2017-08-27T11:47:23Z</time>
      </trkpt>
      <trkpt lat="44.05346" lon="7.44798">
        <ele>2207.5</ele>
        <time>2017-08-27T11:47:26Z</time>
      </trkpt>
      <trkpt lat="44.05333" lon="7.44789">
        <ele>2209.7</ele>
        <time>2017-08-27T11:47:42Z</time>
      </trkpt>
      <trkpt lat="44.05331" lon="7.44785">
        <ele>2209.6</ele>
        <time>2017-08-27T11:47:45Z</time>
      </trkpt>
      <trkpt lat="44.0532" lon="7.44771">
        <ele>2210.9</ele>
        <time>2017-08-27T11:48:02Z</time>
      </trkpt>
      <trkpt lat="44.05309" lon="7.44769">
        <ele>2214</ele>
        <time>2017-08-27T11:48:17Z</time>
      </trkpt>
      <trkpt lat="44.05299" lon="7.44764">
        <ele>2217.4</ele>
        <time>2017-08-27T11:48:32Z</time>
      </trkpt>
      <trkpt lat="44.05294" lon="7.44764">
        <ele>2219.2</ele>
        <time>2017-08-27T11:48:40Z</time>
      </trkpt>
      <trkpt lat="44.05287" lon="7.44772">
        <ele>2221.3</ele>
        <time>2017-08-27T11:48:54Z</time>
      </trkpt>
      <trkpt lat="44.05285" lon="7.44768">
        <ele>2222.2</ele>
        <time>2017-08-27T11:49:09Z</time>
      </trkpt>
      <trkpt lat="44.05284" lon="7.44757">
        <ele>2223.1</ele>
        <time>2017-08-27T11:49:26Z</time>
      </trkpt>
      <trkpt lat="44.05281" lon="7.44748">
        <ele>2225.3</ele>
        <time>2017-08-27T11:49:42Z</time>
      </trkpt>
      <trkpt lat="44.05274" lon="7.44743">
        <ele>2228.9</ele>
        <time>2017-08-27T11:49:55Z</time>
      </trkpt>
      <trkpt lat="44.05275" lon="7.44737">
        <ele>2230.3</ele>
        <time>2017-08-27T11:50:08Z</time>
      </trkpt>
      <trkpt lat="44.05269" lon="7.44729">
        <ele>2233.5</ele>
        <time>2017-08-27T11:50:22Z</time>
      </trkpt>
      <trkpt lat="44.0526" lon="7.44724">
        <ele>2236.2</ele>
        <time>2017-08-27T11:50:37Z</time>
      </trkpt>
      <trkpt lat="44.05262" lon="7.44718">
        <ele>2237.2</ele>
        <time>2017-08-27T11:50:45Z</time>
      </trkpt>
      <trkpt lat="44.05271" lon="7.44716">
        <ele>2236.6</ele>
        <time>2017-08-27T11:50:54Z</time>
      </trkpt>
      <trkpt lat="44.05274" lon="7.44717">
        <ele>2236</ele>
        <time>2017-08-27T11:50:57Z</time>
      </trkpt>
      <trkpt lat="44.05279" lon="7.44712">
        <ele>2236.5</ele>
        <time>2017-08-27T11:51:04Z</time>
      </trkpt>
      <trkpt lat="44.0528" lon="7.44699">
        <ele>2240.2</ele>
        <time>2017-08-27T11:51:20Z</time>
      </trkpt>
      <trkpt lat="44.05278" lon="7.44691">
        <ele>2242.7</ele>
        <time>2017-08-27T11:51:32Z</time>
      </trkpt>
      <trkpt lat="44.05278" lon="7.4468">
        <ele>2245.1</ele>
        <time>2017-08-27T11:51:46Z</time>
      </trkpt>
      <trkpt lat="44.05276" lon="7.44664">
        <ele>2248.4</ele>
        <time>2017-08-27T11:52:02Z</time>
      </trkpt>
      <trkpt lat="44.05272" lon="7.44655">
        <ele>2249.9</ele>
        <time>2017-08-27T11:52:14Z</time>
      </trkpt>
      <trkpt lat="44.05268" lon="7.44633">
        <ele>2253</ele>
        <time>2017-08-27T11:52:29Z</time>
      </trkpt>
      <trkpt lat="44.05267" lon="7.44626">
        <ele>2253.9</ele>
        <time>2017-08-27T11:52:35Z</time>
      </trkpt>
      <trkpt lat="44.05271" lon="7.44615">
        <ele>2254.6</ele>
        <time>2017-08-27T11:52:47Z</time>
      </trkpt>
      <trkpt lat="44.05271" lon="7.4461">
        <ele>2255.1</ele>
        <time>2017-08-27T11:52:52Z</time>
      </trkpt>
      <trkpt lat="44.05272" lon="7.44601">
        <ele>2255.8</ele>
        <time>2017-08-27T11:53:08Z</time>
      </trkpt>
      <trkpt lat="44.05272" lon="7.44601">
        <ele>2255.8</ele>
        <time>2017-08-27T11:53:45Z</time>
      </trkpt>
      <trkpt lat="44.05272" lon="7.44601">
        <ele>2255.8</ele>
        <time>2017-08-27T11:54:21Z</time>
      </trkpt>
      <trkpt lat="44.05272" lon="7.44601">
        <ele>2255.8</ele>
        <time>2017-08-27T11:54:57Z</time>
      </trkpt>
      <trkpt lat="44.05271" lon="7.44599">
        <ele>2256.1</ele>
        <time>2017-08-27T11:55:30Z</time>
      </trkpt>
      <trkpt lat="44.0527" lon="7.44595">
        <ele>2256.5</ele>
        <time>2017-08-27T11:55:33Z</time>
      </trkpt>
      <trkpt lat="44.05267" lon="7.44585">
        <ele>2257.6</ele>
        <time>2017-08-27T11:55:41Z</time>
      </trkpt>
      <trkpt lat="44.05267" lon="7.44581">
        <ele>2257.9</ele>
        <time>2017-08-27T11:55:44Z</time>
      </trkpt>
      <trkpt lat="44.05266" lon="7.44576">
        <ele>2258.2</ele>
        <time>2017-08-27T11:55:48Z</time>
      </trkpt>
      <trkpt lat="44.05262" lon="7.44561">
        <ele>2258.8</ele>
        <time>2017-08-27T11:55:58Z</time>
      </trkpt>
      <trkpt lat="44.0525" lon="7.44555">
        <ele>2259</ele>
        <time>2017-08-27T11:56:09Z</time>
      </trkpt>
      <trkpt lat="44.0524" lon="7.44549">
        <ele>2259.6</ele>
        <time>2017-08-27T11:56:19Z</time>
      </trkpt>
      <trkpt lat="44.05223" lon="7.4453">
        <ele>2260</ele>
        <time>2017-08-27T11:56:36Z</time>
      </trkpt>
      <trkpt lat="44.05215" lon="7.4451">
        <ele>2262.5</ele>
        <time>2017-08-27T11:56:51Z</time>
      </trkpt>
      <trkpt lat="44.05212" lon="7.44504">
        <ele>2263.3</ele>
        <time>2017-08-27T11:56:55Z</time>
      </trkpt>
      <trkpt lat="44.0521" lon="7.44492">
        <ele>2263.7</ele>
        <time>2017-08-27T11:57:05Z</time>
      </trkpt>
      <trkpt lat="44.05204" lon="7.44478">
        <ele>2263.9</ele>
        <time>2017-08-27T11:57:20Z</time>
      </trkpt>
      <trkpt lat="44.05197" lon="7.44479">
        <ele>2264.3</ele>
        <time>2017-08-27T11:57:33Z</time>
      </trkpt>
      <trkpt lat="44.05188" lon="7.44473">
        <ele>2265</ele>
        <time>2017-08-27T11:57:45Z</time>
      </trkpt>
      <trkpt lat="44.05175" lon="7.4446">
        <ele>2266.7</ele>
        <time>2017-08-27T11:58:02Z</time>
      </trkpt>
      <trkpt lat="44.05178" lon="7.44443">
        <ele>2265.6</ele>
        <time>2017-08-27T11:58:18Z</time>
      </trkpt>
      <trkpt lat="44.05179" lon="7.44434">
        <ele>2264.6</ele>
        <time>2017-08-27T11:58:29Z</time>
      </trkpt>
      <trkpt lat="44.0518" lon="7.44431">
        <ele>2264</ele>
        <time>2017-08-27T11:58:34Z</time>
      </trkpt>
      <trkpt lat="44.05188" lon="7.44434">
        <ele>2261.6</ele>
        <time>2017-08-27T11:58:50Z</time>
      </trkpt>
      <trkpt lat="44.05192" lon="7.44422">
        <ele>2258.7</ele>
        <time>2017-08-27T11:59:04Z</time>
      </trkpt>
      <trkpt lat="44.05191" lon="7.44407">
        <ele>2257.6</ele>
        <time>2017-08-27T11:59:18Z</time>
      </trkpt>
      <trkpt lat="44.0519" lon="7.44405">
        <ele>2257.8</ele>
        <time>2017-08-27T11:59:20Z</time>
      </trkpt>
      <trkpt lat="44.05194" lon="7.44396">
        <ele>2255.7</ele>
        <time>2017-08-27T11:59:36Z</time>
      </trkpt>
      <trkpt lat="44.05203" lon="7.444">
        <ele>2254</ele>
        <time>2017-08-27T11:59:50Z</time>
      </trkpt>
      <trkpt lat="44.05209" lon="7.44401">
        <ele>2252.7</ele>
        <time>2017-08-27T12:00:03Z</time>
      </trkpt>
      <trkpt lat="44.0521" lon="7.44399">
        <ele>2252.4</ele>
        <time>2017-08-27T12:00:05Z</time>
      </trkpt>
      <trkpt lat="44.05205" lon="7.4438">
        <ele>2252.2</ele>
        <time>2017-08-27T12:00:20Z</time>
      </trkpt>
      <trkpt lat="44.05206" lon="7.44372">
        <ele>2251.5</ele>
        <time>2017-08-27T12:00:27Z</time>
      </trkpt>
      <trkpt lat="44.05209" lon="7.4437">
        <ele>2250.9</ele>
        <time>2017-08-27T12:00:33Z</time>
      </trkpt>
      <trkpt lat="44.0521" lon="7.44368">
        <ele>2250.6</ele>
        <time>2017-08-27T12:00:35Z</time>
      </trkpt>
      <trkpt lat="44.05211" lon="7.44349">
        <ele>2251</ele>
        <time>2017-08-27T12:00:50Z</time>
      </trkpt>
      <trkpt lat="44.05209" lon="7.44339">
        <ele>2252</ele>
        <time>2017-08-27T12:01:07Z</time>
      </trkpt>
      <trkpt lat="44.05201" lon="7.44328">
        <ele>2253.9</ele>
        <time>2017-08-27T12:01:24Z</time>
      </trkpt>
      <trkpt lat="44.052" lon="7.44319">
        <ele>2254.9</ele>
        <time>2017-08-27T12:01:40Z</time>
      </trkpt>
      <trkpt lat="44.05203" lon="7.44306">
        <ele>2256</ele>
        <time>2017-08-27T12:01:55Z</time>
      </trkpt>
      <trkpt lat="44.052" lon="7.44292">
        <ele>2258.8</ele>
        <time>2017-08-27T12:02:10Z</time>
      </trkpt>
      <trkpt lat="44.05198" lon="7.44283">
        <ele>2260.7</ele>
        <time>2017-08-27T12:02:26Z</time>
      </trkpt>
      <trkpt lat="44.05191" lon="7.44277">
        <ele>2262.1</ele>
        <time>2017-08-27T12:02:41Z</time>
      </trkpt>
      <trkpt lat="44.05187" lon="7.44272">
        <ele>2262.8</ele>
        <time>2017-08-27T12:02:56Z</time>
      </trkpt>
      <trkpt lat="44.0518" lon="7.44261">
        <ele>2264.1</ele>
        <time>2017-08-27T12:03:12Z</time>
      </trkpt>
      <trkpt lat="44.05174" lon="7.44253">
        <ele>2264.9</ele>
        <time>2017-08-27T12:03:27Z</time>
      </trkpt>
      <trkpt lat="44.05171" lon="7.44245">
        <ele>2265.4</ele>
        <time>2017-08-27T12:03:40Z</time>
      </trkpt>
      <trkpt lat="44.05169" lon="7.44233">
        <ele>2265.8</ele>
        <time>2017-08-27T12:03:54Z</time>
      </trkpt>
      <trkpt lat="44.05169" lon="7.44226">
        <ele>2266.1</ele>
        <time>2017-08-27T12:04:01Z</time>
      </trkpt>
      <trkpt lat="44.05169" lon="7.44224">
        <ele>2266.2</ele>
        <time>2017-08-27T12:04:03Z</time>
      </trkpt>
      <trkpt lat="44.05169" lon="7.44218">
        <ele>2266.6</ele>
        <time>2017-08-27T12:04:07Z</time>
      </trkpt>
      <trkpt lat="44.05171" lon="7.44211">
        <ele>2267.3</ele>
        <time>2017-08-27T12:04:22Z</time>
      </trkpt>
      <trkpt lat="44.05178" lon="7.44199">
        <ele>2269.2</ele>
        <time>2017-08-27T12:04:37Z</time>
      </trkpt>
      <trkpt lat="44.05182" lon="7.44182">
        <ele>2271.4</ele>
        <time>2017-08-27T12:04:53Z</time>
      </trkpt>
      <trkpt lat="44.0518" lon="7.44167">
        <ele>2272.4</ele>
        <time>2017-08-27T12:05:06Z</time>
      </trkpt>
      <trkpt lat="44.05175" lon="7.44155">
        <ele>2272.3</ele>
        <time>2017-08-27T12:05:22Z</time>
      </trkpt>
      <trkpt lat="44.05172" lon="7.44142">
        <ele>2272.7</ele>
        <time>2017-08-27T12:05:36Z</time>
      </trkpt>
      <trkpt lat="44.0517" lon="7.44135">
        <ele>2272.9</ele>
        <time>2017-08-27T12:05:51Z</time>
      </trkpt>
      <trkpt lat="44.0517" lon="7.44128">
        <ele>2273.4</ele>
        <time>2017-08-27T12:05:57Z</time>
      </trkpt>
      <trkpt lat="44.05171" lon="7.44116">
        <ele>2274.6</ele>
        <time>2017-08-27T12:06:10Z</time>
      </trkpt>
      <trkpt lat="44.05171" lon="7.44115">
        <ele>2274.6</ele>
        <time>2017-08-27T12:06:11Z</time>
      </trkpt>
      <trkpt lat="44.05172" lon="7.44099">
        <ele>2276.4</ele>
        <time>2017-08-27T12:06:25Z</time>
      </trkpt>
      <trkpt lat="44.05168" lon="7.44083">
        <ele>2277.3</ele>
        <time>2017-08-27T12:06:38Z</time>
      </trkpt>
      <trkpt lat="44.0517" lon="7.44076">
        <ele>2278.4</ele>
        <time>2017-08-27T12:06:43Z</time>
      </trkpt>
      <trkpt lat="44.05166" lon="7.44058">
        <ele>2279.7</ele>
        <time>2017-08-27T12:06:58Z</time>
      </trkpt>
      <trkpt lat="44.05155" lon="7.44051">
        <ele>2279.3</ele>
        <time>2017-08-27T12:07:11Z</time>
      </trkpt>
      <trkpt lat="44.05153" lon="7.44047">
        <ele>2279.6</ele>
        <time>2017-08-27T12:07:23Z</time>
      </trkpt>
      <trkpt lat="44.0515" lon="7.4404">
        <ele>2280.2</ele>
        <time>2017-08-27T12:07:39Z</time>
      </trkpt>
      <trkpt lat="44.05149" lon="7.44028">
        <ele>2281.7</ele>
        <time>2017-08-27T12:07:53Z</time>
      </trkpt>
      <trkpt lat="44.05144" lon="7.44026">
        <ele>2281.4</ele>
        <time>2017-08-27T12:08:07Z</time>
      </trkpt>
      <trkpt lat="44.05142" lon="7.44022">
        <ele>2281.5</ele>
        <time>2017-08-27T12:08:22Z</time>
      </trkpt>
      <trkpt lat="44.05143" lon="7.44015">
        <ele>2281.8</ele>
        <time>2017-08-27T12:08:30Z</time>
      </trkpt>
      <trkpt lat="44.05144" lon="7.44001">
        <ele>2282.5</ele>
        <time>2017-08-27T12:08:45Z</time>
      </trkpt>
      <trkpt lat="44.05143" lon="7.43994">
        <ele>2282.3</ele>
        <time>2017-08-27T12:08:52Z</time>
      </trkpt>
      <trkpt lat="44.05127" lon="7.43978">
        <ele>2279.1</ele>
        <time>2017-08-27T12:09:09Z</time>
      </trkpt>
      <trkpt lat="44.05126" lon="7.43977">
        <ele>2278.9</ele>
        <time>2017-08-27T12:09:11Z</time>
      </trkpt>
      <trkpt lat="44.05123" lon="7.43971">
        <ele>2278.1</ele>
        <time>2017-08-27T12:09:23Z</time>
      </trkpt>
      <trkpt lat="44.05118" lon="7.43961">
        <ele>2276.9</ele>
        <time>2017-08-27T12:09:37Z</time>
      </trkpt>
      <trkpt lat="44.0512" lon="7.43958">
        <ele>2277.3</ele>
        <time>2017-08-27T12:09:40Z</time>
      </trkpt>
      <trkpt lat="44.05127" lon="7.43947">
        <ele>2278.5</ele>
        <time>2017-08-27T12:09:55Z</time>
      </trkpt>
      <trkpt lat="44.0513" lon="7.43942">
        <ele>2279.1</ele>
        <time>2017-08-27T12:09:59Z</time>
      </trkpt>
      <trkpt lat="44.05129" lon="7.43925">
        <ele>2278.9</ele>
        <time>2017-08-27T12:10:13Z</time>
      </trkpt>
      <trkpt lat="44.05138" lon="7.43906">
        <ele>2280.8</ele>
        <time>2017-08-27T12:10:29Z</time>
      </trkpt>
      <trkpt lat="44.05138" lon="7.43905">
        <ele>2280.8</ele>
        <time>2017-08-27T12:10:30Z</time>
      </trkpt>
      <trkpt lat="44.05142" lon="7.43881">
        <ele>2281.9</ele>
        <time>2017-08-27T12:10:46Z</time>
      </trkpt>
      <trkpt lat="44.05136" lon="7.43868">
        <ele>2280.3</ele>
        <time>2017-08-27T12:10:59Z</time>
      </trkpt>
      <trkpt lat="44.05135" lon="7.43859">
        <ele>2280.1</ele>
        <time>2017-08-27T12:11:12Z</time>
      </trkpt>
      <trkpt lat="44.05133" lon="7.43843">
        <ele>2280</ele>
        <time>2017-08-27T12:11:28Z</time>
      </trkpt>
      <trkpt lat="44.05136" lon="7.43821">
        <ele>2281.7</ele>
        <time>2017-08-27T12:11:46Z</time>
      </trkpt>
      <trkpt lat="44.05137" lon="7.43802">
        <ele>2282.9</ele>
        <time>2017-08-27T12:12:03Z</time>
      </trkpt>
      <trkpt lat="44.05137" lon="7.4378">
        <ele>2285.4</ele>
        <time>2017-08-27T12:12:20Z</time>
      </trkpt>
      <trkpt lat="44.05134" lon="7.43761">
        <ele>2287.9</ele>
        <time>2017-08-27T12:12:34Z</time>
      </trkpt>
      <trkpt lat="44.0513" lon="7.43753">
        <ele>2288.8</ele>
        <time>2017-08-27T12:12:47Z</time>
      </trkpt>
      <trkpt lat="44.05129" lon="7.43752">
        <ele>2288.9</ele>
        <time>2017-08-27T12:12:48Z</time>
      </trkpt>
      <trkpt lat="44.05125" lon="7.43747">
        <ele>2289.8</ele>
        <time>2017-08-27T12:13:02Z</time>
      </trkpt>
      <trkpt lat="44.05124" lon="7.43741">
        <ele>2291.2</ele>
        <time>2017-08-27T12:13:20Z</time>
      </trkpt>
      <trkpt lat="44.05128" lon="7.43731">
        <ele>2293.9</ele>
        <time>2017-08-27T12:13:36Z</time>
      </trkpt>
      <trkpt lat="44.05124" lon="7.43717">
        <ele>2297.1</ele>
        <time>2017-08-27T12:13:52Z</time>
      </trkpt>
      <trkpt lat="44.05123" lon="7.43717">
        <ele>2297.2</ele>
        <time>2017-08-27T12:14:08Z</time>
      </trkpt>
      <trkpt lat="44.05118" lon="7.4371">
        <ele>2298.9</ele>
        <time>2017-08-27T12:14:24Z</time>
      </trkpt>
      <trkpt lat="44.05115" lon="7.43704">
        <ele>2300.4</ele>
        <time>2017-08-27T12:14:37Z</time>
      </trkpt>
      <trkpt lat="44.05116" lon="7.43694">
        <ele>2302.8</ele>
        <time>2017-08-27T12:14:51Z</time>
      </trkpt>
      <trkpt lat="44.05112" lon="7.43685">
        <ele>2305.3</ele>
        <time>2017-08-27T12:15:04Z</time>
      </trkpt>
      <trkpt lat="44.05111" lon="7.43684">
        <ele>2305.6</ele>
        <time>2017-08-27T12:15:21Z</time>
      </trkpt>
      <trkpt lat="44.05112" lon="7.43678">
        <ele>2307</ele>
        <time>2017-08-27T12:15:35Z</time>
      </trkpt>
      <trkpt lat="44.0511" lon="7.43675">
        <ele>2308</ele>
        <time>2017-08-27T12:15:37Z</time>
      </trkpt>
      <trkpt lat="44.05109" lon="7.43668">
        <ele>2309.9</ele>
        <time>2017-08-27T12:15:43Z</time>
      </trkpt>
      <trkpt lat="44.05108" lon="7.43667">
        <ele>2310.3</ele>
        <time>2017-08-27T12:15:45Z</time>
      </trkpt>
      <trkpt lat="44.05102" lon="7.43656">
        <ele>2313</ele>
        <time>2017-08-27T12:16:03Z</time>
      </trkpt>
      <trkpt lat="44.05098" lon="7.43644">
        <ele>2315.9</ele>
        <time>2017-08-27T12:16:18Z</time>
      </trkpt>
      <trkpt lat="44.05098" lon="7.43634">
        <ele>2317.7</ele>
        <time>2017-08-27T12:16:34Z</time>
      </trkpt>
      <trkpt lat="44.05087" lon="7.43622">
        <ele>2321</ele>
        <time>2017-08-27T12:16:50Z</time>
      </trkpt>
      <trkpt lat="44.05082" lon="7.43608">
        <ele>2323.3</ele>
        <time>2017-08-27T12:17:04Z</time>
      </trkpt>
      <trkpt lat="44.05076" lon="7.43605">
        <ele>2324.2</ele>
        <time>2017-08-27T12:17:12Z</time>
      </trkpt>
      <trkpt lat="44.05067" lon="7.43601">
        <ele>2325.8</ele>
        <time>2017-08-27T12:17:27Z</time>
      </trkpt>
      <trkpt lat="44.05062" lon="7.43592">
        <ele>2327.6</ele>
        <time>2017-08-27T12:17:41Z</time>
      </trkpt>
      <trkpt lat="44.05057" lon="7.43584">
        <ele>2329.6</ele>
        <time>2017-08-27T12:17:56Z</time>
      </trkpt>
      <trkpt lat="44.05051" lon="7.43576">
        <ele>2331.7</ele>
        <time>2017-08-27T12:18:11Z</time>
      </trkpt>
      <trkpt lat="44.05046" lon="7.4358">
        <ele>2332.2</ele>
        <time>2017-08-27T12:18:27Z</time>
      </trkpt>
      <trkpt lat="44.0504" lon="7.4357">
        <ele>2334.8</ele>
        <time>2017-08-27T12:18:42Z</time>
      </trkpt>
      <trkpt lat="44.0504" lon="7.43564">
        <ele>2335.7</ele>
        <time>2017-08-27T12:18:52Z</time>
      </trkpt>
      <trkpt lat="44.05041" lon="7.43551">
        <ele>2337</ele>
        <time>2017-08-27T12:19:06Z</time>
      </trkpt>
      <trkpt lat="44.05043" lon="7.43545">
        <ele>2336.9</ele>
        <time>2017-08-27T12:19:20Z</time>
      </trkpt>
      <trkpt lat="44.05036" lon="7.43538">
        <ele>2339.2</ele>
        <time>2017-08-27T12:19:33Z</time>
      </trkpt>
      <trkpt lat="44.05034" lon="7.43524">
        <ele>2340.6</ele>
        <time>2017-08-27T12:19:49Z</time>
      </trkpt>
      <trkpt lat="44.05032" lon="7.43512">
        <ele>2341.7</ele>
        <time>2017-08-27T12:20:06Z</time>
      </trkpt>
      <trkpt lat="44.05027" lon="7.43507">
        <ele>2342.9</ele>
        <time>2017-08-27T12:20:19Z</time>
      </trkpt>
      <trkpt lat="44.05028" lon="7.43497">
        <ele>2343.1</ele>
        <time>2017-08-27T12:20:34Z</time>
      </trkpt>
      <trkpt lat="44.05028" lon="7.43479">
        <ele>2343.7</ele>
        <time>2017-08-27T12:20:50Z</time>
      </trkpt>
      <trkpt lat="44.05025" lon="7.43458">
        <ele>2345.5</ele>
        <time>2017-08-27T12:21:06Z</time>
      </trkpt>
      <trkpt lat="44.05023" lon="7.43448">
        <ele>2346.5</ele>
        <time>2017-08-27T12:21:21Z</time>
      </trkpt>
      <trkpt lat="44.05024" lon="7.43436">
        <ele>2347.4</ele>
        <time>2017-08-27T12:21:35Z</time>
      </trkpt>
      <trkpt lat="44.05023" lon="7.43421">
        <ele>2349.1</ele>
        <time>2017-08-27T12:21:50Z</time>
      </trkpt>
      <trkpt lat="44.05021" lon="7.43407">
        <ele>2351</ele>
        <time>2017-08-27T12:22:06Z</time>
      </trkpt>
      <trkpt lat="44.05016" lon="7.4339">
        <ele>2353.3</ele>
        <time>2017-08-27T12:22:22Z</time>
      </trkpt>
      <trkpt lat="44.05016" lon="7.43373">
        <ele>2356.4</ele>
        <time>2017-08-27T12:22:38Z</time>
      </trkpt>
      <trkpt lat="44.05016" lon="7.43362">
        <ele>2358.4</ele>
        <time>2017-08-27T12:22:54Z</time>
      </trkpt>
      <trkpt lat="44.05014" lon="7.43345">
        <ele>2362.3</ele>
        <time>2017-08-27T12:23:07Z</time>
      </trkpt>
      <trkpt lat="44.05001" lon="7.43343">
        <ele>2360.8</ele>
        <time>2017-08-27T12:23:23Z</time>
      </trkpt>
      <trkpt lat="44.04997" lon="7.43342">
        <ele>2360.8</ele>
        <time>2017-08-27T12:23:27Z</time>
      </trkpt>
      <trkpt lat="44.04986" lon="7.43335">
        <ele>2361.8</ele>
        <time>2017-08-27T12:23:40Z</time>
      </trkpt>
      <trkpt lat="44.04983" lon="7.43333">
        <ele>2362.1</ele>
        <time>2017-08-27T12:23:44Z</time>
      </trkpt>
      <trkpt lat="44.04973" lon="7.43339">
        <ele>2361.4</ele>
        <time>2017-08-27T12:24:00Z</time>
      </trkpt>
      <trkpt lat="44.04974" lon="7.43331">
        <ele>2362.5</ele>
        <time>2017-08-27T12:24:15Z</time>
      </trkpt>
      <trkpt lat="44.0497" lon="7.43315">
        <ele>2366.1</ele>
        <time>2017-08-27T12:24:30Z</time>
      </trkpt>
      <trkpt lat="44.04968" lon="7.43307">
        <ele>2367.8</ele>
        <time>2017-08-27T12:24:37Z</time>
      </trkpt>
      <trkpt lat="44.04965" lon="7.43295">
        <ele>2370.6</ele>
        <time>2017-08-27T12:24:47Z</time>
      </trkpt>
      <trkpt lat="44.04955" lon="7.43278">
        <ele>2373.7</ele>
        <time>2017-08-27T12:25:04Z</time>
      </trkpt>
      <trkpt lat="44.04949" lon="7.43265">
        <ele>2375.4</ele>
        <time>2017-08-27T12:25:19Z</time>
      </trkpt>
      <trkpt lat="44.04947" lon="7.4325">
        <ele>2377.5</ele>
        <time>2017-08-27T12:25:35Z</time>
      </trkpt>
      <trkpt lat="44.04946" lon="7.43234">
        <ele>2380.2</ele>
        <time>2017-08-27T12:25:52Z</time>
      </trkpt>
      <trkpt lat="44.04943" lon="7.43218">
        <ele>2383.1</ele>
        <time>2017-08-27T12:26:08Z</time>
      </trkpt>
      <trkpt lat="44.0494" lon="7.43199">
        <ele>2387.6</ele>
        <time>2017-08-27T12:26:25Z</time>
      </trkpt>
      <trkpt lat="44.04932" lon="7.43188">
        <ele>2389.6</ele>
        <time>2017-08-27T12:26:41Z</time>
      </trkpt>
      <trkpt lat="44.04927" lon="7.4317">
        <ele>2393.4</ele>
        <time>2017-08-27T12:26:58Z</time>
      </trkpt>
      <trkpt lat="44.04929" lon="7.43157">
        <ele>2396.3</ele>
        <time>2017-08-27T12:27:14Z</time>
      </trkpt>
      <trkpt lat="44.04934" lon="7.43145">
        <ele>2399.1</ele>
        <time>2017-08-27T12:27:30Z</time>
      </trkpt>
      <trkpt lat="44.04934" lon="7.43131">
        <ele>2401.3</ele>
        <time>2017-08-27T12:27:46Z</time>
      </trkpt>
      <trkpt lat="44.04933" lon="7.43124">
        <ele>2402.2</ele>
        <time>2017-08-27T12:28:00Z</time>
      </trkpt>
      <trkpt lat="44.04931" lon="7.43116">
        <ele>2403.3</ele>
        <time>2017-08-27T12:28:07Z</time>
      </trkpt>
      <trkpt lat="44.0493" lon="7.43104">
        <ele>2405</ele>
        <time>2017-08-27T12:28:23Z</time>
      </trkpt>
      <trkpt lat="44.04928" lon="7.43094">
        <ele>2406.5</ele>
        <time>2017-08-27T12:28:33Z</time>
      </trkpt>
      <trkpt lat="44.04921" lon="7.43073">
        <ele>2408.7</ele>
        <time>2017-08-27T12:28:54Z</time>
      </trkpt>
      <trkpt lat="44.04909" lon="7.43067">
        <ele>2410</ele>
        <time>2017-08-27T12:29:09Z</time>
      </trkpt>
      <trkpt lat="44.04892" lon="7.43069">
        <ele>2411.7</ele>
        <time>2017-08-27T12:29:25Z</time>
      </trkpt>
      <trkpt lat="44.04884" lon="7.43068">
        <ele>2413.1</ele>
        <time>2017-08-27T12:29:39Z</time>
      </trkpt>
      <trkpt lat="44.04871" lon="7.43066">
        <ele>2415.9</ele>
        <time>2017-08-27T12:29:53Z</time>
      </trkpt>
      <trkpt lat="44.04866" lon="7.43066">
        <ele>2416.9</ele>
        <time>2017-08-27T12:29:59Z</time>
      </trkpt>
      <trkpt lat="44.04853" lon="7.43066">
        <ele>2419.9</ele>
        <time>2017-08-27T12:30:12Z</time>
      </trkpt>
      <trkpt lat="44.04839" lon="7.43067">
        <ele>2423.3</ele>
        <time>2017-08-27T12:30:26Z</time>
      </trkpt>
      <trkpt lat="44.04835" lon="7.43064">
        <ele>2424.7</ele>
        <time>2017-08-27T12:30:32Z</time>
      </trkpt>
      <trkpt lat="44.0483" lon="7.43052">
        <ele>2426.8</ele>
        <time>2017-08-27T12:30:47Z</time>
      </trkpt>
      <trkpt lat="44.0482" lon="7.43051">
        <ele>2429</ele>
        <time>2017-08-27T12:31:00Z</time>
      </trkpt>
      <trkpt lat="44.0481" lon="7.43051">
        <ele>2431.1</ele>
        <time>2017-08-27T12:31:21Z</time>
      </trkpt>
      <trkpt lat="44.048" lon="7.43052">
        <ele>2432.8</ele>
        <time>2017-08-27T12:31:35Z</time>
      </trkpt>
      <trkpt lat="44.0479" lon="7.43043">
        <ele>2434</ele>
        <time>2017-08-27T12:31:49Z</time>
      </trkpt>
      <trkpt lat="44.04788" lon="7.43044">
        <ele>2434.3</ele>
        <time>2017-08-27T12:31:51Z</time>
      </trkpt>
      <trkpt lat="44.04785" lon="7.43044">
        <ele>2434.7</ele>
        <time>2017-08-27T12:31:55Z</time>
      </trkpt>
      <trkpt lat="44.04779" lon="7.43049">
        <ele>2435.6</ele>
        <time>2017-08-27T12:32:10Z</time>
      </trkpt>
      <trkpt lat="44.04774" lon="7.43048">
        <ele>2435</ele>
        <time>2017-08-27T12:32:25Z</time>
      </trkpt>
      <trkpt lat="44.04769" lon="7.43056">
        <ele>2434.4</ele>
        <time>2017-08-27T12:32:37Z</time>
      </trkpt>
      <trkpt lat="44.04763" lon="7.43065">
        <ele>2433.9</ele>
        <time>2017-08-27T12:32:47Z</time>
      </trkpt>
      <trkpt lat="44.04757" lon="7.4307">
        <ele>2433.2</ele>
        <time>2017-08-27T12:32:54Z</time>
      </trkpt>
      <trkpt lat="44.0475" lon="7.43078">
        <ele>2432.6</ele>
        <time>2017-08-27T12:33:09Z</time>
      </trkpt>
      <trkpt lat="44.0475" lon="7.43078">
        <ele>2432.6</ele>
        <time>2017-08-27T12:33:36Z</time>
      </trkpt>
      <trkpt lat="44.04751" lon="7.43078">
        <ele>2432.8</ele>
        <time>2017-08-27T12:34:17Z</time>
      </trkpt>
      <trkpt lat="44.0475" lon="7.43078">
        <ele>2432.6</ele>
        <time>2017-08-27T12:34:58Z</time>
      </trkpt>
      <trkpt lat="44.04751" lon="7.43078">
        <ele>2432.8</ele>
        <time>2017-08-27T12:35:44Z</time>
      </trkpt>
      <trkpt lat="44.04751" lon="7.43077">
        <ele>2432.7</ele>
        <time>2017-08-27T12:36:32Z</time>
      </trkpt>
      <trkpt lat="44.04751" lon="7.43077">
        <ele>2432.7</ele>
        <time>2017-08-27T12:37:29Z</time>
      </trkpt>
      <trkpt lat="44.04749" lon="7.43076">
        <ele>2432</ele>
        <time>2017-08-27T12:37:43Z</time>
      </trkpt>
      <trkpt lat="44.04741" lon="7.4308">
        <ele>2428.9</ele>
        <time>2017-08-27T12:37:57Z</time>
      </trkpt>
      <trkpt lat="44.04735" lon="7.4308">
        <ele>2426.4</ele>
        <time>2017-08-27T12:38:10Z</time>
      </trkpt>
      <trkpt lat="44.04732" lon="7.4308">
        <ele>2425.1</ele>
        <time>2017-08-27T12:38:15Z</time>
      </trkpt>
      <trkpt lat="44.04729" lon="7.43083">
        <ele>2424.6</ele>
        <time>2017-08-27T12:38:23Z</time>
      </trkpt>
      <trkpt lat="44.04725" lon="7.43075">
        <ele>2420.6</ele>
        <time>2017-08-27T12:38:35Z</time>
      </trkpt>
      <trkpt lat="44.04718" lon="7.43075">
        <ele>2416.5</ele>
        <time>2017-08-27T12:38:48Z</time>
      </trkpt>
      <trkpt lat="44.04717" lon="7.43071">
        <ele>2414.5</ele>
        <time>2017-08-27T12:39:02Z</time>
      </trkpt>
      <trkpt lat="44.04721" lon="7.43066">
        <ele>2415.5</ele>
        <time>2017-08-27T12:39:15Z</time>
      </trkpt>
      <trkpt lat="44.04723" lon="7.43059">
        <ele>2414.6</ele>
        <time>2017-08-27T12:39:29Z</time>
      </trkpt>
      <trkpt lat="44.04721" lon="7.43055">
        <ele>2412</ele>
        <time>2017-08-27T12:39:44Z</time>
      </trkpt>
      <trkpt lat="44.04722" lon="7.43054">
        <ele>2412.8</ele>
        <time>2017-08-27T12:40:01Z</time>
      </trkpt>
      <trkpt lat="44.04718" lon="7.4305">
        <ele>2409.4</ele>
        <time>2017-08-27T12:40:13Z</time>
      </trkpt>
      <trkpt lat="44.04715" lon="7.43054">
        <ele>2407.4</ele>
        <time>2017-08-27T12:40:18Z</time>
      </trkpt>
      <trkpt lat="44.04711" lon="7.43059">
        <ele>2405.8</ele>
        <time>2017-08-27T12:40:37Z</time>
      </trkpt>
      <trkpt lat="44.04703" lon="7.4306">
        <ele>2400.4</ele>
        <time>2017-08-27T12:40:51Z</time>
      </trkpt>
      <trkpt lat="44.047" lon="7.43056">
        <ele>2396.4</ele>
        <time>2017-08-27T12:41:03Z</time>
      </trkpt>
      <trkpt lat="44.04698" lon="7.43056">
        <ele>2394.9</ele>
        <time>2017-08-27T12:41:05Z</time>
      </trkpt>
      <trkpt lat="44.04693" lon="7.43061">
        <ele>2393.7</ele>
        <time>2017-08-27T12:41:11Z</time>
      </trkpt>
      <trkpt lat="44.0469" lon="7.43063">
        <ele>2392.9</ele>
        <time>2017-08-27T12:41:15Z</time>
      </trkpt>
      <trkpt lat="44.04675" lon="7.43074">
        <ele>2389.4</ele>
        <time>2017-08-27T12:41:32Z</time>
      </trkpt>
      <trkpt lat="44.04667" lon="7.43076">
        <ele>2385.8</ele>
        <time>2017-08-27T12:41:45Z</time>
      </trkpt>
      <trkpt lat="44.04657" lon="7.43088">
        <ele>2388.5</ele>
        <time>2017-08-27T12:41:59Z</time>
      </trkpt>
      <trkpt lat="44.04648" lon="7.43088">
        <ele>2385.1</ele>
        <time>2017-08-27T12:42:10Z</time>
      </trkpt>
      <trkpt lat="44.04644" lon="7.43085">
        <ele>2381.8</ele>
        <time>2017-08-27T12:42:18Z</time>
      </trkpt>
      <trkpt lat="44.04643" lon="7.43084">
        <ele>2380.9</ele>
        <time>2017-08-27T12:42:19Z</time>
      </trkpt>
      <trkpt lat="44.04638" lon="7.43082">
        <ele>2378.1</ele>
        <time>2017-08-27T12:42:24Z</time>
      </trkpt>
      <trkpt lat="44.04636" lon="7.4308">
        <ele>2376.5</ele>
        <time>2017-08-27T12:42:28Z</time>
      </trkpt>
      <trkpt lat="44.04631" lon="7.43077">
        <ele>2373.6</ele>
        <time>2017-08-27T12:42:36Z</time>
      </trkpt>
      <trkpt lat="44.0462" lon="7.43072">
        <ele>2368.1</ele>
        <time>2017-08-27T12:42:49Z</time>
      </trkpt>
      <trkpt lat="44.04618" lon="7.43072">
        <ele>2367.6</ele>
        <time>2017-08-27T12:42:51Z</time>
      </trkpt>
      <trkpt lat="44.04612" lon="7.43074">
        <ele>2366.9</ele>
        <time>2017-08-27T12:42:57Z</time>
      </trkpt>
      <trkpt lat="44.04608" lon="7.43076">
        <ele>2366.6</ele>
        <time>2017-08-27T12:43:02Z</time>
      </trkpt>
      <trkpt lat="44.04603" lon="7.43077">
        <ele>2365.5</ele>
        <time>2017-08-27T12:43:15Z</time>
      </trkpt>
      <trkpt lat="44.04603" lon="7.43077">
        <ele>2365.5</ele>
        <time>2017-08-27T12:43:38Z</time>
      </trkpt>
      <trkpt lat="44.04603" lon="7.43077">
        <ele>2365.5</ele>
        <time>2017-08-27T12:44:00Z</time>
      </trkpt>
      <trkpt lat="44.04594" lon="7.43074">
        <ele>2361.3</ele>
        <time>2017-08-27T12:44:10Z</time>
      </trkpt>
      <trkpt lat="44.04592" lon="7.43072">
        <ele>2359.8</ele>
        <time>2017-08-27T12:44:16Z</time>
      </trkpt>
      <trkpt lat="44.04582" lon="7.43071">
        <ele>2356.3</ele>
        <time>2017-08-27T12:44:30Z</time>
      </trkpt>
      <trkpt lat="44.0457" lon="7.43077">
        <ele>2355.6</ele>
        <time>2017-08-27T12:44:43Z</time>
      </trkpt>
      <trkpt lat="44.04565" lon="7.4308">
        <ele>2355.7</ele>
        <time>2017-08-27T12:44:55Z</time>
      </trkpt>
      <trkpt lat="44.04557" lon="7.43083">
        <ele>2355.2</ele>
        <time>2017-08-27T12:45:09Z</time>
      </trkpt>
      <trkpt lat="44.04552" lon="7.43086">
        <ele>2356</ele>
        <time>2017-08-27T12:45:19Z</time>
      </trkpt>
      <trkpt lat="44.04538" lon="7.43095">
        <ele>2357.8</ele>
        <time>2017-08-27T12:45:35Z</time>
      </trkpt>
      <trkpt lat="44.04529" lon="7.43096">
        <ele>2355.3</ele>
        <time>2017-08-27T12:45:48Z</time>
      </trkpt>
      <trkpt lat="44.04527" lon="7.43096">
        <ele>2354.6</ele>
        <time>2017-08-27T12:45:50Z</time>
      </trkpt>
      <trkpt lat="44.04522" lon="7.43095">
        <ele>2352.8</ele>
        <time>2017-08-27T12:46:02Z</time>
      </trkpt>
      <trkpt lat="44.04513" lon="7.43094">
        <ele>2349.8</ele>
        <time>2017-08-27T12:46:13Z</time>
      </trkpt>
      <trkpt lat="44.04506" lon="7.43092">
        <ele>2346.9</ele>
        <time>2017-08-27T12:46:26Z</time>
      </trkpt>
      <trkpt lat="44.04506" lon="7.43092">
        <ele>2346.9</ele>
        <time>2017-08-27T12:46:47Z</time>
      </trkpt>
      <trkpt lat="44.04501" lon="7.4309">
        <ele>2344.6</ele>
        <time>2017-08-27T12:47:05Z</time>
      </trkpt>
      <trkpt lat="44.04493" lon="7.43084">
        <ele>2339.3</ele>
        <time>2017-08-27T12:47:19Z</time>
      </trkpt>
      <trkpt lat="44.04484" lon="7.43082">
        <ele>2335.8</ele>
        <time>2017-08-27T12:47:32Z</time>
      </trkpt>
      <trkpt lat="44.04481" lon="7.43082">
        <ele>2334.9</ele>
        <time>2017-08-27T12:47:36Z</time>
      </trkpt>
      <trkpt lat="44.0448" lon="7.43082">
        <ele>2334.7</ele>
        <time>2017-08-27T12:47:37Z</time>
      </trkpt>
      <trkpt lat="44.04479" lon="7.43082">
        <ele>2334.4</ele>
        <time>2017-08-27T12:47:52Z</time>
      </trkpt>
      <trkpt lat="44.04471" lon="7.43083">
        <ele>2332.6</ele>
        <time>2017-08-27T12:48:05Z</time>
      </trkpt>
      <trkpt lat="44.04462" lon="7.43085">
        <ele>2331.7</ele>
        <time>2017-08-27T12:48:18Z</time>
      </trkpt>
      <trkpt lat="44.04452" lon="7.43086">
        <ele>2330.2</ele>
        <time>2017-08-27T12:48:33Z</time>
      </trkpt>
      <trkpt lat="44.04452" lon="7.43089">
        <ele>2331.9</ele>
        <time>2017-08-27T12:48:50Z</time>
      </trkpt>
      <trkpt lat="44.04456" lon="7.43093">
        <ele>2335</ele>
        <time>2017-08-27T12:49:15Z</time>
      </trkpt>
      <trkpt lat="44.04457" lon="7.43093">
        <ele>2335.2</ele>
        <time>2017-08-27T12:49:41Z</time>
      </trkpt>
      <trkpt lat="44.04456" lon="7.43093">
        <ele>2335</ele>
        <time>2017-08-27T12:50:04Z</time>
      </trkpt>
      <trkpt lat="44.04449" lon="7.43091">
        <ele>2332.5</ele>
        <time>2017-08-27T12:50:13Z</time>
      </trkpt>
      <trkpt lat="44.04435" lon="7.43087">
        <ele>2328.9</ele>
        <time>2017-08-27T12:50:27Z</time>
      </trkpt>
      <trkpt lat="44.04433" lon="7.43087">
        <ele>2328.8</ele>
        <time>2017-08-27T12:50:31Z</time>
      </trkpt>
      <trkpt lat="44.04431" lon="7.43084">
        <ele>2326.9</ele>
        <time>2017-08-27T12:50:34Z</time>
      </trkpt>
      <trkpt lat="44.04423" lon="7.43085">
        <ele>2327.2</ele>
        <time>2017-08-27T12:50:41Z</time>
      </trkpt>
      <trkpt lat="44.04418" lon="7.43082">
        <ele>2325.4</ele>
        <time>2017-08-27T12:50:49Z</time>
      </trkpt>
      <trkpt lat="44.04413" lon="7.43083">
        <ele>2326.2</ele>
        <time>2017-08-27T12:50:54Z</time>
      </trkpt>
      <trkpt lat="44.04403" lon="7.43076">
        <ele>2324</ele>
        <time>2017-08-27T12:51:07Z</time>
      </trkpt>
      <trkpt lat="44.04392" lon="7.43071">
        <ele>2322.9</ele>
        <time>2017-08-27T12:51:20Z</time>
      </trkpt>
      <trkpt lat="44.04386" lon="7.43071">
        <ele>2323.1</ele>
        <time>2017-08-27T12:51:27Z</time>
      </trkpt>
      <trkpt lat="44.04377" lon="7.43068">
        <ele>2321.1</ele>
        <time>2017-08-27T12:51:38Z</time>
      </trkpt>
      <trkpt lat="44.04375" lon="7.43066">
        <ele>2320</ele>
        <time>2017-08-27T12:51:40Z</time>
      </trkpt>
      <trkpt lat="44.04374" lon="7.43066">
        <ele>2319.9</ele>
        <time>2017-08-27T12:51:49Z</time>
      </trkpt>
      <trkpt lat="44.04372" lon="7.43066">
        <ele>2319.7</ele>
        <time>2017-08-27T12:51:51Z</time>
      </trkpt>
      <trkpt lat="44.04357" lon="7.4307">
        <ele>2321.5</ele>
        <time>2017-08-27T12:52:05Z</time>
      </trkpt>
      <trkpt lat="44.04348" lon="7.43067">
        <ele>2320</ele>
        <time>2017-08-27T12:52:11Z</time>
      </trkpt>
      <trkpt lat="44.04331" lon="7.43066">
        <ele>2319.7</ele>
        <time>2017-08-27T12:52:27Z</time>
      </trkpt>
      <trkpt lat="44.04329" lon="7.43065">
        <ele>2318.9</ele>
        <time>2017-08-27T12:52:30Z</time>
      </trkpt>
      <trkpt lat="44.04322" lon="7.43059">
        <ele>2314.8</ele>
        <time>2017-08-27T12:52:37Z</time>
      </trkpt>
      <trkpt lat="44.04318" lon="7.43055">
        <ele>2312.1</ele>
        <time>2017-08-27T12:52:50Z</time>
      </trkpt>
      <trkpt lat="44.043" lon="7.4305">
        <ele>2307.6</ele>
        <time>2017-08-27T12:53:06Z</time>
      </trkpt>
      <trkpt lat="44.04288" lon="7.43048">
        <ele>2304</ele>
        <time>2017-08-27T12:53:18Z</time>
      </trkpt>
      <trkpt lat="44.04284" lon="7.43045">
        <ele>2301.6</ele>
        <time>2017-08-27T12:53:22Z</time>
      </trkpt>
      <trkpt lat="44.04277" lon="7.43045">
        <ele>2300.2</ele>
        <time>2017-08-27T12:53:35Z</time>
      </trkpt>
      <trkpt lat="44.04263" lon="7.43042">
        <ele>2297.1</ele>
        <time>2017-08-27T12:53:49Z</time>
      </trkpt>
      <trkpt lat="44.04251" lon="7.43041">
        <ele>2295.3</ele>
        <time>2017-08-27T12:54:06Z</time>
      </trkpt>
      <trkpt lat="44.04249" lon="7.43033">
        <ele>2291.9</ele>
        <time>2017-08-27T12:54:18Z</time>
      </trkpt>
      <trkpt lat="44.04247" lon="7.43022">
        <ele>2287.9</ele>
        <time>2017-08-27T12:54:31Z</time>
      </trkpt>
      <trkpt lat="44.04247" lon="7.43022">
        <ele>2287.9</ele>
        <time>2017-08-27T12:54:36Z</time>
      </trkpt>
      <trkpt lat="44.04246" lon="7.43021">
        <ele>2287.4</ele>
        <time>2017-08-27T12:54:41Z</time>
      </trkpt>
      <trkpt lat="44.04246" lon="7.4301">
        <ele>2284.2</ele>
        <time>2017-08-27T12:54:54Z</time>
      </trkpt>
      <trkpt lat="44.04247" lon="7.43009">
        <ele>2284.1</ele>
        <time>2017-08-27T12:54:55Z</time>
      </trkpt>
      <trkpt lat="44.04242" lon="7.43002">
        <ele>2281.2</ele>
        <time>2017-08-27T12:55:07Z</time>
      </trkpt>
      <trkpt lat="44.04241" lon="7.42994">
        <ele>2279.3</ele>
        <time>2017-08-27T12:55:18Z</time>
      </trkpt>
      <trkpt lat="44.04238" lon="7.42987">
        <ele>2277.4</ele>
        <time>2017-08-27T12:55:29Z</time>
      </trkpt>
      <trkpt lat="44.04234" lon="7.42981">
        <ele>2275.2</ele>
        <time>2017-08-27T12:55:36Z</time>
      </trkpt>
      <trkpt lat="44.04231" lon="7.42979">
        <ele>2274</ele>
        <time>2017-08-27T12:55:40Z</time>
      </trkpt>
      <trkpt lat="44.04225" lon="7.42978">
        <ele>2272.2</ele>
        <time>2017-08-27T12:55:46Z</time>
      </trkpt>
      <trkpt lat="44.04223" lon="7.42973">
        <ele>2270.4</ele>
        <time>2017-08-27T12:55:50Z</time>
      </trkpt>
      <trkpt lat="44.04221" lon="7.42971">
        <ele>2269.6</ele>
        <time>2017-08-27T12:55:52Z</time>
      </trkpt>
      <trkpt lat="44.04214" lon="7.42959">
        <ele>2267.1</ele>
        <time>2017-08-27T12:56:05Z</time>
      </trkpt>
      <trkpt lat="44.04214" lon="7.42952">
        <ele>2266.4</ele>
        <time>2017-08-27T12:56:11Z</time>
      </trkpt>
      <trkpt lat="44.0421" lon="7.4295">
        <ele>2266.3</ele>
        <time>2017-08-27T12:56:14Z</time>
      </trkpt>
      <trkpt lat="44.04205" lon="7.42948">
        <ele>2266.3</ele>
        <time>2017-08-27T12:56:19Z</time>
      </trkpt>
      <trkpt lat="44.04195" lon="7.42949">
        <ele>2266.7</ele>
        <time>2017-08-27T12:56:32Z</time>
      </trkpt>
      <trkpt lat="44.04189" lon="7.42944">
        <ele>2266.2</ele>
        <time>2017-08-27T12:56:48Z</time>
      </trkpt>
      <trkpt lat="44.04187" lon="7.42939">
        <ele>2265.5</ele>
        <time>2017-08-27T12:57:07Z</time>
      </trkpt>
      <trkpt lat="44.04188" lon="7.42935">
        <ele>2265.4</ele>
        <time>2017-08-27T12:57:10Z</time>
      </trkpt>
      <trkpt lat="44.04188" lon="7.4293">
        <ele>2265</ele>
        <time>2017-08-27T12:57:13Z</time>
      </trkpt>
      <trkpt lat="44.04182" lon="7.42929">
        <ele>2264.1</ele>
        <time>2017-08-27T12:57:18Z</time>
      </trkpt>
      <trkpt lat="44.04179" lon="7.42921">
        <ele>2263.1</ele>
        <time>2017-08-27T12:57:25Z</time>
      </trkpt>
      <trkpt lat="44.04173" lon="7.42918">
        <ele>2262</ele>
        <time>2017-08-27T12:57:42Z</time>
      </trkpt>
      <trkpt lat="44.04174" lon="7.42919">
        <ele>2262.2</ele>
        <time>2017-08-27T12:58:02Z</time>
      </trkpt>
      <trkpt lat="44.04174" lon="7.42919">
        <ele>2262.2</ele>
        <time>2017-08-27T12:58:33Z</time>
      </trkpt>
      <trkpt lat="44.04169" lon="7.42917">
        <ele>2261.4</ele>
        <time>2017-08-27T12:58:51Z</time>
      </trkpt>
      <trkpt lat="44.04167" lon="7.42919">
        <ele>2261.2</ele>
        <time>2017-08-27T12:58:53Z</time>
      </trkpt>
      <trkpt lat="44.04164" lon="7.4292">
        <ele>2260.3</ele>
        <time>2017-08-27T12:58:58Z</time>
      </trkpt>
      <trkpt lat="44.04163" lon="7.42919">
        <ele>2259.8</ele>
        <time>2017-08-27T12:58:59Z</time>
      </trkpt>
      <trkpt lat="44.0416" lon="7.42916">
        <ele>2258.7</ele>
        <time>2017-08-27T12:59:03Z</time>
      </trkpt>
      <trkpt lat="44.04146" lon="7.4291">
        <ele>2253.7</ele>
        <time>2017-08-27T12:59:17Z</time>
      </trkpt>
      <trkpt lat="44.04137" lon="7.42903">
        <ele>2250.2</ele>
        <time>2017-08-27T12:59:32Z</time>
      </trkpt>
      <trkpt lat="44.04136" lon="7.42901">
        <ele>2249.7</ele>
        <time>2017-08-27T12:59:34Z</time>
      </trkpt>
      <trkpt lat="44.04127" lon="7.42903">
        <ele>2245.9</ele>
        <time>2017-08-27T12:59:46Z</time>
      </trkpt>
      <trkpt lat="44.04126" lon="7.429">
        <ele>2245.2</ele>
        <time>2017-08-27T12:59:50Z</time>
      </trkpt>
      <trkpt lat="44.04122" lon="7.42902">
        <ele>2243.6</ele>
        <time>2017-08-27T12:59:55Z</time>
      </trkpt>
      <trkpt lat="44.04117" lon="7.42901">
        <ele>2241.3</ele>
        <time>2017-08-27T13:00:02Z</time>
      </trkpt>
      <trkpt lat="44.04116" lon="7.429">
        <ele>2240.8</ele>
        <time>2017-08-27T13:00:06Z</time>
      </trkpt>
      <trkpt lat="44.04116" lon="7.429">
        <ele>2240.8</ele>
        <time>2017-08-27T13:00:24Z</time>
      </trkpt>
      <trkpt lat="44.04112" lon="7.42899">
        <ele>2238.9</ele>
        <time>2017-08-27T13:00:39Z</time>
      </trkpt>
      <trkpt lat="44.04104" lon="7.42901">
        <ele>2235.3</ele>
        <time>2017-08-27T13:00:51Z</time>
      </trkpt>
      <trkpt lat="44.04102" lon="7.42901">
        <ele>2234.3</ele>
        <time>2017-08-27T13:00:53Z</time>
      </trkpt>
      <trkpt lat="44.041" lon="7.42902">
        <ele>2233.5</ele>
        <time>2017-08-27T13:00:55Z</time>
      </trkpt>
      <trkpt lat="44.04098" lon="7.42902">
        <ele>2232.5</ele>
        <time>2017-08-27T13:00:57Z</time>
      </trkpt>
      <trkpt lat="44.04096" lon="7.42904">
        <ele>2231.8</ele>
        <time>2017-08-27T13:00:59Z</time>
      </trkpt>
      <trkpt lat="44.04094" lon="7.42908">
        <ele>2231.3</ele>
        <time>2017-08-27T13:01:06Z</time>
      </trkpt>
      <trkpt lat="44.04094" lon="7.4291">
        <ele>2231.6</ele>
        <time>2017-08-27T13:01:10Z</time>
      </trkpt>
      <trkpt lat="44.04084" lon="7.42909">
        <ele>2226.5</ele>
        <time>2017-08-27T13:01:25Z</time>
      </trkpt>
      <trkpt lat="44.04079" lon="7.42911">
        <ele>2224.6</ele>
        <time>2017-08-27T13:01:37Z</time>
      </trkpt>
      <trkpt lat="44.04075" lon="7.42908">
        <ele>2222.7</ele>
        <time>2017-08-27T13:01:43Z</time>
      </trkpt>
      <trkpt lat="44.04072" lon="7.42912">
        <ele>2221.7</ele>
        <time>2017-08-27T13:01:48Z</time>
      </trkpt>
      <trkpt lat="44.04068" lon="7.42915">
        <ele>2220.3</ele>
        <time>2017-08-27T13:02:01Z</time>
      </trkpt>
      <trkpt lat="44.04056" lon="7.42912">
        <ele>2215</ele>
        <time>2017-08-27T13:02:16Z</time>
      </trkpt>
      <trkpt lat="44.04054" lon="7.42913">
        <ele>2214.3</ele>
        <time>2017-08-27T13:02:20Z</time>
      </trkpt>
      <trkpt lat="44.04053" lon="7.42917">
        <ele>2214</ele>
        <time>2017-08-27T13:02:23Z</time>
      </trkpt>
      <trkpt lat="44.04043" lon="7.42913">
        <ele>2210.2</ele>
        <time>2017-08-27T13:02:35Z</time>
      </trkpt>
      <trkpt lat="44.04041" lon="7.42913">
        <ele>2209.4</ele>
        <time>2017-08-27T13:02:49Z</time>
      </trkpt>
      <trkpt lat="44.04041" lon="7.42913">
        <ele>2209.4</ele>
        <time>2017-08-27T13:03:22Z</time>
      </trkpt>
      <trkpt lat="44.04031" lon="7.42911">
        <ele>2205.4</ele>
        <time>2017-08-27T13:03:36Z</time>
      </trkpt>
      <trkpt lat="44.04029" lon="7.4291">
        <ele>2204.5</ele>
        <time>2017-08-27T13:03:39Z</time>
      </trkpt>
      <trkpt lat="44.04029" lon="7.42896">
        <ele>2202.6</ele>
        <time>2017-08-27T13:03:54Z</time>
      </trkpt>
      <trkpt lat="44.0403" lon="7.42882">
        <ele>2201.3</ele>
        <time>2017-08-27T13:04:07Z</time>
      </trkpt>
      <trkpt lat="44.0403" lon="7.42878">
        <ele>2200.9</ele>
        <time>2017-08-27T13:04:10Z</time>
      </trkpt>
      <trkpt lat="44.04022" lon="7.42872">
        <ele>2196.8</ele>
        <time>2017-08-27T13:04:19Z</time>
      </trkpt>
      <trkpt lat="44.04022" lon="7.42871">
        <ele>2196.7</ele>
        <time>2017-08-27T13:04:20Z</time>
      </trkpt>
      <trkpt lat="44.04022" lon="7.42865">
        <ele>2196.2</ele>
        <time>2017-08-27T13:04:25Z</time>
      </trkpt>
      <trkpt lat="44.0402" lon="7.42865">
        <ele>2195.5</ele>
        <time>2017-08-27T13:04:28Z</time>
      </trkpt>
      <trkpt lat="44.04012" lon="7.42871">
        <ele>2192.6</ele>
        <time>2017-08-27T13:04:40Z</time>
      </trkpt>
      <trkpt lat="44.04006" lon="7.42878">
        <ele>2190.1</ele>
        <time>2017-08-27T13:04:53Z</time>
      </trkpt>
      <trkpt lat="44.04002" lon="7.42884">
        <ele>2188.1</ele>
        <time>2017-08-27T13:05:04Z</time>
      </trkpt>
      <trkpt lat="44.03996" lon="7.42892">
        <ele>2186.1</ele>
        <time>2017-08-27T13:05:13Z</time>
      </trkpt>
      <trkpt lat="44.03992" lon="7.42896">
        <ele>2185.1</ele>
        <time>2017-08-27T13:05:17Z</time>
      </trkpt>
      <trkpt lat="44.03984" lon="7.429">
        <ele>2182.3</ele>
        <time>2017-08-27T13:05:30Z</time>
      </trkpt>
      <trkpt lat="44.0398" lon="7.42902">
        <ele>2180.8</ele>
        <time>2017-08-27T13:05:44Z</time>
      </trkpt>
      <trkpt lat="44.03977" lon="7.42902">
        <ele>2179.5</ele>
        <time>2017-08-27T13:06:10Z</time>
      </trkpt>
      <trkpt lat="44.03973" lon="7.42907">
        <ele>2178</ele>
        <time>2017-08-27T13:06:16Z</time>
      </trkpt>
      <trkpt lat="44.03967" lon="7.4291">
        <ele>2175.5</ele>
        <time>2017-08-27T13:06:24Z</time>
      </trkpt>
      <trkpt lat="44.03965" lon="7.42908">
        <ele>2174.7</ele>
        <time>2017-08-27T13:06:28Z</time>
      </trkpt>
      <trkpt lat="44.03957" lon="7.42912">
        <ele>2171.2</ele>
        <time>2017-08-27T13:06:39Z</time>
      </trkpt>
      <trkpt lat="44.03951" lon="7.42924">
        <ele>2169.7</ele>
        <time>2017-08-27T13:06:52Z</time>
      </trkpt>
      <trkpt lat="44.03948" lon="7.42924">
        <ele>2168.3</ele>
        <time>2017-08-27T13:06:55Z</time>
      </trkpt>
      <trkpt lat="44.03938" lon="7.42933">
        <ele>2164.9</ele>
        <time>2017-08-27T13:07:10Z</time>
      </trkpt>
      <trkpt lat="44.03931" lon="7.42939">
        <ele>2162.2</ele>
        <time>2017-08-27T13:07:22Z</time>
      </trkpt>
      <trkpt lat="44.03929" lon="7.42939">
        <ele>2161</ele>
        <time>2017-08-27T13:07:28Z</time>
      </trkpt>
      <trkpt lat="44.03926" lon="7.42939">
        <ele>2159.3</ele>
        <time>2017-08-27T13:07:32Z</time>
      </trkpt>
      <trkpt lat="44.03925" lon="7.4294">
        <ele>2159</ele>
        <time>2017-08-27T13:07:33Z</time>
      </trkpt>
      <trkpt lat="44.03919" lon="7.42942">
        <ele>2155.9</ele>
        <time>2017-08-27T13:07:38Z</time>
      </trkpt>
      <trkpt lat="44.03917" lon="7.42945">
        <ele>2155.4</ele>
        <time>2017-08-27T13:07:42Z</time>
      </trkpt>
      <trkpt lat="44.03909" lon="7.4295">
        <ele>2152.9</ele>
        <time>2017-08-27T13:07:49Z</time>
      </trkpt>
      <trkpt lat="44.03903" lon="7.42955">
        <ele>2151.5</ele>
        <time>2017-08-27T13:07:55Z</time>
      </trkpt>
      <trkpt lat="44.03899" lon="7.42956">
        <ele>2149.8</ele>
        <time>2017-08-27T13:07:59Z</time>
      </trkpt>
      <trkpt lat="44.03894" lon="7.42961">
        <ele>2148.9</ele>
        <time>2017-08-27T13:08:05Z</time>
      </trkpt>
      <trkpt lat="44.03893" lon="7.42957">
        <ele>2147.1</ele>
        <time>2017-08-27T13:08:12Z</time>
      </trkpt>
      <trkpt lat="44.03898" lon="7.42953">
        <ele>2148.4</ele>
        <time>2017-08-27T13:08:27Z</time>
      </trkpt>
      <trkpt lat="44.03898" lon="7.42953">
        <ele>2148.4</ele>
        <time>2017-08-27T13:09:08Z</time>
      </trkpt>
      <trkpt lat="44.039" lon="7.42948">
        <ele>2147.8</ele>
        <time>2017-08-27T13:09:45Z</time>
      </trkpt>
      <trkpt lat="44.03905" lon="7.42935">
        <ele>2147</ele>
        <time>2017-08-27T13:09:58Z</time>
      </trkpt>
      <trkpt lat="44.03905" lon="7.42932">
        <ele>2146.3</ele>
        <time>2017-08-27T13:10:01Z</time>
      </trkpt>
      <trkpt lat="44.03907" lon="7.42919">
        <ele>2144.6</ele>
        <time>2017-08-27T13:10:15Z</time>
      </trkpt>
      <trkpt lat="44.03906" lon="7.42916">
        <ele>2143.6</ele>
        <time>2017-08-27T13:10:18Z</time>
      </trkpt>
      <trkpt lat="44.03903" lon="7.42899">
        <ele>2144.8</ele>
        <time>2017-08-27T13:10:32Z</time>
      </trkpt>
      <trkpt lat="44.039" lon="7.42896">
        <ele>2143.7</ele>
        <time>2017-08-27T13:10:36Z</time>
      </trkpt>
      <trkpt lat="44.0389" lon="7.42889">
        <ele>2139.6</ele>
        <time>2017-08-27T13:10:46Z</time>
      </trkpt>
      <trkpt lat="44.03883" lon="7.42887">
        <ele>2138.2</ele>
        <time>2017-08-27T13:11:01Z</time>
      </trkpt>
      <trkpt lat="44.03881" lon="7.42886">
        <ele>2138.1</ele>
        <time>2017-08-27T13:11:03Z</time>
      </trkpt>
      <trkpt lat="44.03877" lon="7.42886">
        <ele>2136.9</ele>
        <time>2017-08-27T13:11:07Z</time>
      </trkpt>
      <trkpt lat="44.03859" lon="7.42876">
        <ele>2135.6</ele>
        <time>2017-08-27T13:11:24Z</time>
      </trkpt>
      <trkpt lat="44.03853" lon="7.42872">
        <ele>2134.5</ele>
        <time>2017-08-27T13:11:31Z</time>
      </trkpt>
      <trkpt lat="44.03836" lon="7.42858">
        <ele>2130.4</ele>
        <time>2017-08-27T13:11:49Z</time>
      </trkpt>
      <trkpt lat="44.03826" lon="7.42852">
        <ele>2126.6</ele>
        <time>2017-08-27T13:12:02Z</time>
      </trkpt>
      <trkpt lat="44.03817" lon="7.42841">
        <ele>2123.9</ele>
        <time>2017-08-27T13:12:15Z</time>
      </trkpt>
      <trkpt lat="44.0381" lon="7.42834">
        <ele>2120.8</ele>
        <time>2017-08-27T13:12:28Z</time>
      </trkpt>
      <trkpt lat="44.03809" lon="7.42834">
        <ele>2120.1</ele>
        <time>2017-08-27T13:12:29Z</time>
      </trkpt>
      <trkpt lat="44.03806" lon="7.42832">
        <ele>2118.6</ele>
        <time>2017-08-27T13:12:33Z</time>
      </trkpt>
      <trkpt lat="44.03796" lon="7.42818">
        <ele>2115.5</ele>
        <time>2017-08-27T13:12:46Z</time>
      </trkpt>
      <trkpt lat="44.03787" lon="7.42811">
        <ele>2111.5</ele>
        <time>2017-08-27T13:12:55Z</time>
      </trkpt>
      <trkpt lat="44.03783" lon="7.42807">
        <ele>2110</ele>
        <time>2017-08-27T13:12:59Z</time>
      </trkpt>
      <trkpt lat="44.03769" lon="7.4279">
        <ele>2107.6</ele>
        <time>2017-08-27T13:13:16Z</time>
      </trkpt>
      <trkpt lat="44.03757" lon="7.42776">
        <ele>2105.1</ele>
        <time>2017-08-27T13:13:31Z</time>
      </trkpt>
      <trkpt lat="44.03746" lon="7.42764">
        <ele>2102.2</ele>
        <time>2017-08-27T13:13:45Z</time>
      </trkpt>
      <trkpt lat="44.03739" lon="7.4275">
        <ele>2102.3</ele>
        <time>2017-08-27T13:13:57Z</time>
      </trkpt>
      <trkpt lat="44.03729" lon="7.42744">
        <ele>2098</ele>
        <time>2017-08-27T13:14:08Z</time>
      </trkpt>
      <trkpt lat="44.03727" lon="7.42742">
        <ele>2097.5</ele>
        <time>2017-08-27T13:14:15Z</time>
      </trkpt>
      <trkpt lat="44.03725" lon="7.42739">
        <ele>2097.2</ele>
        <time>2017-08-27T13:14:18Z</time>
      </trkpt>
      <trkpt lat="44.03721" lon="7.42736">
        <ele>2096</ele>
        <time>2017-08-27T13:14:21Z</time>
      </trkpt>
      <trkpt lat="44.03716" lon="7.42731">
        <ele>2095.1</ele>
        <time>2017-08-27T13:14:26Z</time>
      </trkpt>
      <trkpt lat="44.03713" lon="7.42728">
        <ele>2094.4</ele>
        <time>2017-08-27T13:14:30Z</time>
      </trkpt>
      <trkpt lat="44.03704" lon="7.42725">
        <ele>2090.5</ele>
        <time>2017-08-27T13:14:44Z</time>
      </trkpt>
      <trkpt lat="44.03704" lon="7.42725">
        <ele>2090.5</ele>
        <time>2017-08-27T13:15:07Z</time>
      </trkpt>
      <trkpt lat="44.03703" lon="7.42724">
        <ele>2090.2</ele>
        <time>2017-08-27T13:15:26Z</time>
      </trkpt>
      <trkpt lat="44.03703" lon="7.42722">
        <ele>2090.7</ele>
        <time>2017-08-27T13:15:29Z</time>
      </trkpt>
      <trkpt lat="44.03703" lon="7.42717">
        <ele>2092.4</ele>
        <time>2017-08-27T13:15:32Z</time>
      </trkpt>
      <trkpt lat="44.03693" lon="7.42696">
        <ele>2093</ele>
        <time>2017-08-27T13:15:47Z</time>
      </trkpt>
      <trkpt lat="44.03692" lon="7.42696">
        <ele>2092.6</ele>
        <time>2017-08-27T13:15:48Z</time>
      </trkpt>
      <trkpt lat="44.03682" lon="7.42698">
        <ele>2087.9</ele>
        <time>2017-08-27T13:15:55Z</time>
      </trkpt>
      <trkpt lat="44.03667" lon="7.42691">
        <ele>2084.5</ele>
        <time>2017-08-27T13:16:08Z</time>
      </trkpt>
      <trkpt lat="44.03663" lon="7.42689">
        <ele>2084</ele>
        <time>2017-08-27T13:16:12Z</time>
      </trkpt>
      <trkpt lat="44.03643" lon="7.42685">
        <ele>2079.7</ele>
        <time>2017-08-27T13:16:28Z</time>
      </trkpt>
      <trkpt lat="44.03639" lon="7.42685">
        <ele>2078.5</ele>
        <time>2017-08-27T13:16:31Z</time>
      </trkpt>
      <trkpt lat="44.0363" lon="7.42687">
        <ele>2075.2</ele>
        <time>2017-08-27T13:16:39Z</time>
      </trkpt>
      <trkpt lat="44.03624" lon="7.42687">
        <ele>2073.7</ele>
        <time>2017-08-27T13:16:44Z</time>
      </trkpt>
      <trkpt lat="44.03623" lon="7.42688">
        <ele>2073</ele>
        <time>2017-08-27T13:16:45Z</time>
      </trkpt>
      <trkpt lat="44.03608" lon="7.42686">
        <ele>2070</ele>
        <time>2017-08-27T13:16:58Z</time>
      </trkpt>
      <trkpt lat="44.0359" lon="7.42678">
        <ele>2068.2</ele>
        <time>2017-08-27T13:17:14Z</time>
      </trkpt>
      <trkpt lat="44.03569" lon="7.42671">
        <ele>2066</ele>
        <time>2017-08-27T13:17:30Z</time>
      </trkpt>
      <trkpt lat="44.03551" lon="7.42667">
        <ele>2063.4</ele>
        <time>2017-08-27T13:17:45Z</time>
      </trkpt>
      <trkpt lat="44.03545" lon="7.42666">
        <ele>2061.9</ele>
        <time>2017-08-27T13:17:51Z</time>
      </trkpt>
      <trkpt lat="44.03538" lon="7.42666">
        <ele>2059.6</ele>
        <time>2017-08-27T13:17:56Z</time>
      </trkpt>
      <trkpt lat="44.03524" lon="7.42648">
        <ele>2061.2</ele>
        <time>2017-08-27T13:18:12Z</time>
      </trkpt>
      <trkpt lat="44.03509" lon="7.42634">
        <ele>2060.6</ele>
        <time>2017-08-27T13:18:27Z</time>
      </trkpt>
      <trkpt lat="44.03491" lon="7.42619">
        <ele>2061.2</ele>
        <time>2017-08-27T13:18:44Z</time>
      </trkpt>
      <trkpt lat="44.03473" lon="7.42609">
        <ele>2061.9</ele>
        <time>2017-08-27T13:19:02Z</time>
      </trkpt>
      <trkpt lat="44.03456" lon="7.42602">
        <ele>2061.9</ele>
        <time>2017-08-27T13:19:17Z</time>
      </trkpt>
      <trkpt lat="44.03445" lon="7.42598">
        <ele>2061.8</ele>
        <time>2017-08-27T13:19:27Z</time>
      </trkpt>
      <trkpt lat="44.03427" lon="7.42591">
        <ele>2064.6</ele>
        <time>2017-08-27T13:19:46Z</time>
      </trkpt>
      <trkpt lat="44.03421" lon="7.42587">
        <ele>2065.9</ele>
        <time>2017-08-27T13:19:52Z</time>
      </trkpt>
      <trkpt lat="44.03398" lon="7.42585">
        <ele>2068.4</ele>
        <time>2017-08-27T13:20:13Z</time>
      </trkpt>
      <trkpt lat="44.0338" lon="7.4258">
        <ele>2072.6</ele>
        <time>2017-08-27T13:20:29Z</time>
      </trkpt>
      <trkpt lat="44.03362" lon="7.42585">
        <ele>2073.1</ele>
        <time>2017-08-27T13:20:48Z</time>
      </trkpt>
      <trkpt lat="44.03342" lon="7.42592">
        <ele>2075.9</ele>
        <time>2017-08-27T13:21:07Z</time>
      </trkpt>
      <trkpt lat="44.03338" lon="7.42593">
        <ele>2076.7</ele>
        <time>2017-08-27T13:21:11Z</time>
      </trkpt>
      <trkpt lat="44.03322" lon="7.42601">
        <ele>2075.8</ele>
        <time>2017-08-27T13:21:27Z</time>
      </trkpt>
      <trkpt lat="44.03305" lon="7.42609">
        <ele>2074.8</ele>
        <time>2017-08-27T13:21:44Z</time>
      </trkpt>
      <trkpt lat="44.03285" lon="7.42599">
        <ele>2076.6</ele>
        <time>2017-08-27T13:22:03Z</time>
      </trkpt>
      <trkpt lat="44.03269" lon="7.42593">
        <ele>2076.6</ele>
        <time>2017-08-27T13:22:19Z</time>
      </trkpt>
      <trkpt lat="44.03251" lon="7.42584">
        <ele>2077.8</ele>
        <time>2017-08-27T13:22:34Z</time>
      </trkpt>
      <trkpt lat="44.03235" lon="7.42575">
        <ele>2077.9</ele>
        <time>2017-08-27T13:22:49Z</time>
      </trkpt>
      <trkpt lat="44.03222" lon="7.42558">
        <ele>2080.1</ele>
        <time>2017-08-27T13:23:07Z</time>
      </trkpt>
      <trkpt lat="44.03217" lon="7.42539">
        <ele>2082.1</ele>
        <time>2017-08-27T13:23:22Z</time>
      </trkpt>
      <trkpt lat="44.03216" lon="7.42533">
        <ele>2082.8</ele>
        <time>2017-08-27T13:23:26Z</time>
      </trkpt>
      <trkpt lat="44.03214" lon="7.42528">
        <ele>2082.8</ele>
        <time>2017-08-27T13:23:30Z</time>
      </trkpt>
      <trkpt lat="44.03208" lon="7.42517">
        <ele>2081.4</ele>
        <time>2017-08-27T13:23:43Z</time>
      </trkpt>
      <trkpt lat="44.03206" lon="7.42488">
        <ele>2082.7</ele>
        <time>2017-08-27T13:24:00Z</time>
      </trkpt>
      <trkpt lat="44.03206" lon="7.42463">
        <ele>2084</ele>
        <time>2017-08-27T13:24:16Z</time>
      </trkpt>
      <trkpt lat="44.03206" lon="7.42449">
        <ele>2085.6</ele>
        <time>2017-08-27T13:24:28Z</time>
      </trkpt>
      <trkpt lat="44.03201" lon="7.42425">
        <ele>2087</ele>
        <time>2017-08-27T13:24:44Z</time>
      </trkpt>
      <trkpt lat="44.03196" lon="7.42413">
        <ele>2086.6</ele>
        <time>2017-08-27T13:24:52Z</time>
      </trkpt>
      <trkpt lat="44.03195" lon="7.4239">
        <ele>2090.2</ele>
        <time>2017-08-27T13:25:09Z</time>
      </trkpt>
      <trkpt lat="44.03189" lon="7.42365">
        <ele>2091.7</ele>
        <time>2017-08-27T13:25:25Z</time>
      </trkpt>
      <trkpt lat="44.03189" lon="7.42346">
        <ele>2095.7</ele>
        <time>2017-08-27T13:25:40Z</time>
      </trkpt>
      <trkpt lat="44.0319" lon="7.42344">
        <ele>2096.4</ele>
        <time>2017-08-27T13:25:42Z</time>
      </trkpt>
      <trkpt lat="44.03179" lon="7.42334">
        <ele>2097.1</ele>
        <time>2017-08-27T13:25:56Z</time>
      </trkpt>
      <trkpt lat="44.03175" lon="7.4232">
        <ele>2101.2</ele>
        <time>2017-08-27T13:26:11Z</time>
      </trkpt>
      <trkpt lat="44.03173" lon="7.42311">
        <ele>2103.9</ele>
        <time>2017-08-27T13:26:23Z</time>
      </trkpt>
      <trkpt lat="44.03172" lon="7.42306">
        <ele>2105.4</ele>
        <time>2017-08-27T13:26:28Z</time>
      </trkpt>
      <trkpt lat="44.03167" lon="7.42293">
        <ele>2104.1</ele>
        <time>2017-08-27T13:26:43Z</time>
      </trkpt>
      <trkpt lat="44.03168" lon="7.42291">
        <ele>2104.1</ele>
        <time>2017-08-27T13:27:10Z</time>
      </trkpt>
      <trkpt lat="44.03168" lon="7.4229">
        <ele>2104.1</ele>
        <time>2017-08-27T13:27:11Z</time>
      </trkpt>
      <trkpt lat="44.03156" lon="7.42265">
        <ele>2102.9</ele>
        <time>2017-08-27T13:27:27Z</time>
      </trkpt>
      <trkpt lat="44.03147" lon="7.42246">
        <ele>2100.8</ele>
        <time>2017-08-27T13:27:41Z</time>
      </trkpt>
      <trkpt lat="44.0313" lon="7.42219">
        <ele>2099.5</ele>
        <time>2017-08-27T13:28:00Z</time>
      </trkpt>
      <trkpt lat="44.03118" lon="7.42201">
        <ele>2099.6</ele>
        <time>2017-08-27T13:28:13Z</time>
      </trkpt>
      <trkpt lat="44.03106" lon="7.42177">
        <ele>2098.2</ele>
        <time>2017-08-27T13:28:29Z</time>
      </trkpt>
      <trkpt lat="44.03094" lon="7.42157">
        <ele>2098.1</ele>
        <time>2017-08-27T13:28:43Z</time>
      </trkpt>
      <trkpt lat="44.03081" lon="7.42128">
        <ele>2097.3</ele>
        <time>2017-08-27T13:29:01Z</time>
      </trkpt>
      <trkpt lat="44.03078" lon="7.4212">
        <ele>2097.2</ele>
        <time>2017-08-27T13:29:06Z</time>
      </trkpt>
      <trkpt lat="44.03067" lon="7.42083">
        <ele>2097</ele>
        <time>2017-08-27T13:29:24Z</time>
      </trkpt>
      <trkpt lat="44.03061" lon="7.42056">
        <ele>2097.1</ele>
        <time>2017-08-27T13:29:39Z</time>
      </trkpt>
      <trkpt lat="44.03056" lon="7.42024">
        <ele>2095.1</ele>
        <time>2017-08-27T13:29:56Z</time>
      </trkpt>
      <trkpt lat="44.03049" lon="7.4199">
        <ele>2092.5</ele>
        <time>2017-08-27T13:30:14Z</time>
      </trkpt>
      <trkpt lat="44.03039" lon="7.41963">
        <ele>2091.4</ele>
        <time>2017-08-27T13:30:29Z</time>
      </trkpt>
      <trkpt lat="44.03024" lon="7.41939">
        <ele>2091.3</ele>
        <time>2017-08-27T13:30:46Z</time>
      </trkpt>
      <trkpt lat="44.0301" lon="7.41919">
        <ele>2087.2</ele>
        <time>2017-08-27T13:31:01Z</time>
      </trkpt>
      <trkpt lat="44.02999" lon="7.41911">
        <ele>2086.5</ele>
        <time>2017-08-27T13:31:13Z</time>
      </trkpt>
      <trkpt lat="44.02995" lon="7.41912">
        <ele>2088.4</ele>
        <time>2017-08-27T13:31:18Z</time>
      </trkpt>
      <trkpt lat="44.02991" lon="7.41901">
        <ele>2084.2</ele>
        <time>2017-08-27T13:31:31Z</time>
      </trkpt>
      <trkpt lat="44.02991" lon="7.419">
        <ele>2083.6</ele>
        <time>2017-08-27T13:31:33Z</time>
      </trkpt>
      <trkpt lat="44.0299" lon="7.41896">
        <ele>2081.9</ele>
        <time>2017-08-27T13:31:36Z</time>
      </trkpt>
      <trkpt lat="44.02975" lon="7.41883">
        <ele>2080.1</ele>
        <time>2017-08-27T13:31:50Z</time>
      </trkpt>
      <trkpt lat="44.0296" lon="7.41866">
        <ele>2079.4</ele>
        <time>2017-08-27T13:32:05Z</time>
      </trkpt>
      <trkpt lat="44.0295" lon="7.41841">
        <ele>2074.1</ele>
        <time>2017-08-27T13:32:22Z</time>
      </trkpt>
      <trkpt lat="44.02949" lon="7.41834">
        <ele>2071.7</ele>
        <time>2017-08-27T13:32:31Z</time>
      </trkpt>
      <trkpt lat="44.02941" lon="7.41812">
        <ele>2066.6</ele>
        <time>2017-08-27T13:32:47Z</time>
      </trkpt>
      <trkpt lat="44.0293" lon="7.41794">
        <ele>2063.2</ele>
        <time>2017-08-27T13:33:01Z</time>
      </trkpt>
      <trkpt lat="44.02924" lon="7.41785">
        <ele>2061.1</ele>
        <time>2017-08-27T13:33:09Z</time>
      </trkpt>
      <trkpt lat="44.02919" lon="7.41782">
        <ele>2061.5</ele>
        <time>2017-08-27T13:33:18Z</time>
      </trkpt>
      <trkpt lat="44.02917" lon="7.41781">
        <ele>2061.7</ele>
        <time>2017-08-27T13:33:20Z</time>
      </trkpt>
      <trkpt lat="44.02911" lon="7.41781">
        <ele>2064</ele>
        <time>2017-08-27T13:33:25Z</time>
      </trkpt>
      <trkpt lat="44.02904" lon="7.41781">
        <ele>2066.6</ele>
        <time>2017-08-27T13:33:31Z</time>
      </trkpt>
      <trkpt lat="44.02887" lon="7.41765">
        <ele>2061.8</ele>
        <time>2017-08-27T13:33:47Z</time>
      </trkpt>
      <trkpt lat="44.02874" lon="7.41748">
        <ele>2058.3</ele>
        <time>2017-08-27T13:34:02Z</time>
      </trkpt>
      <trkpt lat="44.0286" lon="7.4173">
        <ele>2057.5</ele>
        <time>2017-08-27T13:34:18Z</time>
      </trkpt>
      <trkpt lat="44.02847" lon="7.41709">
        <ele>2053.7</ele>
        <time>2017-08-27T13:34:34Z</time>
      </trkpt>
      <trkpt lat="44.02841" lon="7.41699">
        <ele>2051.8</ele>
        <time>2017-08-27T13:34:48Z</time>
      </trkpt>
      <trkpt lat="44.02833" lon="7.41686">
        <ele>2049.2</ele>
        <time>2017-08-27T13:35:01Z</time>
      </trkpt>
      <trkpt lat="44.02821" lon="7.41677">
        <ele>2050.6</ele>
        <time>2017-08-27T13:35:14Z</time>
      </trkpt>
      <trkpt lat="44.02818" lon="7.41675">
        <ele>2051.1</ele>
        <time>2017-08-27T13:35:17Z</time>
      </trkpt>
      <trkpt lat="44.02808" lon="7.41659">
        <ele>2048.5</ele>
        <time>2017-08-27T13:35:31Z</time>
      </trkpt>
      <trkpt lat="44.02797" lon="7.41634">
        <ele>2044.2</ele>
        <time>2017-08-27T13:35:48Z</time>
      </trkpt>
      <trkpt lat="44.02786" lon="7.41613">
        <ele>2042.4</ele>
        <time>2017-08-27T13:36:02Z</time>
      </trkpt>
      <trkpt lat="44.02771" lon="7.41589">
        <ele>2041.6</ele>
        <time>2017-08-27T13:36:19Z</time>
      </trkpt>
      <trkpt lat="44.02756" lon="7.41566">
        <ele>2040.4</ele>
        <time>2017-08-27T13:36:36Z</time>
      </trkpt>
      <trkpt lat="44.02742" lon="7.41541">
        <ele>2036.1</ele>
        <time>2017-08-27T13:36:54Z</time>
      </trkpt>
      <trkpt lat="44.02724" lon="7.41521">
        <ele>2035</ele>
        <time>2017-08-27T13:37:10Z</time>
      </trkpt>
      <trkpt lat="44.02704" lon="7.41497">
        <ele>2030.4</ele>
        <time>2017-08-27T13:37:31Z</time>
      </trkpt>
      <trkpt lat="44.0268" lon="7.41479">
        <ele>2026.9</ele>
        <time>2017-08-27T13:37:49Z</time>
      </trkpt>
      <trkpt lat="44.02657" lon="7.41469">
        <ele>2024.4</ele>
        <time>2017-08-27T13:38:07Z</time>
      </trkpt>
      <trkpt lat="44.02655" lon="7.4147">
        <ele>2024.9</ele>
        <time>2017-08-27T13:38:09Z</time>
      </trkpt>
      <trkpt lat="44.02646" lon="7.41466">
        <ele>2023</ele>
        <time>2017-08-27T13:38:22Z</time>
      </trkpt>
      <trkpt lat="44.02641" lon="7.41465">
        <ele>2022.6</ele>
        <time>2017-08-27T13:38:26Z</time>
      </trkpt>
      <trkpt lat="44.02631" lon="7.4146">
        <ele>2019.1</ele>
        <time>2017-08-27T13:38:37Z</time>
      </trkpt>
      <trkpt lat="44.02627" lon="7.41459">
        <ele>2018.1</ele>
        <time>2017-08-27T13:38:42Z</time>
      </trkpt>
      <trkpt lat="44.02615" lon="7.41456">
        <ele>2015.1</ele>
        <time>2017-08-27T13:38:56Z</time>
      </trkpt>
      <trkpt lat="44.02602" lon="7.41452">
        <ele>2012.6</ele>
        <time>2017-08-27T13:39:10Z</time>
      </trkpt>
      <trkpt lat="44.02597" lon="7.41449">
        <ele>2011.2</ele>
        <time>2017-08-27T13:39:14Z</time>
      </trkpt>
      <trkpt lat="44.02591" lon="7.41445">
        <ele>2009.5</ele>
        <time>2017-08-27T13:39:20Z</time>
      </trkpt>
      <trkpt lat="44.02572" lon="7.41436">
        <ele>2005.9</ele>
        <time>2017-08-27T13:39:35Z</time>
      </trkpt>
      <trkpt lat="44.02549" lon="7.41424">
        <ele>2002.5</ele>
        <time>2017-08-27T13:39:53Z</time>
      </trkpt>
      <trkpt lat="44.02526" lon="7.41417">
        <ele>2000.9</ele>
        <time>2017-08-27T13:40:12Z</time>
      </trkpt>
      <trkpt lat="44.0252" lon="7.41416">
        <ele>2000.5</ele>
        <time>2017-08-27T13:40:27Z</time>
      </trkpt>
      <trkpt lat="44.02516" lon="7.41414">
        <ele>2000.3</ele>
        <time>2017-08-27T13:40:40Z</time>
      </trkpt>
      <trkpt lat="44.02516" lon="7.41414">
        <ele>2000.3</ele>
        <time>2017-08-27T13:40:54Z</time>
      </trkpt>
      <trkpt lat="44.02516" lon="7.41414">
        <ele>2000.3</ele>
        <time>2017-08-27T13:41:13Z</time>
      </trkpt>
      <trkpt lat="44.02515" lon="7.41414">
        <ele>2000.3</ele>
        <time>2017-08-27T13:41:40Z</time>
      </trkpt>
      <trkpt lat="44.02515" lon="7.41414">
        <ele>2000.3</ele>
        <time>2017-08-27T13:41:54Z</time>
      </trkpt>
      <trkpt lat="44.02512" lon="7.41422">
        <ele>1999.2</ele>
        <time>2017-08-27T13:42:00Z</time>
      </trkpt>
      <trkpt lat="44.02507" lon="7.4143">
        <ele>1997.1</ele>
        <time>2017-08-27T13:42:12Z</time>
      </trkpt>
      <trkpt lat="44.02502" lon="7.41432">
        <ele>1995.6</ele>
        <time>2017-08-27T13:42:18Z</time>
      </trkpt>
      <trkpt lat="44.02495" lon="7.41435">
        <ele>1993.2</ele>
        <time>2017-08-27T13:42:27Z</time>
      </trkpt>
      <trkpt lat="44.02488" lon="7.41438">
        <ele>1990.7</ele>
        <time>2017-08-27T13:42:34Z</time>
      </trkpt>
      <trkpt lat="44.02486" lon="7.41439">
        <ele>1989.8</ele>
        <time>2017-08-27T13:42:37Z</time>
      </trkpt>
      <trkpt lat="44.0248" lon="7.41441">
        <ele>1987.6</ele>
        <time>2017-08-27T13:42:42Z</time>
      </trkpt>
      <trkpt lat="44.02479" lon="7.41442">
        <ele>1986.9</ele>
        <time>2017-08-27T13:42:43Z</time>
      </trkpt>
      <trkpt lat="44.02458" lon="7.41442">
        <ele>1984</ele>
        <time>2017-08-27T13:42:59Z</time>
      </trkpt>
      <trkpt lat="44.02438" lon="7.4145">
        <ele>1979.5</ele>
        <time>2017-08-27T13:43:15Z</time>
      </trkpt>
      <trkpt lat="44.02417" lon="7.4146">
        <ele>1975.8</ele>
        <time>2017-08-27T13:43:32Z</time>
      </trkpt>
      <trkpt lat="44.02396" lon="7.41469">
        <ele>1973.1</ele>
        <time>2017-08-27T13:43:49Z</time>
      </trkpt>
      <trkpt lat="44.02377" lon="7.41478">
        <ele>1970.2</ele>
        <time>2017-08-27T13:44:04Z</time>
      </trkpt>
      <trkpt lat="44.02357" lon="7.4149">
        <ele>1966.8</ele>
        <time>2017-08-27T13:44:21Z</time>
      </trkpt>
      <trkpt lat="44.02335" lon="7.41501">
        <ele>1963.5</ele>
        <time>2017-08-27T13:44:39Z</time>
      </trkpt>
      <trkpt lat="44.02311" lon="7.41518">
        <ele>1959.7</ele>
        <time>2017-08-27T13:44:59Z</time>
      </trkpt>
      <trkpt lat="44.02297" lon="7.41528">
        <ele>1958.1</ele>
        <time>2017-08-27T13:45:14Z</time>
      </trkpt>
      <trkpt lat="44.02273" lon="7.41541">
        <ele>1956.3</ele>
        <time>2017-08-27T13:45:33Z</time>
      </trkpt>
      <trkpt lat="44.02254" lon="7.41555">
        <ele>1952.8</ele>
        <time>2017-08-27T13:45:49Z</time>
      </trkpt>
      <trkpt lat="44.02235" lon="7.41564">
        <ele>1951.1</ele>
        <time>2017-08-27T13:46:05Z</time>
      </trkpt>
      <trkpt lat="44.02214" lon="7.41577">
        <ele>1948.8</ele>
        <time>2017-08-27T13:46:22Z</time>
      </trkpt>
      <trkpt lat="44.0219" lon="7.41589">
        <ele>1947</ele>
        <time>2017-08-27T13:46:41Z</time>
      </trkpt>
      <trkpt lat="44.02169" lon="7.41603">
        <ele>1943.3</ele>
        <time>2017-08-27T13:46:59Z</time>
      </trkpt>
      <trkpt lat="44.02149" lon="7.41619">
        <ele>1940.4</ele>
        <time>2017-08-27T13:47:16Z</time>
      </trkpt>
      <trkpt lat="44.02131" lon="7.41636">
        <ele>1937.2</ele>
        <time>2017-08-27T13:47:32Z</time>
      </trkpt>
      <trkpt lat="44.02112" lon="7.4165">
        <ele>1935.6</ele>
        <time>2017-08-27T13:47:48Z</time>
      </trkpt>
      <trkpt lat="44.02091" lon="7.41663">
        <ele>1932.5</ele>
        <time>2017-08-27T13:48:06Z</time>
      </trkpt>
      <trkpt lat="44.02071" lon="7.41682">
        <ele>1929.5</ele>
        <time>2017-08-27T13:48:24Z</time>
      </trkpt>
      <trkpt lat="44.02055" lon="7.41701">
        <ele>1926.3</ele>
        <time>2017-08-27T13:48:40Z</time>
      </trkpt>
      <trkpt lat="44.02038" lon="7.41714">
        <ele>1925.4</ele>
        <time>2017-08-27T13:48:55Z</time>
      </trkpt>
      <trkpt lat="44.02017" lon="7.41732">
        <ele>1923</ele>
        <time>2017-08-27T13:49:14Z</time>
      </trkpt>
      <trkpt lat="44.01998" lon="7.41751">
        <ele>1920</ele>
        <time>2017-08-27T13:49:32Z</time>
      </trkpt>
      <trkpt lat="44.01979" lon="7.41767">
        <ele>1916.9</ele>
        <time>2017-08-27T13:49:49Z</time>
      </trkpt>
      <trkpt lat="44.01963" lon="7.41781">
        <ele>1914.4</ele>
        <time>2017-08-27T13:50:04Z</time>
      </trkpt>
      <trkpt lat="44.01948" lon="7.41797">
        <ele>1911.8</ele>
        <time>2017-08-27T13:50:20Z</time>
      </trkpt>
      <trkpt lat="44.01935" lon="7.41813">
        <ele>1908.5</ele>
        <time>2017-08-27T13:50:34Z</time>
      </trkpt>
      <trkpt lat="44.01932" lon="7.41818">
        <ele>1907.2</ele>
        <time>2017-08-27T13:50:38Z</time>
      </trkpt>
      <trkpt lat="44.01923" lon="7.41833">
        <ele>1903.6</ele>
        <time>2017-08-27T13:50:50Z</time>
      </trkpt>
      <trkpt lat="44.01919" lon="7.4184">
        <ele>1902.2</ele>
        <time>2017-08-27T13:50:55Z</time>
      </trkpt>
      <trkpt lat="44.01915" lon="7.41848">
        <ele>1900.3</ele>
        <time>2017-08-27T13:51:01Z</time>
      </trkpt>
      <trkpt lat="44.01915" lon="7.41853">
        <ele>1898.1</ele>
        <time>2017-08-27T13:51:04Z</time>
      </trkpt>
      <trkpt lat="44.01911" lon="7.41859">
        <ele>1897.1</ele>
        <time>2017-08-27T13:51:09Z</time>
      </trkpt>
      <trkpt lat="44.01899" lon="7.41889">
        <ele>1891.7</ele>
        <time>2017-08-27T13:51:28Z</time>
      </trkpt>
      <trkpt lat="44.01897" lon="7.41895">
        <ele>1891</ele>
        <time>2017-08-27T13:51:32Z</time>
      </trkpt>
      <trkpt lat="44.01891" lon="7.41909">
        <ele>1889.4</ele>
        <time>2017-08-27T13:51:48Z</time>
      </trkpt>
      <trkpt lat="44.01879" lon="7.41922">
        <ele>1886.9</ele>
        <time>2017-08-27T13:52:02Z</time>
      </trkpt>
      <trkpt lat="44.01873" lon="7.41926">
        <ele>1886.1</ele>
        <time>2017-08-27T13:52:07Z</time>
      </trkpt>
      <trkpt lat="44.01868" lon="7.41928">
        <ele>1886</ele>
        <time>2017-08-27T13:52:11Z</time>
      </trkpt>
      <trkpt lat="44.01859" lon="7.41938">
        <ele>1883.9</ele>
        <time>2017-08-27T13:52:20Z</time>
      </trkpt>
      <trkpt lat="44.01855" lon="7.41944">
        <ele>1882.9</ele>
        <time>2017-08-27T13:52:24Z</time>
      </trkpt>
      <trkpt lat="44.01851" lon="7.41947">
        <ele>1882.7</ele>
        <time>2017-08-27T13:52:27Z</time>
      </trkpt>
      <trkpt lat="44.01835" lon="7.41963">
        <ele>1879.8</ele>
        <time>2017-08-27T13:52:43Z</time>
      </trkpt>
      <trkpt lat="44.01827" lon="7.4197">
        <ele>1877.9</ele>
        <time>2017-08-27T13:52:51Z</time>
      </trkpt>
      <trkpt lat="44.01823" lon="7.41975">
        <ele>1876.1</ele>
        <time>2017-08-27T13:52:56Z</time>
      </trkpt>
      <trkpt lat="44.01822" lon="7.4198">
        <ele>1873.8</ele>
        <time>2017-08-27T13:53:00Z</time>
      </trkpt>
      <trkpt lat="44.0182" lon="7.41986">
        <ele>1871.2</ele>
        <time>2017-08-27T13:53:05Z</time>
      </trkpt>
      <trkpt lat="44.01812" lon="7.42003">
        <ele>1864.9</ele>
        <time>2017-08-27T13:53:18Z</time>
      </trkpt>
      <trkpt lat="44.01806" lon="7.42012">
        <ele>1862.3</ele>
        <time>2017-08-27T13:53:26Z</time>
      </trkpt>
      <trkpt lat="44.01801" lon="7.42016">
        <ele>1861.4</ele>
        <time>2017-08-27T13:53:30Z</time>
      </trkpt>
      <trkpt lat="44.01796" lon="7.42022">
        <ele>1859.8</ele>
        <time>2017-08-27T13:53:35Z</time>
      </trkpt>
      <trkpt lat="44.01781" lon="7.42039">
        <ele>1855.5</ele>
        <time>2017-08-27T13:53:50Z</time>
      </trkpt>
      <trkpt lat="44.01767" lon="7.42055">
        <ele>1849.8</ele>
        <time>2017-08-27T13:54:04Z</time>
      </trkpt>
      <trkpt lat="44.01747" lon="7.42069">
        <ele>1846.3</ele>
        <time>2017-08-27T13:54:21Z</time>
      </trkpt>
      <trkpt lat="44.01731" lon="7.42085">
        <ele>1839.9</ele>
        <time>2017-08-27T13:54:36Z</time>
      </trkpt>
      <trkpt lat="44.01718" lon="7.42105">
        <ele>1835.1</ele>
        <time>2017-08-27T13:54:51Z</time>
      </trkpt>
      <trkpt lat="44.01707" lon="7.42131">
        <ele>1831.4</ele>
        <time>2017-08-27T13:55:08Z</time>
      </trkpt>
      <trkpt lat="44.01704" lon="7.42139">
        <ele>1831.3</ele>
        <time>2017-08-27T13:55:22Z</time>
      </trkpt>
      <trkpt lat="44.01704" lon="7.42142">
        <ele>1831.3</ele>
        <time>2017-08-27T13:55:47Z</time>
      </trkpt>
      <trkpt lat="44.01704" lon="7.42141">
        <ele>1831.3</ele>
        <time>2017-08-27T13:56:04Z</time>
      </trkpt>
      <trkpt lat="44.01704" lon="7.42141">
        <ele>1831.3</ele>
        <time>2017-08-27T13:56:27Z</time>
      </trkpt>
      <trkpt lat="44.01702" lon="7.42144">
        <ele>1831.5</ele>
        <time>2017-08-27T13:56:48Z</time>
      </trkpt>
      <trkpt lat="44.01697" lon="7.42156">
        <ele>1832.7</ele>
        <time>2017-08-27T13:57:00Z</time>
      </trkpt>
      <trkpt lat="44.01688" lon="7.42173">
        <ele>1832.8</ele>
        <time>2017-08-27T13:57:14Z</time>
      </trkpt>
      <trkpt lat="44.01678" lon="7.42191">
        <ele>1833.4</ele>
        <time>2017-08-27T13:57:29Z</time>
      </trkpt>
      <trkpt lat="44.01661" lon="7.42208">
        <ele>1836.7</ele>
        <time>2017-08-27T13:57:47Z</time>
      </trkpt>
      <trkpt lat="44.01657" lon="7.42208">
        <ele>1836.6</ele>
        <time>2017-08-27T13:57:50Z</time>
      </trkpt>
      <trkpt lat="44.01643" lon="7.42216">
        <ele>1838.7</ele>
        <time>2017-08-27T13:58:05Z</time>
      </trkpt>
      <trkpt lat="44.01627" lon="7.42229">
        <ele>1842.6</ele>
        <time>2017-08-27T13:58:23Z</time>
      </trkpt>
      <trkpt lat="44.01619" lon="7.42232">
        <ele>1843.5</ele>
        <time>2017-08-27T13:58:36Z</time>
      </trkpt>
      <trkpt lat="44.0161" lon="7.42237">
        <ele>1845.3</ele>
        <time>2017-08-27T13:58:50Z</time>
      </trkpt>
      <trkpt lat="44.01601" lon="7.42244">
        <ele>1848.1</ele>
        <time>2017-08-27T13:59:04Z</time>
      </trkpt>
      <trkpt lat="44.0159" lon="7.42249">
        <ele>1850.4</ele>
        <time>2017-08-27T13:59:20Z</time>
      </trkpt>
      <trkpt lat="44.01583" lon="7.42256">
        <ele>1853.4</ele>
        <time>2017-08-27T13:59:33Z</time>
      </trkpt>
      <trkpt lat="44.01573" lon="7.42264">
        <ele>1858.2</ele>
        <time>2017-08-27T13:59:50Z</time>
      </trkpt>
      <trkpt lat="44.01565" lon="7.42267">
        <ele>1860.8</ele>
        <time>2017-08-27T14:00:05Z</time>
      </trkpt>
      <trkpt lat="44.01565" lon="7.42268">
        <ele>1861.2</ele>
        <time>2017-08-27T14:00:12Z</time>
      </trkpt>
      <trkpt lat="44.01565" lon="7.42268">
        <ele>1861.2</ele>
        <time>2017-08-27T14:00:17Z</time>
      </trkpt>
      <trkpt lat="44.01563" lon="7.42269">
        <ele>1862</ele>
        <time>2017-08-27T14:00:24Z</time>
      </trkpt>
      <trkpt lat="44.01553" lon="7.42272">
        <ele>1864.9</ele>
        <time>2017-08-27T14:00:36Z</time>
      </trkpt>
      <trkpt lat="44.01548" lon="7.42273">
        <ele>1866.2</ele>
        <time>2017-08-27T14:00:43Z</time>
      </trkpt>
      <trkpt lat="44.01548" lon="7.42273">
        <ele>1866.2</ele>
        <time>2017-08-27T14:00:45Z</time>
      </trkpt>
      <trkpt lat="44.01546" lon="7.42276">
        <ele>1867.9</ele>
        <time>2017-08-27T14:01:01Z</time>
      </trkpt>
      <trkpt lat="44.01544" lon="7.42274">
        <ele>1867.4</ele>
        <time>2017-08-27T14:01:16Z</time>
      </trkpt>
      <trkpt lat="44.01542" lon="7.42275">
        <ele>1868.2</ele>
        <time>2017-08-27T14:01:19Z</time>
      </trkpt>
      <trkpt lat="44.01533" lon="7.42277">
        <ele>1870.7</ele>
        <time>2017-08-27T14:01:32Z</time>
      </trkpt>
      <trkpt lat="44.01524" lon="7.42279">
        <ele>1873.4</ele>
        <time>2017-08-27T14:01:47Z</time>
      </trkpt>
      <trkpt lat="44.01516" lon="7.42279">
        <ele>1875.1</ele>
        <time>2017-08-27T14:01:59Z</time>
      </trkpt>
      <trkpt lat="44.01516" lon="7.42279">
        <ele>1875.1</ele>
        <time>2017-08-27T14:02:00Z</time>
      </trkpt>
      <trkpt lat="44.01507" lon="7.42278">
        <ele>1876.6</ele>
        <time>2017-08-27T14:02:12Z</time>
      </trkpt>
      <trkpt lat="44.01507" lon="7.42279">
        <ele>1877.1</ele>
        <time>2017-08-27T14:02:17Z</time>
      </trkpt>
      <trkpt lat="44.01507" lon="7.42282">
        <ele>1878.6</ele>
        <time>2017-08-27T14:02:28Z</time>
      </trkpt>
      <trkpt lat="44.01512" lon="7.4229">
        <ele>1881.4</ele>
        <time>2017-08-27T14:02:40Z</time>
      </trkpt>
      <trkpt lat="44.01512" lon="7.42289">
        <ele>1880.9</ele>
        <time>2017-08-27T14:02:47Z</time>
      </trkpt>
      <trkpt lat="44.01502" lon="7.42285">
        <ele>1881.2</ele>
        <time>2017-08-27T14:02:58Z</time>
      </trkpt>
      <trkpt lat="44.01494" lon="7.42286">
        <ele>1883.3</ele>
        <time>2017-08-27T14:03:06Z</time>
      </trkpt>
      <trkpt lat="44.0149" lon="7.42285">
        <ele>1883.5</ele>
        <time>2017-08-27T14:03:10Z</time>
      </trkpt>
      <trkpt lat="44.01483" lon="7.42285">
        <ele>1884.9</ele>
        <time>2017-08-27T14:03:21Z</time>
      </trkpt>
      <trkpt lat="44.01476" lon="7.42285">
        <ele>1886.2</ele>
        <time>2017-08-27T14:03:29Z</time>
      </trkpt>
      <trkpt lat="44.01466" lon="7.42285">
        <ele>1887.8</ele>
        <time>2017-08-27T14:03:42Z</time>
      </trkpt>
      <trkpt lat="44.01462" lon="7.42289">
        <ele>1890.5</ele>
        <time>2017-08-27T14:03:53Z</time>
      </trkpt>
      <trkpt lat="44.0146" lon="7.4229">
        <ele>1891.4</ele>
        <time>2017-08-27T14:03:58Z</time>
      </trkpt>
      <trkpt lat="44.01457" lon="7.42292">
        <ele>1892.9</ele>
        <time>2017-08-27T14:04:04Z</time>
      </trkpt>
      <trkpt lat="44.01452" lon="7.42297">
        <ele>1896.3</ele>
        <time>2017-08-27T14:04:12Z</time>
      </trkpt>
      <trkpt lat="44.01449" lon="7.42299">
        <ele>1897.8</ele>
        <time>2017-08-27T14:04:18Z</time>
      </trkpt>
      <trkpt lat="44.01442" lon="7.42304">
        <ele>1901.3</ele>
        <time>2017-08-27T14:04:29Z</time>
      </trkpt>
      <trkpt lat="44.0144" lon="7.42304">
        <ele>1901.5</ele>
        <time>2017-08-27T14:04:36Z</time>
      </trkpt>
      <trkpt lat="44.01435" lon="7.42308">
        <ele>1903.9</ele>
        <time>2017-08-27T14:04:49Z</time>
      </trkpt>
      <trkpt lat="44.01431" lon="7.42308">
        <ele>1904.2</ele>
        <time>2017-08-27T14:04:54Z</time>
      </trkpt>
      <trkpt lat="44.01426" lon="7.4231">
        <ele>1905.5</ele>
        <time>2017-08-27T14:04:59Z</time>
      </trkpt>
      <trkpt lat="44.01424" lon="7.42312">
        <ele>1906.5</ele>
        <time>2017-08-27T14:05:09Z</time>
      </trkpt>
      <trkpt lat="44.01423" lon="7.42315">
        <ele>1908</ele>
        <time>2017-08-27T14:05:16Z</time>
      </trkpt>
      <trkpt lat="44.01422" lon="7.42316">
        <ele>1908.6</ele>
        <time>2017-08-27T14:05:17Z</time>
      </trkpt>
      <trkpt lat="44.01418" lon="7.42317">
        <ele>1909.3</ele>
        <time>2017-08-27T14:05:22Z</time>
      </trkpt>
      <trkpt lat="44.01406" lon="7.42322">
        <ele>1913.2</ele>
        <time>2017-08-27T14:05:35Z</time>
      </trkpt>
      <trkpt lat="44.01395" lon="7.42318">
        <ele>1912.9</ele>
        <time>2017-08-27T14:05:49Z</time>
      </trkpt>
      <trkpt lat="44.01383" lon="7.42319">
        <ele>1915.6</ele>
        <time>2017-08-27T14:06:03Z</time>
      </trkpt>
      <trkpt lat="44.01368" lon="7.42319">
        <ele>1918.8</ele>
        <time>2017-08-27T14:06:18Z</time>
      </trkpt>
      <trkpt lat="44.01353" lon="7.42317">
        <ele>1921.1</ele>
        <time>2017-08-27T14:06:34Z</time>
      </trkpt>
      <trkpt lat="44.0135" lon="7.42316">
        <ele>1921.3</ele>
        <time>2017-08-27T14:06:37Z</time>
      </trkpt>
      <trkpt lat="44.01347" lon="7.42317">
        <ele>1922.5</ele>
        <time>2017-08-27T14:06:41Z</time>
      </trkpt>
      <trkpt lat="44.01333" lon="7.42314">
        <ele>1924.4</ele>
        <time>2017-08-27T14:06:57Z</time>
      </trkpt>
      <trkpt lat="44.01323" lon="7.42313">
        <ele>1926.7</ele>
        <time>2017-08-27T14:07:10Z</time>
      </trkpt>
      <trkpt lat="44.0132" lon="7.42313">
        <ele>1927.6</ele>
        <time>2017-08-27T14:07:13Z</time>
      </trkpt>
      <trkpt lat="44.01316" lon="7.42314">
        <ele>1929.2</ele>
        <time>2017-08-27T14:07:17Z</time>
      </trkpt>
      <trkpt lat="44.01303" lon="7.42316">
        <ele>1934</ele>
        <time>2017-08-27T14:07:32Z</time>
      </trkpt>
      <trkpt lat="44.01301" lon="7.42315">
        <ele>1934.1</ele>
        <time>2017-08-27T14:07:34Z</time>
      </trkpt>
      <trkpt lat="44.01296" lon="7.42315">
        <ele>1935.5</ele>
        <time>2017-08-27T14:07:40Z</time>
      </trkpt>
      <trkpt lat="44.01289" lon="7.4231">
        <ele>1935.3</ele>
        <time>2017-08-27T14:07:57Z</time>
      </trkpt>
      <trkpt lat="44.01275" lon="7.42303">
        <ele>1936.4</ele>
        <time>2017-08-27T14:08:10Z</time>
      </trkpt>
      <trkpt lat="44.01271" lon="7.42302">
        <ele>1936.2</ele>
        <time>2017-08-27T14:08:14Z</time>
      </trkpt>
      <trkpt lat="44.01261" lon="7.42289">
        <ele>1934.3</ele>
        <time>2017-08-27T14:08:29Z</time>
      </trkpt>
      <trkpt lat="44.01259" lon="7.42286">
        <ele>1934</ele>
        <time>2017-08-27T14:08:43Z</time>
      </trkpt>
      <trkpt lat="44.01259" lon="7.42287">
        <ele>1934.1</ele>
        <time>2017-08-27T14:09:18Z</time>
      </trkpt>
      <trkpt lat="44.01259" lon="7.42287">
        <ele>1934.1</ele>
        <time>2017-08-27T14:09:47Z</time>
      </trkpt>
      <trkpt lat="44.01259" lon="7.42287">
        <ele>1934.1</ele>
        <time>2017-08-27T14:10:24Z</time>
      </trkpt>
      <trkpt lat="44.01259" lon="7.42287">
        <ele>1934.1</ele>
        <time>2017-08-27T14:10:59Z</time>
      </trkpt>
      <trkpt lat="44.01259" lon="7.42288">
        <ele>1934.3</ele>
        <time>2017-08-27T14:11:34Z</time>
      </trkpt>
      <trkpt lat="44.01258" lon="7.42288">
        <ele>1934.4</ele>
        <time>2017-08-27T14:12:07Z</time>
      </trkpt>
      <trkpt lat="44.01255" lon="7.42287">
        <ele>1934.5</ele>
        <time>2017-08-27T14:12:22Z</time>
      </trkpt>
      <trkpt lat="44.01245" lon="7.42305">
        <ele>1934.2</ele>
        <time>2017-08-27T14:12:36Z</time>
      </trkpt>
      <trkpt lat="44.01236" lon="7.42331">
        <ele>1936.8</ele>
        <time>2017-08-27T14:12:53Z</time>
      </trkpt>
      <trkpt lat="44.01226" lon="7.42345">
        <ele>1937.3</ele>
        <time>2017-08-27T14:13:05Z</time>
      </trkpt>
      <trkpt lat="44.01211" lon="7.42359">
        <ele>1936.7</ele>
        <time>2017-08-27T14:13:22Z</time>
      </trkpt>
      <trkpt lat="44.012" lon="7.4237">
        <ele>1937.9</ele>
        <time>2017-08-27T14:13:35Z</time>
      </trkpt>
      <trkpt lat="44.01188" lon="7.42381">
        <ele>1939.7</ele>
        <time>2017-08-27T14:13:50Z</time>
      </trkpt>
      <trkpt lat="44.01179" lon="7.42388">
        <ele>1940.5</ele>
        <time>2017-08-27T14:13:59Z</time>
      </trkpt>
      <trkpt lat="44.01177" lon="7.42387">
        <ele>1939.3</ele>
        <time>2017-08-27T14:14:01Z</time>
      </trkpt>
      <trkpt lat="44.01174" lon="7.42389">
        <ele>1939.4</ele>
        <time>2017-08-27T14:14:04Z</time>
      </trkpt>
      <trkpt lat="44.01155" lon="7.42401">
        <ele>1941.9</ele>
        <time>2017-08-27T14:14:23Z</time>
      </trkpt>
      <trkpt lat="44.01135" lon="7.42404">
        <ele>1939.9</ele>
        <time>2017-08-27T14:14:40Z</time>
      </trkpt>
      <trkpt lat="44.01122" lon="7.4241">
        <ele>1940.7</ele>
        <time>2017-08-27T14:14:55Z</time>
      </trkpt>
      <trkpt lat="44.01107" lon="7.42421">
        <ele>1942.6</ele>
        <time>2017-08-27T14:15:10Z</time>
      </trkpt>
      <trkpt lat="44.011" lon="7.42425">
        <ele>1941.8</ele>
        <time>2017-08-27T14:15:16Z</time>
      </trkpt>
      <trkpt lat="44.01089" lon="7.42435">
        <ele>1942.5</ele>
        <time>2017-08-27T14:15:27Z</time>
      </trkpt>
      <trkpt lat="44.01072" lon="7.42444">
        <ele>1941.1</ele>
        <time>2017-08-27T14:15:42Z</time>
      </trkpt>
      <trkpt lat="44.01064" lon="7.42443">
        <ele>1938</ele>
        <time>2017-08-27T14:15:48Z</time>
      </trkpt>
      <trkpt lat="44.01049" lon="7.42454">
        <ele>1936.1</ele>
        <time>2017-08-27T14:16:05Z</time>
      </trkpt>
      <trkpt lat="44.01044" lon="7.42473">
        <ele>1941.4</ele>
        <time>2017-08-27T14:16:19Z</time>
      </trkpt>
      <trkpt lat="44.01036" lon="7.42491">
        <ele>1943.5</ele>
        <time>2017-08-27T14:16:32Z</time>
      </trkpt>
      <trkpt lat="44.01032" lon="7.42497">
        <ele>1943.5</ele>
        <time>2017-08-27T14:16:38Z</time>
      </trkpt>
      <trkpt lat="44.01023" lon="7.42514">
        <ele>1946.1</ele>
        <time>2017-08-27T14:16:52Z</time>
      </trkpt>
      <trkpt lat="44.01018" lon="7.42522">
        <ele>1947.3</ele>
        <time>2017-08-27T14:17:04Z</time>
      </trkpt>
      <trkpt lat="44.01006" lon="7.42537">
        <ele>1949.5</ele>
        <time>2017-08-27T14:17:20Z</time>
      </trkpt>
      <trkpt lat="44.01003" lon="7.42538">
        <ele>1948.7</ele>
        <time>2017-08-27T14:17:23Z</time>
      </trkpt>
      <trkpt lat="44.00986" lon="7.42543">
        <ele>1945.9</ele>
        <time>2017-08-27T14:17:40Z</time>
      </trkpt>
      <trkpt lat="44.00979" lon="7.42551">
        <ele>1947</ele>
        <time>2017-08-27T14:17:51Z</time>
      </trkpt>
      <trkpt lat="44.00976" lon="7.42554">
        <ele>1947</ele>
        <time>2017-08-27T14:17:55Z</time>
      </trkpt>
      <trkpt lat="44.00968" lon="7.4258">
        <ele>1953.1</ele>
        <time>2017-08-27T14:18:12Z</time>
      </trkpt>
      <trkpt lat="44.00955" lon="7.42598">
        <ele>1954.7</ele>
        <time>2017-08-27T14:18:28Z</time>
      </trkpt>
      <trkpt lat="44.00951" lon="7.42605">
        <ele>1956.3</ele>
        <time>2017-08-27T14:18:34Z</time>
      </trkpt>
      <trkpt lat="44.00937" lon="7.42616">
        <ele>1955.1</ele>
        <time>2017-08-27T14:18:50Z</time>
      </trkpt>
      <trkpt lat="44.00927" lon="7.42623">
        <ele>1954.3</ele>
        <time>2017-08-27T14:19:01Z</time>
      </trkpt>
      <trkpt lat="44.00914" lon="7.42635">
        <ele>1955.6</ele>
        <time>2017-08-27T14:19:15Z</time>
      </trkpt>
      <trkpt lat="44.00911" lon="7.42637">
        <ele>1955.6</ele>
        <time>2017-08-27T14:19:19Z</time>
      </trkpt>
      <trkpt lat="44.00902" lon="7.42652">
        <ele>1960.9</ele>
        <time>2017-08-27T14:19:34Z</time>
      </trkpt>
      <trkpt lat="44.00899" lon="7.42654">
        <ele>1960.8</ele>
        <time>2017-08-27T14:19:37Z</time>
      </trkpt>
      <trkpt lat="44.00893" lon="7.42656">
        <ele>1959.1</ele>
        <time>2017-08-27T14:19:43Z</time>
      </trkpt>
      <trkpt lat="44.0089" lon="7.42656">
        <ele>1957.8</ele>
        <time>2017-08-27T14:19:46Z</time>
      </trkpt>
      <trkpt lat="44.00888" lon="7.42656">
        <ele>1956.7</ele>
        <time>2017-08-27T14:19:48Z</time>
      </trkpt>
      <trkpt lat="44.00885" lon="7.42657">
        <ele>1955.4</ele>
        <time>2017-08-27T14:19:51Z</time>
      </trkpt>
      <trkpt lat="44.00875" lon="7.42674">
        <ele>1956.3</ele>
        <time>2017-08-27T14:20:05Z</time>
      </trkpt>
      <trkpt lat="44.00869" lon="7.42695">
        <ele>1959</ele>
        <time>2017-08-27T14:20:19Z</time>
      </trkpt>
      <trkpt lat="44.00864" lon="7.42718">
        <ele>1960.3</ele>
        <time>2017-08-27T14:20:34Z</time>
      </trkpt>
      <trkpt lat="44.00863" lon="7.42723">
        <ele>1960.8</ele>
        <time>2017-08-27T14:20:37Z</time>
      </trkpt>
      <trkpt lat="44.00857" lon="7.42733">
        <ele>1959.7</ele>
        <time>2017-08-27T14:20:44Z</time>
      </trkpt>
      <trkpt lat="44.00842" lon="7.42754">
        <ele>1957.8</ele>
        <time>2017-08-27T14:21:02Z</time>
      </trkpt>
      <trkpt lat="44.0083" lon="7.4277">
        <ele>1956.3</ele>
        <time>2017-08-27T14:21:16Z</time>
      </trkpt>
      <trkpt lat="44.00821" lon="7.42789">
        <ele>1957.1</ele>
        <time>2017-08-27T14:21:29Z</time>
      </trkpt>
      <trkpt lat="44.00809" lon="7.42816">
        <ele>1958.7</ele>
        <time>2017-08-27T14:21:47Z</time>
      </trkpt>
      <trkpt lat="44.00797" lon="7.42836">
        <ele>1959.8</ele>
        <time>2017-08-27T14:22:03Z</time>
      </trkpt>
      <trkpt lat="44.00785" lon="7.42854">
        <ele>1961.4</ele>
        <time>2017-08-27T14:22:21Z</time>
      </trkpt>
      <trkpt lat="44.00774" lon="7.42872">
        <ele>1964.8</ele>
        <time>2017-08-27T14:22:40Z</time>
      </trkpt>
      <trkpt lat="44.00771" lon="7.42876">
        <ele>1965.7</ele>
        <time>2017-08-27T14:22:45Z</time>
      </trkpt>
      <trkpt lat="44.00765" lon="7.42881">
        <ele>1966</ele>
        <time>2017-08-27T14:22:51Z</time>
      </trkpt>
      <trkpt lat="44.00752" lon="7.42895">
        <ele>1968.5</ele>
        <time>2017-08-27T14:23:07Z</time>
      </trkpt>
      <trkpt lat="44.0074" lon="7.42904">
        <ele>1969.7</ele>
        <time>2017-08-27T14:23:20Z</time>
      </trkpt>
      <trkpt lat="44.00737" lon="7.42907">
        <ele>1970.5</ele>
        <time>2017-08-27T14:23:23Z</time>
      </trkpt>
      <trkpt lat="44.00721" lon="7.42915">
        <ele>1971</ele>
        <time>2017-08-27T14:23:39Z</time>
      </trkpt>
      <trkpt lat="44.00718" lon="7.42916">
        <ele>1971.1</ele>
        <time>2017-08-27T14:23:42Z</time>
      </trkpt>
      <trkpt lat="44.00713" lon="7.42917">
        <ele>1970.8</ele>
        <time>2017-08-27T14:23:47Z</time>
      </trkpt>
      <trkpt lat="44.00701" lon="7.42924">
        <ele>1972.4</ele>
        <time>2017-08-27T14:24:03Z</time>
      </trkpt>
      <trkpt lat="44.00697" lon="7.42927">
        <ele>1973.2</ele>
        <time>2017-08-27T14:24:07Z</time>
      </trkpt>
      <trkpt lat="44.00681" lon="7.42937">
        <ele>1973.9</ele>
        <time>2017-08-27T14:24:22Z</time>
      </trkpt>
      <trkpt lat="44.00665" lon="7.42946">
        <ele>1974.5</ele>
        <time>2017-08-27T14:24:36Z</time>
      </trkpt>
      <trkpt lat="44.00649" lon="7.42951">
        <ele>1973.3</ele>
        <time>2017-08-27T14:24:51Z</time>
      </trkpt>
      <trkpt lat="44.00634" lon="7.42962">
        <ele>1973</ele>
        <time>2017-08-27T14:25:05Z</time>
      </trkpt>
      <trkpt lat="44.00622" lon="7.42982">
        <ele>1974.3</ele>
        <time>2017-08-27T14:25:21Z</time>
      </trkpt>
      <trkpt lat="44.00613" lon="7.43003">
        <ele>1976.1</ele>
        <time>2017-08-27T14:25:35Z</time>
      </trkpt>
      <trkpt lat="44.00601" lon="7.43017">
        <ele>1974</ele>
        <time>2017-08-27T14:25:48Z</time>
      </trkpt>
      <trkpt lat="44.00587" lon="7.43033">
        <ele>1973.1</ele>
        <time>2017-08-27T14:26:03Z</time>
      </trkpt>
      <trkpt lat="44.00574" lon="7.43051">
        <ele>1976.1</ele>
        <time>2017-08-27T14:26:19Z</time>
      </trkpt>
      <trkpt lat="44.00557" lon="7.4306">
        <ele>1975.8</ele>
        <time>2017-08-27T14:26:35Z</time>
      </trkpt>
      <trkpt lat="44.00537" lon="7.43069">
        <ele>1975.9</ele>
        <time>2017-08-27T14:26:54Z</time>
      </trkpt>
      <trkpt lat="44.00518" lon="7.43078">
        <ele>1976.5</ele>
        <time>2017-08-27T14:27:11Z</time>
      </trkpt>
      <trkpt lat="44.00501" lon="7.43086">
        <ele>1976.7</ele>
        <time>2017-08-27T14:27:26Z</time>
      </trkpt>
      <trkpt lat="44.00484" lon="7.43093">
        <ele>1976.8</ele>
        <time>2017-08-27T14:27:41Z</time>
      </trkpt>
      <trkpt lat="44.00466" lon="7.43101">
        <ele>1977.2</ele>
        <time>2017-08-27T14:27:57Z</time>
      </trkpt>
      <trkpt lat="44.00457" lon="7.43107">
        <ele>1978.5</ele>
        <time>2017-08-27T14:28:06Z</time>
      </trkpt>
      <trkpt lat="44.00445" lon="7.43114">
        <ele>1979.7</ele>
        <time>2017-08-27T14:28:18Z</time>
      </trkpt>
      <trkpt lat="44.00428" lon="7.43121">
        <ele>1981.4</ele>
        <time>2017-08-27T14:28:33Z</time>
      </trkpt>
      <trkpt lat="44.00409" lon="7.43124">
        <ele>1981.3</ele>
        <time>2017-08-27T14:28:48Z</time>
      </trkpt>
      <trkpt lat="44.00407" lon="7.43124">
        <ele>1981.3</ele>
        <time>2017-08-27T14:28:50Z</time>
      </trkpt>
      <trkpt lat="44.00388" lon="7.43126">
        <ele>1982.1</ele>
        <time>2017-08-27T14:29:07Z</time>
      </trkpt>
      <trkpt lat="44.00386" lon="7.43127">
        <ele>1982.7</ele>
        <time>2017-08-27T14:29:09Z</time>
      </trkpt>
      <trkpt lat="44.0037" lon="7.43132">
        <ele>1986</ele>
        <time>2017-08-27T14:29:27Z</time>
      </trkpt>
      <trkpt lat="44.0036" lon="7.43136">
        <ele>1988.4</ele>
        <time>2017-08-27T14:29:41Z</time>
      </trkpt>
      <trkpt lat="44.00345" lon="7.43139">
        <ele>1989.5</ele>
        <time>2017-08-27T14:29:56Z</time>
      </trkpt>
      <trkpt lat="44.00333" lon="7.43146">
        <ele>1992.6</ele>
        <time>2017-08-27T14:30:12Z</time>
      </trkpt>
      <trkpt lat="44.00327" lon="7.43148">
        <ele>1993.6</ele>
        <time>2017-08-27T14:30:28Z</time>
      </trkpt>
      <trkpt lat="44.00313" lon="7.43149">
        <ele>1994.1</ele>
        <time>2017-08-27T14:30:41Z</time>
      </trkpt>
      <trkpt lat="44.00305" lon="7.43151">
        <ele>1995.1</ele>
        <time>2017-08-27T14:30:49Z</time>
      </trkpt>
      <trkpt lat="44.00302" lon="7.43153">
        <ele>1996.2</ele>
        <time>2017-08-27T14:30:53Z</time>
      </trkpt>
      <trkpt lat="44.00287" lon="7.43158">
        <ele>1999.1</ele>
        <time>2017-08-27T14:31:09Z</time>
      </trkpt>
      <trkpt lat="44.00272" lon="7.43161">
        <ele>2000.9</ele>
        <time>2017-08-27T14:31:25Z</time>
      </trkpt>
      <trkpt lat="44.0026" lon="7.43165">
        <ele>2003.1</ele>
        <time>2017-08-27T14:31:38Z</time>
      </trkpt>
      <trkpt lat="44.00243" lon="7.43172">
        <ele>2006.5</ele>
        <time>2017-08-27T14:31:55Z</time>
      </trkpt>
      <trkpt lat="44.0024" lon="7.43172">
        <ele>2006.4</ele>
        <time>2017-08-27T14:31:58Z</time>
      </trkpt>
      <trkpt lat="44.00237" lon="7.43175">
        <ele>2007.9</ele>
        <time>2017-08-27T14:32:02Z</time>
      </trkpt>
      <trkpt lat="44.00221" lon="7.43178">
        <ele>2009.2</ele>
        <time>2017-08-27T14:32:18Z</time>
      </trkpt>
      <trkpt lat="44.00207" lon="7.43181">
        <ele>2012.1</ele>
        <time>2017-08-27T14:32:33Z</time>
      </trkpt>
      <trkpt lat="44.00195" lon="7.43184">
        <ele>2014.7</ele>
        <time>2017-08-27T14:32:48Z</time>
      </trkpt>
      <trkpt lat="44.0018" lon="7.43188">
        <ele>2017.2</ele>
        <time>2017-08-27T14:33:05Z</time>
      </trkpt>
      <trkpt lat="44.00168" lon="7.43193">
        <ele>2020.2</ele>
        <time>2017-08-27T14:33:21Z</time>
      </trkpt>
      <trkpt lat="44.00156" lon="7.43196">
        <ele>2022.9</ele>
        <time>2017-08-27T14:33:35Z</time>
      </trkpt>
      <trkpt lat="44.00143" lon="7.43199">
        <ele>2025.7</ele>
        <time>2017-08-27T14:33:51Z</time>
      </trkpt>
      <trkpt lat="44.00131" lon="7.43199">
        <ele>2027.5</ele>
        <time>2017-08-27T14:34:06Z</time>
      </trkpt>
      <trkpt lat="44.00117" lon="7.43202">
        <ele>2031.3</ele>
        <time>2017-08-27T14:34:23Z</time>
      </trkpt>
      <trkpt lat="44.00107" lon="7.43205">
        <ele>2034.3</ele>
        <time>2017-08-27T14:34:38Z</time>
      </trkpt>
      <trkpt lat="44.00094" lon="7.43212">
        <ele>2039.5</ele>
        <time>2017-08-27T14:34:54Z</time>
      </trkpt>
      <trkpt lat="44.00081" lon="7.43219">
        <ele>2045</ele>
        <time>2017-08-27T14:35:08Z</time>
      </trkpt>
      <trkpt lat="44.00068" lon="7.43229">
        <ele>2053.6</ele>
        <time>2017-08-27T14:35:25Z</time>
      </trkpt>
      <trkpt lat="44.0006" lon="7.43228">
        <ele>2056.4</ele>
        <time>2017-08-27T14:35:33Z</time>
      </trkpt>
      <trkpt lat="44.00051" lon="7.4322">
        <ele>2057.8</ele>
        <time>2017-08-27T14:35:45Z</time>
      </trkpt>
      <trkpt lat="44.00049" lon="7.43212">
        <ele>2056.2</ele>
        <time>2017-08-27T14:35:52Z</time>
      </trkpt>
      <trkpt lat="44.00046" lon="7.43196">
        <ele>2053.4</ele>
        <time>2017-08-27T14:36:07Z</time>
      </trkpt>
      <trkpt lat="44.00045" lon="7.43187">
        <ele>2052.1</ele>
        <time>2017-08-27T14:36:14Z</time>
      </trkpt>
      <trkpt lat="44.00043" lon="7.43184">
        <ele>2052.2</ele>
        <time>2017-08-27T14:36:17Z</time>
      </trkpt>
      <trkpt lat="44.00035" lon="7.43174">
        <ele>2052.8</ele>
        <time>2017-08-27T14:36:33Z</time>
      </trkpt>
      <trkpt lat="44.00035" lon="7.43176">
        <ele>2053.1</ele>
        <time>2017-08-27T14:36:50Z</time>
      </trkpt>
      <trkpt lat="44.00035" lon="7.43176">
        <ele>2053.1</ele>
        <time>2017-08-27T14:37:11Z</time>
      </trkpt>
      <trkpt lat="44.00035" lon="7.43176">
        <ele>2053.1</ele>
        <time>2017-08-27T14:37:37Z</time>
      </trkpt>
      <trkpt lat="44.00035" lon="7.43176">
        <ele>2053.1</ele>
        <time>2017-08-27T14:37:52Z</time>
      </trkpt>
      <trkpt lat="44.00035" lon="7.43176">
        <ele>2053.1</ele>
        <time>2017-08-27T14:38:12Z</time>
      </trkpt>
      <trkpt lat="44.00034" lon="7.43177">
        <ele>2053.5</ele>
        <time>2017-08-27T14:38:29Z</time>
      </trkpt>
      <trkpt lat="44.00034" lon="7.43177">
        <ele>2053.5</ele>
        <time>2017-08-27T14:38:53Z</time>
      </trkpt>
      <trkpt lat="44.00034" lon="7.43177">
        <ele>2053.5</ele>
        <time>2017-08-27T14:39:27Z</time>
      </trkpt>
      <trkpt lat="44.00034" lon="7.43177">
        <ele>2053.5</ele>
        <time>2017-08-27T14:39:58Z</time>
      </trkpt>
      <trkpt lat="44.00034" lon="7.43177">
        <ele>2053.5</ele>
        <time>2017-08-27T14:40:20Z</time>
      </trkpt>
      <trkpt lat="44.00034" lon="7.43177">
        <ele>2053.5</ele>
        <time>2017-08-27T14:40:52Z</time>
      </trkpt>
      <trkpt lat="44.00034" lon="7.43177">
        <ele>2053.5</ele>
        <time>2017-08-27T14:41:13Z</time>
      </trkpt>
      <trkpt lat="44.00034" lon="7.43177">
        <ele>2053.5</ele>
        <time>2017-08-27T14:41:39Z</time>
      </trkpt>
      <trkpt lat="44.00034" lon="7.43177">
        <ele>2053.5</ele>
        <time>2017-08-27T14:42:09Z</time>
      </trkpt>
      <trkpt lat="44.00034" lon="7.43177">
        <ele>2053.5</ele>
        <time>2017-08-27T14:42:37Z</time>
      </trkpt>
      <trkpt lat="44.00034" lon="7.43177">
        <ele>2053.5</ele>
        <time>2017-08-27T14:43:07Z</time>
      </trkpt>
      <trkpt lat="44.00035" lon="7.43175">
        <ele>2053</ele>
        <time>2017-08-27T14:43:09Z</time>
      </trkpt>
      <trkpt lat="44.00036" lon="7.43171">
        <ele>2052.2</ele>
        <time>2017-08-27T14:43:12Z</time>
      </trkpt>
      <trkpt lat="44.00032" lon="7.4316">
        <ele>2052.8</ele>
        <time>2017-08-27T14:43:28Z</time>
      </trkpt>
      <trkpt lat="44.0003" lon="7.43153">
        <ele>2053.4</ele>
        <time>2017-08-27T14:43:38Z</time>
      </trkpt>
      <trkpt lat="44.00025" lon="7.43141">
        <ele>2053.5</ele>
        <time>2017-08-27T14:43:53Z</time>
      </trkpt>
      <trkpt lat="44.00026" lon="7.43143">
        <ele>2053.7</ele>
        <time>2017-08-27T14:43:58Z</time>
      </trkpt>
      <trkpt lat="44.00032" lon="7.43145">
        <ele>2052.8</ele>
        <time>2017-08-27T14:44:06Z</time>
      </trkpt>
      <trkpt lat="44.00033" lon="7.43144">
        <ele>2052.5</ele>
        <time>2017-08-27T14:44:08Z</time>
      </trkpt>
      <trkpt lat="44.00032" lon="7.43139">
        <ele>2052.8</ele>
        <time>2017-08-27T14:44:13Z</time>
      </trkpt>
      <trkpt lat="44.00033" lon="7.43136">
        <ele>2052.6</ele>
        <time>2017-08-27T14:44:15Z</time>
      </trkpt>
      <trkpt lat="44.00033" lon="7.4312">
        <ele>2053.2</ele>
        <time>2017-08-27T14:44:28Z</time>
      </trkpt>
      <trkpt lat="44.00032" lon="7.43114">
        <ele>2053.7</ele>
        <time>2017-08-27T14:44:32Z</time>
      </trkpt>
      <trkpt lat="44.00032" lon="7.43095">
        <ele>2055</ele>
        <time>2017-08-27T14:44:47Z</time>
      </trkpt>
      <trkpt lat="44.0003" lon="7.43078">
        <ele>2056.8</ele>
        <time>2017-08-27T14:45:01Z</time>
      </trkpt>
      <trkpt lat="44.00027" lon="7.43067">
        <ele>2058.1</ele>
        <time>2017-08-27T14:45:14Z</time>
      </trkpt>
      <trkpt lat="44.0002" lon="7.43046">
        <ele>2058.4</ele>
        <time>2017-08-27T14:45:29Z</time>
      </trkpt>
      <trkpt lat="44.00014" lon="7.43025">
        <ele>2059.1</ele>
        <time>2017-08-27T14:45:43Z</time>
      </trkpt>
      <trkpt lat="44.00012" lon="7.43021">
        <ele>2059.1</ele>
        <time>2017-08-27T14:45:46Z</time>
      </trkpt>
      <trkpt lat="44.0001" lon="7.43015">
        <ele>2059.3</ele>
        <time>2017-08-27T14:45:50Z</time>
      </trkpt>
      <trkpt lat="44" lon="7.42993">
        <ele>2059.5</ele>
        <time>2017-08-27T14:46:07Z</time>
      </trkpt>
      <trkpt lat="43.99994" lon="7.42975">
        <ele>2058.2</ele>
        <time>2017-08-27T14:46:21Z</time>
      </trkpt>
      <trkpt lat="43.99992" lon="7.42969">
        <ele>2057.7</ele>
        <time>2017-08-27T14:46:26Z</time>
      </trkpt>
      <trkpt lat="43.99988" lon="7.42957">
        <ele>2056.4</ele>
        <time>2017-08-27T14:46:41Z</time>
      </trkpt>
      <trkpt lat="43.99988" lon="7.42956">
        <ele>2056.2</ele>
        <time>2017-08-27T14:46:42Z</time>
      </trkpt>
      <trkpt lat="43.99984" lon="7.42941">
        <ele>2054.6</ele>
        <time>2017-08-27T14:46:52Z</time>
      </trkpt>
      <trkpt lat="43.99981" lon="7.42936">
        <ele>2054</ele>
        <time>2017-08-27T14:46:56Z</time>
      </trkpt>
      <trkpt lat="43.9998" lon="7.42932">
        <ele>2053.5</ele>
        <time>2017-08-27T14:46:59Z</time>
      </trkpt>
      <trkpt lat="43.99979" lon="7.42927">
        <ele>2053</ele>
        <time>2017-08-27T14:47:03Z</time>
      </trkpt>
      <trkpt lat="43.99977" lon="7.4292">
        <ele>2052.2</ele>
        <time>2017-08-27T14:47:08Z</time>
      </trkpt>
      <trkpt lat="43.99975" lon="7.42906">
        <ele>2051.1</ele>
        <time>2017-08-27T14:47:17Z</time>
      </trkpt>
      <trkpt lat="43.99973" lon="7.42894">
        <ele>2050.3</ele>
        <time>2017-08-27T14:47:26Z</time>
      </trkpt>
      <trkpt lat="43.9997" lon="7.42866">
        <ele>2048.2</ele>
        <time>2017-08-27T14:47:43Z</time>
      </trkpt>
      <trkpt lat="43.9997" lon="7.42846">
        <ele>2046.1</ele>
        <time>2017-08-27T14:47:56Z</time>
      </trkpt>
      <trkpt lat="43.99968" lon="7.42834">
        <ele>2045.4</ele>
        <time>2017-08-27T14:48:04Z</time>
      </trkpt>
      <trkpt lat="43.99968" lon="7.42817">
        <ele>2044</ele>
        <time>2017-08-27T14:48:14Z</time>
      </trkpt>
      <trkpt lat="43.99968" lon="7.42787">
        <ele>2042.4</ele>
        <time>2017-08-27T14:48:32Z</time>
      </trkpt>
      <trkpt lat="43.99968" lon="7.42786">
        <ele>2042.4</ele>
        <time>2017-08-27T14:48:53Z</time>
      </trkpt>
      <trkpt lat="43.99968" lon="7.4276">
        <ele>2042.7</ele>
        <time>2017-08-27T14:49:08Z</time>
      </trkpt>
      <trkpt lat="43.99965" lon="7.42734">
        <ele>2045.3</ele>
        <time>2017-08-27T14:49:23Z</time>
      </trkpt>
      <trkpt lat="43.99952" lon="7.42715">
        <ele>2051.9</ele>
        <time>2017-08-27T14:49:38Z</time>
      </trkpt>
      <trkpt lat="43.99933" lon="7.42694">
        <ele>2058.3</ele>
        <time>2017-08-27T14:49:59Z</time>
      </trkpt>
      <trkpt lat="43.99922" lon="7.42681">
        <ele>2060.2</ele>
        <time>2017-08-27T14:50:13Z</time>
      </trkpt>
      <trkpt lat="43.99912" lon="7.42666">
        <ele>2062.5</ele>
        <time>2017-08-27T14:50:28Z</time>
      </trkpt>
      <trkpt lat="43.99894" lon="7.42654">
        <ele>2062.8</ele>
        <time>2017-08-27T14:50:46Z</time>
      </trkpt>
      <trkpt lat="43.99878" lon="7.42643">
        <ele>2062.3</ele>
        <time>2017-08-27T14:51:02Z</time>
      </trkpt>
      <trkpt lat="43.99871" lon="7.42638">
        <ele>2061.6</ele>
        <time>2017-08-27T14:51:08Z</time>
      </trkpt>
      <trkpt lat="43.99857" lon="7.42612">
        <ele>2061.8</ele>
        <time>2017-08-27T14:51:27Z</time>
      </trkpt>
      <trkpt lat="43.99845" lon="7.42587">
        <ele>2061.2</ele>
        <time>2017-08-27T14:51:43Z</time>
      </trkpt>
      <trkpt lat="43.9983" lon="7.42563">
        <ele>2060.1</ele>
        <time>2017-08-27T14:52:01Z</time>
      </trkpt>
      <trkpt lat="43.99809" lon="7.42552">
        <ele>2058.2</ele>
        <time>2017-08-27T14:52:18Z</time>
      </trkpt>
      <trkpt lat="43.9979" lon="7.42549">
        <ele>2058.2</ele>
        <time>2017-08-27T14:52:33Z</time>
      </trkpt>
      <trkpt lat="43.99789" lon="7.42549">
        <ele>2058.2</ele>
        <time>2017-08-27T14:52:34Z</time>
      </trkpt>
      <trkpt lat="43.99785" lon="7.42542">
        <ele>2057.9</ele>
        <time>2017-08-27T14:52:47Z</time>
      </trkpt>
      <trkpt lat="43.99779" lon="7.42536">
        <ele>2057.6</ele>
        <time>2017-08-27T14:53:00Z</time>
      </trkpt>
      <trkpt lat="43.99777" lon="7.42535">
        <ele>2057.6</ele>
        <time>2017-08-27T14:53:18Z</time>
      </trkpt>
      <trkpt lat="43.9976" lon="7.42527">
        <ele>2059.4</ele>
        <time>2017-08-27T14:53:34Z</time>
      </trkpt>
      <trkpt lat="43.99747" lon="7.42509">
        <ele>2059.2</ele>
        <time>2017-08-27T14:53:50Z</time>
      </trkpt>
      <trkpt lat="43.99747" lon="7.42509">
        <ele>2059.2</ele>
        <time>2017-08-27T14:53:51Z</time>
      </trkpt>
      <trkpt lat="43.9974" lon="7.425">
        <ele>2060.2</ele>
        <time>2017-08-27T14:53:58Z</time>
      </trkpt>
      <trkpt lat="43.99735" lon="7.42495">
        <ele>2060.9</ele>
        <time>2017-08-27T14:54:03Z</time>
      </trkpt>
      <trkpt lat="43.99724" lon="7.42466">
        <ele>2058.4</ele>
        <time>2017-08-27T14:54:22Z</time>
      </trkpt>
      <trkpt lat="43.99714" lon="7.42444">
        <ele>2053.3</ele>
        <time>2017-08-27T14:54:39Z</time>
      </trkpt>
      <trkpt lat="43.997" lon="7.42432">
        <ele>2052.1</ele>
        <time>2017-08-27T14:54:54Z</time>
      </trkpt>
      <trkpt lat="43.99699" lon="7.4243">
        <ele>2051.8</ele>
        <time>2017-08-27T14:54:56Z</time>
      </trkpt>
      <trkpt lat="43.99695" lon="7.4242">
        <ele>2049.8</ele>
        <time>2017-08-27T14:55:05Z</time>
      </trkpt>
      <trkpt lat="43.99689" lon="7.42405">
        <ele>2045.7</ele>
        <time>2017-08-27T14:55:19Z</time>
      </trkpt>
      <trkpt lat="43.99685" lon="7.42398">
        <ele>2044.2</ele>
        <time>2017-08-27T14:55:25Z</time>
      </trkpt>
      <trkpt lat="43.99685" lon="7.42396">
        <ele>2043.9</ele>
        <time>2017-08-27T14:55:26Z</time>
      </trkpt>
      <trkpt lat="43.99672" lon="7.42375">
        <ele>2042</ele>
        <time>2017-08-27T14:55:43Z</time>
      </trkpt>
      <trkpt lat="43.99663" lon="7.42355">
        <ele>2040.2</ele>
        <time>2017-08-27T14:55:57Z</time>
      </trkpt>
      <trkpt lat="43.99652" lon="7.42335">
        <ele>2038</ele>
        <time>2017-08-27T14:56:12Z</time>
      </trkpt>
      <trkpt lat="43.99641" lon="7.42308">
        <ele>2036.7</ele>
        <time>2017-08-27T14:56:29Z</time>
      </trkpt>
      <trkpt lat="43.9964" lon="7.42305">
        <ele>2036.7</ele>
        <time>2017-08-27T14:56:45Z</time>
      </trkpt>
      <trkpt lat="43.99638" lon="7.42299">
        <ele>2036</ele>
        <time>2017-08-27T14:56:59Z</time>
      </trkpt>
      <trkpt lat="43.99633" lon="7.42287">
        <ele>2033.6</ele>
        <time>2017-08-27T14:57:07Z</time>
      </trkpt>
      <trkpt lat="43.99626" lon="7.42273">
        <ele>2031</ele>
        <time>2017-08-27T14:57:18Z</time>
      </trkpt>
      <trkpt lat="43.99621" lon="7.42268">
        <ele>2029.8</ele>
        <time>2017-08-27T14:57:23Z</time>
      </trkpt>
      <trkpt lat="43.9962" lon="7.42265">
        <ele>2029.4</ele>
        <time>2017-08-27T14:57:25Z</time>
      </trkpt>
      <trkpt lat="43.99618" lon="7.42249">
        <ele>2027.9</ele>
        <time>2017-08-27T14:57:41Z</time>
      </trkpt>
      <trkpt lat="43.99616" lon="7.42233">
        <ele>2026.5</ele>
        <time>2017-08-27T14:57:55Z</time>
      </trkpt>
      <trkpt lat="43.99617" lon="7.42227">
        <ele>2025.8</ele>
        <time>2017-08-27T14:57:59Z</time>
      </trkpt>
      <trkpt lat="43.99617" lon="7.42202">
        <ele>2022.3</ele>
        <time>2017-08-27T14:58:15Z</time>
      </trkpt>
      <trkpt lat="43.99616" lon="7.42178">
        <ele>2018.5</ele>
        <time>2017-08-27T14:58:28Z</time>
      </trkpt>
      <trkpt lat="43.99618" lon="7.42171">
        <ele>2017.2</ele>
        <time>2017-08-27T14:58:32Z</time>
      </trkpt>
      <trkpt lat="43.99621" lon="7.42139">
        <ele>2011.3</ele>
        <time>2017-08-27T14:58:51Z</time>
      </trkpt>
      <trkpt lat="43.99622" lon="7.4212">
        <ele>2007.5</ele>
        <time>2017-08-27T14:59:07Z</time>
      </trkpt>
      <trkpt lat="43.99623" lon="7.42118">
        <ele>2007.2</ele>
        <time>2017-08-27T14:59:14Z</time>
      </trkpt>
      <trkpt lat="43.99626" lon="7.4211">
        <ele>2005.9</ele>
        <time>2017-08-27T14:59:19Z</time>
      </trkpt>
      <trkpt lat="43.99635" lon="7.42092">
        <ele>2004.2</ele>
        <time>2017-08-27T14:59:32Z</time>
      </trkpt>
      <trkpt lat="43.99635" lon="7.4207">
        <ele>2000.4</ele>
        <time>2017-08-27T14:59:45Z</time>
      </trkpt>
      <trkpt lat="43.99638" lon="7.42062">
        <ele>1999.9</ele>
        <time>2017-08-27T14:59:50Z</time>
      </trkpt>
      <trkpt lat="43.99641" lon="7.42054">
        <ele>1998.4</ele>
        <time>2017-08-27T14:59:55Z</time>
      </trkpt>
      <trkpt lat="43.99645" lon="7.42039">
        <ele>1995.1</ele>
        <time>2017-08-27T15:00:05Z</time>
      </trkpt>
      <trkpt lat="43.99649" lon="7.42028">
        <ele>1993</ele>
        <time>2017-08-27T15:00:12Z</time>
      </trkpt>
      <trkpt lat="43.99651" lon="7.42023">
        <ele>1992.3</ele>
        <time>2017-08-27T15:00:15Z</time>
      </trkpt>
      <trkpt lat="43.99653" lon="7.41998">
        <ele>1988.7</ele>
        <time>2017-08-27T15:00:29Z</time>
      </trkpt>
      <trkpt lat="43.99652" lon="7.41988">
        <ele>1986.9</ele>
        <time>2017-08-27T15:00:35Z</time>
      </trkpt>
      <trkpt lat="43.99655" lon="7.41983">
        <ele>1986.7</ele>
        <time>2017-08-27T15:00:38Z</time>
      </trkpt>
      <trkpt lat="43.99659" lon="7.41958">
        <ele>1983.6</ele>
        <time>2017-08-27T15:00:52Z</time>
      </trkpt>
      <trkpt lat="43.99667" lon="7.41932">
        <ele>1982.2</ele>
        <time>2017-08-27T15:01:08Z</time>
      </trkpt>
      <trkpt lat="43.99672" lon="7.41911">
        <ele>1978.7</ele>
        <time>2017-08-27T15:01:22Z</time>
      </trkpt>
      <trkpt lat="43.99675" lon="7.4189">
        <ele>1976.5</ele>
        <time>2017-08-27T15:01:34Z</time>
      </trkpt>
      <trkpt lat="43.99678" lon="7.41876">
        <ele>1974.9</ele>
        <time>2017-08-27T15:01:42Z</time>
      </trkpt>
      <trkpt lat="43.99679" lon="7.4187">
        <ele>1974.3</ele>
        <time>2017-08-27T15:01:46Z</time>
      </trkpt>
      <trkpt lat="43.99677" lon="7.4186">
        <ele>1973.2</ele>
        <time>2017-08-27T15:01:59Z</time>
      </trkpt>
      <trkpt lat="43.99678" lon="7.4186">
        <ele>1973.3</ele>
        <time>2017-08-27T15:02:15Z</time>
      </trkpt>
      <trkpt lat="43.9968" lon="7.41836">
        <ele>1970.3</ele>
        <time>2017-08-27T15:02:27Z</time>
      </trkpt>
      <trkpt lat="43.9968" lon="7.41829">
        <ele>1969.4</ele>
        <time>2017-08-27T15:02:31Z</time>
      </trkpt>
      <trkpt lat="43.99682" lon="7.418">
        <ele>1965.8</ele>
        <time>2017-08-27T15:02:48Z</time>
      </trkpt>
      <trkpt lat="43.99684" lon="7.41776">
        <ele>1962.6</ele>
        <time>2017-08-27T15:03:00Z</time>
      </trkpt>
      <trkpt lat="43.99685" lon="7.41754">
        <ele>1959.6</ele>
        <time>2017-08-27T15:03:13Z</time>
      </trkpt>
      <trkpt lat="43.99684" lon="7.41733">
        <ele>1956.8</ele>
        <time>2017-08-27T15:03:26Z</time>
      </trkpt>
      <trkpt lat="43.99683" lon="7.41726">
        <ele>1955.8</ele>
        <time>2017-08-27T15:03:30Z</time>
      </trkpt>
      <trkpt lat="43.99682" lon="7.41696">
        <ele>1952.7</ele>
        <time>2017-08-27T15:03:46Z</time>
      </trkpt>
      <trkpt lat="43.99675" lon="7.41675">
        <ele>1950.6</ele>
        <time>2017-08-27T15:04:00Z</time>
      </trkpt>
      <trkpt lat="43.99675" lon="7.41673">
        <ele>1950.4</ele>
        <time>2017-08-27T15:04:01Z</time>
      </trkpt>
      <trkpt lat="43.99671" lon="7.41665">
        <ele>1950.3</ele>
        <time>2017-08-27T15:04:06Z</time>
      </trkpt>
      <trkpt lat="43.99665" lon="7.41636">
        <ele>1949.2</ele>
        <time>2017-08-27T15:04:21Z</time>
      </trkpt>
      <trkpt lat="43.99663" lon="7.41627">
        <ele>1947.9</ele>
        <time>2017-08-27T15:04:26Z</time>
      </trkpt>
      <trkpt lat="43.99659" lon="7.41615">
        <ele>1946.2</ele>
        <time>2017-08-27T15:04:33Z</time>
      </trkpt>
      <trkpt lat="43.99657" lon="7.41606">
        <ele>1945.1</ele>
        <time>2017-08-27T15:04:46Z</time>
      </trkpt>
      <trkpt lat="43.99654" lon="7.41598">
        <ele>1944</ele>
        <time>2017-08-27T15:04:51Z</time>
      </trkpt>
      <trkpt lat="43.9965" lon="7.41579">
        <ele>1942.3</ele>
        <time>2017-08-27T15:05:02Z</time>
      </trkpt>
      <trkpt lat="43.99647" lon="7.41552">
        <ele>1939.2</ele>
        <time>2017-08-27T15:05:17Z</time>
      </trkpt>
      <trkpt lat="43.99642" lon="7.41532">
        <ele>1936.8</ele>
        <time>2017-08-27T15:05:31Z</time>
      </trkpt>
      <trkpt lat="43.9964" lon="7.41523">
        <ele>1935.1</ele>
        <time>2017-08-27T15:05:36Z</time>
      </trkpt>
      <trkpt lat="43.99639" lon="7.41516">
        <ele>1933.2</ele>
        <time>2017-08-27T15:05:40Z</time>
      </trkpt>
      <trkpt lat="43.99639" lon="7.41514">
        <ele>1932.5</ele>
        <time>2017-08-27T15:05:41Z</time>
      </trkpt>
      <trkpt lat="43.99629" lon="7.41495">
        <ele>1923.8</ele>
        <time>2017-08-27T15:05:51Z</time>
      </trkpt>
      <trkpt lat="43.99625" lon="7.41483">
        <ele>1919.3</ele>
        <time>2017-08-27T15:05:57Z</time>
      </trkpt>
      <trkpt lat="43.99623" lon="7.41475">
        <ele>1916.8</ele>
        <time>2017-08-27T15:06:02Z</time>
      </trkpt>
      <trkpt lat="43.99623" lon="7.41473">
        <ele>1916.2</ele>
        <time>2017-08-27T15:06:03Z</time>
      </trkpt>
      <trkpt lat="43.9962" lon="7.41458">
        <ele>1911.8</ele>
        <time>2017-08-27T15:06:11Z</time>
      </trkpt>
      <trkpt lat="43.99619" lon="7.41452">
        <ele>1910.2</ele>
        <time>2017-08-27T15:06:14Z</time>
      </trkpt>
      <trkpt lat="43.99615" lon="7.41447">
        <ele>1909.7</ele>
        <time>2017-08-27T15:06:18Z</time>
      </trkpt>
      <trkpt lat="43.99612" lon="7.41437">
        <ele>1907.8</ele>
        <time>2017-08-27T15:06:24Z</time>
      </trkpt>
      <trkpt lat="43.99608" lon="7.41428">
        <ele>1905</ele>
        <time>2017-08-27T15:06:30Z</time>
      </trkpt>
      <trkpt lat="43.99601" lon="7.41413">
        <ele>1900.7</ele>
        <time>2017-08-27T15:06:40Z</time>
      </trkpt>
      <trkpt lat="43.996" lon="7.41411">
        <ele>1900.3</ele>
        <time>2017-08-27T15:06:42Z</time>
      </trkpt>
      <trkpt lat="43.99596" lon="7.41406">
        <ele>1899.4</ele>
        <time>2017-08-27T15:06:46Z</time>
      </trkpt>
      <trkpt lat="43.99592" lon="7.41396">
        <ele>1898.7</ele>
        <time>2017-08-27T15:06:53Z</time>
      </trkpt>
      <trkpt lat="43.99588" lon="7.41378">
        <ele>1896.8</ele>
        <time>2017-08-27T15:07:04Z</time>
      </trkpt>
      <trkpt lat="43.99586" lon="7.41371">
        <ele>1895.9</ele>
        <time>2017-08-27T15:07:08Z</time>
      </trkpt>
      <trkpt lat="43.99574" lon="7.4135">
        <ele>1890.8</ele>
        <time>2017-08-27T15:07:22Z</time>
      </trkpt>
      <trkpt lat="43.99571" lon="7.41334">
        <ele>1888.7</ele>
        <time>2017-08-27T15:07:32Z</time>
      </trkpt>
      <trkpt lat="43.99561" lon="7.41317">
        <ele>1886.8</ele>
        <time>2017-08-27T15:07:46Z</time>
      </trkpt>
      <trkpt lat="43.99559" lon="7.41314">
        <ele>1886.8</ele>
        <time>2017-08-27T15:07:54Z</time>
      </trkpt>
      <trkpt lat="43.99559" lon="7.41314">
        <ele>1886.8</ele>
        <time>2017-08-27T15:07:55Z</time>
      </trkpt>
      <trkpt lat="43.99552" lon="7.41313">
        <ele>1885.8</ele>
        <time>2017-08-27T15:08:03Z</time>
      </trkpt>
      <trkpt lat="43.9955" lon="7.41308">
        <ele>1885.3</ele>
        <time>2017-08-27T15:08:06Z</time>
      </trkpt>
      <trkpt lat="43.99548" lon="7.41298">
        <ele>1884.4</ele>
        <time>2017-08-27T15:08:13Z</time>
      </trkpt>
      <trkpt lat="43.99547" lon="7.41288">
        <ele>1883.6</ele>
        <time>2017-08-27T15:08:21Z</time>
      </trkpt>
      <trkpt lat="43.99544" lon="7.41286">
        <ele>1883</ele>
        <time>2017-08-27T15:08:35Z</time>
      </trkpt>
      <trkpt lat="43.99543" lon="7.41283">
        <ele>1882.8</ele>
        <time>2017-08-27T15:08:55Z</time>
      </trkpt>
      <trkpt lat="43.99543" lon="7.41283">
        <ele>1882.8</ele>
        <time>2017-08-27T15:09:17Z</time>
      </trkpt>
      <trkpt lat="43.99542" lon="7.41283">
        <ele>1882.6</ele>
        <time>2017-08-27T15:09:33Z</time>
      </trkpt>
      <trkpt lat="43.99541" lon="7.41281">
        <ele>1882.5</ele>
        <time>2017-08-27T15:09:38Z</time>
      </trkpt>
      <trkpt lat="43.99541" lon="7.41276">
        <ele>1882.2</ele>
        <time>2017-08-27T15:09:41Z</time>
      </trkpt>
      <trkpt lat="43.99532" lon="7.41264">
        <ele>1881.3</ele>
        <time>2017-08-27T15:09:57Z</time>
      </trkpt>
      <trkpt lat="43.99529" lon="7.41267">
        <ele>1881.4</ele>
        <time>2017-08-27T15:10:02Z</time>
      </trkpt>
      <trkpt lat="43.99528" lon="7.41254">
        <ele>1881.8</ele>
        <time>2017-08-27T15:10:10Z</time>
      </trkpt>
      <trkpt lat="43.99528" lon="7.41247">
        <ele>1882</ele>
        <time>2017-08-27T15:10:14Z</time>
      </trkpt>
      <trkpt lat="43.99523" lon="7.41224">
        <ele>1880.6</ele>
        <time>2017-08-27T15:10:29Z</time>
      </trkpt>
      <trkpt lat="43.9952" lon="7.41201">
        <ele>1880.1</ele>
        <time>2017-08-27T15:10:44Z</time>
      </trkpt>
      <trkpt lat="43.99513" lon="7.4119">
        <ele>1879.9</ele>
        <time>2017-08-27T15:10:56Z</time>
      </trkpt>
      <trkpt lat="43.9951" lon="7.41174">
        <ele>1881.7</ele>
        <time>2017-08-27T15:11:09Z</time>
      </trkpt>
      <trkpt lat="43.99507" lon="7.4116">
        <ele>1883.3</ele>
        <time>2017-08-27T15:11:20Z</time>
      </trkpt>
      <trkpt lat="43.99496" lon="7.41135">
        <ele>1885.8</ele>
        <time>2017-08-27T15:11:38Z</time>
      </trkpt>
      <trkpt lat="43.99487" lon="7.41112">
        <ele>1886</ele>
        <time>2017-08-27T15:11:53Z</time>
      </trkpt>
      <trkpt lat="43.99479" lon="7.41089">
        <ele>1887.6</ele>
        <time>2017-08-27T15:12:08Z</time>
      </trkpt>
      <trkpt lat="43.99466" lon="7.41063">
        <ele>1890.4</ele>
        <time>2017-08-27T15:12:27Z</time>
      </trkpt>
      <trkpt lat="43.99455" lon="7.4105">
        <ele>1893</ele>
        <time>2017-08-27T15:12:42Z</time>
      </trkpt>
      <trkpt lat="43.99446" lon="7.41038">
        <ele>1897</ele>
        <time>2017-08-27T15:12:58Z</time>
      </trkpt>
      <trkpt lat="43.99435" lon="7.41022">
        <ele>1901</ele>
        <time>2017-08-27T15:13:15Z</time>
      </trkpt>
      <trkpt lat="43.99435" lon="7.41022">
        <ele>1901</ele>
        <time>2017-08-27T15:13:32Z</time>
      </trkpt>
      <trkpt lat="43.99434" lon="7.4102">
        <ele>1901.4</ele>
        <time>2017-08-27T15:13:48Z</time>
      </trkpt>
      <trkpt lat="43.99421" lon="7.40994">
        <ele>1908.1</ele>
        <time>2017-08-27T15:14:06Z</time>
      </trkpt>
      <trkpt lat="43.99414" lon="7.40986">
        <ele>1910.7</ele>
        <time>2017-08-27T15:14:22Z</time>
      </trkpt>
      <trkpt lat="43.99409" lon="7.40978">
        <ele>1912.8</ele>
        <time>2017-08-27T15:14:35Z</time>
      </trkpt>
      <trkpt lat="43.9941" lon="7.40973">
        <ele>1913.8</ele>
        <time>2017-08-27T15:14:41Z</time>
      </trkpt>
      <trkpt lat="43.99407" lon="7.4096">
        <ele>1915.9</ele>
        <time>2017-08-27T15:14:58Z</time>
      </trkpt>
      <trkpt lat="43.99398" lon="7.40957">
        <ele>1917.7</ele>
        <time>2017-08-27T15:15:13Z</time>
      </trkpt>
      <trkpt lat="43.99392" lon="7.40951">
        <ele>1919.5</ele>
        <time>2017-08-27T15:15:25Z</time>
      </trkpt>
      <trkpt lat="43.99388" lon="7.40949">
        <ele>1920.4</ele>
        <time>2017-08-27T15:15:40Z</time>
      </trkpt>
      <trkpt lat="43.99365" lon="7.40944">
        <ele>1922.7</ele>
        <time>2017-08-27T15:15:59Z</time>
      </trkpt>
      <trkpt lat="43.99345" lon="7.40939">
        <ele>1920.4</ele>
        <time>2017-08-27T15:16:16Z</time>
      </trkpt>
      <trkpt lat="43.99329" lon="7.40931">
        <ele>1917.4</ele>
        <time>2017-08-27T15:16:32Z</time>
      </trkpt>
      <trkpt lat="43.99325" lon="7.40931">
        <ele>1915.9</ele>
        <time>2017-08-27T15:16:43Z</time>
      </trkpt>
      <trkpt lat="43.99322" lon="7.40931">
        <ele>1914.7</ele>
        <time>2017-08-27T15:17:00Z</time>
      </trkpt>
      <trkpt lat="43.9931" lon="7.40933">
        <ele>1910.3</ele>
        <time>2017-08-27T15:17:13Z</time>
      </trkpt>
      <trkpt lat="43.99307" lon="7.4093">
        <ele>1909</ele>
        <time>2017-08-27T15:17:16Z</time>
      </trkpt>
      <trkpt lat="43.99303" lon="7.40929">
        <ele>1907.2</ele>
        <time>2017-08-27T15:17:20Z</time>
      </trkpt>
      <trkpt lat="43.99299" lon="7.40929">
        <ele>1905.3</ele>
        <time>2017-08-27T15:17:24Z</time>
      </trkpt>
      <trkpt lat="43.9929" lon="7.40924">
        <ele>1901.1</ele>
        <time>2017-08-27T15:17:32Z</time>
      </trkpt>
      <trkpt lat="43.99286" lon="7.40924">
        <ele>1899.3</ele>
        <time>2017-08-27T15:17:37Z</time>
      </trkpt>
      <trkpt lat="43.99275" lon="7.40917">
        <ele>1894.8</ele>
        <time>2017-08-27T15:17:48Z</time>
      </trkpt>
      <trkpt lat="43.99269" lon="7.40913">
        <ele>1891.4</ele>
        <time>2017-08-27T15:17:53Z</time>
      </trkpt>
      <trkpt lat="43.99268" lon="7.40913">
        <ele>1891</ele>
        <time>2017-08-27T15:17:54Z</time>
      </trkpt>
      <trkpt lat="43.99266" lon="7.40912">
        <ele>1890.1</ele>
        <time>2017-08-27T15:17:56Z</time>
      </trkpt>
      <trkpt lat="43.99257" lon="7.40907">
        <ele>1886.1</ele>
        <time>2017-08-27T15:18:04Z</time>
      </trkpt>
      <trkpt lat="43.99253" lon="7.40901">
        <ele>1884.3</ele>
        <time>2017-08-27T15:18:08Z</time>
      </trkpt>
      <trkpt lat="43.99247" lon="7.40898">
        <ele>1882.7</ele>
        <time>2017-08-27T15:18:14Z</time>
      </trkpt>
      <trkpt lat="43.9924" lon="7.40898">
        <ele>1881.2</ele>
        <time>2017-08-27T15:18:23Z</time>
      </trkpt>
      <trkpt lat="43.99237" lon="7.40899">
        <ele>1880.5</ele>
        <time>2017-08-27T15:18:42Z</time>
      </trkpt>
      <trkpt lat="43.99237" lon="7.40898">
        <ele>1880.5</ele>
        <time>2017-08-27T15:18:49Z</time>
      </trkpt>
      <trkpt lat="43.99216" lon="7.4088">
        <ele>1876.3</ele>
        <time>2017-08-27T15:19:08Z</time>
      </trkpt>
      <trkpt lat="43.99199" lon="7.40858">
        <ele>1874.5</ele>
        <time>2017-08-27T15:19:26Z</time>
      </trkpt>
      <trkpt lat="43.99199" lon="7.40857">
        <ele>1874.3</ele>
        <time>2017-08-27T15:19:47Z</time>
      </trkpt>
      <trkpt lat="43.99197" lon="7.40854">
        <ele>1874</ele>
        <time>2017-08-27T15:20:00Z</time>
      </trkpt>
      <trkpt lat="43.99177" lon="7.40833">
        <ele>1872.5</ele>
        <time>2017-08-27T15:20:20Z</time>
      </trkpt>
      <trkpt lat="43.99155" lon="7.40813">
        <ele>1869.8</ele>
        <time>2017-08-27T15:20:41Z</time>
      </trkpt>
      <trkpt lat="43.99135" lon="7.40796">
        <ele>1867</ele>
        <time>2017-08-27T15:21:00Z</time>
      </trkpt>
      <trkpt lat="43.99116" lon="7.40784">
        <ele>1863.5</ele>
        <time>2017-08-27T15:21:17Z</time>
      </trkpt>
      <trkpt lat="43.99111" lon="7.4078">
        <ele>1863.1</ele>
        <time>2017-08-27T15:21:22Z</time>
      </trkpt>
      <trkpt lat="43.99103" lon="7.40775">
        <ele>1860.2</ele>
        <time>2017-08-27T15:21:32Z</time>
      </trkpt>
      <trkpt lat="43.991" lon="7.4077">
        <ele>1858.2</ele>
        <time>2017-08-27T15:21:35Z</time>
      </trkpt>
      <trkpt lat="43.9909" lon="7.40765">
        <ele>1855.5</ele>
        <time>2017-08-27T15:21:42Z</time>
      </trkpt>
      <trkpt lat="43.99085" lon="7.40762">
        <ele>1854.5</ele>
        <time>2017-08-27T15:21:46Z</time>
      </trkpt>
      <trkpt lat="43.99079" lon="7.40758">
        <ele>1853</ele>
        <time>2017-08-27T15:21:51Z</time>
      </trkpt>
      <trkpt lat="43.9906" lon="7.40747">
        <ele>1849.1</ele>
        <time>2017-08-27T15:22:08Z</time>
      </trkpt>
      <trkpt lat="43.99053" lon="7.40739">
        <ele>1846.8</ele>
        <time>2017-08-27T15:22:23Z</time>
      </trkpt>
      <trkpt lat="43.99048" lon="7.40729">
        <ele>1844.6</ele>
        <time>2017-08-27T15:22:41Z</time>
      </trkpt>
      <trkpt lat="43.9904" lon="7.40721">
        <ele>1842.6</ele>
        <time>2017-08-27T15:22:51Z</time>
      </trkpt>
      <trkpt lat="43.99032" lon="7.40728">
        <ele>1841.6</ele>
        <time>2017-08-27T15:23:02Z</time>
      </trkpt>
      <trkpt lat="43.99032" lon="7.40728">
        <ele>1841.6</ele>
        <time>2017-08-27T15:23:03Z</time>
      </trkpt>
      <trkpt lat="43.99022" lon="7.40706">
        <ele>1838.2</ele>
        <time>2017-08-27T15:23:16Z</time>
      </trkpt>
      <trkpt lat="43.99011" lon="7.4068">
        <ele>1834.1</ele>
        <time>2017-08-27T15:23:32Z</time>
      </trkpt>
      <trkpt lat="43.99003" lon="7.40667">
        <ele>1833</ele>
        <time>2017-08-27T15:23:41Z</time>
      </trkpt>
      <trkpt lat="43.99" lon="7.40661">
        <ele>1832.4</ele>
        <time>2017-08-27T15:23:45Z</time>
      </trkpt>
      <trkpt lat="43.98983" lon="7.40639">
        <ele>1828.8</ele>
        <time>2017-08-27T15:24:02Z</time>
      </trkpt>
      <trkpt lat="43.98971" lon="7.40625">
        <ele>1826.8</ele>
        <time>2017-08-27T15:24:17Z</time>
      </trkpt>
      <trkpt lat="43.98966" lon="7.40619">
        <ele>1825.6</ele>
        <time>2017-08-27T15:24:29Z</time>
      </trkpt>
      <trkpt lat="43.98963" lon="7.40619">
        <ele>1825.2</ele>
        <time>2017-08-27T15:24:52Z</time>
      </trkpt>
      <trkpt lat="43.98956" lon="7.40615">
        <ele>1824.2</ele>
        <time>2017-08-27T15:25:08Z</time>
      </trkpt>
      <trkpt lat="43.98938" lon="7.40605">
        <ele>1821.1</ele>
        <time>2017-08-27T15:25:23Z</time>
      </trkpt>
      <trkpt lat="43.98919" lon="7.40588">
        <ele>1817.3</ele>
        <time>2017-08-27T15:25:40Z</time>
      </trkpt>
      <trkpt lat="43.98899" lon="7.40573">
        <ele>1814.8</ele>
        <time>2017-08-27T15:25:56Z</time>
      </trkpt>
      <trkpt lat="43.98876" lon="7.40561">
        <ele>1810.9</ele>
        <time>2017-08-27T15:26:16Z</time>
      </trkpt>
      <trkpt lat="43.98872" lon="7.40563">
        <ele>1810.2</ele>
        <time>2017-08-27T15:26:29Z</time>
      </trkpt>
      <trkpt lat="43.98871" lon="7.40563">
        <ele>1810</ele>
        <time>2017-08-27T15:26:40Z</time>
      </trkpt>
      <trkpt lat="43.98867" lon="7.40559">
        <ele>1809.1</ele>
        <time>2017-08-27T15:26:44Z</time>
      </trkpt>
      <trkpt lat="43.98854" lon="7.40544">
        <ele>1803.5</ele>
        <time>2017-08-27T15:27:01Z</time>
      </trkpt>
      <trkpt lat="43.98851" lon="7.40543">
        <ele>1802.2</ele>
        <time>2017-08-27T15:27:13Z</time>
      </trkpt>
      <trkpt lat="43.98851" lon="7.40543">
        <ele>1802.2</ele>
        <time>2017-08-27T15:27:23Z</time>
      </trkpt>
      <trkpt lat="43.98848" lon="7.40519">
        <ele>1797.8</ele>
        <time>2017-08-27T15:27:35Z</time>
      </trkpt>
      <trkpt lat="43.98847" lon="7.40509">
        <ele>1795.9</ele>
        <time>2017-08-27T15:27:49Z</time>
      </trkpt>
      <trkpt lat="43.98847" lon="7.40507">
        <ele>1795.6</ele>
        <time>2017-08-27T15:27:59Z</time>
      </trkpt>
      <trkpt lat="43.98853" lon="7.40493">
        <ele>1795.2</ele>
        <time>2017-08-27T15:28:11Z</time>
      </trkpt>
      <trkpt lat="43.98852" lon="7.40488">
        <ele>1794</ele>
        <time>2017-08-27T15:28:14Z</time>
      </trkpt>
      <trkpt lat="43.98858" lon="7.40464">
        <ele>1791.6</ele>
        <time>2017-08-27T15:28:28Z</time>
      </trkpt>
      <trkpt lat="43.9886" lon="7.4045">
        <ele>1789.6</ele>
        <time>2017-08-27T15:28:35Z</time>
      </trkpt>
      <trkpt lat="43.98862" lon="7.40443">
        <ele>1788.8</ele>
        <time>2017-08-27T15:28:39Z</time>
      </trkpt>
      <trkpt lat="43.98866" lon="7.4043">
        <ele>1786.3</ele>
        <time>2017-08-27T15:28:50Z</time>
      </trkpt>
      <trkpt lat="43.98872" lon="7.40411">
        <ele>1783.1</ele>
        <time>2017-08-27T15:29:02Z</time>
      </trkpt>
      <trkpt lat="43.98875" lon="7.40393">
        <ele>1779.5</ele>
        <time>2017-08-27T15:29:11Z</time>
      </trkpt>
      <trkpt lat="43.98873" lon="7.40385">
        <ele>1777</ele>
        <time>2017-08-27T15:29:16Z</time>
      </trkpt>
      <trkpt lat="43.98873" lon="7.40383">
        <ele>1776.7</ele>
        <time>2017-08-27T15:29:17Z</time>
      </trkpt>
      <trkpt lat="43.98875" lon="7.4036">
        <ele>1773.3</ele>
        <time>2017-08-27T15:29:32Z</time>
      </trkpt>
      <trkpt lat="43.98875" lon="7.40349">
        <ele>1771.3</ele>
        <time>2017-08-27T15:29:46Z</time>
      </trkpt>
      <trkpt lat="43.98875" lon="7.40348">
        <ele>1771.1</ele>
        <time>2017-08-27T15:29:48Z</time>
      </trkpt>
      <trkpt lat="43.98884" lon="7.40327">
        <ele>1769.4</ele>
        <time>2017-08-27T15:30:03Z</time>
      </trkpt>
      <trkpt lat="43.98884" lon="7.40322">
        <ele>1768.3</ele>
        <time>2017-08-27T15:30:06Z</time>
      </trkpt>
      <trkpt lat="43.98886" lon="7.40314">
        <ele>1767.1</ele>
        <time>2017-08-27T15:30:11Z</time>
      </trkpt>
      <trkpt lat="43.98888" lon="7.40307">
        <ele>1766.1</ele>
        <time>2017-08-27T15:30:15Z</time>
      </trkpt>
      <trkpt lat="43.9889" lon="7.40302">
        <ele>1765.5</ele>
        <time>2017-08-27T15:30:18Z</time>
      </trkpt>
      <trkpt lat="43.98901" lon="7.40274">
        <ele>1761.8</ele>
        <time>2017-08-27T15:30:36Z</time>
      </trkpt>
      <trkpt lat="43.98904" lon="7.40262">
        <ele>1760.4</ele>
        <time>2017-08-27T15:30:52Z</time>
      </trkpt>
      <trkpt lat="43.98912" lon="7.40235">
        <ele>1758.2</ele>
        <time>2017-08-27T15:31:09Z</time>
      </trkpt>
      <trkpt lat="43.98915" lon="7.4022">
        <ele>1757.5</ele>
        <time>2017-08-27T15:31:22Z</time>
      </trkpt>
      <trkpt lat="43.98916" lon="7.40214">
        <ele>1757.3</ele>
        <time>2017-08-27T15:31:46Z</time>
      </trkpt>
      <trkpt lat="43.98905" lon="7.40193">
        <ele>1753.4</ele>
        <time>2017-08-27T15:31:59Z</time>
      </trkpt>
      <trkpt lat="43.98891" lon="7.40171">
        <ele>1750.4</ele>
        <time>2017-08-27T15:32:16Z</time>
      </trkpt>
      <trkpt lat="43.98884" lon="7.40146">
        <ele>1749.4</ele>
        <time>2017-08-27T15:32:32Z</time>
      </trkpt>
      <trkpt lat="43.98883" lon="7.40145">
        <ele>1749.2</ele>
        <time>2017-08-27T15:32:33Z</time>
      </trkpt>
      <trkpt lat="43.98879" lon="7.40141">
        <ele>1748.4</ele>
        <time>2017-08-27T15:32:50Z</time>
      </trkpt>
      <trkpt lat="43.98878" lon="7.40142">
        <ele>1748.1</ele>
        <time>2017-08-27T15:32:58Z</time>
      </trkpt>
      <trkpt lat="43.98784" lon="7.4016">
        <ele>1709.1</ele>
        <time>2017-08-27T18:25:26Z</time>
      </trkpt>
      <trkpt lat="43.98783" lon="7.40156">
        <ele>1709.2</ele>
        <time>2017-08-27T18:25:33Z</time>
      </trkpt>
    </trkseg>
  </trk>
  <trk>
    <name><![CDATA[20171017105021-22F3R]]></name>
    <trkseg>
      <trkpt lat="43.98862" lon="7.401">
        <ele>1746.1</ele>
        <time>2017-08-28T06:53:49Z</time>
      </trkpt>
      <trkpt lat="43.98855" lon="7.40089">
        <ele>1744.8</ele>
        <time>2017-08-28T06:53:58Z</time>
      </trkpt>
      <trkpt lat="43.98848" lon="7.40075">
        <ele>1744.1</ele>
        <time>2017-08-28T06:54:09Z</time>
      </trkpt>
      <trkpt lat="43.9884" lon="7.40067">
        <ele>1743.2</ele>
        <time>2017-08-28T06:54:15Z</time>
      </trkpt>
      <trkpt lat="43.98832" lon="7.40058">
        <ele>1742.5</ele>
        <time>2017-08-28T06:54:24Z</time>
      </trkpt>
      <trkpt lat="43.9883" lon="7.40056">
        <ele>1742.2</ele>
        <time>2017-08-28T06:54:26Z</time>
      </trkpt>
      <trkpt lat="43.98817" lon="7.40041">
        <ele>1740.6</ele>
        <time>2017-08-28T06:54:40Z</time>
      </trkpt>
      <trkpt lat="43.98814" lon="7.40038">
        <ele>1740.3</ele>
        <time>2017-08-28T06:54:44Z</time>
      </trkpt>
      <trkpt lat="43.98807" lon="7.40031">
        <ele>1739.9</ele>
        <time>2017-08-28T06:54:52Z</time>
      </trkpt>
      <trkpt lat="43.98803" lon="7.40026">
        <ele>1739.4</ele>
        <time>2017-08-28T06:54:57Z</time>
      </trkpt>
      <trkpt lat="43.98801" lon="7.40025">
        <ele>1738.9</ele>
        <time>2017-08-28T06:54:59Z</time>
      </trkpt>
      <trkpt lat="43.988" lon="7.40027">
        <ele>1738.6</ele>
        <time>2017-08-28T06:55:01Z</time>
      </trkpt>
      <trkpt lat="43.98809" lon="7.40046">
        <ele>1738.7</ele>
        <time>2017-08-28T06:55:15Z</time>
      </trkpt>
      <trkpt lat="43.98814" lon="7.40068">
        <ele>1737.3</ele>
        <time>2017-08-28T06:55:31Z</time>
      </trkpt>
      <trkpt lat="43.98816" lon="7.40077">
        <ele>1736.7</ele>
        <time>2017-08-28T06:55:39Z</time>
      </trkpt>
      <trkpt lat="43.98821" lon="7.40097">
        <ele>1735.5</ele>
        <time>2017-08-28T06:55:55Z</time>
      </trkpt>
      <trkpt lat="43.98821" lon="7.40104">
        <ele>1734.6</ele>
        <time>2017-08-28T06:56:00Z</time>
      </trkpt>
      <trkpt lat="43.98823" lon="7.40125">
        <ele>1732.4</ele>
        <time>2017-08-28T06:56:14Z</time>
      </trkpt>
      <trkpt lat="43.98824" lon="7.40144">
        <ele>1730.2</ele>
        <time>2017-08-28T06:56:27Z</time>
      </trkpt>
      <trkpt lat="43.98823" lon="7.40156">
        <ele>1728.1</ele>
        <time>2017-08-28T06:56:32Z</time>
      </trkpt>
      <trkpt lat="43.98814" lon="7.40186">
        <ele>1721.5</ele>
        <time>2017-08-28T06:56:46Z</time>
      </trkpt>
      <trkpt lat="43.98804" lon="7.40204">
        <ele>1718</ele>
        <time>2017-08-28T06:56:58Z</time>
      </trkpt>
      <trkpt lat="43.98795" lon="7.40213">
        <ele>1714.9</ele>
        <time>2017-08-28T06:57:14Z</time>
      </trkpt>
      <trkpt lat="43.98794" lon="7.40215">
        <ele>1714.7</ele>
        <time>2017-08-28T06:57:16Z</time>
      </trkpt>
      <trkpt lat="43.98792" lon="7.40218">
        <ele>1714.2</ele>
        <time>2017-08-28T06:57:18Z</time>
      </trkpt>
      <trkpt lat="43.98783" lon="7.40229">
        <ele>1712.5</ele>
        <time>2017-08-28T06:57:32Z</time>
      </trkpt>
      <trkpt lat="43.98766" lon="7.40248">
        <ele>1709.4</ele>
        <time>2017-08-28T06:57:47Z</time>
      </trkpt>
      <trkpt lat="43.9875" lon="7.40264">
        <ele>1706.5</ele>
        <time>2017-08-28T06:58:01Z</time>
      </trkpt>
      <trkpt lat="43.98732" lon="7.40283">
        <ele>1704.8</ele>
        <time>2017-08-28T06:58:15Z</time>
      </trkpt>
      <trkpt lat="43.9872" lon="7.40307">
        <ele>1706.4</ele>
        <time>2017-08-28T06:58:29Z</time>
      </trkpt>
      <trkpt lat="43.98719" lon="7.40336">
        <ele>1710.8</ele>
        <time>2017-08-28T06:58:43Z</time>
      </trkpt>
      <trkpt lat="43.98717" lon="7.40344">
        <ele>1710.6</ele>
        <time>2017-08-28T06:58:46Z</time>
      </trkpt>
      <trkpt lat="43.98714" lon="7.40354">
        <ele>1710.2</ele>
        <time>2017-08-28T06:58:51Z</time>
      </trkpt>
      <trkpt lat="43.9871" lon="7.40379">
        <ele>1709.9</ele>
        <time>2017-08-28T06:59:03Z</time>
      </trkpt>
      <trkpt lat="43.98699" lon="7.40405">
        <ele>1705</ele>
        <time>2017-08-28T06:59:17Z</time>
      </trkpt>
      <trkpt lat="43.9869" lon="7.40433">
        <ele>1700.3</ele>
        <time>2017-08-28T06:59:29Z</time>
      </trkpt>
      <trkpt lat="43.9869" lon="7.40439">
        <ele>1700.5</ele>
        <time>2017-08-28T06:59:32Z</time>
      </trkpt>
      <trkpt lat="43.98689" lon="7.40475">
        <ele>1698</ele>
        <time>2017-08-28T06:59:47Z</time>
      </trkpt>
      <trkpt lat="43.98688" lon="7.40501">
        <ele>1696.8</ele>
        <time>2017-08-28T07:00:00Z</time>
      </trkpt>
      <trkpt lat="43.98686" lon="7.40513">
        <ele>1697.5</ele>
        <time>2017-08-28T07:00:06Z</time>
      </trkpt>
      <trkpt lat="43.98674" lon="7.40531">
        <ele>1694.5</ele>
        <time>2017-08-28T07:00:20Z</time>
      </trkpt>
      <trkpt lat="43.98659" lon="7.40552">
        <ele>1695.2</ele>
        <time>2017-08-28T07:00:36Z</time>
      </trkpt>
      <trkpt lat="43.98648" lon="7.40569">
        <ele>1698.6</ele>
        <time>2017-08-28T07:00:49Z</time>
      </trkpt>
      <trkpt lat="43.98638" lon="7.40589">
        <ele>1703.7</ele>
        <time>2017-08-28T07:01:03Z</time>
      </trkpt>
      <trkpt lat="43.98627" lon="7.40615">
        <ele>1708.6</ele>
        <time>2017-08-28T07:01:18Z</time>
      </trkpt>
      <trkpt lat="43.98625" lon="7.4063">
        <ele>1711.1</ele>
        <time>2017-08-28T07:01:25Z</time>
      </trkpt>
      <trkpt lat="43.98628" lon="7.40639">
        <ele>1714.1</ele>
        <time>2017-08-28T07:01:30Z</time>
      </trkpt>
      <trkpt lat="43.98636" lon="7.40644">
        <ele>1716.4</ele>
        <time>2017-08-28T07:01:39Z</time>
      </trkpt>
      <trkpt lat="43.9864" lon="7.40645">
        <ele>1717.7</ele>
        <time>2017-08-28T07:01:42Z</time>
      </trkpt>
      <trkpt lat="43.98648" lon="7.40654">
        <ele>1719.6</ele>
        <time>2017-08-28T07:01:52Z</time>
      </trkpt>
      <trkpt lat="43.98661" lon="7.40673">
        <ele>1720.7</ele>
        <time>2017-08-28T07:02:09Z</time>
      </trkpt>
      <trkpt lat="43.98671" lon="7.40688">
        <ele>1718.8</ele>
        <time>2017-08-28T07:02:22Z</time>
      </trkpt>
      <trkpt lat="43.98677" lon="7.40698">
        <ele>1716.7</ele>
        <time>2017-08-28T07:02:33Z</time>
      </trkpt>
      <trkpt lat="43.98685" lon="7.40704">
        <ele>1716.7</ele>
        <time>2017-08-28T07:02:42Z</time>
      </trkpt>
      <trkpt lat="43.98698" lon="7.40714">
        <ele>1716.6</ele>
        <time>2017-08-28T07:02:56Z</time>
      </trkpt>
      <trkpt lat="43.98707" lon="7.40729">
        <ele>1712.2</ele>
        <time>2017-08-28T07:03:10Z</time>
      </trkpt>
      <trkpt lat="43.9872" lon="7.40739">
        <ele>1710.9</ele>
        <time>2017-08-28T07:03:25Z</time>
      </trkpt>
      <trkpt lat="43.98739" lon="7.4075">
        <ele>1709.6</ele>
        <time>2017-08-28T07:03:41Z</time>
      </trkpt>
      <trkpt lat="43.98744" lon="7.40752">
        <ele>1709.6</ele>
        <time>2017-08-28T07:03:46Z</time>
      </trkpt>
      <trkpt lat="43.98749" lon="7.40753">
        <ele>1710.2</ele>
        <time>2017-08-28T07:03:53Z</time>
      </trkpt>
      <trkpt lat="43.98751" lon="7.40757">
        <ele>1708.5</ele>
        <time>2017-08-28T07:03:56Z</time>
      </trkpt>
      <trkpt lat="43.98762" lon="7.40781">
        <ele>1699.5</ele>
        <time>2017-08-28T07:04:11Z</time>
      </trkpt>
      <trkpt lat="43.98775" lon="7.40794">
        <ele>1699.6</ele>
        <time>2017-08-28T07:04:23Z</time>
      </trkpt>
      <trkpt lat="43.98778" lon="7.40799">
        <ele>1699.3</ele>
        <time>2017-08-28T07:04:27Z</time>
      </trkpt>
      <trkpt lat="43.98792" lon="7.40827">
        <ele>1696.3</ele>
        <time>2017-08-28T07:04:44Z</time>
      </trkpt>
      <trkpt lat="43.98807" lon="7.40853">
        <ele>1694.3</ele>
        <time>2017-08-28T07:05:00Z</time>
      </trkpt>
      <trkpt lat="43.9881" lon="7.40857">
        <ele>1694.2</ele>
        <time>2017-08-28T07:05:04Z</time>
      </trkpt>
      <trkpt lat="43.98823" lon="7.40878">
        <ele>1691.7</ele>
        <time>2017-08-28T07:05:19Z</time>
      </trkpt>
      <trkpt lat="43.98828" lon="7.40881">
        <ele>1692.9</ele>
        <time>2017-08-28T07:05:23Z</time>
      </trkpt>
      <trkpt lat="43.98849" lon="7.40894">
        <ele>1697.2</ele>
        <time>2017-08-28T07:05:37Z</time>
      </trkpt>
      <trkpt lat="43.98851" lon="7.40898">
        <ele>1696.5</ele>
        <time>2017-08-28T07:05:40Z</time>
      </trkpt>
      <trkpt lat="43.98858" lon="7.40908">
        <ele>1696.4</ele>
        <time>2017-08-28T07:05:48Z</time>
      </trkpt>
      <trkpt lat="43.9886" lon="7.4092">
        <ele>1693.9</ele>
        <time>2017-08-28T07:05:57Z</time>
      </trkpt>
      <trkpt lat="43.9886" lon="7.4095">
        <ele>1691.1</ele>
        <time>2017-08-28T07:06:14Z</time>
      </trkpt>
      <trkpt lat="43.98865" lon="7.40972">
        <ele>1695.1</ele>
        <time>2017-08-28T07:06:31Z</time>
      </trkpt>
      <trkpt lat="43.98873" lon="7.40997">
        <ele>1701</ele>
        <time>2017-08-28T07:06:47Z</time>
      </trkpt>
      <trkpt lat="43.9888" lon="7.41026">
        <ele>1704.7</ele>
        <time>2017-08-28T07:07:03Z</time>
      </trkpt>
      <trkpt lat="43.98879" lon="7.41051">
        <ele>1700.7</ele>
        <time>2017-08-28T07:07:18Z</time>
      </trkpt>
      <trkpt lat="43.9889" lon="7.41072">
        <ele>1700.1</ele>
        <time>2017-08-28T07:07:34Z</time>
      </trkpt>
      <trkpt lat="43.98896" lon="7.41077">
        <ele>1700.9</ele>
        <time>2017-08-28T07:07:41Z</time>
      </trkpt>
      <trkpt lat="43.98897" lon="7.41078">
        <ele>1700.9</ele>
        <time>2017-08-28T07:07:43Z</time>
      </trkpt>
      <trkpt lat="43.98909" lon="7.41094">
        <ele>1700</ele>
        <time>2017-08-28T07:07:57Z</time>
      </trkpt>
      <trkpt lat="43.98912" lon="7.41097">
        <ele>1700.1</ele>
        <time>2017-08-28T07:08:00Z</time>
      </trkpt>
      <trkpt lat="43.98923" lon="7.41112">
        <ele>1699</ele>
        <time>2017-08-28T07:08:11Z</time>
      </trkpt>
      <trkpt lat="43.98938" lon="7.41137">
        <ele>1696.1</ele>
        <time>2017-08-28T07:08:27Z</time>
      </trkpt>
      <trkpt lat="43.98951" lon="7.41159">
        <ele>1694.6</ele>
        <time>2017-08-28T07:08:43Z</time>
      </trkpt>
      <trkpt lat="43.98966" lon="7.41183">
        <ele>1692.4</ele>
        <time>2017-08-28T07:09:01Z</time>
      </trkpt>
      <trkpt lat="43.98969" lon="7.41184">
        <ele>1692.9</ele>
        <time>2017-08-28T07:09:03Z</time>
      </trkpt>
      <trkpt lat="43.9898" lon="7.4118">
        <ele>1695.1</ele>
        <time>2017-08-28T07:09:12Z</time>
      </trkpt>
      <trkpt lat="43.9899" lon="7.4118">
        <ele>1695.6</ele>
        <time>2017-08-28T07:09:20Z</time>
      </trkpt>
      <trkpt lat="43.98993" lon="7.41177">
        <ele>1696.8</ele>
        <time>2017-08-28T07:09:24Z</time>
      </trkpt>
      <trkpt lat="43.98997" lon="7.41179">
        <ele>1696.4</ele>
        <time>2017-08-28T07:09:29Z</time>
      </trkpt>
      <trkpt lat="43.99012" lon="7.41191">
        <ele>1693.2</ele>
        <time>2017-08-28T07:09:47Z</time>
      </trkpt>
      <trkpt lat="43.99023" lon="7.41194">
        <ele>1692.8</ele>
        <time>2017-08-28T07:10:02Z</time>
      </trkpt>
      <trkpt lat="43.99029" lon="7.41193">
        <ele>1693.8</ele>
        <time>2017-08-28T07:10:07Z</time>
      </trkpt>
      <trkpt lat="43.99047" lon="7.41199">
        <ele>1696.2</ele>
        <time>2017-08-28T07:10:21Z</time>
      </trkpt>
      <trkpt lat="43.99061" lon="7.41222">
        <ele>1696.8</ele>
        <time>2017-08-28T07:10:37Z</time>
      </trkpt>
      <trkpt lat="43.9906" lon="7.4124">
        <ele>1695.1</ele>
        <time>2017-08-28T07:10:49Z</time>
      </trkpt>
      <trkpt lat="43.99062" lon="7.41275">
        <ele>1693.9</ele>
        <time>2017-08-28T07:11:08Z</time>
      </trkpt>
      <trkpt lat="43.99064" lon="7.41285">
        <ele>1693.1</ele>
        <time>2017-08-28T07:11:13Z</time>
      </trkpt>
      <trkpt lat="43.99067" lon="7.41292">
        <ele>1693.1</ele>
        <time>2017-08-28T07:11:18Z</time>
      </trkpt>
      <trkpt lat="43.99076" lon="7.41316">
        <ele>1690.1</ele>
        <time>2017-08-28T07:11:32Z</time>
      </trkpt>
      <trkpt lat="43.99081" lon="7.41333">
        <ele>1685.2</ele>
        <time>2017-08-28T07:11:42Z</time>
      </trkpt>
      <trkpt lat="43.99083" lon="7.41336">
        <ele>1685.1</ele>
        <time>2017-08-28T07:11:44Z</time>
      </trkpt>
      <trkpt lat="43.99089" lon="7.41344">
        <ele>1686.8</ele>
        <time>2017-08-28T07:11:50Z</time>
      </trkpt>
      <trkpt lat="43.99097" lon="7.41356">
        <ele>1689.1</ele>
        <time>2017-08-28T07:12:01Z</time>
      </trkpt>
      <trkpt lat="43.99102" lon="7.41366">
        <ele>1690.4</ele>
        <time>2017-08-28T07:12:08Z</time>
      </trkpt>
      <trkpt lat="43.99104" lon="7.41375">
        <ele>1690</ele>
        <time>2017-08-28T07:12:14Z</time>
      </trkpt>
      <trkpt lat="43.9912" lon="7.4139">
        <ele>1696.5</ele>
        <time>2017-08-28T07:12:30Z</time>
      </trkpt>
      <trkpt lat="43.99121" lon="7.41391">
        <ele>1696.7</ele>
        <time>2017-08-28T07:12:31Z</time>
      </trkpt>
      <trkpt lat="43.99138" lon="7.41401">
        <ele>1701.4</ele>
        <time>2017-08-28T07:12:46Z</time>
      </trkpt>
      <trkpt lat="43.99155" lon="7.41403">
        <ele>1699.1</ele>
        <time>2017-08-28T07:12:58Z</time>
      </trkpt>
      <trkpt lat="43.99175" lon="7.41404">
        <ele>1696.1</ele>
        <time>2017-08-28T07:13:12Z</time>
      </trkpt>
      <trkpt lat="43.99188" lon="7.41399">
        <ele>1697.1</ele>
        <time>2017-08-28T07:13:21Z</time>
      </trkpt>
      <trkpt lat="43.99203" lon="7.41403">
        <ele>1693.1</ele>
        <time>2017-08-28T07:13:33Z</time>
      </trkpt>
      <trkpt lat="43.99219" lon="7.41399">
        <ele>1693.8</ele>
        <time>2017-08-28T07:13:46Z</time>
      </trkpt>
      <trkpt lat="43.99221" lon="7.41399">
        <ele>1693.7</ele>
        <time>2017-08-28T07:13:48Z</time>
      </trkpt>
      <trkpt lat="43.99229" lon="7.41399">
        <ele>1693.8</ele>
        <time>2017-08-28T07:13:55Z</time>
      </trkpt>
      <trkpt lat="43.99231" lon="7.41399">
        <ele>1693.9</ele>
        <time>2017-08-28T07:13:58Z</time>
      </trkpt>
      <trkpt lat="43.99241" lon="7.414">
        <ele>1693.9</ele>
        <time>2017-08-28T07:14:07Z</time>
      </trkpt>
      <trkpt lat="43.99246" lon="7.41401">
        <ele>1693.8</ele>
        <time>2017-08-28T07:14:12Z</time>
      </trkpt>
      <trkpt lat="43.99251" lon="7.41402">
        <ele>1694.1</ele>
        <time>2017-08-28T07:14:16Z</time>
      </trkpt>
      <trkpt lat="43.99262" lon="7.41407">
        <ele>1697</ele>
        <time>2017-08-28T07:14:30Z</time>
      </trkpt>
      <trkpt lat="43.99263" lon="7.41417">
        <ele>1695.6</ele>
        <time>2017-08-28T07:14:42Z</time>
      </trkpt>
      <trkpt lat="43.99263" lon="7.41428">
        <ele>1697.2</ele>
        <time>2017-08-28T07:14:57Z</time>
      </trkpt>
      <trkpt lat="43.9926" lon="7.41439">
        <ele>1697</ele>
        <time>2017-08-28T07:15:10Z</time>
      </trkpt>
      <trkpt lat="43.99261" lon="7.41459">
        <ele>1701.4</ele>
        <time>2017-08-28T07:15:24Z</time>
      </trkpt>
      <trkpt lat="43.99261" lon="7.41462">
        <ele>1702</ele>
        <time>2017-08-28T07:15:26Z</time>
      </trkpt>
      <trkpt lat="43.9926" lon="7.41476">
        <ele>1704.3</ele>
        <time>2017-08-28T07:15:40Z</time>
      </trkpt>
      <trkpt lat="43.9926" lon="7.4148">
        <ele>1705.3</ele>
        <time>2017-08-28T07:15:58Z</time>
      </trkpt>
      <trkpt lat="43.99257" lon="7.41497">
        <ele>1707.1</ele>
        <time>2017-08-28T07:16:17Z</time>
      </trkpt>
      <trkpt lat="43.99255" lon="7.41503">
        <ele>1706.9</ele>
        <time>2017-08-28T07:16:29Z</time>
      </trkpt>
      <trkpt lat="43.99255" lon="7.41503">
        <ele>1706.9</ele>
        <time>2017-08-28T07:17:01Z</time>
      </trkpt>
      <trkpt lat="43.99255" lon="7.41502">
        <ele>1706.7</ele>
        <time>2017-08-28T07:17:36Z</time>
      </trkpt>
      <trkpt lat="43.99255" lon="7.415">
        <ele>1706.4</ele>
        <time>2017-08-28T07:18:13Z</time>
      </trkpt>
      <trkpt lat="43.99257" lon="7.41504">
        <ele>1708.4</ele>
        <time>2017-08-28T07:18:46Z</time>
      </trkpt>
      <trkpt lat="43.99257" lon="7.41525">
        <ele>1711.6</ele>
        <time>2017-08-28T07:19:00Z</time>
      </trkpt>
      <trkpt lat="43.99263" lon="7.41546">
        <ele>1714.5</ele>
        <time>2017-08-28T07:19:14Z</time>
      </trkpt>
      <trkpt lat="43.99269" lon="7.41573">
        <ele>1714.9</ele>
        <time>2017-08-28T07:19:32Z</time>
      </trkpt>
      <trkpt lat="43.99281" lon="7.416">
        <ele>1716.3</ele>
        <time>2017-08-28T07:19:51Z</time>
      </trkpt>
      <trkpt lat="43.99285" lon="7.41605">
        <ele>1717.5</ele>
        <time>2017-08-28T07:19:56Z</time>
      </trkpt>
      <trkpt lat="43.99297" lon="7.41626">
        <ele>1716</ele>
        <time>2017-08-28T07:20:12Z</time>
      </trkpt>
      <trkpt lat="43.99308" lon="7.41644">
        <ele>1715.3</ele>
        <time>2017-08-28T07:20:26Z</time>
      </trkpt>
      <trkpt lat="43.99323" lon="7.4166">
        <ele>1719.5</ele>
        <time>2017-08-28T07:20:39Z</time>
      </trkpt>
      <trkpt lat="43.99328" lon="7.41667">
        <ele>1720.7</ele>
        <time>2017-08-28T07:20:44Z</time>
      </trkpt>
      <trkpt lat="43.99331" lon="7.41682">
        <ele>1718.9</ele>
        <time>2017-08-28T07:20:51Z</time>
      </trkpt>
      <trkpt lat="43.99334" lon="7.41702">
        <ele>1718</ele>
        <time>2017-08-28T07:21:05Z</time>
      </trkpt>
      <trkpt lat="43.99335" lon="7.41704">
        <ele>1718.9</ele>
        <time>2017-08-28T07:21:07Z</time>
      </trkpt>
      <trkpt lat="43.99324" lon="7.41723">
        <ele>1712.8</ele>
        <time>2017-08-28T07:21:22Z</time>
      </trkpt>
      <trkpt lat="43.99326" lon="7.41749">
        <ele>1719.6</ele>
        <time>2017-08-28T07:21:38Z</time>
      </trkpt>
      <trkpt lat="43.99331" lon="7.41771">
        <ele>1728.3</ele>
        <time>2017-08-28T07:21:52Z</time>
      </trkpt>
      <trkpt lat="43.99331" lon="7.41774">
        <ele>1729.1</ele>
        <time>2017-08-28T07:21:55Z</time>
      </trkpt>
      <trkpt lat="43.99327" lon="7.41781">
        <ele>1729.7</ele>
        <time>2017-08-28T07:22:10Z</time>
      </trkpt>
      <trkpt lat="43.99327" lon="7.41789">
        <ele>1732.7</ele>
        <time>2017-08-28T07:22:21Z</time>
      </trkpt>
      <trkpt lat="43.99327" lon="7.41789">
        <ele>1732.7</ele>
        <time>2017-08-28T07:22:26Z</time>
      </trkpt>
      <trkpt lat="43.99321" lon="7.41785">
        <ele>1729.1</ele>
        <time>2017-08-28T07:22:37Z</time>
      </trkpt>
      <trkpt lat="43.99307" lon="7.41794">
        <ele>1729.1</ele>
        <time>2017-08-28T07:22:52Z</time>
      </trkpt>
      <trkpt lat="43.99291" lon="7.41798">
        <ele>1730.1</ele>
        <time>2017-08-28T07:23:07Z</time>
      </trkpt>
      <trkpt lat="43.99283" lon="7.41798">
        <ele>1729.7</ele>
        <time>2017-08-28T07:23:16Z</time>
      </trkpt>
      <trkpt lat="43.99279" lon="7.41799">
        <ele>1730.1</ele>
        <time>2017-08-28T07:23:21Z</time>
      </trkpt>
      <trkpt lat="43.9927" lon="7.41806">
        <ele>1734</ele>
        <time>2017-08-28T07:23:37Z</time>
      </trkpt>
      <trkpt lat="43.99261" lon="7.4181">
        <ele>1735.7</ele>
        <time>2017-08-28T07:23:50Z</time>
      </trkpt>
      <trkpt lat="43.99253" lon="7.41825">
        <ele>1743</ele>
        <time>2017-08-28T07:24:04Z</time>
      </trkpt>
      <trkpt lat="43.99243" lon="7.41833">
        <ele>1744.8</ele>
        <time>2017-08-28T07:24:18Z</time>
      </trkpt>
      <trkpt lat="43.99237" lon="7.4185">
        <ele>1750.2</ele>
        <time>2017-08-28T07:24:31Z</time>
      </trkpt>
      <trkpt lat="43.99233" lon="7.41856">
        <ele>1751.4</ele>
        <time>2017-08-28T07:24:36Z</time>
      </trkpt>
      <trkpt lat="43.99225" lon="7.41879">
        <ele>1757.4</ele>
        <time>2017-08-28T07:24:53Z</time>
      </trkpt>
      <trkpt lat="43.99218" lon="7.41901">
        <ele>1763.4</ele>
        <time>2017-08-28T07:25:06Z</time>
      </trkpt>
      <trkpt lat="43.99217" lon="7.41904">
        <ele>1764.3</ele>
        <time>2017-08-28T07:25:08Z</time>
      </trkpt>
      <trkpt lat="43.99213" lon="7.41906">
        <ele>1763.9</ele>
        <time>2017-08-28T07:25:12Z</time>
      </trkpt>
      <trkpt lat="43.9921" lon="7.41907">
        <ele>1763.3</ele>
        <time>2017-08-28T07:25:14Z</time>
      </trkpt>
      <trkpt lat="43.99202" lon="7.41917">
        <ele>1765.3</ele>
        <time>2017-08-28T07:25:21Z</time>
      </trkpt>
      <trkpt lat="43.99179" lon="7.41921">
        <ele>1760.5</ele>
        <time>2017-08-28T07:25:37Z</time>
      </trkpt>
      <trkpt lat="43.99176" lon="7.4192">
        <ele>1759.2</ele>
        <time>2017-08-28T07:25:39Z</time>
      </trkpt>
      <trkpt lat="43.9916" lon="7.41933">
        <ele>1761</ele>
        <time>2017-08-28T07:25:53Z</time>
      </trkpt>
      <trkpt lat="43.99148" lon="7.41949">
        <ele>1765.1</ele>
        <time>2017-08-28T07:26:07Z</time>
      </trkpt>
      <trkpt lat="43.99134" lon="7.41979">
        <ele>1771.9</ele>
        <time>2017-08-28T07:26:24Z</time>
      </trkpt>
      <trkpt lat="43.99128" lon="7.42006">
        <ele>1775.1</ele>
        <time>2017-08-28T07:26:40Z</time>
      </trkpt>
      <trkpt lat="43.99134" lon="7.42036">
        <ele>1777.6</ele>
        <time>2017-08-28T07:26:57Z</time>
      </trkpt>
      <trkpt lat="43.99142" lon="7.42063">
        <ele>1777.3</ele>
        <time>2017-08-28T07:27:12Z</time>
      </trkpt>
      <trkpt lat="43.99148" lon="7.42089">
        <ele>1773.5</ele>
        <time>2017-08-28T07:27:26Z</time>
      </trkpt>
      <trkpt lat="43.9915" lon="7.42094">
        <ele>1773.3</ele>
        <time>2017-08-28T07:27:29Z</time>
      </trkpt>
      <trkpt lat="43.99158" lon="7.42124">
        <ele>1770.3</ele>
        <time>2017-08-28T07:27:44Z</time>
      </trkpt>
      <trkpt lat="43.99162" lon="7.42155">
        <ele>1766.5</ele>
        <time>2017-08-28T07:28:00Z</time>
      </trkpt>
      <trkpt lat="43.99168" lon="7.4219">
        <ele>1764.8</ele>
        <time>2017-08-28T07:28:17Z</time>
      </trkpt>
      <trkpt lat="43.99169" lon="7.422">
        <ele>1763.6</ele>
        <time>2017-08-28T07:28:22Z</time>
      </trkpt>
      <trkpt lat="43.99174" lon="7.42212">
        <ele>1764.8</ele>
        <time>2017-08-28T07:28:29Z</time>
      </trkpt>
      <trkpt lat="43.99182" lon="7.42239">
        <ele>1764.3</ele>
        <time>2017-08-28T07:28:45Z</time>
      </trkpt>
      <trkpt lat="43.99198" lon="7.42267">
        <ele>1767.2</ele>
        <time>2017-08-28T07:29:04Z</time>
      </trkpt>
      <trkpt lat="43.99213" lon="7.42286">
        <ele>1769.8</ele>
        <time>2017-08-28T07:29:19Z</time>
      </trkpt>
      <trkpt lat="43.99219" lon="7.42295">
        <ele>1770</ele>
        <time>2017-08-28T07:29:26Z</time>
      </trkpt>
      <trkpt lat="43.99229" lon="7.42314">
        <ele>1769.7</ele>
        <time>2017-08-28T07:29:39Z</time>
      </trkpt>
      <trkpt lat="43.99232" lon="7.4232">
        <ele>1769.8</ele>
        <time>2017-08-28T07:29:43Z</time>
      </trkpt>
      <trkpt lat="43.99242" lon="7.42342">
        <ele>1769.3</ele>
        <time>2017-08-28T07:29:56Z</time>
      </trkpt>
      <trkpt lat="43.99246" lon="7.42351">
        <ele>1769.2</ele>
        <time>2017-08-28T07:30:02Z</time>
      </trkpt>
      <trkpt lat="43.99252" lon="7.42363">
        <ele>1769.5</ele>
        <time>2017-08-28T07:30:11Z</time>
      </trkpt>
      <trkpt lat="43.99241" lon="7.42332">
        <ele>1771.5</ele>
        <time>2017-08-28T07:30:21Z</time>
      </trkpt>
      <trkpt lat="43.99225" lon="7.42301">
        <ele>1771.2</ele>
        <time>2017-08-28T07:30:34Z</time>
      </trkpt>
      <trkpt lat="43.99224" lon="7.42301">
        <ele>1770.6</ele>
        <time>2017-08-28T07:30:51Z</time>
      </trkpt>
      <trkpt lat="43.99225" lon="7.42301">
        <ele>1771.2</ele>
        <time>2017-08-28T07:31:18Z</time>
      </trkpt>
      <trkpt lat="43.99225" lon="7.42301">
        <ele>1771.2</ele>
        <time>2017-08-28T07:31:43Z</time>
      </trkpt>
      <trkpt lat="43.99225" lon="7.42302">
        <ele>1770.9</ele>
        <time>2017-08-28T07:32:07Z</time>
      </trkpt>
      <trkpt lat="43.99225" lon="7.42302">
        <ele>1770.9</ele>
        <time>2017-08-28T07:32:27Z</time>
      </trkpt>
      <trkpt lat="43.99225" lon="7.42302">
        <ele>1770.9</ele>
        <time>2017-08-28T07:32:31Z</time>
      </trkpt>
      <trkpt lat="43.99225" lon="7.42303">
        <ele>1770.5</ele>
        <time>2017-08-28T07:32:33Z</time>
      </trkpt>
      <trkpt lat="43.99234" lon="7.4232">
        <ele>1770.9</ele>
        <time>2017-08-28T07:32:46Z</time>
      </trkpt>
      <trkpt lat="43.99242" lon="7.42335">
        <ele>1771.2</ele>
        <time>2017-08-28T07:32:57Z</time>
      </trkpt>
      <trkpt lat="43.9925" lon="7.42356">
        <ele>1770.3</ele>
        <time>2017-08-28T07:33:10Z</time>
      </trkpt>
      <trkpt lat="43.99258" lon="7.42382">
        <ele>1767.4</ele>
        <time>2017-08-28T07:33:24Z</time>
      </trkpt>
      <trkpt lat="43.99268" lon="7.42398">
        <ele>1768.1</ele>
        <time>2017-08-28T07:33:35Z</time>
      </trkpt>
      <trkpt lat="43.99278" lon="7.4241">
        <ele>1769.5</ele>
        <time>2017-08-28T07:33:44Z</time>
      </trkpt>
      <trkpt lat="43.99279" lon="7.42414">
        <ele>1768.7</ele>
        <time>2017-08-28T07:33:46Z</time>
      </trkpt>
      <trkpt lat="43.99285" lon="7.42424">
        <ele>1772.3</ele>
        <time>2017-08-28T07:33:53Z</time>
      </trkpt>
      <trkpt lat="43.99281" lon="7.42431">
        <ele>1771.1</ele>
        <time>2017-08-28T07:33:58Z</time>
      </trkpt>
      <trkpt lat="43.99272" lon="7.42441">
        <ele>1769</ele>
        <time>2017-08-28T07:34:10Z</time>
      </trkpt>
      <trkpt lat="43.99257" lon="7.42454">
        <ele>1766.7</ele>
        <time>2017-08-28T07:34:25Z</time>
      </trkpt>
      <trkpt lat="43.99257" lon="7.42456">
        <ele>1767.3</ele>
        <time>2017-08-28T07:34:26Z</time>
      </trkpt>
      <trkpt lat="43.99251" lon="7.42471">
        <ele>1768.3</ele>
        <time>2017-08-28T07:34:34Z</time>
      </trkpt>
      <trkpt lat="43.99248" lon="7.42484">
        <ele>1766.8</ele>
        <time>2017-08-28T07:34:42Z</time>
      </trkpt>
      <trkpt lat="43.99246" lon="7.42491">
        <ele>1765.9</ele>
        <time>2017-08-28T07:34:46Z</time>
      </trkpt>
      <trkpt lat="43.99241" lon="7.42493">
        <ele>1763.5</ele>
        <time>2017-08-28T07:34:51Z</time>
      </trkpt>
      <trkpt lat="43.9923" lon="7.42484">
        <ele>1755.5</ele>
        <time>2017-08-28T07:35:02Z</time>
      </trkpt>
      <trkpt lat="43.99217" lon="7.42492">
        <ele>1755.1</ele>
        <time>2017-08-28T07:35:15Z</time>
      </trkpt>
      <trkpt lat="43.99209" lon="7.42495">
        <ele>1758.4</ele>
        <time>2017-08-28T07:35:26Z</time>
      </trkpt>
      <trkpt lat="43.99202" lon="7.42495">
        <ele>1760.2</ele>
        <time>2017-08-28T07:35:32Z</time>
      </trkpt>
      <trkpt lat="43.99183" lon="7.42487">
        <ele>1758.1</ele>
        <time>2017-08-28T07:35:50Z</time>
      </trkpt>
      <trkpt lat="43.99164" lon="7.42497">
        <ele>1761.6</ele>
        <time>2017-08-28T07:36:06Z</time>
      </trkpt>
      <trkpt lat="43.99147" lon="7.4251">
        <ele>1758.8</ele>
        <time>2017-08-28T07:36:21Z</time>
      </trkpt>
      <trkpt lat="43.9914" lon="7.42514">
        <ele>1757.1</ele>
        <time>2017-08-28T07:36:27Z</time>
      </trkpt>
      <trkpt lat="43.99138" lon="7.42522">
        <ele>1759.2</ele>
        <time>2017-08-28T07:36:31Z</time>
      </trkpt>
      <trkpt lat="43.99123" lon="7.42532">
        <ele>1755.1</ele>
        <time>2017-08-28T07:36:46Z</time>
      </trkpt>
      <trkpt lat="43.99108" lon="7.42543">
        <ele>1754.7</ele>
        <time>2017-08-28T07:37:01Z</time>
      </trkpt>
      <trkpt lat="43.99103" lon="7.42542">
        <ele>1753.9</ele>
        <time>2017-08-28T07:37:05Z</time>
      </trkpt>
      <trkpt lat="43.99086" lon="7.42537">
        <ele>1750.4</ele>
        <time>2017-08-28T07:37:20Z</time>
      </trkpt>
      <trkpt lat="43.99085" lon="7.42539">
        <ele>1751.5</ele>
        <time>2017-08-28T07:37:22Z</time>
      </trkpt>
      <trkpt lat="43.99076" lon="7.42552">
        <ele>1761.1</ele>
        <time>2017-08-28T07:37:37Z</time>
      </trkpt>
      <trkpt lat="43.99064" lon="7.42543">
        <ele>1759.3</ele>
        <time>2017-08-28T07:37:51Z</time>
      </trkpt>
      <trkpt lat="43.99049" lon="7.42541">
        <ele>1762.4</ele>
        <time>2017-08-28T07:38:06Z</time>
      </trkpt>
      <trkpt lat="43.99035" lon="7.4254">
        <ele>1765.6</ele>
        <time>2017-08-28T07:38:20Z</time>
      </trkpt>
      <trkpt lat="43.99016" lon="7.42544">
        <ele>1770.6</ele>
        <time>2017-08-28T07:38:37Z</time>
      </trkpt>
      <trkpt lat="43.99003" lon="7.42553">
        <ele>1776.4</ele>
        <time>2017-08-28T07:38:52Z</time>
      </trkpt>
      <trkpt lat="43.98984" lon="7.42575">
        <ele>1779.8</ele>
        <time>2017-08-28T07:39:10Z</time>
      </trkpt>
      <trkpt lat="43.98974" lon="7.42595">
        <ele>1781.8</ele>
        <time>2017-08-28T07:39:24Z</time>
      </trkpt>
      <trkpt lat="43.98969" lon="7.4262">
        <ele>1784.6</ele>
        <time>2017-08-28T07:39:40Z</time>
      </trkpt>
      <trkpt lat="43.98963" lon="7.42644">
        <ele>1785</ele>
        <time>2017-08-28T07:39:55Z</time>
      </trkpt>
      <trkpt lat="43.98954" lon="7.42662">
        <ele>1781.9</ele>
        <time>2017-08-28T07:40:09Z</time>
      </trkpt>
      <trkpt lat="43.98947" lon="7.42674">
        <ele>1780.2</ele>
        <time>2017-08-28T07:40:18Z</time>
      </trkpt>
      <trkpt lat="43.98941" lon="7.42683">
        <ele>1779</ele>
        <time>2017-08-28T07:40:26Z</time>
      </trkpt>
      <trkpt lat="43.9894" lon="7.42689">
        <ele>1780.3</ele>
        <time>2017-08-28T07:40:30Z</time>
      </trkpt>
      <trkpt lat="43.98926" lon="7.42707">
        <ele>1776.4</ele>
        <time>2017-08-28T07:40:45Z</time>
      </trkpt>
      <trkpt lat="43.98925" lon="7.4271">
        <ele>1776.5</ele>
        <time>2017-08-28T07:40:47Z</time>
      </trkpt>
      <trkpt lat="43.98913" lon="7.42729">
        <ele>1773.4</ele>
        <time>2017-08-28T07:41:02Z</time>
      </trkpt>
      <trkpt lat="43.98907" lon="7.42737">
        <ele>1770.9</ele>
        <time>2017-08-28T07:41:10Z</time>
      </trkpt>
      <trkpt lat="43.98904" lon="7.42743">
        <ele>1769.9</ele>
        <time>2017-08-28T07:41:14Z</time>
      </trkpt>
      <trkpt lat="43.98902" lon="7.42746">
        <ele>1769.2</ele>
        <time>2017-08-28T07:41:16Z</time>
      </trkpt>
      <trkpt lat="43.98898" lon="7.42773">
        <ele>1766.8</ele>
        <time>2017-08-28T07:41:31Z</time>
      </trkpt>
      <trkpt lat="43.989" lon="7.42787">
        <ele>1765.7</ele>
        <time>2017-08-28T07:41:40Z</time>
      </trkpt>
      <trkpt lat="43.98901" lon="7.42799">
        <ele>1763.6</ele>
        <time>2017-08-28T07:41:46Z</time>
      </trkpt>
      <trkpt lat="43.98901" lon="7.42827">
        <ele>1755.3</ele>
        <time>2017-08-28T07:42:02Z</time>
      </trkpt>
      <trkpt lat="43.98904" lon="7.42844">
        <ele>1751.2</ele>
        <time>2017-08-28T07:42:13Z</time>
      </trkpt>
      <trkpt lat="43.98904" lon="7.42845">
        <ele>1750.9</ele>
        <time>2017-08-28T07:42:14Z</time>
      </trkpt>
      <trkpt lat="43.98908" lon="7.42849">
        <ele>1751.4</ele>
        <time>2017-08-28T07:42:18Z</time>
      </trkpt>
      <trkpt lat="43.98916" lon="7.42861">
        <ele>1750.8</ele>
        <time>2017-08-28T07:42:29Z</time>
      </trkpt>
      <trkpt lat="43.9892" lon="7.42864">
        <ele>1752.4</ele>
        <time>2017-08-28T07:42:33Z</time>
      </trkpt>
      <trkpt lat="43.9892" lon="7.42876">
        <ele>1752.4</ele>
        <time>2017-08-28T07:42:46Z</time>
      </trkpt>
      <trkpt lat="43.98916" lon="7.42881">
        <ele>1750.8</ele>
        <time>2017-08-28T07:42:58Z</time>
      </trkpt>
      <trkpt lat="43.98912" lon="7.42882">
        <ele>1749.3</ele>
        <time>2017-08-28T07:43:02Z</time>
      </trkpt>
      <trkpt lat="43.98896" lon="7.42882">
        <ele>1743.4</ele>
        <time>2017-08-28T07:43:19Z</time>
      </trkpt>
      <trkpt lat="43.98887" lon="7.42898">
        <ele>1744.5</ele>
        <time>2017-08-28T07:43:31Z</time>
      </trkpt>
      <trkpt lat="43.98877" lon="7.4293">
        <ele>1757.2</ele>
        <time>2017-08-28T07:43:45Z</time>
      </trkpt>
      <trkpt lat="43.98868" lon="7.4293">
        <ele>1755.2</ele>
        <time>2017-08-28T07:43:54Z</time>
      </trkpt>
      <trkpt lat="43.98862" lon="7.42929">
        <ele>1753.4</ele>
        <time>2017-08-28T07:43:58Z</time>
      </trkpt>
      <trkpt lat="43.98855" lon="7.42926">
        <ele>1750.6</ele>
        <time>2017-08-28T07:44:03Z</time>
      </trkpt>
      <trkpt lat="43.9885" lon="7.42924">
        <ele>1748.6</ele>
        <time>2017-08-28T07:44:07Z</time>
      </trkpt>
      <trkpt lat="43.98827" lon="7.42927">
        <ele>1747.2</ele>
        <time>2017-08-28T07:44:24Z</time>
      </trkpt>
      <trkpt lat="43.98822" lon="7.42928">
        <ele>1747.7</ele>
        <time>2017-08-28T07:44:28Z</time>
      </trkpt>
      <trkpt lat="43.98818" lon="7.4293">
        <ele>1748.9</ele>
        <time>2017-08-28T07:44:32Z</time>
      </trkpt>
      <trkpt lat="43.98803" lon="7.42932">
        <ele>1750.1</ele>
        <time>2017-08-28T07:44:46Z</time>
      </trkpt>
      <trkpt lat="43.98787" lon="7.42929">
        <ele>1749.3</ele>
        <time>2017-08-28T07:45:00Z</time>
      </trkpt>
      <trkpt lat="43.98767" lon="7.42927">
        <ele>1750.3</ele>
        <time>2017-08-28T07:45:16Z</time>
      </trkpt>
      <trkpt lat="43.98766" lon="7.42925">
        <ele>1749.3</ele>
        <time>2017-08-28T07:45:18Z</time>
      </trkpt>
      <trkpt lat="43.98759" lon="7.42921">
        <ele>1748</ele>
        <time>2017-08-28T07:45:24Z</time>
      </trkpt>
      <trkpt lat="43.98741" lon="7.42917">
        <ele>1749.4</ele>
        <time>2017-08-28T07:45:39Z</time>
      </trkpt>
      <trkpt lat="43.98719" lon="7.42911">
        <ele>1751.7</ele>
        <time>2017-08-28T07:45:54Z</time>
      </trkpt>
      <trkpt lat="43.98698" lon="7.42905">
        <ele>1752.8</ele>
        <time>2017-08-28T07:46:10Z</time>
      </trkpt>
      <trkpt lat="43.98684" lon="7.42903">
        <ele>1751.3</ele>
        <time>2017-08-28T07:46:21Z</time>
      </trkpt>
      <trkpt lat="43.98681" lon="7.42912">
        <ele>1752</ele>
        <time>2017-08-28T07:46:26Z</time>
      </trkpt>
      <trkpt lat="43.98681" lon="7.42949">
        <ele>1755.1</ele>
        <time>2017-08-28T07:46:46Z</time>
      </trkpt>
      <trkpt lat="43.98685" lon="7.42965">
        <ele>1757.4</ele>
        <time>2017-08-28T07:47:02Z</time>
      </trkpt>
      <trkpt lat="43.98686" lon="7.42976">
        <ele>1758.2</ele>
        <time>2017-08-28T07:47:09Z</time>
      </trkpt>
      <trkpt lat="43.98688" lon="7.43">
        <ele>1760.2</ele>
        <time>2017-08-28T07:47:24Z</time>
      </trkpt>
      <trkpt lat="43.98688" lon="7.43011">
        <ele>1761.9</ele>
        <time>2017-08-28T07:47:30Z</time>
      </trkpt>
      <trkpt lat="43.98681" lon="7.4304">
        <ele>1761.4</ele>
        <time>2017-08-28T07:47:48Z</time>
      </trkpt>
      <trkpt lat="43.98673" lon="7.4306">
        <ele>1759.9</ele>
        <time>2017-08-28T07:48:01Z</time>
      </trkpt>
      <trkpt lat="43.98669" lon="7.43076">
        <ele>1760.1</ele>
        <time>2017-08-28T07:48:12Z</time>
      </trkpt>
      <trkpt lat="43.98663" lon="7.43104">
        <ele>1758.3</ele>
        <time>2017-08-28T07:48:28Z</time>
      </trkpt>
      <trkpt lat="43.98663" lon="7.43105">
        <ele>1758.4</ele>
        <time>2017-08-28T07:48:29Z</time>
      </trkpt>
      <trkpt lat="43.98663" lon="7.4313">
        <ele>1757.3</ele>
        <time>2017-08-28T07:48:44Z</time>
      </trkpt>
      <trkpt lat="43.98665" lon="7.43142">
        <ele>1757.2</ele>
        <time>2017-08-28T07:48:50Z</time>
      </trkpt>
      <trkpt lat="43.98674" lon="7.43158">
        <ele>1759.7</ele>
        <time>2017-08-28T07:49:00Z</time>
      </trkpt>
      <trkpt lat="43.98676" lon="7.43166">
        <ele>1759.5</ele>
        <time>2017-08-28T07:49:05Z</time>
      </trkpt>
      <trkpt lat="43.98676" lon="7.43174">
        <ele>1758.1</ele>
        <time>2017-08-28T07:49:11Z</time>
      </trkpt>
      <trkpt lat="43.98678" lon="7.43181">
        <ele>1758.2</ele>
        <time>2017-08-28T07:49:15Z</time>
      </trkpt>
      <trkpt lat="43.98682" lon="7.43193">
        <ele>1758.7</ele>
        <time>2017-08-28T07:49:23Z</time>
      </trkpt>
      <trkpt lat="43.98686" lon="7.43203">
        <ele>1759.3</ele>
        <time>2017-08-28T07:49:31Z</time>
      </trkpt>
      <trkpt lat="43.98698" lon="7.4322">
        <ele>1763</ele>
        <time>2017-08-28T07:49:44Z</time>
      </trkpt>
      <trkpt lat="43.98698" lon="7.43223">
        <ele>1762.3</ele>
        <time>2017-08-28T07:49:47Z</time>
      </trkpt>
      <trkpt lat="43.98708" lon="7.43246">
        <ele>1764.2</ele>
        <time>2017-08-28T07:50:02Z</time>
      </trkpt>
      <trkpt lat="43.98709" lon="7.43265">
        <ele>1765.5</ele>
        <time>2017-08-28T07:50:16Z</time>
      </trkpt>
      <trkpt lat="43.98705" lon="7.43281">
        <ele>1765.6</ele>
        <time>2017-08-28T07:50:30Z</time>
      </trkpt>
      <trkpt lat="43.98708" lon="7.43278">
        <ele>1766.4</ele>
        <time>2017-08-28T07:50:41Z</time>
      </trkpt>
      <trkpt lat="43.98707" lon="7.43278">
        <ele>1765.8</ele>
        <time>2017-08-28T07:50:48Z</time>
      </trkpt>
      <trkpt lat="43.98701" lon="7.43289">
        <ele>1765.6</ele>
        <time>2017-08-28T07:50:55Z</time>
      </trkpt>
      <trkpt lat="43.98697" lon="7.43295">
        <ele>1764.8</ele>
        <time>2017-08-28T07:50:59Z</time>
      </trkpt>
      <trkpt lat="43.98691" lon="7.43309">
        <ele>1764.5</ele>
        <time>2017-08-28T07:51:08Z</time>
      </trkpt>
      <trkpt lat="43.98679" lon="7.43337">
        <ele>1764.5</ele>
        <time>2017-08-28T07:51:25Z</time>
      </trkpt>
      <trkpt lat="43.98667" lon="7.43349">
        <ele>1762.5</ele>
        <time>2017-08-28T07:51:36Z</time>
      </trkpt>
      <trkpt lat="43.98665" lon="7.43351">
        <ele>1762.4</ele>
        <time>2017-08-28T07:51:39Z</time>
      </trkpt>
      <trkpt lat="43.98647" lon="7.43367">
        <ele>1761.8</ele>
        <time>2017-08-28T07:51:55Z</time>
      </trkpt>
      <trkpt lat="43.98633" lon="7.43386">
        <ele>1765</ele>
        <time>2017-08-28T07:52:10Z</time>
      </trkpt>
      <trkpt lat="43.9863" lon="7.43388">
        <ele>1764.7</ele>
        <time>2017-08-28T07:52:12Z</time>
      </trkpt>
      <trkpt lat="43.98615" lon="7.4341">
        <ele>1768.7</ele>
        <time>2017-08-28T07:52:28Z</time>
      </trkpt>
      <trkpt lat="43.98611" lon="7.43414">
        <ele>1768.7</ele>
        <time>2017-08-28T07:52:32Z</time>
      </trkpt>
      <trkpt lat="43.98598" lon="7.43427">
        <ele>1768.5</ele>
        <time>2017-08-28T07:52:44Z</time>
      </trkpt>
      <trkpt lat="43.98594" lon="7.43428">
        <ele>1767</ele>
        <time>2017-08-28T07:52:47Z</time>
      </trkpt>
      <trkpt lat="43.98587" lon="7.43435">
        <ele>1766.7</ele>
        <time>2017-08-28T07:52:53Z</time>
      </trkpt>
      <trkpt lat="43.98584" lon="7.43438">
        <ele>1766.5</ele>
        <time>2017-08-28T07:52:55Z</time>
      </trkpt>
      <trkpt lat="43.98576" lon="7.43451">
        <ele>1768.4</ele>
        <time>2017-08-28T07:53:04Z</time>
      </trkpt>
      <trkpt lat="43.98573" lon="7.43456">
        <ele>1769.2</ele>
        <time>2017-08-28T07:53:08Z</time>
      </trkpt>
      <trkpt lat="43.98568" lon="7.4346">
        <ele>1768.6</ele>
        <time>2017-08-28T07:53:13Z</time>
      </trkpt>
      <trkpt lat="43.98559" lon="7.43463">
        <ele>1765.4</ele>
        <time>2017-08-28T07:53:20Z</time>
      </trkpt>
      <trkpt lat="43.9854" lon="7.43489">
        <ele>1767.4</ele>
        <time>2017-08-28T07:53:38Z</time>
      </trkpt>
      <trkpt lat="43.98527" lon="7.4351">
        <ele>1769.9</ele>
        <time>2017-08-28T07:53:52Z</time>
      </trkpt>
      <trkpt lat="43.98513" lon="7.43531">
        <ele>1772.1</ele>
        <time>2017-08-28T07:54:08Z</time>
      </trkpt>
      <trkpt lat="43.98498" lon="7.43545">
        <ele>1771.9</ele>
        <time>2017-08-28T07:54:23Z</time>
      </trkpt>
      <trkpt lat="43.98481" lon="7.43553">
        <ele>1769.3</ele>
        <time>2017-08-28T07:54:36Z</time>
      </trkpt>
      <trkpt lat="43.98469" lon="7.43561">
        <ele>1767.7</ele>
        <time>2017-08-28T07:54:46Z</time>
      </trkpt>
      <trkpt lat="43.98463" lon="7.43571">
        <ele>1768.8</ele>
        <time>2017-08-28T07:54:53Z</time>
      </trkpt>
      <trkpt lat="43.98451" lon="7.43602">
        <ele>1773.4</ele>
        <time>2017-08-28T07:55:10Z</time>
      </trkpt>
      <trkpt lat="43.98448" lon="7.4362">
        <ele>1777.7</ele>
        <time>2017-08-28T07:55:20Z</time>
      </trkpt>
      <trkpt lat="43.9843" lon="7.43639">
        <ele>1775.8</ele>
        <time>2017-08-28T07:55:37Z</time>
      </trkpt>
      <trkpt lat="43.98412" lon="7.43656">
        <ele>1774.3</ele>
        <time>2017-08-28T07:55:53Z</time>
      </trkpt>
      <trkpt lat="43.98399" lon="7.43676">
        <ele>1775.6</ele>
        <time>2017-08-28T07:56:08Z</time>
      </trkpt>
      <trkpt lat="43.98387" lon="7.43698">
        <ele>1777</ele>
        <time>2017-08-28T07:56:23Z</time>
      </trkpt>
      <trkpt lat="43.98377" lon="7.43723">
        <ele>1779.1</ele>
        <time>2017-08-28T07:56:39Z</time>
      </trkpt>
      <trkpt lat="43.98363" lon="7.43749">
        <ele>1779.2</ele>
        <time>2017-08-28T07:56:56Z</time>
      </trkpt>
      <trkpt lat="43.98348" lon="7.43772">
        <ele>1778.8</ele>
        <time>2017-08-28T07:57:12Z</time>
      </trkpt>
      <trkpt lat="43.98322" lon="7.43786">
        <ele>1777.4</ele>
        <time>2017-08-28T07:57:32Z</time>
      </trkpt>
      <trkpt lat="43.98317" lon="7.43789">
        <ele>1777.1</ele>
        <time>2017-08-28T07:57:36Z</time>
      </trkpt>
      <trkpt lat="43.98308" lon="7.43791">
        <ele>1777</ele>
        <time>2017-08-28T07:57:41Z</time>
      </trkpt>
      <trkpt lat="43.98294" lon="7.43794">
        <ele>1778.2</ele>
        <time>2017-08-28T07:57:57Z</time>
      </trkpt>
      <trkpt lat="43.98295" lon="7.43795">
        <ele>1777.9</ele>
        <time>2017-08-28T07:58:09Z</time>
      </trkpt>
      <trkpt lat="43.98297" lon="7.43786">
        <ele>1778.8</ele>
        <time>2017-08-28T07:58:20Z</time>
      </trkpt>
      <trkpt lat="43.98297" lon="7.43785">
        <ele>1779</ele>
        <time>2017-08-28T07:58:21Z</time>
      </trkpt>
      <trkpt lat="43.98294" lon="7.43781">
        <ele>1779.8</ele>
        <time>2017-08-28T07:58:38Z</time>
      </trkpt>
      <trkpt lat="43.98295" lon="7.43782">
        <ele>1779.6</ele>
        <time>2017-08-28T07:58:58Z</time>
      </trkpt>
      <trkpt lat="43.98297" lon="7.43787">
        <ele>1778.7</ele>
        <time>2017-08-28T07:59:09Z</time>
      </trkpt>
      <trkpt lat="43.98299" lon="7.43792">
        <ele>1777.8</ele>
        <time>2017-08-28T07:59:23Z</time>
      </trkpt>
      <trkpt lat="43.98299" lon="7.43792">
        <ele>1777.8</ele>
        <time>2017-08-28T07:59:50Z</time>
      </trkpt>
      <trkpt lat="43.98301" lon="7.43794">
        <ele>1777.3</ele>
        <time>2017-08-28T07:59:56Z</time>
      </trkpt>
      <trkpt lat="43.98292" lon="7.43799">
        <ele>1777.8</ele>
        <time>2017-08-28T08:00:12Z</time>
      </trkpt>
      <trkpt lat="43.98292" lon="7.43799">
        <ele>1777.8</ele>
        <time>2017-08-28T08:00:32Z</time>
      </trkpt>
      <trkpt lat="43.98301" lon="7.43793">
        <ele>1777.4</ele>
        <time>2017-08-28T08:00:47Z</time>
      </trkpt>
      <trkpt lat="43.98301" lon="7.43793">
        <ele>1777.4</ele>
        <time>2017-08-28T08:00:48Z</time>
      </trkpt>
      <trkpt lat="43.983" lon="7.43794">
        <ele>1777.4</ele>
        <time>2017-08-28T08:01:06Z</time>
      </trkpt>
      <trkpt lat="43.98303" lon="7.43792">
        <ele>1777.3</ele>
        <time>2017-08-28T08:01:23Z</time>
      </trkpt>
      <trkpt lat="43.98305" lon="7.4379">
        <ele>1777.3</ele>
        <time>2017-08-28T08:01:26Z</time>
      </trkpt>
      <trkpt lat="43.98307" lon="7.43785">
        <ele>1777.9</ele>
        <time>2017-08-28T08:01:30Z</time>
      </trkpt>
      <trkpt lat="43.98303" lon="7.43778">
        <ele>1779.2</ele>
        <time>2017-08-28T08:01:44Z</time>
      </trkpt>
      <trkpt lat="43.98299" lon="7.43775">
        <ele>1779.5</ele>
        <time>2017-08-28T08:02:02Z</time>
      </trkpt>
      <trkpt lat="43.98292" lon="7.43771">
        <ele>1780</ele>
        <time>2017-08-28T08:02:17Z</time>
      </trkpt>
      <trkpt lat="43.98294" lon="7.43772">
        <ele>1779.8</ele>
        <time>2017-08-28T08:02:19Z</time>
      </trkpt>
      <trkpt lat="43.98295" lon="7.43773">
        <ele>1779.8</ele>
        <time>2017-08-28T08:02:21Z</time>
      </trkpt>
      <trkpt lat="43.98306" lon="7.43778">
        <ele>1779</ele>
        <time>2017-08-28T08:02:34Z</time>
      </trkpt>
      <trkpt lat="43.98306" lon="7.43778">
        <ele>1779</ele>
        <time>2017-08-28T08:02:55Z</time>
      </trkpt>
      <trkpt lat="43.98311" lon="7.43779">
        <ele>1778.6</ele>
        <time>2017-08-28T08:03:00Z</time>
      </trkpt>
      <trkpt lat="43.98328" lon="7.43785">
        <ele>1777.4</ele>
        <time>2017-08-28T08:03:14Z</time>
      </trkpt>
      <trkpt lat="43.9835" lon="7.43792">
        <ele>1777.7</ele>
        <time>2017-08-28T08:03:33Z</time>
      </trkpt>
      <trkpt lat="43.98351" lon="7.43792">
        <ele>1777.7</ele>
        <time>2017-08-28T08:03:43Z</time>
      </trkpt>
      <trkpt lat="43.98355" lon="7.43793">
        <ele>1777.9</ele>
        <time>2017-08-28T08:03:47Z</time>
      </trkpt>
      <trkpt lat="43.98361" lon="7.43794">
        <ele>1778.2</ele>
        <time>2017-08-28T08:03:52Z</time>
      </trkpt>
      <trkpt lat="43.98367" lon="7.438">
        <ele>1778.6</ele>
        <time>2017-08-28T08:04:05Z</time>
      </trkpt>
      <trkpt lat="43.98364" lon="7.43798">
        <ele>1778.3</ele>
        <time>2017-08-28T08:04:27Z</time>
      </trkpt>
      <trkpt lat="43.98363" lon="7.43797">
        <ele>1778.2</ele>
        <time>2017-08-28T08:04:28Z</time>
      </trkpt>
      <trkpt lat="43.98343" lon="7.43789">
        <ele>1777.5</ele>
        <time>2017-08-28T08:04:45Z</time>
      </trkpt>
      <trkpt lat="43.98339" lon="7.43788">
        <ele>1777.3</ele>
        <time>2017-08-28T08:04:48Z</time>
      </trkpt>
      <trkpt lat="43.98333" lon="7.43787">
        <ele>1777</ele>
        <time>2017-08-28T08:04:52Z</time>
      </trkpt>
      <trkpt lat="43.98314" lon="7.43791">
        <ele>1776.9</ele>
        <time>2017-08-28T08:05:10Z</time>
      </trkpt>
      <trkpt lat="43.98315" lon="7.43791">
        <ele>1776.9</ele>
        <time>2017-08-28T08:05:18Z</time>
      </trkpt>
      <trkpt lat="43.98311" lon="7.43792">
        <ele>1776.9</ele>
        <time>2017-08-28T08:05:22Z</time>
      </trkpt>
      <trkpt lat="43.98287" lon="7.43803">
        <ele>1778</ele>
        <time>2017-08-28T08:05:40Z</time>
      </trkpt>
      <trkpt lat="43.98265" lon="7.43818">
        <ele>1778.8</ele>
        <time>2017-08-28T08:05:57Z</time>
      </trkpt>
      <trkpt lat="43.98249" lon="7.43837">
        <ele>1778.3</ele>
        <time>2017-08-28T08:06:12Z</time>
      </trkpt>
      <trkpt lat="43.98234" lon="7.43851">
        <ele>1777.6</ele>
        <time>2017-08-28T08:06:25Z</time>
      </trkpt>
      <trkpt lat="43.98227" lon="7.43858">
        <ele>1777</ele>
        <time>2017-08-28T08:06:31Z</time>
      </trkpt>
      <trkpt lat="43.9821" lon="7.43864">
        <ele>1779.1</ele>
        <time>2017-08-28T08:06:46Z</time>
      </trkpt>
      <trkpt lat="43.98195" lon="7.43871">
        <ele>1780.7</ele>
        <time>2017-08-28T08:07:00Z</time>
      </trkpt>
      <trkpt lat="43.98195" lon="7.43871">
        <ele>1780.7</ele>
        <time>2017-08-28T08:07:04Z</time>
      </trkpt>
      <trkpt lat="43.98185" lon="7.43881">
        <ele>1780.1</ele>
        <time>2017-08-28T08:07:13Z</time>
      </trkpt>
      <trkpt lat="43.98178" lon="7.43888">
        <ele>1780</ele>
        <time>2017-08-28T08:07:18Z</time>
      </trkpt>
      <trkpt lat="43.98161" lon="7.43905">
        <ele>1778.3</ele>
        <time>2017-08-28T08:07:32Z</time>
      </trkpt>
      <trkpt lat="43.98159" lon="7.43907">
        <ele>1777.9</ele>
        <time>2017-08-28T08:07:34Z</time>
      </trkpt>
      <trkpt lat="43.98152" lon="7.43913">
        <ele>1777.3</ele>
        <time>2017-08-28T08:07:40Z</time>
      </trkpt>
      <trkpt lat="43.98144" lon="7.43923">
        <ele>1776</ele>
        <time>2017-08-28T08:07:48Z</time>
      </trkpt>
      <trkpt lat="43.98127" lon="7.43941">
        <ele>1772.7</ele>
        <time>2017-08-28T08:08:03Z</time>
      </trkpt>
      <trkpt lat="43.98115" lon="7.43946">
        <ele>1772.3</ele>
        <time>2017-08-28T08:08:16Z</time>
      </trkpt>
      <trkpt lat="43.98112" lon="7.43946">
        <ele>1772.5</ele>
        <time>2017-08-28T08:08:18Z</time>
      </trkpt>
      <trkpt lat="43.98109" lon="7.43946">
        <ele>1772.1</ele>
        <time>2017-08-28T08:08:21Z</time>
      </trkpt>
      <trkpt lat="43.98096" lon="7.43936">
        <ele>1771.4</ele>
        <time>2017-08-28T08:08:34Z</time>
      </trkpt>
      <trkpt lat="43.98088" lon="7.4393">
        <ele>1770.7</ele>
        <time>2017-08-28T08:08:41Z</time>
      </trkpt>
      <trkpt lat="43.98084" lon="7.43944">
        <ele>1767.2</ele>
        <time>2017-08-28T08:08:46Z</time>
      </trkpt>
      <trkpt lat="43.98083" lon="7.43952">
        <ele>1765</ele>
        <time>2017-08-28T08:08:48Z</time>
      </trkpt>
      <trkpt lat="43.98083" lon="7.4396">
        <ele>1762.9</ele>
        <time>2017-08-28T08:08:52Z</time>
      </trkpt>
      <trkpt lat="43.98083" lon="7.43962">
        <ele>1762.4</ele>
        <time>2017-08-28T08:08:53Z</time>
      </trkpt>
      <trkpt lat="43.98081" lon="7.43983">
        <ele>1756</ele>
        <time>2017-08-28T08:09:05Z</time>
      </trkpt>
      <trkpt lat="43.9808" lon="7.43984">
        <ele>1755.3</ele>
        <time>2017-08-28T08:09:07Z</time>
      </trkpt>
      <trkpt lat="43.98074" lon="7.43982">
        <ele>1753.6</ele>
        <time>2017-08-28T08:09:11Z</time>
      </trkpt>
      <trkpt lat="43.98072" lon="7.43977">
        <ele>1754.2</ele>
        <time>2017-08-28T08:09:14Z</time>
      </trkpt>
      <trkpt lat="43.98069" lon="7.43974">
        <ele>1753.8</ele>
        <time>2017-08-28T08:09:18Z</time>
      </trkpt>
      <trkpt lat="43.98068" lon="7.43973">
        <ele>1753.7</ele>
        <time>2017-08-28T08:09:19Z</time>
      </trkpt>
      <trkpt lat="43.98057" lon="7.43958">
        <ele>1752.7</ele>
        <time>2017-08-28T08:09:32Z</time>
      </trkpt>
      <trkpt lat="43.98056" lon="7.43957">
        <ele>1752.5</ele>
        <time>2017-08-28T08:09:34Z</time>
      </trkpt>
      <trkpt lat="43.98053" lon="7.43958">
        <ele>1750.7</ele>
        <time>2017-08-28T08:09:36Z</time>
      </trkpt>
      <trkpt lat="43.98047" lon="7.43961">
        <ele>1746.8</ele>
        <time>2017-08-28T08:09:41Z</time>
      </trkpt>
      <trkpt lat="43.98048" lon="7.43973">
        <ele>1744.7</ele>
        <time>2017-08-28T08:09:46Z</time>
      </trkpt>
      <trkpt lat="43.98048" lon="7.43982">
        <ele>1742.6</ele>
        <time>2017-08-28T08:10:00Z</time>
      </trkpt>
      <trkpt lat="43.98048" lon="7.4399">
        <ele>1740.6</ele>
        <time>2017-08-28T08:10:06Z</time>
      </trkpt>
      <trkpt lat="43.98049" lon="7.44004">
        <ele>1737.4</ele>
        <time>2017-08-28T08:10:13Z</time>
      </trkpt>
      <trkpt lat="43.98051" lon="7.44006">
        <ele>1737.8</ele>
        <time>2017-08-28T08:10:14Z</time>
      </trkpt>
      <trkpt lat="43.98057" lon="7.44013">
        <ele>1738.3</ele>
        <time>2017-08-28T08:10:21Z</time>
      </trkpt>
      <trkpt lat="43.98057" lon="7.44019">
        <ele>1736.3</ele>
        <time>2017-08-28T08:10:24Z</time>
      </trkpt>
      <trkpt lat="43.98063" lon="7.44046">
        <ele>1729.2</ele>
        <time>2017-08-28T08:10:38Z</time>
      </trkpt>
      <trkpt lat="43.98069" lon="7.44055">
        <ele>1727.6</ele>
        <time>2017-08-28T08:10:44Z</time>
      </trkpt>
      <trkpt lat="43.98075" lon="7.44059">
        <ele>1727.5</ele>
        <time>2017-08-28T08:10:49Z</time>
      </trkpt>
      <trkpt lat="43.9808" lon="7.4406">
        <ele>1728.3</ele>
        <time>2017-08-28T08:10:52Z</time>
      </trkpt>
      <trkpt lat="43.98082" lon="7.44061">
        <ele>1728.3</ele>
        <time>2017-08-28T08:10:53Z</time>
      </trkpt>
      <trkpt lat="43.98093" lon="7.44063">
        <ele>1728</ele>
        <time>2017-08-28T08:11:01Z</time>
      </trkpt>
      <trkpt lat="43.98094" lon="7.44063">
        <ele>1728.1</ele>
        <time>2017-08-28T08:11:02Z</time>
      </trkpt>
      <trkpt lat="43.98099" lon="7.44062">
        <ele>1728.6</ele>
        <time>2017-08-28T08:11:07Z</time>
      </trkpt>
      <trkpt lat="43.98104" lon="7.44065">
        <ele>1727.4</ele>
        <time>2017-08-28T08:11:11Z</time>
      </trkpt>
      <trkpt lat="43.98109" lon="7.44071">
        <ele>1724.7</ele>
        <time>2017-08-28T08:11:15Z</time>
      </trkpt>
      <trkpt lat="43.98127" lon="7.44079">
        <ele>1719.2</ele>
        <time>2017-08-28T08:11:28Z</time>
      </trkpt>
      <trkpt lat="43.98138" lon="7.44078">
        <ele>1718.4</ele>
        <time>2017-08-28T08:11:37Z</time>
      </trkpt>
      <trkpt lat="43.98143" lon="7.44082">
        <ele>1715.5</ele>
        <time>2017-08-28T08:11:49Z</time>
      </trkpt>
      <trkpt lat="43.98143" lon="7.44082">
        <ele>1715.5</ele>
        <time>2017-08-28T08:12:00Z</time>
      </trkpt>
      <trkpt lat="43.98144" lon="7.44082">
        <ele>1715.3</ele>
        <time>2017-08-28T08:12:02Z</time>
      </trkpt>
      <trkpt lat="43.98149" lon="7.44078">
        <ele>1715.7</ele>
        <time>2017-08-28T08:12:08Z</time>
      </trkpt>
      <trkpt lat="43.9815" lon="7.44074">
        <ele>1717.1</ele>
        <time>2017-08-28T08:12:12Z</time>
      </trkpt>
      <trkpt lat="43.98165" lon="7.44067">
        <ele>1715.9</ele>
        <time>2017-08-28T08:12:21Z</time>
      </trkpt>
      <trkpt lat="43.98186" lon="7.44054">
        <ele>1715.1</ele>
        <time>2017-08-28T08:12:34Z</time>
      </trkpt>
      <trkpt lat="43.98188" lon="7.4405">
        <ele>1716.1</ele>
        <time>2017-08-28T08:12:36Z</time>
      </trkpt>
      <trkpt lat="43.98193" lon="7.44035">
        <ele>1720.6</ele>
        <time>2017-08-28T08:12:42Z</time>
      </trkpt>
      <trkpt lat="43.98199" lon="7.4402">
        <ele>1724.6</ele>
        <time>2017-08-28T08:12:52Z</time>
      </trkpt>
      <trkpt lat="43.98206" lon="7.44019">
        <ele>1723.1</ele>
        <time>2017-08-28T08:12:57Z</time>
      </trkpt>
      <trkpt lat="43.98229" lon="7.44032">
        <ele>1716.6</ele>
        <time>2017-08-28T08:13:13Z</time>
      </trkpt>
      <trkpt lat="43.98232" lon="7.44033">
        <ele>1716.9</ele>
        <time>2017-08-28T08:13:16Z</time>
      </trkpt>
      <trkpt lat="43.98245" lon="7.44032">
        <ele>1718.7</ele>
        <time>2017-08-28T08:13:26Z</time>
      </trkpt>
      <trkpt lat="43.98261" lon="7.44036">
        <ele>1719.9</ele>
        <time>2017-08-28T08:13:40Z</time>
      </trkpt>
      <trkpt lat="43.98264" lon="7.44037">
        <ele>1720.2</ele>
        <time>2017-08-28T08:13:44Z</time>
      </trkpt>
      <trkpt lat="43.98267" lon="7.44041">
        <ele>1720.8</ele>
        <time>2017-08-28T08:13:50Z</time>
      </trkpt>
      <trkpt lat="43.98261" lon="7.4404">
        <ele>1720.4</ele>
        <time>2017-08-28T08:13:58Z</time>
      </trkpt>
      <trkpt lat="43.98257" lon="7.44044">
        <ele>1720.6</ele>
        <time>2017-08-28T08:14:04Z</time>
      </trkpt>
      <trkpt lat="43.98246" lon="7.4406">
        <ele>1720.6</ele>
        <time>2017-08-28T08:14:21Z</time>
      </trkpt>
      <trkpt lat="43.98242" lon="7.44067">
        <ele>1720.6</ele>
        <time>2017-08-28T08:14:28Z</time>
      </trkpt>
      <trkpt lat="43.98238" lon="7.44077">
        <ele>1721.1</ele>
        <time>2017-08-28T08:14:35Z</time>
      </trkpt>
      <trkpt lat="43.98238" lon="7.4408">
        <ele>1721.5</ele>
        <time>2017-08-28T08:14:37Z</time>
      </trkpt>
      <trkpt lat="43.98233" lon="7.44088">
        <ele>1722</ele>
        <time>2017-08-28T08:14:44Z</time>
      </trkpt>
      <trkpt lat="43.98229" lon="7.44092">
        <ele>1722</ele>
        <time>2017-08-28T08:14:50Z</time>
      </trkpt>
      <trkpt lat="43.98228" lon="7.44096">
        <ele>1722.7</ele>
        <time>2017-08-28T08:14:53Z</time>
      </trkpt>
      <trkpt lat="43.98224" lon="7.44119">
        <ele>1728.1</ele>
        <time>2017-08-28T08:15:08Z</time>
      </trkpt>
      <trkpt lat="43.98219" lon="7.44127">
        <ele>1729.2</ele>
        <time>2017-08-28T08:15:16Z</time>
      </trkpt>
      <trkpt lat="43.98214" lon="7.44146">
        <ele>1733.7</ele>
        <time>2017-08-28T08:15:30Z</time>
      </trkpt>
      <trkpt lat="43.98211" lon="7.44163">
        <ele>1738.5</ele>
        <time>2017-08-28T08:15:43Z</time>
      </trkpt>
      <trkpt lat="43.98212" lon="7.44167">
        <ele>1740.2</ele>
        <time>2017-08-28T08:15:46Z</time>
      </trkpt>
      <trkpt lat="43.98203" lon="7.44174">
        <ele>1740.3</ele>
        <time>2017-08-28T08:15:56Z</time>
      </trkpt>
      <trkpt lat="43.98193" lon="7.44186">
        <ele>1742.3</ele>
        <time>2017-08-28T08:16:10Z</time>
      </trkpt>
      <trkpt lat="43.98188" lon="7.4419">
        <ele>1742.6</ele>
        <time>2017-08-28T08:16:21Z</time>
      </trkpt>
      <trkpt lat="43.982" lon="7.44206">
        <ele>1751.9</ele>
        <time>2017-08-28T08:16:32Z</time>
      </trkpt>
      <trkpt lat="43.98215" lon="7.44206">
        <ele>1755.4</ele>
        <time>2017-08-28T08:16:49Z</time>
      </trkpt>
      <trkpt lat="43.98229" lon="7.44201">
        <ele>1757.3</ele>
        <time>2017-08-28T08:17:02Z</time>
      </trkpt>
      <trkpt lat="43.98242" lon="7.44195">
        <ele>1758.9</ele>
        <time>2017-08-28T08:17:14Z</time>
      </trkpt>
      <trkpt lat="43.98252" lon="7.44186">
        <ele>1758.8</ele>
        <time>2017-08-28T08:17:26Z</time>
      </trkpt>
      <trkpt lat="43.98263" lon="7.44175">
        <ele>1758.1</ele>
        <time>2017-08-28T08:17:38Z</time>
      </trkpt>
      <trkpt lat="43.98275" lon="7.4417">
        <ele>1759.5</ele>
        <time>2017-08-28T08:17:51Z</time>
      </trkpt>
      <trkpt lat="43.9828" lon="7.44168">
        <ele>1759.9</ele>
        <time>2017-08-28T08:17:56Z</time>
      </trkpt>
      <trkpt lat="43.98292" lon="7.44167">
        <ele>1761.7</ele>
        <time>2017-08-28T08:18:08Z</time>
      </trkpt>
      <trkpt lat="43.98294" lon="7.44166">
        <ele>1761.7</ele>
        <time>2017-08-28T08:18:15Z</time>
      </trkpt>
      <trkpt lat="43.98293" lon="7.44164">
        <ele>1760.8</ele>
        <time>2017-08-28T08:18:22Z</time>
      </trkpt>
      <trkpt lat="43.98284" lon="7.44176">
        <ele>1763.5</ele>
        <time>2017-08-28T08:18:36Z</time>
      </trkpt>
      <trkpt lat="43.98277" lon="7.44186">
        <ele>1765.7</ele>
        <time>2017-08-28T08:18:45Z</time>
      </trkpt>
      <trkpt lat="43.98275" lon="7.4419">
        <ele>1766.6</ele>
        <time>2017-08-28T08:18:48Z</time>
      </trkpt>
      <trkpt lat="43.98267" lon="7.44204">
        <ele>1769.3</ele>
        <time>2017-08-28T08:19:00Z</time>
      </trkpt>
      <trkpt lat="43.98265" lon="7.44211">
        <ele>1771.3</ele>
        <time>2017-08-28T08:19:04Z</time>
      </trkpt>
      <trkpt lat="43.98255" lon="7.44228">
        <ele>1774.5</ele>
        <time>2017-08-28T08:19:18Z</time>
      </trkpt>
      <trkpt lat="43.98248" lon="7.44242">
        <ele>1777.6</ele>
        <time>2017-08-28T08:19:30Z</time>
      </trkpt>
      <trkpt lat="43.9824" lon="7.44257">
        <ele>1780.6</ele>
        <time>2017-08-28T08:19:44Z</time>
      </trkpt>
      <trkpt lat="43.98233" lon="7.44273">
        <ele>1783.8</ele>
        <time>2017-08-28T08:19:57Z</time>
      </trkpt>
      <trkpt lat="43.98225" lon="7.4429">
        <ele>1786.7</ele>
        <time>2017-08-28T08:20:13Z</time>
      </trkpt>
      <trkpt lat="43.98215" lon="7.44309">
        <ele>1789.5</ele>
        <time>2017-08-28T08:20:30Z</time>
      </trkpt>
      <trkpt lat="43.98206" lon="7.44333">
        <ele>1793.6</ele>
        <time>2017-08-28T08:20:47Z</time>
      </trkpt>
      <trkpt lat="43.98203" lon="7.44355">
        <ele>1797.1</ele>
        <time>2017-08-28T08:21:01Z</time>
      </trkpt>
      <trkpt lat="43.98197" lon="7.44372">
        <ele>1798.4</ele>
        <time>2017-08-28T08:21:13Z</time>
      </trkpt>
      <trkpt lat="43.98195" lon="7.44378">
        <ele>1798.9</ele>
        <time>2017-08-28T08:21:17Z</time>
      </trkpt>
      <trkpt lat="43.98177" lon="7.44388">
        <ele>1800.5</ele>
        <time>2017-08-28T08:21:34Z</time>
      </trkpt>
      <trkpt lat="43.98159" lon="7.44393">
        <ele>1801.5</ele>
        <time>2017-08-28T08:21:51Z</time>
      </trkpt>
      <trkpt lat="43.98146" lon="7.44393">
        <ele>1802.2</ele>
        <time>2017-08-28T08:22:05Z</time>
      </trkpt>
      <trkpt lat="43.98132" lon="7.44396">
        <ele>1803.5</ele>
        <time>2017-08-28T08:22:18Z</time>
      </trkpt>
      <trkpt lat="43.98118" lon="7.44401">
        <ele>1805.5</ele>
        <time>2017-08-28T08:22:33Z</time>
      </trkpt>
      <trkpt lat="43.98107" lon="7.44407">
        <ele>1807.6</ele>
        <time>2017-08-28T08:22:44Z</time>
      </trkpt>
      <trkpt lat="43.98095" lon="7.44414">
        <ele>1809.8</ele>
        <time>2017-08-28T08:22:58Z</time>
      </trkpt>
      <trkpt lat="43.98084" lon="7.44428">
        <ele>1813.4</ele>
        <time>2017-08-28T08:23:11Z</time>
      </trkpt>
      <trkpt lat="43.98079" lon="7.44439">
        <ele>1815.5</ele>
        <time>2017-08-28T08:23:17Z</time>
      </trkpt>
      <trkpt lat="43.98069" lon="7.44461">
        <ele>1819</ele>
        <time>2017-08-28T08:23:32Z</time>
      </trkpt>
      <trkpt lat="43.98052" lon="7.44487">
        <ele>1822.3</ele>
        <time>2017-08-28T08:23:51Z</time>
      </trkpt>
      <trkpt lat="43.98041" lon="7.44499">
        <ele>1823.3</ele>
        <time>2017-08-28T08:24:04Z</time>
      </trkpt>
      <trkpt lat="43.98036" lon="7.44504">
        <ele>1823.7</ele>
        <time>2017-08-28T08:24:09Z</time>
      </trkpt>
      <trkpt lat="43.98029" lon="7.44508">
        <ele>1824.2</ele>
        <time>2017-08-28T08:24:16Z</time>
      </trkpt>
      <trkpt lat="43.98024" lon="7.44511">
        <ele>1824.6</ele>
        <time>2017-08-28T08:24:20Z</time>
      </trkpt>
      <trkpt lat="43.98019" lon="7.44518">
        <ele>1825.9</ele>
        <time>2017-08-28T08:24:26Z</time>
      </trkpt>
      <trkpt lat="43.98004" lon="7.4453">
        <ele>1829.1</ele>
        <time>2017-08-28T08:24:41Z</time>
      </trkpt>
      <trkpt lat="43.97987" lon="7.44541">
        <ele>1833.2</ele>
        <time>2017-08-28T08:24:57Z</time>
      </trkpt>
      <trkpt lat="43.97975" lon="7.44544">
        <ele>1835.7</ele>
        <time>2017-08-28T08:25:09Z</time>
      </trkpt>
      <trkpt lat="43.97958" lon="7.44543">
        <ele>1837.7</ele>
        <time>2017-08-28T08:25:24Z</time>
      </trkpt>
      <trkpt lat="43.97949" lon="7.44543">
        <ele>1838.8</ele>
        <time>2017-08-28T08:25:34Z</time>
      </trkpt>
      <trkpt lat="43.97935" lon="7.44544">
        <ele>1841.4</ele>
        <time>2017-08-28T08:25:47Z</time>
      </trkpt>
      <trkpt lat="43.9792" lon="7.44543">
        <ele>1843.9</ele>
        <time>2017-08-28T08:26:02Z</time>
      </trkpt>
      <trkpt lat="43.97908" lon="7.44546">
        <ele>1847.1</ele>
        <time>2017-08-28T08:26:15Z</time>
      </trkpt>
      <trkpt lat="43.97895" lon="7.44551">
        <ele>1851.3</ele>
        <time>2017-08-28T08:26:29Z</time>
      </trkpt>
      <trkpt lat="43.97882" lon="7.44554">
        <ele>1854.7</ele>
        <time>2017-08-28T08:26:42Z</time>
      </trkpt>
      <trkpt lat="43.97867" lon="7.44553">
        <ele>1857</ele>
        <time>2017-08-28T08:26:56Z</time>
      </trkpt>
      <trkpt lat="43.97849" lon="7.44553">
        <ele>1859.8</ele>
        <time>2017-08-28T08:27:12Z</time>
      </trkpt>
      <trkpt lat="43.97835" lon="7.44559">
        <ele>1863.6</ele>
        <time>2017-08-28T08:27:26Z</time>
      </trkpt>
      <trkpt lat="43.97819" lon="7.44563">
        <ele>1866.8</ele>
        <time>2017-08-28T08:27:42Z</time>
      </trkpt>
      <trkpt lat="43.97814" lon="7.44565">
        <ele>1867.9</ele>
        <time>2017-08-28T08:27:47Z</time>
      </trkpt>
      <trkpt lat="43.97798" lon="7.44566">
        <ele>1870.2</ele>
        <time>2017-08-28T08:28:03Z</time>
      </trkpt>
      <trkpt lat="43.97784" lon="7.44572">
        <ele>1873.2</ele>
        <time>2017-08-28T08:28:18Z</time>
      </trkpt>
      <trkpt lat="43.97769" lon="7.44589">
        <ele>1877.2</ele>
        <time>2017-08-28T08:28:32Z</time>
      </trkpt>
      <trkpt lat="43.9776" lon="7.44604">
        <ele>1877.5</ele>
        <time>2017-08-28T08:28:46Z</time>
      </trkpt>
      <trkpt lat="43.97761" lon="7.44604">
        <ele>1877.4</ele>
        <time>2017-08-28T08:28:59Z</time>
      </trkpt>
      <trkpt lat="43.97757" lon="7.44609">
        <ele>1877.4</ele>
        <time>2017-08-28T08:29:10Z</time>
      </trkpt>
      <trkpt lat="43.97756" lon="7.44609">
        <ele>1877.5</ele>
        <time>2017-08-28T08:29:37Z</time>
      </trkpt>
      <trkpt lat="43.97756" lon="7.44609">
        <ele>1877.5</ele>
        <time>2017-08-28T08:29:55Z</time>
      </trkpt>
      <trkpt lat="43.97756" lon="7.44609">
        <ele>1877.5</ele>
        <time>2017-08-28T08:30:10Z</time>
      </trkpt>
      <trkpt lat="43.97753" lon="7.4461">
        <ele>1877.8</ele>
        <time>2017-08-28T08:30:14Z</time>
      </trkpt>
      <trkpt lat="43.9773" lon="7.44612">
        <ele>1879.2</ele>
        <time>2017-08-28T08:30:31Z</time>
      </trkpt>
      <trkpt lat="43.97726" lon="7.44611">
        <ele>1879.7</ele>
        <time>2017-08-28T08:30:34Z</time>
      </trkpt>
      <trkpt lat="43.9772" lon="7.44611">
        <ele>1880.5</ele>
        <time>2017-08-28T08:30:39Z</time>
      </trkpt>
      <trkpt lat="43.97698" lon="7.44616">
        <ele>1883.5</ele>
        <time>2017-08-28T08:30:55Z</time>
      </trkpt>
      <trkpt lat="43.97692" lon="7.4462">
        <ele>1883.4</ele>
        <time>2017-08-28T08:31:00Z</time>
      </trkpt>
      <trkpt lat="43.97676" lon="7.44629">
        <ele>1884.2</ele>
        <time>2017-08-28T08:31:13Z</time>
      </trkpt>
      <trkpt lat="43.97659" lon="7.44642">
        <ele>1884.1</ele>
        <time>2017-08-28T08:31:27Z</time>
      </trkpt>
      <trkpt lat="43.97641" lon="7.44654">
        <ele>1884.8</ele>
        <time>2017-08-28T08:31:40Z</time>
      </trkpt>
      <trkpt lat="43.97625" lon="7.44663">
        <ele>1885.8</ele>
        <time>2017-08-28T08:31:54Z</time>
      </trkpt>
      <trkpt lat="43.97607" lon="7.4468">
        <ele>1883.6</ele>
        <time>2017-08-28T08:32:09Z</time>
      </trkpt>
      <trkpt lat="43.97591" lon="7.44691">
        <ele>1883</ele>
        <time>2017-08-28T08:32:23Z</time>
      </trkpt>
      <trkpt lat="43.97576" lon="7.44705">
        <ele>1882.5</ele>
        <time>2017-08-28T08:32:37Z</time>
      </trkpt>
      <trkpt lat="43.97558" lon="7.44717">
        <ele>1884.4</ele>
        <time>2017-08-28T08:32:52Z</time>
      </trkpt>
      <trkpt lat="43.9754" lon="7.44722">
        <ele>1885.7</ele>
        <time>2017-08-28T08:33:07Z</time>
      </trkpt>
      <trkpt lat="43.9752" lon="7.4472">
        <ele>1885.9</ele>
        <time>2017-08-28T08:33:22Z</time>
      </trkpt>
      <trkpt lat="43.975" lon="7.44733">
        <ele>1884</ele>
        <time>2017-08-28T08:33:37Z</time>
      </trkpt>
      <trkpt lat="43.97481" lon="7.44739">
        <ele>1883.5</ele>
        <time>2017-08-28T08:33:51Z</time>
      </trkpt>
      <trkpt lat="43.97456" lon="7.44753">
        <ele>1883.4</ele>
        <time>2017-08-28T08:34:10Z</time>
      </trkpt>
      <trkpt lat="43.97432" lon="7.44763">
        <ele>1881.7</ele>
        <time>2017-08-28T08:34:28Z</time>
      </trkpt>
      <trkpt lat="43.9741" lon="7.44771">
        <ele>1880.5</ele>
        <time>2017-08-28T08:34:44Z</time>
      </trkpt>
      <trkpt lat="43.97389" lon="7.44785">
        <ele>1880.1</ele>
        <time>2017-08-28T08:35:00Z</time>
      </trkpt>
      <trkpt lat="43.97386" lon="7.44789">
        <ele>1880.4</ele>
        <time>2017-08-28T08:35:03Z</time>
      </trkpt>
      <trkpt lat="43.97382" lon="7.44794">
        <ele>1880.7</ele>
        <time>2017-08-28T08:35:07Z</time>
      </trkpt>
      <trkpt lat="43.97362" lon="7.44824">
        <ele>1882.2</ele>
        <time>2017-08-28T08:35:26Z</time>
      </trkpt>
      <trkpt lat="43.97358" lon="7.4483">
        <ele>1882.4</ele>
        <time>2017-08-28T08:35:30Z</time>
      </trkpt>
      <trkpt lat="43.97354" lon="7.44836">
        <ele>1882.3</ele>
        <time>2017-08-28T08:35:34Z</time>
      </trkpt>
      <trkpt lat="43.97338" lon="7.44864">
        <ele>1883.1</ele>
        <time>2017-08-28T08:35:52Z</time>
      </trkpt>
      <trkpt lat="43.9732" lon="7.44893">
        <ele>1885.8</ele>
        <time>2017-08-28T08:36:12Z</time>
      </trkpt>
      <trkpt lat="43.97304" lon="7.44897">
        <ele>1887.6</ele>
        <time>2017-08-28T08:36:29Z</time>
      </trkpt>
      <trkpt lat="43.97296" lon="7.44894">
        <ele>1889.6</ele>
        <time>2017-08-28T08:36:39Z</time>
      </trkpt>
      <trkpt lat="43.97283" lon="7.44882">
        <ele>1890.8</ele>
        <time>2017-08-28T08:36:54Z</time>
      </trkpt>
      <trkpt lat="43.97273" lon="7.44874">
        <ele>1891.9</ele>
        <time>2017-08-28T08:37:06Z</time>
      </trkpt>
      <trkpt lat="43.9727" lon="7.4487">
        <ele>1891.8</ele>
        <time>2017-08-28T08:37:09Z</time>
      </trkpt>
      <trkpt lat="43.97252" lon="7.44861">
        <ele>1895.3</ele>
        <time>2017-08-28T08:37:25Z</time>
      </trkpt>
      <trkpt lat="43.97239" lon="7.44857">
        <ele>1898</ele>
        <time>2017-08-28T08:37:38Z</time>
      </trkpt>
      <trkpt lat="43.97238" lon="7.44857">
        <ele>1898.3</ele>
        <time>2017-08-28T08:37:53Z</time>
      </trkpt>
      <trkpt lat="43.97231" lon="7.44857">
        <ele>1900.6</ele>
        <time>2017-08-28T08:37:58Z</time>
      </trkpt>
      <trkpt lat="43.97222" lon="7.44853">
        <ele>1901.9</ele>
        <time>2017-08-28T08:38:05Z</time>
      </trkpt>
      <trkpt lat="43.97209" lon="7.44851">
        <ele>1905.3</ele>
        <time>2017-08-28T08:38:17Z</time>
      </trkpt>
      <trkpt lat="43.97195" lon="7.44848">
        <ele>1908.6</ele>
        <time>2017-08-28T08:38:30Z</time>
      </trkpt>
      <trkpt lat="43.9719" lon="7.44845">
        <ele>1909.3</ele>
        <time>2017-08-28T08:38:35Z</time>
      </trkpt>
      <trkpt lat="43.97179" lon="7.44839">
        <ele>1910.9</ele>
        <time>2017-08-28T08:38:48Z</time>
      </trkpt>
      <trkpt lat="43.97167" lon="7.44832">
        <ele>1912.3</ele>
        <time>2017-08-28T08:39:01Z</time>
      </trkpt>
      <trkpt lat="43.97153" lon="7.44824">
        <ele>1914.5</ele>
        <time>2017-08-28T08:39:14Z</time>
      </trkpt>
      <trkpt lat="43.97141" lon="7.44815">
        <ele>1915.9</ele>
        <time>2017-08-28T08:39:26Z</time>
      </trkpt>
      <trkpt lat="43.97127" lon="7.44804">
        <ele>1917</ele>
        <time>2017-08-28T08:39:41Z</time>
      </trkpt>
      <trkpt lat="43.97121" lon="7.448">
        <ele>1917.6</ele>
        <time>2017-08-28T08:39:49Z</time>
      </trkpt>
      <trkpt lat="43.97115" lon="7.44796">
        <ele>1918.3</ele>
        <time>2017-08-28T08:39:55Z</time>
      </trkpt>
      <trkpt lat="43.97104" lon="7.44788">
        <ele>1919.4</ele>
        <time>2017-08-28T08:40:03Z</time>
      </trkpt>
      <trkpt lat="43.97103" lon="7.44787">
        <ele>1919.4</ele>
        <time>2017-08-28T08:40:04Z</time>
      </trkpt>
      <trkpt lat="43.97088" lon="7.44774">
        <ele>1920.1</ele>
        <time>2017-08-28T08:40:18Z</time>
      </trkpt>
      <trkpt lat="43.97068" lon="7.44762">
        <ele>1921.9</ele>
        <time>2017-08-28T08:40:34Z</time>
      </trkpt>
      <trkpt lat="43.97053" lon="7.44753">
        <ele>1923.1</ele>
        <time>2017-08-28T08:40:46Z</time>
      </trkpt>
      <trkpt lat="43.97046" lon="7.44751">
        <ele>1924.2</ele>
        <time>2017-08-28T08:40:52Z</time>
      </trkpt>
      <trkpt lat="43.97041" lon="7.44747">
        <ele>1923.7</ele>
        <time>2017-08-28T08:40:56Z</time>
      </trkpt>
      <trkpt lat="43.97024" lon="7.44733">
        <ele>1921.1</ele>
        <time>2017-08-28T08:41:10Z</time>
      </trkpt>
      <trkpt lat="43.97018" lon="7.4473">
        <ele>1920.7</ele>
        <time>2017-08-28T08:41:15Z</time>
      </trkpt>
      <trkpt lat="43.97003" lon="7.44721">
        <ele>1918.9</ele>
        <time>2017-08-28T08:41:27Z</time>
      </trkpt>
      <trkpt lat="43.96997" lon="7.44718">
        <ele>1918.5</ele>
        <time>2017-08-28T08:41:32Z</time>
      </trkpt>
      <trkpt lat="43.96987" lon="7.44718">
        <ele>1919.9</ele>
        <time>2017-08-28T08:41:39Z</time>
      </trkpt>
      <trkpt lat="43.96974" lon="7.44714">
        <ele>1919.9</ele>
        <time>2017-08-28T08:41:48Z</time>
      </trkpt>
      <trkpt lat="43.96967" lon="7.4471">
        <ele>1918.5</ele>
        <time>2017-08-28T08:41:53Z</time>
      </trkpt>
      <trkpt lat="43.96944" lon="7.44702">
        <ele>1915.5</ele>
        <time>2017-08-28T08:42:11Z</time>
      </trkpt>
      <trkpt lat="43.96924" lon="7.44704">
        <ele>1915</ele>
        <time>2017-08-28T08:42:26Z</time>
      </trkpt>
      <trkpt lat="43.96922" lon="7.44704">
        <ele>1914.9</ele>
        <time>2017-08-28T08:42:28Z</time>
      </trkpt>
      <trkpt lat="43.96899" lon="7.44707">
        <ele>1913.3</ele>
        <time>2017-08-28T08:42:45Z</time>
      </trkpt>
      <trkpt lat="43.96876" lon="7.44714">
        <ele>1913.2</ele>
        <time>2017-08-28T08:43:01Z</time>
      </trkpt>
      <trkpt lat="43.96867" lon="7.44711">
        <ele>1910.3</ele>
        <time>2017-08-28T08:43:07Z</time>
      </trkpt>
      <trkpt lat="43.96861" lon="7.44713">
        <ele>1910.3</ele>
        <time>2017-08-28T08:43:12Z</time>
      </trkpt>
      <trkpt lat="43.96839" lon="7.44726">
        <ele>1912</ele>
        <time>2017-08-28T08:43:29Z</time>
      </trkpt>
      <trkpt lat="43.96829" lon="7.44729">
        <ele>1911.4</ele>
        <time>2017-08-28T08:43:36Z</time>
      </trkpt>
      <trkpt lat="43.96814" lon="7.44737">
        <ele>1912.1</ele>
        <time>2017-08-28T08:43:48Z</time>
      </trkpt>
      <trkpt lat="43.9679" lon="7.44751">
        <ele>1913.6</ele>
        <time>2017-08-28T08:44:04Z</time>
      </trkpt>
      <trkpt lat="43.96776" lon="7.44753">
        <ele>1911.9</ele>
        <time>2017-08-28T08:44:14Z</time>
      </trkpt>
      <trkpt lat="43.96757" lon="7.44764">
        <ele>1912.8</ele>
        <time>2017-08-28T08:44:29Z</time>
      </trkpt>
      <trkpt lat="43.96738" lon="7.4477">
        <ele>1911.8</ele>
        <time>2017-08-28T08:44:44Z</time>
      </trkpt>
      <trkpt lat="43.96727" lon="7.44771">
        <ele>1910.2</ele>
        <time>2017-08-28T08:44:52Z</time>
      </trkpt>
      <trkpt lat="43.96721" lon="7.44771">
        <ele>1909.1</ele>
        <time>2017-08-28T08:44:56Z</time>
      </trkpt>
      <trkpt lat="43.96713" lon="7.44773">
        <ele>1908.5</ele>
        <time>2017-08-28T08:45:02Z</time>
      </trkpt>
      <trkpt lat="43.96695" lon="7.44771">
        <ele>1904.7</ele>
        <time>2017-08-28T08:45:17Z</time>
      </trkpt>
      <trkpt lat="43.9668" lon="7.44773">
        <ele>1902.7</ele>
        <time>2017-08-28T08:45:29Z</time>
      </trkpt>
      <trkpt lat="43.96661" lon="7.44774">
        <ele>1899.6</ele>
        <time>2017-08-28T08:45:43Z</time>
      </trkpt>
      <trkpt lat="43.96641" lon="7.44782">
        <ele>1898.9</ele>
        <time>2017-08-28T08:45:59Z</time>
      </trkpt>
      <trkpt lat="43.96622" lon="7.44787">
        <ele>1897.1</ele>
        <time>2017-08-28T08:46:13Z</time>
      </trkpt>
      <trkpt lat="43.96602" lon="7.44794">
        <ele>1895.2</ele>
        <time>2017-08-28T08:46:28Z</time>
      </trkpt>
      <trkpt lat="43.96584" lon="7.44799">
        <ele>1892.8</ele>
        <time>2017-08-28T08:46:42Z</time>
      </trkpt>
      <trkpt lat="43.96573" lon="7.448">
        <ele>1890.5</ele>
        <time>2017-08-28T08:46:51Z</time>
      </trkpt>
      <trkpt lat="43.96557" lon="7.44806">
        <ele>1888.5</ele>
        <time>2017-08-28T08:47:04Z</time>
      </trkpt>
      <trkpt lat="43.96538" lon="7.44815">
        <ele>1886.3</ele>
        <time>2017-08-28T08:47:20Z</time>
      </trkpt>
      <trkpt lat="43.96533" lon="7.44816">
        <ele>1885.3</ele>
        <time>2017-08-28T08:47:24Z</time>
      </trkpt>
      <trkpt lat="43.96529" lon="7.4482">
        <ele>1885.5</ele>
        <time>2017-08-28T08:47:28Z</time>
      </trkpt>
      <trkpt lat="43.96521" lon="7.44822">
        <ele>1883.6</ele>
        <time>2017-08-28T08:47:36Z</time>
      </trkpt>
      <trkpt lat="43.96504" lon="7.44833">
        <ele>1881.2</ele>
        <time>2017-08-28T08:47:52Z</time>
      </trkpt>
      <trkpt lat="43.96486" lon="7.44842">
        <ele>1877.3</ele>
        <time>2017-08-28T08:48:08Z</time>
      </trkpt>
      <trkpt lat="43.96469" lon="7.44857">
        <ele>1875.2</ele>
        <time>2017-08-28T08:48:23Z</time>
      </trkpt>
      <trkpt lat="43.96448" lon="7.44872">
        <ele>1872.1</ele>
        <time>2017-08-28T08:48:41Z</time>
      </trkpt>
      <trkpt lat="43.96432" lon="7.44881">
        <ele>1869.3</ele>
        <time>2017-08-28T08:48:54Z</time>
      </trkpt>
      <trkpt lat="43.96414" lon="7.44887">
        <ele>1866</ele>
        <time>2017-08-28T08:49:08Z</time>
      </trkpt>
      <trkpt lat="43.96396" lon="7.44892">
        <ele>1863</ele>
        <time>2017-08-28T08:49:22Z</time>
      </trkpt>
      <trkpt lat="43.96378" lon="7.44901">
        <ele>1860.8</ele>
        <time>2017-08-28T08:49:36Z</time>
      </trkpt>
      <trkpt lat="43.9636" lon="7.44922">
        <ele>1860.7</ele>
        <time>2017-08-28T08:49:53Z</time>
      </trkpt>
      <trkpt lat="43.96337" lon="7.44939">
        <ele>1861.5</ele>
        <time>2017-08-28T08:50:12Z</time>
      </trkpt>
      <trkpt lat="43.96313" lon="7.44953">
        <ele>1861.6</ele>
        <time>2017-08-28T08:50:31Z</time>
      </trkpt>
      <trkpt lat="43.96298" lon="7.44967">
        <ele>1861.7</ele>
        <time>2017-08-28T08:50:47Z</time>
      </trkpt>
      <trkpt lat="43.96298" lon="7.44967">
        <ele>1861.7</ele>
        <time>2017-08-28T08:51:11Z</time>
      </trkpt>
      <trkpt lat="43.96297" lon="7.44971">
        <ele>1861.7</ele>
        <time>2017-08-28T08:51:29Z</time>
      </trkpt>
      <trkpt lat="43.96296" lon="7.44973">
        <ele>1861.5</ele>
        <time>2017-08-28T08:51:50Z</time>
      </trkpt>
      <trkpt lat="43.96296" lon="7.44977">
        <ele>1860.7</ele>
        <time>2017-08-28T08:52:03Z</time>
      </trkpt>
      <trkpt lat="43.96296" lon="7.44977">
        <ele>1860.7</ele>
        <time>2017-08-28T08:52:28Z</time>
      </trkpt>
      <trkpt lat="43.96296" lon="7.44977">
        <ele>1860.7</ele>
        <time>2017-08-28T08:52:44Z</time>
      </trkpt>
      <trkpt lat="43.96296" lon="7.44977">
        <ele>1860.7</ele>
        <time>2017-08-28T08:53:06Z</time>
      </trkpt>
      <trkpt lat="43.96297" lon="7.44977">
        <ele>1860.7</ele>
        <time>2017-08-28T08:53:37Z</time>
      </trkpt>
      <trkpt lat="43.96296" lon="7.44977">
        <ele>1860.7</ele>
        <time>2017-08-28T08:54:16Z</time>
      </trkpt>
      <trkpt lat="43.96297" lon="7.44977">
        <ele>1860.7</ele>
        <time>2017-08-28T08:54:38Z</time>
      </trkpt>
      <trkpt lat="43.96296" lon="7.44978">
        <ele>1860.5</ele>
        <time>2017-08-28T08:55:16Z</time>
      </trkpt>
      <trkpt lat="43.96294" lon="7.4498">
        <ele>1860</ele>
        <time>2017-08-28T08:55:34Z</time>
      </trkpt>
      <trkpt lat="43.9629" lon="7.44981">
        <ele>1859.5</ele>
        <time>2017-08-28T08:55:51Z</time>
      </trkpt>
      <trkpt lat="43.96286" lon="7.44987">
        <ele>1857.9</ele>
        <time>2017-08-28T08:56:06Z</time>
      </trkpt>
      <trkpt lat="43.96281" lon="7.44985">
        <ele>1858</ele>
        <time>2017-08-28T08:56:22Z</time>
      </trkpt>
      <trkpt lat="43.96277" lon="7.44984">
        <ele>1858.1</ele>
        <time>2017-08-28T08:56:28Z</time>
      </trkpt>
      <trkpt lat="43.96263" lon="7.44988">
        <ele>1857.9</ele>
        <time>2017-08-28T08:56:43Z</time>
      </trkpt>
      <trkpt lat="43.96249" lon="7.44991">
        <ele>1857.6</ele>
        <time>2017-08-28T08:56:56Z</time>
      </trkpt>
      <trkpt lat="43.96234" lon="7.44993">
        <ele>1857.2</ele>
        <time>2017-08-28T08:57:11Z</time>
      </trkpt>
      <trkpt lat="43.96219" lon="7.44997">
        <ele>1855.6</ele>
        <time>2017-08-28T08:57:25Z</time>
      </trkpt>
      <trkpt lat="43.96216" lon="7.44998">
        <ele>1855.2</ele>
        <time>2017-08-28T08:57:28Z</time>
      </trkpt>
      <trkpt lat="43.96206" lon="7.45003">
        <ele>1852.9</ele>
        <time>2017-08-28T08:57:39Z</time>
      </trkpt>
      <trkpt lat="43.96185" lon="7.45011">
        <ele>1846.3</ele>
        <time>2017-08-28T08:57:56Z</time>
      </trkpt>
      <trkpt lat="43.96167" lon="7.45005">
        <ele>1845.2</ele>
        <time>2017-08-28T08:58:12Z</time>
      </trkpt>
      <trkpt lat="43.96154" lon="7.44994">
        <ele>1847.1</ele>
        <time>2017-08-28T08:58:25Z</time>
      </trkpt>
      <trkpt lat="43.96137" lon="7.44989">
        <ele>1844.7</ele>
        <time>2017-08-28T08:58:42Z</time>
      </trkpt>
      <trkpt lat="43.96123" lon="7.44982">
        <ele>1846.1</ele>
        <time>2017-08-28T08:58:58Z</time>
      </trkpt>
      <trkpt lat="43.9612" lon="7.44979">
        <ele>1847.2</ele>
        <time>2017-08-28T08:59:02Z</time>
      </trkpt>
      <trkpt lat="43.96109" lon="7.44976">
        <ele>1846.4</ele>
        <time>2017-08-28T08:59:12Z</time>
      </trkpt>
      <trkpt lat="43.96098" lon="7.44977">
        <ele>1843.9</ele>
        <time>2017-08-28T08:59:20Z</time>
      </trkpt>
      <trkpt lat="43.96076" lon="7.44976">
        <ele>1840</ele>
        <time>2017-08-28T08:59:37Z</time>
      </trkpt>
      <trkpt lat="43.9606" lon="7.44973">
        <ele>1837.7</ele>
        <time>2017-08-28T08:59:51Z</time>
      </trkpt>
      <trkpt lat="43.96059" lon="7.44973">
        <ele>1837.5</ele>
        <time>2017-08-28T08:59:52Z</time>
      </trkpt>
      <trkpt lat="43.96053" lon="7.4497">
        <ele>1837.8</ele>
        <time>2017-08-28T08:59:58Z</time>
      </trkpt>
      <trkpt lat="43.9605" lon="7.44969">
        <ele>1837.7</ele>
        <time>2017-08-28T09:00:01Z</time>
      </trkpt>
      <trkpt lat="43.96039" lon="7.44967">
        <ele>1836.5</ele>
        <time>2017-08-28T09:00:10Z</time>
      </trkpt>
      <trkpt lat="43.96021" lon="7.44966">
        <ele>1834.9</ele>
        <time>2017-08-28T09:00:25Z</time>
      </trkpt>
      <trkpt lat="43.96006" lon="7.44971">
        <ele>1832.6</ele>
        <time>2017-08-28T09:00:38Z</time>
      </trkpt>
      <trkpt lat="43.95983" lon="7.44977">
        <ele>1832.3</ele>
        <time>2017-08-28T09:00:55Z</time>
      </trkpt>
      <trkpt lat="43.95977" lon="7.4498">
        <ele>1831.5</ele>
        <time>2017-08-28T09:01:03Z</time>
      </trkpt>
      <trkpt lat="43.95959" lon="7.44987">
        <ele>1830.1</ele>
        <time>2017-08-28T09:01:19Z</time>
      </trkpt>
      <trkpt lat="43.95949" lon="7.44991">
        <ele>1829.1</ele>
        <time>2017-08-28T09:01:30Z</time>
      </trkpt>
      <trkpt lat="43.95931" lon="7.44996">
        <ele>1829.2</ele>
        <time>2017-08-28T09:01:46Z</time>
      </trkpt>
      <trkpt lat="43.95911" lon="7.45">
        <ele>1831</ele>
        <time>2017-08-28T09:02:03Z</time>
      </trkpt>
      <trkpt lat="43.95895" lon="7.4501">
        <ele>1829.5</ele>
        <time>2017-08-28T09:02:17Z</time>
      </trkpt>
      <trkpt lat="43.95872" lon="7.45016">
        <ele>1830.9</ele>
        <time>2017-08-28T09:02:35Z</time>
      </trkpt>
      <trkpt lat="43.95857" lon="7.45023">
        <ele>1829.4</ele>
        <time>2017-08-28T09:02:49Z</time>
      </trkpt>
      <trkpt lat="43.95845" lon="7.45029">
        <ele>1828.1</ele>
        <time>2017-08-28T09:03:03Z</time>
      </trkpt>
      <trkpt lat="43.95842" lon="7.45031">
        <ele>1827.4</ele>
        <time>2017-08-28T09:03:07Z</time>
      </trkpt>
      <trkpt lat="43.95822" lon="7.45042">
        <ele>1824.2</ele>
        <time>2017-08-28T09:03:24Z</time>
      </trkpt>
      <trkpt lat="43.95809" lon="7.45048">
        <ele>1823.5</ele>
        <time>2017-08-28T09:03:37Z</time>
      </trkpt>
      <trkpt lat="43.95808" lon="7.45049">
        <ele>1823.2</ele>
        <time>2017-08-28T09:03:38Z</time>
      </trkpt>
      <trkpt lat="43.95806" lon="7.45052">
        <ele>1821.9</ele>
        <time>2017-08-28T09:03:40Z</time>
      </trkpt>
      <trkpt lat="43.95787" lon="7.45065">
        <ele>1817.8</ele>
        <time>2017-08-28T09:03:57Z</time>
      </trkpt>
      <trkpt lat="43.95775" lon="7.45074">
        <ele>1815.1</ele>
        <time>2017-08-28T09:04:10Z</time>
      </trkpt>
      <trkpt lat="43.9577" lon="7.45077">
        <ele>1814.6</ele>
        <time>2017-08-28T09:04:15Z</time>
      </trkpt>
      <trkpt lat="43.95764" lon="7.45084">
        <ele>1812.1</ele>
        <time>2017-08-28T09:04:21Z</time>
      </trkpt>
      <trkpt lat="43.9575" lon="7.45095">
        <ele>1810.5</ele>
        <time>2017-08-28T09:04:34Z</time>
      </trkpt>
      <trkpt lat="43.95734" lon="7.45113">
        <ele>1808</ele>
        <time>2017-08-28T09:04:50Z</time>
      </trkpt>
      <trkpt lat="43.95719" lon="7.45133">
        <ele>1805.2</ele>
        <time>2017-08-28T09:05:07Z</time>
      </trkpt>
      <trkpt lat="43.95703" lon="7.45152">
        <ele>1802.9</ele>
        <time>2017-08-28T09:05:25Z</time>
      </trkpt>
      <trkpt lat="43.95696" lon="7.45159">
        <ele>1802.9</ele>
        <time>2017-08-28T09:05:33Z</time>
      </trkpt>
      <trkpt lat="43.9569" lon="7.45165">
        <ele>1802.5</ele>
        <time>2017-08-28T09:05:39Z</time>
      </trkpt>
      <trkpt lat="43.95673" lon="7.45183">
        <ele>1799.6</ele>
        <time>2017-08-28T09:05:56Z</time>
      </trkpt>
      <trkpt lat="43.95658" lon="7.452">
        <ele>1796.6</ele>
        <time>2017-08-28T09:06:12Z</time>
      </trkpt>
      <trkpt lat="43.9565" lon="7.45206">
        <ele>1795.8</ele>
        <time>2017-08-28T09:06:19Z</time>
      </trkpt>
      <trkpt lat="43.95635" lon="7.4522">
        <ele>1794.1</ele>
        <time>2017-08-28T09:06:34Z</time>
      </trkpt>
      <trkpt lat="43.95618" lon="7.4524">
        <ele>1792.2</ele>
        <time>2017-08-28T09:06:52Z</time>
      </trkpt>
      <trkpt lat="43.9561" lon="7.45252">
        <ele>1789.7</ele>
        <time>2017-08-28T09:07:05Z</time>
      </trkpt>
      <trkpt lat="43.95603" lon="7.45261">
        <ele>1788.5</ele>
        <time>2017-08-28T09:07:15Z</time>
      </trkpt>
      <trkpt lat="43.95596" lon="7.4527">
        <ele>1787.1</ele>
        <time>2017-08-28T09:07:23Z</time>
      </trkpt>
      <trkpt lat="43.95585" lon="7.45283">
        <ele>1784.6</ele>
        <time>2017-08-28T09:07:36Z</time>
      </trkpt>
      <trkpt lat="43.95572" lon="7.45301">
        <ele>1780</ele>
        <time>2017-08-28T09:07:52Z</time>
      </trkpt>
      <trkpt lat="43.95559" lon="7.45315">
        <ele>1777</ele>
        <time>2017-08-28T09:08:06Z</time>
      </trkpt>
      <trkpt lat="43.95543" lon="7.45327">
        <ele>1775.3</ele>
        <time>2017-08-28T09:08:21Z</time>
      </trkpt>
      <trkpt lat="43.95541" lon="7.45329">
        <ele>1774.8</ele>
        <time>2017-08-28T09:08:23Z</time>
      </trkpt>
      <trkpt lat="43.95536" lon="7.45334">
        <ele>1773.5</ele>
        <time>2017-08-28T09:08:29Z</time>
      </trkpt>
      <trkpt lat="43.95517" lon="7.45345">
        <ele>1771.5</ele>
        <time>2017-08-28T09:08:46Z</time>
      </trkpt>
      <trkpt lat="43.95498" lon="7.45356">
        <ele>1769.8</ele>
        <time>2017-08-28T09:09:03Z</time>
      </trkpt>
      <trkpt lat="43.95491" lon="7.45361">
        <ele>1768.7</ele>
        <time>2017-08-28T09:09:09Z</time>
      </trkpt>
      <trkpt lat="43.95473" lon="7.45374">
        <ele>1766.3</ele>
        <time>2017-08-28T09:09:26Z</time>
      </trkpt>
      <trkpt lat="43.95455" lon="7.45382">
        <ele>1763.4</ele>
        <time>2017-08-28T09:09:42Z</time>
      </trkpt>
      <trkpt lat="43.95433" lon="7.45383">
        <ele>1763.6</ele>
        <time>2017-08-28T09:09:59Z</time>
      </trkpt>
      <trkpt lat="43.95427" lon="7.45385">
        <ele>1762.7</ele>
        <time>2017-08-28T09:10:05Z</time>
      </trkpt>
      <trkpt lat="43.95414" lon="7.45391">
        <ele>1759.9</ele>
        <time>2017-08-28T09:10:16Z</time>
      </trkpt>
      <trkpt lat="43.95408" lon="7.45392">
        <ele>1759.8</ele>
        <time>2017-08-28T09:10:22Z</time>
      </trkpt>
      <trkpt lat="43.95389" lon="7.45398">
        <ele>1757.7</ele>
        <time>2017-08-28T09:10:38Z</time>
      </trkpt>
      <trkpt lat="43.95368" lon="7.45404">
        <ele>1755.9</ele>
        <time>2017-08-28T09:10:54Z</time>
      </trkpt>
      <trkpt lat="43.9535" lon="7.45408">
        <ele>1754.9</ele>
        <time>2017-08-28T09:11:08Z</time>
      </trkpt>
      <trkpt lat="43.9533" lon="7.45412">
        <ele>1754.3</ele>
        <time>2017-08-28T09:11:23Z</time>
      </trkpt>
      <trkpt lat="43.95327" lon="7.45414">
        <ele>1753.7</ele>
        <time>2017-08-28T09:11:26Z</time>
      </trkpt>
      <trkpt lat="43.95321" lon="7.45415">
        <ele>1753.9</ele>
        <time>2017-08-28T09:11:30Z</time>
      </trkpt>
      <trkpt lat="43.95301" lon="7.45422">
        <ele>1752.8</ele>
        <time>2017-08-28T09:11:46Z</time>
      </trkpt>
      <trkpt lat="43.9529" lon="7.45429">
        <ele>1750.5</ele>
        <time>2017-08-28T09:11:55Z</time>
      </trkpt>
      <trkpt lat="43.95286" lon="7.45432">
        <ele>1749.9</ele>
        <time>2017-08-28T09:11:59Z</time>
      </trkpt>
      <trkpt lat="43.95267" lon="7.45442">
        <ele>1746.9</ele>
        <time>2017-08-28T09:12:15Z</time>
      </trkpt>
      <trkpt lat="43.95259" lon="7.45445">
        <ele>1745.6</ele>
        <time>2017-08-28T09:12:31Z</time>
      </trkpt>
      <trkpt lat="43.95259" lon="7.45445">
        <ele>1745.6</ele>
        <time>2017-08-28T09:12:48Z</time>
      </trkpt>
      <trkpt lat="43.95259" lon="7.45446">
        <ele>1745.5</ele>
        <time>2017-08-28T09:13:11Z</time>
      </trkpt>
      <trkpt lat="43.95259" lon="7.45446">
        <ele>1745.5</ele>
        <time>2017-08-28T09:13:42Z</time>
      </trkpt>
      <trkpt lat="43.9526" lon="7.45446">
        <ele>1745.7</ele>
        <time>2017-08-28T09:14:06Z</time>
      </trkpt>
      <trkpt lat="43.95259" lon="7.45446">
        <ele>1745.5</ele>
        <time>2017-08-28T09:14:38Z</time>
      </trkpt>
      <trkpt lat="43.95259" lon="7.45446">
        <ele>1745.5</ele>
        <time>2017-08-28T09:15:00Z</time>
      </trkpt>
      <trkpt lat="43.9526" lon="7.45446">
        <ele>1745.7</ele>
        <time>2017-08-28T09:15:31Z</time>
      </trkpt>
      <trkpt lat="43.9526" lon="7.45447">
        <ele>1745.6</ele>
        <time>2017-08-28T09:15:54Z</time>
      </trkpt>
      <trkpt lat="43.9526" lon="7.45447">
        <ele>1745.6</ele>
        <time>2017-08-28T09:16:13Z</time>
      </trkpt>
      <trkpt lat="43.9526" lon="7.45447">
        <ele>1745.6</ele>
        <time>2017-08-28T09:16:42Z</time>
      </trkpt>
      <trkpt lat="43.9526" lon="7.45447">
        <ele>1745.6</ele>
        <time>2017-08-28T09:17:06Z</time>
      </trkpt>
      <trkpt lat="43.9526" lon="7.45447">
        <ele>1745.6</ele>
        <time>2017-08-28T09:17:29Z</time>
      </trkpt>
      <trkpt lat="43.9526" lon="7.45446">
        <ele>1745.7</ele>
        <time>2017-08-28T09:17:57Z</time>
      </trkpt>
      <trkpt lat="43.9526" lon="7.45446">
        <ele>1745.7</ele>
        <time>2017-08-28T09:18:14Z</time>
      </trkpt>
      <trkpt lat="43.95259" lon="7.45445">
        <ele>1745.6</ele>
        <time>2017-08-28T09:18:38Z</time>
      </trkpt>
      <trkpt lat="43.95259" lon="7.45445">
        <ele>1745.6</ele>
        <time>2017-08-28T09:19:02Z</time>
      </trkpt>
      <trkpt lat="43.95259" lon="7.45445">
        <ele>1745.6</ele>
        <time>2017-08-28T09:19:25Z</time>
      </trkpt>
      <trkpt lat="43.95259" lon="7.45445">
        <ele>1745.6</ele>
        <time>2017-08-28T09:19:54Z</time>
      </trkpt>
      <trkpt lat="43.95259" lon="7.45445">
        <ele>1745.6</ele>
        <time>2017-08-28T09:20:15Z</time>
      </trkpt>
      <trkpt lat="43.95259" lon="7.45445">
        <ele>1745.6</ele>
        <time>2017-08-28T09:20:36Z</time>
      </trkpt>
      <trkpt lat="43.95259" lon="7.45445">
        <ele>1745.6</ele>
        <time>2017-08-28T09:21:06Z</time>
      </trkpt>
      <trkpt lat="43.9526" lon="7.45445">
        <ele>1745.7</ele>
        <time>2017-08-28T09:21:37Z</time>
      </trkpt>
      <trkpt lat="43.9526" lon="7.45445">
        <ele>1745.7</ele>
        <time>2017-08-28T09:22:02Z</time>
      </trkpt>
      <trkpt lat="43.9526" lon="7.45445">
        <ele>1745.7</ele>
        <time>2017-08-28T09:22:28Z</time>
      </trkpt>
      <trkpt lat="43.9526" lon="7.45444">
        <ele>1745.7</ele>
        <time>2017-08-28T09:23:05Z</time>
      </trkpt>
      <trkpt lat="43.9526" lon="7.45444">
        <ele>1745.7</ele>
        <time>2017-08-28T09:23:26Z</time>
      </trkpt>
      <trkpt lat="43.95258" lon="7.45446">
        <ele>1745.3</ele>
        <time>2017-08-28T09:23:52Z</time>
      </trkpt>
      <trkpt lat="43.95258" lon="7.45446">
        <ele>1745.3</ele>
        <time>2017-08-28T09:24:09Z</time>
      </trkpt>
      <trkpt lat="43.95258" lon="7.45446">
        <ele>1745.3</ele>
        <time>2017-08-28T09:24:34Z</time>
      </trkpt>
      <trkpt lat="43.95259" lon="7.45446">
        <ele>1745.5</ele>
        <time>2017-08-28T09:25:00Z</time>
      </trkpt>
      <trkpt lat="43.95259" lon="7.45445">
        <ele>1745.6</ele>
        <time>2017-08-28T09:25:29Z</time>
      </trkpt>
      <trkpt lat="43.95259" lon="7.45445">
        <ele>1745.6</ele>
        <time>2017-08-28T09:25:53Z</time>
      </trkpt>
      <trkpt lat="43.95259" lon="7.45445">
        <ele>1745.6</ele>
        <time>2017-08-28T09:26:18Z</time>
      </trkpt>
      <trkpt lat="43.95248" lon="7.45454">
        <ele>1743.7</ele>
        <time>2017-08-28T09:26:34Z</time>
      </trkpt>
      <trkpt lat="43.95245" lon="7.4546">
        <ele>1743.3</ele>
        <time>2017-08-28T09:26:47Z</time>
      </trkpt>
      <trkpt lat="43.95245" lon="7.4546">
        <ele>1743.3</ele>
        <time>2017-08-28T09:26:49Z</time>
      </trkpt>
      <trkpt lat="43.95241" lon="7.45462">
        <ele>1742.6</ele>
        <time>2017-08-28T09:26:52Z</time>
      </trkpt>
      <trkpt lat="43.95236" lon="7.45468">
        <ele>1742.6</ele>
        <time>2017-08-28T09:26:58Z</time>
      </trkpt>
      <trkpt lat="43.95236" lon="7.45471">
        <ele>1743.2</ele>
        <time>2017-08-28T09:27:01Z</time>
      </trkpt>
      <trkpt lat="43.95218" lon="7.4547">
        <ele>1739.4</ele>
        <time>2017-08-28T09:27:13Z</time>
      </trkpt>
      <trkpt lat="43.95215" lon="7.45473">
        <ele>1739</ele>
        <time>2017-08-28T09:27:16Z</time>
      </trkpt>
      <trkpt lat="43.95211" lon="7.45477">
        <ele>1738.2</ele>
        <time>2017-08-28T09:27:20Z</time>
      </trkpt>
      <trkpt lat="43.95195" lon="7.45494">
        <ele>1738</ele>
        <time>2017-08-28T09:27:34Z</time>
      </trkpt>
      <trkpt lat="43.95181" lon="7.45513">
        <ele>1737.6</ele>
        <time>2017-08-28T09:27:49Z</time>
      </trkpt>
      <trkpt lat="43.95178" lon="7.45517">
        <ele>1737.8</ele>
        <time>2017-08-28T09:27:52Z</time>
      </trkpt>
      <trkpt lat="43.95164" lon="7.45535">
        <ele>1739.7</ele>
        <time>2017-08-28T09:28:07Z</time>
      </trkpt>
      <trkpt lat="43.95159" lon="7.45544">
        <ele>1741.3</ele>
        <time>2017-08-28T09:28:14Z</time>
      </trkpt>
      <trkpt lat="43.95153" lon="7.45547">
        <ele>1740.2</ele>
        <time>2017-08-28T09:28:19Z</time>
      </trkpt>
      <trkpt lat="43.95135" lon="7.45557">
        <ele>1738.9</ele>
        <time>2017-08-28T09:28:34Z</time>
      </trkpt>
      <trkpt lat="43.95128" lon="7.45561">
        <ele>1739.4</ele>
        <time>2017-08-28T09:28:41Z</time>
      </trkpt>
      <trkpt lat="43.95123" lon="7.45563">
        <ele>1739.3</ele>
        <time>2017-08-28T09:28:47Z</time>
      </trkpt>
      <trkpt lat="43.95118" lon="7.45568">
        <ele>1740.9</ele>
        <time>2017-08-28T09:28:59Z</time>
      </trkpt>
      <trkpt lat="43.95114" lon="7.45568">
        <ele>1739.9</ele>
        <time>2017-08-28T09:29:03Z</time>
      </trkpt>
      <trkpt lat="43.95105" lon="7.4557">
        <ele>1739.1</ele>
        <time>2017-08-28T09:29:16Z</time>
      </trkpt>
      <trkpt lat="43.95107" lon="7.45569">
        <ele>1738.9</ele>
        <time>2017-08-28T09:29:20Z</time>
      </trkpt>
      <trkpt lat="43.95114" lon="7.45573">
        <ele>1742.8</ele>
        <time>2017-08-28T09:29:32Z</time>
      </trkpt>
      <trkpt lat="43.95115" lon="7.45575">
        <ele>1744.2</ele>
        <time>2017-08-28T09:29:34Z</time>
      </trkpt>
      <trkpt lat="43.95118" lon="7.45581">
        <ele>1748.4</ele>
        <time>2017-08-28T09:29:40Z</time>
      </trkpt>
      <trkpt lat="43.95118" lon="7.45584">
        <ele>1750.1</ele>
        <time>2017-08-28T09:29:44Z</time>
      </trkpt>
      <trkpt lat="43.95125" lon="7.45591">
        <ele>1755.4</ele>
        <time>2017-08-28T09:29:57Z</time>
      </trkpt>
      <trkpt lat="43.95132" lon="7.45595">
        <ele>1758.3</ele>
        <time>2017-08-28T09:30:10Z</time>
      </trkpt>
      <trkpt lat="43.95136" lon="7.45597">
        <ele>1759.6</ele>
        <time>2017-08-28T09:30:20Z</time>
      </trkpt>
      <trkpt lat="43.95136" lon="7.45597">
        <ele>1759.6</ele>
        <time>2017-08-28T09:30:21Z</time>
      </trkpt>
      <trkpt lat="43.95132" lon="7.45599">
        <ele>1760</ele>
        <time>2017-08-28T09:30:25Z</time>
      </trkpt>
      <trkpt lat="43.95112" lon="7.4561">
        <ele>1765.3</ele>
        <time>2017-08-28T09:30:43Z</time>
      </trkpt>
      <trkpt lat="43.95104" lon="7.45612">
        <ele>1765.8</ele>
        <time>2017-08-28T09:30:55Z</time>
      </trkpt>
      <trkpt lat="43.95103" lon="7.45614">
        <ele>1766.5</ele>
        <time>2017-08-28T09:30:59Z</time>
      </trkpt>
      <trkpt lat="43.95098" lon="7.45619">
        <ele>1768.4</ele>
        <time>2017-08-28T09:31:09Z</time>
      </trkpt>
      <trkpt lat="43.95089" lon="7.45619">
        <ele>1768.3</ele>
        <time>2017-08-28T09:31:23Z</time>
      </trkpt>
      <trkpt lat="43.95087" lon="7.4562">
        <ele>1768.8</ele>
        <time>2017-08-28T09:31:26Z</time>
      </trkpt>
      <trkpt lat="43.95084" lon="7.45622">
        <ele>1769.9</ele>
        <time>2017-08-28T09:31:28Z</time>
      </trkpt>
      <trkpt lat="43.9508" lon="7.45625">
        <ele>1771</ele>
        <time>2017-08-28T09:31:32Z</time>
      </trkpt>
      <trkpt lat="43.95078" lon="7.45629">
        <ele>1772.9</ele>
        <time>2017-08-28T09:31:36Z</time>
      </trkpt>
      <trkpt lat="43.9507" lon="7.45648">
        <ele>1781.8</ele>
        <time>2017-08-28T09:31:52Z</time>
      </trkpt>
      <trkpt lat="43.95068" lon="7.4565">
        <ele>1782.7</ele>
        <time>2017-08-28T09:31:54Z</time>
      </trkpt>
      <trkpt lat="43.95056" lon="7.45659">
        <ele>1788.5</ele>
        <time>2017-08-28T09:32:10Z</time>
      </trkpt>
      <trkpt lat="43.95053" lon="7.45659">
        <ele>1788.5</ele>
        <time>2017-08-28T09:32:14Z</time>
      </trkpt>
      <trkpt lat="43.95049" lon="7.4566">
        <ele>1788.9</ele>
        <time>2017-08-28T09:32:20Z</time>
      </trkpt>
      <trkpt lat="43.95039" lon="7.45662">
        <ele>1789.6</ele>
        <time>2017-08-28T09:32:35Z</time>
      </trkpt>
      <trkpt lat="43.95027" lon="7.45665">
        <ele>1790.8</ele>
        <time>2017-08-28T09:32:49Z</time>
      </trkpt>
      <trkpt lat="43.95023" lon="7.45665">
        <ele>1790.1</ele>
        <time>2017-08-28T09:32:53Z</time>
      </trkpt>
      <trkpt lat="43.95016" lon="7.4567">
        <ele>1791.4</ele>
        <time>2017-08-28T09:33:02Z</time>
      </trkpt>
      <trkpt lat="43.95004" lon="7.4568">
        <ele>1794.2</ele>
        <time>2017-08-28T09:33:20Z</time>
      </trkpt>
      <trkpt lat="43.95004" lon="7.45684">
        <ele>1796.2</ele>
        <time>2017-08-28T09:33:25Z</time>
      </trkpt>
      <trkpt lat="43.95002" lon="7.45688">
        <ele>1797.9</ele>
        <time>2017-08-28T09:33:29Z</time>
      </trkpt>
      <trkpt lat="43.94993" lon="7.45705">
        <ele>1801.4</ele>
        <time>2017-08-28T09:33:43Z</time>
      </trkpt>
      <trkpt lat="43.94981" lon="7.45715">
        <ele>1800.7</ele>
        <time>2017-08-28T09:33:54Z</time>
      </trkpt>
      <trkpt lat="43.9498" lon="7.45717">
        <ele>1801.2</ele>
        <time>2017-08-28T09:33:56Z</time>
      </trkpt>
      <trkpt lat="43.94973" lon="7.4573">
        <ele>1804.5</ele>
        <time>2017-08-28T09:34:07Z</time>
      </trkpt>
      <trkpt lat="43.94969" lon="7.45733">
        <ele>1804.3</ele>
        <time>2017-08-28T09:34:11Z</time>
      </trkpt>
      <trkpt lat="43.94963" lon="7.45742">
        <ele>1806.3</ele>
        <time>2017-08-28T09:34:19Z</time>
      </trkpt>
      <trkpt lat="43.94952" lon="7.45748">
        <ele>1806</ele>
        <time>2017-08-28T09:34:30Z</time>
      </trkpt>
      <trkpt lat="43.9494" lon="7.4575">
        <ele>1805.2</ele>
        <time>2017-08-28T09:34:42Z</time>
      </trkpt>
      <trkpt lat="43.94937" lon="7.45751">
        <ele>1805.8</ele>
        <time>2017-08-28T09:34:45Z</time>
      </trkpt>
      <trkpt lat="43.94934" lon="7.45753">
        <ele>1807.1</ele>
        <time>2017-08-28T09:34:49Z</time>
      </trkpt>
      <trkpt lat="43.94925" lon="7.45753">
        <ele>1807.4</ele>
        <time>2017-08-28T09:34:56Z</time>
      </trkpt>
      <trkpt lat="43.94914" lon="7.45755">
        <ele>1808.7</ele>
        <time>2017-08-28T09:35:08Z</time>
      </trkpt>
      <trkpt lat="43.94903" lon="7.45756">
        <ele>1808.6</ele>
        <time>2017-08-28T09:35:18Z</time>
      </trkpt>
      <trkpt lat="43.94883" lon="7.45755">
        <ele>1805.9</ele>
        <time>2017-08-28T09:35:34Z</time>
      </trkpt>
      <trkpt lat="43.94872" lon="7.45756">
        <ele>1803.6</ele>
        <time>2017-08-28T09:35:44Z</time>
      </trkpt>
      <trkpt lat="43.94855" lon="7.45763">
        <ele>1801.4</ele>
        <time>2017-08-28T09:35:59Z</time>
      </trkpt>
      <trkpt lat="43.94849" lon="7.4577">
        <ele>1801.5</ele>
        <time>2017-08-28T09:36:12Z</time>
      </trkpt>
      <trkpt lat="43.94849" lon="7.45773">
        <ele>1802.3</ele>
        <time>2017-08-28T09:36:14Z</time>
      </trkpt>
      <trkpt lat="43.94852" lon="7.45781">
        <ele>1803.6</ele>
        <time>2017-08-28T09:36:27Z</time>
      </trkpt>
      <trkpt lat="43.94848" lon="7.45769">
        <ele>1800.9</ele>
        <time>2017-08-28T09:36:42Z</time>
      </trkpt>
      <trkpt lat="43.94847" lon="7.45766">
        <ele>1799.8</ele>
        <time>2017-08-28T09:36:51Z</time>
      </trkpt>
      <trkpt lat="43.94847" lon="7.45766">
        <ele>1799.8</ele>
        <time>2017-08-28T09:37:10Z</time>
      </trkpt>
      <trkpt lat="43.94847" lon="7.45767">
        <ele>1800</ele>
        <time>2017-08-28T09:37:26Z</time>
      </trkpt>
      <trkpt lat="43.94847" lon="7.45766">
        <ele>1799.8</ele>
        <time>2017-08-28T09:37:30Z</time>
      </trkpt>
      <trkpt lat="43.94844" lon="7.45766">
        <ele>1798.8</ele>
        <time>2017-08-28T09:37:35Z</time>
      </trkpt>
      <trkpt lat="43.9484" lon="7.45764">
        <ele>1797.1</ele>
        <time>2017-08-28T09:37:41Z</time>
      </trkpt>
      <trkpt lat="43.94839" lon="7.45758">
        <ele>1795.3</ele>
        <time>2017-08-28T09:37:52Z</time>
      </trkpt>
      <trkpt lat="43.94843" lon="7.45757">
        <ele>1796.2</ele>
        <time>2017-08-28T09:38:05Z</time>
      </trkpt>
      <trkpt lat="43.94842" lon="7.45756">
        <ele>1795.7</ele>
        <time>2017-08-28T09:38:11Z</time>
      </trkpt>
      <trkpt lat="43.94842" lon="7.45751">
        <ele>1794.4</ele>
        <time>2017-08-28T09:38:24Z</time>
      </trkpt>
      <trkpt lat="43.94843" lon="7.45751">
        <ele>1794.7</ele>
        <time>2017-08-28T09:38:25Z</time>
      </trkpt>
      <trkpt lat="43.94846" lon="7.45743">
        <ele>1789.5</ele>
        <time>2017-08-28T09:38:38Z</time>
      </trkpt>
      <trkpt lat="43.94848" lon="7.4574">
        <ele>1787.6</ele>
        <time>2017-08-28T09:38:42Z</time>
      </trkpt>
      <trkpt lat="43.94852" lon="7.45731">
        <ele>1781.2</ele>
        <time>2017-08-28T09:38:50Z</time>
      </trkpt>
      <trkpt lat="43.94854" lon="7.45725">
        <ele>1776.7</ele>
        <time>2017-08-28T09:38:58Z</time>
      </trkpt>
      <trkpt lat="43.94859" lon="7.45715">
        <ele>1768.3</ele>
        <time>2017-08-28T09:39:05Z</time>
      </trkpt>
      <trkpt lat="43.94864" lon="7.45712">
        <ele>1766.1</ele>
        <time>2017-08-28T09:39:10Z</time>
      </trkpt>
      <trkpt lat="43.94866" lon="7.45709">
        <ele>1763.3</ele>
        <time>2017-08-28T09:39:14Z</time>
      </trkpt>
      <trkpt lat="43.9487" lon="7.45706">
        <ele>1760.7</ele>
        <time>2017-08-28T09:39:26Z</time>
      </trkpt>
      <trkpt lat="43.94875" lon="7.45703">
        <ele>1758.1</ele>
        <time>2017-08-28T09:39:40Z</time>
      </trkpt>
      <trkpt lat="43.9488" lon="7.457">
        <ele>1755.4</ele>
        <time>2017-08-28T09:39:53Z</time>
      </trkpt>
      <trkpt lat="43.94889" lon="7.45701">
        <ele>1757.3</ele>
        <time>2017-08-28T09:40:07Z</time>
      </trkpt>
      <trkpt lat="43.94896" lon="7.45695">
        <ele>1752.6</ele>
        <time>2017-08-28T09:40:17Z</time>
      </trkpt>
      <trkpt lat="43.94902" lon="7.45692">
        <ele>1752.3</ele>
        <time>2017-08-28T09:40:31Z</time>
      </trkpt>
      <trkpt lat="43.94906" lon="7.45689">
        <ele>1751.6</ele>
        <time>2017-08-28T09:40:42Z</time>
      </trkpt>
      <trkpt lat="43.94906" lon="7.45689">
        <ele>1751.6</ele>
        <time>2017-08-28T09:40:57Z</time>
      </trkpt>
      <trkpt lat="43.94908" lon="7.45689">
        <ele>1752.2</ele>
        <time>2017-08-28T09:40:59Z</time>
      </trkpt>
      <trkpt lat="43.94915" lon="7.45687">
        <ele>1753.2</ele>
        <time>2017-08-28T09:41:06Z</time>
      </trkpt>
      <trkpt lat="43.94917" lon="7.45683">
        <ele>1751.6</ele>
        <time>2017-08-28T09:41:08Z</time>
      </trkpt>
      <trkpt lat="43.94927" lon="7.45676">
        <ele>1753.3</ele>
        <time>2017-08-28T09:41:20Z</time>
      </trkpt>
      <trkpt lat="43.94931" lon="7.45675">
        <ele>1755.1</ele>
        <time>2017-08-28T09:41:30Z</time>
      </trkpt>
      <trkpt lat="43.94949" lon="7.45673">
        <ele>1764.6</ele>
        <time>2017-08-28T09:41:42Z</time>
      </trkpt>
      <trkpt lat="43.94956" lon="7.45668">
        <ele>1766.3</ele>
        <time>2017-08-28T09:41:53Z</time>
      </trkpt>
      <trkpt lat="43.94959" lon="7.45669">
        <ele>1768.5</ele>
        <time>2017-08-28T09:42:00Z</time>
      </trkpt>
      <trkpt lat="43.94961" lon="7.4567">
        <ele>1770.2</ele>
        <time>2017-08-28T09:42:13Z</time>
      </trkpt>
      <trkpt lat="43.94964" lon="7.45671">
        <ele>1772.4</ele>
        <time>2017-08-28T09:42:20Z</time>
      </trkpt>
      <trkpt lat="43.94968" lon="7.45669">
        <ele>1773.7</ele>
        <time>2017-08-28T09:42:34Z</time>
      </trkpt>
      <trkpt lat="43.94968" lon="7.45669">
        <ele>1773.7</ele>
        <time>2017-08-28T09:42:39Z</time>
      </trkpt>
      <trkpt lat="43.94968" lon="7.45667">
        <ele>1772.7</ele>
        <time>2017-08-28T09:42:47Z</time>
      </trkpt>
      <trkpt lat="43.94965" lon="7.4566">
        <ele>1766.6</ele>
        <time>2017-08-28T09:43:02Z</time>
      </trkpt>
      <trkpt lat="43.94966" lon="7.45653">
        <ele>1762.7</ele>
        <time>2017-08-28T09:43:07Z</time>
      </trkpt>
      <trkpt lat="43.94965" lon="7.45648">
        <ele>1758.9</ele>
        <time>2017-08-28T09:43:11Z</time>
      </trkpt>
      <trkpt lat="43.94964" lon="7.45644">
        <ele>1755.7</ele>
        <time>2017-08-28T09:43:14Z</time>
      </trkpt>
      <trkpt lat="43.94961" lon="7.45636">
        <ele>1748.5</ele>
        <time>2017-08-28T09:43:28Z</time>
      </trkpt>
      <trkpt lat="43.94961" lon="7.45634">
        <ele>1747.3</ele>
        <time>2017-08-28T09:43:42Z</time>
      </trkpt>
      <trkpt lat="43.94958" lon="7.45624">
        <ele>1738.9</ele>
        <time>2017-08-28T09:43:53Z</time>
      </trkpt>
      <trkpt lat="43.94957" lon="7.45625">
        <ele>1738.8</ele>
        <time>2017-08-28T09:44:00Z</time>
      </trkpt>
      <trkpt lat="43.94956" lon="7.45626">
        <ele>1738.7</ele>
        <time>2017-08-28T09:44:02Z</time>
      </trkpt>
      <trkpt lat="43.94953" lon="7.45624">
        <ele>1735.4</ele>
        <time>2017-08-28T09:44:06Z</time>
      </trkpt>
      <trkpt lat="43.94951" lon="7.45622">
        <ele>1732.7</ele>
        <time>2017-08-28T09:44:09Z</time>
      </trkpt>
      <trkpt lat="43.94951" lon="7.45622">
        <ele>1732.7</ele>
        <time>2017-08-28T09:44:11Z</time>
      </trkpt>
      <trkpt lat="43.94951" lon="7.45621">
        <ele>1732</ele>
        <time>2017-08-28T09:44:16Z</time>
      </trkpt>
      <trkpt lat="43.94949" lon="7.45611">
        <ele>1724.2</ele>
        <time>2017-08-28T09:44:24Z</time>
      </trkpt>
      <trkpt lat="43.94948" lon="7.45611">
        <ele>1723.5</ele>
        <time>2017-08-28T09:44:25Z</time>
      </trkpt>
      <trkpt lat="43.94944" lon="7.45606">
        <ele>1718.2</ele>
        <time>2017-08-28T09:44:34Z</time>
      </trkpt>
      <trkpt lat="43.94943" lon="7.45606">
        <ele>1717.6</ele>
        <time>2017-08-28T09:44:35Z</time>
      </trkpt>
      <trkpt lat="43.94938" lon="7.45606">
        <ele>1714.6</ele>
        <time>2017-08-28T09:44:43Z</time>
      </trkpt>
      <trkpt lat="43.94937" lon="7.45606">
        <ele>1714</ele>
        <time>2017-08-28T09:44:44Z</time>
      </trkpt>
      <trkpt lat="43.94934" lon="7.4561">
        <ele>1714.4</ele>
        <time>2017-08-28T09:44:49Z</time>
      </trkpt>
      <trkpt lat="43.94928" lon="7.45614">
        <ele>1713.5</ele>
        <time>2017-08-28T09:44:54Z</time>
      </trkpt>
      <trkpt lat="43.94924" lon="7.45617">
        <ele>1713.2</ele>
        <time>2017-08-28T09:44:58Z</time>
      </trkpt>
      <trkpt lat="43.94918" lon="7.45624">
        <ele>1714.6</ele>
        <time>2017-08-28T09:45:04Z</time>
      </trkpt>
      <trkpt lat="43.94917" lon="7.45625">
        <ele>1714.7</ele>
        <time>2017-08-28T09:45:05Z</time>
      </trkpt>
      <trkpt lat="43.94912" lon="7.45627">
        <ele>1714.4</ele>
        <time>2017-08-28T09:45:11Z</time>
      </trkpt>
      <trkpt lat="43.94898" lon="7.45627">
        <ele>1710.1</ele>
        <time>2017-08-28T09:45:23Z</time>
      </trkpt>
      <trkpt lat="43.94897" lon="7.4563">
        <ele>1711.8</ele>
        <time>2017-08-28T09:45:27Z</time>
      </trkpt>
      <trkpt lat="43.94887" lon="7.45638">
        <ele>1714.2</ele>
        <time>2017-08-28T09:45:36Z</time>
      </trkpt>
      <trkpt lat="43.94885" lon="7.45639">
        <ele>1714.6</ele>
        <time>2017-08-28T09:45:38Z</time>
      </trkpt>
      <trkpt lat="43.94878" lon="7.45639">
        <ele>1713.9</ele>
        <time>2017-08-28T09:45:44Z</time>
      </trkpt>
      <trkpt lat="43.94867" lon="7.45635">
        <ele>1710</ele>
        <time>2017-08-28T09:45:52Z</time>
      </trkpt>
      <trkpt lat="43.94861" lon="7.45634">
        <ele>1708.6</ele>
        <time>2017-08-28T09:45:59Z</time>
      </trkpt>
      <trkpt lat="43.94856" lon="7.45634">
        <ele>1707.6</ele>
        <time>2017-08-28T09:46:04Z</time>
      </trkpt>
      <trkpt lat="43.94849" lon="7.45627">
        <ele>1701.6</ele>
        <time>2017-08-28T09:46:10Z</time>
      </trkpt>
      <trkpt lat="43.9484" lon="7.45624">
        <ele>1698.1</ele>
        <time>2017-08-28T09:46:19Z</time>
      </trkpt>
      <trkpt lat="43.94833" lon="7.45629">
        <ele>1699.8</ele>
        <time>2017-08-28T09:46:23Z</time>
      </trkpt>
      <trkpt lat="43.94829" lon="7.45638">
        <ele>1704.2</ele>
        <time>2017-08-28T09:46:27Z</time>
      </trkpt>
      <trkpt lat="43.94813" lon="7.45658">
        <ele>1713.4</ele>
        <time>2017-08-28T09:46:39Z</time>
      </trkpt>
      <trkpt lat="43.94791" lon="7.4565">
        <ele>1710.2</ele>
        <time>2017-08-28T09:46:50Z</time>
      </trkpt>
      <trkpt lat="43.94773" lon="7.45632">
        <ele>1702.6</ele>
        <time>2017-08-28T09:46:57Z</time>
      </trkpt>
      <trkpt lat="43.94761" lon="7.45624">
        <ele>1700</ele>
        <time>2017-08-28T09:47:01Z</time>
      </trkpt>
      <trkpt lat="43.94737" lon="7.45613">
        <ele>1693.9</ele>
        <time>2017-08-28T09:47:13Z</time>
      </trkpt>
      <trkpt lat="43.94718" lon="7.4562">
        <ele>1696.9</ele>
        <time>2017-08-28T09:47:26Z</time>
      </trkpt>
      <trkpt lat="43.947" lon="7.45636">
        <ele>1700.6</ele>
        <time>2017-08-28T09:47:40Z</time>
      </trkpt>
      <trkpt lat="43.9468" lon="7.45653">
        <ele>1700.3</ele>
        <time>2017-08-28T09:47:54Z</time>
      </trkpt>
      <trkpt lat="43.94671" lon="7.45662">
        <ele>1700.7</ele>
        <time>2017-08-28T09:48:01Z</time>
      </trkpt>
      <trkpt lat="43.94661" lon="7.45667">
        <ele>1700.6</ele>
        <time>2017-08-28T09:48:06Z</time>
      </trkpt>
      <trkpt lat="43.94638" lon="7.45678">
        <ele>1703.7</ele>
        <time>2017-08-28T09:48:21Z</time>
      </trkpt>
      <trkpt lat="43.94615" lon="7.45678">
        <ele>1703.5</ele>
        <time>2017-08-28T09:48:36Z</time>
      </trkpt>
      <trkpt lat="43.94591" lon="7.4568">
        <ele>1702.9</ele>
        <time>2017-08-28T09:48:51Z</time>
      </trkpt>
      <trkpt lat="43.94578" lon="7.45687">
        <ele>1704.3</ele>
        <time>2017-08-28T09:49:08Z</time>
      </trkpt>
      <trkpt lat="43.94575" lon="7.4569">
        <ele>1705.1</ele>
        <time>2017-08-28T09:49:21Z</time>
      </trkpt>
      <trkpt lat="43.94575" lon="7.4569">
        <ele>1705.1</ele>
        <time>2017-08-28T09:49:48Z</time>
      </trkpt>
      <trkpt lat="43.94575" lon="7.4569">
        <ele>1705.1</ele>
        <time>2017-08-28T09:50:16Z</time>
      </trkpt>
      <trkpt lat="43.94575" lon="7.4569">
        <ele>1705.1</ele>
        <time>2017-08-28T09:50:47Z</time>
      </trkpt>
      <trkpt lat="43.94575" lon="7.4569">
        <ele>1705.1</ele>
        <time>2017-08-28T09:51:23Z</time>
      </trkpt>
      <trkpt lat="43.94575" lon="7.4569">
        <ele>1705.1</ele>
        <time>2017-08-28T09:51:54Z</time>
      </trkpt>
      <trkpt lat="43.94575" lon="7.4569">
        <ele>1705.1</ele>
        <time>2017-08-28T09:52:02Z</time>
      </trkpt>
      <trkpt lat="43.94575" lon="7.45685">
        <ele>1703.5</ele>
        <time>2017-08-28T10:17:09Z</time>
      </trkpt>
      <trkpt lat="43.94574" lon="7.45685">
        <ele>1703.5</ele>
        <time>2017-08-28T10:17:10Z</time>
      </trkpt>
      <trkpt lat="43.94569" lon="7.45685">
        <ele>1703.3</ele>
        <time>2017-08-28T10:17:16Z</time>
      </trkpt>
      <trkpt lat="43.94566" lon="7.45683">
        <ele>1702.6</ele>
        <time>2017-08-28T10:17:20Z</time>
      </trkpt>
      <trkpt lat="43.94546" lon="7.45679">
        <ele>1701.2</ele>
        <time>2017-08-28T10:17:37Z</time>
      </trkpt>
      <trkpt lat="43.9453" lon="7.45682">
        <ele>1702.6</ele>
        <time>2017-08-28T10:17:49Z</time>
      </trkpt>
      <trkpt lat="43.94512" lon="7.45678">
        <ele>1702.8</ele>
        <time>2017-08-28T10:18:03Z</time>
      </trkpt>
      <trkpt lat="43.94492" lon="7.45666">
        <ele>1703.5</ele>
        <time>2017-08-28T10:18:21Z</time>
      </trkpt>
      <trkpt lat="43.94477" lon="7.45649">
        <ele>1699.1</ele>
        <time>2017-08-28T10:18:37Z</time>
      </trkpt>
      <trkpt lat="43.94453" lon="7.45645">
        <ele>1699.9</ele>
        <time>2017-08-28T10:18:55Z</time>
      </trkpt>
      <trkpt lat="43.94441" lon="7.45644">
        <ele>1700.3</ele>
        <time>2017-08-28T10:19:07Z</time>
      </trkpt>
      <trkpt lat="43.94419" lon="7.45638">
        <ele>1700</ele>
        <time>2017-08-28T10:19:26Z</time>
      </trkpt>
      <trkpt lat="43.94398" lon="7.45632">
        <ele>1699.3</ele>
        <time>2017-08-28T10:19:44Z</time>
      </trkpt>
      <trkpt lat="43.94385" lon="7.45623">
        <ele>1695.4</ele>
        <time>2017-08-28T10:19:57Z</time>
      </trkpt>
      <trkpt lat="43.94371" lon="7.45614">
        <ele>1692.5</ele>
        <time>2017-08-28T10:20:12Z</time>
      </trkpt>
      <trkpt lat="43.94358" lon="7.45611">
        <ele>1693.4</ele>
        <time>2017-08-28T10:20:26Z</time>
      </trkpt>
      <trkpt lat="43.94354" lon="7.45609">
        <ele>1692.5</ele>
        <time>2017-08-28T10:20:30Z</time>
      </trkpt>
      <trkpt lat="43.94337" lon="7.45603">
        <ele>1690.8</ele>
        <time>2017-08-28T10:20:46Z</time>
      </trkpt>
      <trkpt lat="43.94327" lon="7.456">
        <ele>1691.6</ele>
        <time>2017-08-28T10:20:58Z</time>
      </trkpt>
      <trkpt lat="43.94323" lon="7.45598">
        <ele>1691.7</ele>
        <time>2017-08-28T10:21:04Z</time>
      </trkpt>
      <trkpt lat="43.94321" lon="7.45597">
        <ele>1691.8</ele>
        <time>2017-08-28T10:21:07Z</time>
      </trkpt>
      <trkpt lat="43.9431" lon="7.45594">
        <ele>1693.9</ele>
        <time>2017-08-28T10:21:23Z</time>
      </trkpt>
      <trkpt lat="43.94297" lon="7.45584">
        <ele>1693.4</ele>
        <time>2017-08-28T10:21:38Z</time>
      </trkpt>
      <trkpt lat="43.94291" lon="7.45573">
        <ele>1689.9</ele>
        <time>2017-08-28T10:21:53Z</time>
      </trkpt>
      <trkpt lat="43.94285" lon="7.45566">
        <ele>1688.6</ele>
        <time>2017-08-28T10:21:59Z</time>
      </trkpt>
      <trkpt lat="43.94272" lon="7.45554">
        <ele>1688.6</ele>
        <time>2017-08-28T10:22:14Z</time>
      </trkpt>
      <trkpt lat="43.94259" lon="7.45543">
        <ele>1692</ele>
        <time>2017-08-28T10:22:30Z</time>
      </trkpt>
      <trkpt lat="43.94256" lon="7.45539">
        <ele>1692.5</ele>
        <time>2017-08-28T10:22:34Z</time>
      </trkpt>
      <trkpt lat="43.94251" lon="7.4552">
        <ele>1689.7</ele>
        <time>2017-08-28T10:22:47Z</time>
      </trkpt>
      <trkpt lat="43.94245" lon="7.45498">
        <ele>1686</ele>
        <time>2017-08-28T10:23:01Z</time>
      </trkpt>
      <trkpt lat="43.9424" lon="7.45473">
        <ele>1678.6</ele>
        <time>2017-08-28T10:23:17Z</time>
      </trkpt>
      <trkpt lat="43.94239" lon="7.45471">
        <ele>1678.1</ele>
        <time>2017-08-28T10:23:18Z</time>
      </trkpt>
      <trkpt lat="43.94237" lon="7.4547">
        <ele>1678.3</ele>
        <time>2017-08-28T10:23:20Z</time>
      </trkpt>
      <trkpt lat="43.94234" lon="7.45469">
        <ele>1678.8</ele>
        <time>2017-08-28T10:23:23Z</time>
      </trkpt>
      <trkpt lat="43.94214" lon="7.45477">
        <ele>1684.7</ele>
        <time>2017-08-28T10:23:40Z</time>
      </trkpt>
      <trkpt lat="43.94195" lon="7.45487">
        <ele>1686.7</ele>
        <time>2017-08-28T10:23:57Z</time>
      </trkpt>
      <trkpt lat="43.94181" lon="7.45487">
        <ele>1686.1</ele>
        <time>2017-08-28T10:24:10Z</time>
      </trkpt>
      <trkpt lat="43.94164" lon="7.45481">
        <ele>1681.7</ele>
        <time>2017-08-28T10:24:26Z</time>
      </trkpt>
      <trkpt lat="43.94146" lon="7.45483">
        <ele>1683.3</ele>
        <time>2017-08-28T10:24:42Z</time>
      </trkpt>
      <trkpt lat="43.94138" lon="7.45485">
        <ele>1684.8</ele>
        <time>2017-08-28T10:24:50Z</time>
      </trkpt>
      <trkpt lat="43.9413" lon="7.45484">
        <ele>1684.7</ele>
        <time>2017-08-28T10:24:57Z</time>
      </trkpt>
      <trkpt lat="43.94114" lon="7.45475">
        <ele>1680.4</ele>
        <time>2017-08-28T10:25:14Z</time>
      </trkpt>
      <trkpt lat="43.94106" lon="7.45476">
        <ele>1681.9</ele>
        <time>2017-08-28T10:25:23Z</time>
      </trkpt>
      <trkpt lat="43.941" lon="7.45479">
        <ele>1684.3</ele>
        <time>2017-08-28T10:25:32Z</time>
      </trkpt>
      <trkpt lat="43.94098" lon="7.45479">
        <ele>1684.6</ele>
        <time>2017-08-28T10:25:34Z</time>
      </trkpt>
      <trkpt lat="43.94091" lon="7.45476">
        <ele>1683.5</ele>
        <time>2017-08-28T10:25:46Z</time>
      </trkpt>
      <trkpt lat="43.94084" lon="7.45474">
        <ele>1683</ele>
        <time>2017-08-28T10:25:53Z</time>
      </trkpt>
      <trkpt lat="43.9407" lon="7.45459">
        <ele>1677.7</ele>
        <time>2017-08-28T10:26:13Z</time>
      </trkpt>
      <trkpt lat="43.94061" lon="7.45448">
        <ele>1675.3</ele>
        <time>2017-08-28T10:26:28Z</time>
      </trkpt>
      <trkpt lat="43.94055" lon="7.45433">
        <ele>1671.9</ele>
        <time>2017-08-28T10:26:41Z</time>
      </trkpt>
      <trkpt lat="43.94055" lon="7.45431">
        <ele>1671.1</ele>
        <time>2017-08-28T10:26:46Z</time>
      </trkpt>
      <trkpt lat="43.94054" lon="7.45428">
        <ele>1670.8</ele>
        <time>2017-08-28T10:26:49Z</time>
      </trkpt>
      <trkpt lat="43.94048" lon="7.45404">
        <ele>1666.9</ele>
        <time>2017-08-28T10:27:05Z</time>
      </trkpt>
      <trkpt lat="43.94046" lon="7.45389">
        <ele>1663.3</ele>
        <time>2017-08-28T10:27:21Z</time>
      </trkpt>
      <trkpt lat="43.94038" lon="7.45384">
        <ele>1667.2</ele>
        <time>2017-08-28T10:27:29Z</time>
      </trkpt>
      <trkpt lat="43.94025" lon="7.45382">
        <ele>1674.9</ele>
        <time>2017-08-28T10:27:45Z</time>
      </trkpt>
      <trkpt lat="43.94008" lon="7.45379">
        <ele>1679.6</ele>
        <time>2017-08-28T10:28:01Z</time>
      </trkpt>
      <trkpt lat="43.93994" lon="7.45372">
        <ele>1680.1</ele>
        <time>2017-08-28T10:28:17Z</time>
      </trkpt>
      <trkpt lat="43.93987" lon="7.45369">
        <ele>1680.7</ele>
        <time>2017-08-28T10:28:25Z</time>
      </trkpt>
      <trkpt lat="43.93972" lon="7.45359">
        <ele>1680</ele>
        <time>2017-08-28T10:28:40Z</time>
      </trkpt>
      <trkpt lat="43.93963" lon="7.45354">
        <ele>1681.6</ele>
        <time>2017-08-28T10:28:55Z</time>
      </trkpt>
      <trkpt lat="43.93963" lon="7.45353">
        <ele>1681.1</ele>
        <time>2017-08-28T10:28:56Z</time>
      </trkpt>
      <trkpt lat="43.93951" lon="7.45333">
        <ele>1677.3</ele>
        <time>2017-08-28T10:29:13Z</time>
      </trkpt>
      <trkpt lat="43.93942" lon="7.45311">
        <ele>1673.2</ele>
        <time>2017-08-28T10:29:29Z</time>
      </trkpt>
      <trkpt lat="43.9394" lon="7.45296">
        <ele>1669</ele>
        <time>2017-08-28T10:29:41Z</time>
      </trkpt>
      <trkpt lat="43.93933" lon="7.45274">
        <ele>1667.4</ele>
        <time>2017-08-28T10:29:57Z</time>
      </trkpt>
      <trkpt lat="43.93928" lon="7.45257">
        <ele>1666.6</ele>
        <time>2017-08-28T10:30:12Z</time>
      </trkpt>
      <trkpt lat="43.93926" lon="7.45243">
        <ele>1664.1</ele>
        <time>2017-08-28T10:30:24Z</time>
      </trkpt>
      <trkpt lat="43.93917" lon="7.4522">
        <ele>1664</ele>
        <time>2017-08-28T10:30:41Z</time>
      </trkpt>
      <trkpt lat="43.93905" lon="7.4521">
        <ele>1668.9</ele>
        <time>2017-08-28T10:30:54Z</time>
      </trkpt>
      <trkpt lat="43.93898" lon="7.45203">
        <ele>1670.8</ele>
        <time>2017-08-28T10:31:08Z</time>
      </trkpt>
      <trkpt lat="43.93888" lon="7.45195">
        <ele>1673.7</ele>
        <time>2017-08-28T10:31:22Z</time>
      </trkpt>
      <trkpt lat="43.93878" lon="7.45184">
        <ele>1676</ele>
        <time>2017-08-28T10:31:35Z</time>
      </trkpt>
      <trkpt lat="43.93878" lon="7.45183">
        <ele>1675.8</ele>
        <time>2017-08-28T10:31:36Z</time>
      </trkpt>
      <trkpt lat="43.93879" lon="7.45176">
        <ele>1673.6</ele>
        <time>2017-08-28T10:31:41Z</time>
      </trkpt>
      <trkpt lat="43.93879" lon="7.45173">
        <ele>1672.9</ele>
        <time>2017-08-28T10:31:43Z</time>
      </trkpt>
      <trkpt lat="43.93878" lon="7.4517">
        <ele>1672.7</ele>
        <time>2017-08-28T10:31:45Z</time>
      </trkpt>
      <trkpt lat="43.93871" lon="7.45146">
        <ele>1669.7</ele>
        <time>2017-08-28T10:32:01Z</time>
      </trkpt>
      <trkpt lat="43.93867" lon="7.45136">
        <ele>1669.7</ele>
        <time>2017-08-28T10:32:17Z</time>
      </trkpt>
      <trkpt lat="43.93866" lon="7.4511">
        <ele>1666</ele>
        <time>2017-08-28T10:32:31Z</time>
      </trkpt>
      <trkpt lat="43.93866" lon="7.4509">
        <ele>1666.1</ele>
        <time>2017-08-28T10:32:45Z</time>
      </trkpt>
      <trkpt lat="43.93867" lon="7.45088">
        <ele>1665.3</ele>
        <time>2017-08-28T10:32:46Z</time>
      </trkpt>
      <trkpt lat="43.93868" lon="7.45068">
        <ele>1667</ele>
        <time>2017-08-28T10:32:59Z</time>
      </trkpt>
      <trkpt lat="43.93871" lon="7.4505">
        <ele>1667.8</ele>
        <time>2017-08-28T10:33:12Z</time>
      </trkpt>
      <trkpt lat="43.93874" lon="7.45028">
        <ele>1669.1</ele>
        <time>2017-08-28T10:33:26Z</time>
      </trkpt>
      <trkpt lat="43.93875" lon="7.44998">
        <ele>1668.2</ele>
        <time>2017-08-28T10:33:40Z</time>
      </trkpt>
      <trkpt lat="43.93874" lon="7.44972">
        <ele>1665.7</ele>
        <time>2017-08-28T10:33:55Z</time>
      </trkpt>
      <trkpt lat="43.93869" lon="7.44953">
        <ele>1667.1</ele>
        <time>2017-08-28T10:34:09Z</time>
      </trkpt>
      <trkpt lat="43.93877" lon="7.44937">
        <ele>1661.9</ele>
        <time>2017-08-28T10:34:24Z</time>
      </trkpt>
      <trkpt lat="43.93879" lon="7.44934">
        <ele>1661</ele>
        <time>2017-08-28T10:34:28Z</time>
      </trkpt>
      <trkpt lat="43.93889" lon="7.44923">
        <ele>1657</ele>
        <time>2017-08-28T10:34:42Z</time>
      </trkpt>
      <trkpt lat="43.9389" lon="7.44922">
        <ele>1656.6</ele>
        <time>2017-08-28T10:34:45Z</time>
      </trkpt>
      <trkpt lat="43.93893" lon="7.44918">
        <ele>1655.4</ele>
        <time>2017-08-28T10:34:48Z</time>
      </trkpt>
      <trkpt lat="43.93902" lon="7.44897">
        <ele>1656.5</ele>
        <time>2017-08-28T10:35:01Z</time>
      </trkpt>
      <trkpt lat="43.93906" lon="7.44866">
        <ele>1664.1</ele>
        <time>2017-08-28T10:35:18Z</time>
      </trkpt>
      <trkpt lat="43.93913" lon="7.44853">
        <ele>1663.6</ele>
        <time>2017-08-28T10:35:32Z</time>
      </trkpt>
      <trkpt lat="43.93922" lon="7.44838">
        <ele>1662.9</ele>
        <time>2017-08-28T10:35:46Z</time>
      </trkpt>
      <trkpt lat="43.93938" lon="7.44825">
        <ele>1657.2</ele>
        <time>2017-08-28T10:36:02Z</time>
      </trkpt>
      <trkpt lat="43.93945" lon="7.44813">
        <ele>1656.9</ele>
        <time>2017-08-28T10:36:16Z</time>
      </trkpt>
      <trkpt lat="43.93946" lon="7.4481">
        <ele>1657.3</ele>
        <time>2017-08-28T10:36:17Z</time>
      </trkpt>
      <trkpt lat="43.93957" lon="7.4479">
        <ele>1656.5</ele>
        <time>2017-08-28T10:36:31Z</time>
      </trkpt>
      <trkpt lat="43.93964" lon="7.4477">
        <ele>1656.7</ele>
        <time>2017-08-28T10:36:45Z</time>
      </trkpt>
      <trkpt lat="43.93966" lon="7.4476">
        <ele>1656.9</ele>
        <time>2017-08-28T10:36:50Z</time>
      </trkpt>
      <trkpt lat="43.93971" lon="7.44733">
        <ele>1653.7</ele>
        <time>2017-08-28T10:37:06Z</time>
      </trkpt>
      <trkpt lat="43.93962" lon="7.44713">
        <ele>1652.4</ele>
        <time>2017-08-28T10:37:21Z</time>
      </trkpt>
      <trkpt lat="43.93945" lon="7.447">
        <ele>1652.4</ele>
        <time>2017-08-28T10:37:36Z</time>
      </trkpt>
      <trkpt lat="43.93928" lon="7.44684">
        <ele>1649.9</ele>
        <time>2017-08-28T10:37:53Z</time>
      </trkpt>
      <trkpt lat="43.93915" lon="7.44675">
        <ele>1649.6</ele>
        <time>2017-08-28T10:38:05Z</time>
      </trkpt>
      <trkpt lat="43.93908" lon="7.44672">
        <ele>1651.4</ele>
        <time>2017-08-28T10:38:11Z</time>
      </trkpt>
      <trkpt lat="43.93896" lon="7.44665">
        <ele>1653.6</ele>
        <time>2017-08-28T10:38:26Z</time>
      </trkpt>
      <trkpt lat="43.93893" lon="7.44662">
        <ele>1653.6</ele>
        <time>2017-08-28T10:38:29Z</time>
      </trkpt>
      <trkpt lat="43.93885" lon="7.44644">
        <ele>1649.2</ele>
        <time>2017-08-28T10:38:44Z</time>
      </trkpt>
      <trkpt lat="43.9388" lon="7.44627">
        <ele>1644.2</ele>
        <time>2017-08-28T10:38:58Z</time>
      </trkpt>
      <trkpt lat="43.93872" lon="7.4461">
        <ele>1641.6</ele>
        <time>2017-08-28T10:39:13Z</time>
      </trkpt>
      <trkpt lat="43.93862" lon="7.44595">
        <ele>1641.8</ele>
        <time>2017-08-28T10:39:29Z</time>
      </trkpt>
      <trkpt lat="43.93862" lon="7.44595">
        <ele>1641.8</ele>
        <time>2017-08-28T10:39:57Z</time>
      </trkpt>
      <trkpt lat="43.93862" lon="7.44595">
        <ele>1641.8</ele>
        <time>2017-08-28T10:40:32Z</time>
      </trkpt>
      <trkpt lat="43.93863" lon="7.44595">
        <ele>1641.1</ele>
        <time>2017-08-28T10:40:50Z</time>
      </trkpt>
      <trkpt lat="43.93863" lon="7.44595">
        <ele>1641.1</ele>
        <time>2017-08-28T10:41:01Z</time>
      </trkpt>
      <trkpt lat="43.93855" lon="7.44583">
        <ele>1641.7</ele>
        <time>2017-08-28T10:41:12Z</time>
      </trkpt>
      <trkpt lat="43.93848" lon="7.44568">
        <ele>1641</ele>
        <time>2017-08-28T10:41:21Z</time>
      </trkpt>
      <trkpt lat="43.93841" lon="7.44554">
        <ele>1641</ele>
        <time>2017-08-28T10:41:30Z</time>
      </trkpt>
      <trkpt lat="43.93835" lon="7.44544">
        <ele>1642</ele>
        <time>2017-08-28T10:41:36Z</time>
      </trkpt>
      <trkpt lat="43.93826" lon="7.44517">
        <ele>1638.9</ele>
        <time>2017-08-28T10:41:53Z</time>
      </trkpt>
      <trkpt lat="43.93818" lon="7.44494">
        <ele>1636.7</ele>
        <time>2017-08-28T10:42:06Z</time>
      </trkpt>
      <trkpt lat="43.93806" lon="7.44464">
        <ele>1634.1</ele>
        <time>2017-08-28T10:42:22Z</time>
      </trkpt>
      <trkpt lat="43.93797" lon="7.44446">
        <ele>1632.8</ele>
        <time>2017-08-28T10:42:35Z</time>
      </trkpt>
      <trkpt lat="43.93783" lon="7.44428">
        <ele>1635.1</ele>
        <time>2017-08-28T10:42:49Z</time>
      </trkpt>
      <trkpt lat="43.93781" lon="7.44425">
        <ele>1635.3</ele>
        <time>2017-08-28T10:42:51Z</time>
      </trkpt>
      <trkpt lat="43.93777" lon="7.4442">
        <ele>1635.8</ele>
        <time>2017-08-28T10:42:55Z</time>
      </trkpt>
      <trkpt lat="43.93773" lon="7.44414">
        <ele>1635</ele>
        <time>2017-08-28T10:43:00Z</time>
      </trkpt>
      <trkpt lat="43.93757" lon="7.44391">
        <ele>1633.8</ele>
        <time>2017-08-28T10:43:14Z</time>
      </trkpt>
      <trkpt lat="43.93738" lon="7.44367">
        <ele>1631.8</ele>
        <time>2017-08-28T10:43:30Z</time>
      </trkpt>
      <trkpt lat="43.93726" lon="7.44356">
        <ele>1631.7</ele>
        <time>2017-08-28T10:43:40Z</time>
      </trkpt>
      <trkpt lat="43.93714" lon="7.44381">
        <ele>1635.2</ele>
        <time>2017-08-28T10:43:54Z</time>
      </trkpt>
      <trkpt lat="43.93699" lon="7.44412">
        <ele>1635.1</ele>
        <time>2017-08-28T10:44:11Z</time>
      </trkpt>
      <trkpt lat="43.93687" lon="7.44437">
        <ele>1632.1</ele>
        <time>2017-08-28T10:44:26Z</time>
      </trkpt>
      <trkpt lat="43.93678" lon="7.44463">
        <ele>1630.3</ele>
        <time>2017-08-28T10:44:40Z</time>
      </trkpt>
      <trkpt lat="43.93673" lon="7.44488">
        <ele>1630.6</ele>
        <time>2017-08-28T10:44:55Z</time>
      </trkpt>
      <trkpt lat="43.93661" lon="7.44523">
        <ele>1626.4</ele>
        <time>2017-08-28T10:45:13Z</time>
      </trkpt>
      <trkpt lat="43.93652" lon="7.44556">
        <ele>1622.9</ele>
        <time>2017-08-28T10:45:30Z</time>
      </trkpt>
      <trkpt lat="43.93648" lon="7.4459">
        <ele>1621.6</ele>
        <time>2017-08-28T10:45:46Z</time>
      </trkpt>
      <trkpt lat="43.93645" lon="7.44623">
        <ele>1619</ele>
        <time>2017-08-28T10:46:02Z</time>
      </trkpt>
      <trkpt lat="43.93642" lon="7.44657">
        <ele>1616.8</ele>
        <time>2017-08-28T10:46:18Z</time>
      </trkpt>
      <trkpt lat="43.93636" lon="7.44685">
        <ele>1613.7</ele>
        <time>2017-08-28T10:46:31Z</time>
      </trkpt>
      <trkpt lat="43.93627" lon="7.44704">
        <ele>1610.9</ele>
        <time>2017-08-28T10:46:41Z</time>
      </trkpt>
      <trkpt lat="43.93615" lon="7.44724">
        <ele>1608.9</ele>
        <time>2017-08-28T10:46:53Z</time>
      </trkpt>
      <trkpt lat="43.93601" lon="7.44746">
        <ele>1613.1</ele>
        <time>2017-08-28T10:47:08Z</time>
      </trkpt>
      <trkpt lat="43.93594" lon="7.44744">
        <ele>1611.9</ele>
        <time>2017-08-28T10:47:13Z</time>
      </trkpt>
      <trkpt lat="43.9357" lon="7.44729">
        <ele>1604.3</ele>
        <time>2017-08-28T10:47:30Z</time>
      </trkpt>
      <trkpt lat="43.93546" lon="7.44723">
        <ele>1601</ele>
        <time>2017-08-28T10:47:47Z</time>
      </trkpt>
      <trkpt lat="43.93525" lon="7.44723">
        <ele>1600.1</ele>
        <time>2017-08-28T10:48:02Z</time>
      </trkpt>
      <trkpt lat="43.93504" lon="7.44721">
        <ele>1596.8</ele>
        <time>2017-08-28T10:48:17Z</time>
      </trkpt>
      <trkpt lat="43.93484" lon="7.44721">
        <ele>1597</ele>
        <time>2017-08-28T10:48:32Z</time>
      </trkpt>
      <trkpt lat="43.93465" lon="7.44715">
        <ele>1596.9</ele>
        <time>2017-08-28T10:48:48Z</time>
      </trkpt>
      <trkpt lat="43.93448" lon="7.44694">
        <ele>1591.8</ele>
        <time>2017-08-28T10:49:06Z</time>
      </trkpt>
      <trkpt lat="43.93433" lon="7.44675">
        <ele>1588</ele>
        <time>2017-08-28T10:49:22Z</time>
      </trkpt>
      <trkpt lat="43.93416" lon="7.44659">
        <ele>1584.8</ele>
        <time>2017-08-28T10:49:38Z</time>
      </trkpt>
      <trkpt lat="43.93403" lon="7.44649">
        <ele>1583.9</ele>
        <time>2017-08-28T10:49:52Z</time>
      </trkpt>
      <trkpt lat="43.93392" lon="7.44643">
        <ele>1584.9</ele>
        <time>2017-08-28T10:50:01Z</time>
      </trkpt>
      <trkpt lat="43.93382" lon="7.44625">
        <ele>1581.7</ele>
        <time>2017-08-28T10:50:17Z</time>
      </trkpt>
      <trkpt lat="43.93374" lon="7.44608">
        <ele>1578.7</ele>
        <time>2017-08-28T10:50:31Z</time>
      </trkpt>
      <trkpt lat="43.9336" lon="7.4459">
        <ele>1577.3</ele>
        <time>2017-08-28T10:50:46Z</time>
      </trkpt>
      <trkpt lat="43.93343" lon="7.4457">
        <ele>1573.1</ele>
        <time>2017-08-28T10:51:01Z</time>
      </trkpt>
      <trkpt lat="43.93327" lon="7.44553">
        <ele>1569.1</ele>
        <time>2017-08-28T10:51:17Z</time>
      </trkpt>
      <trkpt lat="43.93326" lon="7.4455">
        <ele>1567.8</ele>
        <time>2017-08-28T10:51:19Z</time>
      </trkpt>
      <trkpt lat="43.93315" lon="7.44545">
        <ele>1567.6</ele>
        <time>2017-08-28T10:51:29Z</time>
      </trkpt>
      <trkpt lat="43.93311" lon="7.44542">
        <ele>1567</ele>
        <time>2017-08-28T10:51:33Z</time>
      </trkpt>
      <trkpt lat="43.93293" lon="7.44538">
        <ele>1568.7</ele>
        <time>2017-08-28T10:51:49Z</time>
      </trkpt>
      <trkpt lat="43.9329" lon="7.44535">
        <ele>1567.9</ele>
        <time>2017-08-28T10:51:53Z</time>
      </trkpt>
      <trkpt lat="43.93286" lon="7.44532">
        <ele>1567.2</ele>
        <time>2017-08-28T10:51:57Z</time>
      </trkpt>
      <trkpt lat="43.93282" lon="7.44531">
        <ele>1567.6</ele>
        <time>2017-08-28T10:52:01Z</time>
      </trkpt>
      <trkpt lat="43.93273" lon="7.44522">
        <ele>1565.3</ele>
        <time>2017-08-28T10:52:09Z</time>
      </trkpt>
      <trkpt lat="43.93255" lon="7.44508">
        <ele>1562.8</ele>
        <time>2017-08-28T10:52:27Z</time>
      </trkpt>
      <trkpt lat="43.9324" lon="7.44501">
        <ele>1564.5</ele>
        <time>2017-08-28T10:52:42Z</time>
      </trkpt>
      <trkpt lat="43.93235" lon="7.44496">
        <ele>1564.1</ele>
        <time>2017-08-28T10:52:47Z</time>
      </trkpt>
      <trkpt lat="43.93225" lon="7.44481">
        <ele>1561.6</ele>
        <time>2017-08-28T10:53:01Z</time>
      </trkpt>
      <trkpt lat="43.93218" lon="7.44462">
        <ele>1556.7</ele>
        <time>2017-08-28T10:53:16Z</time>
      </trkpt>
      <trkpt lat="43.93215" lon="7.44457">
        <ele>1555.9</ele>
        <time>2017-08-28T10:53:19Z</time>
      </trkpt>
      <trkpt lat="43.93198" lon="7.44435">
        <ele>1554</ele>
        <time>2017-08-28T10:53:35Z</time>
      </trkpt>
      <trkpt lat="43.93183" lon="7.44427">
        <ele>1557.8</ele>
        <time>2017-08-28T10:53:51Z</time>
      </trkpt>
      <trkpt lat="43.93179" lon="7.44421">
        <ele>1556.9</ele>
        <time>2017-08-28T10:54:00Z</time>
      </trkpt>
      <trkpt lat="43.93168" lon="7.44391">
        <ele>1548.3</ele>
        <time>2017-08-28T10:54:17Z</time>
      </trkpt>
      <trkpt lat="43.93159" lon="7.44367">
        <ele>1544.1</ele>
        <time>2017-08-28T10:54:33Z</time>
      </trkpt>
      <trkpt lat="43.93146" lon="7.44334">
        <ele>1539.2</ele>
        <time>2017-08-28T10:54:51Z</time>
      </trkpt>
      <trkpt lat="43.93132" lon="7.44311">
        <ele>1538.3</ele>
        <time>2017-08-28T10:55:06Z</time>
      </trkpt>
      <trkpt lat="43.93129" lon="7.44308">
        <ele>1538.6</ele>
        <time>2017-08-28T10:55:11Z</time>
      </trkpt>
      <trkpt lat="43.93112" lon="7.44296">
        <ele>1541.1</ele>
        <time>2017-08-28T10:55:27Z</time>
      </trkpt>
      <trkpt lat="43.93107" lon="7.44289">
        <ele>1540.9</ele>
        <time>2017-08-28T10:55:34Z</time>
      </trkpt>
      <trkpt lat="43.93099" lon="7.44272">
        <ele>1538.4</ele>
        <time>2017-08-28T10:55:48Z</time>
      </trkpt>
      <trkpt lat="43.93095" lon="7.44257">
        <ele>1534.5</ele>
        <time>2017-08-28T10:55:55Z</time>
      </trkpt>
      <trkpt lat="43.93087" lon="7.44229">
        <ele>1527.6</ele>
        <time>2017-08-28T10:56:11Z</time>
      </trkpt>
      <trkpt lat="43.93079" lon="7.44213">
        <ele>1527.5</ele>
        <time>2017-08-28T10:56:25Z</time>
      </trkpt>
      <trkpt lat="43.93068" lon="7.44199">
        <ele>1531.7</ele>
        <time>2017-08-28T10:56:40Z</time>
      </trkpt>
      <trkpt lat="43.93064" lon="7.44191">
        <ele>1532.5</ele>
        <time>2017-08-28T10:56:47Z</time>
      </trkpt>
      <trkpt lat="43.93061" lon="7.44179">
        <ele>1532.2</ele>
        <time>2017-08-28T10:56:51Z</time>
      </trkpt>
      <trkpt lat="43.93055" lon="7.44146">
        <ele>1532.2</ele>
        <time>2017-08-28T10:57:08Z</time>
      </trkpt>
      <trkpt lat="43.93055" lon="7.4412">
        <ele>1531.4</ele>
        <time>2017-08-28T10:57:23Z</time>
      </trkpt>
      <trkpt lat="43.93055" lon="7.44117">
        <ele>1531.4</ele>
        <time>2017-08-28T10:57:24Z</time>
      </trkpt>
      <trkpt lat="43.9306" lon="7.44088">
        <ele>1527.5</ele>
        <time>2017-08-28T10:57:41Z</time>
      </trkpt>
      <trkpt lat="43.93057" lon="7.44061">
        <ele>1526.7</ele>
        <time>2017-08-28T10:57:55Z</time>
      </trkpt>
      <trkpt lat="43.93047" lon="7.44038">
        <ele>1522.4</ele>
        <time>2017-08-28T10:58:10Z</time>
      </trkpt>
      <trkpt lat="43.93034" lon="7.44021">
        <ele>1523.7</ele>
        <time>2017-08-28T10:58:24Z</time>
      </trkpt>
      <trkpt lat="43.93028" lon="7.44005">
        <ele>1523.3</ele>
        <time>2017-08-28T10:58:34Z</time>
      </trkpt>
      <trkpt lat="43.93024" lon="7.43978">
        <ele>1517.6</ele>
        <time>2017-08-28T10:58:51Z</time>
      </trkpt>
      <trkpt lat="43.93018" lon="7.43949">
        <ele>1513</ele>
        <time>2017-08-28T10:59:08Z</time>
      </trkpt>
      <trkpt lat="43.93016" lon="7.43945">
        <ele>1512.8</ele>
        <time>2017-08-28T10:59:11Z</time>
      </trkpt>
      <trkpt lat="43.93014" lon="7.43919">
        <ele>1507.1</ele>
        <time>2017-08-28T10:59:27Z</time>
      </trkpt>
      <trkpt lat="43.93012" lon="7.43898">
        <ele>1503.1</ele>
        <time>2017-08-28T10:59:39Z</time>
      </trkpt>
      <trkpt lat="43.93018" lon="7.43866">
        <ele>1497.1</ele>
        <time>2017-08-28T10:59:54Z</time>
      </trkpt>
      <trkpt lat="43.93017" lon="7.43854">
        <ele>1495.7</ele>
        <time>2017-08-28T11:00:02Z</time>
      </trkpt>
      <trkpt lat="43.9302" lon="7.43846">
        <ele>1495.1</ele>
        <time>2017-08-28T11:00:08Z</time>
      </trkpt>
      <trkpt lat="43.93023" lon="7.43838">
        <ele>1494.8</ele>
        <time>2017-08-28T11:00:14Z</time>
      </trkpt>
      <trkpt lat="43.93024" lon="7.43831">
        <ele>1494.5</ele>
        <time>2017-08-28T11:00:18Z</time>
      </trkpt>
      <trkpt lat="43.93027" lon="7.43821">
        <ele>1494.4</ele>
        <time>2017-08-28T11:00:24Z</time>
      </trkpt>
      <trkpt lat="43.93029" lon="7.43796">
        <ele>1492.4</ele>
        <time>2017-08-28T11:00:39Z</time>
      </trkpt>
      <trkpt lat="43.93029" lon="7.4379">
        <ele>1491.6</ele>
        <time>2017-08-28T11:00:42Z</time>
      </trkpt>
      <trkpt lat="43.9303" lon="7.43781">
        <ele>1490.4</ele>
        <time>2017-08-28T11:00:47Z</time>
      </trkpt>
      <trkpt lat="43.93025" lon="7.43773">
        <ele>1488.7</ele>
        <time>2017-08-28T11:00:55Z</time>
      </trkpt>
      <trkpt lat="43.9302" lon="7.43771">
        <ele>1486.9</ele>
        <time>2017-08-28T11:00:59Z</time>
      </trkpt>
      <trkpt lat="43.93015" lon="7.43772">
        <ele>1485.3</ele>
        <time>2017-08-28T11:01:02Z</time>
      </trkpt>
      <trkpt lat="43.93012" lon="7.43776">
        <ele>1484.7</ele>
        <time>2017-08-28T11:01:07Z</time>
      </trkpt>
      <trkpt lat="43.93008" lon="7.43775">
        <ele>1483.3</ele>
        <time>2017-08-28T11:01:11Z</time>
      </trkpt>
      <trkpt lat="43.92997" lon="7.43774">
        <ele>1479.5</ele>
        <time>2017-08-28T11:01:24Z</time>
      </trkpt>
      <trkpt lat="43.92987" lon="7.43781">
        <ele>1476.9</ele>
        <time>2017-08-28T11:01:37Z</time>
      </trkpt>
      <trkpt lat="43.92985" lon="7.43776">
        <ele>1475.4</ele>
        <time>2017-08-28T11:01:41Z</time>
      </trkpt>
      <trkpt lat="43.92984" lon="7.43774">
        <ele>1474.8</ele>
        <time>2017-08-28T11:01:43Z</time>
      </trkpt>
      <trkpt lat="43.92983" lon="7.43757">
        <ele>1472.2</ele>
        <time>2017-08-28T11:01:51Z</time>
      </trkpt>
      <trkpt lat="43.92983" lon="7.43755">
        <ele>1471.9</ele>
        <time>2017-08-28T11:01:52Z</time>
      </trkpt>
      <trkpt lat="43.92983" lon="7.43749">
        <ele>1471.1</ele>
        <time>2017-08-28T11:01:56Z</time>
      </trkpt>
      <trkpt lat="43.92971" lon="7.43752">
        <ele>1466.8</ele>
        <time>2017-08-28T11:02:05Z</time>
      </trkpt>
      <trkpt lat="43.92964" lon="7.43754">
        <ele>1464.4</ele>
        <time>2017-08-28T11:02:11Z</time>
      </trkpt>
      <trkpt lat="43.92948" lon="7.43762">
        <ele>1459.5</ele>
        <time>2017-08-28T11:02:25Z</time>
      </trkpt>
      <trkpt lat="43.92936" lon="7.4377">
        <ele>1457.4</ele>
        <time>2017-08-28T11:02:35Z</time>
      </trkpt>
      <trkpt lat="43.92929" lon="7.4377">
        <ele>1455.6</ele>
        <time>2017-08-28T11:02:40Z</time>
      </trkpt>
      <trkpt lat="43.92923" lon="7.43773">
        <ele>1455</ele>
        <time>2017-08-28T11:02:44Z</time>
      </trkpt>
      <trkpt lat="43.92921" lon="7.43773">
        <ele>1454.5</ele>
        <time>2017-08-28T11:02:45Z</time>
      </trkpt>
      <trkpt lat="43.92919" lon="7.43774">
        <ele>1454.3</ele>
        <time>2017-08-28T11:02:47Z</time>
      </trkpt>
      <trkpt lat="43.92897" lon="7.4378">
        <ele>1451.5</ele>
        <time>2017-08-28T11:03:03Z</time>
      </trkpt>
      <trkpt lat="43.92879" lon="7.43778">
        <ele>1447.3</ele>
        <time>2017-08-28T11:03:16Z</time>
      </trkpt>
      <trkpt lat="43.92873" lon="7.43777">
        <ele>1445.9</ele>
        <time>2017-08-28T11:03:20Z</time>
      </trkpt>
      <trkpt lat="43.92852" lon="7.43774">
        <ele>1442.1</ele>
        <time>2017-08-28T11:03:36Z</time>
      </trkpt>
      <trkpt lat="43.92846" lon="7.4377">
        <ele>1440.2</ele>
        <time>2017-08-28T11:03:40Z</time>
      </trkpt>
      <trkpt lat="43.92836" lon="7.43769">
        <ele>1439.1</ele>
        <time>2017-08-28T11:03:46Z</time>
      </trkpt>
      <trkpt lat="43.92816" lon="7.43767">
        <ele>1435.4</ele>
        <time>2017-08-28T11:04:01Z</time>
      </trkpt>
      <trkpt lat="43.92807" lon="7.43764">
        <ele>1432.8</ele>
        <time>2017-08-28T11:04:09Z</time>
      </trkpt>
      <trkpt lat="43.92806" lon="7.43763">
        <ele>1432.2</ele>
        <time>2017-08-28T11:04:12Z</time>
      </trkpt>
      <trkpt lat="43.92804" lon="7.43762">
        <ele>1431.5</ele>
        <time>2017-08-28T11:04:14Z</time>
      </trkpt>
      <trkpt lat="43.92798" lon="7.4376">
        <ele>1429.7</ele>
        <time>2017-08-28T11:04:19Z</time>
      </trkpt>
      <trkpt lat="43.92793" lon="7.43759">
        <ele>1428.5</ele>
        <time>2017-08-28T11:04:22Z</time>
      </trkpt>
      <trkpt lat="43.92775" lon="7.43755">
        <ele>1423.8</ele>
        <time>2017-08-28T11:04:35Z</time>
      </trkpt>
      <trkpt lat="43.92757" lon="7.43751">
        <ele>1419.4</ele>
        <time>2017-08-28T11:04:48Z</time>
      </trkpt>
      <trkpt lat="43.92745" lon="7.4375">
        <ele>1416.9</ele>
        <time>2017-08-28T11:04:58Z</time>
      </trkpt>
      <trkpt lat="43.9274" lon="7.4375">
        <ele>1415.8</ele>
        <time>2017-08-28T11:05:02Z</time>
      </trkpt>
      <trkpt lat="43.92735" lon="7.43751">
        <ele>1415.2</ele>
        <time>2017-08-28T11:05:07Z</time>
      </trkpt>
      <trkpt lat="43.92727" lon="7.43751">
        <ele>1413.5</ele>
        <time>2017-08-28T11:05:14Z</time>
      </trkpt>
      <trkpt lat="43.92706" lon="7.43754">
        <ele>1410.3</ele>
        <time>2017-08-28T11:05:26Z</time>
      </trkpt>
      <trkpt lat="43.92688" lon="7.43761">
        <ele>1410</ele>
        <time>2017-08-28T11:05:39Z</time>
      </trkpt>
      <trkpt lat="43.92674" lon="7.43762">
        <ele>1407.9</ele>
        <time>2017-08-28T11:05:49Z</time>
      </trkpt>
      <trkpt lat="43.92657" lon="7.43764">
        <ele>1406.2</ele>
        <time>2017-08-28T11:06:03Z</time>
      </trkpt>
      <trkpt lat="43.92641" lon="7.43765">
        <ele>1404.4</ele>
        <time>2017-08-28T11:06:16Z</time>
      </trkpt>
      <trkpt lat="43.9264" lon="7.43765">
        <ele>1404.3</ele>
        <time>2017-08-28T11:06:17Z</time>
      </trkpt>
      <trkpt lat="43.92637" lon="7.43764">
        <ele>1403.4</ele>
        <time>2017-08-28T11:06:19Z</time>
      </trkpt>
      <trkpt lat="43.9262" lon="7.43765">
        <ele>1402.1</ele>
        <time>2017-08-28T11:06:29Z</time>
      </trkpt>
      <trkpt lat="43.92614" lon="7.4377">
        <ele>1404.5</ele>
        <time>2017-08-28T11:06:35Z</time>
      </trkpt>
      <trkpt lat="43.92601" lon="7.4377">
        <ele>1403.2</ele>
        <time>2017-08-28T11:06:44Z</time>
      </trkpt>
      <trkpt lat="43.92598" lon="7.43769">
        <ele>1402.4</ele>
        <time>2017-08-28T11:06:46Z</time>
      </trkpt>
      <trkpt lat="43.9259" lon="7.43772">
        <ele>1403.3</ele>
        <time>2017-08-28T11:06:54Z</time>
      </trkpt>
      <trkpt lat="43.9258" lon="7.43769">
        <ele>1400.5</ele>
        <time>2017-08-28T11:07:03Z</time>
      </trkpt>
      <trkpt lat="43.9256" lon="7.43768">
        <ele>1397.6</ele>
        <time>2017-08-28T11:07:15Z</time>
      </trkpt>
      <trkpt lat="43.9254" lon="7.43763">
        <ele>1392.3</ele>
        <time>2017-08-28T11:07:30Z</time>
      </trkpt>
      <trkpt lat="43.92537" lon="7.43762">
        <ele>1391.3</ele>
        <time>2017-08-28T11:07:34Z</time>
      </trkpt>
      <trkpt lat="43.92521" lon="7.43759">
        <ele>1387.3</ele>
        <time>2017-08-28T11:07:47Z</time>
      </trkpt>
      <trkpt lat="43.9252" lon="7.4376">
        <ele>1387.7</ele>
        <time>2017-08-28T11:07:50Z</time>
      </trkpt>
      <trkpt lat="43.92516" lon="7.43761">
        <ele>1387.6</ele>
        <time>2017-08-28T11:07:54Z</time>
      </trkpt>
      <trkpt lat="43.92514" lon="7.43761">
        <ele>1387.3</ele>
        <time>2017-08-28T11:07:56Z</time>
      </trkpt>
      <trkpt lat="43.92502" lon="7.43763">
        <ele>1386.3</ele>
        <time>2017-08-28T11:08:05Z</time>
      </trkpt>
      <trkpt lat="43.92494" lon="7.43763">
        <ele>1384.7</ele>
        <time>2017-08-28T11:08:11Z</time>
      </trkpt>
      <trkpt lat="43.92489" lon="7.43765">
        <ele>1384.8</ele>
        <time>2017-08-28T11:08:17Z</time>
      </trkpt>
      <trkpt lat="43.92484" lon="7.43764">
        <ele>1383.1</ele>
        <time>2017-08-28T11:08:21Z</time>
      </trkpt>
      <trkpt lat="43.92477" lon="7.43763">
        <ele>1381</ele>
        <time>2017-08-28T11:08:25Z</time>
      </trkpt>
      <trkpt lat="43.92475" lon="7.43764">
        <ele>1381.2</ele>
        <time>2017-08-28T11:08:27Z</time>
      </trkpt>
      <trkpt lat="43.92472" lon="7.43765">
        <ele>1381.1</ele>
        <time>2017-08-28T11:08:29Z</time>
      </trkpt>
      <trkpt lat="43.92468" lon="7.43765">
        <ele>1380.2</ele>
        <time>2017-08-28T11:08:31Z</time>
      </trkpt>
      <trkpt lat="43.92447" lon="7.43777">
        <ele>1381.3</ele>
        <time>2017-08-28T11:08:46Z</time>
      </trkpt>
      <trkpt lat="43.9243" lon="7.43786">
        <ele>1381.6</ele>
        <time>2017-08-28T11:08:59Z</time>
      </trkpt>
      <trkpt lat="43.92429" lon="7.43786">
        <ele>1381.5</ele>
        <time>2017-08-28T11:09:00Z</time>
      </trkpt>
      <trkpt lat="43.92414" lon="7.43786">
        <ele>1379.2</ele>
        <time>2017-08-28T11:09:12Z</time>
      </trkpt>
      <trkpt lat="43.92392" lon="7.43778">
        <ele>1377.1</ele>
        <time>2017-08-28T11:09:28Z</time>
      </trkpt>
      <trkpt lat="43.92376" lon="7.4377">
        <ele>1374.9</ele>
        <time>2017-08-28T11:09:41Z</time>
      </trkpt>
      <trkpt lat="43.9236" lon="7.43768">
        <ele>1373.8</ele>
        <time>2017-08-28T11:09:55Z</time>
      </trkpt>
      <trkpt lat="43.92358" lon="7.43768">
        <ele>1373.5</ele>
        <time>2017-08-28T11:09:57Z</time>
      </trkpt>
      <trkpt lat="43.92353" lon="7.43784">
        <ele>1370.7</ele>
        <time>2017-08-28T11:10:15Z</time>
      </trkpt>
      <trkpt lat="43.92353" lon="7.43784">
        <ele>1370.7</ele>
        <time>2017-08-28T11:10:37Z</time>
      </trkpt>
      <trkpt lat="43.92353" lon="7.43784">
        <ele>1370.7</ele>
        <time>2017-08-28T11:10:56Z</time>
      </trkpt>
      <trkpt lat="43.92353" lon="7.43785">
        <ele>1370.5</ele>
        <time>2017-08-28T11:11:19Z</time>
      </trkpt>
      <trkpt lat="43.92352" lon="7.4379">
        <ele>1369</ele>
        <time>2017-08-28T11:11:43Z</time>
      </trkpt>
      <trkpt lat="43.92354" lon="7.43787">
        <ele>1370.2</ele>
        <time>2017-08-28T11:12:03Z</time>
      </trkpt>
      <trkpt lat="43.92354" lon="7.43787">
        <ele>1370.2</ele>
        <time>2017-08-28T11:12:31Z</time>
      </trkpt>
      <trkpt lat="43.92353" lon="7.43787">
        <ele>1370</ele>
        <time>2017-08-28T11:13:08Z</time>
      </trkpt>
      <trkpt lat="43.92354" lon="7.43781">
        <ele>1371.7</ele>
        <time>2017-08-28T11:13:13Z</time>
      </trkpt>
      <trkpt lat="43.9234" lon="7.43771">
        <ele>1370.4</ele>
        <time>2017-08-28T11:13:26Z</time>
      </trkpt>
      <trkpt lat="43.92326" lon="7.43762">
        <ele>1369.3</ele>
        <time>2017-08-28T11:13:37Z</time>
      </trkpt>
      <trkpt lat="43.92323" lon="7.43762">
        <ele>1368.7</ele>
        <time>2017-08-28T11:13:39Z</time>
      </trkpt>
      <trkpt lat="43.92319" lon="7.43761">
        <ele>1368.1</ele>
        <time>2017-08-28T11:13:42Z</time>
      </trkpt>
      <trkpt lat="43.92317" lon="7.43758">
        <ele>1368.5</ele>
        <time>2017-08-28T11:13:44Z</time>
      </trkpt>
      <trkpt lat="43.92305" lon="7.43745">
        <ele>1369.4</ele>
        <time>2017-08-28T11:13:59Z</time>
      </trkpt>
      <trkpt lat="43.92302" lon="7.43743">
        <ele>1368.8</ele>
        <time>2017-08-28T11:14:02Z</time>
      </trkpt>
      <trkpt lat="43.92296" lon="7.43739">
        <ele>1367.8</ele>
        <time>2017-08-28T11:14:08Z</time>
      </trkpt>
      <trkpt lat="43.92294" lon="7.43736">
        <ele>1367.8</ele>
        <time>2017-08-28T11:14:10Z</time>
      </trkpt>
      <trkpt lat="43.92285" lon="7.43728">
        <ele>1367.2</ele>
        <time>2017-08-28T11:14:18Z</time>
      </trkpt>
      <trkpt lat="43.92272" lon="7.43718">
        <ele>1365</ele>
        <time>2017-08-28T11:14:28Z</time>
      </trkpt>
      <trkpt lat="43.92271" lon="7.43717">
        <ele>1364.7</ele>
        <time>2017-08-28T11:14:29Z</time>
      </trkpt>
      <trkpt lat="43.92265" lon="7.43714">
        <ele>1362.8</ele>
        <time>2017-08-28T11:14:34Z</time>
      </trkpt>
      <trkpt lat="43.9226" lon="7.43712">
        <ele>1361.3</ele>
        <time>2017-08-28T11:14:39Z</time>
      </trkpt>
      <trkpt lat="43.92255" lon="7.4371">
        <ele>1359.9</ele>
        <time>2017-08-28T11:14:43Z</time>
      </trkpt>
      <trkpt lat="43.9225" lon="7.43711">
        <ele>1358.4</ele>
        <time>2017-08-28T11:14:47Z</time>
      </trkpt>
      <trkpt lat="43.92234" lon="7.43702">
        <ele>1354.5</ele>
        <time>2017-08-28T11:15:01Z</time>
      </trkpt>
      <trkpt lat="43.92231" lon="7.437">
        <ele>1354</ele>
        <time>2017-08-28T11:15:03Z</time>
      </trkpt>
      <trkpt lat="43.92226" lon="7.43698">
        <ele>1353.1</ele>
        <time>2017-08-28T11:15:08Z</time>
      </trkpt>
      <trkpt lat="43.92211" lon="7.4368">
        <ele>1350.6</ele>
        <time>2017-08-28T11:15:21Z</time>
      </trkpt>
      <trkpt lat="43.92207" lon="7.43681">
        <ele>1349.7</ele>
        <time>2017-08-28T11:15:25Z</time>
      </trkpt>
      <trkpt lat="43.92195" lon="7.43679">
        <ele>1347.3</ele>
        <time>2017-08-28T11:15:32Z</time>
      </trkpt>
      <trkpt lat="43.92189" lon="7.43681">
        <ele>1345.6</ele>
        <time>2017-08-28T11:15:36Z</time>
      </trkpt>
      <trkpt lat="43.92181" lon="7.43683">
        <ele>1343.1</ele>
        <time>2017-08-28T11:15:42Z</time>
      </trkpt>
      <trkpt lat="43.92158" lon="7.43674">
        <ele>1340.1</ele>
        <time>2017-08-28T11:15:57Z</time>
      </trkpt>
      <trkpt lat="43.92152" lon="7.43666">
        <ele>1341.4</ele>
        <time>2017-08-28T11:16:04Z</time>
      </trkpt>
      <trkpt lat="43.92146" lon="7.43666">
        <ele>1340.4</ele>
        <time>2017-08-28T11:16:08Z</time>
      </trkpt>
      <trkpt lat="43.9214" lon="7.43663">
        <ele>1339.8</ele>
        <time>2017-08-28T11:16:14Z</time>
      </trkpt>
      <trkpt lat="43.92124" lon="7.4366">
        <ele>1337.6</ele>
        <time>2017-08-28T11:16:30Z</time>
      </trkpt>
      <trkpt lat="43.92118" lon="7.43657">
        <ele>1337.5</ele>
        <time>2017-08-28T11:16:38Z</time>
      </trkpt>
      <trkpt lat="43.9211" lon="7.43659">
        <ele>1335.6</ele>
        <time>2017-08-28T11:16:46Z</time>
      </trkpt>
      <trkpt lat="43.92104" lon="7.43657">
        <ele>1335.7</ele>
        <time>2017-08-28T11:16:50Z</time>
      </trkpt>
      <trkpt lat="43.921" lon="7.43654">
        <ele>1336.5</ele>
        <time>2017-08-28T11:16:54Z</time>
      </trkpt>
      <trkpt lat="43.9209" lon="7.4365">
        <ele>1337.3</ele>
        <time>2017-08-28T11:17:03Z</time>
      </trkpt>
      <trkpt lat="43.92075" lon="7.43649">
        <ele>1336.7</ele>
        <time>2017-08-28T11:17:17Z</time>
      </trkpt>
      <trkpt lat="43.92068" lon="7.4365">
        <ele>1335.8</ele>
        <time>2017-08-28T11:17:28Z</time>
      </trkpt>
      <trkpt lat="43.92061" lon="7.43652">
        <ele>1334.3</ele>
        <time>2017-08-28T11:17:33Z</time>
      </trkpt>
      <trkpt lat="43.92053" lon="7.43655">
        <ele>1332.1</ele>
        <time>2017-08-28T11:17:39Z</time>
      </trkpt>
      <trkpt lat="43.92046" lon="7.4366">
        <ele>1328.7</ele>
        <time>2017-08-28T11:17:46Z</time>
      </trkpt>
      <trkpt lat="43.92038" lon="7.43658">
        <ele>1329</ele>
        <time>2017-08-28T11:17:52Z</time>
      </trkpt>
      <trkpt lat="43.92032" lon="7.43658">
        <ele>1328.4</ele>
        <time>2017-08-28T11:17:59Z</time>
      </trkpt>
      <trkpt lat="43.92029" lon="7.43658">
        <ele>1328.1</ele>
        <time>2017-08-28T11:18:01Z</time>
      </trkpt>
      <trkpt lat="43.92017" lon="7.4366">
        <ele>1325.4</ele>
        <time>2017-08-28T11:18:12Z</time>
      </trkpt>
      <trkpt lat="43.92013" lon="7.43662">
        <ele>1323.6</ele>
        <time>2017-08-28T11:18:15Z</time>
      </trkpt>
      <trkpt lat="43.92009" lon="7.43665">
        <ele>1321.3</ele>
        <time>2017-08-28T11:18:19Z</time>
      </trkpt>
      <trkpt lat="43.91998" lon="7.4367">
        <ele>1316.9</ele>
        <time>2017-08-28T11:18:31Z</time>
      </trkpt>
      <trkpt lat="43.91992" lon="7.43671">
        <ele>1315.7</ele>
        <time>2017-08-28T11:18:36Z</time>
      </trkpt>
      <trkpt lat="43.91978" lon="7.43676">
        <ele>1311.5</ele>
        <time>2017-08-28T11:18:47Z</time>
      </trkpt>
      <trkpt lat="43.91976" lon="7.43677">
        <ele>1310.8</ele>
        <time>2017-08-28T11:18:49Z</time>
      </trkpt>
      <trkpt lat="43.91969" lon="7.43681">
        <ele>1307.9</ele>
        <time>2017-08-28T11:18:55Z</time>
      </trkpt>
      <trkpt lat="43.91968" lon="7.43681">
        <ele>1307.7</ele>
        <time>2017-08-28T11:18:56Z</time>
      </trkpt>
      <trkpt lat="43.91963" lon="7.43683">
        <ele>1306</ele>
        <time>2017-08-28T11:19:01Z</time>
      </trkpt>
      <trkpt lat="43.91951" lon="7.43684">
        <ele>1304.1</ele>
        <time>2017-08-28T11:19:10Z</time>
      </trkpt>
      <trkpt lat="43.91943" lon="7.43685">
        <ele>1302.6</ele>
        <time>2017-08-28T11:19:15Z</time>
      </trkpt>
      <trkpt lat="43.91927" lon="7.43688">
        <ele>1298.7</ele>
        <time>2017-08-28T11:19:29Z</time>
      </trkpt>
      <trkpt lat="43.91916" lon="7.43687">
        <ele>1297.6</ele>
        <time>2017-08-28T11:19:40Z</time>
      </trkpt>
      <trkpt lat="43.91902" lon="7.43688">
        <ele>1294.7</ele>
        <time>2017-08-28T11:19:52Z</time>
      </trkpt>
      <trkpt lat="43.91898" lon="7.43687">
        <ele>1294.6</ele>
        <time>2017-08-28T11:19:55Z</time>
      </trkpt>
      <trkpt lat="43.91894" lon="7.43688">
        <ele>1293.4</ele>
        <time>2017-08-28T11:19:58Z</time>
      </trkpt>
      <trkpt lat="43.91877" lon="7.43691">
        <ele>1289.1</ele>
        <time>2017-08-28T11:20:10Z</time>
      </trkpt>
      <trkpt lat="43.91866" lon="7.43692">
        <ele>1287</ele>
        <time>2017-08-28T11:20:17Z</time>
      </trkpt>
      <trkpt lat="43.91861" lon="7.43693">
        <ele>1285.8</ele>
        <time>2017-08-28T11:20:21Z</time>
      </trkpt>
      <trkpt lat="43.91858" lon="7.43692">
        <ele>1285.9</ele>
        <time>2017-08-28T11:20:23Z</time>
      </trkpt>
      <trkpt lat="43.91847" lon="7.43694">
        <ele>1283.2</ele>
        <time>2017-08-28T11:20:32Z</time>
      </trkpt>
      <trkpt lat="43.91834" lon="7.437">
        <ele>1278.7</ele>
        <time>2017-08-28T11:20:42Z</time>
      </trkpt>
      <trkpt lat="43.91816" lon="7.43702">
        <ele>1275.1</ele>
        <time>2017-08-28T11:20:56Z</time>
      </trkpt>
      <trkpt lat="43.91803" lon="7.43703">
        <ele>1272.5</ele>
        <time>2017-08-28T11:21:07Z</time>
      </trkpt>
      <trkpt lat="43.91798" lon="7.43703">
        <ele>1271.6</ele>
        <time>2017-08-28T11:21:11Z</time>
      </trkpt>
      <trkpt lat="43.91789" lon="7.43705">
        <ele>1268.9</ele>
        <time>2017-08-28T11:21:17Z</time>
      </trkpt>
      <trkpt lat="43.91787" lon="7.43703">
        <ele>1269.5</ele>
        <time>2017-08-28T11:21:19Z</time>
      </trkpt>
      <trkpt lat="43.91785" lon="7.43701">
        <ele>1270.1</ele>
        <time>2017-08-28T11:21:22Z</time>
      </trkpt>
      <trkpt lat="43.91769" lon="7.43701">
        <ele>1266.9</ele>
        <time>2017-08-28T11:21:37Z</time>
      </trkpt>
      <trkpt lat="43.91758" lon="7.43702">
        <ele>1264.1</ele>
        <time>2017-08-28T11:21:46Z</time>
      </trkpt>
      <trkpt lat="43.91752" lon="7.43701">
        <ele>1263.3</ele>
        <time>2017-08-28T11:21:54Z</time>
      </trkpt>
      <trkpt lat="43.91749" lon="7.43701">
        <ele>1262.7</ele>
        <time>2017-08-28T11:21:56Z</time>
      </trkpt>
      <trkpt lat="43.91744" lon="7.43702">
        <ele>1261</ele>
        <time>2017-08-28T11:22:00Z</time>
      </trkpt>
      <trkpt lat="43.91741" lon="7.43702">
        <ele>1260.3</ele>
        <time>2017-08-28T11:22:02Z</time>
      </trkpt>
      <trkpt lat="43.91735" lon="7.43701">
        <ele>1259.3</ele>
        <time>2017-08-28T11:22:07Z</time>
      </trkpt>
      <trkpt lat="43.91718" lon="7.43709">
        <ele>1251.5</ele>
        <time>2017-08-28T11:22:19Z</time>
      </trkpt>
      <trkpt lat="43.91712" lon="7.43712">
        <ele>1248.5</ele>
        <time>2017-08-28T11:22:24Z</time>
      </trkpt>
      <trkpt lat="43.9171" lon="7.43712">
        <ele>1247.9</ele>
        <time>2017-08-28T11:22:26Z</time>
      </trkpt>
      <trkpt lat="43.91706" lon="7.4371">
        <ele>1247.6</ele>
        <time>2017-08-28T11:22:29Z</time>
      </trkpt>
      <trkpt lat="43.91696" lon="7.437">
        <ele>1249</ele>
        <time>2017-08-28T11:22:39Z</time>
      </trkpt>
      <trkpt lat="43.91692" lon="7.43698">
        <ele>1248.5</ele>
        <time>2017-08-28T11:22:42Z</time>
      </trkpt>
      <trkpt lat="43.91681" lon="7.43693">
        <ele>1246.3</ele>
        <time>2017-08-28T11:22:54Z</time>
      </trkpt>
      <trkpt lat="43.91679" lon="7.43692">
        <ele>1246</ele>
        <time>2017-08-28T11:22:56Z</time>
      </trkpt>
      <trkpt lat="43.91671" lon="7.43687">
        <ele>1245.2</ele>
        <time>2017-08-28T11:23:04Z</time>
      </trkpt>
      <trkpt lat="43.9167" lon="7.43685">
        <ele>1245.7</ele>
        <time>2017-08-28T11:23:06Z</time>
      </trkpt>
      <trkpt lat="43.91665" lon="7.43677">
        <ele>1247.5</ele>
        <time>2017-08-28T11:23:13Z</time>
      </trkpt>
      <trkpt lat="43.9165" lon="7.43669">
        <ele>1244.8</ele>
        <time>2017-08-28T11:23:26Z</time>
      </trkpt>
      <trkpt lat="43.9164" lon="7.43668">
        <ele>1240.9</ele>
        <time>2017-08-28T11:23:34Z</time>
      </trkpt>
      <trkpt lat="43.91635" lon="7.43666">
        <ele>1240</ele>
        <time>2017-08-28T11:23:38Z</time>
      </trkpt>
      <trkpt lat="43.91633" lon="7.43666">
        <ele>1239.4</ele>
        <time>2017-08-28T11:23:39Z</time>
      </trkpt>
      <trkpt lat="43.91626" lon="7.43663">
        <ele>1238.5</ele>
        <time>2017-08-28T11:23:45Z</time>
      </trkpt>
      <trkpt lat="43.91621" lon="7.4366">
        <ele>1238.2</ele>
        <time>2017-08-28T11:23:49Z</time>
      </trkpt>
      <trkpt lat="43.91619" lon="7.43659">
        <ele>1237.9</ele>
        <time>2017-08-28T11:23:51Z</time>
      </trkpt>
      <trkpt lat="43.91606" lon="7.43656">
        <ele>1234.9</ele>
        <time>2017-08-28T11:24:03Z</time>
      </trkpt>
      <trkpt lat="43.91601" lon="7.43654">
        <ele>1234</ele>
        <time>2017-08-28T11:24:08Z</time>
      </trkpt>
      <trkpt lat="43.91595" lon="7.43653">
        <ele>1232.4</ele>
        <time>2017-08-28T11:24:13Z</time>
      </trkpt>
      <trkpt lat="43.91593" lon="7.43652">
        <ele>1232.1</ele>
        <time>2017-08-28T11:24:15Z</time>
      </trkpt>
      <trkpt lat="43.91589" lon="7.43651">
        <ele>1231.2</ele>
        <time>2017-08-28T11:24:18Z</time>
      </trkpt>
      <trkpt lat="43.91586" lon="7.43647">
        <ele>1231.7</ele>
        <time>2017-08-28T11:24:21Z</time>
      </trkpt>
      <trkpt lat="43.91585" lon="7.43647">
        <ele>1231.4</ele>
        <time>2017-08-28T11:24:23Z</time>
      </trkpt>
      <trkpt lat="43.91577" lon="7.43646">
        <ele>1229.1</ele>
        <time>2017-08-28T11:24:28Z</time>
      </trkpt>
      <trkpt lat="43.91563" lon="7.43642">
        <ele>1226.2</ele>
        <time>2017-08-28T11:24:40Z</time>
      </trkpt>
      <trkpt lat="43.91549" lon="7.43644">
        <ele>1220.9</ele>
        <time>2017-08-28T11:24:52Z</time>
      </trkpt>
      <trkpt lat="43.91542" lon="7.43644">
        <ele>1218.6</ele>
        <time>2017-08-28T11:24:57Z</time>
      </trkpt>
      <trkpt lat="43.91536" lon="7.43643">
        <ele>1217</ele>
        <time>2017-08-28T11:25:03Z</time>
      </trkpt>
      <trkpt lat="43.91521" lon="7.43639">
        <ele>1214.2</ele>
        <time>2017-08-28T11:25:15Z</time>
      </trkpt>
      <trkpt lat="43.91514" lon="7.43638">
        <ele>1213</ele>
        <time>2017-08-28T11:25:20Z</time>
      </trkpt>
      <trkpt lat="43.9151" lon="7.43636">
        <ele>1212.9</ele>
        <time>2017-08-28T11:25:23Z</time>
      </trkpt>
      <trkpt lat="43.91496" lon="7.43635">
        <ele>1209.8</ele>
        <time>2017-08-28T11:25:33Z</time>
      </trkpt>
      <trkpt lat="43.9148" lon="7.43632">
        <ele>1207.2</ele>
        <time>2017-08-28T11:25:48Z</time>
      </trkpt>
      <trkpt lat="43.91475" lon="7.43634">
        <ele>1205</ele>
        <time>2017-08-28T11:25:52Z</time>
      </trkpt>
      <trkpt lat="43.91468" lon="7.43638">
        <ele>1201.2</ele>
        <time>2017-08-28T11:25:57Z</time>
      </trkpt>
      <trkpt lat="43.91456" lon="7.43644">
        <ele>1195.1</ele>
        <time>2017-08-28T11:26:08Z</time>
      </trkpt>
      <trkpt lat="43.91451" lon="7.43644">
        <ele>1193.7</ele>
        <time>2017-08-28T11:26:12Z</time>
      </trkpt>
      <trkpt lat="43.91441" lon="7.4364">
        <ele>1192.2</ele>
        <time>2017-08-28T11:26:20Z</time>
      </trkpt>
      <trkpt lat="43.91422" lon="7.43632">
        <ele>1188.5</ele>
        <time>2017-08-28T11:26:35Z</time>
      </trkpt>
      <trkpt lat="43.91406" lon="7.43627">
        <ele>1185.7</ele>
        <time>2017-08-28T11:26:48Z</time>
      </trkpt>
      <trkpt lat="43.91397" lon="7.43627">
        <ele>1182.9</ele>
        <time>2017-08-28T11:26:56Z</time>
      </trkpt>
      <trkpt lat="43.91396" lon="7.43626">
        <ele>1183.1</ele>
        <time>2017-08-28T11:26:57Z</time>
      </trkpt>
      <trkpt lat="43.91389" lon="7.43625">
        <ele>1181.5</ele>
        <time>2017-08-28T11:27:02Z</time>
      </trkpt>
      <trkpt lat="43.91383" lon="7.43626">
        <ele>1180</ele>
        <time>2017-08-28T11:27:09Z</time>
      </trkpt>
      <trkpt lat="43.91377" lon="7.43631">
        <ele>1176.2</ele>
        <time>2017-08-28T11:27:14Z</time>
      </trkpt>
      <trkpt lat="43.91372" lon="7.43635">
        <ele>1173.1</ele>
        <time>2017-08-28T11:27:18Z</time>
      </trkpt>
      <trkpt lat="43.9137" lon="7.43637">
        <ele>1171.7</ele>
        <time>2017-08-28T11:27:20Z</time>
      </trkpt>
      <trkpt lat="43.91362" lon="7.43638">
        <ele>1169.7</ele>
        <time>2017-08-28T11:27:25Z</time>
      </trkpt>
      <trkpt lat="43.91357" lon="7.43638">
        <ele>1169.4</ele>
        <time>2017-08-28T11:27:29Z</time>
      </trkpt>
      <trkpt lat="43.91342" lon="7.43641">
        <ele>1167.1</ele>
        <time>2017-08-28T11:27:42Z</time>
      </trkpt>
      <trkpt lat="43.91322" lon="7.43643">
        <ele>1165.7</ele>
        <time>2017-08-28T11:27:57Z</time>
      </trkpt>
      <trkpt lat="43.91308" lon="7.43645">
        <ele>1164.7</ele>
        <time>2017-08-28T11:28:06Z</time>
      </trkpt>
      <trkpt lat="43.91297" lon="7.43644">
        <ele>1165</ele>
        <time>2017-08-28T11:28:13Z</time>
      </trkpt>
      <trkpt lat="43.91289" lon="7.43647">
        <ele>1163.4</ele>
        <time>2017-08-28T11:28:20Z</time>
      </trkpt>
      <trkpt lat="43.91276" lon="7.43654">
        <ele>1159.7</ele>
        <time>2017-08-28T11:28:33Z</time>
      </trkpt>
      <trkpt lat="43.91259" lon="7.43668">
        <ele>1151.9</ele>
        <time>2017-08-28T11:28:46Z</time>
      </trkpt>
      <trkpt lat="43.91258" lon="7.43668">
        <ele>1151.9</ele>
        <time>2017-08-28T11:28:47Z</time>
      </trkpt>
      <trkpt lat="43.91252" lon="7.43671">
        <ele>1149.9</ele>
        <time>2017-08-28T11:28:51Z</time>
      </trkpt>
      <trkpt lat="43.91243" lon="7.43677">
        <ele>1145.2</ele>
        <time>2017-08-28T11:28:57Z</time>
      </trkpt>
      <trkpt lat="43.91242" lon="7.43678">
        <ele>1144.6</ele>
        <time>2017-08-28T11:28:58Z</time>
      </trkpt>
      <trkpt lat="43.91227" lon="7.43676">
        <ele>1142.1</ele>
        <time>2017-08-28T11:29:11Z</time>
      </trkpt>
      <trkpt lat="43.91224" lon="7.43676">
        <ele>1141.4</ele>
        <time>2017-08-28T11:29:14Z</time>
      </trkpt>
      <trkpt lat="43.9122" lon="7.43678">
        <ele>1139.6</ele>
        <time>2017-08-28T11:29:17Z</time>
      </trkpt>
      <trkpt lat="43.9121" lon="7.43678">
        <ele>1136.4</ele>
        <time>2017-08-28T11:29:26Z</time>
      </trkpt>
      <trkpt lat="43.91202" lon="7.43676">
        <ele>1134.4</ele>
        <time>2017-08-28T11:29:33Z</time>
      </trkpt>
      <trkpt lat="43.912" lon="7.43676">
        <ele>1133.8</ele>
        <time>2017-08-28T11:29:35Z</time>
      </trkpt>
      <trkpt lat="43.91195" lon="7.43676">
        <ele>1132.2</ele>
        <time>2017-08-28T11:29:38Z</time>
      </trkpt>
      <trkpt lat="43.91186" lon="7.43674">
        <ele>1130.2</ele>
        <time>2017-08-28T11:29:45Z</time>
      </trkpt>
      <trkpt lat="43.91176" lon="7.43669">
        <ele>1128.9</ele>
        <time>2017-08-28T11:29:56Z</time>
      </trkpt>
      <trkpt lat="43.91172" lon="7.4367">
        <ele>1127.5</ele>
        <time>2017-08-28T11:30:12Z</time>
      </trkpt>
      <trkpt lat="43.91171" lon="7.4367">
        <ele>1127.2</ele>
        <time>2017-08-28T11:30:34Z</time>
      </trkpt>
      <trkpt lat="43.9117" lon="7.43669">
        <ele>1127.2</ele>
        <time>2017-08-28T11:30:50Z</time>
      </trkpt>
      <trkpt lat="43.9117" lon="7.43669">
        <ele>1127.2</ele>
        <time>2017-08-28T11:31:16Z</time>
      </trkpt>
      <trkpt lat="43.91167" lon="7.43666">
        <ele>1127.1</ele>
        <time>2017-08-28T11:31:36Z</time>
      </trkpt>
      <trkpt lat="43.91163" lon="7.43664">
        <ele>1125.3</ele>
        <time>2017-08-28T11:31:41Z</time>
      </trkpt>
      <trkpt lat="43.91156" lon="7.43666">
        <ele>1122.3</ele>
        <time>2017-08-28T11:31:49Z</time>
      </trkpt>
      <trkpt lat="43.91152" lon="7.43665">
        <ele>1120.5</ele>
        <time>2017-08-28T11:31:53Z</time>
      </trkpt>
      <trkpt lat="43.91151" lon="7.43664">
        <ele>1120</ele>
        <time>2017-08-28T11:31:56Z</time>
      </trkpt>
      <trkpt lat="43.91151" lon="7.43662">
        <ele>1119.8</ele>
        <time>2017-08-28T11:31:58Z</time>
      </trkpt>
      <trkpt lat="43.91144" lon="7.43656">
        <ele>1115.9</ele>
        <time>2017-08-28T11:32:11Z</time>
      </trkpt>
      <trkpt lat="43.91138" lon="7.43677">
        <ele>1112.5</ele>
        <time>2017-08-28T11:32:28Z</time>
      </trkpt>
      <trkpt lat="43.91137" lon="7.43683">
        <ele>1110.9</ele>
        <time>2017-08-28T11:32:38Z</time>
      </trkpt>
      <trkpt lat="43.91129" lon="7.4368">
        <ele>1109.1</ele>
        <time>2017-08-28T11:32:46Z</time>
      </trkpt>
      <trkpt lat="43.91126" lon="7.43678">
        <ele>1108.4</ele>
        <time>2017-08-28T11:32:49Z</time>
      </trkpt>
      <trkpt lat="43.91123" lon="7.43677">
        <ele>1107.5</ele>
        <time>2017-08-28T11:32:55Z</time>
      </trkpt>
      <trkpt lat="43.91119" lon="7.43675">
        <ele>1106.4</ele>
        <time>2017-08-28T11:32:59Z</time>
      </trkpt>
      <trkpt lat="43.91117" lon="7.43678">
        <ele>1105.5</ele>
        <time>2017-08-28T11:33:03Z</time>
      </trkpt>
      <trkpt lat="43.91115" lon="7.43682">
        <ele>1104.6</ele>
        <time>2017-08-28T11:33:09Z</time>
      </trkpt>
      <trkpt lat="43.91113" lon="7.43687">
        <ele>1103.8</ele>
        <time>2017-08-28T11:33:13Z</time>
      </trkpt>
      <trkpt lat="43.91124" lon="7.43696">
        <ele>1105</ele>
        <time>2017-08-28T11:33:26Z</time>
      </trkpt>
      <trkpt lat="43.9113" lon="7.43708">
        <ele>1099.9</ele>
        <time>2017-08-28T11:33:39Z</time>
      </trkpt>
      <trkpt lat="43.91138" lon="7.43716">
        <ele>1097.2</ele>
        <time>2017-08-28T11:33:51Z</time>
      </trkpt>
      <trkpt lat="43.91138" lon="7.4372">
        <ele>1095</ele>
        <time>2017-08-28T11:33:55Z</time>
      </trkpt>
      <trkpt lat="43.91138" lon="7.43723">
        <ele>1093.5</ele>
        <time>2017-08-28T11:33:59Z</time>
      </trkpt>
      <trkpt lat="43.91138" lon="7.43723">
        <ele>1093.5</ele>
        <time>2017-08-28T11:34:17Z</time>
      </trkpt>
      <trkpt lat="43.91138" lon="7.43723">
        <ele>1093.5</ele>
        <time>2017-08-28T11:34:39Z</time>
      </trkpt>
      <trkpt lat="43.91138" lon="7.43724">
        <ele>1093.1</ele>
        <time>2017-08-28T11:35:03Z</time>
      </trkpt>
      <trkpt lat="43.91139" lon="7.43725">
        <ele>1092.8</ele>
        <time>2017-08-28T11:35:07Z</time>
      </trkpt>
      <trkpt lat="43.91144" lon="7.43725">
        <ele>1094.5</ele>
        <time>2017-08-28T11:35:11Z</time>
      </trkpt>
      <trkpt lat="43.91148" lon="7.43733">
        <ele>1092.3</ele>
        <time>2017-08-28T11:35:17Z</time>
      </trkpt>
      <trkpt lat="43.91149" lon="7.43738">
        <ele>1090.5</ele>
        <time>2017-08-28T11:35:20Z</time>
      </trkpt>
      <trkpt lat="43.91149" lon="7.43741">
        <ele>1089.2</ele>
        <time>2017-08-28T11:35:25Z</time>
      </trkpt>
      <trkpt lat="43.91144" lon="7.43741">
        <ele>1087.5</ele>
        <time>2017-08-28T11:35:30Z</time>
      </trkpt>
      <trkpt lat="43.91139" lon="7.43743">
        <ele>1085.1</ele>
        <time>2017-08-28T11:35:35Z</time>
      </trkpt>
      <trkpt lat="43.9113" lon="7.43745">
        <ele>1082.3</ele>
        <time>2017-08-28T11:35:44Z</time>
      </trkpt>
      <trkpt lat="43.91116" lon="7.43746">
        <ele>1078.9</ele>
        <time>2017-08-28T11:35:57Z</time>
      </trkpt>
      <trkpt lat="43.91109" lon="7.43746">
        <ele>1077.5</ele>
        <time>2017-08-28T11:36:03Z</time>
      </trkpt>
      <trkpt lat="43.91094" lon="7.43746">
        <ele>1075.1</ele>
        <time>2017-08-28T11:36:18Z</time>
      </trkpt>
      <trkpt lat="43.9109" lon="7.43747">
        <ele>1074</ele>
        <time>2017-08-28T11:36:22Z</time>
      </trkpt>
      <trkpt lat="43.91088" lon="7.43749">
        <ele>1073</ele>
        <time>2017-08-28T11:36:34Z</time>
      </trkpt>
      <trkpt lat="43.91084" lon="7.4375">
        <ele>1072.1</ele>
        <time>2017-08-28T11:36:37Z</time>
      </trkpt>
      <trkpt lat="43.91079" lon="7.43749">
        <ele>1071.4</ele>
        <time>2017-08-28T11:36:41Z</time>
      </trkpt>
      <trkpt lat="43.91074" lon="7.43749">
        <ele>1070.2</ele>
        <time>2017-08-28T11:36:45Z</time>
      </trkpt>
      <trkpt lat="43.91066" lon="7.43749">
        <ele>1068.4</ele>
        <time>2017-08-28T11:36:52Z</time>
      </trkpt>
      <trkpt lat="43.91063" lon="7.4375">
        <ele>1067.6</ele>
        <time>2017-08-28T11:36:55Z</time>
      </trkpt>
      <trkpt lat="43.91057" lon="7.4375">
        <ele>1066.3</ele>
        <time>2017-08-28T11:37:01Z</time>
      </trkpt>
      <trkpt lat="43.91048" lon="7.43747">
        <ele>1064</ele>
        <time>2017-08-28T11:37:11Z</time>
      </trkpt>
      <trkpt lat="43.91039" lon="7.43745">
        <ele>1061.1</ele>
        <time>2017-08-28T11:37:20Z</time>
      </trkpt>
      <trkpt lat="43.91037" lon="7.43745">
        <ele>1060.5</ele>
        <time>2017-08-28T11:37:23Z</time>
      </trkpt>
      <trkpt lat="43.91032" lon="7.43746">
        <ele>1058.9</ele>
        <time>2017-08-28T11:37:28Z</time>
      </trkpt>
      <trkpt lat="43.91021" lon="7.43745">
        <ele>1055.1</ele>
        <time>2017-08-28T11:37:40Z</time>
      </trkpt>
      <trkpt lat="43.91012" lon="7.43744">
        <ele>1051.7</ele>
        <time>2017-08-28T11:37:53Z</time>
      </trkpt>
      <trkpt lat="43.91007" lon="7.43744">
        <ele>1050</ele>
        <time>2017-08-28T11:37:59Z</time>
      </trkpt>
      <trkpt lat="43.91002" lon="7.43743">
        <ele>1048</ele>
        <time>2017-08-28T11:38:04Z</time>
      </trkpt>
      <trkpt lat="43.91002" lon="7.43743">
        <ele>1048</ele>
        <time>2017-08-28T11:38:22Z</time>
      </trkpt>
      <trkpt lat="43.90997" lon="7.43746">
        <ele>1046.6</ele>
        <time>2017-08-28T11:38:32Z</time>
      </trkpt>
      <trkpt lat="43.90985" lon="7.4375">
        <ele>1042</ele>
        <time>2017-08-28T11:38:43Z</time>
      </trkpt>
      <trkpt lat="43.90976" lon="7.43749">
        <ele>1037.5</ele>
        <time>2017-08-28T11:38:49Z</time>
      </trkpt>
      <trkpt lat="43.90973" lon="7.43755">
        <ele>1036.9</ele>
        <time>2017-08-28T11:38:54Z</time>
      </trkpt>
      <trkpt lat="43.90972" lon="7.43756">
        <ele>1036.5</ele>
        <time>2017-08-28T11:38:55Z</time>
      </trkpt>
      <trkpt lat="43.90965" lon="7.43761">
        <ele>1034.2</ele>
        <time>2017-08-28T11:39:03Z</time>
      </trkpt>
      <trkpt lat="43.90955" lon="7.43767">
        <ele>1031.4</ele>
        <time>2017-08-28T11:39:12Z</time>
      </trkpt>
      <trkpt lat="43.90939" lon="7.43778">
        <ele>1028.1</ele>
        <time>2017-08-28T11:39:27Z</time>
      </trkpt>
      <trkpt lat="43.9093" lon="7.43784">
        <ele>1023.7</ele>
        <time>2017-08-28T11:39:36Z</time>
      </trkpt>
      <trkpt lat="43.90926" lon="7.43793">
        <ele>1022.7</ele>
        <time>2017-08-28T11:39:51Z</time>
      </trkpt>
      <trkpt lat="43.90922" lon="7.43797">
        <ele>1021.5</ele>
        <time>2017-08-28T11:39:59Z</time>
      </trkpt>
      <trkpt lat="43.90917" lon="7.43804">
        <ele>1020.8</ele>
        <time>2017-08-28T11:40:06Z</time>
      </trkpt>
      <trkpt lat="43.90909" lon="7.43819">
        <ele>1017.3</ele>
        <time>2017-08-28T11:40:20Z</time>
      </trkpt>
      <trkpt lat="43.90908" lon="7.43819">
        <ele>1016.9</ele>
        <time>2017-08-28T11:40:21Z</time>
      </trkpt>
      <trkpt lat="43.90901" lon="7.43826">
        <ele>1014.4</ele>
        <time>2017-08-28T11:40:29Z</time>
      </trkpt>
      <trkpt lat="43.909" lon="7.43831">
        <ele>1014.4</ele>
        <time>2017-08-28T11:40:33Z</time>
      </trkpt>
      <trkpt lat="43.90901" lon="7.43832">
        <ele>1014.8</ele>
        <time>2017-08-28T11:40:34Z</time>
      </trkpt>
      <trkpt lat="43.90908" lon="7.43841">
        <ele>1014.7</ele>
        <time>2017-08-28T11:40:46Z</time>
      </trkpt>
      <trkpt lat="43.90908" lon="7.43846">
        <ele>1013</ele>
        <time>2017-08-28T11:41:00Z</time>
      </trkpt>
      <trkpt lat="43.90908" lon="7.43846">
        <ele>1013</ele>
        <time>2017-08-28T11:41:20Z</time>
      </trkpt>
      <trkpt lat="43.90908" lon="7.43847">
        <ele>1012.7</ele>
        <time>2017-08-28T11:41:40Z</time>
      </trkpt>
      <trkpt lat="43.90908" lon="7.43847">
        <ele>1012.7</ele>
        <time>2017-08-28T11:42:05Z</time>
      </trkpt>
      <trkpt lat="43.90908" lon="7.43846">
        <ele>1013</ele>
        <time>2017-08-28T11:42:37Z</time>
      </trkpt>
      <trkpt lat="43.90908" lon="7.43846">
        <ele>1013</ele>
        <time>2017-08-28T11:43:01Z</time>
      </trkpt>
      <trkpt lat="43.90903" lon="7.43848">
        <ele>1011.3</ele>
        <time>2017-08-28T11:43:15Z</time>
      </trkpt>
      <trkpt lat="43.90897" lon="7.43852">
        <ele>1009.1</ele>
        <time>2017-08-28T11:43:21Z</time>
      </trkpt>
      <trkpt lat="43.90886" lon="7.43856">
        <ele>1006.2</ele>
        <time>2017-08-28T11:43:32Z</time>
      </trkpt>
      <trkpt lat="43.90875" lon="7.43865">
        <ele>1002</ele>
        <time>2017-08-28T11:43:44Z</time>
      </trkpt>
      <trkpt lat="43.9087" lon="7.43867">
        <ele>1000.4</ele>
        <time>2017-08-28T11:43:49Z</time>
      </trkpt>
      <trkpt lat="43.90862" lon="7.43868">
        <ele>998.9</ele>
        <time>2017-08-28T11:43:57Z</time>
      </trkpt>
      <trkpt lat="43.90853" lon="7.43869">
        <ele>996.3</ele>
        <time>2017-08-28T11:44:04Z</time>
      </trkpt>
      <trkpt lat="43.90847" lon="7.43873">
        <ele>993.9</ele>
        <time>2017-08-28T11:44:11Z</time>
      </trkpt>
      <trkpt lat="43.90841" lon="7.43879">
        <ele>991.5</ele>
        <time>2017-08-28T11:44:17Z</time>
      </trkpt>
      <trkpt lat="43.90835" lon="7.4388">
        <ele>990.3</ele>
        <time>2017-08-28T11:44:22Z</time>
      </trkpt>
      <trkpt lat="43.90834" lon="7.43881">
        <ele>990</ele>
        <time>2017-08-28T11:44:23Z</time>
      </trkpt>
      <trkpt lat="43.90831" lon="7.43882">
        <ele>989.3</ele>
        <time>2017-08-28T11:44:26Z</time>
      </trkpt>
      <trkpt lat="43.90822" lon="7.43886">
        <ele>987.2</ele>
        <time>2017-08-28T11:44:34Z</time>
      </trkpt>
      <trkpt lat="43.90812" lon="7.43886">
        <ele>985.3</ele>
        <time>2017-08-28T11:44:42Z</time>
      </trkpt>
      <trkpt lat="43.90802" lon="7.43886">
        <ele>983.7</ele>
        <time>2017-08-28T11:44:51Z</time>
      </trkpt>
      <trkpt lat="43.90794" lon="7.43877">
        <ele>983</ele>
        <time>2017-08-28T11:45:05Z</time>
      </trkpt>
      <trkpt lat="43.90782" lon="7.43876">
        <ele>981.5</ele>
        <time>2017-08-28T11:45:20Z</time>
      </trkpt>
      <trkpt lat="43.9078" lon="7.43875">
        <ele>981.3</ele>
        <time>2017-08-28T11:45:22Z</time>
      </trkpt>
      <trkpt lat="43.90767" lon="7.43869">
        <ele>979.1</ele>
        <time>2017-08-28T11:45:34Z</time>
      </trkpt>
      <trkpt lat="43.90766" lon="7.43864">
        <ele>978.9</ele>
        <time>2017-08-28T11:45:38Z</time>
      </trkpt>
      <trkpt lat="43.90761" lon="7.43862">
        <ele>978</ele>
        <time>2017-08-28T11:45:42Z</time>
      </trkpt>
      <trkpt lat="43.90752" lon="7.43864">
        <ele>976.4</ele>
        <time>2017-08-28T11:45:49Z</time>
      </trkpt>
      <trkpt lat="43.90749" lon="7.43867">
        <ele>975.8</ele>
        <time>2017-08-28T11:45:52Z</time>
      </trkpt>
      <trkpt lat="43.90744" lon="7.43868">
        <ele>974.9</ele>
        <time>2017-08-28T11:45:57Z</time>
      </trkpt>
      <trkpt lat="43.90732" lon="7.43868">
        <ele>972.8</ele>
        <time>2017-08-28T11:46:06Z</time>
      </trkpt>
      <trkpt lat="43.9072" lon="7.43869">
        <ele>970.7</ele>
        <time>2017-08-28T11:46:16Z</time>
      </trkpt>
      <trkpt lat="43.90716" lon="7.43872">
        <ele>970.1</ele>
        <time>2017-08-28T11:46:20Z</time>
      </trkpt>
      <trkpt lat="43.90702" lon="7.43874">
        <ele>968.4</ele>
        <time>2017-08-28T11:46:31Z</time>
      </trkpt>
      <trkpt lat="43.90692" lon="7.43878">
        <ele>967.7</ele>
        <time>2017-08-28T11:46:39Z</time>
      </trkpt>
      <trkpt lat="43.90683" lon="7.43882">
        <ele>967.6</ele>
        <time>2017-08-28T11:46:48Z</time>
      </trkpt>
      <trkpt lat="43.90674" lon="7.4388">
        <ele>966.8</ele>
        <time>2017-08-28T11:46:56Z</time>
      </trkpt>
      <trkpt lat="43.9066" lon="7.43888">
        <ele>966.9</ele>
        <time>2017-08-28T11:47:09Z</time>
      </trkpt>
      <trkpt lat="43.90649" lon="7.43891">
        <ele>964.9</ele>
        <time>2017-08-28T11:47:22Z</time>
      </trkpt>
      <trkpt lat="43.90649" lon="7.43891">
        <ele>964.9</ele>
        <time>2017-08-28T11:47:56Z</time>
      </trkpt>
      <trkpt lat="43.90649" lon="7.43892">
        <ele>964.6</ele>
        <time>2017-08-28T11:48:15Z</time>
      </trkpt>
      <trkpt lat="43.90649" lon="7.43892">
        <ele>964.6</ele>
        <time>2017-08-28T11:48:52Z</time>
      </trkpt>
      <trkpt lat="43.9065" lon="7.43893">
        <ele>964.4</ele>
        <time>2017-08-28T11:49:26Z</time>
      </trkpt>
      <trkpt lat="43.9065" lon="7.43893">
        <ele>964.4</ele>
        <time>2017-08-28T11:49:45Z</time>
      </trkpt>
      <trkpt lat="43.9065" lon="7.43893">
        <ele>964.4</ele>
        <time>2017-08-28T11:50:11Z</time>
      </trkpt>
      <trkpt lat="43.90641" lon="7.43895">
        <ele>963.1</ele>
        <time>2017-08-28T11:50:27Z</time>
      </trkpt>
      <trkpt lat="43.90631" lon="7.43892">
        <ele>961.3</ele>
        <time>2017-08-28T11:50:35Z</time>
      </trkpt>
      <trkpt lat="43.90627" lon="7.4389">
        <ele>960.5</ele>
        <time>2017-08-28T11:50:38Z</time>
      </trkpt>
      <trkpt lat="43.90611" lon="7.43901">
        <ele>956</ele>
        <time>2017-08-28T11:50:53Z</time>
      </trkpt>
      <trkpt lat="43.90608" lon="7.43918">
        <ele>954.6</ele>
        <time>2017-08-28T11:51:05Z</time>
      </trkpt>
      <trkpt lat="43.90601" lon="7.43922">
        <ele>951.3</ele>
        <time>2017-08-28T11:51:14Z</time>
      </trkpt>
      <trkpt lat="43.90598" lon="7.43927">
        <ele>949.4</ele>
        <time>2017-08-28T11:51:18Z</time>
      </trkpt>
      <trkpt lat="43.90595" lon="7.43929">
        <ele>948.1</ele>
        <time>2017-08-28T11:51:20Z</time>
      </trkpt>
      <trkpt lat="43.90593" lon="7.43942">
        <ele>945.5</ele>
        <time>2017-08-28T11:51:28Z</time>
      </trkpt>
      <trkpt lat="43.90594" lon="7.4395">
        <ele>943.7</ele>
        <time>2017-08-28T11:51:37Z</time>
      </trkpt>
      <trkpt lat="43.90595" lon="7.43961">
        <ele>940.7</ele>
        <time>2017-08-28T11:51:46Z</time>
      </trkpt>
      <trkpt lat="43.90594" lon="7.43964">
        <ele>939.7</ele>
        <time>2017-08-28T11:51:49Z</time>
      </trkpt>
      <trkpt lat="43.90593" lon="7.43968">
        <ele>938.5</ele>
        <time>2017-08-28T11:51:56Z</time>
      </trkpt>
      <trkpt lat="43.9059" lon="7.43973">
        <ele>937</ele>
        <time>2017-08-28T11:52:02Z</time>
      </trkpt>
      <trkpt lat="43.90575" lon="7.43986">
        <ele>931.1</ele>
        <time>2017-08-28T11:52:15Z</time>
      </trkpt>
      <trkpt lat="43.90571" lon="7.43988">
        <ele>929.7</ele>
        <time>2017-08-28T11:52:19Z</time>
      </trkpt>
      <trkpt lat="43.90561" lon="7.43993">
        <ele>926.8</ele>
        <time>2017-08-28T11:52:29Z</time>
      </trkpt>
      <trkpt lat="43.9056" lon="7.44">
        <ele>925.6</ele>
        <time>2017-08-28T11:52:34Z</time>
      </trkpt>
      <trkpt lat="43.90549" lon="7.44015">
        <ele>920.4</ele>
        <time>2017-08-28T11:52:47Z</time>
      </trkpt>
      <trkpt lat="43.90541" lon="7.4403">
        <ele>916.6</ele>
        <time>2017-08-28T11:52:59Z</time>
      </trkpt>
      <trkpt lat="43.90532" lon="7.44046">
        <ele>914.2</ele>
        <time>2017-08-28T11:53:11Z</time>
      </trkpt>
      <trkpt lat="43.90527" lon="7.44063">
        <ele>912.7</ele>
        <time>2017-08-28T11:53:23Z</time>
      </trkpt>
      <trkpt lat="43.90527" lon="7.44072">
        <ele>911.4</ele>
        <time>2017-08-28T11:53:28Z</time>
      </trkpt>
      <trkpt lat="43.90525" lon="7.44078">
        <ele>910.1</ele>
        <time>2017-08-28T11:53:32Z</time>
      </trkpt>
      <trkpt lat="43.90518" lon="7.44089">
        <ele>906.5</ele>
        <time>2017-08-28T11:53:45Z</time>
      </trkpt>
      <trkpt lat="43.90514" lon="7.44095">
        <ele>904.5</ele>
        <time>2017-08-28T11:53:50Z</time>
      </trkpt>
      <trkpt lat="43.90511" lon="7.441">
        <ele>903</ele>
        <time>2017-08-28T11:53:56Z</time>
      </trkpt>
      <trkpt lat="43.90508" lon="7.44106">
        <ele>901.5</ele>
        <time>2017-08-28T11:54:02Z</time>
      </trkpt>
      <trkpt lat="43.90504" lon="7.4411">
        <ele>900.5</ele>
        <time>2017-08-28T11:54:06Z</time>
      </trkpt>
      <trkpt lat="43.90502" lon="7.44118">
        <ele>898.1</ele>
        <time>2017-08-28T11:54:12Z</time>
      </trkpt>
      <trkpt lat="43.90498" lon="7.44118">
        <ele>897.2</ele>
        <time>2017-08-28T11:54:17Z</time>
      </trkpt>
      <trkpt lat="43.90496" lon="7.44117">
        <ele>896.6</ele>
        <time>2017-08-28T11:54:19Z</time>
      </trkpt>
      <trkpt lat="43.9049" lon="7.44124">
        <ele>892.6</ele>
        <time>2017-08-28T11:54:26Z</time>
      </trkpt>
      <trkpt lat="43.90493" lon="7.44138">
        <ele>890.4</ele>
        <time>2017-08-28T11:54:35Z</time>
      </trkpt>
      <trkpt lat="43.90489" lon="7.44162">
        <ele>887.5</ele>
        <time>2017-08-28T11:54:50Z</time>
      </trkpt>
      <trkpt lat="43.90473" lon="7.44176">
        <ele>889.9</ele>
        <time>2017-08-28T11:55:06Z</time>
      </trkpt>
      <trkpt lat="43.90465" lon="7.44186">
        <ele>890.5</ele>
        <time>2017-08-28T11:55:19Z</time>
      </trkpt>
      <trkpt lat="43.90445" lon="7.44185">
        <ele>888.7</ele>
        <time>2017-08-28T11:55:34Z</time>
      </trkpt>
      <trkpt lat="43.90428" lon="7.44189">
        <ele>888</ele>
        <time>2017-08-28T11:55:48Z</time>
      </trkpt>
      <trkpt lat="43.90416" lon="7.44191">
        <ele>887.5</ele>
        <time>2017-08-28T11:55:58Z</time>
      </trkpt>
      <trkpt lat="43.90407" lon="7.4419">
        <ele>886.8</ele>
        <time>2017-08-28T11:56:06Z</time>
      </trkpt>
      <trkpt lat="43.90389" lon="7.44189">
        <ele>885.6</ele>
        <time>2017-08-28T11:56:20Z</time>
      </trkpt>
      <trkpt lat="43.90369" lon="7.44182">
        <ele>883.9</ele>
        <time>2017-08-28T11:56:36Z</time>
      </trkpt>
      <trkpt lat="43.90367" lon="7.44182">
        <ele>883.8</ele>
        <time>2017-08-28T11:56:38Z</time>
      </trkpt>
      <trkpt lat="43.90346" lon="7.44179">
        <ele>882.3</ele>
        <time>2017-08-28T11:56:55Z</time>
      </trkpt>
      <trkpt lat="43.90333" lon="7.4417">
        <ele>882.5</ele>
        <time>2017-08-28T11:57:08Z</time>
      </trkpt>
      <trkpt lat="43.90313" lon="7.44161">
        <ele>880.4</ele>
        <time>2017-08-28T11:57:23Z</time>
      </trkpt>
      <trkpt lat="43.90294" lon="7.44149">
        <ele>878.1</ele>
        <time>2017-08-28T11:57:40Z</time>
      </trkpt>
      <trkpt lat="43.90285" lon="7.44147">
        <ele>877.2</ele>
        <time>2017-08-28T11:57:46Z</time>
      </trkpt>
      <trkpt lat="43.90265" lon="7.44145">
        <ele>874.6</ele>
        <time>2017-08-28T11:58:00Z</time>
      </trkpt>
      <trkpt lat="43.90248" lon="7.44149">
        <ele>871.6</ele>
        <time>2017-08-28T11:58:13Z</time>
      </trkpt>
      <trkpt lat="43.90236" lon="7.44152">
        <ele>869.5</ele>
        <time>2017-08-28T11:58:22Z</time>
      </trkpt>
      <trkpt lat="43.90232" lon="7.44153">
        <ele>868.9</ele>
        <time>2017-08-28T11:58:25Z</time>
      </trkpt>
      <trkpt lat="43.90226" lon="7.44155">
        <ele>867.9</ele>
        <time>2017-08-28T11:58:30Z</time>
      </trkpt>
      <trkpt lat="43.90221" lon="7.44157">
        <ele>867.2</ele>
        <time>2017-08-28T11:58:34Z</time>
      </trkpt>
      <trkpt lat="43.90216" lon="7.44157">
        <ele>866.4</ele>
        <time>2017-08-28T11:58:38Z</time>
      </trkpt>
      <trkpt lat="43.90207" lon="7.44159">
        <ele>865</ele>
        <time>2017-08-28T11:58:45Z</time>
      </trkpt>
      <trkpt lat="43.90191" lon="7.44167">
        <ele>863.6</ele>
        <time>2017-08-28T11:58:57Z</time>
      </trkpt>
      <trkpt lat="43.90169" lon="7.44176">
        <ele>860.5</ele>
        <time>2017-08-28T11:59:12Z</time>
      </trkpt>
      <trkpt lat="43.90145" lon="7.4418">
        <ele>857.6</ele>
        <time>2017-08-28T11:59:29Z</time>
      </trkpt>
      <trkpt lat="43.90129" lon="7.44185">
        <ele>856</ele>
        <time>2017-08-28T11:59:41Z</time>
      </trkpt>
      <trkpt lat="43.90114" lon="7.4419">
        <ele>854.7</ele>
        <time>2017-08-28T11:59:53Z</time>
      </trkpt>
      <trkpt lat="43.90105" lon="7.44197">
        <ele>852.9</ele>
        <time>2017-08-28T12:00:02Z</time>
      </trkpt>
      <trkpt lat="43.90102" lon="7.44205">
        <ele>851.1</ele>
        <time>2017-08-28T12:00:07Z</time>
      </trkpt>
      <trkpt lat="43.90099" lon="7.44208">
        <ele>850.1</ele>
        <time>2017-08-28T12:00:10Z</time>
      </trkpt>
      <trkpt lat="43.90095" lon="7.44213">
        <ele>849</ele>
        <time>2017-08-28T12:00:15Z</time>
      </trkpt>
      <trkpt lat="43.90077" lon="7.44219">
        <ele>845.1</ele>
        <time>2017-08-28T12:00:29Z</time>
      </trkpt>
      <trkpt lat="43.90069" lon="7.4423">
        <ele>842.2</ele>
        <time>2017-08-28T12:00:39Z</time>
      </trkpt>
      <trkpt lat="43.90062" lon="7.44239">
        <ele>840.2</ele>
        <time>2017-08-28T12:00:47Z</time>
      </trkpt>
      <trkpt lat="43.90048" lon="7.44241">
        <ele>836.2</ele>
        <time>2017-08-28T12:00:58Z</time>
      </trkpt>
      <trkpt lat="43.90044" lon="7.44248">
        <ele>835.1</ele>
        <time>2017-08-28T12:01:05Z</time>
      </trkpt>
      <trkpt lat="43.90046" lon="7.44252">
        <ele>835.5</ele>
        <time>2017-08-28T12:01:08Z</time>
      </trkpt>
      <trkpt lat="43.90039" lon="7.44263">
        <ele>832</ele>
        <time>2017-08-28T12:01:21Z</time>
      </trkpt>
      <trkpt lat="43.90038" lon="7.44266">
        <ele>831.5</ele>
        <time>2017-08-28T12:01:23Z</time>
      </trkpt>
      <trkpt lat="43.90035" lon="7.4427">
        <ele>830.5</ele>
        <time>2017-08-28T12:01:29Z</time>
      </trkpt>
      <trkpt lat="43.90027" lon="7.44276">
        <ele>828.9</ele>
        <time>2017-08-28T12:01:40Z</time>
      </trkpt>
      <trkpt lat="43.90021" lon="7.44276">
        <ele>827.8</ele>
        <time>2017-08-28T12:01:48Z</time>
      </trkpt>
      <trkpt lat="43.90015" lon="7.44275">
        <ele>826.6</ele>
        <time>2017-08-28T12:01:54Z</time>
      </trkpt>
      <trkpt lat="43.90005" lon="7.44281">
        <ele>824.2</ele>
        <time>2017-08-28T12:02:07Z</time>
      </trkpt>
      <trkpt lat="43.89991" lon="7.44288">
        <ele>820</ele>
        <time>2017-08-28T12:02:20Z</time>
      </trkpt>
      <trkpt lat="43.89977" lon="7.44294">
        <ele>816.6</ele>
        <time>2017-08-28T12:02:33Z</time>
      </trkpt>
      <trkpt lat="43.8996" lon="7.4429">
        <ele>813.2</ele>
        <time>2017-08-28T12:02:49Z</time>
      </trkpt>
      <trkpt lat="43.89958" lon="7.44286">
        <ele>813</ele>
        <time>2017-08-28T12:02:53Z</time>
      </trkpt>
      <trkpt lat="43.89958" lon="7.44282">
        <ele>813.2</ele>
        <time>2017-08-28T12:02:56Z</time>
      </trkpt>
      <trkpt lat="43.89963" lon="7.44274">
        <ele>813.7</ele>
        <time>2017-08-28T12:03:08Z</time>
      </trkpt>
      <trkpt lat="43.89959" lon="7.44275">
        <ele>812.9</ele>
        <time>2017-08-28T12:03:12Z</time>
      </trkpt>
      <trkpt lat="43.89945" lon="7.44275">
        <ele>809.3</ele>
        <time>2017-08-28T12:03:25Z</time>
      </trkpt>
      <trkpt lat="43.89944" lon="7.44276">
        <ele>809.4</ele>
        <time>2017-08-28T12:03:26Z</time>
      </trkpt>
      <trkpt lat="43.89941" lon="7.44277">
        <ele>808.9</ele>
        <time>2017-08-28T12:03:29Z</time>
      </trkpt>
      <trkpt lat="43.89929" lon="7.44281">
        <ele>806</ele>
        <time>2017-08-28T12:03:42Z</time>
      </trkpt>
      <trkpt lat="43.89922" lon="7.44288">
        <ele>804</ele>
        <time>2017-08-28T12:03:54Z</time>
      </trkpt>
      <trkpt lat="43.89916" lon="7.44293">
        <ele>802.3</ele>
        <time>2017-08-28T12:04:00Z</time>
      </trkpt>
      <trkpt lat="43.89904" lon="7.44289">
        <ele>799.3</ele>
        <time>2017-08-28T12:04:12Z</time>
      </trkpt>
      <trkpt lat="43.89895" lon="7.44285">
        <ele>796.9</ele>
        <time>2017-08-28T12:04:20Z</time>
      </trkpt>
      <trkpt lat="43.89884" lon="7.44282">
        <ele>794</ele>
        <time>2017-08-28T12:04:34Z</time>
      </trkpt>
      <trkpt lat="43.89875" lon="7.44281">
        <ele>791.7</ele>
        <time>2017-08-28T12:04:41Z</time>
      </trkpt>
      <trkpt lat="43.89873" lon="7.44288">
        <ele>791.8</ele>
        <time>2017-08-28T12:04:53Z</time>
      </trkpt>
      <trkpt lat="43.89874" lon="7.44292">
        <ele>792.3</ele>
        <time>2017-08-28T12:04:56Z</time>
      </trkpt>
      <trkpt lat="43.8988" lon="7.443">
        <ele>794.1</ele>
        <time>2017-08-28T12:05:04Z</time>
      </trkpt>
      <trkpt lat="43.89892" lon="7.44322">
        <ele>791.9</ele>
        <time>2017-08-28T12:05:19Z</time>
      </trkpt>
      <trkpt lat="43.89888" lon="7.44327">
        <ele>789.7</ele>
        <time>2017-08-28T12:05:26Z</time>
      </trkpt>
      <trkpt lat="43.89877" lon="7.44327">
        <ele>788.3</ele>
        <time>2017-08-28T12:05:38Z</time>
      </trkpt>
      <trkpt lat="43.89861" lon="7.44322">
        <ele>787.4</ele>
        <time>2017-08-28T12:05:51Z</time>
      </trkpt>
      <trkpt lat="43.8986" lon="7.44322">
        <ele>787.2</ele>
        <time>2017-08-28T12:05:52Z</time>
      </trkpt>
      <trkpt lat="43.89854" lon="7.44324">
        <ele>785.6</ele>
        <time>2017-08-28T12:05:57Z</time>
      </trkpt>
      <trkpt lat="43.89851" lon="7.44323">
        <ele>785.1</ele>
        <time>2017-08-28T12:05:59Z</time>
      </trkpt>
      <trkpt lat="43.89846" lon="7.4432">
        <ele>784.6</ele>
        <time>2017-08-28T12:06:03Z</time>
      </trkpt>
      <trkpt lat="43.89831" lon="7.44321">
        <ele>780.9</ele>
        <time>2017-08-28T12:06:16Z</time>
      </trkpt>
      <trkpt lat="43.8982" lon="7.44326">
        <ele>776.5</ele>
        <time>2017-08-28T12:06:26Z</time>
      </trkpt>
      <trkpt lat="43.89809" lon="7.44329">
        <ele>772.5</ele>
        <time>2017-08-28T12:06:38Z</time>
      </trkpt>
      <trkpt lat="43.89803" lon="7.44328">
        <ele>770</ele>
        <time>2017-08-28T12:06:46Z</time>
      </trkpt>
      <trkpt lat="43.89797" lon="7.44328">
        <ele>766.8</ele>
        <time>2017-08-28T12:06:53Z</time>
      </trkpt>
      <trkpt lat="43.89795" lon="7.4432">
        <ele>766.4</ele>
        <time>2017-08-28T12:07:00Z</time>
      </trkpt>
      <trkpt lat="43.89794" lon="7.44314">
        <ele>766.4</ele>
        <time>2017-08-28T12:07:04Z</time>
      </trkpt>
      <trkpt lat="43.8979" lon="7.44312">
        <ele>764.6</ele>
        <time>2017-08-28T12:07:08Z</time>
      </trkpt>
      <trkpt lat="43.89787" lon="7.44316">
        <ele>762.6</ele>
        <time>2017-08-28T12:07:13Z</time>
      </trkpt>
      <trkpt lat="43.89787" lon="7.44335">
        <ele>760.8</ele>
        <time>2017-08-28T12:07:26Z</time>
      </trkpt>
      <trkpt lat="43.89785" lon="7.44352">
        <ele>758.2</ele>
        <time>2017-08-28T12:07:38Z</time>
      </trkpt>
      <trkpt lat="43.89784" lon="7.44369">
        <ele>756.2</ele>
        <time>2017-08-28T12:07:50Z</time>
      </trkpt>
      <trkpt lat="43.89782" lon="7.44381">
        <ele>754.2</ele>
        <time>2017-08-28T12:07:58Z</time>
      </trkpt>
      <trkpt lat="43.89778" lon="7.4439">
        <ele>752</ele>
        <time>2017-08-28T12:08:05Z</time>
      </trkpt>
      <trkpt lat="43.89777" lon="7.4441">
        <ele>749.4</ele>
        <time>2017-08-28T12:08:18Z</time>
      </trkpt>
      <trkpt lat="43.89777" lon="7.44412">
        <ele>749.2</ele>
        <time>2017-08-28T12:08:20Z</time>
      </trkpt>
      <trkpt lat="43.89773" lon="7.4442">
        <ele>747.2</ele>
        <time>2017-08-28T12:08:28Z</time>
      </trkpt>
      <trkpt lat="43.89768" lon="7.44432">
        <ele>745.9</ele>
        <time>2017-08-28T12:08:40Z</time>
      </trkpt>
      <trkpt lat="43.89765" lon="7.44437">
        <ele>745.6</ele>
        <time>2017-08-28T12:08:47Z</time>
      </trkpt>
      <trkpt lat="43.89757" lon="7.44439">
        <ele>744.7</ele>
        <time>2017-08-28T12:09:03Z</time>
      </trkpt>
      <trkpt lat="43.8975" lon="7.44442">
        <ele>744.5</ele>
        <time>2017-08-28T12:09:09Z</time>
      </trkpt>
      <trkpt lat="43.89747" lon="7.44441">
        <ele>743.4</ele>
        <time>2017-08-28T12:09:11Z</time>
      </trkpt>
      <trkpt lat="43.89737" lon="7.44442">
        <ele>741</ele>
        <time>2017-08-28T12:09:19Z</time>
      </trkpt>
      <trkpt lat="43.89733" lon="7.44445">
        <ele>740.9</ele>
        <time>2017-08-28T12:09:23Z</time>
      </trkpt>
      <trkpt lat="43.89729" lon="7.44448">
        <ele>741.1</ele>
        <time>2017-08-28T12:09:26Z</time>
      </trkpt>
      <trkpt lat="43.8971" lon="7.44459">
        <ele>739</ele>
        <time>2017-08-28T12:09:42Z</time>
      </trkpt>
      <trkpt lat="43.897" lon="7.44466">
        <ele>738.2</ele>
        <time>2017-08-28T12:09:52Z</time>
      </trkpt>
      <trkpt lat="43.89684" lon="7.4448">
        <ele>736.4</ele>
        <time>2017-08-28T12:10:06Z</time>
      </trkpt>
      <trkpt lat="43.89672" lon="7.4449">
        <ele>734.3</ele>
        <time>2017-08-28T12:10:17Z</time>
      </trkpt>
      <trkpt lat="43.89666" lon="7.44497">
        <ele>734.2</ele>
        <time>2017-08-28T12:10:23Z</time>
      </trkpt>
      <trkpt lat="43.89652" lon="7.44515">
        <ele>731.9</ele>
        <time>2017-08-28T12:10:38Z</time>
      </trkpt>
      <trkpt lat="43.89644" lon="7.44524">
        <ele>730</ele>
        <time>2017-08-28T12:10:46Z</time>
      </trkpt>
      <trkpt lat="43.89631" lon="7.44542">
        <ele>726.3</ele>
        <time>2017-08-28T12:11:00Z</time>
      </trkpt>
      <trkpt lat="43.89628" lon="7.44548">
        <ele>725.7</ele>
        <time>2017-08-28T12:11:04Z</time>
      </trkpt>
      <trkpt lat="43.89617" lon="7.44568">
        <ele>722.9</ele>
        <time>2017-08-28T12:11:18Z</time>
      </trkpt>
      <trkpt lat="43.89608" lon="7.44586">
        <ele>721.8</ele>
        <time>2017-08-28T12:11:30Z</time>
      </trkpt>
      <trkpt lat="43.89596" lon="7.44602">
        <ele>719.8</ele>
        <time>2017-08-28T12:11:44Z</time>
      </trkpt>
      <trkpt lat="43.89592" lon="7.44607">
        <ele>719.4</ele>
        <time>2017-08-28T12:11:48Z</time>
      </trkpt>
      <trkpt lat="43.8959" lon="7.44603">
        <ele>716.5</ele>
        <time>2017-08-28T12:11:52Z</time>
      </trkpt>
      <trkpt lat="43.89594" lon="7.44595">
        <ele>715.9</ele>
        <time>2017-08-28T12:11:59Z</time>
      </trkpt>
      <trkpt lat="43.896" lon="7.44584">
        <ele>715.6</ele>
        <time>2017-08-28T12:12:07Z</time>
      </trkpt>
      <trkpt lat="43.896" lon="7.44581">
        <ele>714.8</ele>
        <time>2017-08-28T12:12:09Z</time>
      </trkpt>
      <trkpt lat="43.89605" lon="7.44574">
        <ele>716.2</ele>
        <time>2017-08-28T12:12:14Z</time>
      </trkpt>
      <trkpt lat="43.8961" lon="7.44558">
        <ele>715</ele>
        <time>2017-08-28T12:12:23Z</time>
      </trkpt>
      <trkpt lat="43.89611" lon="7.44556">
        <ele>715.1</ele>
        <time>2017-08-28T12:12:25Z</time>
      </trkpt>
      <trkpt lat="43.89613" lon="7.44548">
        <ele>714.5</ele>
        <time>2017-08-28T12:12:29Z</time>
      </trkpt>
      <trkpt lat="43.89617" lon="7.44524">
        <ele>711.2</ele>
        <time>2017-08-28T12:12:44Z</time>
      </trkpt>
      <trkpt lat="43.89617" lon="7.44523">
        <ele>710.9</ele>
        <time>2017-08-28T12:12:45Z</time>
      </trkpt>
      <trkpt lat="43.89622" lon="7.44516">
        <ele>712.4</ele>
        <time>2017-08-28T12:12:50Z</time>
      </trkpt>
      <trkpt lat="43.89624" lon="7.44508">
        <ele>711.3</ele>
        <time>2017-08-28T12:12:55Z</time>
      </trkpt>
      <trkpt lat="43.89622" lon="7.44506">
        <ele>709.4</ele>
        <time>2017-08-28T12:12:57Z</time>
      </trkpt>
      <trkpt lat="43.8961" lon="7.44517">
        <ele>704.6</ele>
        <time>2017-08-28T12:13:09Z</time>
      </trkpt>
      <trkpt lat="43.89599" lon="7.44534">
        <ele>701.7</ele>
        <time>2017-08-28T12:13:24Z</time>
      </trkpt>
      <trkpt lat="43.89597" lon="7.44538">
        <ele>701.4</ele>
        <time>2017-08-28T12:13:27Z</time>
      </trkpt>
      <trkpt lat="43.89593" lon="7.44547">
        <ele>701.1</ele>
        <time>2017-08-28T12:13:33Z</time>
      </trkpt>
      <trkpt lat="43.89591" lon="7.44551">
        <ele>700.8</ele>
        <time>2017-08-28T12:13:36Z</time>
      </trkpt>
      <trkpt lat="43.89583" lon="7.44571">
        <ele>700.7</ele>
        <time>2017-08-28T12:13:49Z</time>
      </trkpt>
      <trkpt lat="43.89573" lon="7.44585">
        <ele>699.9</ele>
        <time>2017-08-28T12:13:59Z</time>
      </trkpt>
      <trkpt lat="43.89569" lon="7.44589">
        <ele>699.8</ele>
        <time>2017-08-28T12:14:03Z</time>
      </trkpt>
      <trkpt lat="43.89568" lon="7.44596">
        <ele>702.5</ele>
        <time>2017-08-28T12:14:07Z</time>
      </trkpt>
      <trkpt lat="43.89566" lon="7.446">
        <ele>703.5</ele>
        <time>2017-08-28T12:14:10Z</time>
      </trkpt>
      <trkpt lat="43.89564" lon="7.44602">
        <ele>703.5</ele>
        <time>2017-08-28T12:14:12Z</time>
      </trkpt>
      <trkpt lat="43.89561" lon="7.44603">
        <ele>702.6</ele>
        <time>2017-08-28T12:14:15Z</time>
      </trkpt>
      <trkpt lat="43.89542" lon="7.446">
        <ele>695.7</ele>
        <time>2017-08-28T12:14:29Z</time>
      </trkpt>
      <trkpt lat="43.89527" lon="7.44589">
        <ele>686.6</ele>
        <time>2017-08-28T12:14:41Z</time>
      </trkpt>
      <trkpt lat="43.89521" lon="7.44593">
        <ele>687</ele>
        <time>2017-08-28T12:14:47Z</time>
      </trkpt>
      <trkpt lat="43.89515" lon="7.44595">
        <ele>686.3</ele>
        <time>2017-08-28T12:14:51Z</time>
      </trkpt>
      <trkpt lat="43.89508" lon="7.44602">
        <ele>687.5</ele>
        <time>2017-08-28T12:14:58Z</time>
      </trkpt>
      <trkpt lat="43.89489" lon="7.44606">
        <ele>681.9</ele>
        <time>2017-08-28T12:15:14Z</time>
      </trkpt>
      <trkpt lat="43.89486" lon="7.44606">
        <ele>680.5</ele>
        <time>2017-08-28T12:15:16Z</time>
      </trkpt>
      <trkpt lat="43.8948" lon="7.44609">
        <ele>678.9</ele>
        <time>2017-08-28T12:15:21Z</time>
      </trkpt>
      <trkpt lat="43.89475" lon="7.44615">
        <ele>678.5</ele>
        <time>2017-08-28T12:15:27Z</time>
      </trkpt>
      <trkpt lat="43.89465" lon="7.44635">
        <ele>677.8</ele>
        <time>2017-08-28T12:15:41Z</time>
      </trkpt>
      <trkpt lat="43.89461" lon="7.44646">
        <ele>677.5</ele>
        <time>2017-08-28T12:15:49Z</time>
      </trkpt>
      <trkpt lat="43.89451" lon="7.4467">
        <ele>675.4</ele>
        <time>2017-08-28T12:16:04Z</time>
      </trkpt>
      <trkpt lat="43.89445" lon="7.44687">
        <ele>676.8</ele>
        <time>2017-08-28T12:16:15Z</time>
      </trkpt>
      <trkpt lat="43.89444" lon="7.44688">
        <ele>676.5</ele>
        <time>2017-08-28T12:16:16Z</time>
      </trkpt>
      <trkpt lat="43.8944" lon="7.44689">
        <ele>674.8</ele>
        <time>2017-08-28T12:16:20Z</time>
      </trkpt>
      <trkpt lat="43.89432" lon="7.44696">
        <ele>673.6</ele>
        <time>2017-08-28T12:16:28Z</time>
      </trkpt>
      <trkpt lat="43.89421" lon="7.44708">
        <ele>675.3</ele>
        <time>2017-08-28T12:16:41Z</time>
      </trkpt>
      <trkpt lat="43.89422" lon="7.447">
        <ele>671</ele>
        <time>2017-08-28T12:16:47Z</time>
      </trkpt>
      <trkpt lat="43.89429" lon="7.44685">
        <ele>667.8</ele>
        <time>2017-08-28T12:16:58Z</time>
      </trkpt>
      <trkpt lat="43.89431" lon="7.44678">
        <ele>666.3</ele>
        <time>2017-08-28T12:17:03Z</time>
      </trkpt>
      <trkpt lat="43.89435" lon="7.44676">
        <ele>667.6</ele>
        <time>2017-08-28T12:17:07Z</time>
      </trkpt>
      <trkpt lat="43.89439" lon="7.44659">
        <ele>664.8</ele>
        <time>2017-08-28T12:17:18Z</time>
      </trkpt>
      <trkpt lat="43.89437" lon="7.44657">
        <ele>663.3</ele>
        <time>2017-08-28T12:17:22Z</time>
      </trkpt>
      <trkpt lat="43.89424" lon="7.44676">
        <ele>662.1</ele>
        <time>2017-08-28T12:17:38Z</time>
      </trkpt>
      <trkpt lat="43.89418" lon="7.4468">
        <ele>660.5</ele>
        <time>2017-08-28T12:17:43Z</time>
      </trkpt>
      <trkpt lat="43.89406" lon="7.44685">
        <ele>661</ele>
        <time>2017-08-28T12:17:53Z</time>
      </trkpt>
      <trkpt lat="43.89398" lon="7.44682">
        <ele>659.2</ele>
        <time>2017-08-28T12:17:59Z</time>
      </trkpt>
      <trkpt lat="43.89389" lon="7.44675">
        <ele>655.6</ele>
        <time>2017-08-28T12:18:08Z</time>
      </trkpt>
      <trkpt lat="43.89381" lon="7.44678">
        <ele>658</ele>
        <time>2017-08-28T12:18:15Z</time>
      </trkpt>
      <trkpt lat="43.89374" lon="7.44681">
        <ele>660.3</ele>
        <time>2017-08-28T12:18:21Z</time>
      </trkpt>
      <trkpt lat="43.89362" lon="7.44676">
        <ele>659.9</ele>
        <time>2017-08-28T12:18:31Z</time>
      </trkpt>
      <trkpt lat="43.89356" lon="7.44666">
        <ele>658.2</ele>
        <time>2017-08-28T12:18:38Z</time>
      </trkpt>
      <trkpt lat="43.89356" lon="7.44647">
        <ele>652.3</ele>
        <time>2017-08-28T12:18:51Z</time>
      </trkpt>
      <trkpt lat="43.89357" lon="7.44644">
        <ele>651</ele>
        <time>2017-08-28T12:18:53Z</time>
      </trkpt>
      <trkpt lat="43.89354" lon="7.44637">
        <ele>650.1</ele>
        <time>2017-08-28T12:18:58Z</time>
      </trkpt>
      <trkpt lat="43.89345" lon="7.44615">
        <ele>647.1</ele>
        <time>2017-08-28T12:19:13Z</time>
      </trkpt>
      <trkpt lat="43.89332" lon="7.44607">
        <ele>648</ele>
        <time>2017-08-28T12:19:24Z</time>
      </trkpt>
      <trkpt lat="43.89312" lon="7.44601">
        <ele>648.4</ele>
        <time>2017-08-28T12:19:41Z</time>
      </trkpt>
      <trkpt lat="43.89309" lon="7.44598">
        <ele>647.9</ele>
        <time>2017-08-28T12:19:54Z</time>
      </trkpt>
      <trkpt lat="43.89309" lon="7.44598">
        <ele>647.9</ele>
        <time>2017-08-28T12:20:17Z</time>
      </trkpt>
      <trkpt lat="43.89305" lon="7.44599">
        <ele>648.6</ele>
        <time>2017-08-28T12:20:30Z</time>
      </trkpt>
      <trkpt lat="43.89295" lon="7.44606">
        <ele>651.5</ele>
        <time>2017-08-28T12:20:35Z</time>
      </trkpt>
      <trkpt lat="43.89289" lon="7.44607">
        <ele>652.4</ele>
        <time>2017-08-28T12:20:39Z</time>
      </trkpt>
      <trkpt lat="43.89279" lon="7.44602">
        <ele>651.6</ele>
        <time>2017-08-28T12:20:49Z</time>
      </trkpt>
      <trkpt lat="43.89276" lon="7.44597">
        <ele>650.2</ele>
        <time>2017-08-28T12:20:53Z</time>
      </trkpt>
      <trkpt lat="43.89271" lon="7.4459">
        <ele>648.6</ele>
        <time>2017-08-28T12:20:59Z</time>
      </trkpt>
      <trkpt lat="43.89254" lon="7.44569">
        <ele>645.2</ele>
        <time>2017-08-28T12:21:15Z</time>
      </trkpt>
      <trkpt lat="43.89245" lon="7.44551">
        <ele>641.5</ele>
        <time>2017-08-28T12:21:27Z</time>
      </trkpt>
      <trkpt lat="43.89232" lon="7.4453">
        <ele>638.4</ele>
        <time>2017-08-28T12:21:44Z</time>
      </trkpt>
      <trkpt lat="43.89222" lon="7.4452">
        <ele>638.6</ele>
        <time>2017-08-28T12:21:53Z</time>
      </trkpt>
      <trkpt lat="43.89204" lon="7.44517">
        <ele>635.3</ele>
        <time>2017-08-28T12:22:06Z</time>
      </trkpt>
      <trkpt lat="43.892" lon="7.44519">
        <ele>634.9</ele>
        <time>2017-08-28T12:22:09Z</time>
      </trkpt>
      <trkpt lat="43.89195" lon="7.44527">
        <ele>635</ele>
        <time>2017-08-28T12:22:16Z</time>
      </trkpt>
      <trkpt lat="43.89188" lon="7.44555">
        <ele>633.5</ele>
        <time>2017-08-28T12:22:33Z</time>
      </trkpt>
      <trkpt lat="43.89181" lon="7.44575">
        <ele>631.2</ele>
        <time>2017-08-28T12:22:46Z</time>
      </trkpt>
      <trkpt lat="43.89178" lon="7.44582">
        <ele>630.2</ele>
        <time>2017-08-28T12:22:50Z</time>
      </trkpt>
      <trkpt lat="43.89176" lon="7.4459">
        <ele>630.4</ele>
        <time>2017-08-28T12:22:54Z</time>
      </trkpt>
      <trkpt lat="43.89172" lon="7.446">
        <ele>629.9</ele>
        <time>2017-08-28T12:23:03Z</time>
      </trkpt>
      <trkpt lat="43.89175" lon="7.44584">
        <ele>628.5</ele>
        <time>2017-08-28T12:23:14Z</time>
      </trkpt>
      <trkpt lat="43.89179" lon="7.44561">
        <ele>628.1</ele>
        <time>2017-08-28T12:23:28Z</time>
      </trkpt>
      <trkpt lat="43.8918" lon="7.44541">
        <ele>626.8</ele>
        <time>2017-08-28T12:23:41Z</time>
      </trkpt>
      <trkpt lat="43.89175" lon="7.4454">
        <ele>623.4</ele>
        <time>2017-08-28T12:23:53Z</time>
      </trkpt>
      <trkpt lat="43.89174" lon="7.44551">
        <ele>623.6</ele>
        <time>2017-08-28T12:24:03Z</time>
      </trkpt>
      <trkpt lat="43.89171" lon="7.44559">
        <ele>622.4</ele>
        <time>2017-08-28T12:24:09Z</time>
      </trkpt>
      <trkpt lat="43.89166" lon="7.44581">
        <ele>622.2</ele>
        <time>2017-08-28T12:24:24Z</time>
      </trkpt>
      <trkpt lat="43.89153" lon="7.44601">
        <ele>618.6</ele>
        <time>2017-08-28T12:24:39Z</time>
      </trkpt>
      <trkpt lat="43.89135" lon="7.44613">
        <ele>611.5</ele>
        <time>2017-08-28T12:24:55Z</time>
      </trkpt>
      <trkpt lat="43.89127" lon="7.44619">
        <ele>608.6</ele>
        <time>2017-08-28T12:25:02Z</time>
      </trkpt>
      <trkpt lat="43.89123" lon="7.44622">
        <ele>607.1</ele>
        <time>2017-08-28T12:25:06Z</time>
      </trkpt>
      <trkpt lat="43.89121" lon="7.4464">
        <ele>608.1</ele>
        <time>2017-08-28T12:25:18Z</time>
      </trkpt>
      <trkpt lat="43.89123" lon="7.44645">
        <ele>608.2</ele>
        <time>2017-08-28T12:25:22Z</time>
      </trkpt>
      <trkpt lat="43.89125" lon="7.44651">
        <ele>608.1</ele>
        <time>2017-08-28T12:25:26Z</time>
      </trkpt>
      <trkpt lat="43.89127" lon="7.44654">
        <ele>608.6</ele>
        <time>2017-08-28T12:25:28Z</time>
      </trkpt>
      <trkpt lat="43.89135" lon="7.44676">
        <ele>607.8</ele>
        <time>2017-08-28T12:25:43Z</time>
      </trkpt>
      <trkpt lat="43.89138" lon="7.44683">
        <ele>607.2</ele>
        <time>2017-08-28T12:25:48Z</time>
      </trkpt>
      <trkpt lat="43.89143" lon="7.4469">
        <ele>608.3</ele>
        <time>2017-08-28T12:25:53Z</time>
      </trkpt>
      <trkpt lat="43.89137" lon="7.44691">
        <ele>604.1</ele>
        <time>2017-08-28T12:26:01Z</time>
      </trkpt>
      <trkpt lat="43.89135" lon="7.44687">
        <ele>604.3</ele>
        <time>2017-08-28T12:26:04Z</time>
      </trkpt>
      <trkpt lat="43.89124" lon="7.44674">
        <ele>602.2</ele>
        <time>2017-08-28T12:26:16Z</time>
      </trkpt>
      <trkpt lat="43.8911" lon="7.44658">
        <ele>598.4</ele>
        <time>2017-08-28T12:26:30Z</time>
      </trkpt>
      <trkpt lat="43.89103" lon="7.44652">
        <ele>596.7</ele>
        <time>2017-08-28T12:26:37Z</time>
      </trkpt>
      <trkpt lat="43.89092" lon="7.44645">
        <ele>593.8</ele>
        <time>2017-08-28T12:26:47Z</time>
      </trkpt>
      <trkpt lat="43.89077" lon="7.44633">
        <ele>589.4</ele>
        <time>2017-08-28T12:27:00Z</time>
      </trkpt>
      <trkpt lat="43.89076" lon="7.44633">
        <ele>589</ele>
        <time>2017-08-28T12:27:01Z</time>
      </trkpt>
      <trkpt lat="43.89064" lon="7.44617">
        <ele>584.7</ele>
        <time>2017-08-28T12:27:15Z</time>
      </trkpt>
      <trkpt lat="43.89066" lon="7.44611">
        <ele>585.4</ele>
        <time>2017-08-28T12:27:23Z</time>
      </trkpt>
      <trkpt lat="43.89075" lon="7.44604">
        <ele>586.3</ele>
        <time>2017-08-28T12:27:34Z</time>
      </trkpt>
      <trkpt lat="43.89085" lon="7.44597">
        <ele>587.5</ele>
        <time>2017-08-28T12:27:44Z</time>
      </trkpt>
      <trkpt lat="43.89081" lon="7.44588">
        <ele>583.6</ele>
        <time>2017-08-28T12:27:51Z</time>
      </trkpt>
      <trkpt lat="43.89064" lon="7.4459">
        <ele>578.7</ele>
        <time>2017-08-28T12:28:05Z</time>
      </trkpt>
      <trkpt lat="43.89053" lon="7.44594">
        <ele>576</ele>
        <time>2017-08-28T12:28:14Z</time>
      </trkpt>
      <trkpt lat="43.89049" lon="7.44602">
        <ele>576.4</ele>
        <time>2017-08-28T12:28:20Z</time>
      </trkpt>
      <trkpt lat="43.89046" lon="7.44631">
        <ele>576.5</ele>
        <time>2017-08-28T12:28:37Z</time>
      </trkpt>
      <trkpt lat="43.89046" lon="7.44633">
        <ele>576.4</ele>
        <time>2017-08-28T12:28:38Z</time>
      </trkpt>
      <trkpt lat="43.89049" lon="7.44641">
        <ele>577.1</ele>
        <time>2017-08-28T12:28:43Z</time>
      </trkpt>
      <trkpt lat="43.89045" lon="7.44642">
        <ele>574.8</ele>
        <time>2017-08-28T12:28:49Z</time>
      </trkpt>
      <trkpt lat="43.89042" lon="7.44619">
        <ele>574.9</ele>
        <time>2017-08-28T12:29:03Z</time>
      </trkpt>
      <trkpt lat="43.89041" lon="7.44609">
        <ele>574.2</ele>
        <time>2017-08-28T12:29:10Z</time>
      </trkpt>
      <trkpt lat="43.89036" lon="7.44586">
        <ele>567.5</ele>
        <time>2017-08-28T12:29:24Z</time>
      </trkpt>
      <trkpt lat="43.89037" lon="7.44585">
        <ele>567.6</ele>
        <time>2017-08-28T12:29:25Z</time>
      </trkpt>
      <trkpt lat="43.89036" lon="7.44582">
        <ele>566.5</ele>
        <time>2017-08-28T12:29:27Z</time>
      </trkpt>
      <trkpt lat="43.89029" lon="7.44596">
        <ele>566.3</ele>
        <time>2017-08-28T12:29:38Z</time>
      </trkpt>
      <trkpt lat="43.89034" lon="7.4461">
        <ele>570.9</ele>
        <time>2017-08-28T12:29:48Z</time>
      </trkpt>
      <trkpt lat="43.89034" lon="7.44613">
        <ele>571.1</ele>
        <time>2017-08-28T12:29:50Z</time>
      </trkpt>
      <trkpt lat="43.89034" lon="7.44616">
        <ele>571</ele>
        <time>2017-08-28T12:29:52Z</time>
      </trkpt>
      <trkpt lat="43.89021" lon="7.44628">
        <ele>564</ele>
        <time>2017-08-28T12:30:10Z</time>
      </trkpt>
      <trkpt lat="43.89022" lon="7.44624">
        <ele>564.6</ele>
        <time>2017-08-28T12:30:22Z</time>
      </trkpt>
      <trkpt lat="43.89025" lon="7.44614">
        <ele>566.4</ele>
        <time>2017-08-28T12:30:29Z</time>
      </trkpt>
      <trkpt lat="43.89018" lon="7.44599">
        <ele>561.4</ele>
        <time>2017-08-28T12:30:43Z</time>
      </trkpt>
      <trkpt lat="43.89014" lon="7.44591">
        <ele>558.7</ele>
        <time>2017-08-28T12:30:50Z</time>
      </trkpt>
      <trkpt lat="43.89012" lon="7.44585">
        <ele>557.3</ele>
        <time>2017-08-28T12:30:54Z</time>
      </trkpt>
      <trkpt lat="43.8901" lon="7.44581">
        <ele>555.8</ele>
        <time>2017-08-28T12:30:57Z</time>
      </trkpt>
      <trkpt lat="43.89013" lon="7.44573">
        <ele>555.1</ele>
        <time>2017-08-28T12:31:03Z</time>
      </trkpt>
      <trkpt lat="43.89012" lon="7.44569">
        <ele>553.7</ele>
        <time>2017-08-28T12:31:06Z</time>
      </trkpt>
      <trkpt lat="43.89011" lon="7.44569">
        <ele>553.4</ele>
        <time>2017-08-28T12:31:07Z</time>
      </trkpt>
      <trkpt lat="43.89001" lon="7.44571">
        <ele>550.1</ele>
        <time>2017-08-28T12:31:16Z</time>
      </trkpt>
      <trkpt lat="43.88995" lon="7.44566">
        <ele>547</ele>
        <time>2017-08-28T12:31:22Z</time>
      </trkpt>
      <trkpt lat="43.88993" lon="7.44567">
        <ele>546.4</ele>
        <time>2017-08-28T12:31:25Z</time>
      </trkpt>
      <trkpt lat="43.88991" lon="7.44564">
        <ele>545.2</ele>
        <time>2017-08-28T12:31:28Z</time>
      </trkpt>
      <trkpt lat="43.88987" lon="7.44563">
        <ele>543.6</ele>
        <time>2017-08-28T12:31:40Z</time>
      </trkpt>
      <trkpt lat="43.88987" lon="7.44563">
        <ele>543.6</ele>
        <time>2017-08-28T12:31:51Z</time>
      </trkpt>
      <trkpt lat="43.8899" lon="7.44574">
        <ele>546.1</ele>
        <time>2017-08-28T12:32:00Z</time>
      </trkpt>
      <trkpt lat="43.88992" lon="7.4458">
        <ele>547.8</ele>
        <time>2017-08-28T12:32:04Z</time>
      </trkpt>
      <trkpt lat="43.88994" lon="7.44589">
        <ele>549.4</ele>
        <time>2017-08-28T12:32:12Z</time>
      </trkpt>
      <trkpt lat="43.8898" lon="7.44578">
        <ele>542.2</ele>
        <time>2017-08-28T12:32:28Z</time>
      </trkpt>
      <trkpt lat="43.88974" lon="7.44566">
        <ele>539</ele>
        <time>2017-08-28T12:32:37Z</time>
      </trkpt>
      <trkpt lat="43.88972" lon="7.44553">
        <ele>537.3</ele>
        <time>2017-08-28T12:32:50Z</time>
      </trkpt>
      <trkpt lat="43.88974" lon="7.44544">
        <ele>536.1</ele>
        <time>2017-08-28T12:32:56Z</time>
      </trkpt>
      <trkpt lat="43.88975" lon="7.4454">
        <ele>535.5</ele>
        <time>2017-08-28T12:32:59Z</time>
      </trkpt>
      <trkpt lat="43.8897" lon="7.44538">
        <ele>533.3</ele>
        <time>2017-08-28T12:33:04Z</time>
      </trkpt>
      <trkpt lat="43.88964" lon="7.44559">
        <ele>534.3</ele>
        <time>2017-08-28T12:33:21Z</time>
      </trkpt>
      <trkpt lat="43.88961" lon="7.44575">
        <ele>533.4</ele>
        <time>2017-08-28T12:33:34Z</time>
      </trkpt>
      <trkpt lat="43.88959" lon="7.44553">
        <ele>531.3</ele>
        <time>2017-08-28T12:33:49Z</time>
      </trkpt>
      <trkpt lat="43.88958" lon="7.44548">
        <ele>530</ele>
        <time>2017-08-28T12:33:52Z</time>
      </trkpt>
      <trkpt lat="43.88958" lon="7.44545">
        <ele>529.5</ele>
        <time>2017-08-28T12:33:54Z</time>
      </trkpt>
      <trkpt lat="43.88958" lon="7.44534">
        <ele>527.5</ele>
        <time>2017-08-28T12:34:02Z</time>
      </trkpt>
      <trkpt lat="43.88959" lon="7.44527">
        <ele>526.7</ele>
        <time>2017-08-28T12:34:06Z</time>
      </trkpt>
      <trkpt lat="43.88959" lon="7.4452">
        <ele>525.8</ele>
        <time>2017-08-28T12:34:10Z</time>
      </trkpt>
      <trkpt lat="43.88956" lon="7.4452">
        <ele>524.6</ele>
        <time>2017-08-28T12:34:12Z</time>
      </trkpt>
      <trkpt lat="43.8895" lon="7.44535">
        <ele>524.3</ele>
        <time>2017-08-28T12:34:26Z</time>
      </trkpt>
      <trkpt lat="43.88947" lon="7.44554">
        <ele>526</ele>
        <time>2017-08-28T12:34:37Z</time>
      </trkpt>
      <trkpt lat="43.88945" lon="7.44563">
        <ele>525.5</ele>
        <time>2017-08-28T12:34:44Z</time>
      </trkpt>
      <trkpt lat="43.88942" lon="7.44569">
        <ele>525.3</ele>
        <time>2017-08-28T12:34:52Z</time>
      </trkpt>
      <trkpt lat="43.88941" lon="7.44564">
        <ele>524.9</ele>
        <time>2017-08-28T12:34:56Z</time>
      </trkpt>
      <trkpt lat="43.88942" lon="7.44543">
        <ele>522.8</ele>
        <time>2017-08-28T12:35:11Z</time>
      </trkpt>
      <trkpt lat="43.88941" lon="7.44533">
        <ele>521.1</ele>
        <time>2017-08-28T12:35:19Z</time>
      </trkpt>
      <trkpt lat="43.88935" lon="7.44513">
        <ele>517</ele>
        <time>2017-08-28T12:35:32Z</time>
      </trkpt>
      <trkpt lat="43.88932" lon="7.44504">
        <ele>515</ele>
        <time>2017-08-28T12:35:38Z</time>
      </trkpt>
      <trkpt lat="43.88932" lon="7.44489">
        <ele>514.5</ele>
        <time>2017-08-28T12:35:48Z</time>
      </trkpt>
      <trkpt lat="43.88927" lon="7.44494">
        <ele>512.9</ele>
        <time>2017-08-28T12:35:54Z</time>
      </trkpt>
      <trkpt lat="43.88923" lon="7.44512">
        <ele>513.8</ele>
        <time>2017-08-28T12:36:07Z</time>
      </trkpt>
      <trkpt lat="43.8892" lon="7.44515">
        <ele>513.5</ele>
        <time>2017-08-28T12:36:10Z</time>
      </trkpt>
      <trkpt lat="43.88918" lon="7.44517">
        <ele>513.4</ele>
        <time>2017-08-28T12:36:12Z</time>
      </trkpt>
      <trkpt lat="43.88905" lon="7.44511">
        <ele>512</ele>
        <time>2017-08-28T12:36:27Z</time>
      </trkpt>
      <trkpt lat="43.88904" lon="7.44509">
        <ele>511.4</ele>
        <time>2017-08-28T12:36:29Z</time>
      </trkpt>
      <trkpt lat="43.8889" lon="7.44494">
        <ele>506.8</ele>
        <time>2017-08-28T12:36:43Z</time>
      </trkpt>
      <trkpt lat="43.88877" lon="7.44486">
        <ele>505.2</ele>
        <time>2017-08-28T12:36:55Z</time>
      </trkpt>
      <trkpt lat="43.88872" lon="7.44484">
        <ele>504.6</ele>
        <time>2017-08-28T12:36:58Z</time>
      </trkpt>
      <trkpt lat="43.88863" lon="7.44479">
        <ele>502.7</ele>
        <time>2017-08-28T12:37:06Z</time>
      </trkpt>
      <trkpt lat="43.88842" lon="7.44479">
        <ele>504.2</ele>
        <time>2017-08-28T12:37:21Z</time>
      </trkpt>
      <trkpt lat="43.88835" lon="7.44475">
        <ele>503.1</ele>
        <time>2017-08-28T12:37:27Z</time>
      </trkpt>
      <trkpt lat="43.88832" lon="7.44472">
        <ele>502.1</ele>
        <time>2017-08-28T12:37:30Z</time>
      </trkpt>
      <trkpt lat="43.88815" lon="7.44465">
        <ele>500.9</ele>
        <time>2017-08-28T12:37:44Z</time>
      </trkpt>
      <trkpt lat="43.88809" lon="7.4446">
        <ele>499.4</ele>
        <time>2017-08-28T12:37:49Z</time>
      </trkpt>
      <trkpt lat="43.88791" lon="7.44459">
        <ele>500.3</ele>
        <time>2017-08-28T12:38:04Z</time>
      </trkpt>
      <trkpt lat="43.88772" lon="7.44456">
        <ele>500.6</ele>
        <time>2017-08-28T12:38:18Z</time>
      </trkpt>
      <trkpt lat="43.88756" lon="7.44449">
        <ele>499.3</ele>
        <time>2017-08-28T12:38:34Z</time>
      </trkpt>
      <trkpt lat="43.88751" lon="7.44445">
        <ele>498.1</ele>
        <time>2017-08-28T12:38:40Z</time>
      </trkpt>
      <trkpt lat="43.88737" lon="7.4443">
        <ele>493.4</ele>
        <time>2017-08-28T12:38:54Z</time>
      </trkpt>
      <trkpt lat="43.88721" lon="7.44421">
        <ele>490.8</ele>
        <time>2017-08-28T12:39:08Z</time>
      </trkpt>
      <trkpt lat="43.88712" lon="7.44415">
        <ele>487.4</ele>
        <time>2017-08-28T12:39:16Z</time>
      </trkpt>
      <trkpt lat="43.88706" lon="7.44413">
        <ele>486</ele>
        <time>2017-08-28T12:39:21Z</time>
      </trkpt>
      <trkpt lat="43.88696" lon="7.44413">
        <ele>485.1</ele>
        <time>2017-08-28T12:39:34Z</time>
      </trkpt>
      <trkpt lat="43.88698" lon="7.44412">
        <ele>484.8</ele>
        <time>2017-08-28T12:39:38Z</time>
      </trkpt>
      <trkpt lat="43.88715" lon="7.4441">
        <ele>485.2</ele>
        <time>2017-08-28T12:39:53Z</time>
      </trkpt>
      <trkpt lat="43.88726" lon="7.44406">
        <ele>484</ele>
        <time>2017-08-28T12:40:05Z</time>
      </trkpt>
      <trkpt lat="43.88726" lon="7.44404">
        <ele>483.1</ele>
        <time>2017-08-28T12:40:07Z</time>
      </trkpt>
      <trkpt lat="43.8872" lon="7.44402">
        <ele>481.9</ele>
        <time>2017-08-28T12:40:13Z</time>
      </trkpt>
      <trkpt lat="43.88709" lon="7.44397">
        <ele>478.2</ele>
        <time>2017-08-28T12:40:24Z</time>
      </trkpt>
      <trkpt lat="43.88698" lon="7.44396">
        <ele>476.3</ele>
        <time>2017-08-28T12:40:34Z</time>
      </trkpt>
      <trkpt lat="43.88695" lon="7.44399">
        <ele>477.5</ele>
        <time>2017-08-28T12:40:37Z</time>
      </trkpt>
      <trkpt lat="43.88689" lon="7.44401">
        <ele>477.3</ele>
        <time>2017-08-28T12:40:42Z</time>
      </trkpt>
      <trkpt lat="43.88687" lon="7.44402">
        <ele>477.5</ele>
        <time>2017-08-28T12:40:44Z</time>
      </trkpt>
      <trkpt lat="43.88676" lon="7.44405">
        <ele>476.8</ele>
        <time>2017-08-28T12:40:54Z</time>
      </trkpt>
      <trkpt lat="43.8867" lon="7.44409">
        <ele>478</ele>
        <time>2017-08-28T12:41:05Z</time>
      </trkpt>
      <trkpt lat="43.88667" lon="7.44409">
        <ele>477.4</ele>
        <time>2017-08-28T12:41:17Z</time>
      </trkpt>
      <trkpt lat="43.88664" lon="7.44409">
        <ele>477.1</ele>
        <time>2017-08-28T12:41:34Z</time>
      </trkpt>
      <trkpt lat="43.88657" lon="7.44409">
        <ele>476.5</ele>
        <time>2017-08-28T12:41:40Z</time>
      </trkpt>
      <trkpt lat="43.88652" lon="7.44409">
        <ele>476.1</ele>
        <time>2017-08-28T12:41:43Z</time>
      </trkpt>
      <trkpt lat="43.88636" lon="7.44401">
        <ele>470</ele>
        <time>2017-08-28T12:41:56Z</time>
      </trkpt>
      <trkpt lat="43.88632" lon="7.44399">
        <ele>469</ele>
        <time>2017-08-28T12:41:59Z</time>
      </trkpt>
      <trkpt lat="43.88619" lon="7.44395">
        <ele>467.2</ele>
        <time>2017-08-28T12:42:12Z</time>
      </trkpt>
      <trkpt lat="43.88615" lon="7.44392">
        <ele>465.6</ele>
        <time>2017-08-28T12:42:16Z</time>
      </trkpt>
      <trkpt lat="43.88602" lon="7.44385">
        <ele>463</ele>
        <time>2017-08-28T12:42:26Z</time>
      </trkpt>
      <trkpt lat="43.88599" lon="7.44385">
        <ele>463.3</ele>
        <time>2017-08-28T12:42:29Z</time>
      </trkpt>
      <trkpt lat="43.88581" lon="7.44379">
        <ele>462.5</ele>
        <time>2017-08-28T12:42:43Z</time>
      </trkpt>
      <trkpt lat="43.88579" lon="7.4438">
        <ele>463.1</ele>
        <time>2017-08-28T12:42:45Z</time>
      </trkpt>
      <trkpt lat="43.88564" lon="7.44371">
        <ele>460.7</ele>
        <time>2017-08-28T12:43:00Z</time>
      </trkpt>
      <trkpt lat="43.88558" lon="7.44369">
        <ele>460.6</ele>
        <time>2017-08-28T12:43:05Z</time>
      </trkpt>
      <trkpt lat="43.88539" lon="7.4437">
        <ele>460</ele>
        <time>2017-08-28T12:43:22Z</time>
      </trkpt>
      <trkpt lat="43.88536" lon="7.4437">
        <ele>459.8</ele>
        <time>2017-08-28T12:43:25Z</time>
      </trkpt>
      <trkpt lat="43.88531" lon="7.44369">
        <ele>459.1</ele>
        <time>2017-08-28T12:43:29Z</time>
      </trkpt>
      <trkpt lat="43.8852" lon="7.44369">
        <ele>457.7</ele>
        <time>2017-08-28T12:43:45Z</time>
      </trkpt>
      <trkpt lat="43.88519" lon="7.44369">
        <ele>457.6</ele>
        <time>2017-08-28T12:43:51Z</time>
      </trkpt>
      <trkpt lat="43.88507" lon="7.44366">
        <ele>454.8</ele>
        <time>2017-08-28T12:44:00Z</time>
      </trkpt>
      <trkpt lat="43.885" lon="7.44367">
        <ele>454.1</ele>
        <time>2017-08-28T12:44:05Z</time>
      </trkpt>
      <trkpt lat="43.88494" lon="7.44367">
        <ele>453</ele>
        <time>2017-08-28T12:44:10Z</time>
      </trkpt>
      <trkpt lat="43.88474" lon="7.44365">
        <ele>448.7</ele>
        <time>2017-08-28T12:44:24Z</time>
      </trkpt>
      <trkpt lat="43.88467" lon="7.44369">
        <ele>448.9</ele>
        <time>2017-08-28T12:44:30Z</time>
      </trkpt>
      <trkpt lat="43.8845" lon="7.44378">
        <ele>449.1</ele>
        <time>2017-08-28T12:44:46Z</time>
      </trkpt>
      <trkpt lat="43.8843" lon="7.44375">
        <ele>444.7</ele>
        <time>2017-08-28T12:45:01Z</time>
      </trkpt>
      <trkpt lat="43.88428" lon="7.44375">
        <ele>444.3</ele>
        <time>2017-08-28T12:45:13Z</time>
      </trkpt>
      <trkpt lat="43.88428" lon="7.44375">
        <ele>444.3</ele>
        <time>2017-08-28T12:45:37Z</time>
      </trkpt>
      <trkpt lat="43.88428" lon="7.44376">
        <ele>444.6</ele>
        <time>2017-08-28T12:46:02Z</time>
      </trkpt>
      <trkpt lat="43.88429" lon="7.44376">
        <ele>444.8</ele>
        <time>2017-08-28T12:46:28Z</time>
      </trkpt>
      <trkpt lat="43.88429" lon="7.44376">
        <ele>444.8</ele>
        <time>2017-08-28T12:46:56Z</time>
      </trkpt>
      <trkpt lat="43.88429" lon="7.44378">
        <ele>445.4</ele>
        <time>2017-08-28T12:47:30Z</time>
      </trkpt>
      <trkpt lat="43.8843" lon="7.44379">
        <ele>445.9</ele>
        <time>2017-08-28T12:47:59Z</time>
      </trkpt>
      <trkpt lat="43.8843" lon="7.44379">
        <ele>445.9</ele>
        <time>2017-08-28T12:48:29Z</time>
      </trkpt>
      <trkpt lat="43.8843" lon="7.44379">
        <ele>445.9</ele>
        <time>2017-08-28T12:48:55Z</time>
      </trkpt>
      <trkpt lat="43.8843" lon="7.44379">
        <ele>445.9</ele>
        <time>2017-08-28T12:49:31Z</time>
      </trkpt>
      <trkpt lat="43.8843" lon="7.4438">
        <ele>446.2</ele>
        <time>2017-08-28T12:49:56Z</time>
      </trkpt>
      <trkpt lat="43.8843" lon="7.4438">
        <ele>446.2</ele>
        <time>2017-08-28T12:50:19Z</time>
      </trkpt>
      <trkpt lat="43.8843" lon="7.4438">
        <ele>446.2</ele>
        <time>2017-08-28T12:50:48Z</time>
      </trkpt>
      <trkpt lat="43.88429" lon="7.4438">
        <ele>446</ele>
        <time>2017-08-28T12:51:16Z</time>
      </trkpt>
      <trkpt lat="43.88429" lon="7.4438">
        <ele>446</ele>
        <time>2017-08-28T12:51:46Z</time>
      </trkpt>
      <trkpt lat="43.88429" lon="7.44381">
        <ele>446.3</ele>
        <time>2017-08-28T12:52:02Z</time>
      </trkpt>
      <trkpt lat="43.88419" lon="7.44382">
        <ele>444.7</ele>
        <time>2017-08-28T12:52:20Z</time>
      </trkpt>
      <trkpt lat="43.88412" lon="7.44383">
        <ele>443.4</ele>
        <time>2017-08-28T12:52:26Z</time>
      </trkpt>
      <trkpt lat="43.88398" lon="7.44393">
        <ele>441.8</ele>
        <time>2017-08-28T12:52:40Z</time>
      </trkpt>
      <trkpt lat="43.88387" lon="7.44413">
        <ele>439.9</ele>
        <time>2017-08-28T12:52:53Z</time>
      </trkpt>
      <trkpt lat="43.88386" lon="7.44419">
        <ele>439.6</ele>
        <time>2017-08-28T12:52:57Z</time>
      </trkpt>
      <trkpt lat="43.88387" lon="7.44422">
        <ele>439.8</ele>
        <time>2017-08-28T12:52:59Z</time>
      </trkpt>
      <trkpt lat="43.88394" lon="7.4444">
        <ele>441.8</ele>
        <time>2017-08-28T12:53:12Z</time>
      </trkpt>
      <trkpt lat="43.88395" lon="7.44441">
        <ele>442.2</ele>
        <time>2017-08-28T12:53:13Z</time>
      </trkpt>
      <trkpt lat="43.88399" lon="7.44459">
        <ele>441.7</ele>
        <time>2017-08-28T12:53:24Z</time>
      </trkpt>
      <trkpt lat="43.88399" lon="7.44466">
        <ele>440.6</ele>
        <time>2017-08-28T12:53:28Z</time>
      </trkpt>
      <trkpt lat="43.88401" lon="7.44501">
        <ele>437.2</ele>
        <time>2017-08-28T12:53:47Z</time>
      </trkpt>
      <trkpt lat="43.88401" lon="7.44522">
        <ele>436.1</ele>
        <time>2017-08-28T12:53:59Z</time>
      </trkpt>
      <trkpt lat="43.88398" lon="7.44543">
        <ele>435.6</ele>
        <time>2017-08-28T12:54:13Z</time>
      </trkpt>
      <trkpt lat="43.88397" lon="7.44546">
        <ele>435.3</ele>
        <time>2017-08-28T12:54:15Z</time>
      </trkpt>
      <trkpt lat="43.88377" lon="7.44543">
        <ele>427.3</ele>
        <time>2017-08-28T12:54:31Z</time>
      </trkpt>
      <trkpt lat="43.88358" lon="7.44527">
        <ele>417.5</ele>
        <time>2017-08-28T12:54:44Z</time>
      </trkpt>
      <trkpt lat="43.88339" lon="7.44517">
        <ele>412.8</ele>
        <time>2017-08-28T12:54:57Z</time>
      </trkpt>
      <trkpt lat="43.88322" lon="7.44513">
        <ele>410.9</ele>
        <time>2017-08-28T12:55:10Z</time>
      </trkpt>
      <trkpt lat="43.88313" lon="7.44512">
        <ele>410.7</ele>
        <time>2017-08-28T12:55:18Z</time>
      </trkpt>
      <trkpt lat="43.88296" lon="7.44512">
        <ele>411.6</ele>
        <time>2017-08-28T12:55:33Z</time>
      </trkpt>
      <trkpt lat="43.88282" lon="7.44508">
        <ele>411.5</ele>
        <time>2017-08-28T12:55:46Z</time>
      </trkpt>
      <trkpt lat="43.88265" lon="7.44504">
        <ele>411.3</ele>
        <time>2017-08-28T12:56:01Z</time>
      </trkpt>
      <trkpt lat="43.88243" lon="7.44498">
        <ele>410.2</ele>
        <time>2017-08-28T12:56:18Z</time>
      </trkpt>
      <trkpt lat="43.88224" lon="7.44504">
        <ele>411.1</ele>
        <time>2017-08-28T12:56:33Z</time>
      </trkpt>
      <trkpt lat="43.88209" lon="7.44514">
        <ele>410.4</ele>
        <time>2017-08-28T12:56:48Z</time>
      </trkpt>
      <trkpt lat="43.88191" lon="7.44523">
        <ele>409</ele>
        <time>2017-08-28T12:57:03Z</time>
      </trkpt>
      <trkpt lat="43.88186" lon="7.44524">
        <ele>408.4</ele>
        <time>2017-08-28T12:57:07Z</time>
      </trkpt>
      <trkpt lat="43.88178" lon="7.44526">
        <ele>407.5</ele>
        <time>2017-08-28T12:57:13Z</time>
      </trkpt>
      <trkpt lat="43.88155" lon="7.44528">
        <ele>403.1</ele>
        <time>2017-08-28T12:57:31Z</time>
      </trkpt>
      <trkpt lat="43.88134" lon="7.44542">
        <ele>400.3</ele>
        <time>2017-08-28T12:57:48Z</time>
      </trkpt>
      <trkpt lat="43.88123" lon="7.44564">
        <ele>401.1</ele>
        <time>2017-08-28T12:58:04Z</time>
      </trkpt>
      <trkpt lat="43.88106" lon="7.4458">
        <ele>398.3</ele>
        <time>2017-08-28T12:58:19Z</time>
      </trkpt>
      <trkpt lat="43.88088" lon="7.44605">
        <ele>394.3</ele>
        <time>2017-08-28T12:58:38Z</time>
      </trkpt>
      <trkpt lat="43.88082" lon="7.44619">
        <ele>393.7</ele>
        <time>2017-08-28T12:58:47Z</time>
      </trkpt>
      <trkpt lat="43.8808" lon="7.44625">
        <ele>393.9</ele>
        <time>2017-08-28T12:58:51Z</time>
      </trkpt>
      <trkpt lat="43.88066" lon="7.44645">
        <ele>392.3</ele>
        <time>2017-08-28T12:59:07Z</time>
      </trkpt>
      <trkpt lat="43.88049" lon="7.44663">
        <ele>389.3</ele>
        <time>2017-08-28T12:59:24Z</time>
      </trkpt>
      <trkpt lat="43.88029" lon="7.44676">
        <ele>384.4</ele>
        <time>2017-08-28T12:59:40Z</time>
      </trkpt>
      <trkpt lat="43.88008" lon="7.44697">
        <ele>381</ele>
        <time>2017-08-28T12:59:59Z</time>
      </trkpt>
      <trkpt lat="43.88002" lon="7.44702">
        <ele>379.5</ele>
        <time>2017-08-28T13:00:05Z</time>
      </trkpt>
      <trkpt lat="43.87993" lon="7.44712">
        <ele>377.6</ele>
        <time>2017-08-28T13:00:14Z</time>
      </trkpt>
      <trkpt lat="43.87988" lon="7.44717">
        <ele>376.5</ele>
        <time>2017-08-28T13:00:19Z</time>
      </trkpt>
      <trkpt lat="43.87986" lon="7.44719">
        <ele>376</ele>
        <time>2017-08-28T13:00:22Z</time>
      </trkpt>
      <trkpt lat="43.87968" lon="7.44734">
        <ele>371.5</ele>
        <time>2017-08-28T13:00:38Z</time>
      </trkpt>
      <trkpt lat="43.87953" lon="7.44744">
        <ele>367.4</ele>
        <time>2017-08-28T13:00:51Z</time>
      </trkpt>
      <trkpt lat="43.87938" lon="7.44758">
        <ele>362.9</ele>
        <time>2017-08-28T13:01:06Z</time>
      </trkpt>
      <trkpt lat="43.87926" lon="7.44764">
        <ele>359.2</ele>
        <time>2017-08-28T13:01:18Z</time>
      </trkpt>
      <trkpt lat="43.87921" lon="7.4476">
        <ele>357.9</ele>
        <time>2017-08-28T13:01:32Z</time>
      </trkpt>
      <trkpt lat="43.8792" lon="7.44753">
        <ele>357.9</ele>
        <time>2017-08-28T13:01:40Z</time>
      </trkpt>
      <trkpt lat="43.87926" lon="7.44726">
        <ele>360.6</ele>
        <time>2017-08-28T13:01:55Z</time>
      </trkpt>
      <trkpt lat="43.87927" lon="7.44705">
        <ele>360.6</ele>
        <time>2017-08-28T13:02:09Z</time>
      </trkpt>
      <trkpt lat="43.87929" lon="7.44689">
        <ele>360.7</ele>
        <time>2017-08-28T13:02:18Z</time>
      </trkpt>
      <trkpt lat="43.87933" lon="7.44661">
        <ele>360</ele>
        <time>2017-08-28T13:02:35Z</time>
      </trkpt>
      <trkpt lat="43.87942" lon="7.44639">
        <ele>359.4</ele>
        <time>2017-08-28T13:02:51Z</time>
      </trkpt>
      <trkpt lat="43.87957" lon="7.44624">
        <ele>359.5</ele>
        <time>2017-08-28T13:03:06Z</time>
      </trkpt>
      <trkpt lat="43.87957" lon="7.44624">
        <ele>359.5</ele>
        <time>2017-08-28T13:03:07Z</time>
      </trkpt>
      <trkpt lat="43.87964" lon="7.44621">
        <ele>360.1</ele>
        <time>2017-08-28T13:03:12Z</time>
      </trkpt>
      <trkpt lat="43.87963" lon="7.44618">
        <ele>359.2</ele>
        <time>2017-08-28T13:03:14Z</time>
      </trkpt>
      <trkpt lat="43.87961" lon="7.44616">
        <ele>358.5</ele>
        <time>2017-08-28T13:03:16Z</time>
      </trkpt>
      <trkpt lat="43.87952" lon="7.4462">
        <ele>357.9</ele>
        <time>2017-08-28T13:03:22Z</time>
      </trkpt>
      <trkpt lat="43.87936" lon="7.44629">
        <ele>356.3</ele>
        <time>2017-08-28T13:03:36Z</time>
      </trkpt>
      <trkpt lat="43.87923" lon="7.44635">
        <ele>354.1</ele>
        <time>2017-08-28T13:03:49Z</time>
      </trkpt>
      <trkpt lat="43.87921" lon="7.44636">
        <ele>353.7</ele>
        <time>2017-08-28T13:03:51Z</time>
      </trkpt>
      <trkpt lat="43.87908" lon="7.44643">
        <ele>351.5</ele>
        <time>2017-08-28T13:04:06Z</time>
      </trkpt>
      <trkpt lat="43.87889" lon="7.44658">
        <ele>347.7</ele>
        <time>2017-08-28T13:04:22Z</time>
      </trkpt>
      <trkpt lat="43.87881" lon="7.44661">
        <ele>346.1</ele>
        <time>2017-08-28T13:04:36Z</time>
      </trkpt>
      <trkpt lat="43.87867" lon="7.44677">
        <ele>343.6</ele>
        <time>2017-08-28T13:04:51Z</time>
      </trkpt>
      <trkpt lat="43.87856" lon="7.44701">
        <ele>342.4</ele>
        <time>2017-08-28T13:05:07Z</time>
      </trkpt>
      <trkpt lat="43.8785" lon="7.44715">
        <ele>341.5</ele>
        <time>2017-08-28T13:05:17Z</time>
      </trkpt>
      <trkpt lat="43.87847" lon="7.44725">
        <ele>341</ele>
        <time>2017-08-28T13:05:22Z</time>
      </trkpt>
      <trkpt lat="43.87842" lon="7.44733">
        <ele>340.2</ele>
        <time>2017-08-28T13:05:28Z</time>
      </trkpt>
      <trkpt lat="43.87824" lon="7.44731">
        <ele>341.2</ele>
        <time>2017-08-28T13:05:46Z</time>
      </trkpt>
      <trkpt lat="43.87822" lon="7.4473">
        <ele>341.7</ele>
        <time>2017-08-28T13:05:48Z</time>
      </trkpt>
      <trkpt lat="43.87815" lon="7.44729">
        <ele>343.5</ele>
        <time>2017-08-28T13:05:54Z</time>
      </trkpt>
      <trkpt lat="43.87808" lon="7.44727">
        <ele>345.2</ele>
        <time>2017-08-28T13:06:07Z</time>
      </trkpt>
      <trkpt lat="43.87802" lon="7.44729">
        <ele>346.4</ele>
        <time>2017-08-28T13:06:12Z</time>
      </trkpt>
      <trkpt lat="43.87796" lon="7.44728">
        <ele>347.5</ele>
        <time>2017-08-28T13:06:20Z</time>
      </trkpt>
      <trkpt lat="43.87792" lon="7.44731">
        <ele>348.1</ele>
        <time>2017-08-28T13:06:25Z</time>
      </trkpt>
      <trkpt lat="43.87785" lon="7.44737">
        <ele>349.2</ele>
        <time>2017-08-28T13:06:37Z</time>
      </trkpt>
      <trkpt lat="43.87785" lon="7.44737">
        <ele>349.2</ele>
        <time>2017-08-28T13:06:51Z</time>
      </trkpt>
      <trkpt lat="43.87782" lon="7.44732">
        <ele>349.9</ele>
        <time>2017-08-28T13:07:19Z</time>
      </trkpt>
      <trkpt lat="43.87776" lon="7.44732">
        <ele>350.8</ele>
        <time>2017-08-28T13:07:46Z</time>
      </trkpt>
      <trkpt lat="43.87776" lon="7.44732">
        <ele>350.8</ele>
        <time>2017-08-28T13:08:22Z</time>
      </trkpt>
      <trkpt lat="43.87776" lon="7.44736">
        <ele>350.7</ele>
        <time>2017-08-28T13:08:51Z</time>
      </trkpt>
      <trkpt lat="43.87777" lon="7.44737">
        <ele>350.6</ele>
        <time>2017-08-28T13:09:22Z</time>
      </trkpt>
      <trkpt lat="43.87773" lon="7.44744">
        <ele>350.7</ele>
        <time>2017-08-28T13:09:37Z</time>
      </trkpt>
      <trkpt lat="43.87771" lon="7.44747">
        <ele>350.8</ele>
        <time>2017-08-28T13:09:41Z</time>
      </trkpt>
      <trkpt lat="43.87769" lon="7.44747">
        <ele>351.1</ele>
        <time>2017-08-28T13:09:43Z</time>
      </trkpt>
      <trkpt lat="43.87769" lon="7.44748">
        <ele>351</ele>
        <time>2017-08-28T13:09:44Z</time>
      </trkpt>
      <trkpt lat="43.87769" lon="7.44749">
        <ele>351</ele>
        <time>2017-08-28T13:09:45Z</time>
      </trkpt>
      <trkpt lat="43.87769" lon="7.4475">
        <ele>350.9</ele>
        <time>2017-08-28T13:09:46Z</time>
      </trkpt>
      <trkpt lat="43.87769" lon="7.44752">
        <ele>350.9</ele>
        <time>2017-08-28T13:09:49Z</time>
      </trkpt>
      <trkpt lat="43.87769" lon="7.44752">
        <ele>350.9</ele>
        <time>2017-08-28T13:09:50Z</time>
      </trkpt>
      <trkpt lat="43.87769" lon="7.44752">
        <ele>350.9</ele>
        <time>2017-08-28T13:09:51Z</time>
      </trkpt>
      <trkpt lat="43.87769" lon="7.44752">
        <ele>350.9</ele>
        <time>2017-08-28T13:09:52Z</time>
      </trkpt>
      <trkpt lat="43.87766" lon="7.44756">
        <ele>351.2</ele>
        <time>2017-08-28T13:10:02Z</time>
      </trkpt>
      <trkpt lat="43.87766" lon="7.44756">
        <ele>351.2</ele>
        <time>2017-08-28T13:10:30Z</time>
      </trkpt>
      <trkpt lat="43.87757" lon="7.4475">
        <ele>352.2</ele>
        <time>2017-08-28T13:10:55Z</time>
      </trkpt>
      <trkpt lat="43.87757" lon="7.4475">
        <ele>352.2</ele>
        <time>2017-08-28T13:11:22Z</time>
      </trkpt>
      <trkpt lat="43.87758" lon="7.44752">
        <ele>352.1</ele>
        <time>2017-08-28T13:11:54Z</time>
      </trkpt>
      <trkpt lat="43.87757" lon="7.44751">
        <ele>352.2</ele>
        <time>2017-08-28T13:12:20Z</time>
      </trkpt>
      <trkpt lat="43.87757" lon="7.44751">
        <ele>352.2</ele>
        <time>2017-08-28T13:12:45Z</time>
      </trkpt>
      <trkpt lat="43.87754" lon="7.44753">
        <ele>352.5</ele>
        <time>2017-08-28T13:13:13Z</time>
      </trkpt>
      <trkpt lat="43.87752" lon="7.4475">
        <ele>352.8</ele>
        <time>2017-08-28T13:13:39Z</time>
      </trkpt>
      <trkpt lat="43.87752" lon="7.44749">
        <ele>352.8</ele>
        <time>2017-08-28T13:14:13Z</time>
      </trkpt>
      <trkpt lat="43.87752" lon="7.44749">
        <ele>352.8</ele>
        <time>2017-08-28T13:14:41Z</time>
      </trkpt>
      <trkpt lat="43.87752" lon="7.44748">
        <ele>352.9</ele>
        <time>2017-08-28T13:15:16Z</time>
      </trkpt>
      <trkpt lat="43.87752" lon="7.44748">
        <ele>352.9</ele>
        <time>2017-08-28T13:15:45Z</time>
      </trkpt>
      <trkpt lat="43.87753" lon="7.44748">
        <ele>352.7</ele>
        <time>2017-08-28T13:16:14Z</time>
      </trkpt>
      <trkpt lat="43.87753" lon="7.44748">
        <ele>352.7</ele>
        <time>2017-08-28T13:16:33Z</time>
      </trkpt>
      <trkpt lat="43.87754" lon="7.44748">
        <ele>352.6</ele>
        <time>2017-08-28T13:17:08Z</time>
      </trkpt>
      <trkpt lat="43.87754" lon="7.44748">
        <ele>352.6</ele>
        <time>2017-08-28T13:17:45Z</time>
      </trkpt>
      <trkpt lat="43.87754" lon="7.44748">
        <ele>352.6</ele>
        <time>2017-08-28T13:18:15Z</time>
      </trkpt>
      <trkpt lat="43.87754" lon="7.44748">
        <ele>352.6</ele>
        <time>2017-08-28T13:18:51Z</time>
      </trkpt>
      <trkpt lat="43.87755" lon="7.44748">
        <ele>352.5</ele>
        <time>2017-08-28T13:19:26Z</time>
      </trkpt>
      <trkpt lat="43.87754" lon="7.44747">
        <ele>352.7</ele>
        <time>2017-08-28T13:20:03Z</time>
      </trkpt>
      <trkpt lat="43.87754" lon="7.44746">
        <ele>352.7</ele>
        <time>2017-08-28T13:20:39Z</time>
      </trkpt>
      <trkpt lat="43.87754" lon="7.44746">
        <ele>352.7</ele>
        <time>2017-08-28T13:21:04Z</time>
      </trkpt>
      <trkpt lat="43.87755" lon="7.44746">
        <ele>352.6</ele>
        <time>2017-08-28T13:21:36Z</time>
      </trkpt>
      <trkpt lat="43.87755" lon="7.44746">
        <ele>352.6</ele>
        <time>2017-08-28T13:22:08Z</time>
      </trkpt>
      <trkpt lat="43.87755" lon="7.44746">
        <ele>352.6</ele>
        <time>2017-08-28T13:22:38Z</time>
      </trkpt>
      <trkpt lat="43.87755" lon="7.44746">
        <ele>352.6</ele>
        <time>2017-08-28T13:22:56Z</time>
      </trkpt>
    </trkseg>
  </trk>
  <trk>
    <name><![CDATA[20171017105021-22F3R]]></name>
    <trkseg>
      <trkpt lat="43.875" lon="7.45488">
        <ele>386.4</ele>
        <time>2017-08-29T06:07:10Z</time>
      </trkpt>
      <trkpt lat="43.87501" lon="7.45489">
        <ele>385.9</ele>
        <time>2017-08-29T06:07:12Z</time>
      </trkpt>
      <trkpt lat="43.87504" lon="7.455">
        <ele>384.3</ele>
        <time>2017-08-29T06:07:25Z</time>
      </trkpt>
      <trkpt lat="43.87504" lon="7.45503">
        <ele>384.2</ele>
        <time>2017-08-29T06:07:28Z</time>
      </trkpt>
      <trkpt lat="43.87503" lon="7.45514">
        <ele>384.3</ele>
        <time>2017-08-29T06:07:41Z</time>
      </trkpt>
      <trkpt lat="43.87502" lon="7.45518">
        <ele>384.5</ele>
        <time>2017-08-29T06:07:45Z</time>
      </trkpt>
      <trkpt lat="43.87495" lon="7.45533">
        <ele>387.1</ele>
        <time>2017-08-29T06:07:59Z</time>
      </trkpt>
      <trkpt lat="43.87489" lon="7.45548">
        <ele>389.2</ele>
        <time>2017-08-29T06:08:13Z</time>
      </trkpt>
      <trkpt lat="43.87482" lon="7.45571">
        <ele>391.3</ele>
        <time>2017-08-29T06:08:30Z</time>
      </trkpt>
      <trkpt lat="43.87479" lon="7.45587">
        <ele>392.3</ele>
        <time>2017-08-29T06:08:45Z</time>
      </trkpt>
      <trkpt lat="43.87476" lon="7.45602">
        <ele>393.5</ele>
        <time>2017-08-29T06:08:57Z</time>
      </trkpt>
      <trkpt lat="43.87472" lon="7.45618">
        <ele>394.8</ele>
        <time>2017-08-29T06:09:11Z</time>
      </trkpt>
      <trkpt lat="43.87466" lon="7.45636">
        <ele>396.6</ele>
        <time>2017-08-29T06:09:26Z</time>
      </trkpt>
      <trkpt lat="43.87456" lon="7.45648">
        <ele>399.8</ele>
        <time>2017-08-29T06:09:41Z</time>
      </trkpt>
      <trkpt lat="43.87444" lon="7.45661">
        <ele>403.6</ele>
        <time>2017-08-29T06:09:57Z</time>
      </trkpt>
      <trkpt lat="43.87437" lon="7.45672">
        <ele>405.9</ele>
        <time>2017-08-29T06:10:06Z</time>
      </trkpt>
      <trkpt lat="43.87435" lon="7.45677">
        <ele>406.6</ele>
        <time>2017-08-29T06:10:10Z</time>
      </trkpt>
      <trkpt lat="43.87433" lon="7.45683">
        <ele>407.3</ele>
        <time>2017-08-29T06:10:15Z</time>
      </trkpt>
      <trkpt lat="43.87431" lon="7.45687">
        <ele>408</ele>
        <time>2017-08-29T06:10:18Z</time>
      </trkpt>
      <trkpt lat="43.87431" lon="7.45688">
        <ele>408</ele>
        <time>2017-08-29T06:10:19Z</time>
      </trkpt>
      <trkpt lat="43.8743" lon="7.45693">
        <ele>408.2</ele>
        <time>2017-08-29T06:10:23Z</time>
      </trkpt>
      <trkpt lat="43.87431" lon="7.45698">
        <ele>408</ele>
        <time>2017-08-29T06:10:27Z</time>
      </trkpt>
      <trkpt lat="43.87432" lon="7.45702">
        <ele>407.9</ele>
        <time>2017-08-29T06:10:30Z</time>
      </trkpt>
      <trkpt lat="43.87436" lon="7.45713">
        <ele>407.2</ele>
        <time>2017-08-29T06:10:40Z</time>
      </trkpt>
      <trkpt lat="43.87443" lon="7.45731">
        <ele>407</ele>
        <time>2017-08-29T06:10:56Z</time>
      </trkpt>
      <trkpt lat="43.87447" lon="7.45742">
        <ele>408</ele>
        <time>2017-08-29T06:11:05Z</time>
      </trkpt>
      <trkpt lat="43.8745" lon="7.45751">
        <ele>408.9</ele>
        <time>2017-08-29T06:11:12Z</time>
      </trkpt>
      <trkpt lat="43.8745" lon="7.45776">
        <ele>411.4</ele>
        <time>2017-08-29T06:11:28Z</time>
      </trkpt>
      <trkpt lat="43.87449" lon="7.45782">
        <ele>412.2</ele>
        <time>2017-08-29T06:11:32Z</time>
      </trkpt>
      <trkpt lat="43.87448" lon="7.4579">
        <ele>413</ele>
        <time>2017-08-29T06:11:37Z</time>
      </trkpt>
      <trkpt lat="43.8745" lon="7.45796">
        <ele>412.9</ele>
        <time>2017-08-29T06:11:42Z</time>
      </trkpt>
      <trkpt lat="43.87454" lon="7.45822">
        <ele>414.2</ele>
        <time>2017-08-29T06:11:56Z</time>
      </trkpt>
      <trkpt lat="43.87455" lon="7.45848">
        <ele>415.4</ele>
        <time>2017-08-29T06:12:11Z</time>
      </trkpt>
      <trkpt lat="43.87453" lon="7.45872">
        <ele>417.4</ele>
        <time>2017-08-29T06:12:27Z</time>
      </trkpt>
      <trkpt lat="43.87453" lon="7.45881">
        <ele>418</ele>
        <time>2017-08-29T06:12:33Z</time>
      </trkpt>
      <trkpt lat="43.87449" lon="7.45907">
        <ele>421.4</ele>
        <time>2017-08-29T06:12:51Z</time>
      </trkpt>
      <trkpt lat="43.87449" lon="7.45908">
        <ele>421.5</ele>
        <time>2017-08-29T06:12:52Z</time>
      </trkpt>
      <trkpt lat="43.87448" lon="7.45912">
        <ele>422.1</ele>
        <time>2017-08-29T06:12:55Z</time>
      </trkpt>
      <trkpt lat="43.87445" lon="7.45938">
        <ele>423.8</ele>
        <time>2017-08-29T06:13:12Z</time>
      </trkpt>
      <trkpt lat="43.87441" lon="7.45956">
        <ele>425.2</ele>
        <time>2017-08-29T06:13:26Z</time>
      </trkpt>
      <trkpt lat="43.87441" lon="7.45956">
        <ele>425.2</ele>
        <time>2017-08-29T06:13:40Z</time>
      </trkpt>
      <trkpt lat="43.87439" lon="7.45961">
        <ele>425.8</ele>
        <time>2017-08-29T06:13:48Z</time>
      </trkpt>
      <trkpt lat="43.87436" lon="7.45972">
        <ele>426.7</ele>
        <time>2017-08-29T06:14:00Z</time>
      </trkpt>
      <trkpt lat="43.87432" lon="7.45978">
        <ele>427.5</ele>
        <time>2017-08-29T06:14:06Z</time>
      </trkpt>
      <trkpt lat="43.87427" lon="7.45987">
        <ele>428.3</ele>
        <time>2017-08-29T06:14:16Z</time>
      </trkpt>
      <trkpt lat="43.87413" lon="7.45998">
        <ele>431.5</ele>
        <time>2017-08-29T06:14:33Z</time>
      </trkpt>
      <trkpt lat="43.87401" lon="7.46004">
        <ele>434.9</ele>
        <time>2017-08-29T06:14:51Z</time>
      </trkpt>
      <trkpt lat="43.87396" lon="7.46005">
        <ele>436.5</ele>
        <time>2017-08-29T06:15:03Z</time>
      </trkpt>
      <trkpt lat="43.87389" lon="7.46017">
        <ele>436.3</ele>
        <time>2017-08-29T06:15:18Z</time>
      </trkpt>
      <trkpt lat="43.87388" lon="7.46018">
        <ele>436.4</ele>
        <time>2017-08-29T06:15:32Z</time>
      </trkpt>
      <trkpt lat="43.87389" lon="7.46019">
        <ele>435.9</ele>
        <time>2017-08-29T06:16:10Z</time>
      </trkpt>
      <trkpt lat="43.8739" lon="7.46019">
        <ele>435.6</ele>
        <time>2017-08-29T06:16:45Z</time>
      </trkpt>
      <trkpt lat="43.8739" lon="7.46019">
        <ele>435.6</ele>
        <time>2017-08-29T06:17:12Z</time>
      </trkpt>
      <trkpt lat="43.87388" lon="7.4602">
        <ele>436</ele>
        <time>2017-08-29T06:17:29Z</time>
      </trkpt>
      <trkpt lat="43.87384" lon="7.46024">
        <ele>436.4</ele>
        <time>2017-08-29T06:17:33Z</time>
      </trkpt>
      <trkpt lat="43.87381" lon="7.46029">
        <ele>436.3</ele>
        <time>2017-08-29T06:17:37Z</time>
      </trkpt>
      <trkpt lat="43.87371" lon="7.46039">
        <ele>437</ele>
        <time>2017-08-29T06:17:50Z</time>
      </trkpt>
      <trkpt lat="43.87358" lon="7.46053">
        <ele>436.8</ele>
        <time>2017-08-29T06:18:06Z</time>
      </trkpt>
      <trkpt lat="43.87347" lon="7.46063">
        <ele>439.4</ele>
        <time>2017-08-29T06:18:20Z</time>
      </trkpt>
      <trkpt lat="43.87335" lon="7.46073">
        <ele>442.9</ele>
        <time>2017-08-29T06:18:33Z</time>
      </trkpt>
      <trkpt lat="43.87323" lon="7.46083">
        <ele>446.4</ele>
        <time>2017-08-29T06:18:44Z</time>
      </trkpt>
      <trkpt lat="43.87323" lon="7.46086">
        <ele>447.3</ele>
        <time>2017-08-29T06:18:46Z</time>
      </trkpt>
      <trkpt lat="43.87324" lon="7.46092">
        <ele>449</ele>
        <time>2017-08-29T06:18:49Z</time>
      </trkpt>
      <trkpt lat="43.87331" lon="7.46108">
        <ele>451.2</ele>
        <time>2017-08-29T06:19:03Z</time>
      </trkpt>
      <trkpt lat="43.87341" lon="7.46119">
        <ele>451.6</ele>
        <time>2017-08-29T06:19:15Z</time>
      </trkpt>
      <trkpt lat="43.87354" lon="7.46134">
        <ele>453.4</ele>
        <time>2017-08-29T06:19:30Z</time>
      </trkpt>
      <trkpt lat="43.87361" lon="7.46142">
        <ele>454.7</ele>
        <time>2017-08-29T06:19:39Z</time>
      </trkpt>
      <trkpt lat="43.87379" lon="7.46144">
        <ele>454</ele>
        <time>2017-08-29T06:19:52Z</time>
      </trkpt>
      <trkpt lat="43.87399" lon="7.46153">
        <ele>455.9</ele>
        <time>2017-08-29T06:20:08Z</time>
      </trkpt>
      <trkpt lat="43.87408" lon="7.46164">
        <ele>459</ele>
        <time>2017-08-29T06:20:20Z</time>
      </trkpt>
      <trkpt lat="43.87414" lon="7.46184">
        <ele>461.5</ele>
        <time>2017-08-29T06:20:36Z</time>
      </trkpt>
      <trkpt lat="43.8741" lon="7.4621">
        <ele>465.8</ele>
        <time>2017-08-29T06:20:53Z</time>
      </trkpt>
      <trkpt lat="43.8741" lon="7.46224">
        <ele>467.3</ele>
        <time>2017-08-29T06:21:01Z</time>
      </trkpt>
      <trkpt lat="43.8741" lon="7.46254">
        <ele>470.7</ele>
        <time>2017-08-29T06:21:18Z</time>
      </trkpt>
      <trkpt lat="43.87412" lon="7.46273">
        <ele>471.3</ele>
        <time>2017-08-29T06:21:29Z</time>
      </trkpt>
      <trkpt lat="43.87418" lon="7.463">
        <ele>470.9</ele>
        <time>2017-08-29T06:21:45Z</time>
      </trkpt>
      <trkpt lat="43.87417" lon="7.4631">
        <ele>472</ele>
        <time>2017-08-29T06:21:51Z</time>
      </trkpt>
      <trkpt lat="43.87415" lon="7.46342">
        <ele>474.7</ele>
        <time>2017-08-29T06:22:09Z</time>
      </trkpt>
      <trkpt lat="43.87416" lon="7.46367">
        <ele>475.6</ele>
        <time>2017-08-29T06:22:23Z</time>
      </trkpt>
      <trkpt lat="43.87416" lon="7.46378">
        <ele>476.1</ele>
        <time>2017-08-29T06:22:30Z</time>
      </trkpt>
      <trkpt lat="43.87413" lon="7.46403">
        <ele>479.5</ele>
        <time>2017-08-29T06:22:45Z</time>
      </trkpt>
      <trkpt lat="43.87411" lon="7.46422">
        <ele>482.3</ele>
        <time>2017-08-29T06:22:57Z</time>
      </trkpt>
      <trkpt lat="43.87416" lon="7.46437">
        <ele>479.9</ele>
        <time>2017-08-29T06:23:07Z</time>
      </trkpt>
      <trkpt lat="43.87427" lon="7.46458">
        <ele>477.4</ele>
        <time>2017-08-29T06:23:21Z</time>
      </trkpt>
      <trkpt lat="43.8743" lon="7.46475">
        <ele>478.8</ele>
        <time>2017-08-29T06:23:37Z</time>
      </trkpt>
      <trkpt lat="43.87431" lon="7.46479">
        <ele>479.1</ele>
        <time>2017-08-29T06:23:41Z</time>
      </trkpt>
      <trkpt lat="43.87438" lon="7.46497">
        <ele>478.9</ele>
        <time>2017-08-29T06:23:56Z</time>
      </trkpt>
      <trkpt lat="43.87442" lon="7.46518">
        <ele>480.1</ele>
        <time>2017-08-29T06:24:12Z</time>
      </trkpt>
      <trkpt lat="43.87441" lon="7.46532">
        <ele>482.7</ele>
        <time>2017-08-29T06:24:26Z</time>
      </trkpt>
      <trkpt lat="43.87435" lon="7.46547">
        <ele>488.4</ele>
        <time>2017-08-29T06:24:40Z</time>
      </trkpt>
      <trkpt lat="43.87433" lon="7.46552">
        <ele>490.4</ele>
        <time>2017-08-29T06:24:44Z</time>
      </trkpt>
      <trkpt lat="43.87428" lon="7.46567">
        <ele>494.7</ele>
        <time>2017-08-29T06:24:59Z</time>
      </trkpt>
      <trkpt lat="43.87424" lon="7.46578">
        <ele>497.8</ele>
        <time>2017-08-29T06:25:11Z</time>
      </trkpt>
      <trkpt lat="43.87419" lon="7.46593">
        <ele>501.4</ele>
        <time>2017-08-29T06:25:26Z</time>
      </trkpt>
      <trkpt lat="43.87417" lon="7.46603">
        <ele>502.8</ele>
        <time>2017-08-29T06:25:39Z</time>
      </trkpt>
      <trkpt lat="43.87413" lon="7.4661">
        <ele>506.2</ele>
        <time>2017-08-29T06:25:51Z</time>
      </trkpt>
      <trkpt lat="43.87413" lon="7.46624">
        <ele>506.2</ele>
        <time>2017-08-29T06:26:05Z</time>
      </trkpt>
      <trkpt lat="43.87412" lon="7.46629">
        <ele>507</ele>
        <time>2017-08-29T06:26:20Z</time>
      </trkpt>
      <trkpt lat="43.87412" lon="7.46645">
        <ele>506.8</ele>
        <time>2017-08-29T06:26:34Z</time>
      </trkpt>
      <trkpt lat="43.87408" lon="7.4665">
        <ele>510</ele>
        <time>2017-08-29T06:26:49Z</time>
      </trkpt>
      <trkpt lat="43.87405" lon="7.46656">
        <ele>512.2</ele>
        <time>2017-08-29T06:26:54Z</time>
      </trkpt>
      <trkpt lat="43.87401" lon="7.46671">
        <ele>514.9</ele>
        <time>2017-08-29T06:27:09Z</time>
      </trkpt>
      <trkpt lat="43.87402" lon="7.46681">
        <ele>514.1</ele>
        <time>2017-08-29T06:27:23Z</time>
      </trkpt>
      <trkpt lat="43.87402" lon="7.46692">
        <ele>514</ele>
        <time>2017-08-29T06:27:38Z</time>
      </trkpt>
      <trkpt lat="43.87398" lon="7.46706">
        <ele>518.7</ele>
        <time>2017-08-29T06:27:51Z</time>
      </trkpt>
      <trkpt lat="43.87396" lon="7.46714">
        <ele>521</ele>
        <time>2017-08-29T06:27:59Z</time>
      </trkpt>
      <trkpt lat="43.8739" lon="7.46719">
        <ele>524.3</ele>
        <time>2017-08-29T06:28:10Z</time>
      </trkpt>
      <trkpt lat="43.87384" lon="7.46725">
        <ele>527.5</ele>
        <time>2017-08-29T06:28:25Z</time>
      </trkpt>
      <trkpt lat="43.87375" lon="7.46738">
        <ele>532.1</ele>
        <time>2017-08-29T06:28:42Z</time>
      </trkpt>
      <trkpt lat="43.87365" lon="7.46748">
        <ele>535.2</ele>
        <time>2017-08-29T06:29:01Z</time>
      </trkpt>
      <trkpt lat="43.8736" lon="7.46748">
        <ele>536.5</ele>
        <time>2017-08-29T06:29:16Z</time>
      </trkpt>
      <trkpt lat="43.87351" lon="7.46749">
        <ele>539.7</ele>
        <time>2017-08-29T06:29:33Z</time>
      </trkpt>
      <trkpt lat="43.87343" lon="7.46755">
        <ele>542.2</ele>
        <time>2017-08-29T06:29:51Z</time>
      </trkpt>
      <trkpt lat="43.87338" lon="7.46773">
        <ele>542.3</ele>
        <time>2017-08-29T06:30:03Z</time>
      </trkpt>
      <trkpt lat="43.87338" lon="7.46774">
        <ele>542.2</ele>
        <time>2017-08-29T06:30:04Z</time>
      </trkpt>
      <trkpt lat="43.87337" lon="7.46777">
        <ele>542.1</ele>
        <time>2017-08-29T06:30:06Z</time>
      </trkpt>
      <trkpt lat="43.87331" lon="7.46792">
        <ele>542.1</ele>
        <time>2017-08-29T06:30:18Z</time>
      </trkpt>
      <trkpt lat="43.8733" lon="7.46799">
        <ele>541.6</ele>
        <time>2017-08-29T06:30:22Z</time>
      </trkpt>
      <trkpt lat="43.87315" lon="7.46814">
        <ele>545.4</ele>
        <time>2017-08-29T06:30:37Z</time>
      </trkpt>
      <trkpt lat="43.87301" lon="7.46828">
        <ele>547.5</ele>
        <time>2017-08-29T06:30:51Z</time>
      </trkpt>
      <trkpt lat="43.87289" lon="7.46839">
        <ele>551.1</ele>
        <time>2017-08-29T06:31:03Z</time>
      </trkpt>
      <trkpt lat="43.87281" lon="7.46848">
        <ele>552.4</ele>
        <time>2017-08-29T06:31:13Z</time>
      </trkpt>
      <trkpt lat="43.87276" lon="7.46864">
        <ele>548.8</ele>
        <time>2017-08-29T06:31:26Z</time>
      </trkpt>
      <trkpt lat="43.87273" lon="7.46872">
        <ele>547.1</ele>
        <time>2017-08-29T06:31:33Z</time>
      </trkpt>
      <trkpt lat="43.87271" lon="7.46875">
        <ele>546.9</ele>
        <time>2017-08-29T06:31:36Z</time>
      </trkpt>
      <trkpt lat="43.87265" lon="7.46883">
        <ele>546.5</ele>
        <time>2017-08-29T06:31:43Z</time>
      </trkpt>
      <trkpt lat="43.87261" lon="7.46887">
        <ele>546.7</ele>
        <time>2017-08-29T06:31:48Z</time>
      </trkpt>
      <trkpt lat="43.87246" lon="7.46898">
        <ele>547.9</ele>
        <time>2017-08-29T06:32:03Z</time>
      </trkpt>
      <trkpt lat="43.87235" lon="7.46903">
        <ele>548.7</ele>
        <time>2017-08-29T06:32:15Z</time>
      </trkpt>
      <trkpt lat="43.87224" lon="7.46903">
        <ele>551.9</ele>
        <time>2017-08-29T06:32:24Z</time>
      </trkpt>
      <trkpt lat="43.87213" lon="7.46905">
        <ele>554.3</ele>
        <time>2017-08-29T06:32:36Z</time>
      </trkpt>
      <trkpt lat="43.87204" lon="7.46907">
        <ele>556.1</ele>
        <time>2017-08-29T06:32:48Z</time>
      </trkpt>
      <trkpt lat="43.87197" lon="7.46911">
        <ele>556.2</ele>
        <time>2017-08-29T06:32:56Z</time>
      </trkpt>
      <trkpt lat="43.87183" lon="7.46914">
        <ele>559.5</ele>
        <time>2017-08-29T06:33:08Z</time>
      </trkpt>
      <trkpt lat="43.87176" lon="7.46917">
        <ele>560.5</ele>
        <time>2017-08-29T06:33:15Z</time>
      </trkpt>
      <trkpt lat="43.87163" lon="7.46923">
        <ele>563.2</ele>
        <time>2017-08-29T06:33:29Z</time>
      </trkpt>
      <trkpt lat="43.87155" lon="7.46925">
        <ele>565.8</ele>
        <time>2017-08-29T06:33:40Z</time>
      </trkpt>
      <trkpt lat="43.87148" lon="7.46926">
        <ele>568.5</ele>
        <time>2017-08-29T06:33:45Z</time>
      </trkpt>
      <trkpt lat="43.87137" lon="7.46933">
        <ele>571.9</ele>
        <time>2017-08-29T06:33:56Z</time>
      </trkpt>
      <trkpt lat="43.87123" lon="7.4695">
        <ele>576</ele>
        <time>2017-08-29T06:34:11Z</time>
      </trkpt>
      <trkpt lat="43.87125" lon="7.46973">
        <ele>573.5</ele>
        <time>2017-08-29T06:34:26Z</time>
      </trkpt>
      <trkpt lat="43.87128" lon="7.46981">
        <ele>572</ele>
        <time>2017-08-29T06:34:30Z</time>
      </trkpt>
      <trkpt lat="43.87134" lon="7.47005">
        <ele>569.4</ele>
        <time>2017-08-29T06:34:44Z</time>
      </trkpt>
      <trkpt lat="43.87132" lon="7.47021">
        <ele>571.3</ele>
        <time>2017-08-29T06:34:55Z</time>
      </trkpt>
      <trkpt lat="43.8713" lon="7.47027">
        <ele>572.5</ele>
        <time>2017-08-29T06:35:00Z</time>
      </trkpt>
      <trkpt lat="43.87131" lon="7.4703">
        <ele>572.3</ele>
        <time>2017-08-29T06:35:02Z</time>
      </trkpt>
      <trkpt lat="43.87127" lon="7.47046">
        <ele>574.7</ele>
        <time>2017-08-29T06:35:14Z</time>
      </trkpt>
      <trkpt lat="43.87123" lon="7.4706">
        <ele>577</ele>
        <time>2017-08-29T06:35:23Z</time>
      </trkpt>
      <trkpt lat="43.87122" lon="7.47065">
        <ele>577.8</ele>
        <time>2017-08-29T06:35:27Z</time>
      </trkpt>
      <trkpt lat="43.87124" lon="7.47085">
        <ele>578.4</ele>
        <time>2017-08-29T06:35:39Z</time>
      </trkpt>
      <trkpt lat="43.87125" lon="7.471">
        <ele>578.9</ele>
        <time>2017-08-29T06:35:47Z</time>
      </trkpt>
      <trkpt lat="43.87126" lon="7.47108">
        <ele>579</ele>
        <time>2017-08-29T06:35:52Z</time>
      </trkpt>
      <trkpt lat="43.87128" lon="7.47123">
        <ele>579.6</ele>
        <time>2017-08-29T06:36:02Z</time>
      </trkpt>
      <trkpt lat="43.87128" lon="7.47128">
        <ele>580.1</ele>
        <time>2017-08-29T06:36:05Z</time>
      </trkpt>
      <trkpt lat="43.87129" lon="7.47136">
        <ele>580.6</ele>
        <time>2017-08-29T06:36:10Z</time>
      </trkpt>
      <trkpt lat="43.87134" lon="7.47159">
        <ele>580.9</ele>
        <time>2017-08-29T06:36:26Z</time>
      </trkpt>
      <trkpt lat="43.87135" lon="7.47183">
        <ele>582.9</ele>
        <time>2017-08-29T06:36:42Z</time>
      </trkpt>
      <trkpt lat="43.87138" lon="7.47205">
        <ele>583.6</ele>
        <time>2017-08-29T06:36:57Z</time>
      </trkpt>
      <trkpt lat="43.87138" lon="7.47209">
        <ele>583.8</ele>
        <time>2017-08-29T06:37:00Z</time>
      </trkpt>
      <trkpt lat="43.87139" lon="7.47235">
        <ele>584.9</ele>
        <time>2017-08-29T06:37:17Z</time>
      </trkpt>
      <trkpt lat="43.87138" lon="7.47249">
        <ele>586.2</ele>
        <time>2017-08-29T06:37:27Z</time>
      </trkpt>
      <trkpt lat="43.87136" lon="7.47263">
        <ele>587.3</ele>
        <time>2017-08-29T06:37:37Z</time>
      </trkpt>
      <trkpt lat="43.87134" lon="7.47287">
        <ele>588.7</ele>
        <time>2017-08-29T06:37:53Z</time>
      </trkpt>
      <trkpt lat="43.87129" lon="7.47308">
        <ele>590.5</ele>
        <time>2017-08-29T06:38:07Z</time>
      </trkpt>
      <trkpt lat="43.87127" lon="7.47313">
        <ele>591</ele>
        <time>2017-08-29T06:38:11Z</time>
      </trkpt>
      <trkpt lat="43.87118" lon="7.47332">
        <ele>592.8</ele>
        <time>2017-08-29T06:38:27Z</time>
      </trkpt>
      <trkpt lat="43.87109" lon="7.47344">
        <ele>595.2</ele>
        <time>2017-08-29T06:38:41Z</time>
      </trkpt>
      <trkpt lat="43.87108" lon="7.47346">
        <ele>595.5</ele>
        <time>2017-08-29T06:38:45Z</time>
      </trkpt>
      <trkpt lat="43.87106" lon="7.47346">
        <ele>595.8</ele>
        <time>2017-08-29T06:38:47Z</time>
      </trkpt>
      <trkpt lat="43.87095" lon="7.47354">
        <ele>598.1</ele>
        <time>2017-08-29T06:39:02Z</time>
      </trkpt>
      <trkpt lat="43.87077" lon="7.47363">
        <ele>601.5</ele>
        <time>2017-08-29T06:39:19Z</time>
      </trkpt>
      <trkpt lat="43.87063" lon="7.47373">
        <ele>604.7</ele>
        <time>2017-08-29T06:39:35Z</time>
      </trkpt>
      <trkpt lat="43.87063" lon="7.47374">
        <ele>604.7</ele>
        <time>2017-08-29T06:39:36Z</time>
      </trkpt>
      <trkpt lat="43.87052" lon="7.47391">
        <ele>607.7</ele>
        <time>2017-08-29T06:39:53Z</time>
      </trkpt>
      <trkpt lat="43.87046" lon="7.47406">
        <ele>610.9</ele>
        <time>2017-08-29T06:40:07Z</time>
      </trkpt>
      <trkpt lat="43.87042" lon="7.47416">
        <ele>612.8</ele>
        <time>2017-08-29T06:40:22Z</time>
      </trkpt>
      <trkpt lat="43.87038" lon="7.47428">
        <ele>615.3</ele>
        <time>2017-08-29T06:40:38Z</time>
      </trkpt>
      <trkpt lat="43.87037" lon="7.4743">
        <ele>615.8</ele>
        <time>2017-08-29T06:40:58Z</time>
      </trkpt>
      <trkpt lat="43.87037" lon="7.4743">
        <ele>615.8</ele>
        <time>2017-08-29T06:41:21Z</time>
      </trkpt>
      <trkpt lat="43.87037" lon="7.4743">
        <ele>615.8</ele>
        <time>2017-08-29T06:41:57Z</time>
      </trkpt>
      <trkpt lat="43.87037" lon="7.47431">
        <ele>615.9</ele>
        <time>2017-08-29T06:42:29Z</time>
      </trkpt>
      <trkpt lat="43.87037" lon="7.4743">
        <ele>615.8</ele>
        <time>2017-08-29T06:43:04Z</time>
      </trkpt>
      <trkpt lat="43.87037" lon="7.47431">
        <ele>615.9</ele>
        <time>2017-08-29T06:43:34Z</time>
      </trkpt>
      <trkpt lat="43.87038" lon="7.47431">
        <ele>615.5</ele>
        <time>2017-08-29T06:44:09Z</time>
      </trkpt>
      <trkpt lat="43.87038" lon="7.47431">
        <ele>615.5</ele>
        <time>2017-08-29T06:44:36Z</time>
      </trkpt>
      <trkpt lat="43.87038" lon="7.47431">
        <ele>615.5</ele>
        <time>2017-08-29T06:45:01Z</time>
      </trkpt>
      <trkpt lat="43.87038" lon="7.47431">
        <ele>615.5</ele>
        <time>2017-08-29T06:45:37Z</time>
      </trkpt>
      <trkpt lat="43.87036" lon="7.47433">
        <ele>616.4</ele>
        <time>2017-08-29T06:46:10Z</time>
      </trkpt>
      <trkpt lat="43.87028" lon="7.47441">
        <ele>619.8</ele>
        <time>2017-08-29T06:46:25Z</time>
      </trkpt>
      <trkpt lat="43.87022" lon="7.47445">
        <ele>622.3</ele>
        <time>2017-08-29T06:46:41Z</time>
      </trkpt>
      <trkpt lat="43.87022" lon="7.47446">
        <ele>622.3</ele>
        <time>2017-08-29T06:47:00Z</time>
      </trkpt>
      <trkpt lat="43.87017" lon="7.47455">
        <ele>624.2</ele>
        <time>2017-08-29T06:47:16Z</time>
      </trkpt>
      <trkpt lat="43.87012" lon="7.47467">
        <ele>625.7</ele>
        <time>2017-08-29T06:47:34Z</time>
      </trkpt>
      <trkpt lat="43.87008" lon="7.47476">
        <ele>626.6</ele>
        <time>2017-08-29T06:47:47Z</time>
      </trkpt>
      <trkpt lat="43.87005" lon="7.47481">
        <ele>627.4</ele>
        <time>2017-08-29T06:48:01Z</time>
      </trkpt>
      <trkpt lat="43.87004" lon="7.47488">
        <ele>627.4</ele>
        <time>2017-08-29T06:48:16Z</time>
      </trkpt>
      <trkpt lat="43.86997" lon="7.47495">
        <ele>628.7</ele>
        <time>2017-08-29T06:48:31Z</time>
      </trkpt>
      <trkpt lat="43.86985" lon="7.47504">
        <ele>629.6</ele>
        <time>2017-08-29T06:48:46Z</time>
      </trkpt>
      <trkpt lat="43.86978" lon="7.47508">
        <ele>629.9</ele>
        <time>2017-08-29T06:49:00Z</time>
      </trkpt>
      <trkpt lat="43.86968" lon="7.47506">
        <ele>630.9</ele>
        <time>2017-08-29T06:49:14Z</time>
      </trkpt>
      <trkpt lat="43.86961" lon="7.47505">
        <ele>631.1</ele>
        <time>2017-08-29T06:49:27Z</time>
      </trkpt>
      <trkpt lat="43.86951" lon="7.47501">
        <ele>632.4</ele>
        <time>2017-08-29T06:49:43Z</time>
      </trkpt>
      <trkpt lat="43.86939" lon="7.475">
        <ele>632.8</ele>
        <time>2017-08-29T06:49:59Z</time>
      </trkpt>
      <trkpt lat="43.86931" lon="7.47499">
        <ele>632.9</ele>
        <time>2017-08-29T06:50:12Z</time>
      </trkpt>
      <trkpt lat="43.86917" lon="7.475">
        <ele>632</ele>
        <time>2017-08-29T06:50:28Z</time>
      </trkpt>
      <trkpt lat="43.86902" lon="7.47498">
        <ele>634</ele>
        <time>2017-08-29T06:50:43Z</time>
      </trkpt>
      <trkpt lat="43.86886" lon="7.47495">
        <ele>636.8</ele>
        <time>2017-08-29T06:50:57Z</time>
      </trkpt>
      <trkpt lat="43.86874" lon="7.47493">
        <ele>639.8</ele>
        <time>2017-08-29T06:51:11Z</time>
      </trkpt>
      <trkpt lat="43.86865" lon="7.47492">
        <ele>641.8</ele>
        <time>2017-08-29T06:51:26Z</time>
      </trkpt>
      <trkpt lat="43.86858" lon="7.47492">
        <ele>643.4</ele>
        <time>2017-08-29T06:51:40Z</time>
      </trkpt>
      <trkpt lat="43.86849" lon="7.47491">
        <ele>646.4</ele>
        <time>2017-08-29T06:51:54Z</time>
      </trkpt>
      <trkpt lat="43.86845" lon="7.47492">
        <ele>647.1</ele>
        <time>2017-08-29T06:52:11Z</time>
      </trkpt>
      <trkpt lat="43.86828" lon="7.47498">
        <ele>650</ele>
        <time>2017-08-29T06:52:23Z</time>
      </trkpt>
      <trkpt lat="43.86814" lon="7.47505">
        <ele>652.7</ele>
        <time>2017-08-29T06:52:38Z</time>
      </trkpt>
      <trkpt lat="43.86798" lon="7.47511">
        <ele>658.2</ele>
        <time>2017-08-29T06:52:53Z</time>
      </trkpt>
      <trkpt lat="43.8678" lon="7.47526">
        <ele>664.1</ele>
        <time>2017-08-29T06:53:08Z</time>
      </trkpt>
      <trkpt lat="43.86765" lon="7.47542">
        <ele>669.7</ele>
        <time>2017-08-29T06:53:23Z</time>
      </trkpt>
      <trkpt lat="43.86753" lon="7.47555">
        <ele>673.3</ele>
        <time>2017-08-29T06:53:37Z</time>
      </trkpt>
      <trkpt lat="43.86743" lon="7.47565">
        <ele>676</ele>
        <time>2017-08-29T06:53:52Z</time>
      </trkpt>
      <trkpt lat="43.86729" lon="7.47579">
        <ele>680.1</ele>
        <time>2017-08-29T06:54:06Z</time>
      </trkpt>
      <trkpt lat="43.86715" lon="7.47592">
        <ele>683.4</ele>
        <time>2017-08-29T06:54:21Z</time>
      </trkpt>
      <trkpt lat="43.86703" lon="7.47606">
        <ele>683.8</ele>
        <time>2017-08-29T06:54:37Z</time>
      </trkpt>
      <trkpt lat="43.86698" lon="7.47612">
        <ele>683.8</ele>
        <time>2017-08-29T06:54:47Z</time>
      </trkpt>
      <trkpt lat="43.86697" lon="7.47613">
        <ele>683.8</ele>
        <time>2017-08-29T06:54:49Z</time>
      </trkpt>
      <trkpt lat="43.86694" lon="7.47613">
        <ele>685.3</ele>
        <time>2017-08-29T06:54:51Z</time>
      </trkpt>
      <trkpt lat="43.86684" lon="7.47621">
        <ele>686.4</ele>
        <time>2017-08-29T06:55:04Z</time>
      </trkpt>
      <trkpt lat="43.86677" lon="7.47624">
        <ele>688.4</ele>
        <time>2017-08-29T06:55:15Z</time>
      </trkpt>
      <trkpt lat="43.86666" lon="7.4763">
        <ele>691</ele>
        <time>2017-08-29T06:55:30Z</time>
      </trkpt>
      <trkpt lat="43.86656" lon="7.47636">
        <ele>690.6</ele>
        <time>2017-08-29T06:55:45Z</time>
      </trkpt>
      <trkpt lat="43.86644" lon="7.47637">
        <ele>692.8</ele>
        <time>2017-08-29T06:55:59Z</time>
      </trkpt>
      <trkpt lat="43.86642" lon="7.47637">
        <ele>693.2</ele>
        <time>2017-08-29T06:56:13Z</time>
      </trkpt>
      <trkpt lat="43.86636" lon="7.47637">
        <ele>694.4</ele>
        <time>2017-08-29T06:56:21Z</time>
      </trkpt>
      <trkpt lat="43.86632" lon="7.47637">
        <ele>695.1</ele>
        <time>2017-08-29T06:56:25Z</time>
      </trkpt>
      <trkpt lat="43.86625" lon="7.47641">
        <ele>694.7</ele>
        <time>2017-08-29T06:56:34Z</time>
      </trkpt>
      <trkpt lat="43.86622" lon="7.47641">
        <ele>695.3</ele>
        <time>2017-08-29T06:56:47Z</time>
      </trkpt>
      <trkpt lat="43.86612" lon="7.47644">
        <ele>696</ele>
        <time>2017-08-29T06:57:00Z</time>
      </trkpt>
      <trkpt lat="43.86598" lon="7.47643">
        <ele>700.4</ele>
        <time>2017-08-29T06:57:14Z</time>
      </trkpt>
      <trkpt lat="43.86585" lon="7.47642">
        <ele>704.5</ele>
        <time>2017-08-29T06:57:29Z</time>
      </trkpt>
      <trkpt lat="43.86576" lon="7.47646">
        <ele>706.4</ele>
        <time>2017-08-29T06:57:40Z</time>
      </trkpt>
      <trkpt lat="43.86572" lon="7.47648">
        <ele>707.3</ele>
        <time>2017-08-29T06:57:53Z</time>
      </trkpt>
      <trkpt lat="43.86568" lon="7.47646">
        <ele>709.4</ele>
        <time>2017-08-29T06:58:06Z</time>
      </trkpt>
      <trkpt lat="43.86563" lon="7.47648">
        <ele>710.6</ele>
        <time>2017-08-29T06:58:22Z</time>
      </trkpt>
      <trkpt lat="43.86563" lon="7.47646">
        <ele>711.2</ele>
        <time>2017-08-29T06:58:35Z</time>
      </trkpt>
      <trkpt lat="43.86548" lon="7.47645">
        <ele>716.4</ele>
        <time>2017-08-29T06:58:51Z</time>
      </trkpt>
      <trkpt lat="43.86536" lon="7.47646">
        <ele>719.6</ele>
        <time>2017-08-29T06:59:05Z</time>
      </trkpt>
      <trkpt lat="43.86525" lon="7.47662">
        <ele>720.2</ele>
        <time>2017-08-29T06:59:19Z</time>
      </trkpt>
      <trkpt lat="43.86522" lon="7.47668">
        <ele>720</ele>
        <time>2017-08-29T06:59:33Z</time>
      </trkpt>
      <trkpt lat="43.86511" lon="7.47669">
        <ele>722</ele>
        <time>2017-08-29T06:59:50Z</time>
      </trkpt>
      <trkpt lat="43.86496" lon="7.47675">
        <ele>725.3</ele>
        <time>2017-08-29T07:00:05Z</time>
      </trkpt>
      <trkpt lat="43.86481" lon="7.47678">
        <ele>729.2</ele>
        <time>2017-08-29T07:00:23Z</time>
      </trkpt>
      <trkpt lat="43.86474" lon="7.47677">
        <ele>730.9</ele>
        <time>2017-08-29T07:00:41Z</time>
      </trkpt>
      <trkpt lat="43.86462" lon="7.47676">
        <ele>734.2</ele>
        <time>2017-08-29T07:00:58Z</time>
      </trkpt>
      <trkpt lat="43.8646" lon="7.47675">
        <ele>734.6</ele>
        <time>2017-08-29T07:01:15Z</time>
      </trkpt>
      <trkpt lat="43.86454" lon="7.47673">
        <ele>736.1</ele>
        <time>2017-08-29T07:01:26Z</time>
      </trkpt>
      <trkpt lat="43.86443" lon="7.47696">
        <ele>741.8</ele>
        <time>2017-08-29T07:01:44Z</time>
      </trkpt>
      <trkpt lat="43.86433" lon="7.477">
        <ele>745.6</ele>
        <time>2017-08-29T07:01:59Z</time>
      </trkpt>
      <trkpt lat="43.8643" lon="7.47699">
        <ele>746.1</ele>
        <time>2017-08-29T07:02:14Z</time>
      </trkpt>
      <trkpt lat="43.86429" lon="7.47702">
        <ele>747.4</ele>
        <time>2017-08-29T07:02:22Z</time>
      </trkpt>
      <trkpt lat="43.86418" lon="7.477">
        <ele>749.8</ele>
        <time>2017-08-29T07:02:34Z</time>
      </trkpt>
      <trkpt lat="43.86411" lon="7.47693">
        <ele>750.1</ele>
        <time>2017-08-29T07:02:48Z</time>
      </trkpt>
      <trkpt lat="43.86407" lon="7.47687">
        <ele>751</ele>
        <time>2017-08-29T07:03:03Z</time>
      </trkpt>
      <trkpt lat="43.86397" lon="7.47684">
        <ele>754.2</ele>
        <time>2017-08-29T07:03:18Z</time>
      </trkpt>
      <trkpt lat="43.8638" lon="7.47685">
        <ele>761</ele>
        <time>2017-08-29T07:03:33Z</time>
      </trkpt>
      <trkpt lat="43.86373" lon="7.47678">
        <ele>762.1</ele>
        <time>2017-08-29T07:03:48Z</time>
      </trkpt>
      <trkpt lat="43.86363" lon="7.47672">
        <ele>764.1</ele>
        <time>2017-08-29T07:04:05Z</time>
      </trkpt>
      <trkpt lat="43.86355" lon="7.47664">
        <ele>765.6</ele>
        <time>2017-08-29T07:04:22Z</time>
      </trkpt>
      <trkpt lat="43.86354" lon="7.47662">
        <ele>766.1</ele>
        <time>2017-08-29T07:04:40Z</time>
      </trkpt>
      <trkpt lat="43.86338" lon="7.47661">
        <ele>772.4</ele>
        <time>2017-08-29T07:04:57Z</time>
      </trkpt>
      <trkpt lat="43.86327" lon="7.47662">
        <ele>777.2</ele>
        <time>2017-08-29T07:05:10Z</time>
      </trkpt>
      <trkpt lat="43.86317" lon="7.47666">
        <ele>782.2</ele>
        <time>2017-08-29T07:05:21Z</time>
      </trkpt>
      <trkpt lat="43.86316" lon="7.4766">
        <ele>782.4</ele>
        <time>2017-08-29T07:05:34Z</time>
      </trkpt>
      <trkpt lat="43.86313" lon="7.47656">
        <ele>783.5</ele>
        <time>2017-08-29T07:05:47Z</time>
      </trkpt>
      <trkpt lat="43.86312" lon="7.47668">
        <ele>785.2</ele>
        <time>2017-08-29T07:06:02Z</time>
      </trkpt>
      <trkpt lat="43.86312" lon="7.47676">
        <ele>788.2</ele>
        <time>2017-08-29T07:06:17Z</time>
      </trkpt>
      <trkpt lat="43.86305" lon="7.47672">
        <ele>790.2</ele>
        <time>2017-08-29T07:06:31Z</time>
      </trkpt>
      <trkpt lat="43.86291" lon="7.47664">
        <ele>794.9</ele>
        <time>2017-08-29T07:06:49Z</time>
      </trkpt>
      <trkpt lat="43.86284" lon="7.47657">
        <ele>797</ele>
        <time>2017-08-29T07:07:02Z</time>
      </trkpt>
      <trkpt lat="43.86273" lon="7.47653">
        <ele>801.2</ele>
        <time>2017-08-29T07:07:18Z</time>
      </trkpt>
      <trkpt lat="43.86266" lon="7.47651">
        <ele>803.9</ele>
        <time>2017-08-29T07:07:32Z</time>
      </trkpt>
      <trkpt lat="43.86267" lon="7.47665">
        <ele>806.3</ele>
        <time>2017-08-29T07:07:45Z</time>
      </trkpt>
      <trkpt lat="43.86267" lon="7.47681">
        <ele>807.5</ele>
        <time>2017-08-29T07:08:01Z</time>
      </trkpt>
      <trkpt lat="43.86263" lon="7.4769">
        <ele>808.5</ele>
        <time>2017-08-29T07:08:14Z</time>
      </trkpt>
      <trkpt lat="43.8626" lon="7.4769">
        <ele>808.8</ele>
        <time>2017-08-29T07:08:30Z</time>
      </trkpt>
      <trkpt lat="43.86256" lon="7.4769">
        <ele>809.2</ele>
        <time>2017-08-29T07:08:43Z</time>
      </trkpt>
      <trkpt lat="43.86252" lon="7.47691">
        <ele>809.4</ele>
        <time>2017-08-29T07:09:00Z</time>
      </trkpt>
      <trkpt lat="43.86243" lon="7.47697">
        <ele>808.1</ele>
        <time>2017-08-29T07:09:12Z</time>
      </trkpt>
      <trkpt lat="43.86236" lon="7.47698">
        <ele>807.5</ele>
        <time>2017-08-29T07:09:28Z</time>
      </trkpt>
      <trkpt lat="43.86232" lon="7.47698">
        <ele>807.4</ele>
        <time>2017-08-29T07:09:36Z</time>
      </trkpt>
      <trkpt lat="43.86224" lon="7.477">
        <ele>806.5</ele>
        <time>2017-08-29T07:09:43Z</time>
      </trkpt>
      <trkpt lat="43.86204" lon="7.47704">
        <ele>804.1</ele>
        <time>2017-08-29T07:10:01Z</time>
      </trkpt>
      <trkpt lat="43.86179" lon="7.47704">
        <ele>802.3</ele>
        <time>2017-08-29T07:10:20Z</time>
      </trkpt>
      <trkpt lat="43.86157" lon="7.47706">
        <ele>799.4</ele>
        <time>2017-08-29T07:10:37Z</time>
      </trkpt>
      <trkpt lat="43.86137" lon="7.47704">
        <ele>797.9</ele>
        <time>2017-08-29T07:10:53Z</time>
      </trkpt>
      <trkpt lat="43.8613" lon="7.47701">
        <ele>798.1</ele>
        <time>2017-08-29T07:10:59Z</time>
      </trkpt>
      <trkpt lat="43.86119" lon="7.47699">
        <ele>797.3</ele>
        <time>2017-08-29T07:11:07Z</time>
      </trkpt>
      <trkpt lat="43.86105" lon="7.47695">
        <ele>795.6</ele>
        <time>2017-08-29T07:11:20Z</time>
      </trkpt>
      <trkpt lat="43.861" lon="7.47691">
        <ele>795.1</ele>
        <time>2017-08-29T07:11:25Z</time>
      </trkpt>
      <trkpt lat="43.86088" lon="7.47681">
        <ele>793.6</ele>
        <time>2017-08-29T07:11:37Z</time>
      </trkpt>
      <trkpt lat="43.86084" lon="7.47677">
        <ele>793.3</ele>
        <time>2017-08-29T07:11:41Z</time>
      </trkpt>
      <trkpt lat="43.86066" lon="7.47659">
        <ele>789.5</ele>
        <time>2017-08-29T07:11:59Z</time>
      </trkpt>
      <trkpt lat="43.86058" lon="7.47648">
        <ele>788.2</ele>
        <time>2017-08-29T07:12:08Z</time>
      </trkpt>
      <trkpt lat="43.8605" lon="7.4763">
        <ele>786.6</ele>
        <time>2017-08-29T07:12:23Z</time>
      </trkpt>
      <trkpt lat="43.86049" lon="7.47627">
        <ele>786.3</ele>
        <time>2017-08-29T07:12:25Z</time>
      </trkpt>
      <trkpt lat="43.86037" lon="7.47612">
        <ele>782.8</ele>
        <time>2017-08-29T07:12:37Z</time>
      </trkpt>
      <trkpt lat="43.86031" lon="7.47607">
        <ele>781.5</ele>
        <time>2017-08-29T07:12:42Z</time>
      </trkpt>
      <trkpt lat="43.86015" lon="7.47592">
        <ele>781.6</ele>
        <time>2017-08-29T07:12:57Z</time>
      </trkpt>
      <trkpt lat="43.85998" lon="7.4758">
        <ele>782.1</ele>
        <time>2017-08-29T07:13:12Z</time>
      </trkpt>
      <trkpt lat="43.85986" lon="7.47572">
        <ele>784.4</ele>
        <time>2017-08-29T07:13:26Z</time>
      </trkpt>
      <trkpt lat="43.85973" lon="7.47566">
        <ele>786.2</ele>
        <time>2017-08-29T07:13:40Z</time>
      </trkpt>
      <trkpt lat="43.85964" lon="7.47556">
        <ele>790.5</ele>
        <time>2017-08-29T07:13:56Z</time>
      </trkpt>
      <trkpt lat="43.85959" lon="7.47551">
        <ele>792.1</ele>
        <time>2017-08-29T07:14:10Z</time>
      </trkpt>
      <trkpt lat="43.85958" lon="7.47549">
        <ele>792.7</ele>
        <time>2017-08-29T07:14:13Z</time>
      </trkpt>
      <trkpt lat="43.85954" lon="7.47551">
        <ele>791.7</ele>
        <time>2017-08-29T07:14:17Z</time>
      </trkpt>
      <trkpt lat="43.8595" lon="7.47555">
        <ele>790.3</ele>
        <time>2017-08-29T07:14:21Z</time>
      </trkpt>
      <trkpt lat="43.85939" lon="7.47571">
        <ele>789.5</ele>
        <time>2017-08-29T07:14:36Z</time>
      </trkpt>
      <trkpt lat="43.85929" lon="7.47586">
        <ele>790.3</ele>
        <time>2017-08-29T07:14:52Z</time>
      </trkpt>
      <trkpt lat="43.85918" lon="7.47597">
        <ele>791.5</ele>
        <time>2017-08-29T07:15:04Z</time>
      </trkpt>
      <trkpt lat="43.859" lon="7.47608">
        <ele>791.7</ele>
        <time>2017-08-29T07:15:19Z</time>
      </trkpt>
      <trkpt lat="43.85885" lon="7.47619">
        <ele>791.3</ele>
        <time>2017-08-29T07:15:36Z</time>
      </trkpt>
      <trkpt lat="43.85869" lon="7.47632">
        <ele>790.2</ele>
        <time>2017-08-29T07:15:52Z</time>
      </trkpt>
      <trkpt lat="43.85868" lon="7.47633">
        <ele>790</ele>
        <time>2017-08-29T07:15:54Z</time>
      </trkpt>
      <trkpt lat="43.85855" lon="7.47644">
        <ele>790.6</ele>
        <time>2017-08-29T07:16:05Z</time>
      </trkpt>
      <trkpt lat="43.85846" lon="7.47647">
        <ele>793.9</ele>
        <time>2017-08-29T07:16:19Z</time>
      </trkpt>
      <trkpt lat="43.85846" lon="7.47647">
        <ele>793.9</ele>
        <time>2017-08-29T07:16:21Z</time>
      </trkpt>
      <trkpt lat="43.85836" lon="7.47655">
        <ele>795.5</ele>
        <time>2017-08-29T07:16:31Z</time>
      </trkpt>
      <trkpt lat="43.85834" lon="7.4766">
        <ele>794.4</ele>
        <time>2017-08-29T07:16:34Z</time>
      </trkpt>
      <trkpt lat="43.85825" lon="7.47669">
        <ele>795.9</ele>
        <time>2017-08-29T07:16:46Z</time>
      </trkpt>
      <trkpt lat="43.85817" lon="7.47678">
        <ele>796.6</ele>
        <time>2017-08-29T07:17:01Z</time>
      </trkpt>
      <trkpt lat="43.85813" lon="7.47686">
        <ele>795.2</ele>
        <time>2017-08-29T07:17:10Z</time>
      </trkpt>
      <trkpt lat="43.858" lon="7.47698">
        <ele>796.4</ele>
        <time>2017-08-29T07:17:24Z</time>
      </trkpt>
      <trkpt lat="43.85788" lon="7.47705">
        <ele>799.8</ele>
        <time>2017-08-29T07:17:37Z</time>
      </trkpt>
      <trkpt lat="43.8578" lon="7.47715">
        <ele>801.3</ele>
        <time>2017-08-29T07:17:49Z</time>
      </trkpt>
      <trkpt lat="43.85772" lon="7.47729">
        <ele>801.5</ele>
        <time>2017-08-29T07:18:03Z</time>
      </trkpt>
      <trkpt lat="43.85767" lon="7.47735">
        <ele>801.8</ele>
        <time>2017-08-29T07:18:08Z</time>
      </trkpt>
      <trkpt lat="43.8575" lon="7.4775">
        <ele>803</ele>
        <time>2017-08-29T07:18:22Z</time>
      </trkpt>
      <trkpt lat="43.85735" lon="7.47764">
        <ele>805.1</ele>
        <time>2017-08-29T07:18:37Z</time>
      </trkpt>
      <trkpt lat="43.8573" lon="7.4777">
        <ele>805.7</ele>
        <time>2017-08-29T07:18:44Z</time>
      </trkpt>
      <trkpt lat="43.85723" lon="7.47782">
        <ele>805.2</ele>
        <time>2017-08-29T07:18:53Z</time>
      </trkpt>
      <trkpt lat="43.85707" lon="7.47792">
        <ele>807.4</ele>
        <time>2017-08-29T07:19:10Z</time>
      </trkpt>
      <trkpt lat="43.85692" lon="7.47802">
        <ele>809.5</ele>
        <time>2017-08-29T07:19:26Z</time>
      </trkpt>
      <trkpt lat="43.85677" lon="7.47814">
        <ele>806.6</ele>
        <time>2017-08-29T07:19:39Z</time>
      </trkpt>
      <trkpt lat="43.85668" lon="7.47813">
        <ele>809.2</ele>
        <time>2017-08-29T07:19:48Z</time>
      </trkpt>
      <trkpt lat="43.85654" lon="7.47817">
        <ele>809.5</ele>
        <time>2017-08-29T07:20:02Z</time>
      </trkpt>
      <trkpt lat="43.85644" lon="7.47823">
        <ele>807.9</ele>
        <time>2017-08-29T07:20:10Z</time>
      </trkpt>
      <trkpt lat="43.85631" lon="7.47833">
        <ele>803.7</ele>
        <time>2017-08-29T07:20:20Z</time>
      </trkpt>
      <trkpt lat="43.85613" lon="7.47831">
        <ele>805.8</ele>
        <time>2017-08-29T07:20:36Z</time>
      </trkpt>
      <trkpt lat="43.85601" lon="7.47835">
        <ele>806.9</ele>
        <time>2017-08-29T07:20:51Z</time>
      </trkpt>
      <trkpt lat="43.85596" lon="7.47844">
        <ele>807</ele>
        <time>2017-08-29T07:20:58Z</time>
      </trkpt>
      <trkpt lat="43.85596" lon="7.47849">
        <ele>806.4</ele>
        <time>2017-08-29T07:21:00Z</time>
      </trkpt>
      <trkpt lat="43.85597" lon="7.47871">
        <ele>807.8</ele>
        <time>2017-08-29T07:21:15Z</time>
      </trkpt>
      <trkpt lat="43.85607" lon="7.47884">
        <ele>807.5</ele>
        <time>2017-08-29T07:21:31Z</time>
      </trkpt>
      <trkpt lat="43.85616" lon="7.47897">
        <ele>808.3</ele>
        <time>2017-08-29T07:21:47Z</time>
      </trkpt>
      <trkpt lat="43.85626" lon="7.47911">
        <ele>810.4</ele>
        <time>2017-08-29T07:22:03Z</time>
      </trkpt>
      <trkpt lat="43.85633" lon="7.47925">
        <ele>814</ele>
        <time>2017-08-29T07:22:19Z</time>
      </trkpt>
      <trkpt lat="43.85634" lon="7.47933">
        <ele>817.1</ele>
        <time>2017-08-29T07:22:34Z</time>
      </trkpt>
      <trkpt lat="43.85636" lon="7.47935">
        <ele>817.1</ele>
        <time>2017-08-29T07:22:48Z</time>
      </trkpt>
      <trkpt lat="43.8564" lon="7.47949">
        <ele>822</ele>
        <time>2017-08-29T07:23:04Z</time>
      </trkpt>
      <trkpt lat="43.85649" lon="7.47966">
        <ele>828.5</ele>
        <time>2017-08-29T07:23:21Z</time>
      </trkpt>
      <trkpt lat="43.85658" lon="7.47984">
        <ele>833.6</ele>
        <time>2017-08-29T07:23:38Z</time>
      </trkpt>
      <trkpt lat="43.85659" lon="7.47992">
        <ele>835.9</ele>
        <time>2017-08-29T07:23:53Z</time>
      </trkpt>
      <trkpt lat="43.85654" lon="7.48002">
        <ele>838.9</ele>
        <time>2017-08-29T07:24:10Z</time>
      </trkpt>
      <trkpt lat="43.8565" lon="7.48006">
        <ele>838.9</ele>
        <time>2017-08-29T07:24:15Z</time>
      </trkpt>
      <trkpt lat="43.85635" lon="7.48022">
        <ele>839.3</ele>
        <time>2017-08-29T07:24:30Z</time>
      </trkpt>
      <trkpt lat="43.85619" lon="7.48039">
        <ele>838.7</ele>
        <time>2017-08-29T07:24:51Z</time>
      </trkpt>
      <trkpt lat="43.85617" lon="7.48039">
        <ele>839.2</ele>
        <time>2017-08-29T07:24:52Z</time>
      </trkpt>
      <trkpt lat="43.85598" lon="7.48041">
        <ele>842.2</ele>
        <time>2017-08-29T07:25:09Z</time>
      </trkpt>
      <trkpt lat="43.85583" lon="7.48054">
        <ele>837.9</ele>
        <time>2017-08-29T07:25:25Z</time>
      </trkpt>
      <trkpt lat="43.85559" lon="7.48069">
        <ele>838.4</ele>
        <time>2017-08-29T07:25:41Z</time>
      </trkpt>
      <trkpt lat="43.85544" lon="7.48078">
        <ele>836.6</ele>
        <time>2017-08-29T07:25:56Z</time>
      </trkpt>
      <trkpt lat="43.85523" lon="7.48084">
        <ele>837.3</ele>
        <time>2017-08-29T07:26:12Z</time>
      </trkpt>
      <trkpt lat="43.85509" lon="7.48097">
        <ele>836.8</ele>
        <time>2017-08-29T07:26:26Z</time>
      </trkpt>
      <trkpt lat="43.85494" lon="7.48116">
        <ele>834.5</ele>
        <time>2017-08-29T07:26:42Z</time>
      </trkpt>
      <trkpt lat="43.85479" lon="7.48115">
        <ele>840.7</ele>
        <time>2017-08-29T07:26:56Z</time>
      </trkpt>
      <trkpt lat="43.85461" lon="7.48123">
        <ele>843.1</ele>
        <time>2017-08-29T07:27:11Z</time>
      </trkpt>
      <trkpt lat="43.85455" lon="7.48123">
        <ele>844.8</ele>
        <time>2017-08-29T07:27:27Z</time>
      </trkpt>
      <trkpt lat="43.85437" lon="7.48131">
        <ele>846.7</ele>
        <time>2017-08-29T07:27:44Z</time>
      </trkpt>
      <trkpt lat="43.8542" lon="7.48135">
        <ele>850.5</ele>
        <time>2017-08-29T07:27:59Z</time>
      </trkpt>
      <trkpt lat="43.85409" lon="7.4813">
        <ele>855.8</ele>
        <time>2017-08-29T07:28:13Z</time>
      </trkpt>
      <trkpt lat="43.85399" lon="7.48137">
        <ele>855.9</ele>
        <time>2017-08-29T07:28:29Z</time>
      </trkpt>
      <trkpt lat="43.85381" lon="7.48142">
        <ele>859.2</ele>
        <time>2017-08-29T07:28:45Z</time>
      </trkpt>
      <trkpt lat="43.85367" lon="7.48151">
        <ele>861.7</ele>
        <time>2017-08-29T07:29:01Z</time>
      </trkpt>
      <trkpt lat="43.85355" lon="7.48162">
        <ele>865.3</ele>
        <time>2017-08-29T07:29:15Z</time>
      </trkpt>
      <trkpt lat="43.85342" lon="7.48169">
        <ele>869.6</ele>
        <time>2017-08-29T07:29:31Z</time>
      </trkpt>
      <trkpt lat="43.85327" lon="7.48182">
        <ele>871.6</ele>
        <time>2017-08-29T07:29:48Z</time>
      </trkpt>
      <trkpt lat="43.85314" lon="7.48196">
        <ele>871.1</ele>
        <time>2017-08-29T07:30:02Z</time>
      </trkpt>
      <trkpt lat="43.85301" lon="7.48203">
        <ele>872.8</ele>
        <time>2017-08-29T07:30:17Z</time>
      </trkpt>
      <trkpt lat="43.85287" lon="7.48203">
        <ele>876.9</ele>
        <time>2017-08-29T07:30:31Z</time>
      </trkpt>
      <trkpt lat="43.85271" lon="7.4821">
        <ele>879.9</ele>
        <time>2017-08-29T07:30:47Z</time>
      </trkpt>
      <trkpt lat="43.8526" lon="7.48217">
        <ele>881.8</ele>
        <time>2017-08-29T07:31:04Z</time>
      </trkpt>
      <trkpt lat="43.8525" lon="7.48233">
        <ele>884</ele>
        <time>2017-08-29T07:31:18Z</time>
      </trkpt>
      <trkpt lat="43.85244" lon="7.48241">
        <ele>886.8</ele>
        <time>2017-08-29T07:31:33Z</time>
      </trkpt>
      <trkpt lat="43.85236" lon="7.48249">
        <ele>890.1</ele>
        <time>2017-08-29T07:31:50Z</time>
      </trkpt>
      <trkpt lat="43.85228" lon="7.48251">
        <ele>893.3</ele>
        <time>2017-08-29T07:32:05Z</time>
      </trkpt>
      <trkpt lat="43.85217" lon="7.48253">
        <ele>897.4</ele>
        <time>2017-08-29T07:32:23Z</time>
      </trkpt>
      <trkpt lat="43.85218" lon="7.48248">
        <ele>897.9</ele>
        <time>2017-08-29T07:32:39Z</time>
      </trkpt>
      <trkpt lat="43.85216" lon="7.48243">
        <ele>899.4</ele>
        <time>2017-08-29T07:32:53Z</time>
      </trkpt>
      <trkpt lat="43.85213" lon="7.48238">
        <ele>901.5</ele>
        <time>2017-08-29T07:33:08Z</time>
      </trkpt>
      <trkpt lat="43.85207" lon="7.48229">
        <ele>906</ele>
        <time>2017-08-29T07:33:21Z</time>
      </trkpt>
      <trkpt lat="43.85202" lon="7.48226">
        <ele>909.1</ele>
        <time>2017-08-29T07:33:37Z</time>
      </trkpt>
      <trkpt lat="43.85191" lon="7.48229">
        <ele>914</ele>
        <time>2017-08-29T07:33:54Z</time>
      </trkpt>
      <trkpt lat="43.85176" lon="7.48233">
        <ele>920.1</ele>
        <time>2017-08-29T07:34:10Z</time>
      </trkpt>
      <trkpt lat="43.85164" lon="7.4824">
        <ele>923.5</ele>
        <time>2017-08-29T07:34:25Z</time>
      </trkpt>
      <trkpt lat="43.85152" lon="7.48244">
        <ele>927.8</ele>
        <time>2017-08-29T07:34:41Z</time>
      </trkpt>
      <trkpt lat="43.85151" lon="7.48263">
        <ele>927.3</ele>
        <time>2017-08-29T07:34:57Z</time>
      </trkpt>
      <trkpt lat="43.8516" lon="7.48276">
        <ele>923.5</ele>
        <time>2017-08-29T07:35:15Z</time>
      </trkpt>
      <trkpt lat="43.85163" lon="7.48283">
        <ele>924.1</ele>
        <time>2017-08-29T07:35:31Z</time>
      </trkpt>
      <trkpt lat="43.85165" lon="7.48286">
        <ele>924.2</ele>
        <time>2017-08-29T07:35:34Z</time>
      </trkpt>
      <trkpt lat="43.85177" lon="7.48311">
        <ele>927.2</ele>
        <time>2017-08-29T07:35:49Z</time>
      </trkpt>
      <trkpt lat="43.85186" lon="7.48328">
        <ele>930</ele>
        <time>2017-08-29T07:36:06Z</time>
      </trkpt>
      <trkpt lat="43.85195" lon="7.48344">
        <ele>931.9</ele>
        <time>2017-08-29T07:36:22Z</time>
      </trkpt>
      <trkpt lat="43.85198" lon="7.48353">
        <ele>933.9</ele>
        <time>2017-08-29T07:36:36Z</time>
      </trkpt>
      <trkpt lat="43.85203" lon="7.48361">
        <ele>934.6</ele>
        <time>2017-08-29T07:36:51Z</time>
      </trkpt>
      <trkpt lat="43.85207" lon="7.48371">
        <ele>936.8</ele>
        <time>2017-08-29T07:36:59Z</time>
      </trkpt>
      <trkpt lat="43.85213" lon="7.48395">
        <ele>943.5</ele>
        <time>2017-08-29T07:37:16Z</time>
      </trkpt>
      <trkpt lat="43.85216" lon="7.48413">
        <ele>949.4</ele>
        <time>2017-08-29T07:37:32Z</time>
      </trkpt>
      <trkpt lat="43.85219" lon="7.48425">
        <ele>951.9</ele>
        <time>2017-08-29T07:37:48Z</time>
      </trkpt>
      <trkpt lat="43.85218" lon="7.48443">
        <ele>957.6</ele>
        <time>2017-08-29T07:38:05Z</time>
      </trkpt>
      <trkpt lat="43.85214" lon="7.48456">
        <ele>960</ele>
        <time>2017-08-29T07:38:19Z</time>
      </trkpt>
      <trkpt lat="43.85209" lon="7.48462">
        <ele>962.2</ele>
        <time>2017-08-29T07:38:33Z</time>
      </trkpt>
      <trkpt lat="43.85201" lon="7.48467">
        <ele>965.5</ele>
        <time>2017-08-29T07:38:51Z</time>
      </trkpt>
      <trkpt lat="43.85191" lon="7.48472">
        <ele>969.3</ele>
        <time>2017-08-29T07:39:08Z</time>
      </trkpt>
      <trkpt lat="43.85177" lon="7.48484">
        <ele>972.5</ele>
        <time>2017-08-29T07:39:24Z</time>
      </trkpt>
      <trkpt lat="43.85169" lon="7.48494">
        <ele>975.2</ele>
        <time>2017-08-29T07:39:40Z</time>
      </trkpt>
      <trkpt lat="43.85164" lon="7.48514">
        <ele>977.8</ele>
        <time>2017-08-29T07:39:53Z</time>
      </trkpt>
      <trkpt lat="43.85154" lon="7.48524">
        <ele>984</ele>
        <time>2017-08-29T07:40:08Z</time>
      </trkpt>
      <trkpt lat="43.85141" lon="7.4854">
        <ele>986.6</ele>
        <time>2017-08-29T07:40:24Z</time>
      </trkpt>
      <trkpt lat="43.85134" lon="7.48551">
        <ele>985.3</ele>
        <time>2017-08-29T07:40:42Z</time>
      </trkpt>
      <trkpt lat="43.85119" lon="7.48561">
        <ele>988.2</ele>
        <time>2017-08-29T07:41:00Z</time>
      </trkpt>
      <trkpt lat="43.85109" lon="7.48567">
        <ele>991</ele>
        <time>2017-08-29T07:41:17Z</time>
      </trkpt>
      <trkpt lat="43.85103" lon="7.48572">
        <ele>992.5</ele>
        <time>2017-08-29T07:41:33Z</time>
      </trkpt>
      <trkpt lat="43.85087" lon="7.48584">
        <ele>997.7</ele>
        <time>2017-08-29T07:41:46Z</time>
      </trkpt>
      <trkpt lat="43.85076" lon="7.48595">
        <ele>1000.4</ele>
        <time>2017-08-29T07:42:02Z</time>
      </trkpt>
      <trkpt lat="43.85066" lon="7.48595">
        <ele>1006.2</ele>
        <time>2017-08-29T07:42:17Z</time>
      </trkpt>
      <trkpt lat="43.85054" lon="7.48606">
        <ele>1009.5</ele>
        <time>2017-08-29T07:42:34Z</time>
      </trkpt>
      <trkpt lat="43.85045" lon="7.48612">
        <ele>1012.9</ele>
        <time>2017-08-29T07:42:50Z</time>
      </trkpt>
      <trkpt lat="43.85036" lon="7.48622">
        <ele>1016.6</ele>
        <time>2017-08-29T07:43:06Z</time>
      </trkpt>
      <trkpt lat="43.85029" lon="7.48633">
        <ele>1019.1</ele>
        <time>2017-08-29T07:43:21Z</time>
      </trkpt>
      <trkpt lat="43.85023" lon="7.4865">
        <ele>1021.7</ele>
        <time>2017-08-29T07:43:37Z</time>
      </trkpt>
      <trkpt lat="43.85016" lon="7.48655">
        <ele>1024.5</ele>
        <time>2017-08-29T07:43:52Z</time>
      </trkpt>
      <trkpt lat="43.85003" lon="7.48651">
        <ele>1029.4</ele>
        <time>2017-08-29T07:44:06Z</time>
      </trkpt>
      <trkpt lat="43.84998" lon="7.48661">
        <ele>1030</ele>
        <time>2017-08-29T07:44:14Z</time>
      </trkpt>
      <trkpt lat="43.84996" lon="7.48674">
        <ele>1030</ele>
        <time>2017-08-29T07:44:21Z</time>
      </trkpt>
      <trkpt lat="43.84995" lon="7.48686">
        <ele>1030.7</ele>
        <time>2017-08-29T07:44:33Z</time>
      </trkpt>
      <trkpt lat="43.84996" lon="7.48684">
        <ele>1030.8</ele>
        <time>2017-08-29T07:44:43Z</time>
      </trkpt>
      <trkpt lat="43.84995" lon="7.48677">
        <ele>1030.1</ele>
        <time>2017-08-29T07:44:55Z</time>
      </trkpt>
      <trkpt lat="43.84995" lon="7.48677">
        <ele>1030.1</ele>
        <time>2017-08-29T07:45:22Z</time>
      </trkpt>
      <trkpt lat="43.84996" lon="7.48678">
        <ele>1030.4</ele>
        <time>2017-08-29T07:45:52Z</time>
      </trkpt>
      <trkpt lat="43.84996" lon="7.48678">
        <ele>1030.4</ele>
        <time>2017-08-29T07:46:17Z</time>
      </trkpt>
      <trkpt lat="43.84996" lon="7.48678">
        <ele>1030.4</ele>
        <time>2017-08-29T07:46:44Z</time>
      </trkpt>
      <trkpt lat="43.84996" lon="7.48678">
        <ele>1030.4</ele>
        <time>2017-08-29T07:47:07Z</time>
      </trkpt>
      <trkpt lat="43.84996" lon="7.48678">
        <ele>1030.4</ele>
        <time>2017-08-29T07:47:30Z</time>
      </trkpt>
      <trkpt lat="43.84996" lon="7.48678">
        <ele>1030.4</ele>
        <time>2017-08-29T07:47:56Z</time>
      </trkpt>
      <trkpt lat="43.84996" lon="7.48679">
        <ele>1030.4</ele>
        <time>2017-08-29T07:48:25Z</time>
      </trkpt>
      <trkpt lat="43.84996" lon="7.48679">
        <ele>1030.4</ele>
        <time>2017-08-29T07:48:49Z</time>
      </trkpt>
      <trkpt lat="43.84996" lon="7.48679">
        <ele>1030.4</ele>
        <time>2017-08-29T07:49:24Z</time>
      </trkpt>
      <trkpt lat="43.84995" lon="7.48679">
        <ele>1030.2</ele>
        <time>2017-08-29T07:49:39Z</time>
      </trkpt>
      <trkpt lat="43.8499" lon="7.48681">
        <ele>1029.2</ele>
        <time>2017-08-29T07:49:46Z</time>
      </trkpt>
      <trkpt lat="43.84989" lon="7.4869">
        <ele>1029.3</ele>
        <time>2017-08-29T07:49:51Z</time>
      </trkpt>
      <trkpt lat="43.84987" lon="7.48702">
        <ele>1029.9</ele>
        <time>2017-08-29T07:50:06Z</time>
      </trkpt>
      <trkpt lat="43.84986" lon="7.48704">
        <ele>1029.8</ele>
        <time>2017-08-29T07:50:09Z</time>
      </trkpt>
      <trkpt lat="43.84983" lon="7.48708">
        <ele>1029.2</ele>
        <time>2017-08-29T07:50:14Z</time>
      </trkpt>
      <trkpt lat="43.84981" lon="7.48713">
        <ele>1029</ele>
        <time>2017-08-29T07:50:29Z</time>
      </trkpt>
      <trkpt lat="43.84977" lon="7.48718">
        <ele>1027.8</ele>
        <time>2017-08-29T07:50:35Z</time>
      </trkpt>
      <trkpt lat="43.84974" lon="7.48728">
        <ele>1028.7</ele>
        <time>2017-08-29T07:50:42Z</time>
      </trkpt>
      <trkpt lat="43.84971" lon="7.48736">
        <ele>1029.8</ele>
        <time>2017-08-29T07:50:50Z</time>
      </trkpt>
      <trkpt lat="43.84966" lon="7.48751">
        <ele>1031.7</ele>
        <time>2017-08-29T07:51:00Z</time>
      </trkpt>
      <trkpt lat="43.84964" lon="7.48757">
        <ele>1032.3</ele>
        <time>2017-08-29T07:51:03Z</time>
      </trkpt>
      <trkpt lat="43.84957" lon="7.48782">
        <ele>1034.6</ele>
        <time>2017-08-29T07:51:20Z</time>
      </trkpt>
      <trkpt lat="43.84946" lon="7.4881">
        <ele>1033.8</ele>
        <time>2017-08-29T07:51:36Z</time>
      </trkpt>
      <trkpt lat="43.84936" lon="7.48827">
        <ele>1033.1</ele>
        <time>2017-08-29T07:51:52Z</time>
      </trkpt>
      <trkpt lat="43.84935" lon="7.48827">
        <ele>1032.8</ele>
        <time>2017-08-29T07:51:53Z</time>
      </trkpt>
      <trkpt lat="43.84918" lon="7.48832">
        <ele>1029.7</ele>
        <time>2017-08-29T07:52:07Z</time>
      </trkpt>
      <trkpt lat="43.84898" lon="7.48849">
        <ele>1030.8</ele>
        <time>2017-08-29T07:52:24Z</time>
      </trkpt>
      <trkpt lat="43.84888" lon="7.48866">
        <ele>1034.6</ele>
        <time>2017-08-29T07:52:38Z</time>
      </trkpt>
      <trkpt lat="43.84875" lon="7.48881">
        <ele>1035.4</ele>
        <time>2017-08-29T07:52:52Z</time>
      </trkpt>
      <trkpt lat="43.84868" lon="7.48894">
        <ele>1037.4</ele>
        <time>2017-08-29T07:53:01Z</time>
      </trkpt>
      <trkpt lat="43.84856" lon="7.48918">
        <ele>1040.3</ele>
        <time>2017-08-29T07:53:15Z</time>
      </trkpt>
      <trkpt lat="43.84844" lon="7.48931">
        <ele>1038.2</ele>
        <time>2017-08-29T07:53:28Z</time>
      </trkpt>
      <trkpt lat="43.8484" lon="7.48936">
        <ele>1037.5</ele>
        <time>2017-08-29T07:53:31Z</time>
      </trkpt>
      <trkpt lat="43.84838" lon="7.48939">
        <ele>1037.1</ele>
        <time>2017-08-29T07:53:33Z</time>
      </trkpt>
      <trkpt lat="43.84827" lon="7.48956">
        <ele>1035.9</ele>
        <time>2017-08-29T07:53:47Z</time>
      </trkpt>
      <trkpt lat="43.84817" lon="7.48974">
        <ele>1035</ele>
        <time>2017-08-29T07:54:00Z</time>
      </trkpt>
      <trkpt lat="43.84809" lon="7.48982">
        <ele>1032.1</ele>
        <time>2017-08-29T07:54:08Z</time>
      </trkpt>
      <trkpt lat="43.84806" lon="7.49007">
        <ele>1033</ele>
        <time>2017-08-29T07:54:22Z</time>
      </trkpt>
      <trkpt lat="43.84806" lon="7.4901">
        <ele>1032.8</ele>
        <time>2017-08-29T07:54:24Z</time>
      </trkpt>
      <trkpt lat="43.84806" lon="7.49012">
        <ele>1032.8</ele>
        <time>2017-08-29T07:54:26Z</time>
      </trkpt>
      <trkpt lat="43.84801" lon="7.49022">
        <ele>1029.9</ele>
        <time>2017-08-29T07:54:33Z</time>
      </trkpt>
      <trkpt lat="43.84787" lon="7.49041">
        <ele>1027.9</ele>
        <time>2017-08-29T07:54:49Z</time>
      </trkpt>
      <trkpt lat="43.84775" lon="7.4906">
        <ele>1029</ele>
        <time>2017-08-29T07:55:03Z</time>
      </trkpt>
      <trkpt lat="43.84768" lon="7.49076">
        <ele>1030.4</ele>
        <time>2017-08-29T07:55:15Z</time>
      </trkpt>
      <trkpt lat="43.84766" lon="7.49093">
        <ele>1032.4</ele>
        <time>2017-08-29T07:55:29Z</time>
      </trkpt>
      <trkpt lat="43.84754" lon="7.49104">
        <ele>1028.6</ele>
        <time>2017-08-29T07:55:40Z</time>
      </trkpt>
      <trkpt lat="43.84754" lon="7.49106">
        <ele>1028.6</ele>
        <time>2017-08-29T07:55:41Z</time>
      </trkpt>
      <trkpt lat="43.84748" lon="7.49123">
        <ele>1030</ele>
        <time>2017-08-29T07:55:51Z</time>
      </trkpt>
      <trkpt lat="43.84731" lon="7.4915">
        <ele>1030.6</ele>
        <time>2017-08-29T07:56:09Z</time>
      </trkpt>
      <trkpt lat="43.84716" lon="7.49172">
        <ele>1028.5</ele>
        <time>2017-08-29T07:56:26Z</time>
      </trkpt>
      <trkpt lat="43.84715" lon="7.49179">
        <ele>1027.8</ele>
        <time>2017-08-29T07:56:32Z</time>
      </trkpt>
      <trkpt lat="43.84717" lon="7.49195">
        <ele>1027.9</ele>
        <time>2017-08-29T07:56:43Z</time>
      </trkpt>
      <trkpt lat="43.84715" lon="7.49202">
        <ele>1026.1</ele>
        <time>2017-08-29T07:56:47Z</time>
      </trkpt>
      <trkpt lat="43.84719" lon="7.49217">
        <ele>1025.6</ele>
        <time>2017-08-29T07:56:57Z</time>
      </trkpt>
      <trkpt lat="43.84721" lon="7.49239">
        <ele>1023.8</ele>
        <time>2017-08-29T07:57:10Z</time>
      </trkpt>
      <trkpt lat="43.84719" lon="7.49245">
        <ele>1022.6</ele>
        <time>2017-08-29T07:57:14Z</time>
      </trkpt>
      <trkpt lat="43.84709" lon="7.49259">
        <ele>1019.7</ele>
        <time>2017-08-29T07:57:24Z</time>
      </trkpt>
      <trkpt lat="43.84699" lon="7.49282">
        <ele>1018.4</ele>
        <time>2017-08-29T07:57:39Z</time>
      </trkpt>
      <trkpt lat="43.84686" lon="7.4931">
        <ele>1017.7</ele>
        <time>2017-08-29T07:57:57Z</time>
      </trkpt>
      <trkpt lat="43.84684" lon="7.49314">
        <ele>1017.8</ele>
        <time>2017-08-29T07:58:00Z</time>
      </trkpt>
      <trkpt lat="43.84667" lon="7.49327">
        <ele>1016.2</ele>
        <time>2017-08-29T07:58:15Z</time>
      </trkpt>
      <trkpt lat="43.84657" lon="7.49342">
        <ele>1017.1</ele>
        <time>2017-08-29T07:58:26Z</time>
      </trkpt>
      <trkpt lat="43.84643" lon="7.49352">
        <ele>1017.8</ele>
        <time>2017-08-29T07:58:41Z</time>
      </trkpt>
      <trkpt lat="43.84638" lon="7.49353">
        <ele>1017.4</ele>
        <time>2017-08-29T07:58:45Z</time>
      </trkpt>
      <trkpt lat="43.84619" lon="7.49368">
        <ele>1016.5</ele>
        <time>2017-08-29T07:59:02Z</time>
      </trkpt>
      <trkpt lat="43.84617" lon="7.4937">
        <ele>1016.5</ele>
        <time>2017-08-29T07:59:05Z</time>
      </trkpt>
      <trkpt lat="43.84614" lon="7.49373">
        <ele>1016.4</ele>
        <time>2017-08-29T07:59:09Z</time>
      </trkpt>
      <trkpt lat="43.84611" lon="7.49376">
        <ele>1016.2</ele>
        <time>2017-08-29T07:59:12Z</time>
      </trkpt>
      <trkpt lat="43.84609" lon="7.4938">
        <ele>1016.4</ele>
        <time>2017-08-29T07:59:15Z</time>
      </trkpt>
      <trkpt lat="43.846" lon="7.49396">
        <ele>1016.2</ele>
        <time>2017-08-29T07:59:28Z</time>
      </trkpt>
      <trkpt lat="43.84595" lon="7.49414">
        <ele>1018.2</ele>
        <time>2017-08-29T07:59:43Z</time>
      </trkpt>
      <trkpt lat="43.84594" lon="7.49419">
        <ele>1018.9</ele>
        <time>2017-08-29T07:59:47Z</time>
      </trkpt>
      <trkpt lat="43.84588" lon="7.49438">
        <ele>1020</ele>
        <time>2017-08-29T08:00:03Z</time>
      </trkpt>
      <trkpt lat="43.84581" lon="7.49458">
        <ele>1020.8</ele>
        <time>2017-08-29T08:00:17Z</time>
      </trkpt>
      <trkpt lat="43.84578" lon="7.49481">
        <ele>1024.3</ele>
        <time>2017-08-29T08:00:33Z</time>
      </trkpt>
      <trkpt lat="43.84579" lon="7.49498">
        <ele>1028.4</ele>
        <time>2017-08-29T08:00:48Z</time>
      </trkpt>
      <trkpt lat="43.84578" lon="7.49502">
        <ele>1028.6</ele>
        <time>2017-08-29T08:00:51Z</time>
      </trkpt>
      <trkpt lat="43.84578" lon="7.49506">
        <ele>1029.2</ele>
        <time>2017-08-29T08:00:53Z</time>
      </trkpt>
      <trkpt lat="43.84571" lon="7.4953">
        <ele>1029.1</ele>
        <time>2017-08-29T08:01:10Z</time>
      </trkpt>
      <trkpt lat="43.84569" lon="7.49535">
        <ele>1029</ele>
        <time>2017-08-29T08:01:14Z</time>
      </trkpt>
      <trkpt lat="43.8456" lon="7.49564">
        <ele>1029.6</ele>
        <time>2017-08-29T08:01:31Z</time>
      </trkpt>
      <trkpt lat="43.84556" lon="7.49578">
        <ele>1030.2</ele>
        <time>2017-08-29T08:01:39Z</time>
      </trkpt>
      <trkpt lat="43.84551" lon="7.49593">
        <ele>1031</ele>
        <time>2017-08-29T08:01:48Z</time>
      </trkpt>
      <trkpt lat="43.84539" lon="7.49615">
        <ele>1031</ele>
        <time>2017-08-29T08:02:04Z</time>
      </trkpt>
      <trkpt lat="43.84527" lon="7.49637">
        <ele>1032.2</ele>
        <time>2017-08-29T08:02:19Z</time>
      </trkpt>
      <trkpt lat="43.84517" lon="7.49652">
        <ele>1032</ele>
        <time>2017-08-29T08:02:32Z</time>
      </trkpt>
      <trkpt lat="43.84515" lon="7.49653">
        <ele>1031.5</ele>
        <time>2017-08-29T08:02:34Z</time>
      </trkpt>
      <trkpt lat="43.84508" lon="7.49669">
        <ele>1033</ele>
        <time>2017-08-29T08:02:46Z</time>
      </trkpt>
      <trkpt lat="43.84498" lon="7.49683">
        <ele>1034.1</ele>
        <time>2017-08-29T08:02:58Z</time>
      </trkpt>
      <trkpt lat="43.84493" lon="7.49699">
        <ele>1037.2</ele>
        <time>2017-08-29T08:03:13Z</time>
      </trkpt>
      <trkpt lat="43.84488" lon="7.49715">
        <ele>1039.6</ele>
        <time>2017-08-29T08:03:27Z</time>
      </trkpt>
      <trkpt lat="43.84482" lon="7.49729">
        <ele>1041.7</ele>
        <time>2017-08-29T08:03:40Z</time>
      </trkpt>
      <trkpt lat="43.8448" lon="7.49732">
        <ele>1042</ele>
        <time>2017-08-29T08:03:42Z</time>
      </trkpt>
      <trkpt lat="43.84471" lon="7.49741">
        <ele>1041.6</ele>
        <time>2017-08-29T08:03:55Z</time>
      </trkpt>
      <trkpt lat="43.84468" lon="7.49747">
        <ele>1042.4</ele>
        <time>2017-08-29T08:04:02Z</time>
      </trkpt>
      <trkpt lat="43.84463" lon="7.49759">
        <ele>1044.5</ele>
        <time>2017-08-29T08:04:14Z</time>
      </trkpt>
      <trkpt lat="43.84461" lon="7.49761">
        <ele>1044.4</ele>
        <time>2017-08-29T08:04:17Z</time>
      </trkpt>
      <trkpt lat="43.84452" lon="7.49776">
        <ele>1045.7</ele>
        <time>2017-08-29T08:04:30Z</time>
      </trkpt>
      <trkpt lat="43.84444" lon="7.49797">
        <ele>1048.6</ele>
        <time>2017-08-29T08:04:45Z</time>
      </trkpt>
      <trkpt lat="43.84442" lon="7.49812">
        <ele>1052.8</ele>
        <time>2017-08-29T08:05:00Z</time>
      </trkpt>
      <trkpt lat="43.84439" lon="7.49824">
        <ele>1055.6</ele>
        <time>2017-08-29T08:05:14Z</time>
      </trkpt>
      <trkpt lat="43.8444" lon="7.4983">
        <ele>1057.2</ele>
        <time>2017-08-29T08:05:28Z</time>
      </trkpt>
      <trkpt lat="43.84436" lon="7.49837">
        <ele>1057.7</ele>
        <time>2017-08-29T08:05:35Z</time>
      </trkpt>
      <trkpt lat="43.84431" lon="7.49866">
        <ele>1060</ele>
        <time>2017-08-29T08:05:52Z</time>
      </trkpt>
      <trkpt lat="43.84427" lon="7.4988">
        <ele>1059.7</ele>
        <time>2017-08-29T08:06:02Z</time>
      </trkpt>
      <trkpt lat="43.84427" lon="7.49884">
        <ele>1060</ele>
        <time>2017-08-29T08:06:04Z</time>
      </trkpt>
      <trkpt lat="43.84422" lon="7.49904">
        <ele>1060.9</ele>
        <time>2017-08-29T08:06:17Z</time>
      </trkpt>
      <trkpt lat="43.84416" lon="7.49929">
        <ele>1062.6</ele>
        <time>2017-08-29T08:06:34Z</time>
      </trkpt>
      <trkpt lat="43.84409" lon="7.49938">
        <ele>1066.1</ele>
        <time>2017-08-29T08:06:46Z</time>
      </trkpt>
      <trkpt lat="43.84402" lon="7.49949">
        <ele>1069.4</ele>
        <time>2017-08-29T08:07:03Z</time>
      </trkpt>
      <trkpt lat="43.84394" lon="7.49957">
        <ele>1072</ele>
        <time>2017-08-29T08:07:20Z</time>
      </trkpt>
      <trkpt lat="43.84392" lon="7.49958">
        <ele>1072.6</ele>
        <time>2017-08-29T08:07:27Z</time>
      </trkpt>
      <trkpt lat="43.84384" lon="7.49964">
        <ele>1075.2</ele>
        <time>2017-08-29T08:07:35Z</time>
      </trkpt>
      <trkpt lat="43.84375" lon="7.49988">
        <ele>1076.9</ele>
        <time>2017-08-29T08:07:51Z</time>
      </trkpt>
      <trkpt lat="43.84369" lon="7.49998">
        <ele>1077.5</ele>
        <time>2017-08-29T08:08:03Z</time>
      </trkpt>
      <trkpt lat="43.84365" lon="7.50002">
        <ele>1078.2</ele>
        <time>2017-08-29T08:08:21Z</time>
      </trkpt>
      <trkpt lat="43.84352" lon="7.50017">
        <ele>1082.5</ele>
        <time>2017-08-29T08:08:37Z</time>
      </trkpt>
      <trkpt lat="43.84343" lon="7.50021">
        <ele>1085.8</ele>
        <time>2017-08-29T08:08:52Z</time>
      </trkpt>
      <trkpt lat="43.84334" lon="7.50027">
        <ele>1088.8</ele>
        <time>2017-08-29T08:09:06Z</time>
      </trkpt>
      <trkpt lat="43.84326" lon="7.50032">
        <ele>1091.3</ele>
        <time>2017-08-29T08:09:21Z</time>
      </trkpt>
      <trkpt lat="43.84312" lon="7.50043">
        <ele>1095.2</ele>
        <time>2017-08-29T08:09:36Z</time>
      </trkpt>
      <trkpt lat="43.843" lon="7.50053">
        <ele>1098.3</ele>
        <time>2017-08-29T08:09:53Z</time>
      </trkpt>
      <trkpt lat="43.84289" lon="7.50071">
        <ele>1100</ele>
        <time>2017-08-29T08:10:09Z</time>
      </trkpt>
      <trkpt lat="43.84281" lon="7.50078">
        <ele>1101.7</ele>
        <time>2017-08-29T08:10:20Z</time>
      </trkpt>
      <trkpt lat="43.84273" lon="7.50084">
        <ele>1103.6</ele>
        <time>2017-08-29T08:10:33Z</time>
      </trkpt>
      <trkpt lat="43.84265" lon="7.50093">
        <ele>1105.5</ele>
        <time>2017-08-29T08:10:43Z</time>
      </trkpt>
      <trkpt lat="43.84257" lon="7.50109">
        <ele>1107.2</ele>
        <time>2017-08-29T08:10:57Z</time>
      </trkpt>
      <trkpt lat="43.84252" lon="7.50129">
        <ele>1108.1</ele>
        <time>2017-08-29T08:11:11Z</time>
      </trkpt>
      <trkpt lat="43.84235" lon="7.50137">
        <ele>1107.1</ele>
        <time>2017-08-29T08:11:27Z</time>
      </trkpt>
      <trkpt lat="43.84226" lon="7.50141">
        <ele>1106.3</ele>
        <time>2017-08-29T08:11:34Z</time>
      </trkpt>
      <trkpt lat="43.84206" lon="7.50148">
        <ele>1103.9</ele>
        <time>2017-08-29T08:11:52Z</time>
      </trkpt>
      <trkpt lat="43.84202" lon="7.50148">
        <ele>1103.3</ele>
        <time>2017-08-29T08:11:55Z</time>
      </trkpt>
      <trkpt lat="43.84187" lon="7.50153">
        <ele>1101</ele>
        <time>2017-08-29T08:12:08Z</time>
      </trkpt>
      <trkpt lat="43.84181" lon="7.50153">
        <ele>1100.3</ele>
        <time>2017-08-29T08:12:13Z</time>
      </trkpt>
      <trkpt lat="43.84177" lon="7.50156">
        <ele>1099.5</ele>
        <time>2017-08-29T08:12:17Z</time>
      </trkpt>
      <trkpt lat="43.84177" lon="7.50157">
        <ele>1099.4</ele>
        <time>2017-08-29T08:12:18Z</time>
      </trkpt>
      <trkpt lat="43.84174" lon="7.50159">
        <ele>1098.8</ele>
        <time>2017-08-29T08:12:20Z</time>
      </trkpt>
      <trkpt lat="43.84164" lon="7.5016">
        <ele>1097.2</ele>
        <time>2017-08-29T08:12:28Z</time>
      </trkpt>
      <trkpt lat="43.8416" lon="7.5016">
        <ele>1096.5</ele>
        <time>2017-08-29T08:12:31Z</time>
      </trkpt>
      <trkpt lat="43.84143" lon="7.50158">
        <ele>1093.7</ele>
        <time>2017-08-29T08:12:46Z</time>
      </trkpt>
      <trkpt lat="43.84125" lon="7.50155">
        <ele>1090.5</ele>
        <time>2017-08-29T08:13:00Z</time>
      </trkpt>
      <trkpt lat="43.84124" lon="7.50156">
        <ele>1090.1</ele>
        <time>2017-08-29T08:13:01Z</time>
      </trkpt>
      <trkpt lat="43.84105" lon="7.50159">
        <ele>1085.9</ele>
        <time>2017-08-29T08:13:17Z</time>
      </trkpt>
      <trkpt lat="43.84099" lon="7.50161">
        <ele>1084.4</ele>
        <time>2017-08-29T08:13:22Z</time>
      </trkpt>
      <trkpt lat="43.84095" lon="7.50162">
        <ele>1083.4</ele>
        <time>2017-08-29T08:13:26Z</time>
      </trkpt>
      <trkpt lat="43.84079" lon="7.50158">
        <ele>1080.8</ele>
        <time>2017-08-29T08:13:33Z</time>
      </trkpt>
      <trkpt lat="43.84074" lon="7.50155">
        <ele>1080.1</ele>
        <time>2017-08-29T08:13:38Z</time>
      </trkpt>
      <trkpt lat="43.84063" lon="7.5016">
        <ele>1076.9</ele>
        <time>2017-08-29T08:13:53Z</time>
      </trkpt>
      <trkpt lat="43.84047" lon="7.50169">
        <ele>1073.2</ele>
        <time>2017-08-29T08:14:07Z</time>
      </trkpt>
      <trkpt lat="43.8403" lon="7.50179">
        <ele>1070.7</ele>
        <time>2017-08-29T08:14:21Z</time>
      </trkpt>
      <trkpt lat="43.8401" lon="7.50191">
        <ele>1069.1</ele>
        <time>2017-08-29T08:14:37Z</time>
      </trkpt>
      <trkpt lat="43.83988" lon="7.50205">
        <ele>1068.7</ele>
        <time>2017-08-29T08:14:54Z</time>
      </trkpt>
      <trkpt lat="43.83968" lon="7.50219">
        <ele>1068</ele>
        <time>2017-08-29T08:15:09Z</time>
      </trkpt>
      <trkpt lat="43.83967" lon="7.5022">
        <ele>1068</ele>
        <time>2017-08-29T08:15:10Z</time>
      </trkpt>
      <trkpt lat="43.83946" lon="7.50241">
        <ele>1067.2</ele>
        <time>2017-08-29T08:15:28Z</time>
      </trkpt>
      <trkpt lat="43.83925" lon="7.50261">
        <ele>1066.6</ele>
        <time>2017-08-29T08:15:45Z</time>
      </trkpt>
      <trkpt lat="43.83904" lon="7.50272">
        <ele>1064.9</ele>
        <time>2017-08-29T08:16:02Z</time>
      </trkpt>
      <trkpt lat="43.83881" lon="7.50273">
        <ele>1060.1</ele>
        <time>2017-08-29T08:16:18Z</time>
      </trkpt>
      <trkpt lat="43.83873" lon="7.50272">
        <ele>1057.5</ele>
        <time>2017-08-29T08:16:23Z</time>
      </trkpt>
      <trkpt lat="43.83868" lon="7.50272">
        <ele>1056.1</ele>
        <time>2017-08-29T08:16:27Z</time>
      </trkpt>
      <trkpt lat="43.83847" lon="7.50276">
        <ele>1051.8</ele>
        <time>2017-08-29T08:16:43Z</time>
      </trkpt>
      <trkpt lat="43.83832" lon="7.50279">
        <ele>1048.8</ele>
        <time>2017-08-29T08:16:56Z</time>
      </trkpt>
      <trkpt lat="43.83827" lon="7.5028">
        <ele>1047.3</ele>
        <time>2017-08-29T08:16:59Z</time>
      </trkpt>
      <trkpt lat="43.83822" lon="7.50281">
        <ele>1045.8</ele>
        <time>2017-08-29T08:17:03Z</time>
      </trkpt>
      <trkpt lat="43.83799" lon="7.50291">
        <ele>1041</ele>
        <time>2017-08-29T08:17:19Z</time>
      </trkpt>
      <trkpt lat="43.83778" lon="7.50299">
        <ele>1036.7</ele>
        <time>2017-08-29T08:17:35Z</time>
      </trkpt>
      <trkpt lat="43.83774" lon="7.50299">
        <ele>1035.4</ele>
        <time>2017-08-29T08:17:38Z</time>
      </trkpt>
      <trkpt lat="43.83768" lon="7.50302">
        <ele>1034.6</ele>
        <time>2017-08-29T08:17:42Z</time>
      </trkpt>
      <trkpt lat="43.83757" lon="7.50307">
        <ele>1032.7</ele>
        <time>2017-08-29T08:17:52Z</time>
      </trkpt>
      <trkpt lat="43.83752" lon="7.50311">
        <ele>1032.4</ele>
        <time>2017-08-29T08:17:56Z</time>
      </trkpt>
      <trkpt lat="43.83746" lon="7.50313">
        <ele>1031</ele>
        <time>2017-08-29T08:18:01Z</time>
      </trkpt>
      <trkpt lat="43.8373" lon="7.50318">
        <ele>1026.8</ele>
        <time>2017-08-29T08:18:13Z</time>
      </trkpt>
      <trkpt lat="43.83725" lon="7.50319">
        <ele>1025.4</ele>
        <time>2017-08-29T08:18:17Z</time>
      </trkpt>
      <trkpt lat="43.83704" lon="7.50327">
        <ele>1020.4</ele>
        <time>2017-08-29T08:18:34Z</time>
      </trkpt>
      <trkpt lat="43.83686" lon="7.50333">
        <ele>1015.8</ele>
        <time>2017-08-29T08:18:49Z</time>
      </trkpt>
      <trkpt lat="43.83676" lon="7.50339">
        <ele>1014.1</ele>
        <time>2017-08-29T08:18:57Z</time>
      </trkpt>
      <trkpt lat="43.83673" lon="7.50341">
        <ele>1013.7</ele>
        <time>2017-08-29T08:19:00Z</time>
      </trkpt>
      <trkpt lat="43.83654" lon="7.50348">
        <ele>1010.1</ele>
        <time>2017-08-29T08:19:17Z</time>
      </trkpt>
      <trkpt lat="43.83643" lon="7.50346">
        <ele>1006.2</ele>
        <time>2017-08-29T08:19:25Z</time>
      </trkpt>
      <trkpt lat="43.8362" lon="7.50344">
        <ele>999.7</ele>
        <time>2017-08-29T08:19:42Z</time>
      </trkpt>
      <trkpt lat="43.83614" lon="7.50345">
        <ele>998.7</ele>
        <time>2017-08-29T08:19:47Z</time>
      </trkpt>
      <trkpt lat="43.83608" lon="7.50344">
        <ele>997.2</ele>
        <time>2017-08-29T08:19:52Z</time>
      </trkpt>
      <trkpt lat="43.83604" lon="7.50342">
        <ele>995.7</ele>
        <time>2017-08-29T08:19:56Z</time>
      </trkpt>
      <trkpt lat="43.83603" lon="7.50342">
        <ele>995.6</ele>
        <time>2017-08-29T08:20:15Z</time>
      </trkpt>
      <trkpt lat="43.83599" lon="7.5034">
        <ele>994.1</ele>
        <time>2017-08-29T08:20:20Z</time>
      </trkpt>
      <trkpt lat="43.83585" lon="7.50342">
        <ele>993</ele>
        <time>2017-08-29T08:20:28Z</time>
      </trkpt>
      <trkpt lat="43.83566" lon="7.50348">
        <ele>990</ele>
        <time>2017-08-29T08:20:40Z</time>
      </trkpt>
      <trkpt lat="43.83563" lon="7.50349">
        <ele>989.5</ele>
        <time>2017-08-29T08:20:42Z</time>
      </trkpt>
      <trkpt lat="43.83557" lon="7.50352">
        <ele>988.8</ele>
        <time>2017-08-29T08:20:46Z</time>
      </trkpt>
      <trkpt lat="43.83552" lon="7.50353">
        <ele>988.1</ele>
        <time>2017-08-29T08:20:49Z</time>
      </trkpt>
      <trkpt lat="43.83535" lon="7.50357">
        <ele>986.7</ele>
        <time>2017-08-29T08:21:02Z</time>
      </trkpt>
      <trkpt lat="43.83533" lon="7.50358">
        <ele>986.7</ele>
        <time>2017-08-29T08:21:04Z</time>
      </trkpt>
      <trkpt lat="43.83507" lon="7.5036">
        <ele>984.3</ele>
        <time>2017-08-29T08:21:20Z</time>
      </trkpt>
      <trkpt lat="43.8349" lon="7.50358">
        <ele>981.9</ele>
        <time>2017-08-29T08:21:32Z</time>
      </trkpt>
      <trkpt lat="43.83464" lon="7.50354">
        <ele>979</ele>
        <time>2017-08-29T08:21:49Z</time>
      </trkpt>
      <trkpt lat="43.83446" lon="7.50346">
        <ele>976</ele>
        <time>2017-08-29T08:22:03Z</time>
      </trkpt>
      <trkpt lat="43.83427" lon="7.50339">
        <ele>973.2</ele>
        <time>2017-08-29T08:22:17Z</time>
      </trkpt>
      <trkpt lat="43.83411" lon="7.50333">
        <ele>970.7</ele>
        <time>2017-08-29T08:22:29Z</time>
      </trkpt>
      <trkpt lat="43.83392" lon="7.50333">
        <ele>970</ele>
        <time>2017-08-29T08:22:42Z</time>
      </trkpt>
      <trkpt lat="43.83372" lon="7.5033">
        <ele>969.8</ele>
        <time>2017-08-29T08:22:56Z</time>
      </trkpt>
      <trkpt lat="43.83362" lon="7.5033">
        <ele>970.2</ele>
        <time>2017-08-29T08:23:03Z</time>
      </trkpt>
      <trkpt lat="43.83346" lon="7.50324">
        <ele>969</ele>
        <time>2017-08-29T08:23:13Z</time>
      </trkpt>
      <trkpt lat="43.83339" lon="7.50321">
        <ele>968.3</ele>
        <time>2017-08-29T08:23:17Z</time>
      </trkpt>
      <trkpt lat="43.83322" lon="7.50321">
        <ele>968.1</ele>
        <time>2017-08-29T08:23:30Z</time>
      </trkpt>
      <trkpt lat="43.8332" lon="7.50321">
        <ele>968</ele>
        <time>2017-08-29T08:23:31Z</time>
      </trkpt>
      <trkpt lat="43.83297" lon="7.50319">
        <ele>967.5</ele>
        <time>2017-08-29T08:23:47Z</time>
      </trkpt>
      <trkpt lat="43.83284" lon="7.50305">
        <ele>967.7</ele>
        <time>2017-08-29T08:24:01Z</time>
      </trkpt>
      <trkpt lat="43.83278" lon="7.50304">
        <ele>968.5</ele>
        <time>2017-08-29T08:24:07Z</time>
      </trkpt>
      <trkpt lat="43.83252" lon="7.50315">
        <ele>968.2</ele>
        <time>2017-08-29T08:24:24Z</time>
      </trkpt>
      <trkpt lat="43.83233" lon="7.50321">
        <ele>967</ele>
        <time>2017-08-29T08:24:37Z</time>
      </trkpt>
      <trkpt lat="43.83214" lon="7.50325">
        <ele>965.9</ele>
        <time>2017-08-29T08:24:51Z</time>
      </trkpt>
      <trkpt lat="43.83202" lon="7.50334">
        <ele>961.8</ele>
        <time>2017-08-29T08:25:01Z</time>
      </trkpt>
      <trkpt lat="43.83195" lon="7.50335">
        <ele>961.5</ele>
        <time>2017-08-29T08:25:08Z</time>
      </trkpt>
      <trkpt lat="43.83176" lon="7.50337">
        <ele>959.4</ele>
        <time>2017-08-29T08:25:24Z</time>
      </trkpt>
      <trkpt lat="43.83173" lon="7.50336">
        <ele>959.5</ele>
        <time>2017-08-29T08:25:27Z</time>
      </trkpt>
      <trkpt lat="43.83154" lon="7.5033">
        <ele>958.6</ele>
        <time>2017-08-29T08:25:41Z</time>
      </trkpt>
      <trkpt lat="43.83139" lon="7.50332">
        <ele>953.9</ele>
        <time>2017-08-29T08:25:56Z</time>
      </trkpt>
      <trkpt lat="43.83132" lon="7.50331">
        <ele>953.4</ele>
        <time>2017-08-29T08:26:04Z</time>
      </trkpt>
      <trkpt lat="43.83127" lon="7.50331">
        <ele>952.6</ele>
        <time>2017-08-29T08:26:09Z</time>
      </trkpt>
      <trkpt lat="43.83117" lon="7.50333">
        <ele>949.3</ele>
        <time>2017-08-29T08:26:22Z</time>
      </trkpt>
      <trkpt lat="43.83106" lon="7.50336">
        <ele>946.5</ele>
        <time>2017-08-29T08:26:36Z</time>
      </trkpt>
      <trkpt lat="43.83097" lon="7.50336">
        <ele>945.8</ele>
        <time>2017-08-29T08:26:46Z</time>
      </trkpt>
      <trkpt lat="43.83091" lon="7.50336">
        <ele>945.3</ele>
        <time>2017-08-29T08:26:51Z</time>
      </trkpt>
      <trkpt lat="43.83076" lon="7.50339">
        <ele>942.4</ele>
        <time>2017-08-29T08:27:04Z</time>
      </trkpt>
      <trkpt lat="43.83057" lon="7.5034">
        <ele>939.8</ele>
        <time>2017-08-29T08:27:18Z</time>
      </trkpt>
      <trkpt lat="43.83035" lon="7.50347">
        <ele>934.6</ele>
        <time>2017-08-29T08:27:34Z</time>
      </trkpt>
      <trkpt lat="43.83028" lon="7.50352">
        <ele>931.6</ele>
        <time>2017-08-29T08:27:41Z</time>
      </trkpt>
      <trkpt lat="43.8302" lon="7.50356">
        <ele>928.8</ele>
        <time>2017-08-29T08:27:47Z</time>
      </trkpt>
      <trkpt lat="43.83005" lon="7.5036">
        <ele>925.2</ele>
        <time>2017-08-29T08:27:59Z</time>
      </trkpt>
      <trkpt lat="43.82996" lon="7.50365">
        <ele>921.9</ele>
        <time>2017-08-29T08:28:11Z</time>
      </trkpt>
      <trkpt lat="43.82992" lon="7.50366">
        <ele>921</ele>
        <time>2017-08-29T08:28:15Z</time>
      </trkpt>
      <trkpt lat="43.82981" lon="7.50371">
        <ele>917.4</ele>
        <time>2017-08-29T08:28:30Z</time>
      </trkpt>
      <trkpt lat="43.82976" lon="7.50371">
        <ele>916.8</ele>
        <time>2017-08-29T08:28:36Z</time>
      </trkpt>
      <trkpt lat="43.82969" lon="7.50373">
        <ele>915.2</ele>
        <time>2017-08-29T08:28:43Z</time>
      </trkpt>
      <trkpt lat="43.82951" lon="7.50374">
        <ele>913.5</ele>
        <time>2017-08-29T08:28:58Z</time>
      </trkpt>
      <trkpt lat="43.82944" lon="7.50379">
        <ele>910.3</ele>
        <time>2017-08-29T08:29:07Z</time>
      </trkpt>
      <trkpt lat="43.82941" lon="7.5038">
        <ele>909.6</ele>
        <time>2017-08-29T08:29:13Z</time>
      </trkpt>
      <trkpt lat="43.82934" lon="7.50388">
        <ele>905.1</ele>
        <time>2017-08-29T08:29:28Z</time>
      </trkpt>
      <trkpt lat="43.82921" lon="7.50392">
        <ele>902.7</ele>
        <time>2017-08-29T08:29:42Z</time>
      </trkpt>
      <trkpt lat="43.82915" lon="7.50396">
        <ele>900.6</ele>
        <time>2017-08-29T08:29:49Z</time>
      </trkpt>
      <trkpt lat="43.82906" lon="7.504">
        <ele>898.6</ele>
        <time>2017-08-29T08:29:57Z</time>
      </trkpt>
      <trkpt lat="43.82889" lon="7.50405">
        <ele>896</ele>
        <time>2017-08-29T08:30:15Z</time>
      </trkpt>
      <trkpt lat="43.82886" lon="7.50406">
        <ele>895.2</ele>
        <time>2017-08-29T08:30:18Z</time>
      </trkpt>
      <trkpt lat="43.82869" lon="7.5041">
        <ele>891.6</ele>
        <time>2017-08-29T08:30:34Z</time>
      </trkpt>
      <trkpt lat="43.82865" lon="7.5041">
        <ele>891.1</ele>
        <time>2017-08-29T08:30:40Z</time>
      </trkpt>
      <trkpt lat="43.82859" lon="7.50409">
        <ele>890.4</ele>
        <time>2017-08-29T08:30:48Z</time>
      </trkpt>
      <trkpt lat="43.82853" lon="7.50413">
        <ele>888.2</ele>
        <time>2017-08-29T08:30:55Z</time>
      </trkpt>
      <trkpt lat="43.82852" lon="7.50417">
        <ele>887.2</ele>
        <time>2017-08-29T08:31:09Z</time>
      </trkpt>
      <trkpt lat="43.82847" lon="7.50419">
        <ele>885.4</ele>
        <time>2017-08-29T08:31:21Z</time>
      </trkpt>
      <trkpt lat="43.82837" lon="7.50417">
        <ele>884.5</ele>
        <time>2017-08-29T08:31:34Z</time>
      </trkpt>
      <trkpt lat="43.82829" lon="7.50417">
        <ele>882.3</ele>
        <time>2017-08-29T08:31:44Z</time>
      </trkpt>
      <trkpt lat="43.8283" lon="7.50422">
        <ele>880.2</ele>
        <time>2017-08-29T08:31:49Z</time>
      </trkpt>
      <trkpt lat="43.82829" lon="7.50431">
        <ele>875.5</ele>
        <time>2017-08-29T08:32:04Z</time>
      </trkpt>
      <trkpt lat="43.82818" lon="7.50426">
        <ele>874.3</ele>
        <time>2017-08-29T08:32:18Z</time>
      </trkpt>
      <trkpt lat="43.82817" lon="7.50429">
        <ele>872.7</ele>
        <time>2017-08-29T08:32:26Z</time>
      </trkpt>
      <trkpt lat="43.82803" lon="7.50427">
        <ele>869</ele>
        <time>2017-08-29T08:32:42Z</time>
      </trkpt>
      <trkpt lat="43.82801" lon="7.50431">
        <ele>866.8</ele>
        <time>2017-08-29T08:32:52Z</time>
      </trkpt>
      <trkpt lat="43.82793" lon="7.50431">
        <ele>864</ele>
        <time>2017-08-29T08:33:04Z</time>
      </trkpt>
      <trkpt lat="43.82781" lon="7.50428">
        <ele>861</ele>
        <time>2017-08-29T08:33:16Z</time>
      </trkpt>
      <trkpt lat="43.82781" lon="7.50429">
        <ele>860.7</ele>
        <time>2017-08-29T08:33:17Z</time>
      </trkpt>
      <trkpt lat="43.82786" lon="7.50434">
        <ele>860.5</ele>
        <time>2017-08-29T08:33:23Z</time>
      </trkpt>
      <trkpt lat="43.82783" lon="7.50438">
        <ele>858.1</ele>
        <time>2017-08-29T08:33:29Z</time>
      </trkpt>
      <trkpt lat="43.82778" lon="7.50435">
        <ele>857.5</ele>
        <time>2017-08-29T08:33:34Z</time>
      </trkpt>
      <trkpt lat="43.82777" lon="7.50439">
        <ele>855.8</ele>
        <time>2017-08-29T08:33:37Z</time>
      </trkpt>
      <trkpt lat="43.82779" lon="7.50443">
        <ele>854.9</ele>
        <time>2017-08-29T08:33:40Z</time>
      </trkpt>
      <trkpt lat="43.82782" lon="7.50447">
        <ele>854.3</ele>
        <time>2017-08-29T08:33:44Z</time>
      </trkpt>
      <trkpt lat="43.8279" lon="7.50459">
        <ele>852</ele>
        <time>2017-08-29T08:33:57Z</time>
      </trkpt>
      <trkpt lat="43.828" lon="7.50476">
        <ele>849.3</ele>
        <time>2017-08-29T08:34:11Z</time>
      </trkpt>
      <trkpt lat="43.82802" lon="7.50479">
        <ele>849.8</ele>
        <time>2017-08-29T08:34:30Z</time>
      </trkpt>
      <trkpt lat="43.82798" lon="7.50478">
        <ele>848.7</ele>
        <time>2017-08-29T08:34:43Z</time>
      </trkpt>
      <trkpt lat="43.8279" lon="7.50475">
        <ele>846.5</ele>
        <time>2017-08-29T08:34:51Z</time>
      </trkpt>
      <trkpt lat="43.82781" lon="7.50471">
        <ele>844.4</ele>
        <time>2017-08-29T08:35:04Z</time>
      </trkpt>
      <trkpt lat="43.82775" lon="7.50471">
        <ele>842.8</ele>
        <time>2017-08-29T08:35:17Z</time>
      </trkpt>
      <trkpt lat="43.82774" lon="7.5047">
        <ele>842.9</ele>
        <time>2017-08-29T08:35:36Z</time>
      </trkpt>
      <trkpt lat="43.82773" lon="7.5047">
        <ele>842.7</ele>
        <time>2017-08-29T08:35:57Z</time>
      </trkpt>
      <trkpt lat="43.82763" lon="7.50467">
        <ele>841.2</ele>
        <time>2017-08-29T08:36:09Z</time>
      </trkpt>
      <trkpt lat="43.82763" lon="7.50467">
        <ele>841.2</ele>
        <time>2017-08-29T08:36:25Z</time>
      </trkpt>
      <trkpt lat="43.82755" lon="7.50462">
        <ele>841</ele>
        <time>2017-08-29T08:36:40Z</time>
      </trkpt>
      <trkpt lat="43.82753" lon="7.5046">
        <ele>841.2</ele>
        <time>2017-08-29T08:36:42Z</time>
      </trkpt>
      <trkpt lat="43.82749" lon="7.50456">
        <ele>841.5</ele>
        <time>2017-08-29T08:36:49Z</time>
      </trkpt>
      <trkpt lat="43.8274" lon="7.5045">
        <ele>840.2</ele>
        <time>2017-08-29T08:36:58Z</time>
      </trkpt>
      <trkpt lat="43.82722" lon="7.50436">
        <ele>837.9</ele>
        <time>2017-08-29T08:37:13Z</time>
      </trkpt>
      <trkpt lat="43.82709" lon="7.50423">
        <ele>836.1</ele>
        <time>2017-08-29T08:37:28Z</time>
      </trkpt>
      <trkpt lat="43.82702" lon="7.50414">
        <ele>834.5</ele>
        <time>2017-08-29T08:37:47Z</time>
      </trkpt>
      <trkpt lat="43.82695" lon="7.5041">
        <ele>830.8</ele>
        <time>2017-08-29T08:37:55Z</time>
      </trkpt>
      <trkpt lat="43.82687" lon="7.50406">
        <ele>826.9</ele>
        <time>2017-08-29T08:38:08Z</time>
      </trkpt>
      <trkpt lat="43.82687" lon="7.50419">
        <ele>826.8</ele>
        <time>2017-08-29T08:38:22Z</time>
      </trkpt>
      <trkpt lat="43.82687" lon="7.50421">
        <ele>826.1</ele>
        <time>2017-08-29T08:38:24Z</time>
      </trkpt>
      <trkpt lat="43.82684" lon="7.50424">
        <ele>823.9</ele>
        <time>2017-08-29T08:38:28Z</time>
      </trkpt>
      <trkpt lat="43.82682" lon="7.50421">
        <ele>823.9</ele>
        <time>2017-08-29T08:38:33Z</time>
      </trkpt>
      <trkpt lat="43.82671" lon="7.50417">
        <ele>819.9</ele>
        <time>2017-08-29T08:38:47Z</time>
      </trkpt>
      <trkpt lat="43.82668" lon="7.5042">
        <ele>817.9</ele>
        <time>2017-08-29T08:38:51Z</time>
      </trkpt>
      <trkpt lat="43.82669" lon="7.5043">
        <ele>816.1</ele>
        <time>2017-08-29T08:38:59Z</time>
      </trkpt>
      <trkpt lat="43.82671" lon="7.50437">
        <ele>815.2</ele>
        <time>2017-08-29T08:39:04Z</time>
      </trkpt>
      <trkpt lat="43.82671" lon="7.50445">
        <ele>813.5</ele>
        <time>2017-08-29T08:39:09Z</time>
      </trkpt>
      <trkpt lat="43.82672" lon="7.50455">
        <ele>814.6</ele>
        <time>2017-08-29T08:39:18Z</time>
      </trkpt>
      <trkpt lat="43.8266" lon="7.50483">
        <ele>814.8</ele>
        <time>2017-08-29T08:39:37Z</time>
      </trkpt>
      <trkpt lat="43.82648" lon="7.50509">
        <ele>815.5</ele>
        <time>2017-08-29T08:39:55Z</time>
      </trkpt>
      <trkpt lat="43.82631" lon="7.50526">
        <ele>814.9</ele>
        <time>2017-08-29T08:40:11Z</time>
      </trkpt>
      <trkpt lat="43.82615" lon="7.50534">
        <ele>815</ele>
        <time>2017-08-29T08:40:25Z</time>
      </trkpt>
      <trkpt lat="43.826" lon="7.50543">
        <ele>816.3</ele>
        <time>2017-08-29T08:40:40Z</time>
      </trkpt>
      <trkpt lat="43.8258" lon="7.50552">
        <ele>817.6</ele>
        <time>2017-08-29T08:40:56Z</time>
      </trkpt>
      <trkpt lat="43.82559" lon="7.50557">
        <ele>816.8</ele>
        <time>2017-08-29T08:41:13Z</time>
      </trkpt>
      <trkpt lat="43.82541" lon="7.50565">
        <ele>816.6</ele>
        <time>2017-08-29T08:41:28Z</time>
      </trkpt>
      <trkpt lat="43.82528" lon="7.50571">
        <ele>816.5</ele>
        <time>2017-08-29T08:41:40Z</time>
      </trkpt>
      <trkpt lat="43.82513" lon="7.50576">
        <ele>817.4</ele>
        <time>2017-08-29T08:41:52Z</time>
      </trkpt>
      <trkpt lat="43.82488" lon="7.50585">
        <ele>819.4</ele>
        <time>2017-08-29T08:42:09Z</time>
      </trkpt>
      <trkpt lat="43.82468" lon="7.50589">
        <ele>820</ele>
        <time>2017-08-29T08:42:24Z</time>
      </trkpt>
      <trkpt lat="43.82448" lon="7.50602">
        <ele>821.1</ele>
        <time>2017-08-29T08:42:40Z</time>
      </trkpt>
      <trkpt lat="43.82426" lon="7.50613">
        <ele>822.1</ele>
        <time>2017-08-29T08:42:57Z</time>
      </trkpt>
      <trkpt lat="43.82409" lon="7.50626">
        <ele>823.9</ele>
        <time>2017-08-29T08:43:12Z</time>
      </trkpt>
      <trkpt lat="43.8239" lon="7.5063">
        <ele>822.9</ele>
        <time>2017-08-29T08:43:28Z</time>
      </trkpt>
      <trkpt lat="43.82369" lon="7.50631">
        <ele>823</ele>
        <time>2017-08-29T08:43:42Z</time>
      </trkpt>
      <trkpt lat="43.82349" lon="7.50619">
        <ele>821.7</ele>
        <time>2017-08-29T08:43:57Z</time>
      </trkpt>
      <trkpt lat="43.82332" lon="7.50606">
        <ele>821.2</ele>
        <time>2017-08-29T08:44:11Z</time>
      </trkpt>
      <trkpt lat="43.82313" lon="7.50591">
        <ele>822</ele>
        <time>2017-08-29T08:44:27Z</time>
      </trkpt>
      <trkpt lat="43.82295" lon="7.50573">
        <ele>820.7</ele>
        <time>2017-08-29T08:44:43Z</time>
      </trkpt>
      <trkpt lat="43.82289" lon="7.50568">
        <ele>820.3</ele>
        <time>2017-08-29T08:44:48Z</time>
      </trkpt>
      <trkpt lat="43.82283" lon="7.50566">
        <ele>820.8</ele>
        <time>2017-08-29T08:44:52Z</time>
      </trkpt>
      <trkpt lat="43.82265" lon="7.50548">
        <ele>817.7</ele>
        <time>2017-08-29T08:45:09Z</time>
      </trkpt>
      <trkpt lat="43.82264" lon="7.50547">
        <ele>817.5</ele>
        <time>2017-08-29T08:45:10Z</time>
      </trkpt>
      <trkpt lat="43.82256" lon="7.50536">
        <ele>815.4</ele>
        <time>2017-08-29T08:45:19Z</time>
      </trkpt>
      <trkpt lat="43.82253" lon="7.50531">
        <ele>814.5</ele>
        <time>2017-08-29T08:45:23Z</time>
      </trkpt>
      <trkpt lat="43.82247" lon="7.50526">
        <ele>813.8</ele>
        <time>2017-08-29T08:45:28Z</time>
      </trkpt>
      <trkpt lat="43.82241" lon="7.50519">
        <ele>812.6</ele>
        <time>2017-08-29T08:45:34Z</time>
      </trkpt>
      <trkpt lat="43.82237" lon="7.50507">
        <ele>810.1</ele>
        <time>2017-08-29T08:45:41Z</time>
      </trkpt>
      <trkpt lat="43.82231" lon="7.50497">
        <ele>808.7</ele>
        <time>2017-08-29T08:45:49Z</time>
      </trkpt>
      <trkpt lat="43.82212" lon="7.50476">
        <ele>808.7</ele>
        <time>2017-08-29T08:46:05Z</time>
      </trkpt>
      <trkpt lat="43.82208" lon="7.50465">
        <ele>806.9</ele>
        <time>2017-08-29T08:46:11Z</time>
      </trkpt>
      <trkpt lat="43.8219" lon="7.50441">
        <ele>802.2</ele>
        <time>2017-08-29T08:46:30Z</time>
      </trkpt>
      <trkpt lat="43.82184" lon="7.50435">
        <ele>800.8</ele>
        <time>2017-08-29T08:46:35Z</time>
      </trkpt>
      <trkpt lat="43.82183" lon="7.50435">
        <ele>800.6</ele>
        <time>2017-08-29T08:46:37Z</time>
      </trkpt>
      <trkpt lat="43.82178" lon="7.50457">
        <ele>803.5</ele>
        <time>2017-08-29T08:46:54Z</time>
      </trkpt>
      <trkpt lat="43.82174" lon="7.50462">
        <ele>803.6</ele>
        <time>2017-08-29T08:47:01Z</time>
      </trkpt>
      <trkpt lat="43.8217" lon="7.50478">
        <ele>805.6</ele>
        <time>2017-08-29T08:47:16Z</time>
      </trkpt>
      <trkpt lat="43.82171" lon="7.50495">
        <ele>810</ele>
        <time>2017-08-29T08:47:30Z</time>
      </trkpt>
      <trkpt lat="43.8217" lon="7.50503">
        <ele>811.6</ele>
        <time>2017-08-29T08:47:41Z</time>
      </trkpt>
      <trkpt lat="43.82168" lon="7.50504">
        <ele>811.2</ele>
        <time>2017-08-29T08:47:44Z</time>
      </trkpt>
      <trkpt lat="43.82166" lon="7.50511">
        <ele>812.1</ele>
        <time>2017-08-29T08:47:48Z</time>
      </trkpt>
      <trkpt lat="43.82163" lon="7.50528">
        <ele>814.8</ele>
        <time>2017-08-29T08:47:58Z</time>
      </trkpt>
      <trkpt lat="43.8217" lon="7.50547">
        <ele>816.6</ele>
        <time>2017-08-29T08:48:11Z</time>
      </trkpt>
      <trkpt lat="43.82171" lon="7.50554">
        <ele>816.8</ele>
        <time>2017-08-29T08:48:16Z</time>
      </trkpt>
      <trkpt lat="43.82171" lon="7.50557">
        <ele>817</ele>
        <time>2017-08-29T08:48:18Z</time>
      </trkpt>
      <trkpt lat="43.82172" lon="7.50563">
        <ele>818</ele>
        <time>2017-08-29T08:48:22Z</time>
      </trkpt>
      <trkpt lat="43.82166" lon="7.50578">
        <ele>819.2</ele>
        <time>2017-08-29T08:48:39Z</time>
      </trkpt>
      <trkpt lat="43.82157" lon="7.50585">
        <ele>820.7</ele>
        <time>2017-08-29T08:48:50Z</time>
      </trkpt>
      <trkpt lat="43.82145" lon="7.50596">
        <ele>823</ele>
        <time>2017-08-29T08:49:06Z</time>
      </trkpt>
      <trkpt lat="43.82136" lon="7.50605">
        <ele>825.4</ele>
        <time>2017-08-29T08:49:21Z</time>
      </trkpt>
      <trkpt lat="43.82128" lon="7.50599">
        <ele>827.7</ele>
        <time>2017-08-29T08:49:35Z</time>
      </trkpt>
      <trkpt lat="43.82121" lon="7.50588">
        <ele>827.9</ele>
        <time>2017-08-29T08:49:49Z</time>
      </trkpt>
      <trkpt lat="43.82117" lon="7.50585">
        <ele>828.5</ele>
        <time>2017-08-29T08:49:56Z</time>
      </trkpt>
      <trkpt lat="43.82104" lon="7.50585">
        <ele>829.7</ele>
        <time>2017-08-29T08:50:10Z</time>
      </trkpt>
      <trkpt lat="43.82097" lon="7.50591">
        <ele>831</ele>
        <time>2017-08-29T08:50:20Z</time>
      </trkpt>
      <trkpt lat="43.82086" lon="7.50603">
        <ele>834.2</ele>
        <time>2017-08-29T08:50:33Z</time>
      </trkpt>
      <trkpt lat="43.82077" lon="7.50603">
        <ele>834.5</ele>
        <time>2017-08-29T08:50:43Z</time>
      </trkpt>
      <trkpt lat="43.82061" lon="7.506">
        <ele>834.3</ele>
        <time>2017-08-29T08:51:00Z</time>
      </trkpt>
      <trkpt lat="43.82051" lon="7.50604">
        <ele>836.8</ele>
        <time>2017-08-29T08:51:15Z</time>
      </trkpt>
      <trkpt lat="43.8204" lon="7.50609">
        <ele>839.5</ele>
        <time>2017-08-29T08:51:28Z</time>
      </trkpt>
      <trkpt lat="43.82029" lon="7.50616">
        <ele>842.7</ele>
        <time>2017-08-29T08:51:44Z</time>
      </trkpt>
      <trkpt lat="43.82016" lon="7.50629">
        <ele>849.3</ele>
        <time>2017-08-29T08:51:59Z</time>
      </trkpt>
      <trkpt lat="43.82012" lon="7.50629">
        <ele>850</ele>
        <time>2017-08-29T08:52:04Z</time>
      </trkpt>
      <trkpt lat="43.81997" lon="7.50629">
        <ele>852</ele>
        <time>2017-08-29T08:52:21Z</time>
      </trkpt>
      <trkpt lat="43.81989" lon="7.50633">
        <ele>853.1</ele>
        <time>2017-08-29T08:52:29Z</time>
      </trkpt>
      <trkpt lat="43.81982" lon="7.50639">
        <ele>854</ele>
        <time>2017-08-29T08:52:37Z</time>
      </trkpt>
      <trkpt lat="43.81981" lon="7.50654">
        <ele>857.6</ele>
        <time>2017-08-29T08:52:50Z</time>
      </trkpt>
      <trkpt lat="43.81979" lon="7.50664">
        <ele>860.1</ele>
        <time>2017-08-29T08:53:04Z</time>
      </trkpt>
      <trkpt lat="43.81979" lon="7.50664">
        <ele>860.1</ele>
        <time>2017-08-29T08:53:28Z</time>
      </trkpt>
      <trkpt lat="43.81979" lon="7.50664">
        <ele>860.1</ele>
        <time>2017-08-29T08:53:59Z</time>
      </trkpt>
      <trkpt lat="43.81979" lon="7.50664">
        <ele>860.1</ele>
        <time>2017-08-29T08:54:22Z</time>
      </trkpt>
      <trkpt lat="43.81982" lon="7.50672">
        <ele>862.2</ele>
        <time>2017-08-29T08:54:41Z</time>
      </trkpt>
      <trkpt lat="43.81981" lon="7.50686">
        <ele>866.3</ele>
        <time>2017-08-29T08:54:57Z</time>
      </trkpt>
      <trkpt lat="43.81977" lon="7.50693">
        <ele>868.9</ele>
        <time>2017-08-29T08:55:10Z</time>
      </trkpt>
      <trkpt lat="43.81979" lon="7.50705">
        <ele>871.6</ele>
        <time>2017-08-29T08:55:23Z</time>
      </trkpt>
      <trkpt lat="43.81981" lon="7.5072">
        <ele>874.9</ele>
        <time>2017-08-29T08:55:37Z</time>
      </trkpt>
      <trkpt lat="43.81981" lon="7.50735">
        <ele>878.5</ele>
        <time>2017-08-29T08:55:53Z</time>
      </trkpt>
      <trkpt lat="43.81975" lon="7.50737">
        <ele>880.2</ele>
        <time>2017-08-29T08:56:08Z</time>
      </trkpt>
      <trkpt lat="43.81964" lon="7.50738">
        <ele>881.9</ele>
        <time>2017-08-29T08:56:25Z</time>
      </trkpt>
      <trkpt lat="43.81955" lon="7.50747">
        <ele>886.1</ele>
        <time>2017-08-29T08:56:40Z</time>
      </trkpt>
      <trkpt lat="43.81953" lon="7.50765">
        <ele>887.8</ele>
        <time>2017-08-29T08:56:56Z</time>
      </trkpt>
      <trkpt lat="43.8195" lon="7.50776">
        <ele>888.4</ele>
        <time>2017-08-29T08:57:06Z</time>
      </trkpt>
      <trkpt lat="43.81948" lon="7.50782">
        <ele>889.1</ele>
        <time>2017-08-29T08:57:11Z</time>
      </trkpt>
      <trkpt lat="43.81947" lon="7.50784">
        <ele>889.4</ele>
        <time>2017-08-29T08:57:13Z</time>
      </trkpt>
      <trkpt lat="43.81941" lon="7.50789">
        <ele>890.4</ele>
        <time>2017-08-29T08:57:25Z</time>
      </trkpt>
      <trkpt lat="43.81931" lon="7.50797">
        <ele>892.1</ele>
        <time>2017-08-29T08:57:38Z</time>
      </trkpt>
      <trkpt lat="43.81923" lon="7.5081">
        <ele>895.4</ele>
        <time>2017-08-29T08:57:54Z</time>
      </trkpt>
      <trkpt lat="43.8192" lon="7.50819">
        <ele>898.2</ele>
        <time>2017-08-29T08:58:05Z</time>
      </trkpt>
      <trkpt lat="43.81918" lon="7.50828">
        <ele>901.1</ele>
        <time>2017-08-29T08:58:19Z</time>
      </trkpt>
      <trkpt lat="43.81919" lon="7.50845">
        <ele>904.8</ele>
        <time>2017-08-29T08:58:33Z</time>
      </trkpt>
      <trkpt lat="43.81915" lon="7.50845">
        <ele>905.4</ele>
        <time>2017-08-29T08:58:45Z</time>
      </trkpt>
      <trkpt lat="43.81907" lon="7.50847">
        <ele>905.4</ele>
        <time>2017-08-29T08:58:59Z</time>
      </trkpt>
      <trkpt lat="43.81902" lon="7.50858">
        <ele>908.6</ele>
        <time>2017-08-29T08:59:15Z</time>
      </trkpt>
      <trkpt lat="43.81901" lon="7.50869">
        <ele>911.1</ele>
        <time>2017-08-29T08:59:28Z</time>
      </trkpt>
      <trkpt lat="43.81898" lon="7.50878">
        <ele>913.3</ele>
        <time>2017-08-29T08:59:39Z</time>
      </trkpt>
      <trkpt lat="43.8189" lon="7.50882">
        <ele>915.8</ele>
        <time>2017-08-29T08:59:50Z</time>
      </trkpt>
      <trkpt lat="43.81882" lon="7.50898">
        <ele>918.1</ele>
        <time>2017-08-29T09:00:07Z</time>
      </trkpt>
      <trkpt lat="43.81877" lon="7.50909">
        <ele>919.8</ele>
        <time>2017-08-29T09:00:20Z</time>
      </trkpt>
      <trkpt lat="43.81872" lon="7.5092">
        <ele>922.4</ele>
        <time>2017-08-29T09:00:35Z</time>
      </trkpt>
      <trkpt lat="43.81868" lon="7.50924">
        <ele>923.5</ele>
        <time>2017-08-29T09:00:42Z</time>
      </trkpt>
      <trkpt lat="43.81861" lon="7.50937">
        <ele>927.1</ele>
        <time>2017-08-29T09:00:56Z</time>
      </trkpt>
      <trkpt lat="43.81855" lon="7.50951">
        <ele>929.7</ele>
        <time>2017-08-29T09:01:14Z</time>
      </trkpt>
      <trkpt lat="43.8185" lon="7.50964">
        <ele>932.5</ele>
        <time>2017-08-29T09:01:30Z</time>
      </trkpt>
      <trkpt lat="43.81844" lon="7.50972">
        <ele>934.3</ele>
        <time>2017-08-29T09:01:44Z</time>
      </trkpt>
      <trkpt lat="43.81839" lon="7.50977">
        <ele>935.9</ele>
        <time>2017-08-29T09:01:53Z</time>
      </trkpt>
      <trkpt lat="43.81828" lon="7.50983">
        <ele>938</ele>
        <time>2017-08-29T09:02:09Z</time>
      </trkpt>
      <trkpt lat="43.81815" lon="7.50986">
        <ele>939.3</ele>
        <time>2017-08-29T09:02:26Z</time>
      </trkpt>
      <trkpt lat="43.81799" lon="7.5099">
        <ele>940.5</ele>
        <time>2017-08-29T09:02:43Z</time>
      </trkpt>
      <trkpt lat="43.81788" lon="7.50992">
        <ele>940.5</ele>
        <time>2017-08-29T09:02:59Z</time>
      </trkpt>
      <trkpt lat="43.81784" lon="7.51003">
        <ele>943.6</ele>
        <time>2017-08-29T09:03:14Z</time>
      </trkpt>
      <trkpt lat="43.81781" lon="7.5101">
        <ele>946.2</ele>
        <time>2017-08-29T09:03:29Z</time>
      </trkpt>
      <trkpt lat="43.8179" lon="7.51026">
        <ele>952.8</ele>
        <time>2017-08-29T09:03:46Z</time>
      </trkpt>
      <trkpt lat="43.81796" lon="7.51031">
        <ele>954.8</ele>
        <time>2017-08-29T09:04:01Z</time>
      </trkpt>
      <trkpt lat="43.81797" lon="7.51032">
        <ele>955.2</ele>
        <time>2017-08-29T09:04:15Z</time>
      </trkpt>
      <trkpt lat="43.81803" lon="7.51038">
        <ele>957.6</ele>
        <time>2017-08-29T09:04:29Z</time>
      </trkpt>
      <trkpt lat="43.81807" lon="7.5105">
        <ele>961.7</ele>
        <time>2017-08-29T09:04:44Z</time>
      </trkpt>
      <trkpt lat="43.81814" lon="7.51068">
        <ele>967.9</ele>
        <time>2017-08-29T09:05:00Z</time>
      </trkpt>
      <trkpt lat="43.81821" lon="7.51085">
        <ele>972.9</ele>
        <time>2017-08-29T09:05:16Z</time>
      </trkpt>
      <trkpt lat="43.81828" lon="7.51103">
        <ele>976.9</ele>
        <time>2017-08-29T09:05:34Z</time>
      </trkpt>
      <trkpt lat="43.81832" lon="7.51113">
        <ele>979.8</ele>
        <time>2017-08-29T09:05:52Z</time>
      </trkpt>
      <trkpt lat="43.81841" lon="7.51124">
        <ele>982.2</ele>
        <time>2017-08-29T09:06:11Z</time>
      </trkpt>
      <trkpt lat="43.81845" lon="7.51129">
        <ele>983.5</ele>
        <time>2017-08-29T09:06:28Z</time>
      </trkpt>
      <trkpt lat="43.81853" lon="7.51135">
        <ele>985</ele>
        <time>2017-08-29T09:06:44Z</time>
      </trkpt>
      <trkpt lat="43.81854" lon="7.51134">
        <ele>984.5</ele>
        <time>2017-08-29T09:07:06Z</time>
      </trkpt>
      <trkpt lat="43.81863" lon="7.51142">
        <ele>987.2</ele>
        <time>2017-08-29T09:07:25Z</time>
      </trkpt>
      <trkpt lat="43.81864" lon="7.51145">
        <ele>988.3</ele>
        <time>2017-08-29T09:07:40Z</time>
      </trkpt>
      <trkpt lat="43.8186" lon="7.51151">
        <ele>990.4</ele>
        <time>2017-08-29T09:07:56Z</time>
      </trkpt>
      <trkpt lat="43.8186" lon="7.51159">
        <ele>993.3</ele>
        <time>2017-08-29T09:08:11Z</time>
      </trkpt>
      <trkpt lat="43.81857" lon="7.51163">
        <ele>994.7</ele>
        <time>2017-08-29T09:08:27Z</time>
      </trkpt>
      <trkpt lat="43.81853" lon="7.51171">
        <ele>997.7</ele>
        <time>2017-08-29T09:08:42Z</time>
      </trkpt>
      <trkpt lat="43.81851" lon="7.51174">
        <ele>998.8</ele>
        <time>2017-08-29T09:08:50Z</time>
      </trkpt>
      <trkpt lat="43.8184" lon="7.51181">
        <ele>1001.3</ele>
        <time>2017-08-29T09:09:05Z</time>
      </trkpt>
      <trkpt lat="43.81829" lon="7.51187">
        <ele>1003.1</ele>
        <time>2017-08-29T09:09:20Z</time>
      </trkpt>
      <trkpt lat="43.81818" lon="7.51198">
        <ele>1006.1</ele>
        <time>2017-08-29T09:09:36Z</time>
      </trkpt>
      <trkpt lat="43.81805" lon="7.51205">
        <ele>1007.8</ele>
        <time>2017-08-29T09:09:51Z</time>
      </trkpt>
      <trkpt lat="43.81799" lon="7.51209">
        <ele>1009.7</ele>
        <time>2017-08-29T09:10:00Z</time>
      </trkpt>
      <trkpt lat="43.81786" lon="7.51215">
        <ele>1012.8</ele>
        <time>2017-08-29T09:10:16Z</time>
      </trkpt>
      <trkpt lat="43.81784" lon="7.51215">
        <ele>1013</ele>
        <time>2017-08-29T09:10:18Z</time>
      </trkpt>
      <trkpt lat="43.81762" lon="7.51215">
        <ele>1014.7</ele>
        <time>2017-08-29T09:10:39Z</time>
      </trkpt>
      <trkpt lat="43.81753" lon="7.51219">
        <ele>1017.2</ele>
        <time>2017-08-29T09:10:55Z</time>
      </trkpt>
      <trkpt lat="43.81748" lon="7.51229">
        <ele>1021.3</ele>
        <time>2017-08-29T09:11:09Z</time>
      </trkpt>
      <trkpt lat="43.81743" lon="7.5124">
        <ele>1025.5</ele>
        <time>2017-08-29T09:11:24Z</time>
      </trkpt>
      <trkpt lat="43.81743" lon="7.51244">
        <ele>1027.1</ele>
        <time>2017-08-29T09:11:29Z</time>
      </trkpt>
      <trkpt lat="43.81736" lon="7.51249">
        <ele>1029.6</ele>
        <time>2017-08-29T09:11:43Z</time>
      </trkpt>
      <trkpt lat="43.81725" lon="7.51251">
        <ele>1031.2</ele>
        <time>2017-08-29T09:11:58Z</time>
      </trkpt>
      <trkpt lat="43.8171" lon="7.51252">
        <ele>1031.9</ele>
        <time>2017-08-29T09:12:14Z</time>
      </trkpt>
      <trkpt lat="43.81694" lon="7.51253">
        <ele>1032.6</ele>
        <time>2017-08-29T09:12:32Z</time>
      </trkpt>
      <trkpt lat="43.81677" lon="7.51255">
        <ele>1035.1</ele>
        <time>2017-08-29T09:12:48Z</time>
      </trkpt>
      <trkpt lat="43.81664" lon="7.51262">
        <ele>1039</ele>
        <time>2017-08-29T09:13:02Z</time>
      </trkpt>
      <trkpt lat="43.81653" lon="7.51261">
        <ele>1039.6</ele>
        <time>2017-08-29T09:13:12Z</time>
      </trkpt>
      <trkpt lat="43.81633" lon="7.5125">
        <ele>1037.4</ele>
        <time>2017-08-29T09:13:29Z</time>
      </trkpt>
      <trkpt lat="43.81621" lon="7.51245">
        <ele>1036.6</ele>
        <time>2017-08-29T09:13:42Z</time>
      </trkpt>
      <trkpt lat="43.8161" lon="7.51254">
        <ele>1041</ele>
        <time>2017-08-29T09:13:55Z</time>
      </trkpt>
      <trkpt lat="43.81606" lon="7.51256">
        <ele>1044.1</ele>
        <time>2017-08-29T09:14:08Z</time>
      </trkpt>
      <trkpt lat="43.81604" lon="7.51256">
        <ele>1045.3</ele>
        <time>2017-08-29T09:14:21Z</time>
      </trkpt>
      <trkpt lat="43.81606" lon="7.51251">
        <ele>1042.8</ele>
        <time>2017-08-29T09:14:34Z</time>
      </trkpt>
      <trkpt lat="43.81601" lon="7.51259">
        <ele>1047.8</ele>
        <time>2017-08-29T09:14:50Z</time>
      </trkpt>
      <trkpt lat="43.816" lon="7.51257">
        <ele>1048</ele>
        <time>2017-08-29T09:15:07Z</time>
      </trkpt>
      <trkpt lat="43.81593" lon="7.51252">
        <ele>1051.6</ele>
        <time>2017-08-29T09:15:23Z</time>
      </trkpt>
      <trkpt lat="43.81582" lon="7.51252">
        <ele>1058.6</ele>
        <time>2017-08-29T09:15:40Z</time>
      </trkpt>
      <trkpt lat="43.81575" lon="7.51252">
        <ele>1061.9</ele>
        <time>2017-08-29T09:15:56Z</time>
      </trkpt>
      <trkpt lat="43.81573" lon="7.51255">
        <ele>1062.8</ele>
        <time>2017-08-29T09:16:13Z</time>
      </trkpt>
      <trkpt lat="43.8157" lon="7.51266">
        <ele>1064.2</ele>
        <time>2017-08-29T09:16:28Z</time>
      </trkpt>
      <trkpt lat="43.81554" lon="7.51271">
        <ele>1071.9</ele>
        <time>2017-08-29T09:16:42Z</time>
      </trkpt>
      <trkpt lat="43.81551" lon="7.5127">
        <ele>1073.6</ele>
        <time>2017-08-29T09:16:47Z</time>
      </trkpt>
      <trkpt lat="43.81539" lon="7.5128">
        <ele>1080</ele>
        <time>2017-08-29T09:17:05Z</time>
      </trkpt>
      <trkpt lat="43.81532" lon="7.51289">
        <ele>1083.6</ele>
        <time>2017-08-29T09:17:22Z</time>
      </trkpt>
      <trkpt lat="43.81521" lon="7.51288">
        <ele>1086.5</ele>
        <time>2017-08-29T09:17:41Z</time>
      </trkpt>
      <trkpt lat="43.81513" lon="7.51288">
        <ele>1087.6</ele>
        <time>2017-08-29T09:17:46Z</time>
      </trkpt>
      <trkpt lat="43.81493" lon="7.513">
        <ele>1087.2</ele>
        <time>2017-08-29T09:18:05Z</time>
      </trkpt>
      <trkpt lat="43.81488" lon="7.51304">
        <ele>1086</ele>
        <time>2017-08-29T09:18:24Z</time>
      </trkpt>
      <trkpt lat="43.81488" lon="7.51304">
        <ele>1086</ele>
        <time>2017-08-29T09:18:43Z</time>
      </trkpt>
      <trkpt lat="43.81488" lon="7.51304">
        <ele>1086</ele>
        <time>2017-08-29T09:19:06Z</time>
      </trkpt>
      <trkpt lat="43.81486" lon="7.51298">
        <ele>1086.3</ele>
        <time>2017-08-29T09:19:10Z</time>
      </trkpt>
      <trkpt lat="43.81472" lon="7.51283">
        <ele>1086.2</ele>
        <time>2017-08-29T09:19:26Z</time>
      </trkpt>
      <trkpt lat="43.81468" lon="7.51277">
        <ele>1085.7</ele>
        <time>2017-08-29T09:19:40Z</time>
      </trkpt>
      <trkpt lat="43.81464" lon="7.51275">
        <ele>1084.9</ele>
        <time>2017-08-29T09:20:00Z</time>
      </trkpt>
      <trkpt lat="43.81462" lon="7.51276">
        <ele>1083.9</ele>
        <time>2017-08-29T09:20:02Z</time>
      </trkpt>
      <trkpt lat="43.81451" lon="7.51272">
        <ele>1081.2</ele>
        <time>2017-08-29T09:20:15Z</time>
      </trkpt>
      <trkpt lat="43.81444" lon="7.51273">
        <ele>1078.4</ele>
        <time>2017-08-29T09:20:26Z</time>
      </trkpt>
      <trkpt lat="43.81441" lon="7.51274">
        <ele>1076.8</ele>
        <time>2017-08-29T09:20:31Z</time>
      </trkpt>
      <trkpt lat="43.81439" lon="7.51274">
        <ele>1075.9</ele>
        <time>2017-08-29T09:20:35Z</time>
      </trkpt>
      <trkpt lat="43.81435" lon="7.51273">
        <ele>1074.5</ele>
        <time>2017-08-29T09:20:50Z</time>
      </trkpt>
      <trkpt lat="43.8143" lon="7.51271">
        <ele>1073.1</ele>
        <time>2017-08-29T09:20:59Z</time>
      </trkpt>
      <trkpt lat="43.81423" lon="7.5127">
        <ele>1070.5</ele>
        <time>2017-08-29T09:21:07Z</time>
      </trkpt>
      <trkpt lat="43.81416" lon="7.51267">
        <ele>1068.6</ele>
        <time>2017-08-29T09:21:14Z</time>
      </trkpt>
      <trkpt lat="43.81413" lon="7.51266">
        <ele>1067.7</ele>
        <time>2017-08-29T09:21:19Z</time>
      </trkpt>
      <trkpt lat="43.81401" lon="7.51264">
        <ele>1063.5</ele>
        <time>2017-08-29T09:21:32Z</time>
      </trkpt>
      <trkpt lat="43.81395" lon="7.51261">
        <ele>1062.5</ele>
        <time>2017-08-29T09:21:44Z</time>
      </trkpt>
      <trkpt lat="43.81392" lon="7.51262">
        <ele>1060.8</ele>
        <time>2017-08-29T09:21:48Z</time>
      </trkpt>
      <trkpt lat="43.81392" lon="7.51266">
        <ele>1058.7</ele>
        <time>2017-08-29T09:21:52Z</time>
      </trkpt>
      <trkpt lat="43.81392" lon="7.51267">
        <ele>1058.2</ele>
        <time>2017-08-29T09:21:53Z</time>
      </trkpt>
      <trkpt lat="43.81385" lon="7.51267">
        <ele>1055.7</ele>
        <time>2017-08-29T09:22:04Z</time>
      </trkpt>
      <trkpt lat="43.81377" lon="7.51264">
        <ele>1054.8</ele>
        <time>2017-08-29T09:22:18Z</time>
      </trkpt>
      <trkpt lat="43.81375" lon="7.51265">
        <ele>1053.7</ele>
        <time>2017-08-29T09:22:28Z</time>
      </trkpt>
      <trkpt lat="43.8137" lon="7.51271">
        <ele>1049.4</ele>
        <time>2017-08-29T09:22:34Z</time>
      </trkpt>
      <trkpt lat="43.81369" lon="7.51275">
        <ele>1047.3</ele>
        <time>2017-08-29T09:22:39Z</time>
      </trkpt>
      <trkpt lat="43.8137" lon="7.51279">
        <ele>1045.8</ele>
        <time>2017-08-29T09:22:43Z</time>
      </trkpt>
      <trkpt lat="43.8137" lon="7.5128">
        <ele>1045.4</ele>
        <time>2017-08-29T09:22:44Z</time>
      </trkpt>
      <trkpt lat="43.8137" lon="7.51283">
        <ele>1044.2</ele>
        <time>2017-08-29T09:22:46Z</time>
      </trkpt>
      <trkpt lat="43.81376" lon="7.51298">
        <ele>1040.6</ele>
        <time>2017-08-29T09:22:58Z</time>
      </trkpt>
      <trkpt lat="43.81374" lon="7.51303">
        <ele>1038</ele>
        <time>2017-08-29T09:23:02Z</time>
      </trkpt>
      <trkpt lat="43.81374" lon="7.51315">
        <ele>1035.8</ele>
        <time>2017-08-29T09:23:08Z</time>
      </trkpt>
      <trkpt lat="43.81373" lon="7.51323">
        <ele>1034.2</ele>
        <time>2017-08-29T09:23:13Z</time>
      </trkpt>
      <trkpt lat="43.81374" lon="7.51334">
        <ele>1033.4</ele>
        <time>2017-08-29T09:23:19Z</time>
      </trkpt>
      <trkpt lat="43.81374" lon="7.51339">
        <ele>1033.4</ele>
        <time>2017-08-29T09:23:22Z</time>
      </trkpt>
      <trkpt lat="43.8137" lon="7.51355">
        <ele>1030.8</ele>
        <time>2017-08-29T09:23:33Z</time>
      </trkpt>
      <trkpt lat="43.81362" lon="7.51369">
        <ele>1026.5</ele>
        <time>2017-08-29T09:23:43Z</time>
      </trkpt>
      <trkpt lat="43.81357" lon="7.51374">
        <ele>1024.2</ele>
        <time>2017-08-29T09:23:48Z</time>
      </trkpt>
      <trkpt lat="43.81351" lon="7.51389">
        <ele>1022.6</ele>
        <time>2017-08-29T09:23:57Z</time>
      </trkpt>
      <trkpt lat="43.81348" lon="7.51394">
        <ele>1021.9</ele>
        <time>2017-08-29T09:24:01Z</time>
      </trkpt>
      <trkpt lat="43.81343" lon="7.51397">
        <ele>1019.6</ele>
        <time>2017-08-29T09:24:05Z</time>
      </trkpt>
      <trkpt lat="43.81337" lon="7.51404">
        <ele>1017.3</ele>
        <time>2017-08-29T09:24:12Z</time>
      </trkpt>
      <trkpt lat="43.81331" lon="7.51404">
        <ele>1013.7</ele>
        <time>2017-08-29T09:24:18Z</time>
      </trkpt>
      <trkpt lat="43.81329" lon="7.51406">
        <ele>1012.8</ele>
        <time>2017-08-29T09:24:20Z</time>
      </trkpt>
      <trkpt lat="43.81327" lon="7.51406">
        <ele>1011.5</ele>
        <time>2017-08-29T09:24:22Z</time>
      </trkpt>
      <trkpt lat="43.81325" lon="7.5141">
        <ele>1010.9</ele>
        <time>2017-08-29T09:24:26Z</time>
      </trkpt>
      <trkpt lat="43.81322" lon="7.51408">
        <ele>1008.7</ele>
        <time>2017-08-29T09:24:29Z</time>
      </trkpt>
      <trkpt lat="43.81315" lon="7.51411">
        <ele>1004.8</ele>
        <time>2017-08-29T09:24:41Z</time>
      </trkpt>
      <trkpt lat="43.81315" lon="7.51411">
        <ele>1004.8</ele>
        <time>2017-08-29T09:24:44Z</time>
      </trkpt>
      <trkpt lat="43.81315" lon="7.51402">
        <ele>1003.3</ele>
        <time>2017-08-29T09:24:49Z</time>
      </trkpt>
      <trkpt lat="43.81312" lon="7.51401">
        <ele>1001.3</ele>
        <time>2017-08-29T09:24:53Z</time>
      </trkpt>
      <trkpt lat="43.81308" lon="7.51403">
        <ele>999.1</ele>
        <time>2017-08-29T09:24:58Z</time>
      </trkpt>
      <trkpt lat="43.813" lon="7.5141">
        <ele>995.6</ele>
        <time>2017-08-29T09:25:05Z</time>
      </trkpt>
      <trkpt lat="43.81299" lon="7.51412">
        <ele>995.4</ele>
        <time>2017-08-29T09:25:07Z</time>
      </trkpt>
      <trkpt lat="43.8129" lon="7.51419">
        <ele>991.5</ele>
        <time>2017-08-29T09:25:16Z</time>
      </trkpt>
      <trkpt lat="43.81288" lon="7.51422">
        <ele>990.9</ele>
        <time>2017-08-29T09:25:18Z</time>
      </trkpt>
      <trkpt lat="43.8128" lon="7.51426">
        <ele>987</ele>
        <time>2017-08-29T09:25:25Z</time>
      </trkpt>
      <trkpt lat="43.81276" lon="7.51432">
        <ele>985.6</ele>
        <time>2017-08-29T09:25:30Z</time>
      </trkpt>
      <trkpt lat="43.81267" lon="7.51433">
        <ele>980</ele>
        <time>2017-08-29T09:25:41Z</time>
      </trkpt>
      <trkpt lat="43.81266" lon="7.51424">
        <ele>977.7</ele>
        <time>2017-08-29T09:25:47Z</time>
      </trkpt>
      <trkpt lat="43.81266" lon="7.51419">
        <ele>976.8</ele>
        <time>2017-08-29T09:25:51Z</time>
      </trkpt>
      <trkpt lat="43.81265" lon="7.51413">
        <ele>975.2</ele>
        <time>2017-08-29T09:25:57Z</time>
      </trkpt>
      <trkpt lat="43.81263" lon="7.51401">
        <ele>972.2</ele>
        <time>2017-08-29T09:26:08Z</time>
      </trkpt>
      <trkpt lat="43.81262" lon="7.51404">
        <ele>972</ele>
        <time>2017-08-29T09:26:10Z</time>
      </trkpt>
      <trkpt lat="43.81258" lon="7.51406">
        <ele>969.8</ele>
        <time>2017-08-29T09:26:14Z</time>
      </trkpt>
      <trkpt lat="43.81258" lon="7.51406">
        <ele>969.8</ele>
        <time>2017-08-29T09:26:18Z</time>
      </trkpt>
      <trkpt lat="43.81258" lon="7.51406">
        <ele>969.8</ele>
        <time>2017-08-29T09:26:19Z</time>
      </trkpt>
      <trkpt lat="43.81257" lon="7.51402">
        <ele>968.7</ele>
        <time>2017-08-29T09:26:39Z</time>
      </trkpt>
      <trkpt lat="43.81251" lon="7.51399">
        <ele>964.7</ele>
        <time>2017-08-29T09:26:48Z</time>
      </trkpt>
      <trkpt lat="43.81249" lon="7.51392">
        <ele>962.7</ele>
        <time>2017-08-29T09:26:54Z</time>
      </trkpt>
      <trkpt lat="43.81246" lon="7.51389">
        <ele>960.6</ele>
        <time>2017-08-29T09:26:59Z</time>
      </trkpt>
      <trkpt lat="43.81243" lon="7.51393">
        <ele>959.2</ele>
        <time>2017-08-29T09:27:04Z</time>
      </trkpt>
      <trkpt lat="43.81233" lon="7.51402">
        <ele>954</ele>
        <time>2017-08-29T09:27:12Z</time>
      </trkpt>
      <trkpt lat="43.81231" lon="7.51405">
        <ele>953.1</ele>
        <time>2017-08-29T09:27:15Z</time>
      </trkpt>
      <trkpt lat="43.81226" lon="7.5141">
        <ele>950.6</ele>
        <time>2017-08-29T09:27:19Z</time>
      </trkpt>
      <trkpt lat="43.81225" lon="7.51412">
        <ele>950.2</ele>
        <time>2017-08-29T09:27:20Z</time>
      </trkpt>
      <trkpt lat="43.81222" lon="7.51415">
        <ele>948.7</ele>
        <time>2017-08-29T09:27:22Z</time>
      </trkpt>
      <trkpt lat="43.81219" lon="7.51417">
        <ele>947.2</ele>
        <time>2017-08-29T09:27:33Z</time>
      </trkpt>
      <trkpt lat="43.81215" lon="7.51417">
        <ele>944.9</ele>
        <time>2017-08-29T09:27:42Z</time>
      </trkpt>
      <trkpt lat="43.81214" lon="7.5142">
        <ele>944.7</ele>
        <time>2017-08-29T09:27:44Z</time>
      </trkpt>
      <trkpt lat="43.8121" lon="7.51427">
        <ele>943.4</ele>
        <time>2017-08-29T09:27:53Z</time>
      </trkpt>
      <trkpt lat="43.8121" lon="7.51427">
        <ele>943.4</ele>
        <time>2017-08-29T09:27:58Z</time>
      </trkpt>
      <trkpt lat="43.8121" lon="7.51427">
        <ele>943.4</ele>
        <time>2017-08-29T09:28:07Z</time>
      </trkpt>
      <trkpt lat="43.81208" lon="7.51422">
        <ele>941.6</ele>
        <time>2017-08-29T09:28:16Z</time>
      </trkpt>
      <trkpt lat="43.81199" lon="7.51423">
        <ele>936.5</ele>
        <time>2017-08-29T09:28:25Z</time>
      </trkpt>
      <trkpt lat="43.81195" lon="7.5142">
        <ele>933.8</ele>
        <time>2017-08-29T09:28:29Z</time>
      </trkpt>
      <trkpt lat="43.81193" lon="7.51422">
        <ele>932.9</ele>
        <time>2017-08-29T09:28:32Z</time>
      </trkpt>
      <trkpt lat="43.81182" lon="7.51432">
        <ele>928.3</ele>
        <time>2017-08-29T09:28:44Z</time>
      </trkpt>
      <trkpt lat="43.81178" lon="7.51435">
        <ele>926.6</ele>
        <time>2017-08-29T09:28:48Z</time>
      </trkpt>
      <trkpt lat="43.81175" lon="7.51434">
        <ele>924.7</ele>
        <time>2017-08-29T09:28:51Z</time>
      </trkpt>
      <trkpt lat="43.81172" lon="7.51436">
        <ele>923.4</ele>
        <time>2017-08-29T09:28:54Z</time>
      </trkpt>
      <trkpt lat="43.81168" lon="7.5144">
        <ele>921.9</ele>
        <time>2017-08-29T09:28:58Z</time>
      </trkpt>
      <trkpt lat="43.81166" lon="7.51441">
        <ele>921</ele>
        <time>2017-08-29T09:29:00Z</time>
      </trkpt>
      <trkpt lat="43.81164" lon="7.51442">
        <ele>920</ele>
        <time>2017-08-29T09:29:04Z</time>
      </trkpt>
      <trkpt lat="43.81162" lon="7.51432">
        <ele>917.1</ele>
        <time>2017-08-29T09:29:15Z</time>
      </trkpt>
      <trkpt lat="43.8116" lon="7.51428">
        <ele>915.3</ele>
        <time>2017-08-29T09:29:21Z</time>
      </trkpt>
      <trkpt lat="43.81158" lon="7.51427">
        <ele>914.1</ele>
        <time>2017-08-29T09:29:24Z</time>
      </trkpt>
      <trkpt lat="43.81156" lon="7.5143">
        <ele>913.5</ele>
        <time>2017-08-29T09:29:28Z</time>
      </trkpt>
      <trkpt lat="43.81151" lon="7.51431">
        <ele>910.8</ele>
        <time>2017-08-29T09:29:32Z</time>
      </trkpt>
      <trkpt lat="43.81145" lon="7.51436">
        <ele>908.2</ele>
        <time>2017-08-29T09:29:37Z</time>
      </trkpt>
      <trkpt lat="43.81139" lon="7.51438">
        <ele>905.1</ele>
        <time>2017-08-29T09:29:45Z</time>
      </trkpt>
      <trkpt lat="43.81136" lon="7.51416">
        <ele>900.4</ele>
        <time>2017-08-29T09:29:58Z</time>
      </trkpt>
      <trkpt lat="43.81135" lon="7.51414">
        <ele>899.8</ele>
        <time>2017-08-29T09:30:01Z</time>
      </trkpt>
      <trkpt lat="43.81135" lon="7.51414">
        <ele>899.8</ele>
        <time>2017-08-29T09:30:05Z</time>
      </trkpt>
      <trkpt lat="43.81135" lon="7.51414">
        <ele>899.8</ele>
        <time>2017-08-29T09:30:06Z</time>
      </trkpt>
      <trkpt lat="43.81135" lon="7.51414">
        <ele>899.8</ele>
        <time>2017-08-29T09:30:22Z</time>
      </trkpt>
      <trkpt lat="43.81131" lon="7.51416">
        <ele>897.7</ele>
        <time>2017-08-29T09:30:27Z</time>
      </trkpt>
      <trkpt lat="43.81126" lon="7.51421">
        <ele>895.7</ele>
        <time>2017-08-29T09:30:31Z</time>
      </trkpt>
      <trkpt lat="43.81125" lon="7.51423">
        <ele>895.4</ele>
        <time>2017-08-29T09:30:32Z</time>
      </trkpt>
      <trkpt lat="43.8112" lon="7.51427">
        <ele>893.3</ele>
        <time>2017-08-29T09:30:37Z</time>
      </trkpt>
      <trkpt lat="43.81108" lon="7.51436">
        <ele>888</ele>
        <time>2017-08-29T09:30:48Z</time>
      </trkpt>
      <trkpt lat="43.81107" lon="7.51436">
        <ele>887.5</ele>
        <time>2017-08-29T09:30:56Z</time>
      </trkpt>
      <trkpt lat="43.81105" lon="7.5143">
        <ele>885.5</ele>
        <time>2017-08-29T09:31:00Z</time>
      </trkpt>
      <trkpt lat="43.811" lon="7.51423">
        <ele>881.8</ele>
        <time>2017-08-29T09:31:06Z</time>
      </trkpt>
      <trkpt lat="43.81099" lon="7.51425">
        <ele>881.5</ele>
        <time>2017-08-29T09:31:16Z</time>
      </trkpt>
      <trkpt lat="43.81093" lon="7.5142">
        <ele>877.6</ele>
        <time>2017-08-29T09:31:24Z</time>
      </trkpt>
      <trkpt lat="43.81091" lon="7.51419">
        <ele>876.4</ele>
        <time>2017-08-29T09:31:26Z</time>
      </trkpt>
      <trkpt lat="43.81088" lon="7.51422">
        <ele>875.1</ele>
        <time>2017-08-29T09:31:29Z</time>
      </trkpt>
      <trkpt lat="43.81081" lon="7.51429">
        <ele>872.1</ele>
        <time>2017-08-29T09:31:34Z</time>
      </trkpt>
      <trkpt lat="43.8108" lon="7.51428">
        <ele>871.4</ele>
        <time>2017-08-29T09:31:35Z</time>
      </trkpt>
      <trkpt lat="43.81076" lon="7.51428">
        <ele>869.3</ele>
        <time>2017-08-29T09:31:38Z</time>
      </trkpt>
      <trkpt lat="43.81074" lon="7.51429">
        <ele>868.3</ele>
        <time>2017-08-29T09:31:39Z</time>
      </trkpt>
      <trkpt lat="43.81065" lon="7.51436">
        <ele>864.2</ele>
        <time>2017-08-29T09:31:47Z</time>
      </trkpt>
      <trkpt lat="43.81063" lon="7.5144">
        <ele>863.5</ele>
        <time>2017-08-29T09:31:50Z</time>
      </trkpt>
      <trkpt lat="43.81058" lon="7.51447">
        <ele>861.8</ele>
        <time>2017-08-29T09:32:04Z</time>
      </trkpt>
      <trkpt lat="43.81057" lon="7.51447">
        <ele>861.2</ele>
        <time>2017-08-29T09:32:05Z</time>
      </trkpt>
      <trkpt lat="43.81053" lon="7.51444">
        <ele>858.5</ele>
        <time>2017-08-29T09:32:12Z</time>
      </trkpt>
      <trkpt lat="43.81048" lon="7.51447">
        <ele>856.1</ele>
        <time>2017-08-29T09:32:18Z</time>
      </trkpt>
      <trkpt lat="43.81047" lon="7.51448">
        <ele>855.7</ele>
        <time>2017-08-29T09:32:20Z</time>
      </trkpt>
      <trkpt lat="43.81041" lon="7.51448">
        <ele>852.3</ele>
        <time>2017-08-29T09:32:27Z</time>
      </trkpt>
      <trkpt lat="43.8104" lon="7.51445">
        <ele>851.1</ele>
        <time>2017-08-29T09:32:30Z</time>
      </trkpt>
      <trkpt lat="43.81038" lon="7.51436">
        <ele>849</ele>
        <time>2017-08-29T09:32:42Z</time>
      </trkpt>
      <trkpt lat="43.81035" lon="7.51438">
        <ele>847.5</ele>
        <time>2017-08-29T09:32:46Z</time>
      </trkpt>
      <trkpt lat="43.8103" lon="7.51441">
        <ele>844.9</ele>
        <time>2017-08-29T09:32:52Z</time>
      </trkpt>
      <trkpt lat="43.81029" lon="7.51443">
        <ele>844.5</ele>
        <time>2017-08-29T09:32:55Z</time>
      </trkpt>
      <trkpt lat="43.81029" lon="7.51444">
        <ele>844.7</ele>
        <time>2017-08-29T09:32:56Z</time>
      </trkpt>
      <trkpt lat="43.81025" lon="7.51444">
        <ele>842.5</ele>
        <time>2017-08-29T09:33:00Z</time>
      </trkpt>
      <trkpt lat="43.81021" lon="7.51445">
        <ele>840.4</ele>
        <time>2017-08-29T09:33:05Z</time>
      </trkpt>
      <trkpt lat="43.81012" lon="7.51445">
        <ele>835.6</ele>
        <time>2017-08-29T09:33:16Z</time>
      </trkpt>
      <trkpt lat="43.81011" lon="7.51446">
        <ele>835.2</ele>
        <time>2017-08-29T09:33:20Z</time>
      </trkpt>
      <trkpt lat="43.81009" lon="7.51449">
        <ele>834.7</ele>
        <time>2017-08-29T09:33:24Z</time>
      </trkpt>
      <trkpt lat="43.81008" lon="7.51449">
        <ele>834.1</ele>
        <time>2017-08-29T09:33:25Z</time>
      </trkpt>
      <trkpt lat="43.80999" lon="7.5145">
        <ele>829.5</ele>
        <time>2017-08-29T09:33:33Z</time>
      </trkpt>
      <trkpt lat="43.80997" lon="7.5145">
        <ele>828.4</ele>
        <time>2017-08-29T09:33:37Z</time>
      </trkpt>
      <trkpt lat="43.80994" lon="7.51454">
        <ele>827.4</ele>
        <time>2017-08-29T09:33:51Z</time>
      </trkpt>
      <trkpt lat="43.80991" lon="7.51456">
        <ele>826.1</ele>
        <time>2017-08-29T09:34:12Z</time>
      </trkpt>
      <trkpt lat="43.80986" lon="7.5146">
        <ele>824</ele>
        <time>2017-08-29T09:34:22Z</time>
      </trkpt>
      <trkpt lat="43.80981" lon="7.51463">
        <ele>821.6</ele>
        <time>2017-08-29T09:34:27Z</time>
      </trkpt>
      <trkpt lat="43.80975" lon="7.51468">
        <ele>819</ele>
        <time>2017-08-29T09:34:33Z</time>
      </trkpt>
      <trkpt lat="43.80971" lon="7.51471">
        <ele>817.2</ele>
        <time>2017-08-29T09:34:37Z</time>
      </trkpt>
      <trkpt lat="43.80967" lon="7.51475">
        <ele>816</ele>
        <time>2017-08-29T09:34:41Z</time>
      </trkpt>
      <trkpt lat="43.80963" lon="7.5148">
        <ele>815.2</ele>
        <time>2017-08-29T09:34:49Z</time>
      </trkpt>
      <trkpt lat="43.80958" lon="7.51477">
        <ele>811.9</ele>
        <time>2017-08-29T09:34:54Z</time>
      </trkpt>
      <trkpt lat="43.80956" lon="7.51481">
        <ele>811.9</ele>
        <time>2017-08-29T09:34:57Z</time>
      </trkpt>
      <trkpt lat="43.80952" lon="7.51487">
        <ele>811.1</ele>
        <time>2017-08-29T09:35:02Z</time>
      </trkpt>
      <trkpt lat="43.80945" lon="7.51496">
        <ele>809.4</ele>
        <time>2017-08-29T09:35:11Z</time>
      </trkpt>
      <trkpt lat="43.80939" lon="7.51498">
        <ele>807.6</ele>
        <time>2017-08-29T09:35:15Z</time>
      </trkpt>
      <trkpt lat="43.80934" lon="7.51497">
        <ele>805.5</ele>
        <time>2017-08-29T09:35:19Z</time>
      </trkpt>
      <trkpt lat="43.80929" lon="7.51499">
        <ele>804.2</ele>
        <time>2017-08-29T09:35:23Z</time>
      </trkpt>
      <trkpt lat="43.80923" lon="7.51498">
        <ele>801.7</ele>
        <time>2017-08-29T09:35:28Z</time>
      </trkpt>
      <trkpt lat="43.80922" lon="7.51498">
        <ele>801.4</ele>
        <time>2017-08-29T09:35:29Z</time>
      </trkpt>
      <trkpt lat="43.80916" lon="7.51502">
        <ele>800.1</ele>
        <time>2017-08-29T09:35:35Z</time>
      </trkpt>
      <trkpt lat="43.80905" lon="7.51513">
        <ele>797.6</ele>
        <time>2017-08-29T09:35:49Z</time>
      </trkpt>
      <trkpt lat="43.80901" lon="7.51515">
        <ele>796.1</ele>
        <time>2017-08-29T09:35:53Z</time>
      </trkpt>
      <trkpt lat="43.809" lon="7.51517">
        <ele>796</ele>
        <time>2017-08-29T09:35:55Z</time>
      </trkpt>
      <trkpt lat="43.80895" lon="7.51521">
        <ele>794.2</ele>
        <time>2017-08-29T09:36:00Z</time>
      </trkpt>
      <trkpt lat="43.8089" lon="7.51516">
        <ele>791.6</ele>
        <time>2017-08-29T09:36:05Z</time>
      </trkpt>
      <trkpt lat="43.80886" lon="7.51513">
        <ele>789.7</ele>
        <time>2017-08-29T09:36:08Z</time>
      </trkpt>
      <trkpt lat="43.80883" lon="7.5151">
        <ele>788.2</ele>
        <time>2017-08-29T09:36:14Z</time>
      </trkpt>
      <trkpt lat="43.80879" lon="7.51506">
        <ele>786.2</ele>
        <time>2017-08-29T09:36:18Z</time>
      </trkpt>
      <trkpt lat="43.80875" lon="7.51506">
        <ele>784.4</ele>
        <time>2017-08-29T09:36:25Z</time>
      </trkpt>
      <trkpt lat="43.8087" lon="7.51507">
        <ele>782.3</ele>
        <time>2017-08-29T09:36:29Z</time>
      </trkpt>
      <trkpt lat="43.80868" lon="7.51507">
        <ele>781.5</ele>
        <time>2017-08-29T09:36:33Z</time>
      </trkpt>
      <trkpt lat="43.80864" lon="7.51507">
        <ele>779.8</ele>
        <time>2017-08-29T09:36:37Z</time>
      </trkpt>
      <trkpt lat="43.80855" lon="7.51511">
        <ele>776.3</ele>
        <time>2017-08-29T09:36:48Z</time>
      </trkpt>
      <trkpt lat="43.80849" lon="7.51511">
        <ele>773.9</ele>
        <time>2017-08-29T09:36:53Z</time>
      </trkpt>
      <trkpt lat="43.80844" lon="7.51511">
        <ele>771.9</ele>
        <time>2017-08-29T09:36:59Z</time>
      </trkpt>
      <trkpt lat="43.80841" lon="7.51514">
        <ele>771</ele>
        <time>2017-08-29T09:37:03Z</time>
      </trkpt>
      <trkpt lat="43.80836" lon="7.51503">
        <ele>767.6</ele>
        <time>2017-08-29T09:37:17Z</time>
      </trkpt>
      <trkpt lat="43.80834" lon="7.51501">
        <ele>766.4</ele>
        <time>2017-08-29T09:37:44Z</time>
      </trkpt>
      <trkpt lat="43.80832" lon="7.515">
        <ele>765.6</ele>
        <time>2017-08-29T09:37:48Z</time>
      </trkpt>
      <trkpt lat="43.80825" lon="7.51497">
        <ele>762.8</ele>
        <time>2017-08-29T09:37:55Z</time>
      </trkpt>
      <trkpt lat="43.80821" lon="7.51498">
        <ele>761.9</ele>
        <time>2017-08-29T09:37:59Z</time>
      </trkpt>
      <trkpt lat="43.80816" lon="7.51497">
        <ele>760.2</ele>
        <time>2017-08-29T09:38:04Z</time>
      </trkpt>
      <trkpt lat="43.80802" lon="7.51495">
        <ele>755.6</ele>
        <time>2017-08-29T09:38:15Z</time>
      </trkpt>
      <trkpt lat="43.80796" lon="7.51493">
        <ele>753.3</ele>
        <time>2017-08-29T09:38:19Z</time>
      </trkpt>
      <trkpt lat="43.80792" lon="7.51491">
        <ele>751.5</ele>
        <time>2017-08-29T09:38:22Z</time>
      </trkpt>
      <trkpt lat="43.80786" lon="7.51492">
        <ele>750.2</ele>
        <time>2017-08-29T09:38:27Z</time>
      </trkpt>
      <trkpt lat="43.80777" lon="7.51489">
        <ele>746.5</ele>
        <time>2017-08-29T09:38:38Z</time>
      </trkpt>
      <trkpt lat="43.80782" lon="7.51474">
        <ele>742.2</ele>
        <time>2017-08-29T09:38:52Z</time>
      </trkpt>
      <trkpt lat="43.80788" lon="7.51463">
        <ele>741.4</ele>
        <time>2017-08-29T09:39:02Z</time>
      </trkpt>
      <trkpt lat="43.8079" lon="7.51455">
        <ele>740.3</ele>
        <time>2017-08-29T09:39:07Z</time>
      </trkpt>
      <trkpt lat="43.80791" lon="7.51453">
        <ele>740.2</ele>
        <time>2017-08-29T09:39:08Z</time>
      </trkpt>
      <trkpt lat="43.80795" lon="7.51434">
        <ele>738.6</ele>
        <time>2017-08-29T09:39:25Z</time>
      </trkpt>
      <trkpt lat="43.80795" lon="7.5143">
        <ele>738.1</ele>
        <time>2017-08-29T09:39:28Z</time>
      </trkpt>
      <trkpt lat="43.80795" lon="7.51417">
        <ele>736.3</ele>
        <time>2017-08-29T09:39:40Z</time>
      </trkpt>
      <trkpt lat="43.80793" lon="7.51412">
        <ele>734.5</ele>
        <time>2017-08-29T09:39:44Z</time>
      </trkpt>
      <trkpt lat="43.80788" lon="7.5141">
        <ele>731.3</ele>
        <time>2017-08-29T09:39:51Z</time>
      </trkpt>
      <trkpt lat="43.80784" lon="7.51414">
        <ele>729.8</ele>
        <time>2017-08-29T09:40:06Z</time>
      </trkpt>
      <trkpt lat="43.80784" lon="7.51414">
        <ele>729.8</ele>
        <time>2017-08-29T09:40:26Z</time>
      </trkpt>
      <trkpt lat="43.80784" lon="7.51415">
        <ele>730</ele>
        <time>2017-08-29T09:40:54Z</time>
      </trkpt>
      <trkpt lat="43.80784" lon="7.51415">
        <ele>730</ele>
        <time>2017-08-29T09:41:21Z</time>
      </trkpt>
      <trkpt lat="43.80784" lon="7.51415">
        <ele>730</ele>
        <time>2017-08-29T09:41:52Z</time>
      </trkpt>
      <trkpt lat="43.80784" lon="7.51415">
        <ele>730</ele>
        <time>2017-08-29T09:42:21Z</time>
      </trkpt>
      <trkpt lat="43.80784" lon="7.51415">
        <ele>730</ele>
        <time>2017-08-29T09:42:47Z</time>
      </trkpt>
      <trkpt lat="43.80784" lon="7.51415">
        <ele>730</ele>
        <time>2017-08-29T09:43:26Z</time>
      </trkpt>
      <trkpt lat="43.80784" lon="7.51415">
        <ele>730</ele>
        <time>2017-08-29T09:43:55Z</time>
      </trkpt>
      <trkpt lat="43.80784" lon="7.51415">
        <ele>730</ele>
        <time>2017-08-29T09:44:35Z</time>
      </trkpt>
      <trkpt lat="43.80784" lon="7.51415">
        <ele>730</ele>
        <time>2017-08-29T09:45:12Z</time>
      </trkpt>
      <trkpt lat="43.80784" lon="7.51415">
        <ele>730</ele>
        <time>2017-08-29T09:45:53Z</time>
      </trkpt>
      <trkpt lat="43.80784" lon="7.51416">
        <ele>730.2</ele>
        <time>2017-08-29T09:46:24Z</time>
      </trkpt>
      <trkpt lat="43.80784" lon="7.51416">
        <ele>730.2</ele>
        <time>2017-08-29T09:46:57Z</time>
      </trkpt>
      <trkpt lat="43.80784" lon="7.51416">
        <ele>730.2</ele>
        <time>2017-08-29T09:47:29Z</time>
      </trkpt>
      <trkpt lat="43.80784" lon="7.51416">
        <ele>730.2</ele>
        <time>2017-08-29T09:48:02Z</time>
      </trkpt>
      <trkpt lat="43.80784" lon="7.51416">
        <ele>730.2</ele>
        <time>2017-08-29T09:48:34Z</time>
      </trkpt>
      <trkpt lat="43.80784" lon="7.51415">
        <ele>730</ele>
        <time>2017-08-29T09:49:04Z</time>
      </trkpt>
      <trkpt lat="43.80784" lon="7.51415">
        <ele>730</ele>
        <time>2017-08-29T09:49:46Z</time>
      </trkpt>
      <trkpt lat="43.80784" lon="7.51415">
        <ele>730</ele>
        <time>2017-08-29T09:50:19Z</time>
      </trkpt>
      <trkpt lat="43.80784" lon="7.51415">
        <ele>730</ele>
        <time>2017-08-29T09:50:54Z</time>
      </trkpt>
      <trkpt lat="43.80784" lon="7.51415">
        <ele>730</ele>
        <time>2017-08-29T09:51:27Z</time>
      </trkpt>
      <trkpt lat="43.80784" lon="7.51415">
        <ele>730</ele>
        <time>2017-08-29T09:52:01Z</time>
      </trkpt>
      <trkpt lat="43.80784" lon="7.51415">
        <ele>730</ele>
        <time>2017-08-29T09:52:38Z</time>
      </trkpt>
      <trkpt lat="43.80784" lon="7.51415">
        <ele>730</ele>
        <time>2017-08-29T09:53:08Z</time>
      </trkpt>
      <trkpt lat="43.80784" lon="7.51415">
        <ele>730</ele>
        <time>2017-08-29T09:53:46Z</time>
      </trkpt>
      <trkpt lat="43.80784" lon="7.51415">
        <ele>730</ele>
        <time>2017-08-29T09:54:25Z</time>
      </trkpt>
      <trkpt lat="43.80784" lon="7.51415">
        <ele>730</ele>
        <time>2017-08-29T09:54:56Z</time>
      </trkpt>
      <trkpt lat="43.80784" lon="7.51415">
        <ele>730</ele>
        <time>2017-08-29T09:55:29Z</time>
      </trkpt>
      <trkpt lat="43.80784" lon="7.51415">
        <ele>730</ele>
        <time>2017-08-29T09:56:04Z</time>
      </trkpt>
      <trkpt lat="43.80783" lon="7.51415">
        <ele>729.5</ele>
        <time>2017-08-29T09:56:47Z</time>
      </trkpt>
      <trkpt lat="43.80783" lon="7.51415">
        <ele>729.5</ele>
        <time>2017-08-29T09:57:24Z</time>
      </trkpt>
      <trkpt lat="43.80783" lon="7.51415">
        <ele>729.5</ele>
        <time>2017-08-29T09:57:58Z</time>
      </trkpt>
      <trkpt lat="43.80783" lon="7.51415">
        <ele>729.5</ele>
        <time>2017-08-29T09:58:43Z</time>
      </trkpt>
      <trkpt lat="43.80783" lon="7.51415">
        <ele>729.5</ele>
        <time>2017-08-29T09:59:15Z</time>
      </trkpt>
      <trkpt lat="43.80783" lon="7.51415">
        <ele>729.5</ele>
        <time>2017-08-29T09:59:42Z</time>
      </trkpt>
      <trkpt lat="43.80783" lon="7.51415">
        <ele>729.5</ele>
        <time>2017-08-29T10:00:12Z</time>
      </trkpt>
      <trkpt lat="43.80783" lon="7.51414">
        <ele>729.2</ele>
        <time>2017-08-29T10:00:54Z</time>
      </trkpt>
      <trkpt lat="43.80783" lon="7.51414">
        <ele>729.2</ele>
        <time>2017-08-29T10:01:33Z</time>
      </trkpt>
      <trkpt lat="43.80783" lon="7.51415">
        <ele>729.5</ele>
        <time>2017-08-29T10:02:12Z</time>
      </trkpt>
      <trkpt lat="43.80783" lon="7.51415">
        <ele>729.5</ele>
        <time>2017-08-29T10:02:39Z</time>
      </trkpt>
      <trkpt lat="43.80782" lon="7.51413">
        <ele>728.5</ele>
        <time>2017-08-29T10:02:54Z</time>
      </trkpt>
      <trkpt lat="43.80778" lon="7.51408">
        <ele>724.9</ele>
        <time>2017-08-29T10:03:03Z</time>
      </trkpt>
      <trkpt lat="43.80775" lon="7.51412">
        <ele>724.5</ele>
        <time>2017-08-29T10:03:06Z</time>
      </trkpt>
      <trkpt lat="43.80772" lon="7.51413">
        <ele>723.3</ele>
        <time>2017-08-29T10:03:08Z</time>
      </trkpt>
      <trkpt lat="43.80763" lon="7.51417">
        <ele>720.2</ele>
        <time>2017-08-29T10:03:14Z</time>
      </trkpt>
      <trkpt lat="43.80761" lon="7.5142">
        <ele>720</ele>
        <time>2017-08-29T10:03:16Z</time>
      </trkpt>
      <trkpt lat="43.80759" lon="7.51425">
        <ele>720.5</ele>
        <time>2017-08-29T10:03:19Z</time>
      </trkpt>
      <trkpt lat="43.80746" lon="7.51424">
        <ele>715.2</ele>
        <time>2017-08-29T10:03:31Z</time>
      </trkpt>
      <trkpt lat="43.80742" lon="7.51427">
        <ele>715.2</ele>
        <time>2017-08-29T10:03:34Z</time>
      </trkpt>
      <trkpt lat="43.80716" lon="7.5144">
        <ele>714</ele>
        <time>2017-08-29T10:03:48Z</time>
      </trkpt>
      <trkpt lat="43.80702" lon="7.51445">
        <ele>711.7</ele>
        <time>2017-08-29T10:03:58Z</time>
      </trkpt>
      <trkpt lat="43.80682" lon="7.51464">
        <ele>715.7</ele>
        <time>2017-08-29T10:04:13Z</time>
      </trkpt>
      <trkpt lat="43.80678" lon="7.51466">
        <ele>715.9</ele>
        <time>2017-08-29T10:04:16Z</time>
      </trkpt>
      <trkpt lat="43.80654" lon="7.51473">
        <ele>715.2</ele>
        <time>2017-08-29T10:04:32Z</time>
      </trkpt>
      <trkpt lat="43.80634" lon="7.51483">
        <ele>716.1</ele>
        <time>2017-08-29T10:04:50Z</time>
      </trkpt>
      <trkpt lat="43.80627" lon="7.51481">
        <ele>716</ele>
        <time>2017-08-29T10:04:55Z</time>
      </trkpt>
      <trkpt lat="43.806" lon="7.51474">
        <ele>716.1</ele>
        <time>2017-08-29T10:05:12Z</time>
      </trkpt>
      <trkpt lat="43.80573" lon="7.51466">
        <ele>716.8</ele>
        <time>2017-08-29T10:05:29Z</time>
      </trkpt>
      <trkpt lat="43.80554" lon="7.51462">
        <ele>717.8</ele>
        <time>2017-08-29T10:05:43Z</time>
      </trkpt>
      <trkpt lat="43.80546" lon="7.51459">
        <ele>718.6</ele>
        <time>2017-08-29T10:05:50Z</time>
      </trkpt>
      <trkpt lat="43.80529" lon="7.51447">
        <ele>720.1</ele>
        <time>2017-08-29T10:06:08Z</time>
      </trkpt>
      <trkpt lat="43.80514" lon="7.51438">
        <ele>721.3</ele>
        <time>2017-08-29T10:06:26Z</time>
      </trkpt>
      <trkpt lat="43.80499" lon="7.51435">
        <ele>722.5</ele>
        <time>2017-08-29T10:06:39Z</time>
      </trkpt>
      <trkpt lat="43.80488" lon="7.51446">
        <ele>721.9</ele>
        <time>2017-08-29T10:06:51Z</time>
      </trkpt>
      <trkpt lat="43.80479" lon="7.51446">
        <ele>720.9</ele>
        <time>2017-08-29T10:06:58Z</time>
      </trkpt>
      <trkpt lat="43.80459" lon="7.51453">
        <ele>719.8</ele>
        <time>2017-08-29T10:07:15Z</time>
      </trkpt>
      <trkpt lat="43.80441" lon="7.5147">
        <ele>719.6</ele>
        <time>2017-08-29T10:07:32Z</time>
      </trkpt>
      <trkpt lat="43.80425" lon="7.51486">
        <ele>720.1</ele>
        <time>2017-08-29T10:07:48Z</time>
      </trkpt>
      <trkpt lat="43.80409" lon="7.51507">
        <ele>721.1</ele>
        <time>2017-08-29T10:08:06Z</time>
      </trkpt>
      <trkpt lat="43.80393" lon="7.51522">
        <ele>720.9</ele>
        <time>2017-08-29T10:08:22Z</time>
      </trkpt>
      <trkpt lat="43.80378" lon="7.5153">
        <ele>720.4</ele>
        <time>2017-08-29T10:08:37Z</time>
      </trkpt>
      <trkpt lat="43.80366" lon="7.51548">
        <ele>722.6</ele>
        <time>2017-08-29T10:08:53Z</time>
      </trkpt>
      <trkpt lat="43.80351" lon="7.51559">
        <ele>722.6</ele>
        <time>2017-08-29T10:09:07Z</time>
      </trkpt>
      <trkpt lat="43.80332" lon="7.51574">
        <ele>722.5</ele>
        <time>2017-08-29T10:09:25Z</time>
      </trkpt>
      <trkpt lat="43.80318" lon="7.51582">
        <ele>721.7</ele>
        <time>2017-08-29T10:09:39Z</time>
      </trkpt>
      <trkpt lat="43.80312" lon="7.51589">
        <ele>721.8</ele>
        <time>2017-08-29T10:09:45Z</time>
      </trkpt>
      <trkpt lat="43.80313" lon="7.51608">
        <ele>724.9</ele>
        <time>2017-08-29T10:09:59Z</time>
      </trkpt>
      <trkpt lat="43.80301" lon="7.51628">
        <ele>725.9</ele>
        <time>2017-08-29T10:10:15Z</time>
      </trkpt>
      <trkpt lat="43.80286" lon="7.51645">
        <ele>725.2</ele>
        <time>2017-08-29T10:10:30Z</time>
      </trkpt>
      <trkpt lat="43.8028" lon="7.51651">
        <ele>725.1</ele>
        <time>2017-08-29T10:10:36Z</time>
      </trkpt>
      <trkpt lat="43.80276" lon="7.51655">
        <ele>725.3</ele>
        <time>2017-08-29T10:10:40Z</time>
      </trkpt>
      <trkpt lat="43.80266" lon="7.51672">
        <ele>727.6</ele>
        <time>2017-08-29T10:10:55Z</time>
      </trkpt>
      <trkpt lat="43.8026" lon="7.51686">
        <ele>730.1</ele>
        <time>2017-08-29T10:11:09Z</time>
      </trkpt>
      <trkpt lat="43.80248" lon="7.51698">
        <ele>730.8</ele>
        <time>2017-08-29T10:11:24Z</time>
      </trkpt>
      <trkpt lat="43.80243" lon="7.5171">
        <ele>733.7</ele>
        <time>2017-08-29T10:11:36Z</time>
      </trkpt>
      <trkpt lat="43.80234" lon="7.51726">
        <ele>736.8</ele>
        <time>2017-08-29T10:11:51Z</time>
      </trkpt>
      <trkpt lat="43.80224" lon="7.5174">
        <ele>739.2</ele>
        <time>2017-08-29T10:12:06Z</time>
      </trkpt>
      <trkpt lat="43.80208" lon="7.51746">
        <ele>742.8</ele>
        <time>2017-08-29T10:12:19Z</time>
      </trkpt>
      <trkpt lat="43.80198" lon="7.5176">
        <ele>745</ele>
        <time>2017-08-29T10:12:34Z</time>
      </trkpt>
      <trkpt lat="43.80196" lon="7.51766">
        <ele>745.1</ele>
        <time>2017-08-29T10:12:40Z</time>
      </trkpt>
      <trkpt lat="43.80191" lon="7.51776">
        <ele>744.4</ele>
        <time>2017-08-29T10:12:48Z</time>
      </trkpt>
      <trkpt lat="43.80179" lon="7.51792">
        <ele>742.6</ele>
        <time>2017-08-29T10:13:03Z</time>
      </trkpt>
      <trkpt lat="43.80173" lon="7.51796">
        <ele>740.7</ele>
        <time>2017-08-29T10:13:19Z</time>
      </trkpt>
      <trkpt lat="43.80173" lon="7.51796">
        <ele>740.7</ele>
        <time>2017-08-29T10:13:39Z</time>
      </trkpt>
      <trkpt lat="43.80173" lon="7.51799">
        <ele>740.7</ele>
        <time>2017-08-29T10:13:44Z</time>
      </trkpt>
      <trkpt lat="43.80156" lon="7.51818">
        <ele>734.9</ele>
        <time>2017-08-29T10:14:00Z</time>
      </trkpt>
      <trkpt lat="43.80148" lon="7.51826">
        <ele>732.6</ele>
        <time>2017-08-29T10:14:09Z</time>
      </trkpt>
      <trkpt lat="43.80144" lon="7.5183">
        <ele>731.6</ele>
        <time>2017-08-29T10:14:15Z</time>
      </trkpt>
      <trkpt lat="43.80137" lon="7.51842">
        <ele>730.1</ele>
        <time>2017-08-29T10:14:27Z</time>
      </trkpt>
      <trkpt lat="43.80127" lon="7.51853">
        <ele>726.6</ele>
        <time>2017-08-29T10:14:41Z</time>
      </trkpt>
      <trkpt lat="43.80124" lon="7.5186">
        <ele>725.9</ele>
        <time>2017-08-29T10:14:46Z</time>
      </trkpt>
      <trkpt lat="43.80124" lon="7.51861">
        <ele>726</ele>
        <time>2017-08-29T10:14:47Z</time>
      </trkpt>
      <trkpt lat="43.80109" lon="7.51875">
        <ele>721.1</ele>
        <time>2017-08-29T10:15:02Z</time>
      </trkpt>
      <trkpt lat="43.80095" lon="7.51885">
        <ele>716.4</ele>
        <time>2017-08-29T10:15:15Z</time>
      </trkpt>
      <trkpt lat="43.80091" lon="7.51888">
        <ele>715.2</ele>
        <time>2017-08-29T10:15:21Z</time>
      </trkpt>
      <trkpt lat="43.8009" lon="7.51887">
        <ele>714.6</ele>
        <time>2017-08-29T10:15:23Z</time>
      </trkpt>
      <trkpt lat="43.80088" lon="7.51879">
        <ele>712.3</ele>
        <time>2017-08-29T10:15:31Z</time>
      </trkpt>
      <trkpt lat="43.80085" lon="7.51878">
        <ele>710.8</ele>
        <time>2017-08-29T10:15:36Z</time>
      </trkpt>
      <trkpt lat="43.80082" lon="7.51878">
        <ele>709.4</ele>
        <time>2017-08-29T10:15:42Z</time>
      </trkpt>
      <trkpt lat="43.80079" lon="7.51878">
        <ele>707.9</ele>
        <time>2017-08-29T10:15:45Z</time>
      </trkpt>
      <trkpt lat="43.80074" lon="7.51879">
        <ele>705.5</ele>
        <time>2017-08-29T10:15:50Z</time>
      </trkpt>
      <trkpt lat="43.80072" lon="7.51876">
        <ele>704</ele>
        <time>2017-08-29T10:15:58Z</time>
      </trkpt>
      <trkpt lat="43.80069" lon="7.51874">
        <ele>702.1</ele>
        <time>2017-08-29T10:16:02Z</time>
      </trkpt>
      <trkpt lat="43.80061" lon="7.51876">
        <ele>698.4</ele>
        <time>2017-08-29T10:16:11Z</time>
      </trkpt>
      <trkpt lat="43.8006" lon="7.51877">
        <ele>698.1</ele>
        <time>2017-08-29T10:16:13Z</time>
      </trkpt>
      <trkpt lat="43.80054" lon="7.51879">
        <ele>695.3</ele>
        <time>2017-08-29T10:16:20Z</time>
      </trkpt>
      <trkpt lat="43.80051" lon="7.51881">
        <ele>694</ele>
        <time>2017-08-29T10:16:25Z</time>
      </trkpt>
      <trkpt lat="43.80039" lon="7.51893">
        <ele>689</ele>
        <time>2017-08-29T10:16:39Z</time>
      </trkpt>
      <trkpt lat="43.80039" lon="7.51894">
        <ele>689.1</ele>
        <time>2017-08-29T10:16:42Z</time>
      </trkpt>
      <trkpt lat="43.80035" lon="7.51897">
        <ele>687.3</ele>
        <time>2017-08-29T10:16:48Z</time>
      </trkpt>
      <trkpt lat="43.80034" lon="7.51898">
        <ele>686.8</ele>
        <time>2017-08-29T10:17:00Z</time>
      </trkpt>
      <trkpt lat="43.80025" lon="7.51901">
        <ele>682.4</ele>
        <time>2017-08-29T10:17:06Z</time>
      </trkpt>
      <trkpt lat="43.80021" lon="7.51905">
        <ele>681.2</ele>
        <time>2017-08-29T10:17:10Z</time>
      </trkpt>
      <trkpt lat="43.80017" lon="7.51908">
        <ele>679.9</ele>
        <time>2017-08-29T10:17:14Z</time>
      </trkpt>
      <trkpt lat="43.80016" lon="7.51908">
        <ele>679.4</ele>
        <time>2017-08-29T10:17:15Z</time>
      </trkpt>
      <trkpt lat="43.80009" lon="7.51913">
        <ele>677.2</ele>
        <time>2017-08-29T10:17:21Z</time>
      </trkpt>
      <trkpt lat="43.80007" lon="7.51914">
        <ele>676.5</ele>
        <time>2017-08-29T10:17:23Z</time>
      </trkpt>
      <trkpt lat="43.79996" lon="7.51927">
        <ele>673.6</ele>
        <time>2017-08-29T10:17:35Z</time>
      </trkpt>
      <trkpt lat="43.79995" lon="7.51927">
        <ele>673.1</ele>
        <time>2017-08-29T10:17:37Z</time>
      </trkpt>
      <trkpt lat="43.79984" lon="7.51933">
        <ele>668.9</ele>
        <time>2017-08-29T10:17:49Z</time>
      </trkpt>
      <trkpt lat="43.7998" lon="7.51933">
        <ele>667</ele>
        <time>2017-08-29T10:17:53Z</time>
      </trkpt>
      <trkpt lat="43.79977" lon="7.51936">
        <ele>666</ele>
        <time>2017-08-29T10:17:56Z</time>
      </trkpt>
      <trkpt lat="43.79975" lon="7.5194">
        <ele>665.7</ele>
        <time>2017-08-29T10:18:00Z</time>
      </trkpt>
      <trkpt lat="43.79974" lon="7.5194">
        <ele>665.2</ele>
        <time>2017-08-29T10:18:01Z</time>
      </trkpt>
      <trkpt lat="43.79972" lon="7.51943">
        <ele>664.7</ele>
        <time>2017-08-29T10:18:04Z</time>
      </trkpt>
      <trkpt lat="43.79969" lon="7.51946">
        <ele>663.5</ele>
        <time>2017-08-29T10:18:07Z</time>
      </trkpt>
      <trkpt lat="43.7996" lon="7.51951">
        <ele>659.4</ele>
        <time>2017-08-29T10:18:20Z</time>
      </trkpt>
      <trkpt lat="43.79956" lon="7.51954">
        <ele>657.7</ele>
        <time>2017-08-29T10:18:24Z</time>
      </trkpt>
      <trkpt lat="43.79955" lon="7.51953">
        <ele>657.1</ele>
        <time>2017-08-29T10:18:28Z</time>
      </trkpt>
      <trkpt lat="43.7995" lon="7.51952">
        <ele>654.6</ele>
        <time>2017-08-29T10:18:36Z</time>
      </trkpt>
      <trkpt lat="43.79941" lon="7.51949">
        <ele>649.9</ele>
        <time>2017-08-29T10:18:50Z</time>
      </trkpt>
      <trkpt lat="43.79939" lon="7.51948">
        <ele>648.8</ele>
        <time>2017-08-29T10:18:53Z</time>
      </trkpt>
      <trkpt lat="43.79939" lon="7.51949">
        <ele>648.9</ele>
        <time>2017-08-29T10:18:54Z</time>
      </trkpt>
      <trkpt lat="43.79934" lon="7.51952">
        <ele>646.9</ele>
        <time>2017-08-29T10:19:00Z</time>
      </trkpt>
      <trkpt lat="43.79934" lon="7.51952">
        <ele>646.9</ele>
        <time>2017-08-29T10:19:02Z</time>
      </trkpt>
      <trkpt lat="43.79932" lon="7.51929">
        <ele>643.5</ele>
        <time>2017-08-29T10:19:17Z</time>
      </trkpt>
      <trkpt lat="43.79928" lon="7.51933">
        <ele>642.1</ele>
        <time>2017-08-29T10:19:23Z</time>
      </trkpt>
      <trkpt lat="43.79922" lon="7.5194">
        <ele>640</ele>
        <time>2017-08-29T10:19:30Z</time>
      </trkpt>
      <trkpt lat="43.79918" lon="7.51942">
        <ele>638.4</ele>
        <time>2017-08-29T10:19:34Z</time>
      </trkpt>
      <trkpt lat="43.79907" lon="7.51961">
        <ele>635.1</ele>
        <time>2017-08-29T10:19:48Z</time>
      </trkpt>
      <trkpt lat="43.79896" lon="7.51974">
        <ele>631.6</ele>
        <time>2017-08-29T10:20:00Z</time>
      </trkpt>
      <trkpt lat="43.79895" lon="7.51975">
        <ele>631.3</ele>
        <time>2017-08-29T10:20:17Z</time>
      </trkpt>
      <trkpt lat="43.79895" lon="7.51976">
        <ele>631.4</ele>
        <time>2017-08-29T10:20:46Z</time>
      </trkpt>
      <trkpt lat="43.79885" lon="7.51985">
        <ele>628.1</ele>
        <time>2017-08-29T10:20:58Z</time>
      </trkpt>
      <trkpt lat="43.79869" lon="7.52003">
        <ele>623.9</ele>
        <time>2017-08-29T10:21:12Z</time>
      </trkpt>
      <trkpt lat="43.79868" lon="7.52004">
        <ele>623.6</ele>
        <time>2017-08-29T10:21:13Z</time>
      </trkpt>
      <trkpt lat="43.79862" lon="7.52007">
        <ele>621.4</ele>
        <time>2017-08-29T10:21:17Z</time>
      </trkpt>
      <trkpt lat="43.7986" lon="7.5201">
        <ele>620.9</ele>
        <time>2017-08-29T10:21:19Z</time>
      </trkpt>
      <trkpt lat="43.79847" lon="7.52026">
        <ele>617.6</ele>
        <time>2017-08-29T10:21:32Z</time>
      </trkpt>
      <trkpt lat="43.79835" lon="7.52038">
        <ele>614.6</ele>
        <time>2017-08-29T10:21:43Z</time>
      </trkpt>
      <trkpt lat="43.79832" lon="7.5204">
        <ele>613.6</ele>
        <time>2017-08-29T10:21:46Z</time>
      </trkpt>
      <trkpt lat="43.79818" lon="7.52058">
        <ele>610.2</ele>
        <time>2017-08-29T10:22:01Z</time>
      </trkpt>
      <trkpt lat="43.79804" lon="7.52076">
        <ele>606.1</ele>
        <time>2017-08-29T10:22:14Z</time>
      </trkpt>
      <trkpt lat="43.79791" lon="7.52097">
        <ele>602.1</ele>
        <time>2017-08-29T10:22:27Z</time>
      </trkpt>
      <trkpt lat="43.79787" lon="7.52102">
        <ele>600.9</ele>
        <time>2017-08-29T10:22:31Z</time>
      </trkpt>
      <trkpt lat="43.79772" lon="7.52114">
        <ele>595.9</ele>
        <time>2017-08-29T10:22:44Z</time>
      </trkpt>
      <trkpt lat="43.79761" lon="7.52126">
        <ele>592.9</ele>
        <time>2017-08-29T10:22:55Z</time>
      </trkpt>
      <trkpt lat="43.79755" lon="7.52134">
        <ele>591.5</ele>
        <time>2017-08-29T10:23:03Z</time>
      </trkpt>
      <trkpt lat="43.79744" lon="7.52152">
        <ele>588.4</ele>
        <time>2017-08-29T10:23:16Z</time>
      </trkpt>
      <trkpt lat="43.7974" lon="7.52158">
        <ele>587</ele>
        <time>2017-08-29T10:23:20Z</time>
      </trkpt>
      <trkpt lat="43.79736" lon="7.52165">
        <ele>585.8</ele>
        <time>2017-08-29T10:23:25Z</time>
      </trkpt>
      <trkpt lat="43.79725" lon="7.5218">
        <ele>581.8</ele>
        <time>2017-08-29T10:23:39Z</time>
      </trkpt>
      <trkpt lat="43.79715" lon="7.52192">
        <ele>578.4</ele>
        <time>2017-08-29T10:23:52Z</time>
      </trkpt>
      <trkpt lat="43.79709" lon="7.52198">
        <ele>576.1</ele>
        <time>2017-08-29T10:24:03Z</time>
      </trkpt>
      <trkpt lat="43.79704" lon="7.52201">
        <ele>574</ele>
        <time>2017-08-29T10:24:07Z</time>
      </trkpt>
      <trkpt lat="43.79699" lon="7.52207">
        <ele>572.1</ele>
        <time>2017-08-29T10:24:12Z</time>
      </trkpt>
      <trkpt lat="43.79688" lon="7.52218">
        <ele>567.6</ele>
        <time>2017-08-29T10:24:26Z</time>
      </trkpt>
      <trkpt lat="43.79686" lon="7.52219">
        <ele>566.8</ele>
        <time>2017-08-29T10:24:28Z</time>
      </trkpt>
      <trkpt lat="43.79683" lon="7.52208">
        <ele>564.4</ele>
        <time>2017-08-29T10:24:41Z</time>
      </trkpt>
      <trkpt lat="43.79679" lon="7.52209">
        <ele>562.6</ele>
        <time>2017-08-29T10:24:46Z</time>
      </trkpt>
      <trkpt lat="43.79678" lon="7.52209">
        <ele>562.1</ele>
        <time>2017-08-29T10:24:47Z</time>
      </trkpt>
      <trkpt lat="43.79674" lon="7.52207">
        <ele>559.9</ele>
        <time>2017-08-29T10:24:51Z</time>
      </trkpt>
      <trkpt lat="43.79668" lon="7.52214">
        <ele>557.8</ele>
        <time>2017-08-29T10:25:00Z</time>
      </trkpt>
      <trkpt lat="43.79666" lon="7.52215">
        <ele>556.9</ele>
        <time>2017-08-29T10:25:02Z</time>
      </trkpt>
      <trkpt lat="43.79663" lon="7.52219">
        <ele>555.7</ele>
        <time>2017-08-29T10:25:16Z</time>
      </trkpt>
      <trkpt lat="43.79663" lon="7.52219">
        <ele>555.7</ele>
        <time>2017-08-29T10:25:32Z</time>
      </trkpt>
      <trkpt lat="43.79657" lon="7.5222">
        <ele>552.5</ele>
        <time>2017-08-29T10:25:48Z</time>
      </trkpt>
      <trkpt lat="43.79653" lon="7.52219">
        <ele>550.3</ele>
        <time>2017-08-29T10:25:52Z</time>
      </trkpt>
      <trkpt lat="43.79647" lon="7.52218">
        <ele>546.9</ele>
        <time>2017-08-29T10:25:57Z</time>
      </trkpt>
      <trkpt lat="43.79646" lon="7.52219">
        <ele>546.5</ele>
        <time>2017-08-29T10:25:59Z</time>
      </trkpt>
      <trkpt lat="43.79643" lon="7.52221">
        <ele>545.1</ele>
        <time>2017-08-29T10:26:02Z</time>
      </trkpt>
      <trkpt lat="43.79635" lon="7.52222">
        <ele>540.5</ele>
        <time>2017-08-29T10:26:11Z</time>
      </trkpt>
      <trkpt lat="43.79624" lon="7.52233">
        <ele>535.3</ele>
        <time>2017-08-29T10:26:25Z</time>
      </trkpt>
      <trkpt lat="43.79619" lon="7.52235">
        <ele>532.8</ele>
        <time>2017-08-29T10:26:31Z</time>
      </trkpt>
      <trkpt lat="43.79614" lon="7.52238">
        <ele>530.6</ele>
        <time>2017-08-29T10:26:36Z</time>
      </trkpt>
      <trkpt lat="43.79612" lon="7.52241">
        <ele>530.2</ele>
        <time>2017-08-29T10:26:40Z</time>
      </trkpt>
      <trkpt lat="43.79604" lon="7.52244">
        <ele>526.8</ele>
        <time>2017-08-29T10:26:54Z</time>
      </trkpt>
      <trkpt lat="43.79598" lon="7.52247">
        <ele>524.5</ele>
        <time>2017-08-29T10:27:01Z</time>
      </trkpt>
      <trkpt lat="43.79596" lon="7.52248">
        <ele>523.8</ele>
        <time>2017-08-29T10:27:04Z</time>
      </trkpt>
      <trkpt lat="43.79594" lon="7.52248">
        <ele>522.8</ele>
        <time>2017-08-29T10:27:06Z</time>
      </trkpt>
      <trkpt lat="43.79591" lon="7.5225">
        <ele>521.9</ele>
        <time>2017-08-29T10:27:20Z</time>
      </trkpt>
      <trkpt lat="43.79591" lon="7.5225">
        <ele>521.9</ele>
        <time>2017-08-29T10:27:45Z</time>
      </trkpt>
      <trkpt lat="43.79589" lon="7.5225">
        <ele>520.9</ele>
        <time>2017-08-29T10:28:07Z</time>
      </trkpt>
      <trkpt lat="43.79584" lon="7.5225">
        <ele>518.3</ele>
        <time>2017-08-29T10:28:16Z</time>
      </trkpt>
      <trkpt lat="43.79581" lon="7.52244">
        <ele>514.6</ele>
        <time>2017-08-29T10:28:25Z</time>
      </trkpt>
      <trkpt lat="43.7958" lon="7.52238">
        <ele>512</ele>
        <time>2017-08-29T10:28:31Z</time>
      </trkpt>
      <trkpt lat="43.7958" lon="7.52234">
        <ele>510.6</ele>
        <time>2017-08-29T10:28:35Z</time>
      </trkpt>
      <trkpt lat="43.79578" lon="7.52227">
        <ele>506.8</ele>
        <time>2017-08-29T10:28:46Z</time>
      </trkpt>
      <trkpt lat="43.7958" lon="7.5222">
        <ele>505.9</ele>
        <time>2017-08-29T10:28:57Z</time>
      </trkpt>
      <trkpt lat="43.79581" lon="7.52211">
        <ele>503.7</ele>
        <time>2017-08-29T10:29:08Z</time>
      </trkpt>
      <trkpt lat="43.7958" lon="7.52208">
        <ele>501.9</ele>
        <time>2017-08-29T10:29:12Z</time>
      </trkpt>
      <trkpt lat="43.79579" lon="7.52209">
        <ele>501.5</ele>
        <time>2017-08-29T10:29:19Z</time>
      </trkpt>
      <trkpt lat="43.79577" lon="7.52206">
        <ele>499.1</ele>
        <time>2017-08-29T10:29:33Z</time>
      </trkpt>
      <trkpt lat="43.79574" lon="7.52205">
        <ele>496.5</ele>
        <time>2017-08-29T10:29:39Z</time>
      </trkpt>
      <trkpt lat="43.79569" lon="7.52203">
        <ele>492.1</ele>
        <time>2017-08-29T10:29:43Z</time>
      </trkpt>
      <trkpt lat="43.79559" lon="7.52216">
        <ele>489.3</ele>
        <time>2017-08-29T10:29:58Z</time>
      </trkpt>
      <trkpt lat="43.79556" lon="7.52217">
        <ele>487.4</ele>
        <time>2017-08-29T10:30:02Z</time>
      </trkpt>
      <trkpt lat="43.79549" lon="7.52216">
        <ele>483.4</ele>
        <time>2017-08-29T10:30:08Z</time>
      </trkpt>
      <trkpt lat="43.79544" lon="7.52216">
        <ele>480.9</ele>
        <time>2017-08-29T10:30:12Z</time>
      </trkpt>
      <trkpt lat="43.7954" lon="7.52214">
        <ele>478.3</ele>
        <time>2017-08-29T10:30:18Z</time>
      </trkpt>
      <trkpt lat="43.79542" lon="7.522">
        <ele>475.2</ele>
        <time>2017-08-29T10:30:32Z</time>
      </trkpt>
      <trkpt lat="43.79536" lon="7.52199">
        <ele>472.4</ele>
        <time>2017-08-29T10:30:45Z</time>
      </trkpt>
      <trkpt lat="43.79533" lon="7.52194">
        <ele>470</ele>
        <time>2017-08-29T10:30:50Z</time>
      </trkpt>
      <trkpt lat="43.79532" lon="7.52191">
        <ele>468.9</ele>
        <time>2017-08-29T10:30:54Z</time>
      </trkpt>
      <trkpt lat="43.79528" lon="7.52183">
        <ele>465.6</ele>
        <time>2017-08-29T10:31:06Z</time>
      </trkpt>
      <trkpt lat="43.79525" lon="7.52177">
        <ele>463.1</ele>
        <time>2017-08-29T10:31:15Z</time>
      </trkpt>
      <trkpt lat="43.79524" lon="7.52174">
        <ele>462.1</ele>
        <time>2017-08-29T10:31:18Z</time>
      </trkpt>
      <trkpt lat="43.79521" lon="7.52175">
        <ele>461.1</ele>
        <time>2017-08-29T10:31:22Z</time>
      </trkpt>
      <trkpt lat="43.79519" lon="7.52172">
        <ele>459.7</ele>
        <time>2017-08-29T10:31:26Z</time>
      </trkpt>
      <trkpt lat="43.79514" lon="7.52165">
        <ele>456.2</ele>
        <time>2017-08-29T10:31:38Z</time>
      </trkpt>
      <trkpt lat="43.79505" lon="7.52156">
        <ele>451.3</ele>
        <time>2017-08-29T10:31:51Z</time>
      </trkpt>
      <trkpt lat="43.79501" lon="7.52153">
        <ele>449.4</ele>
        <time>2017-08-29T10:31:55Z</time>
      </trkpt>
      <trkpt lat="43.79501" lon="7.52151">
        <ele>449.1</ele>
        <time>2017-08-29T10:31:59Z</time>
      </trkpt>
      <trkpt lat="43.79501" lon="7.52152">
        <ele>449.2</ele>
        <time>2017-08-29T10:32:16Z</time>
      </trkpt>
      <trkpt lat="43.79501" lon="7.52151">
        <ele>449.1</ele>
        <time>2017-08-29T10:32:38Z</time>
      </trkpt>
      <trkpt lat="43.795" lon="7.5215">
        <ele>448.6</ele>
        <time>2017-08-29T10:32:58Z</time>
      </trkpt>
      <trkpt lat="43.795" lon="7.5215">
        <ele>448.6</ele>
        <time>2017-08-29T10:33:23Z</time>
      </trkpt>
      <trkpt lat="43.79501" lon="7.52149">
        <ele>448.8</ele>
        <time>2017-08-29T10:33:41Z</time>
      </trkpt>
      <trkpt lat="43.79497" lon="7.5215">
        <ele>447.9</ele>
        <time>2017-08-29T10:34:05Z</time>
      </trkpt>
      <trkpt lat="43.79494" lon="7.52141">
        <ele>446</ele>
        <time>2017-08-29T10:34:18Z</time>
      </trkpt>
      <trkpt lat="43.79489" lon="7.52142">
        <ele>445</ele>
        <time>2017-08-29T10:34:34Z</time>
      </trkpt>
      <trkpt lat="43.79488" lon="7.52142">
        <ele>444.8</ele>
        <time>2017-08-29T10:34:57Z</time>
      </trkpt>
      <trkpt lat="43.79481" lon="7.52141">
        <ele>443.1</ele>
        <time>2017-08-29T10:35:09Z</time>
      </trkpt>
      <trkpt lat="43.79476" lon="7.52122">
        <ele>438.5</ele>
        <time>2017-08-29T10:35:26Z</time>
      </trkpt>
      <trkpt lat="43.79471" lon="7.52122">
        <ele>436.8</ele>
        <time>2017-08-29T10:35:36Z</time>
      </trkpt>
      <trkpt lat="43.79466" lon="7.52125">
        <ele>435.2</ele>
        <time>2017-08-29T10:35:40Z</time>
      </trkpt>
      <trkpt lat="43.79465" lon="7.52126">
        <ele>435</ele>
        <time>2017-08-29T10:35:41Z</time>
      </trkpt>
      <trkpt lat="43.79458" lon="7.52133">
        <ele>433.2</ele>
        <time>2017-08-29T10:35:48Z</time>
      </trkpt>
      <trkpt lat="43.79455" lon="7.52133">
        <ele>431.8</ele>
        <time>2017-08-29T10:35:51Z</time>
      </trkpt>
      <trkpt lat="43.79451" lon="7.52128">
        <ele>429</ele>
        <time>2017-08-29T10:36:05Z</time>
      </trkpt>
      <trkpt lat="43.79446" lon="7.52124">
        <ele>426</ele>
        <time>2017-08-29T10:36:15Z</time>
      </trkpt>
      <trkpt lat="43.79443" lon="7.52125">
        <ele>424.9</ele>
        <time>2017-08-29T10:36:19Z</time>
      </trkpt>
      <trkpt lat="43.79441" lon="7.52121">
        <ele>423.4</ele>
        <time>2017-08-29T10:36:25Z</time>
      </trkpt>
      <trkpt lat="43.79432" lon="7.52113">
        <ele>418.4</ele>
        <time>2017-08-29T10:36:41Z</time>
      </trkpt>
      <trkpt lat="43.79429" lon="7.5211">
        <ele>416.7</ele>
        <time>2017-08-29T10:36:54Z</time>
      </trkpt>
      <trkpt lat="43.79425" lon="7.52106">
        <ele>414.5</ele>
        <time>2017-08-29T10:37:02Z</time>
      </trkpt>
      <trkpt lat="43.79423" lon="7.52101">
        <ele>413</ele>
        <time>2017-08-29T10:37:06Z</time>
      </trkpt>
      <trkpt lat="43.79422" lon="7.52097">
        <ele>412</ele>
        <time>2017-08-29T10:37:23Z</time>
      </trkpt>
      <trkpt lat="43.79413" lon="7.52086">
        <ele>406.9</ele>
        <time>2017-08-29T10:37:37Z</time>
      </trkpt>
      <trkpt lat="43.79406" lon="7.5208">
        <ele>403.3</ele>
        <time>2017-08-29T10:37:48Z</time>
      </trkpt>
      <trkpt lat="43.79405" lon="7.5208">
        <ele>403</ele>
        <time>2017-08-29T10:37:52Z</time>
      </trkpt>
      <trkpt lat="43.79403" lon="7.52081">
        <ele>402.3</ele>
        <time>2017-08-29T10:37:54Z</time>
      </trkpt>
      <trkpt lat="43.79382" lon="7.52062">
        <ele>392.2</ele>
        <time>2017-08-29T10:38:09Z</time>
      </trkpt>
      <trkpt lat="43.79377" lon="7.52052">
        <ele>389.3</ele>
        <time>2017-08-29T10:38:24Z</time>
      </trkpt>
      <trkpt lat="43.79373" lon="7.52047">
        <ele>387.4</ele>
        <time>2017-08-29T10:38:29Z</time>
      </trkpt>
      <trkpt lat="43.79371" lon="7.52041">
        <ele>386</ele>
        <time>2017-08-29T10:38:35Z</time>
      </trkpt>
      <trkpt lat="43.7937" lon="7.52039">
        <ele>385.4</ele>
        <time>2017-08-29T10:38:37Z</time>
      </trkpt>
      <trkpt lat="43.79364" lon="7.52043">
        <ele>383.7</ele>
        <time>2017-08-29T10:38:43Z</time>
      </trkpt>
      <trkpt lat="43.79361" lon="7.52045">
        <ele>382.8</ele>
        <time>2017-08-29T10:38:48Z</time>
      </trkpt>
      <trkpt lat="43.79351" lon="7.52037">
        <ele>378.5</ele>
        <time>2017-08-29T10:39:06Z</time>
      </trkpt>
      <trkpt lat="43.79339" lon="7.52033">
        <ele>374.1</ele>
        <time>2017-08-29T10:39:19Z</time>
      </trkpt>
      <trkpt lat="43.79334" lon="7.52031">
        <ele>372.3</ele>
        <time>2017-08-29T10:39:25Z</time>
      </trkpt>
      <trkpt lat="43.79331" lon="7.52034">
        <ele>371.4</ele>
        <time>2017-08-29T10:39:32Z</time>
      </trkpt>
      <trkpt lat="43.79321" lon="7.52029">
        <ele>367.6</ele>
        <time>2017-08-29T10:39:48Z</time>
      </trkpt>
      <trkpt lat="43.7931" lon="7.52026">
        <ele>363.5</ele>
        <time>2017-08-29T10:40:01Z</time>
      </trkpt>
      <trkpt lat="43.79305" lon="7.52024">
        <ele>361.7</ele>
        <time>2017-08-29T10:40:08Z</time>
      </trkpt>
      <trkpt lat="43.79304" lon="7.52018">
        <ele>361.1</ele>
        <time>2017-08-29T10:40:12Z</time>
      </trkpt>
      <trkpt lat="43.79304" lon="7.51999">
        <ele>360.3</ele>
        <time>2017-08-29T10:40:24Z</time>
      </trkpt>
      <trkpt lat="43.7931" lon="7.5197">
        <ele>356.5</ele>
        <time>2017-08-29T10:40:43Z</time>
      </trkpt>
      <trkpt lat="43.79308" lon="7.51954">
        <ele>352.5</ele>
        <time>2017-08-29T10:40:57Z</time>
      </trkpt>
      <trkpt lat="43.79304" lon="7.51944">
        <ele>349.4</ele>
        <time>2017-08-29T10:41:09Z</time>
      </trkpt>
      <trkpt lat="43.79301" lon="7.51941">
        <ele>347.8</ele>
        <time>2017-08-29T10:41:13Z</time>
      </trkpt>
      <trkpt lat="43.79291" lon="7.51933">
        <ele>343.2</ele>
        <time>2017-08-29T10:41:29Z</time>
      </trkpt>
      <trkpt lat="43.79283" lon="7.51928">
        <ele>340.2</ele>
        <time>2017-08-29T10:41:37Z</time>
      </trkpt>
      <trkpt lat="43.79275" lon="7.51925">
        <ele>337.4</ele>
        <time>2017-08-29T10:41:46Z</time>
      </trkpt>
      <trkpt lat="43.79274" lon="7.51924">
        <ele>336.9</ele>
        <time>2017-08-29T10:41:50Z</time>
      </trkpt>
      <trkpt lat="43.79273" lon="7.51925">
        <ele>336.7</ele>
        <time>2017-08-29T10:41:51Z</time>
      </trkpt>
      <trkpt lat="43.79269" lon="7.51922">
        <ele>334.7</ele>
        <time>2017-08-29T10:42:08Z</time>
      </trkpt>
      <trkpt lat="43.79269" lon="7.51922">
        <ele>334.7</ele>
        <time>2017-08-29T10:42:27Z</time>
      </trkpt>
      <trkpt lat="43.79266" lon="7.51913">
        <ele>331.9</ele>
        <time>2017-08-29T10:42:34Z</time>
      </trkpt>
      <trkpt lat="43.79269" lon="7.519">
        <ele>329.6</ele>
        <time>2017-08-29T10:42:48Z</time>
      </trkpt>
      <trkpt lat="43.79262" lon="7.51896">
        <ele>326.6</ele>
        <time>2017-08-29T10:43:01Z</time>
      </trkpt>
      <trkpt lat="43.79251" lon="7.51897">
        <ele>323.7</ele>
        <time>2017-08-29T10:43:14Z</time>
      </trkpt>
      <trkpt lat="43.79249" lon="7.51892">
        <ele>322</ele>
        <time>2017-08-29T10:43:27Z</time>
      </trkpt>
      <trkpt lat="43.79246" lon="7.51887">
        <ele>319.5</ele>
        <time>2017-08-29T10:43:40Z</time>
      </trkpt>
      <trkpt lat="43.79245" lon="7.51881">
        <ele>317.4</ele>
        <time>2017-08-29T10:43:45Z</time>
      </trkpt>
      <trkpt lat="43.79244" lon="7.51881">
        <ele>316.9</ele>
        <time>2017-08-29T10:43:49Z</time>
      </trkpt>
      <trkpt lat="43.79235" lon="7.51868">
        <ele>310</ele>
        <time>2017-08-29T10:44:05Z</time>
      </trkpt>
      <trkpt lat="43.79234" lon="7.51862">
        <ele>308.4</ele>
        <time>2017-08-29T10:44:18Z</time>
      </trkpt>
      <trkpt lat="43.79233" lon="7.5185">
        <ele>304.9</ele>
        <time>2017-08-29T10:44:32Z</time>
      </trkpt>
      <trkpt lat="43.79236" lon="7.51841">
        <ele>303.2</ele>
        <time>2017-08-29T10:44:38Z</time>
      </trkpt>
      <trkpt lat="43.79236" lon="7.5184">
        <ele>302.9</ele>
        <time>2017-08-29T10:44:39Z</time>
      </trkpt>
      <trkpt lat="43.79237" lon="7.5183">
        <ele>298.5</ele>
        <time>2017-08-29T10:44:48Z</time>
      </trkpt>
      <trkpt lat="43.79223" lon="7.51837">
        <ele>299</ele>
        <time>2017-08-29T10:45:00Z</time>
      </trkpt>
      <trkpt lat="43.7922" lon="7.51828">
        <ele>293.5</ele>
        <time>2017-08-29T10:45:13Z</time>
      </trkpt>
      <trkpt lat="43.79219" lon="7.51827">
        <ele>292.5</ele>
        <time>2017-08-29T10:45:15Z</time>
      </trkpt>
      <trkpt lat="43.79214" lon="7.51823">
        <ele>288.3</ele>
        <time>2017-08-29T10:45:21Z</time>
      </trkpt>
      <trkpt lat="43.79211" lon="7.51819">
        <ele>285</ele>
        <time>2017-08-29T10:45:25Z</time>
      </trkpt>
      <trkpt lat="43.79204" lon="7.51819">
        <ele>283</ele>
        <time>2017-08-29T10:45:38Z</time>
      </trkpt>
      <trkpt lat="43.79206" lon="7.5181">
        <ele>279</ele>
        <time>2017-08-29T10:45:45Z</time>
      </trkpt>
      <trkpt lat="43.79207" lon="7.51809">
        <ele>278.6</ele>
        <time>2017-08-29T10:45:49Z</time>
      </trkpt>
      <trkpt lat="43.79203" lon="7.51807">
        <ele>276.9</ele>
        <time>2017-08-29T10:46:01Z</time>
      </trkpt>
      <trkpt lat="43.79203" lon="7.51807">
        <ele>276.9</ele>
        <time>2017-08-29T10:46:26Z</time>
      </trkpt>
      <trkpt lat="43.79199" lon="7.51805">
        <ele>275.3</ele>
        <time>2017-08-29T10:46:43Z</time>
      </trkpt>
      <trkpt lat="43.79188" lon="7.51803">
        <ele>271.2</ele>
        <time>2017-08-29T10:46:55Z</time>
      </trkpt>
      <trkpt lat="43.79189" lon="7.518">
        <ele>270.1</ele>
        <time>2017-08-29T10:46:59Z</time>
      </trkpt>
      <trkpt lat="43.79186" lon="7.51797">
        <ele>267.7</ele>
        <time>2017-08-29T10:47:03Z</time>
      </trkpt>
      <trkpt lat="43.79186" lon="7.51795">
        <ele>266.8</ele>
        <time>2017-08-29T10:47:05Z</time>
      </trkpt>
      <trkpt lat="43.79191" lon="7.5179">
        <ele>265.7</ele>
        <time>2017-08-29T10:47:20Z</time>
      </trkpt>
      <trkpt lat="43.79186" lon="7.51787">
        <ele>263.1</ele>
        <time>2017-08-29T10:47:36Z</time>
      </trkpt>
      <trkpt lat="43.79184" lon="7.51786">
        <ele>262.2</ele>
        <time>2017-08-29T10:47:57Z</time>
      </trkpt>
      <trkpt lat="43.79176" lon="7.5178">
        <ele>258.2</ele>
        <time>2017-08-29T10:48:06Z</time>
      </trkpt>
      <trkpt lat="43.79173" lon="7.51779">
        <ele>257.3</ele>
        <time>2017-08-29T10:48:09Z</time>
      </trkpt>
      <trkpt lat="43.79166" lon="7.51773">
        <ele>253.5</ele>
        <time>2017-08-29T10:48:16Z</time>
      </trkpt>
      <trkpt lat="43.79154" lon="7.51766">
        <ele>247.2</ele>
        <time>2017-08-29T10:48:28Z</time>
      </trkpt>
      <trkpt lat="43.79153" lon="7.5176">
        <ele>245.1</ele>
        <time>2017-08-29T10:48:34Z</time>
      </trkpt>
      <trkpt lat="43.79151" lon="7.51758">
        <ele>244.2</ele>
        <time>2017-08-29T10:48:38Z</time>
      </trkpt>
      <trkpt lat="43.79145" lon="7.51745">
        <ele>239.6</ele>
        <time>2017-08-29T10:48:52Z</time>
      </trkpt>
      <trkpt lat="43.79142" lon="7.51732">
        <ele>235</ele>
        <time>2017-08-29T10:49:06Z</time>
      </trkpt>
      <trkpt lat="43.79141" lon="7.51728">
        <ele>233.7</ele>
        <time>2017-08-29T10:49:09Z</time>
      </trkpt>
      <trkpt lat="43.79138" lon="7.51726">
        <ele>233.1</ele>
        <time>2017-08-29T10:49:12Z</time>
      </trkpt>
      <trkpt lat="43.79137" lon="7.51724">
        <ele>232.4</ele>
        <time>2017-08-29T10:49:13Z</time>
      </trkpt>
      <trkpt lat="43.79124" lon="7.51713">
        <ele>227.3</ele>
        <time>2017-08-29T10:49:26Z</time>
      </trkpt>
      <trkpt lat="43.79121" lon="7.51702">
        <ele>223.7</ele>
        <time>2017-08-29T10:49:38Z</time>
      </trkpt>
      <trkpt lat="43.79119" lon="7.51698">
        <ele>223</ele>
        <time>2017-08-29T10:49:41Z</time>
      </trkpt>
      <trkpt lat="43.79115" lon="7.5169">
        <ele>220.9</ele>
        <time>2017-08-29T10:49:46Z</time>
      </trkpt>
      <trkpt lat="43.79098" lon="7.51676">
        <ele>216.1</ele>
        <time>2017-08-29T10:50:02Z</time>
      </trkpt>
      <trkpt lat="43.79097" lon="7.51672">
        <ele>214.8</ele>
        <time>2017-08-29T10:50:07Z</time>
      </trkpt>
      <trkpt lat="43.79102" lon="7.51674">
        <ele>214</ele>
        <time>2017-08-29T10:50:12Z</time>
      </trkpt>
      <trkpt lat="43.79104" lon="7.51673">
        <ele>212.8</ele>
        <time>2017-08-29T10:50:16Z</time>
      </trkpt>
      <trkpt lat="43.79114" lon="7.5167">
        <ele>209.1</ele>
        <time>2017-08-29T10:50:28Z</time>
      </trkpt>
      <trkpt lat="43.79099" lon="7.51662">
        <ele>210.2</ele>
        <time>2017-08-29T10:50:40Z</time>
      </trkpt>
      <trkpt lat="43.79102" lon="7.51654">
        <ele>206.6</ele>
        <time>2017-08-29T10:50:48Z</time>
      </trkpt>
      <trkpt lat="43.79104" lon="7.51653">
        <ele>205.6</ele>
        <time>2017-08-29T10:50:52Z</time>
      </trkpt>
      <trkpt lat="43.79104" lon="7.51647">
        <ele>204</ele>
        <time>2017-08-29T10:51:06Z</time>
      </trkpt>
      <trkpt lat="43.7911" lon="7.51653">
        <ele>203.4</ele>
        <time>2017-08-29T10:51:18Z</time>
      </trkpt>
      <trkpt lat="43.79112" lon="7.51649">
        <ele>202.6</ele>
        <time>2017-08-29T10:51:44Z</time>
      </trkpt>
      <trkpt lat="43.79113" lon="7.51648">
        <ele>202.8</ele>
        <time>2017-08-29T10:52:02Z</time>
      </trkpt>
      <trkpt lat="43.79122" lon="7.51636">
        <ele>205</ele>
        <time>2017-08-29T10:52:14Z</time>
      </trkpt>
      <trkpt lat="43.79124" lon="7.51629">
        <ele>205.2</ele>
        <time>2017-08-29T10:52:19Z</time>
      </trkpt>
      <trkpt lat="43.79125" lon="7.51603">
        <ele>203.1</ele>
        <time>2017-08-29T10:52:35Z</time>
      </trkpt>
      <trkpt lat="43.79128" lon="7.51581">
        <ele>203.6</ele>
        <time>2017-08-29T10:52:47Z</time>
      </trkpt>
      <trkpt lat="43.79138" lon="7.51551">
        <ele>200.7</ele>
        <time>2017-08-29T10:53:07Z</time>
      </trkpt>
      <trkpt lat="43.79145" lon="7.51542">
        <ele>197.8</ele>
        <time>2017-08-29T10:53:20Z</time>
      </trkpt>
      <trkpt lat="43.79126" lon="7.5155">
        <ele>194.2</ele>
        <time>2017-08-29T10:53:36Z</time>
      </trkpt>
      <trkpt lat="43.79125" lon="7.51551">
        <ele>194</ele>
        <time>2017-08-29T10:53:37Z</time>
      </trkpt>
      <trkpt lat="43.79118" lon="7.51582">
        <ele>196.7</ele>
        <time>2017-08-29T10:53:56Z</time>
      </trkpt>
      <trkpt lat="43.79113" lon="7.51609">
        <ele>194.3</ele>
        <time>2017-08-29T10:54:13Z</time>
      </trkpt>
      <trkpt lat="43.79094" lon="7.51615">
        <ele>194.1</ele>
        <time>2017-08-29T10:54:29Z</time>
      </trkpt>
      <trkpt lat="43.79086" lon="7.51606">
        <ele>191.4</ele>
        <time>2017-08-29T10:54:37Z</time>
      </trkpt>
      <trkpt lat="43.79071" lon="7.5158">
        <ele>189.7</ele>
        <time>2017-08-29T10:54:56Z</time>
      </trkpt>
      <trkpt lat="43.79054" lon="7.5156">
        <ele>187.3</ele>
        <time>2017-08-29T10:55:13Z</time>
      </trkpt>
      <trkpt lat="43.79035" lon="7.51553">
        <ele>184.8</ele>
        <time>2017-08-29T10:55:31Z</time>
      </trkpt>
      <trkpt lat="43.79027" lon="7.51558">
        <ele>186.4</ele>
        <time>2017-08-29T10:55:38Z</time>
      </trkpt>
      <trkpt lat="43.7902" lon="7.51581">
        <ele>189.6</ele>
        <time>2017-08-29T10:55:55Z</time>
      </trkpt>
      <trkpt lat="43.79014" lon="7.51601">
        <ele>191.4</ele>
        <time>2017-08-29T10:56:10Z</time>
      </trkpt>
      <trkpt lat="43.79011" lon="7.51626">
        <ele>193.7</ele>
        <time>2017-08-29T10:56:26Z</time>
      </trkpt>
      <trkpt lat="43.79008" lon="7.5165">
        <ele>194.3</ele>
        <time>2017-08-29T10:56:43Z</time>
      </trkpt>
      <trkpt lat="43.79006" lon="7.51679">
        <ele>193.6</ele>
        <time>2017-08-29T10:57:01Z</time>
      </trkpt>
      <trkpt lat="43.79002" lon="7.51708">
        <ele>192.8</ele>
        <time>2017-08-29T10:57:18Z</time>
      </trkpt>
      <trkpt lat="43.79002" lon="7.5171">
        <ele>192.7</ele>
        <time>2017-08-29T10:57:19Z</time>
      </trkpt>
      <trkpt lat="43.78997" lon="7.51744">
        <ele>189.9</ele>
        <time>2017-08-29T10:57:38Z</time>
      </trkpt>
      <trkpt lat="43.78997" lon="7.51768">
        <ele>188.5</ele>
        <time>2017-08-29T10:57:54Z</time>
      </trkpt>
      <trkpt lat="43.78992" lon="7.51779">
        <ele>185.8</ele>
        <time>2017-08-29T10:58:08Z</time>
      </trkpt>
      <trkpt lat="43.7899" lon="7.5177">
        <ele>185.5</ele>
        <time>2017-08-29T10:58:21Z</time>
      </trkpt>
      <trkpt lat="43.78981" lon="7.51748">
        <ele>182.8</ele>
        <time>2017-08-29T10:58:38Z</time>
      </trkpt>
      <trkpt lat="43.78975" lon="7.51734">
        <ele>180.3</ele>
        <time>2017-08-29T10:58:49Z</time>
      </trkpt>
      <trkpt lat="43.78974" lon="7.51729">
        <ele>179.8</ele>
        <time>2017-08-29T10:58:53Z</time>
      </trkpt>
      <trkpt lat="43.78968" lon="7.51708">
        <ele>177.8</ele>
        <time>2017-08-29T10:59:10Z</time>
      </trkpt>
      <trkpt lat="43.78964" lon="7.51705">
        <ele>176.1</ele>
        <time>2017-08-29T10:59:22Z</time>
      </trkpt>
      <trkpt lat="43.78962" lon="7.51704">
        <ele>175.3</ele>
        <time>2017-08-29T10:59:24Z</time>
      </trkpt>
      <trkpt lat="43.78959" lon="7.51699">
        <ele>173.9</ele>
        <time>2017-08-29T10:59:32Z</time>
      </trkpt>
      <trkpt lat="43.78955" lon="7.51682">
        <ele>172.7</ele>
        <time>2017-08-29T10:59:49Z</time>
      </trkpt>
      <trkpt lat="43.7895" lon="7.51668">
        <ele>170.9</ele>
        <time>2017-08-29T11:00:05Z</time>
      </trkpt>
      <trkpt lat="43.78945" lon="7.51656">
        <ele>168.3</ele>
        <time>2017-08-29T11:00:19Z</time>
      </trkpt>
      <trkpt lat="43.78941" lon="7.51634">
        <ele>166.1</ele>
        <time>2017-08-29T11:00:33Z</time>
      </trkpt>
      <trkpt lat="43.78941" lon="7.5163">
        <ele>165.6</ele>
        <time>2017-08-29T11:00:35Z</time>
      </trkpt>
      <trkpt lat="43.78943" lon="7.51598">
        <ele>163</ele>
        <time>2017-08-29T11:00:52Z</time>
      </trkpt>
      <trkpt lat="43.78941" lon="7.51593">
        <ele>161.8</ele>
        <time>2017-08-29T11:00:59Z</time>
      </trkpt>
      <trkpt lat="43.78937" lon="7.51592">
        <ele>160.3</ele>
        <time>2017-08-29T11:01:03Z</time>
      </trkpt>
      <trkpt lat="43.78931" lon="7.51603">
        <ele>158.7</ele>
        <time>2017-08-29T11:01:17Z</time>
      </trkpt>
      <trkpt lat="43.78925" lon="7.51604">
        <ele>156.4</ele>
        <time>2017-08-29T11:01:23Z</time>
      </trkpt>
      <trkpt lat="43.78924" lon="7.51605">
        <ele>156</ele>
        <time>2017-08-29T11:01:24Z</time>
      </trkpt>
      <trkpt lat="43.78913" lon="7.51606">
        <ele>151.9</ele>
        <time>2017-08-29T11:01:39Z</time>
      </trkpt>
      <trkpt lat="43.78902" lon="7.51606">
        <ele>148.6</ele>
        <time>2017-08-29T11:01:54Z</time>
      </trkpt>
      <trkpt lat="43.789" lon="7.51604">
        <ele>147.7</ele>
        <time>2017-08-29T11:01:56Z</time>
      </trkpt>
      <trkpt lat="43.78894" lon="7.51602">
        <ele>145.4</ele>
        <time>2017-08-29T11:02:01Z</time>
      </trkpt>
      <trkpt lat="43.78891" lon="7.51593">
        <ele>142.3</ele>
        <time>2017-08-29T11:02:18Z</time>
      </trkpt>
      <trkpt lat="43.7889" lon="7.51579">
        <ele>139.2</ele>
        <time>2017-08-29T11:02:32Z</time>
      </trkpt>
      <trkpt lat="43.78888" lon="7.51574">
        <ele>137.7</ele>
        <time>2017-08-29T11:02:38Z</time>
      </trkpt>
      <trkpt lat="43.78886" lon="7.5157">
        <ele>135.9</ele>
        <time>2017-08-29T11:02:43Z</time>
      </trkpt>
      <trkpt lat="43.78885" lon="7.51566">
        <ele>134.8</ele>
        <time>2017-08-29T11:02:49Z</time>
      </trkpt>
      <trkpt lat="43.78882" lon="7.51561">
        <ele>132.2</ele>
        <time>2017-08-29T11:02:54Z</time>
      </trkpt>
      <trkpt lat="43.78882" lon="7.51566">
        <ele>132.5</ele>
        <time>2017-08-29T11:03:13Z</time>
      </trkpt>
      <trkpt lat="43.78877" lon="7.51558">
        <ele>128.2</ele>
        <time>2017-08-29T11:03:26Z</time>
      </trkpt>
      <trkpt lat="43.78875" lon="7.51551">
        <ele>125.9</ele>
        <time>2017-08-29T11:03:31Z</time>
      </trkpt>
      <trkpt lat="43.78874" lon="7.51549">
        <ele>125</ele>
        <time>2017-08-29T11:03:33Z</time>
      </trkpt>
      <trkpt lat="43.78871" lon="7.51545">
        <ele>123</ele>
        <time>2017-08-29T11:03:36Z</time>
      </trkpt>
      <trkpt lat="43.78871" lon="7.51522">
        <ele>121.1</ele>
        <time>2017-08-29T11:03:52Z</time>
      </trkpt>
      <trkpt lat="43.78877" lon="7.51504">
        <ele>117.8</ele>
        <time>2017-08-29T11:04:08Z</time>
      </trkpt>
      <trkpt lat="43.7888" lon="7.51499">
        <ele>116.3</ele>
        <time>2017-08-29T11:04:11Z</time>
      </trkpt>
      <trkpt lat="43.78883" lon="7.51494">
        <ele>114.5</ele>
        <time>2017-08-29T11:04:16Z</time>
      </trkpt>
      <trkpt lat="43.78884" lon="7.51486">
        <ele>111.8</ele>
        <time>2017-08-29T11:04:21Z</time>
      </trkpt>
      <trkpt lat="43.78881" lon="7.51473">
        <ele>107.8</ele>
        <time>2017-08-29T11:04:36Z</time>
      </trkpt>
      <trkpt lat="43.78872" lon="7.51455">
        <ele>101.9</ele>
        <time>2017-08-29T11:04:52Z</time>
      </trkpt>
      <trkpt lat="43.78868" lon="7.51452">
        <ele>100.9</ele>
        <time>2017-08-29T11:04:57Z</time>
      </trkpt>
      <trkpt lat="43.78866" lon="7.51451">
        <ele>100.5</ele>
        <time>2017-08-29T11:04:59Z</time>
      </trkpt>
      <trkpt lat="43.7886" lon="7.51449">
        <ele>99.4</ele>
        <time>2017-08-29T11:05:15Z</time>
      </trkpt>
      <trkpt lat="43.7886" lon="7.51449">
        <ele>99.4</ele>
        <time>2017-08-29T11:05:39Z</time>
      </trkpt>
      <trkpt lat="43.78854" lon="7.51445">
        <ele>95.4</ele>
        <time>2017-08-29T11:06:01Z</time>
      </trkpt>
      <trkpt lat="43.7885" lon="7.5144">
        <ele>91.7</ele>
        <time>2017-08-29T11:06:08Z</time>
      </trkpt>
      <trkpt lat="43.7885" lon="7.51435">
        <ele>89.6</ele>
        <time>2017-08-29T11:06:12Z</time>
      </trkpt>
      <trkpt lat="43.7885" lon="7.51429">
        <ele>87</ele>
        <time>2017-08-29T11:06:29Z</time>
      </trkpt>
      <trkpt lat="43.78854" lon="7.51421">
        <ele>85.5</ele>
        <time>2017-08-29T11:06:46Z</time>
      </trkpt>
      <trkpt lat="43.7886" lon="7.51415">
        <ele>85.9</ele>
        <time>2017-08-29T11:06:53Z</time>
      </trkpt>
      <trkpt lat="43.78858" lon="7.51409">
        <ele>83.1</ele>
        <time>2017-08-29T11:07:01Z</time>
      </trkpt>
      <trkpt lat="43.78857" lon="7.51405">
        <ele>81.3</ele>
        <time>2017-08-29T11:07:05Z</time>
      </trkpt>
      <trkpt lat="43.78857" lon="7.51404">
        <ele>81</ele>
        <time>2017-08-29T11:07:06Z</time>
      </trkpt>
      <trkpt lat="43.78863" lon="7.5139">
        <ele>78.2</ele>
        <time>2017-08-29T11:07:21Z</time>
      </trkpt>
      <trkpt lat="43.7887" lon="7.51384">
        <ele>76.1</ele>
        <time>2017-08-29T11:07:30Z</time>
      </trkpt>
      <trkpt lat="43.78871" lon="7.51378">
        <ele>74.9</ele>
        <time>2017-08-29T11:07:35Z</time>
      </trkpt>
      <trkpt lat="43.7887" lon="7.51367">
        <ele>72.8</ele>
        <time>2017-08-29T11:07:50Z</time>
      </trkpt>
      <trkpt lat="43.78869" lon="7.51365">
        <ele>72.3</ele>
        <time>2017-08-29T11:07:51Z</time>
      </trkpt>
      <trkpt lat="43.78867" lon="7.51361">
        <ele>71.4</ele>
        <time>2017-08-29T11:07:53Z</time>
      </trkpt>
      <trkpt lat="43.78862" lon="7.51351">
        <ele>67.2</ele>
        <time>2017-08-29T11:07:59Z</time>
      </trkpt>
      <trkpt lat="43.78859" lon="7.51349">
        <ele>65.9</ele>
        <time>2017-08-29T11:08:02Z</time>
      </trkpt>
      <trkpt lat="43.78858" lon="7.51347">
        <ele>65.1</ele>
        <time>2017-08-29T11:08:03Z</time>
      </trkpt>
      <trkpt lat="43.78855" lon="7.51337">
        <ele>61.3</ele>
        <time>2017-08-29T11:08:10Z</time>
      </trkpt>
      <trkpt lat="43.78847" lon="7.51324">
        <ele>58.3</ele>
        <time>2017-08-29T11:08:21Z</time>
      </trkpt>
      <trkpt lat="43.7885" lon="7.51316">
        <ele>57</ele>
        <time>2017-08-29T11:08:26Z</time>
      </trkpt>
      <trkpt lat="43.78849" lon="7.51315">
        <ele>56.8</ele>
        <time>2017-08-29T11:08:28Z</time>
      </trkpt>
      <trkpt lat="43.78847" lon="7.51308">
        <ele>55.4</ele>
        <time>2017-08-29T11:08:40Z</time>
      </trkpt>
      <trkpt lat="43.78847" lon="7.51296">
        <ele>53.3</ele>
        <time>2017-08-29T11:08:54Z</time>
      </trkpt>
      <trkpt lat="43.78838" lon="7.51283">
        <ele>49.7</ele>
        <time>2017-08-29T11:09:08Z</time>
      </trkpt>
      <trkpt lat="43.78833" lon="7.51276">
        <ele>48.8</ele>
        <time>2017-08-29T11:09:23Z</time>
      </trkpt>
      <trkpt lat="43.78833" lon="7.51278">
        <ele>48.1</ele>
        <time>2017-08-29T11:09:46Z</time>
      </trkpt>
      <trkpt lat="43.78833" lon="7.51277">
        <ele>48.4</ele>
        <time>2017-08-29T11:10:09Z</time>
      </trkpt>
      <trkpt lat="43.78831" lon="7.51276">
        <ele>49.2</ele>
        <time>2017-08-29T11:10:28Z</time>
      </trkpt>
      <trkpt lat="43.78831" lon="7.51276">
        <ele>49.2</ele>
        <time>2017-08-29T11:10:53Z</time>
      </trkpt>
      <trkpt lat="43.78829" lon="7.51276">
        <ele>49.5</ele>
        <time>2017-08-29T11:10:59Z</time>
      </trkpt>
      <trkpt lat="43.7881" lon="7.51285">
        <ele>50.9</ele>
        <time>2017-08-29T11:11:16Z</time>
      </trkpt>
      <trkpt lat="43.78799" lon="7.51307">
        <ele>48.5</ele>
        <time>2017-08-29T11:11:32Z</time>
      </trkpt>
      <trkpt lat="43.78798" lon="7.51329">
        <ele>46.5</ele>
        <time>2017-08-29T11:11:48Z</time>
      </trkpt>
      <trkpt lat="43.78795" lon="7.51348">
        <ele>45.5</ele>
        <time>2017-08-29T11:12:03Z</time>
      </trkpt>
      <trkpt lat="43.78782" lon="7.51359">
        <ele>44.5</ele>
        <time>2017-08-29T11:12:18Z</time>
      </trkpt>
      <trkpt lat="43.7877" lon="7.51367">
        <ele>42.9</ele>
        <time>2017-08-29T11:12:31Z</time>
      </trkpt>
      <trkpt lat="43.7876" lon="7.51372">
        <ele>41.8</ele>
        <time>2017-08-29T11:12:48Z</time>
      </trkpt>
      <trkpt lat="43.78759" lon="7.51371">
        <ele>42</ele>
        <time>2017-08-29T11:12:49Z</time>
      </trkpt>
      <trkpt lat="43.78751" lon="7.51365">
        <ele>43.2</ele>
        <time>2017-08-29T11:13:05Z</time>
      </trkpt>
      <trkpt lat="43.78744" lon="7.5136">
        <ele>42.5</ele>
        <time>2017-08-29T11:13:24Z</time>
      </trkpt>
      <trkpt lat="43.7874" lon="7.51358">
        <ele>42</ele>
        <time>2017-08-29T11:13:27Z</time>
      </trkpt>
      <trkpt lat="43.7872" lon="7.51348">
        <ele>42.8</ele>
        <time>2017-08-29T11:13:46Z</time>
      </trkpt>
      <trkpt lat="43.78702" lon="7.5134">
        <ele>46.8</ele>
        <time>2017-08-29T11:14:02Z</time>
      </trkpt>
      <trkpt lat="43.78698" lon="7.51342">
        <ele>46.3</ele>
        <time>2017-08-29T11:14:18Z</time>
      </trkpt>
      <trkpt lat="43.78695" lon="7.51344">
        <ele>46.1</ele>
        <time>2017-08-29T11:14:34Z</time>
      </trkpt>
      <trkpt lat="43.78687" lon="7.51341">
        <ele>46.2</ele>
        <time>2017-08-29T11:14:41Z</time>
      </trkpt>
      <trkpt lat="43.78665" lon="7.51337">
        <ele>46.5</ele>
        <time>2017-08-29T11:14:58Z</time>
      </trkpt>
      <trkpt lat="43.78647" lon="7.51326">
        <ele>47.3</ele>
        <time>2017-08-29T11:15:16Z</time>
      </trkpt>
      <trkpt lat="43.78637" lon="7.51317">
        <ele>46.9</ele>
        <time>2017-08-29T11:15:28Z</time>
      </trkpt>
      <trkpt lat="43.78629" lon="7.51322">
        <ele>45.6</ele>
        <time>2017-08-29T11:15:36Z</time>
      </trkpt>
      <trkpt lat="43.78623" lon="7.51353">
        <ele>43.6</ele>
        <time>2017-08-29T11:15:54Z</time>
      </trkpt>
      <trkpt lat="43.78617" lon="7.51376">
        <ele>41</ele>
        <time>2017-08-29T11:16:09Z</time>
      </trkpt>
      <trkpt lat="43.78603" lon="7.51397">
        <ele>38</ele>
        <time>2017-08-29T11:16:27Z</time>
      </trkpt>
      <trkpt lat="43.7859" lon="7.51415">
        <ele>35.7</ele>
        <time>2017-08-29T11:16:44Z</time>
      </trkpt>
      <trkpt lat="43.78577" lon="7.5143">
        <ele>33</ele>
        <time>2017-08-29T11:17:00Z</time>
      </trkpt>
      <trkpt lat="43.78564" lon="7.51451">
        <ele>30.6</ele>
        <time>2017-08-29T11:17:18Z</time>
      </trkpt>
      <trkpt lat="43.78558" lon="7.51457">
        <ele>30.8</ele>
        <time>2017-08-29T11:17:32Z</time>
      </trkpt>
      <trkpt lat="43.78558" lon="7.51457">
        <ele>30.8</ele>
        <time>2017-08-29T11:17:58Z</time>
      </trkpt>
      <trkpt lat="43.78558" lon="7.51456">
        <ele>30.8</ele>
        <time>2017-08-29T11:18:17Z</time>
      </trkpt>
      <trkpt lat="43.78553" lon="7.51466">
        <ele>30.2</ele>
        <time>2017-08-29T11:18:34Z</time>
      </trkpt>
      <trkpt lat="43.78539" lon="7.51484">
        <ele>27.7</ele>
        <time>2017-08-29T11:18:50Z</time>
      </trkpt>
      <trkpt lat="43.78525" lon="7.51503">
        <ele>26.1</ele>
        <time>2017-08-29T11:19:07Z</time>
      </trkpt>
      <trkpt lat="43.78515" lon="7.51519">
        <ele>22.7</ele>
        <time>2017-08-29T11:19:23Z</time>
      </trkpt>
      <trkpt lat="43.78505" lon="7.51528">
        <ele>21.2</ele>
        <time>2017-08-29T11:19:34Z</time>
      </trkpt>
      <trkpt lat="43.78498" lon="7.51547">
        <ele>19.4</ele>
        <time>2017-08-29T11:19:49Z</time>
      </trkpt>
      <trkpt lat="43.7849" lon="7.51552">
        <ele>18.2</ele>
        <time>2017-08-29T11:20:03Z</time>
      </trkpt>
      <trkpt lat="43.78485" lon="7.51552">
        <ele>17.6</ele>
        <time>2017-08-29T11:20:10Z</time>
      </trkpt>
      <trkpt lat="43.7848" lon="7.51552">
        <ele>17.1</ele>
        <time>2017-08-29T11:20:16Z</time>
      </trkpt>
      <trkpt lat="43.78466" lon="7.51557">
        <ele>13.4</ele>
        <time>2017-08-29T11:20:33Z</time>
      </trkpt>
      <trkpt lat="43.78453" lon="7.51561">
        <ele>8.2</ele>
        <time>2017-08-29T11:20:49Z</time>
      </trkpt>
      <trkpt lat="43.78444" lon="7.51561">
        <ele>5</ele>
        <time>2017-08-29T11:20:59Z</time>
      </trkpt>
      <trkpt lat="43.7844" lon="7.51561">
        <ele>4.7</ele>
        <time>2017-08-29T11:21:03Z</time>
      </trkpt>
      <trkpt lat="43.7844" lon="7.51561">
        <ele>4.7</ele>
        <time>2017-08-29T11:21:04Z</time>
      </trkpt>
      <trkpt lat="43.7842" lon="7.51562">
        <ele>3.4</ele>
        <time>2017-08-29T11:21:21Z</time>
      </trkpt>
      <trkpt lat="43.78394" lon="7.5156">
        <ele>3.8</ele>
        <time>2017-08-29T11:21:41Z</time>
      </trkpt>
      <trkpt lat="43.78383" lon="7.51562">
        <ele>4</ele>
        <time>2017-08-29T11:21:57Z</time>
      </trkpt>
      <trkpt lat="43.78384" lon="7.51575">
        <ele>4</ele>
        <time>2017-08-29T11:22:12Z</time>
      </trkpt>
      <trkpt lat="43.78384" lon="7.51577">
        <ele>4</ele>
        <time>2017-08-29T11:22:26Z</time>
      </trkpt>
      <trkpt lat="43.78385" lon="7.51578">
        <ele>4</ele>
        <time>2017-08-29T11:22:29Z</time>
      </trkpt>
      <trkpt lat="43.78384" lon="7.51604">
        <ele>3.7</ele>
        <time>2017-08-29T11:22:45Z</time>
      </trkpt>
      <trkpt lat="43.78385" lon="7.51605">
        <ele>3.8</ele>
        <time>2017-08-29T11:22:46Z</time>
      </trkpt>
      <trkpt lat="43.78387" lon="7.51612">
        <ele>3.9</ele>
        <time>2017-08-29T11:23:05Z</time>
      </trkpt>
      <trkpt lat="43.78388" lon="7.51617">
        <ele>3.9</ele>
        <time>2017-08-29T11:23:15Z</time>
      </trkpt>
      <trkpt lat="43.78394" lon="7.51637">
        <ele>4.2</ele>
        <time>2017-08-29T11:23:33Z</time>
      </trkpt>
      <trkpt lat="43.78395" lon="7.51643">
        <ele>4.2</ele>
        <time>2017-08-29T11:23:37Z</time>
      </trkpt>
    </trkseg>
  </trk>
</gpx>